<?xml version="1.0" encoding="UTF-8" standalone="no" ?>
<gpx xmlns="http://www.topografix.com/GPX/1/1" xmlns:xsi="http://www.w3.org/2001/XMLSchema-instance" xsi:schemaLocation="http://www.topografix.com/GPX/1/1 http://www.topografix.com/GPX/1/1/gpx.xsd" version="1.1" creator="VisuGPX - https://www.visugpx.com">
  <metadata>
    <name>J3 Edlich - Maribor</name>
  </metadata>
  <trk>
    <name><![CDATA[J3 Edlich - Maribor]]></name>
    <trkseg>
      <trkpt lat="46.97932" lon="16.04151">
        <ele>377.354142</ele>
        <time>2026-07-09T07:13:19.000Z</time>
      </trkpt>
      <trkpt lat="46.97939" lon="16.04137">
        <ele>377.354142</ele>
        <time>2026-07-09T07:13:34.000Z</time>
      </trkpt>
      <trkpt lat="46.97943" lon="16.0413">
        <ele>377.354142</ele>
        <time>2026-07-09T07:13:38.000Z</time>
      </trkpt>
      <trkpt lat="46.97948" lon="16.04121">
        <ele>377.354142</ele>
        <time>2026-07-09T07:13:40.000Z</time>
      </trkpt>
      <trkpt lat="46.9795" lon="16.04118">
        <ele>377.354142</ele>
        <time>2026-07-09T07:13:41.000Z</time>
      </trkpt>
      <trkpt lat="46.97951" lon="16.04116">
        <ele>377.354142</ele>
        <time>2026-07-09T07:13:42.000Z</time>
      </trkpt>
      <trkpt lat="46.97965" lon="16.04101">
        <ele>377.354142</ele>
        <time>2026-07-09T07:13:47.000Z</time>
      </trkpt>
      <trkpt lat="46.97979" lon="16.04084">
        <ele>377.354142</ele>
        <time>2026-07-09T07:13:53.000Z</time>
      </trkpt>
      <trkpt lat="46.97985" lon="16.04078">
        <ele>377.354142</ele>
        <time>2026-07-09T07:13:55.000Z</time>
      </trkpt>
      <trkpt lat="46.98008" lon="16.04057">
        <ele>377.18362</ele>
        <time>2026-07-09T07:14:03.000Z</time>
      </trkpt>
      <trkpt lat="46.98019" lon="16.04049">
        <ele>376.969773</ele>
        <time>2026-07-09T07:14:06.000Z</time>
      </trkpt>
      <trkpt lat="46.98026" lon="16.04043">
        <ele>376.834494</ele>
        <time>2026-07-09T07:14:08.000Z</time>
      </trkpt>
      <trkpt lat="46.9803" lon="16.04039">
        <ele>376.752408</ele>
        <time>2026-07-09T07:14:09.000Z</time>
      </trkpt>
      <trkpt lat="46.98039" lon="16.04027">
        <ele>376.560703</ele>
        <time>2026-07-09T07:14:11.000Z</time>
      </trkpt>
      <trkpt lat="46.98042" lon="16.04019">
        <ele>376.455804</ele>
        <time>2026-07-09T07:14:12.000Z</time>
      </trkpt>
      <trkpt lat="46.98044" lon="16.04009">
        <ele>376.336127</ele>
        <time>2026-07-09T07:14:13.000Z</time>
      </trkpt>
      <trkpt lat="46.98056" lon="16.03978">
        <ele>375.928275</ele>
        <time>2026-07-09T07:14:16.000Z</time>
      </trkpt>
      <trkpt lat="46.9806" lon="16.03968">
        <ele>375.80225</ele>
        <time>2026-07-09T07:14:17.000Z</time>
      </trkpt>
      <trkpt lat="46.98072" lon="16.03947">
        <ele>375.482899</ele>
        <time>2026-07-09T07:14:20.000Z</time>
      </trkpt>
      <trkpt lat="46.98083" lon="16.03927">
        <ele>375.194919</ele>
        <time>2026-07-09T07:14:23.000Z</time>
      </trkpt>
      <trkpt lat="46.98086" lon="16.0392">
        <ele>375.090527</ele>
        <time>2026-07-09T07:14:24.000Z</time>
      </trkpt>
      <trkpt lat="46.98091" lon="16.03911">
        <ele>374.96818</ele>
        <time>2026-07-09T07:14:25.000Z</time>
      </trkpt>
      <trkpt lat="46.98105" lon="16.03882">
        <ele>374.563692</ele>
        <time>2026-07-09T07:14:28.000Z</time>
      </trkpt>
      <trkpt lat="46.98109" lon="16.03873">
        <ele>374.445072</ele>
        <time>2026-07-09T07:14:29.000Z</time>
      </trkpt>
      <trkpt lat="46.98118" lon="16.03849">
        <ele>373.312136</ele>
        <time>2026-07-09T07:14:32.000Z</time>
      </trkpt>
      <trkpt lat="46.98129" lon="16.03814">
        <ele>371.256553</ele>
        <time>2026-07-09T07:14:37.000Z</time>
      </trkpt>
      <trkpt lat="46.98135" lon="16.03793">
        <ele>370.052609</ele>
        <time>2026-07-09T07:14:40.000Z</time>
      </trkpt>
      <trkpt lat="46.9814" lon="16.03778">
        <ele>369.211473</ele>
        <time>2026-07-09T07:14:42.000Z</time>
      </trkpt>
      <trkpt lat="46.98142" lon="16.03772">
        <ele>368.808074</ele>
        <time>2026-07-09T07:14:43.000Z</time>
      </trkpt>
      <trkpt lat="46.98148" lon="16.03748">
        <ele>367.476739</ele>
        <time>2026-07-09T07:14:46.000Z</time>
      </trkpt>
      <trkpt lat="46.9816" lon="16.03711">
        <ele>365.319972</ele>
        <time>2026-07-09T07:14:51.000Z</time>
      </trkpt>
      <trkpt lat="46.98163" lon="16.03705">
        <ele>364.930515</ele>
        <time>2026-07-09T07:14:52.000Z</time>
      </trkpt>
      <trkpt lat="46.98165" lon="16.03695">
        <ele>364.362892</ele>
        <time>2026-07-09T07:14:54.000Z</time>
      </trkpt>
      <trkpt lat="46.98166" lon="16.0368">
        <ele>363.572764</ele>
        <time>2026-07-09T07:14:57.000Z</time>
      </trkpt>
      <trkpt lat="46.98164" lon="16.03656">
        <ele>362.275437</ele>
        <time>2026-07-09T07:15:02.000Z</time>
      </trkpt>
      <trkpt lat="46.98159" lon="16.03632">
        <ele>360.968866</ele>
        <time>2026-07-09T07:15:07.000Z</time>
      </trkpt>
      <trkpt lat="46.98157" lon="16.03615">
        <ele>360.296386</ele>
        <time>2026-07-09T07:15:11.000Z</time>
      </trkpt>
      <trkpt lat="46.98153" lon="16.03598">
        <ele>360.027346</ele>
        <time>2026-07-09T07:15:15.000Z</time>
      </trkpt>
      <trkpt lat="46.98151" lon="16.0359">
        <ele>359.889148</ele>
        <time>2026-07-09T07:15:17.000Z</time>
      </trkpt>
      <trkpt lat="46.98149" lon="16.03579">
        <ele>359.728186</ele>
        <time>2026-07-09T07:15:19.000Z</time>
      </trkpt>
      <trkpt lat="46.98144" lon="16.03562">
        <ele>359.437621</ele>
        <time>2026-07-09T07:15:23.000Z</time>
      </trkpt>
      <trkpt lat="46.98136" lon="16.03544">
        <ele>359.111347</ele>
        <time>2026-07-09T07:15:28.000Z</time>
      </trkpt>
      <trkpt lat="46.98134" lon="16.03542">
        <ele>359.059082</ele>
        <time>2026-07-09T07:15:29.000Z</time>
      </trkpt>
      <trkpt lat="46.98116" lon="16.03522">
        <ele>358.567349</ele>
        <time>2026-07-09T07:15:36.000Z</time>
      </trkpt>
      <trkpt lat="46.98095" lon="16.03498">
        <ele>357.981545</ele>
        <time>2026-07-09T07:15:43.000Z</time>
      </trkpt>
      <trkpt lat="46.98074" lon="16.03473">
        <ele>357.402485</ele>
        <time>2026-07-09T07:15:50.000Z</time>
      </trkpt>
      <trkpt lat="46.98048" lon="16.03445">
        <ele>356.691409</ele>
        <time>2026-07-09T07:15:58.000Z</time>
      </trkpt>
      <trkpt lat="46.98019" lon="16.03422">
        <ele>357.285416</ele>
        <time>2026-07-09T07:16:06.000Z</time>
      </trkpt>
      <trkpt lat="46.98005" lon="16.03411">
        <ele>357.914305</ele>
        <time>2026-07-09T07:16:10.000Z</time>
      </trkpt>
      <trkpt lat="46.97988" lon="16.034">
        <ele>358.633724</ele>
        <time>2026-07-09T07:16:15.000Z</time>
      </trkpt>
      <trkpt lat="46.97957" lon="16.03377">
        <ele>359.979538</ele>
        <time>2026-07-09T07:16:24.000Z</time>
      </trkpt>
      <trkpt lat="46.97935" lon="16.0336">
        <ele>360.94005</ele>
        <time>2026-07-09T07:16:30.000Z</time>
      </trkpt>
      <trkpt lat="46.97927" lon="16.03356">
        <ele>361.250884</ele>
        <time>2026-07-09T07:16:32.000Z</time>
      </trkpt>
      <trkpt lat="46.97911" lon="16.03345">
        <ele>361.930796</ele>
        <time>2026-07-09T07:16:36.000Z</time>
      </trkpt>
      <trkpt lat="46.97892" lon="16.03334">
        <ele>362.732361</ele>
        <time>2026-07-09T07:16:41.000Z</time>
      </trkpt>
      <trkpt lat="46.97863" lon="16.03317">
        <ele>363.851592</ele>
        <time>2026-07-09T07:16:49.000Z</time>
      </trkpt>
      <trkpt lat="46.97846" lon="16.03308">
        <ele>364.456812</ele>
        <time>2026-07-09T07:16:54.000Z</time>
      </trkpt>
      <trkpt lat="46.97831" lon="16.033">
        <ele>364.97784</ele>
        <time>2026-07-09T07:16:59.000Z</time>
      </trkpt>
      <trkpt lat="46.97812" lon="16.0329">
        <ele>365.623645</ele>
        <time>2026-07-09T07:17:06.000Z</time>
      </trkpt>
      <trkpt lat="46.97797" lon="16.03281">
        <ele>366.151927</ele>
        <time>2026-07-09T07:17:13.000Z</time>
      </trkpt>
      <trkpt lat="46.97773" lon="16.03276">
        <ele>366.9359</ele>
        <time>2026-07-09T07:17:21.000Z</time>
      </trkpt>
      <trkpt lat="46.97769" lon="16.03278">
        <ele>367.088535</ele>
        <time>2026-07-09T07:17:22.000Z</time>
      </trkpt>
      <trkpt lat="46.97754" lon="16.03288">
        <ele>367.620558</ele>
        <time>2026-07-09T07:17:25.000Z</time>
      </trkpt>
      <trkpt lat="46.97723" lon="16.03307">
        <ele>368.698136</ele>
        <time>2026-07-09T07:17:30.000Z</time>
      </trkpt>
      <trkpt lat="46.97672" lon="16.03333">
        <ele>367.377296</ele>
        <time>2026-07-09T07:17:37.000Z</time>
      </trkpt>
      <trkpt lat="46.9765" lon="16.03342">
        <ele>366.162571</ele>
        <time>2026-07-09T07:17:40.000Z</time>
      </trkpt>
      <trkpt lat="46.97625" lon="16.03346">
        <ele>364.906942</ele>
        <time>2026-07-09T07:17:43.000Z</time>
      </trkpt>
      <trkpt lat="46.97592" lon="16.03347">
        <ele>363.173767</ele>
        <time>2026-07-09T07:17:48.000Z</time>
      </trkpt>
      <trkpt lat="46.97582" lon="16.03342">
        <ele>362.610937</ele>
        <time>2026-07-09T07:17:50.000Z</time>
      </trkpt>
      <trkpt lat="46.97577" lon="16.03337">
        <ele>362.321823</ele>
        <time>2026-07-09T07:17:51.000Z</time>
      </trkpt>
      <trkpt lat="46.97572" lon="16.03332">
        <ele>362.007743</ele>
        <time>2026-07-09T07:17:52.000Z</time>
      </trkpt>
      <trkpt lat="46.97553" lon="16.03319">
        <ele>360.93866</ele>
        <time>2026-07-09T07:17:55.000Z</time>
      </trkpt>
      <trkpt lat="46.97521" lon="16.03303">
        <ele>358.879473</ele>
        <time>2026-07-09T07:17:59.000Z</time>
      </trkpt>
      <trkpt lat="46.97513" lon="16.03297">
        <ele>358.237939</ele>
        <time>2026-07-09T07:18:00.000Z</time>
      </trkpt>
      <trkpt lat="46.97491" lon="16.03271">
        <ele>356.184732</ele>
        <time>2026-07-09T07:18:03.000Z</time>
      </trkpt>
      <trkpt lat="46.97465" lon="16.03222">
        <ele>353.136911</ele>
        <time>2026-07-09T07:18:07.000Z</time>
      </trkpt>
      <trkpt lat="46.97447" lon="16.03181">
        <ele>350.710644</ele>
        <time>2026-07-09T07:18:10.000Z</time>
      </trkpt>
      <trkpt lat="46.9744" lon="16.03168">
        <ele>349.892068</ele>
        <time>2026-07-09T07:18:11.000Z</time>
      </trkpt>
      <trkpt lat="46.97408" lon="16.03121">
        <ele>346.799554</ele>
        <time>2026-07-09T07:18:15.000Z</time>
      </trkpt>
      <trkpt lat="46.9736" lon="16.03062">
        <ele>344.097741</ele>
        <time>2026-07-09T07:18:21.000Z</time>
      </trkpt>
      <trkpt lat="46.97342" lon="16.03031">
        <ele>342.898633</ele>
        <time>2026-07-09T07:18:24.000Z</time>
      </trkpt>
      <trkpt lat="46.97332" lon="16.0301">
        <ele>342.138354</ele>
        <time>2026-07-09T07:18:26.000Z</time>
      </trkpt>
      <trkpt lat="46.97323" lon="16.02991">
        <ele>341.441429</ele>
        <time>2026-07-09T07:18:28.000Z</time>
      </trkpt>
      <trkpt lat="46.97315" lon="16.02971">
        <ele>340.772083</ele>
        <time>2026-07-09T07:18:30.000Z</time>
      </trkpt>
      <trkpt lat="46.973" lon="16.02925">
        <ele>339.273061</ele>
        <time>2026-07-09T07:18:35.000Z</time>
      </trkpt>
      <trkpt lat="46.97294" lon="16.02908">
        <ele>339.75922</ele>
        <time>2026-07-09T07:18:37.000Z</time>
      </trkpt>
      <trkpt lat="46.97288" lon="16.02884">
        <ele>340.478684</ele>
        <time>2026-07-09T07:18:40.000Z</time>
      </trkpt>
      <trkpt lat="46.97285" lon="16.0287">
        <ele>340.900279</ele>
        <time>2026-07-09T07:18:42.000Z</time>
      </trkpt>
      <trkpt lat="46.97279" lon="16.02839">
        <ele>341.818883</ele>
        <time>2026-07-09T07:18:46.000Z</time>
      </trkpt>
      <trkpt lat="46.97272" lon="16.02814">
        <ele>342.56803</ele>
        <time>2026-07-09T07:18:50.000Z</time>
      </trkpt>
      <trkpt lat="46.97271" lon="16.02809">
        <ele>342.699636</ele>
        <time>2026-07-09T07:18:51.000Z</time>
      </trkpt>
      <trkpt lat="46.97268" lon="16.02798">
        <ele>343.054167</ele>
        <time>2026-07-09T07:18:52.000Z</time>
      </trkpt>
      <trkpt lat="46.97263" lon="16.02787">
        <ele>343.399278</ele>
        <time>2026-07-09T07:18:55.000Z</time>
      </trkpt>
      <trkpt lat="46.97252" lon="16.02774">
        <ele>343.987056</ele>
        <time>2026-07-09T07:18:58.000Z</time>
      </trkpt>
      <trkpt lat="46.97243" lon="16.02763">
        <ele>344.497757</ele>
        <time>2026-07-09T07:19:01.000Z</time>
      </trkpt>
      <trkpt lat="46.9723" lon="16.02751">
        <ele>345.096757</ele>
        <time>2026-07-09T07:19:04.000Z</time>
      </trkpt>
      <trkpt lat="46.9721" lon="16.02736">
        <ele>346.036286</ele>
        <time>2026-07-09T07:19:09.000Z</time>
      </trkpt>
      <trkpt lat="46.97201" lon="16.02731">
        <ele>346.436482</ele>
        <time>2026-07-09T07:19:11.000Z</time>
      </trkpt>
      <trkpt lat="46.97184" lon="16.0272">
        <ele>346.303201</ele>
        <time>2026-07-09T07:19:15.000Z</time>
      </trkpt>
      <trkpt lat="46.97175" lon="16.02711">
        <ele>345.999159</ele>
        <time>2026-07-09T07:19:17.000Z</time>
      </trkpt>
      <trkpt lat="46.9714" lon="16.0268">
        <ele>344.872093</ele>
        <time>2026-07-09T07:19:24.000Z</time>
      </trkpt>
      <trkpt lat="46.97108" lon="16.02654">
        <ele>343.880759</ele>
        <time>2026-07-09T07:19:30.000Z</time>
      </trkpt>
      <trkpt lat="46.97078" lon="16.02629">
        <ele>342.926003</ele>
        <time>2026-07-09T07:19:35.000Z</time>
      </trkpt>
      <trkpt lat="46.97071" lon="16.02625">
        <ele>342.723058</ele>
        <time>2026-07-09T07:19:36.000Z</time>
      </trkpt>
      <trkpt lat="46.97031" lon="16.02595">
        <ele>341.627955</ele>
        <time>2026-07-09T07:19:42.000Z</time>
      </trkpt>
      <trkpt lat="46.97024" lon="16.02591">
        <ele>341.547802</ele>
        <time>2026-07-09T07:19:43.000Z</time>
      </trkpt>
      <trkpt lat="46.96996" lon="16.02576">
        <ele>341.237146</ele>
        <time>2026-07-09T07:19:47.000Z</time>
      </trkpt>
      <trkpt lat="46.96958" lon="16.02554">
        <ele>340.798336</ele>
        <time>2026-07-09T07:19:53.000Z</time>
      </trkpt>
      <trkpt lat="46.96941" lon="16.02542">
        <ele>340.602977</ele>
        <time>2026-07-09T07:19:56.000Z</time>
      </trkpt>
      <trkpt lat="46.9693" lon="16.02533">
        <ele>340.467749</ele>
        <time>2026-07-09T07:19:58.000Z</time>
      </trkpt>
      <trkpt lat="46.96925" lon="16.02527">
        <ele>340.397567</ele>
        <time>2026-07-09T07:19:59.000Z</time>
      </trkpt>
      <trkpt lat="46.96905" lon="16.02501">
        <ele>340.115644</ele>
        <time>2026-07-09T07:20:03.000Z</time>
      </trkpt>
      <trkpt lat="46.96901" lon="16.02492">
        <ele>340.037708</ele>
        <time>2026-07-09T07:20:04.000Z</time>
      </trkpt>
      <trkpt lat="46.9689" lon="16.02473">
        <ele>339.854631</ele>
        <time>2026-07-09T07:20:06.000Z</time>
      </trkpt>
      <trkpt lat="46.96881" lon="16.02448">
        <ele>338.987501</ele>
        <time>2026-07-09T07:20:08.000Z</time>
      </trkpt>
      <trkpt lat="46.96877" lon="16.02434">
        <ele>338.445896</ele>
        <time>2026-07-09T07:20:09.000Z</time>
      </trkpt>
      <trkpt lat="46.96871" lon="16.02393">
        <ele>336.866999</ele>
        <time>2026-07-09T07:20:12.000Z</time>
      </trkpt>
      <trkpt lat="46.96868" lon="16.02379">
        <ele>336.331214</ele>
        <time>2026-07-09T07:20:13.000Z</time>
      </trkpt>
      <trkpt lat="46.96861" lon="16.02332">
        <ele>334.555015</ele>
        <time>2026-07-09T07:20:16.000Z</time>
      </trkpt>
      <trkpt lat="46.96858" lon="16.02317">
        <ele>333.976297</ele>
        <time>2026-07-09T07:20:17.000Z</time>
      </trkpt>
      <trkpt lat="46.96852" lon="16.0229">
        <ele>332.949463</ele>
        <time>2026-07-09T07:20:19.000Z</time>
      </trkpt>
      <trkpt lat="46.96849" lon="16.02272">
        <ele>332.253456</ele>
        <time>2026-07-09T07:20:20.000Z</time>
      </trkpt>
      <trkpt lat="46.96846" lon="16.02257">
        <ele>331.670978</ele>
        <time>2026-07-09T07:20:21.000Z</time>
      </trkpt>
      <trkpt lat="46.96843" lon="16.02245">
        <ele>331.2137</ele>
        <time>2026-07-09T07:20:22.000Z</time>
      </trkpt>
      <trkpt lat="46.96841" lon="16.02226">
        <ele>330.501936</ele>
        <time>2026-07-09T07:20:23.000Z</time>
      </trkpt>
      <trkpt lat="46.96839" lon="16.02198">
        <ele>328.348832</ele>
        <time>2026-07-09T07:20:25.000Z</time>
      </trkpt>
      <trkpt lat="46.96834" lon="16.02165">
        <ele>324.872114</ele>
        <time>2026-07-09T07:20:27.000Z</time>
      </trkpt>
      <trkpt lat="46.96821" lon="16.02138">
        <ele>321.525904</ele>
        <time>2026-07-09T07:20:29.000Z</time>
      </trkpt>
      <trkpt lat="46.96798" lon="16.02102">
        <ele>316.490391</ele>
        <time>2026-07-09T07:20:32.000Z</time>
      </trkpt>
      <trkpt lat="46.96791" lon="16.02094">
        <ele>315.198433</ele>
        <time>2026-07-09T07:20:33.000Z</time>
      </trkpt>
      <trkpt lat="46.96775" lon="16.02075">
        <ele>312.11605</ele>
        <time>2026-07-09T07:20:35.000Z</time>
      </trkpt>
      <trkpt lat="46.9677" lon="16.02069">
        <ele>311.062662</ele>
        <time>2026-07-09T07:20:36.000Z</time>
      </trkpt>
      <trkpt lat="46.96764" lon="16.02065">
        <ele>310.205294</ele>
        <time>2026-07-09T07:20:37.000Z</time>
      </trkpt>
      <trkpt lat="46.96759" lon="16.02065">
        <ele>309.363073</ele>
        <time>2026-07-09T07:20:38.000Z</time>
      </trkpt>
      <trkpt lat="46.96746" lon="16.02068">
        <ele>307.36137</ele>
        <time>2026-07-09T07:20:40.000Z</time>
      </trkpt>
      <trkpt lat="46.96735" lon="16.02071">
        <ele>305.774593</ele>
        <time>2026-07-09T07:20:42.000Z</time>
      </trkpt>
      <trkpt lat="46.96728" lon="16.02068">
        <ele>304.580641</ele>
        <time>2026-07-09T07:20:44.000Z</time>
      </trkpt>
      <trkpt lat="46.96728" lon="16.02052">
        <ele>303.009793</ele>
        <time>2026-07-09T07:20:46.000Z</time>
      </trkpt>
      <trkpt lat="46.96731" lon="16.02047">
        <ele>302.623401</ele>
        <time>2026-07-09T07:20:48.000Z</time>
      </trkpt>
      <trkpt lat="46.96735" lon="16.0204">
        <ele>302.046264</ele>
        <time>2026-07-09T07:20:50.000Z</time>
      </trkpt>
      <trkpt lat="46.96734" lon="16.02037">
        <ele>301.893998</ele>
        <time>2026-07-09T07:20:51.000Z</time>
      </trkpt>
      <trkpt lat="46.96732" lon="16.02039">
        <ele>301.653403</ele>
        <time>2026-07-09T07:20:54.000Z</time>
      </trkpt>
      <trkpt lat="46.96732" lon="16.02039">
        <ele>301.653403</ele>
        <time>2026-07-09T07:20:55.000Z</time>
      </trkpt>
      <trkpt lat="46.96738" lon="16.02035">
        <ele>301.072418</ele>
        <time>2026-07-09T07:22:27.000Z</time>
      </trkpt>
      <trkpt lat="46.9674" lon="16.02032">
        <ele>300.791418</ele>
        <time>2026-07-09T07:22:28.000Z</time>
      </trkpt>
      <trkpt lat="46.96755" lon="16.0202">
        <ele>299.317719</ele>
        <time>2026-07-09T07:22:32.000Z</time>
      </trkpt>
      <trkpt lat="46.96768" lon="16.02014">
        <ele>298.146548</ele>
        <time>2026-07-09T07:22:35.000Z</time>
      </trkpt>
      <trkpt lat="46.96774" lon="16.02015">
        <ele>297.613206</ele>
        <time>2026-07-09T07:22:36.000Z</time>
      </trkpt>
      <trkpt lat="46.9678" lon="16.02016">
        <ele>297.08605</ele>
        <time>2026-07-09T07:22:37.000Z</time>
      </trkpt>
      <trkpt lat="46.9679" lon="16.02019">
        <ele>296.174183</ele>
        <time>2026-07-09T07:22:39.000Z</time>
      </trkpt>
      <trkpt lat="46.96799" lon="16.02025">
        <ele>295.307897</ele>
        <time>2026-07-09T07:22:41.000Z</time>
      </trkpt>
      <trkpt lat="46.96825" lon="16.02037">
        <ele>292.979038</ele>
        <time>2026-07-09T07:22:46.000Z</time>
      </trkpt>
      <trkpt lat="46.96828" lon="16.02039">
        <ele>292.643908</ele>
        <time>2026-07-09T07:22:47.000Z</time>
      </trkpt>
      <trkpt lat="46.96831" lon="16.02039">
        <ele>292.390468</ele>
        <time>2026-07-09T07:22:48.000Z</time>
      </trkpt>
      <trkpt lat="46.96835" lon="16.02031">
        <ele>291.803945</ele>
        <time>2026-07-09T07:22:50.000Z</time>
      </trkpt>
      <trkpt lat="46.96835" lon="16.02025">
        <ele>291.440454</ele>
        <time>2026-07-09T07:22:51.000Z</time>
      </trkpt>
      <trkpt lat="46.96832" lon="16.02014">
        <ele>290.732407</ele>
        <time>2026-07-09T07:22:53.000Z</time>
      </trkpt>
      <trkpt lat="46.96827" lon="16.01996">
        <ele>289.56648</ele>
        <time>2026-07-09T07:22:55.000Z</time>
      </trkpt>
      <trkpt lat="46.96821" lon="16.01976">
        <ele>288.273955</ele>
        <time>2026-07-09T07:22:57.000Z</time>
      </trkpt>
      <trkpt lat="46.96799" lon="16.01924">
        <ele>285.253717</ele>
        <time>2026-07-09T07:23:02.000Z</time>
      </trkpt>
      <trkpt lat="46.96795" lon="16.01913">
        <ele>284.674386</ele>
        <time>2026-07-09T07:23:03.000Z</time>
      </trkpt>
      <trkpt lat="46.96782" lon="16.01876">
        <ele>282.758245</ele>
        <time>2026-07-09T07:23:06.000Z</time>
      </trkpt>
      <trkpt lat="46.96777" lon="16.01863">
        <ele>282.098757</ele>
        <time>2026-07-09T07:23:07.000Z</time>
      </trkpt>
      <trkpt lat="46.96752" lon="16.01783">
        <ele>278.048338</ele>
        <time>2026-07-09T07:23:13.000Z</time>
      </trkpt>
      <trkpt lat="46.96727" lon="16.0171">
        <ele>274.842112</ele>
        <time>2026-07-09T07:23:18.000Z</time>
      </trkpt>
      <trkpt lat="46.96722" lon="16.01695">
        <ele>274.503864</ele>
        <time>2026-07-09T07:23:19.000Z</time>
      </trkpt>
      <trkpt lat="46.96718" lon="16.0168">
        <ele>274.170831</ele>
        <time>2026-07-09T07:23:20.000Z</time>
      </trkpt>
      <trkpt lat="46.96711" lon="16.01647">
        <ele>273.491119</ele>
        <time>2026-07-09T07:23:22.000Z</time>
      </trkpt>
      <trkpt lat="46.9669" lon="16.01561">
        <ele>271.634374</ele>
        <time>2026-07-09T07:23:28.000Z</time>
      </trkpt>
      <trkpt lat="46.96665" lon="16.0149">
        <ele>270.020078</ele>
        <time>2026-07-09T07:23:34.000Z</time>
      </trkpt>
      <trkpt lat="46.96651" lon="16.01434">
        <ele>269.570382</ele>
        <time>2026-07-09T07:23:39.000Z</time>
      </trkpt>
      <trkpt lat="46.96647" lon="16.01383">
        <ele>269.217133</ele>
        <time>2026-07-09T07:23:44.000Z</time>
      </trkpt>
      <trkpt lat="46.96641" lon="16.0135">
        <ele>268.975244</ele>
        <time>2026-07-09T07:23:48.000Z</time>
      </trkpt>
      <trkpt lat="46.96638" lon="16.01342">
        <ele>268.915786</ele>
        <time>2026-07-09T07:23:49.000Z</time>
      </trkpt>
      <trkpt lat="46.96632" lon="16.01321">
        <ele>268.756559</ele>
        <time>2026-07-09T07:23:52.000Z</time>
      </trkpt>
      <trkpt lat="46.96624" lon="16.01313">
        <ele>268.661207</ele>
        <time>2026-07-09T07:23:54.000Z</time>
      </trkpt>
      <trkpt lat="46.96602" lon="16.01313">
        <ele>268.439022</ele>
        <time>2026-07-09T07:23:58.000Z</time>
      </trkpt>
      <trkpt lat="46.96565" lon="16.01323">
        <ele>268.0212</ele>
        <time>2026-07-09T07:24:04.000Z</time>
      </trkpt>
      <trkpt lat="46.96516" lon="16.0134">
        <ele>267.274375</ele>
        <time>2026-07-09T07:24:12.000Z</time>
      </trkpt>
      <trkpt lat="46.96471" lon="16.01354">
        <ele>266.583348</ele>
        <time>2026-07-09T07:24:20.000Z</time>
      </trkpt>
      <trkpt lat="46.96459" lon="16.01357">
        <ele>266.411583</ele>
        <time>2026-07-09T07:24:22.000Z</time>
      </trkpt>
      <trkpt lat="46.96415" lon="16.0137">
        <ele>265.742142</ele>
        <time>2026-07-09T07:24:30.000Z</time>
      </trkpt>
      <trkpt lat="46.96392" lon="16.01376">
        <ele>265.452484</ele>
        <time>2026-07-09T07:24:34.000Z</time>
      </trkpt>
      <trkpt lat="46.96368" lon="16.01383">
        <ele>265.391095</ele>
        <time>2026-07-09T07:24:38.000Z</time>
      </trkpt>
      <trkpt lat="46.96344" lon="16.01389">
        <ele>265.328499</ele>
        <time>2026-07-09T07:24:41.000Z</time>
      </trkpt>
      <trkpt lat="46.96309" lon="16.01399">
        <ele>265.239795</ele>
        <time>2026-07-09T07:24:48.000Z</time>
      </trkpt>
      <trkpt lat="46.96305" lon="16.01401">
        <ele>265.228505</ele>
        <time>2026-07-09T07:24:49.000Z</time>
      </trkpt>
      <trkpt lat="46.96293" lon="16.01404">
        <ele>265.19875</ele>
        <time>2026-07-09T07:24:51.000Z</time>
      </trkpt>
      <trkpt lat="46.96257" lon="16.01415">
        <ele>265.105897</ele>
        <time>2026-07-09T07:24:57.000Z</time>
      </trkpt>
      <trkpt lat="46.96199" lon="16.01431">
        <ele>265.000898</ele>
        <time>2026-07-09T07:25:07.000Z</time>
      </trkpt>
      <trkpt lat="46.96143" lon="16.01447">
        <ele>264.972594</ele>
        <time>2026-07-09T07:25:17.000Z</time>
      </trkpt>
      <trkpt lat="46.96137" lon="16.01449">
        <ele>264.969721</ele>
        <time>2026-07-09T07:25:18.000Z</time>
      </trkpt>
      <trkpt lat="46.96091" lon="16.01462">
        <ele>264.946834</ele>
        <time>2026-07-09T07:25:26.000Z</time>
      </trkpt>
      <trkpt lat="46.96073" lon="16.01467">
        <ele>264.938087</ele>
        <time>2026-07-09T07:25:29.000Z</time>
      </trkpt>
      <trkpt lat="46.96051" lon="16.01474">
        <ele>264.926811</ele>
        <time>2026-07-09T07:25:33.000Z</time>
      </trkpt>
      <trkpt lat="46.96029" lon="16.0148">
        <ele>264.903239</ele>
        <time>2026-07-09T07:25:37.000Z</time>
      </trkpt>
      <trkpt lat="46.96006" lon="16.01487">
        <ele>264.873221</ele>
        <time>2026-07-09T07:25:41.000Z</time>
      </trkpt>
      <trkpt lat="46.95968" lon="16.01499">
        <ele>264.821808</ele>
        <time>2026-07-09T07:25:48.000Z</time>
      </trkpt>
      <trkpt lat="46.95916" lon="16.01519">
        <ele>264.751298</ele>
        <time>2026-07-09T07:25:58.000Z</time>
      </trkpt>
      <trkpt lat="46.95869" lon="16.01545">
        <ele>264.685152</ele>
        <time>2026-07-09T07:26:08.000Z</time>
      </trkpt>
      <trkpt lat="46.95865" lon="16.01548">
        <ele>264.674075</ele>
        <time>2026-07-09T07:26:09.000Z</time>
      </trkpt>
      <trkpt lat="46.95819" lon="16.01574">
        <ele>264.559565</ele>
        <time>2026-07-09T07:26:18.000Z</time>
      </trkpt>
      <trkpt lat="46.9577" lon="16.01605">
        <ele>264.434808</ele>
        <time>2026-07-09T07:26:28.000Z</time>
      </trkpt>
      <trkpt lat="46.9576" lon="16.01613">
        <ele>264.409801</ele>
        <time>2026-07-09T07:26:30.000Z</time>
      </trkpt>
      <trkpt lat="46.95752" lon="16.01622">
        <ele>264.385305</ele>
        <time>2026-07-09T07:26:32.000Z</time>
      </trkpt>
      <trkpt lat="46.95749" lon="16.01628">
        <ele>264.373204</ele>
        <time>2026-07-09T07:26:33.000Z</time>
      </trkpt>
      <trkpt lat="46.95742" lon="16.01643">
        <ele>264.345816</ele>
        <time>2026-07-09T07:26:35.000Z</time>
      </trkpt>
      <trkpt lat="46.95737" lon="16.01666">
        <ele>264.306179</ele>
        <time>2026-07-09T07:26:38.000Z</time>
      </trkpt>
      <trkpt lat="46.95735" lon="16.01672">
        <ele>264.295812</ele>
        <time>2026-07-09T07:26:39.000Z</time>
      </trkpt>
      <trkpt lat="46.95725" lon="16.01702">
        <ele>264.221747</ele>
        <time>2026-07-09T07:26:43.000Z</time>
      </trkpt>
      <trkpt lat="46.95721" lon="16.01709">
        <ele>264.192806</ele>
        <time>2026-07-09T07:26:44.000Z</time>
      </trkpt>
      <trkpt lat="46.95714" lon="16.01719">
        <ele>264.150343</ele>
        <time>2026-07-09T07:26:46.000Z</time>
      </trkpt>
      <trkpt lat="46.95708" lon="16.01724">
        <ele>264.122098</ele>
        <time>2026-07-09T07:26:47.000Z</time>
      </trkpt>
      <trkpt lat="46.95699" lon="16.01731">
        <ele>264.079111</ele>
        <time>2026-07-09T07:26:49.000Z</time>
      </trkpt>
      <trkpt lat="46.95683" lon="16.01738">
        <ele>264.005314</ele>
        <time>2026-07-09T07:26:52.000Z</time>
      </trkpt>
      <trkpt lat="46.95645" lon="16.01748">
        <ele>263.83484</ele>
        <time>2026-07-09T07:26:59.000Z</time>
      </trkpt>
      <trkpt lat="46.95607" lon="16.01769">
        <ele>263.657703</ele>
        <time>2026-07-09T07:27:06.000Z</time>
      </trkpt>
      <trkpt lat="46.95601" lon="16.01781">
        <ele>263.614971</ele>
        <time>2026-07-09T07:27:08.000Z</time>
      </trkpt>
      <trkpt lat="46.95599" lon="16.01788">
        <ele>263.593196</ele>
        <time>2026-07-09T07:27:09.000Z</time>
      </trkpt>
      <trkpt lat="46.95597" lon="16.01801">
        <ele>263.554059</ele>
        <time>2026-07-09T07:27:12.000Z</time>
      </trkpt>
      <trkpt lat="46.95603" lon="16.01814">
        <ele>263.505722</ele>
        <time>2026-07-09T07:27:17.000Z</time>
      </trkpt>
      <trkpt lat="46.9562" lon="16.01829">
        <ele>263.518722</ele>
        <time>2026-07-09T07:27:22.000Z</time>
      </trkpt>
      <trkpt lat="46.9564" lon="16.01843">
        <ele>263.565963</ele>
        <time>2026-07-09T07:27:28.000Z</time>
      </trkpt>
      <trkpt lat="46.95644" lon="16.01847">
        <ele>263.575904</ele>
        <time>2026-07-09T07:27:31.000Z</time>
      </trkpt>
      <trkpt lat="46.95645" lon="16.01848">
        <ele>263.579238</ele>
        <time>2026-07-09T07:27:32.000Z</time>
      </trkpt>
      <trkpt lat="46.95653" lon="16.01866">
        <ele>263.609636</ele>
        <time>2026-07-09T07:27:37.000Z</time>
      </trkpt>
      <trkpt lat="46.95656" lon="16.0187">
        <ele>263.619068</ele>
        <time>2026-07-09T07:27:38.000Z</time>
      </trkpt>
      <trkpt lat="46.95671" lon="16.01887">
        <ele>263.658381</ele>
        <time>2026-07-09T07:27:42.000Z</time>
      </trkpt>
      <trkpt lat="46.95675" lon="16.01891">
        <ele>263.668444</ele>
        <time>2026-07-09T07:27:43.000Z</time>
      </trkpt>
      <trkpt lat="46.95686" lon="16.01905">
        <ele>263.699633</ele>
        <time>2026-07-09T07:27:46.000Z</time>
      </trkpt>
      <trkpt lat="46.957" lon="16.01925">
        <ele>263.742277</ele>
        <time>2026-07-09T07:27:50.000Z</time>
      </trkpt>
      <trkpt lat="46.95708" lon="16.01937">
        <ele>263.764687</ele>
        <time>2026-07-09T07:27:52.000Z</time>
      </trkpt>
      <trkpt lat="46.95718" lon="16.01954">
        <ele>263.798585</ele>
        <time>2026-07-09T07:27:55.000Z</time>
      </trkpt>
      <trkpt lat="46.95734" lon="16.01986">
        <ele>263.855679</ele>
        <time>2026-07-09T07:28:00.000Z</time>
      </trkpt>
      <trkpt lat="46.95737" lon="16.01993">
        <ele>263.867029</ele>
        <time>2026-07-09T07:28:01.000Z</time>
      </trkpt>
      <trkpt lat="46.95744" lon="16.02021">
        <ele>263.938474</ele>
        <time>2026-07-09T07:28:05.000Z</time>
      </trkpt>
      <trkpt lat="46.95746" lon="16.02027">
        <ele>263.955775</ele>
        <time>2026-07-09T07:28:06.000Z</time>
      </trkpt>
      <trkpt lat="46.95751" lon="16.02083">
        <ele>264.094108</ele>
        <time>2026-07-09T07:28:14.000Z</time>
      </trkpt>
      <trkpt lat="46.95753" lon="16.0212">
        <ele>264.183986</ele>
        <time>2026-07-09T07:28:20.000Z</time>
      </trkpt>
      <trkpt lat="46.9575" lon="16.02126">
        <ele>264.200322</ele>
        <time>2026-07-09T07:28:21.000Z</time>
      </trkpt>
      <trkpt lat="46.95746" lon="16.0213">
        <ele>264.217609</ele>
        <time>2026-07-09T07:28:22.000Z</time>
      </trkpt>
      <trkpt lat="46.95742" lon="16.02135">
        <ele>264.236929</ele>
        <time>2026-07-09T07:28:23.000Z</time>
      </trkpt>
      <trkpt lat="46.95737" lon="16.02139">
        <ele>264.257473</ele>
        <time>2026-07-09T07:28:24.000Z</time>
      </trkpt>
      <trkpt lat="46.95725" lon="16.02146">
        <ele>264.302462</ele>
        <time>2026-07-09T07:28:26.000Z</time>
      </trkpt>
      <trkpt lat="46.95712" lon="16.02154">
        <ele>264.352391</ele>
        <time>2026-07-09T07:28:28.000Z</time>
      </trkpt>
      <trkpt lat="46.95701" lon="16.02163">
        <ele>264.398297</ele>
        <time>2026-07-09T07:28:30.000Z</time>
      </trkpt>
      <trkpt lat="46.95691" lon="16.02175">
        <ele>264.445258</ele>
        <time>2026-07-09T07:28:32.000Z</time>
      </trkpt>
      <trkpt lat="46.95685" lon="16.02181">
        <ele>264.468924</ele>
        <time>2026-07-09T07:28:33.000Z</time>
      </trkpt>
      <trkpt lat="46.9566" lon="16.02222">
        <ele>264.634926</ele>
        <time>2026-07-09T07:28:39.000Z</time>
      </trkpt>
      <trkpt lat="46.95656" lon="16.02229">
        <ele>264.663877</ele>
        <time>2026-07-09T07:28:40.000Z</time>
      </trkpt>
      <trkpt lat="46.95651" lon="16.02234">
        <ele>264.691306</ele>
        <time>2026-07-09T07:28:41.000Z</time>
      </trkpt>
      <trkpt lat="46.95635" lon="16.02245">
        <ele>264.777182</ele>
        <time>2026-07-09T07:28:44.000Z</time>
      </trkpt>
      <trkpt lat="46.9558" lon="16.02278">
        <ele>265.058093</ele>
        <time>2026-07-09T07:28:54.000Z</time>
      </trkpt>
      <trkpt lat="46.95574" lon="16.02281">
        <ele>265.086719</ele>
        <time>2026-07-09T07:28:55.000Z</time>
      </trkpt>
      <trkpt lat="46.95563" lon="16.02288">
        <ele>265.143972</ele>
        <time>2026-07-09T07:28:57.000Z</time>
      </trkpt>
      <trkpt lat="46.95544" lon="16.02308">
        <ele>265.256169</ele>
        <time>2026-07-09T07:29:01.000Z</time>
      </trkpt>
      <trkpt lat="46.95539" lon="16.02315">
        <ele>265.285255</ele>
        <time>2026-07-09T07:29:02.000Z</time>
      </trkpt>
      <trkpt lat="46.9553" lon="16.02337">
        <ele>265.376861</ele>
        <time>2026-07-09T07:29:05.000Z</time>
      </trkpt>
      <trkpt lat="46.95516" lon="16.02407">
        <ele>265.868193</ele>
        <time>2026-07-09T07:29:13.000Z</time>
      </trkpt>
      <trkpt lat="46.95512" lon="16.02424">
        <ele>265.991866</ele>
        <time>2026-07-09T07:29:15.000Z</time>
      </trkpt>
      <trkpt lat="46.95508" lon="16.02451">
        <ele>266.176461</ele>
        <time>2026-07-09T07:29:18.000Z</time>
      </trkpt>
      <trkpt lat="46.95497" lon="16.02512">
        <ele>266.602172</ele>
        <time>2026-07-09T07:29:25.000Z</time>
      </trkpt>
      <trkpt lat="46.95495" lon="16.0253">
        <ele>266.724128</ele>
        <time>2026-07-09T07:29:27.000Z</time>
      </trkpt>
      <trkpt lat="46.95493" lon="16.02558">
        <ele>266.911556</ele>
        <time>2026-07-09T07:29:30.000Z</time>
      </trkpt>
      <trkpt lat="46.95496" lon="16.02632">
        <ele>266.781212</ele>
        <time>2026-07-09T07:29:38.000Z</time>
      </trkpt>
      <trkpt lat="46.95497" lon="16.02676">
        <ele>266.399897</ele>
        <time>2026-07-09T07:29:43.000Z</time>
      </trkpt>
      <trkpt lat="46.95496" lon="16.02685">
        <ele>266.32192</ele>
        <time>2026-07-09T07:29:44.000Z</time>
      </trkpt>
      <trkpt lat="46.95493" lon="16.02692">
        <ele>266.247066</ele>
        <time>2026-07-09T07:29:45.000Z</time>
      </trkpt>
      <trkpt lat="46.95484" lon="16.02704">
        <ele>266.099296</ele>
        <time>2026-07-09T07:29:47.000Z</time>
      </trkpt>
      <trkpt lat="46.95474" lon="16.02713">
        <ele>265.947163</ele>
        <time>2026-07-09T07:29:49.000Z</time>
      </trkpt>
      <trkpt lat="46.95462" lon="16.02721">
        <ele>265.787466</ele>
        <time>2026-07-09T07:29:51.000Z</time>
      </trkpt>
      <trkpt lat="46.95451" lon="16.0273">
        <ele>265.625172</ele>
        <time>2026-07-09T07:29:53.000Z</time>
      </trkpt>
      <trkpt lat="46.9544" lon="16.0274">
        <ele>265.458869</ele>
        <time>2026-07-09T07:29:55.000Z</time>
      </trkpt>
      <trkpt lat="46.95435" lon="16.02747">
        <ele>265.377463</ele>
        <time>2026-07-09T07:29:56.000Z</time>
      </trkpt>
      <trkpt lat="46.95427" lon="16.02762">
        <ele>265.215262</ele>
        <time>2026-07-09T07:29:58.000Z</time>
      </trkpt>
      <trkpt lat="46.95423" lon="16.02779">
        <ele>265.056595</ele>
        <time>2026-07-09T07:30:00.000Z</time>
      </trkpt>
      <trkpt lat="46.9541" lon="16.0284">
        <ele>264.838021</ele>
        <time>2026-07-09T07:30:07.000Z</time>
      </trkpt>
      <trkpt lat="46.95389" lon="16.02884">
        <ele>264.797726</ele>
        <time>2026-07-09T07:30:13.000Z</time>
      </trkpt>
      <trkpt lat="46.95361" lon="16.02932">
        <ele>264.751192</ele>
        <time>2026-07-09T07:30:20.000Z</time>
      </trkpt>
      <trkpt lat="46.9533" lon="16.02986">
        <ele>264.699204</ele>
        <time>2026-07-09T07:30:28.000Z</time>
      </trkpt>
      <trkpt lat="46.953" lon="16.03032">
        <ele>264.647456</ele>
        <time>2026-07-09T07:30:35.000Z</time>
      </trkpt>
      <trkpt lat="46.95296" lon="16.03038">
        <ele>264.639855</ele>
        <time>2026-07-09T07:30:36.000Z</time>
      </trkpt>
      <trkpt lat="46.9528" lon="16.03063">
        <ele>264.608959</ele>
        <time>2026-07-09T07:30:40.000Z</time>
      </trkpt>
      <trkpt lat="46.95259" lon="16.03095">
        <ele>264.569789</ele>
        <time>2026-07-09T07:30:45.000Z</time>
      </trkpt>
      <trkpt lat="46.95229" lon="16.0314">
        <ele>264.513691</ele>
        <time>2026-07-09T07:30:52.000Z</time>
      </trkpt>
      <trkpt lat="46.95226" lon="16.03148">
        <ele>264.505777</ele>
        <time>2026-07-09T07:30:53.000Z</time>
      </trkpt>
      <trkpt lat="46.95222" lon="16.03163">
        <ele>264.490928</ele>
        <time>2026-07-09T07:30:55.000Z</time>
      </trkpt>
      <trkpt lat="46.9522" lon="16.03179">
        <ele>264.476302</ele>
        <time>2026-07-09T07:30:57.000Z</time>
      </trkpt>
      <trkpt lat="46.95208" lon="16.03249">
        <ele>264.470071</ele>
        <time>2026-07-09T07:31:05.000Z</time>
      </trkpt>
      <trkpt lat="46.95196" lon="16.03315">
        <ele>264.542232</ele>
        <time>2026-07-09T07:31:13.000Z</time>
      </trkpt>
      <trkpt lat="46.95193" lon="16.03347">
        <ele>264.576769</ele>
        <time>2026-07-09T07:31:17.000Z</time>
      </trkpt>
      <trkpt lat="46.95193" lon="16.03363">
        <ele>264.594209</ele>
        <time>2026-07-09T07:31:19.000Z</time>
      </trkpt>
      <trkpt lat="46.95194" lon="16.03378">
        <ele>264.609655</ele>
        <time>2026-07-09T07:31:21.000Z</time>
      </trkpt>
      <trkpt lat="46.95198" lon="16.03397">
        <ele>264.630944</ele>
        <time>2026-07-09T07:31:24.000Z</time>
      </trkpt>
      <trkpt lat="46.95197" lon="16.03408">
        <ele>264.642667</ele>
        <time>2026-07-09T07:31:26.000Z</time>
      </trkpt>
      <trkpt lat="46.9519" lon="16.03415">
        <ele>264.654721</ele>
        <time>2026-07-09T07:31:28.000Z</time>
      </trkpt>
      <trkpt lat="46.95186" lon="16.03418">
        <ele>264.661681</ele>
        <time>2026-07-09T07:31:29.000Z</time>
      </trkpt>
      <trkpt lat="46.95161" lon="16.03434">
        <ele>264.704973</ele>
        <time>2026-07-09T07:31:35.000Z</time>
      </trkpt>
      <trkpt lat="46.95152" lon="16.03438">
        <ele>264.703784</ele>
        <time>2026-07-09T07:31:37.000Z</time>
      </trkpt>
      <trkpt lat="46.95143" lon="16.0344">
        <ele>264.599667</ele>
        <time>2026-07-09T07:31:39.000Z</time>
      </trkpt>
      <trkpt lat="46.95123" lon="16.03436">
        <ele>264.382502</ele>
        <time>2026-07-09T07:31:43.000Z</time>
      </trkpt>
      <trkpt lat="46.95118" lon="16.03435">
        <ele>264.323219</ele>
        <time>2026-07-09T07:31:44.000Z</time>
      </trkpt>
      <trkpt lat="46.95093" lon="16.0343">
        <ele>264.034779</ele>
        <time>2026-07-09T07:31:49.000Z</time>
      </trkpt>
      <trkpt lat="46.95071" lon="16.03424">
        <ele>263.780248</ele>
        <time>2026-07-09T07:31:53.000Z</time>
      </trkpt>
      <trkpt lat="46.95017" lon="16.03414">
        <ele>263.170493</ele>
        <time>2026-07-09T07:32:02.000Z</time>
      </trkpt>
      <trkpt lat="46.94968" lon="16.03405">
        <ele>262.676674</ele>
        <time>2026-07-09T07:32:10.000Z</time>
      </trkpt>
      <trkpt lat="46.94919" lon="16.03397">
        <ele>262.542802</ele>
        <time>2026-07-09T07:32:18.000Z</time>
      </trkpt>
      <trkpt lat="46.94876" lon="16.03401">
        <ele>262.425676</ele>
        <time>2026-07-09T07:32:25.000Z</time>
      </trkpt>
      <trkpt lat="46.94858" lon="16.03403">
        <ele>262.376567</ele>
        <time>2026-07-09T07:32:28.000Z</time>
      </trkpt>
      <trkpt lat="46.94819" lon="16.03406">
        <ele>262.267585</ele>
        <time>2026-07-09T07:32:35.000Z</time>
      </trkpt>
      <trkpt lat="46.94808" lon="16.03406">
        <ele>262.238873</ele>
        <time>2026-07-09T07:32:37.000Z</time>
      </trkpt>
      <trkpt lat="46.94772" lon="16.034">
        <ele>262.434114</ele>
        <time>2026-07-09T07:32:44.000Z</time>
      </trkpt>
      <trkpt lat="46.94768" lon="16.03398">
        <ele>262.483224</ele>
        <time>2026-07-09T07:32:45.000Z</time>
      </trkpt>
      <trkpt lat="46.94763" lon="16.03395">
        <ele>262.535289</ele>
        <time>2026-07-09T07:32:46.000Z</time>
      </trkpt>
      <trkpt lat="46.94753" lon="16.03385">
        <ele>262.646935</ele>
        <time>2026-07-09T07:32:48.000Z</time>
      </trkpt>
      <trkpt lat="46.94749" lon="16.03379">
        <ele>262.70732</ele>
        <time>2026-07-09T07:32:49.000Z</time>
      </trkpt>
      <trkpt lat="46.94727" lon="16.0333">
        <ele>263.100405</ele>
        <time>2026-07-09T07:32:55.000Z</time>
      </trkpt>
      <trkpt lat="46.94695" lon="16.03275">
        <ele>263.58112</ele>
        <time>2026-07-09T07:33:03.000Z</time>
      </trkpt>
      <trkpt lat="46.94665" lon="16.03237">
        <ele>263.967721</ele>
        <time>2026-07-09T07:33:10.000Z</time>
      </trkpt>
      <trkpt lat="46.94627" lon="16.03194">
        <ele>263.84889</ele>
        <time>2026-07-09T07:33:18.000Z</time>
      </trkpt>
      <trkpt lat="46.94621" lon="16.03189">
        <ele>263.830923</ele>
        <time>2026-07-09T07:33:19.000Z</time>
      </trkpt>
      <trkpt lat="46.94595" lon="16.03177">
        <ele>263.763249</ele>
        <time>2026-07-09T07:33:24.000Z</time>
      </trkpt>
      <trkpt lat="46.94552" lon="16.03157">
        <ele>263.651671</ele>
        <time>2026-07-09T07:33:32.000Z</time>
      </trkpt>
      <trkpt lat="46.94498" lon="16.03136">
        <ele>263.470498</ele>
        <time>2026-07-09T07:33:42.000Z</time>
      </trkpt>
      <trkpt lat="46.94449" lon="16.03128">
        <ele>262.765205</ele>
        <time>2026-07-09T07:33:51.000Z</time>
      </trkpt>
      <trkpt lat="46.94401" lon="16.03121">
        <ele>262.071442</ele>
        <time>2026-07-09T07:34:00.000Z</time>
      </trkpt>
      <trkpt lat="46.94379" lon="16.03108">
        <ele>261.724413</ele>
        <time>2026-07-09T07:34:06.000Z</time>
      </trkpt>
      <trkpt lat="46.94369" lon="16.03101">
        <ele>261.563848</ele>
        <time>2026-07-09T07:34:09.000Z</time>
      </trkpt>
      <trkpt lat="46.94353" lon="16.03087">
        <ele>261.302065</ele>
        <time>2026-07-09T07:34:13.000Z</time>
      </trkpt>
      <trkpt lat="46.94344" lon="16.03081">
        <ele>261.163507</ele>
        <time>2026-07-09T07:34:15.000Z</time>
      </trkpt>
      <trkpt lat="46.94337" lon="16.03086">
        <ele>261.051581</ele>
        <time>2026-07-09T07:34:17.000Z</time>
      </trkpt>
      <trkpt lat="46.94334" lon="16.03096">
        <ele>260.940192</ele>
        <time>2026-07-09T07:34:19.000Z</time>
      </trkpt>
      <trkpt lat="46.94332" lon="16.03103">
        <ele>260.959178</ele>
        <time>2026-07-09T07:34:20.000Z</time>
      </trkpt>
      <trkpt lat="46.94331" lon="16.03134">
        <ele>261.039659</ele>
        <time>2026-07-09T07:34:26.000Z</time>
      </trkpt>
      <trkpt lat="46.94332" lon="16.03143">
        <ele>261.064532</ele>
        <time>2026-07-09T07:34:29.000Z</time>
      </trkpt>
      <trkpt lat="46.94334" lon="16.03144">
        <ele>261.071829</ele>
        <time>2026-07-09T07:34:30.000Z</time>
      </trkpt>
      <trkpt lat="46.94335" lon="16.0314">
        <ele>261.083787</ele>
        <time>2026-07-09T07:34:32.000Z</time>
      </trkpt>
      <trkpt lat="46.94332" lon="16.0312">
        <ele>261.135762</ele>
        <time>2026-07-09T07:34:37.000Z</time>
      </trkpt>
      <trkpt lat="46.94336" lon="16.03094">
        <ele>261.205356</ele>
        <time>2026-07-09T07:34:42.000Z</time>
      </trkpt>
      <trkpt lat="46.94336" lon="16.03076">
        <ele>261.25168</ele>
        <time>2026-07-09T07:34:47.000Z</time>
      </trkpt>
      <trkpt lat="46.94334" lon="16.03072">
        <ele>261.262795</ele>
        <time>2026-07-09T07:34:48.000Z</time>
      </trkpt>
      <trkpt lat="46.94327" lon="16.03068">
        <ele>261.290419</ele>
        <time>2026-07-09T07:34:50.000Z</time>
      </trkpt>
      <trkpt lat="46.94319" lon="16.03077">
        <ele>261.329571</ele>
        <time>2026-07-09T07:34:53.000Z</time>
      </trkpt>
      <trkpt lat="46.94312" lon="16.03104">
        <ele>261.404446</ele>
        <time>2026-07-09T07:34:58.000Z</time>
      </trkpt>
      <trkpt lat="46.94308" lon="16.03123">
        <ele>261.455881</ele>
        <time>2026-07-09T07:35:01.000Z</time>
      </trkpt>
      <trkpt lat="46.94301" lon="16.03137">
        <ele>261.498631</ele>
        <time>2026-07-09T07:35:03.000Z</time>
      </trkpt>
      <trkpt lat="46.94292" lon="16.03155">
        <ele>261.556818</ele>
        <time>2026-07-09T07:35:06.000Z</time>
      </trkpt>
      <trkpt lat="46.94285" lon="16.03164">
        <ele>261.593898</ele>
        <time>2026-07-09T07:35:08.000Z</time>
      </trkpt>
      <trkpt lat="46.94271" lon="16.0318">
        <ele>261.45218</ele>
        <time>2026-07-09T07:35:11.000Z</time>
      </trkpt>
      <trkpt lat="46.94265" lon="16.03193">
        <ele>261.255908</ele>
        <time>2026-07-09T07:35:13.000Z</time>
      </trkpt>
      <trkpt lat="46.9426" lon="16.03211">
        <ele>261.041427</ele>
        <time>2026-07-09T07:35:15.000Z</time>
      </trkpt>
      <trkpt lat="46.9426" lon="16.03237">
        <ele>260.737629</ele>
        <time>2026-07-09T07:35:18.000Z</time>
      </trkpt>
      <trkpt lat="46.94265" lon="16.03279">
        <ele>260.239382</ele>
        <time>2026-07-09T07:35:23.000Z</time>
      </trkpt>
      <trkpt lat="46.94267" lon="16.0329">
        <ele>260.118375</ele>
        <time>2026-07-09T07:35:24.000Z</time>
      </trkpt>
      <trkpt lat="46.94275" lon="16.0334">
        <ele>259.518163</ele>
        <time>2026-07-09T07:35:30.000Z</time>
      </trkpt>
      <trkpt lat="46.94277" lon="16.03347">
        <ele>259.432988</ele>
        <time>2026-07-09T07:35:31.000Z</time>
      </trkpt>
      <trkpt lat="46.9428" lon="16.03355">
        <ele>259.326704</ele>
        <time>2026-07-09T07:35:32.000Z</time>
      </trkpt>
      <trkpt lat="46.94291" lon="16.03384">
        <ele>258.937452</ele>
        <time>2026-07-09T07:35:36.000Z</time>
      </trkpt>
      <trkpt lat="46.94295" lon="16.03391">
        <ele>258.838839</ele>
        <time>2026-07-09T07:35:37.000Z</time>
      </trkpt>
      <trkpt lat="46.94311" lon="16.03416">
        <ele>258.49778</ele>
        <time>2026-07-09T07:35:41.000Z</time>
      </trkpt>
      <trkpt lat="46.94344" lon="16.03457">
        <ele>258.127724</ele>
        <time>2026-07-09T07:35:48.000Z</time>
      </trkpt>
      <trkpt lat="46.94377" lon="16.03503">
        <ele>257.731851</ele>
        <time>2026-07-09T07:35:56.000Z</time>
      </trkpt>
      <trkpt lat="46.94386" lon="16.03525">
        <ele>257.582264</ele>
        <time>2026-07-09T07:35:59.000Z</time>
      </trkpt>
      <trkpt lat="46.94391" lon="16.03541">
        <ele>257.481862</ele>
        <time>2026-07-09T07:36:01.000Z</time>
      </trkpt>
      <trkpt lat="46.94402" lon="16.03587">
        <ele>257.189202</ele>
        <time>2026-07-09T07:36:07.000Z</time>
      </trkpt>
      <trkpt lat="46.94405" lon="16.03595">
        <ele>257.139139</ele>
        <time>2026-07-09T07:36:08.000Z</time>
      </trkpt>
      <trkpt lat="46.94412" lon="16.03617">
        <ele>256.991077</ele>
        <time>2026-07-09T07:36:11.000Z</time>
      </trkpt>
      <trkpt lat="46.94417" lon="16.03632">
        <ele>256.866878</ele>
        <time>2026-07-09T07:36:13.000Z</time>
      </trkpt>
      <trkpt lat="46.94422" lon="16.03646">
        <ele>256.74688</ele>
        <time>2026-07-09T07:36:15.000Z</time>
      </trkpt>
      <trkpt lat="46.9443" lon="16.03665">
        <ele>256.5809</ele>
        <time>2026-07-09T07:36:18.000Z</time>
      </trkpt>
      <trkpt lat="46.94439" lon="16.03702">
        <ele>256.287165</ele>
        <time>2026-07-09T07:36:23.000Z</time>
      </trkpt>
      <trkpt lat="46.94439" lon="16.03712">
        <ele>256.211964</ele>
        <time>2026-07-09T07:36:24.000Z</time>
      </trkpt>
      <trkpt lat="46.9444" lon="16.03776">
        <ele>255.73839</ele>
        <time>2026-07-09T07:36:32.000Z</time>
      </trkpt>
      <trkpt lat="46.94441" lon="16.03793">
        <ele>255.610555</ele>
        <time>2026-07-09T07:36:34.000Z</time>
      </trkpt>
      <trkpt lat="46.94439" lon="16.03818">
        <ele>255.424935</ele>
        <time>2026-07-09T07:36:37.000Z</time>
      </trkpt>
      <trkpt lat="46.9444" lon="16.03869">
        <ele>255.04904</ele>
        <time>2026-07-09T07:36:43.000Z</time>
      </trkpt>
      <trkpt lat="46.9444" lon="16.03876">
        <ele>255.051805</ele>
        <time>2026-07-09T07:36:44.000Z</time>
      </trkpt>
      <trkpt lat="46.94441" lon="16.03941">
        <ele>255.077517</ele>
        <time>2026-07-09T07:36:51.000Z</time>
      </trkpt>
      <trkpt lat="46.9444" lon="16.04013">
        <ele>255.105833</ele>
        <time>2026-07-09T07:36:59.000Z</time>
      </trkpt>
      <trkpt lat="46.9444" lon="16.04049">
        <ele>255.11985</ele>
        <time>2026-07-09T07:37:03.000Z</time>
      </trkpt>
      <trkpt lat="46.94439" lon="16.04083">
        <ele>255.133244</ele>
        <time>2026-07-09T07:37:07.000Z</time>
      </trkpt>
      <trkpt lat="46.94438" lon="16.04117">
        <ele>255.146515</ele>
        <time>2026-07-09T07:37:11.000Z</time>
      </trkpt>
      <trkpt lat="46.94439" lon="16.04134">
        <ele>255.152891</ele>
        <time>2026-07-09T07:37:13.000Z</time>
      </trkpt>
      <trkpt lat="46.94438" lon="16.04143">
        <ele>255.154627</ele>
        <time>2026-07-09T07:37:14.000Z</time>
      </trkpt>
      <trkpt lat="46.94436" lon="16.04177">
        <ele>255.161192</ele>
        <time>2026-07-09T07:37:18.000Z</time>
      </trkpt>
      <trkpt lat="46.94434" lon="16.04203">
        <ele>255.166154</ele>
        <time>2026-07-09T07:37:21.000Z</time>
      </trkpt>
      <trkpt lat="46.9443" lon="16.04255">
        <ele>255.176309</ele>
        <time>2026-07-09T07:37:27.000Z</time>
      </trkpt>
      <trkpt lat="46.94428" lon="16.04273">
        <ele>255.17981</ele>
        <time>2026-07-09T07:37:29.000Z</time>
      </trkpt>
      <trkpt lat="46.94426" lon="16.0429">
        <ele>255.183163</ele>
        <time>2026-07-09T07:37:31.000Z</time>
      </trkpt>
      <trkpt lat="46.94423" lon="16.04326">
        <ele>255.19007</ele>
        <time>2026-07-09T07:37:35.000Z</time>
      </trkpt>
      <trkpt lat="46.94419" lon="16.04375">
        <ele>255.199683</ele>
        <time>2026-07-09T07:37:41.000Z</time>
      </trkpt>
      <trkpt lat="46.94418" lon="16.04384">
        <ele>255.201347</ele>
        <time>2026-07-09T07:37:42.000Z</time>
      </trkpt>
      <trkpt lat="46.94415" lon="16.04409">
        <ele>255.283381</ele>
        <time>2026-07-09T07:37:45.000Z</time>
      </trkpt>
      <trkpt lat="46.94411" lon="16.04442">
        <ele>255.455689</ele>
        <time>2026-07-09T07:37:49.000Z</time>
      </trkpt>
      <trkpt lat="46.94411" lon="16.04451">
        <ele>255.500773</ele>
        <time>2026-07-09T07:37:50.000Z</time>
      </trkpt>
      <trkpt lat="46.94404" lon="16.04512">
        <ele>255.810127</ele>
        <time>2026-07-09T07:37:57.000Z</time>
      </trkpt>
      <trkpt lat="46.94403" lon="16.0452">
        <ele>255.854485</ele>
        <time>2026-07-09T07:37:58.000Z</time>
      </trkpt>
      <trkpt lat="46.94396" lon="16.04572">
        <ele>256.118913</ele>
        <time>2026-07-09T07:38:04.000Z</time>
      </trkpt>
      <trkpt lat="46.94396" lon="16.0458">
        <ele>256.162168</ele>
        <time>2026-07-09T07:38:05.000Z</time>
      </trkpt>
      <trkpt lat="46.94387" lon="16.04639">
        <ele>256.462512</ele>
        <time>2026-07-09T07:38:12.000Z</time>
      </trkpt>
      <trkpt lat="46.94386" lon="16.04647">
        <ele>256.506424</ele>
        <time>2026-07-09T07:38:13.000Z</time>
      </trkpt>
      <trkpt lat="46.94382" lon="16.04681">
        <ele>256.480887</ele>
        <time>2026-07-09T07:38:17.000Z</time>
      </trkpt>
      <trkpt lat="46.94381" lon="16.04689">
        <ele>256.46653</ele>
        <time>2026-07-09T07:38:18.000Z</time>
      </trkpt>
      <trkpt lat="46.94374" lon="16.0474">
        <ele>256.378653</ele>
        <time>2026-07-09T07:38:24.000Z</time>
      </trkpt>
      <trkpt lat="46.9437" lon="16.04763">
        <ele>256.337585</ele>
        <time>2026-07-09T07:38:27.000Z</time>
      </trkpt>
      <trkpt lat="46.94363" lon="16.04782">
        <ele>256.300406</ele>
        <time>2026-07-09T07:38:30.000Z</time>
      </trkpt>
      <trkpt lat="46.94357" lon="16.04789">
        <ele>256.280176</ele>
        <time>2026-07-09T07:38:32.000Z</time>
      </trkpt>
      <trkpt lat="46.94353" lon="16.04789">
        <ele>256.269894</ele>
        <time>2026-07-09T07:38:33.000Z</time>
      </trkpt>
      <trkpt lat="46.94321" lon="16.0478">
        <ele>256.1897</ele>
        <time>2026-07-09T07:38:39.000Z</time>
      </trkpt>
      <trkpt lat="46.94281" lon="16.04768">
        <ele>256.085954</ele>
        <time>2026-07-09T07:38:46.000Z</time>
      </trkpt>
      <trkpt lat="46.94228" lon="16.04751">
        <ele>256.468221</ele>
        <time>2026-07-09T07:38:55.000Z</time>
      </trkpt>
      <trkpt lat="46.94222" lon="16.04749">
        <ele>256.515153</ele>
        <time>2026-07-09T07:38:56.000Z</time>
      </trkpt>
      <trkpt lat="46.94165" lon="16.04733">
        <ele>256.949103</ele>
        <time>2026-07-09T07:39:06.000Z</time>
      </trkpt>
      <trkpt lat="46.94154" lon="16.0473">
        <ele>257.034379</ele>
        <time>2026-07-09T07:39:08.000Z</time>
      </trkpt>
      <trkpt lat="46.94145" lon="16.04723">
        <ele>257.106629</ele>
        <time>2026-07-09T07:39:10.000Z</time>
      </trkpt>
      <trkpt lat="46.94143" lon="16.04717">
        <ele>257.1393</ele>
        <time>2026-07-09T07:39:11.000Z</time>
      </trkpt>
      <trkpt lat="46.94143" lon="16.04711">
        <ele>257.171435</ele>
        <time>2026-07-09T07:39:12.000Z</time>
      </trkpt>
      <trkpt lat="46.94144" lon="16.04697">
        <ele>257.245712</ele>
        <time>2026-07-09T07:39:14.000Z</time>
      </trkpt>
      <trkpt lat="46.94151" lon="16.04651">
        <ele>257.461925</ele>
        <time>2026-07-09T07:39:20.000Z</time>
      </trkpt>
      <trkpt lat="46.94153" lon="16.04636">
        <ele>257.506562</ele>
        <time>2026-07-09T07:39:22.000Z</time>
      </trkpt>
      <trkpt lat="46.94162" lon="16.04563">
        <ele>257.723201</ele>
        <time>2026-07-09T07:39:31.000Z</time>
      </trkpt>
      <trkpt lat="46.94163" lon="16.04546">
        <ele>257.773662</ele>
        <time>2026-07-09T07:39:33.000Z</time>
      </trkpt>
      <trkpt lat="46.94164" lon="16.04538">
        <ele>257.79845</ele>
        <time>2026-07-09T07:39:34.000Z</time>
      </trkpt>
      <trkpt lat="46.94164" lon="16.04504">
        <ele>257.897513</ele>
        <time>2026-07-09T07:39:38.000Z</time>
      </trkpt>
      <trkpt lat="46.94167" lon="16.04424">
        <ele>258.133851</ele>
        <time>2026-07-09T07:39:48.000Z</time>
      </trkpt>
      <trkpt lat="46.94167" lon="16.0441">
        <ele>258.176342</ele>
        <time>2026-07-09T07:39:50.000Z</time>
      </trkpt>
      <trkpt lat="46.94167" lon="16.04403">
        <ele>258.195671</ele>
        <time>2026-07-09T07:39:51.000Z</time>
      </trkpt>
      <trkpt lat="46.94163" lon="16.04395">
        <ele>258.197328</ele>
        <time>2026-07-09T07:39:53.000Z</time>
      </trkpt>
      <trkpt lat="46.94155" lon="16.04392">
        <ele>258.188256</ele>
        <time>2026-07-09T07:39:55.000Z</time>
      </trkpt>
      <trkpt lat="46.94151" lon="16.04393">
        <ele>258.182962</ele>
        <time>2026-07-09T07:39:56.000Z</time>
      </trkpt>
      <trkpt lat="46.94122" lon="16.04412">
        <ele>258.146283</ele>
        <time>2026-07-09T07:40:02.000Z</time>
      </trkpt>
      <trkpt lat="46.94082" lon="16.04437">
        <ele>258.096198</ele>
        <time>2026-07-09T07:40:10.000Z</time>
      </trkpt>
      <trkpt lat="46.94072" lon="16.0444">
        <ele>258.084185</ele>
        <time>2026-07-09T07:40:12.000Z</time>
      </trkpt>
      <trkpt lat="46.94062" lon="16.04439">
        <ele>258.072599</ele>
        <time>2026-07-09T07:40:14.000Z</time>
      </trkpt>
      <trkpt lat="46.94057" lon="16.04438">
        <ele>258.066758</ele>
        <time>2026-07-09T07:40:15.000Z</time>
      </trkpt>
      <trkpt lat="46.94022" lon="16.04416">
        <ele>258.022457</ele>
        <time>2026-07-09T07:40:22.000Z</time>
      </trkpt>
      <trkpt lat="46.94001" lon="16.04402">
        <ele>257.996406</ele>
        <time>2026-07-09T07:40:26.000Z</time>
      </trkpt>
      <trkpt lat="46.93992" lon="16.04393">
        <ele>257.951153</ele>
        <time>2026-07-09T07:40:28.000Z</time>
      </trkpt>
      <trkpt lat="46.93966" lon="16.04351">
        <ele>257.788848</ele>
        <time>2026-07-09T07:40:35.000Z</time>
      </trkpt>
      <trkpt lat="46.93953" lon="16.04334">
        <ele>257.715391</ele>
        <time>2026-07-09T07:40:38.000Z</time>
      </trkpt>
      <trkpt lat="46.93942" lon="16.04326">
        <ele>257.663292</ele>
        <time>2026-07-09T07:40:40.000Z</time>
      </trkpt>
      <trkpt lat="46.93908" lon="16.04317">
        <ele>257.520114</ele>
        <time>2026-07-09T07:40:46.000Z</time>
      </trkpt>
      <trkpt lat="46.93892" lon="16.04314">
        <ele>257.450704</ele>
        <time>2026-07-09T07:40:49.000Z</time>
      </trkpt>
      <trkpt lat="46.93886" lon="16.04314">
        <ele>257.426692</ele>
        <time>2026-07-09T07:40:50.000Z</time>
      </trkpt>
      <trkpt lat="46.93876" lon="16.04315">
        <ele>257.382848</ele>
        <time>2026-07-09T07:40:52.000Z</time>
      </trkpt>
      <trkpt lat="46.93871" lon="16.04315">
        <ele>257.360881</ele>
        <time>2026-07-09T07:40:53.000Z</time>
      </trkpt>
      <trkpt lat="46.93835" lon="16.04324">
        <ele>257.119816</ele>
        <time>2026-07-09T07:41:00.000Z</time>
      </trkpt>
      <trkpt lat="46.9382" lon="16.04333">
        <ele>256.855257</ele>
        <time>2026-07-09T07:41:03.000Z</time>
      </trkpt>
      <trkpt lat="46.93807" lon="16.04344">
        <ele>256.586285</ele>
        <time>2026-07-09T07:41:06.000Z</time>
      </trkpt>
      <trkpt lat="46.93802" lon="16.04347">
        <ele>256.499804</ele>
        <time>2026-07-09T07:41:07.000Z</time>
      </trkpt>
      <trkpt lat="46.93792" lon="16.04351">
        <ele>256.325335</ele>
        <time>2026-07-09T07:41:09.000Z</time>
      </trkpt>
      <trkpt lat="46.93787" lon="16.0435">
        <ele>256.247636</ele>
        <time>2026-07-09T07:41:10.000Z</time>
      </trkpt>
      <trkpt lat="46.93783" lon="16.04349">
        <ele>256.17246</ele>
        <time>2026-07-09T07:41:11.000Z</time>
      </trkpt>
      <trkpt lat="46.93769" lon="16.0434">
        <ele>255.907821</ele>
        <time>2026-07-09T07:41:15.000Z</time>
      </trkpt>
      <trkpt lat="46.93764" lon="16.04331">
        <ele>255.773562</ele>
        <time>2026-07-09T07:41:17.000Z</time>
      </trkpt>
      <trkpt lat="46.9376" lon="16.04318">
        <ele>255.609529</ele>
        <time>2026-07-09T07:41:19.000Z</time>
      </trkpt>
      <trkpt lat="46.93757" lon="16.04311">
        <ele>255.521689</ele>
        <time>2026-07-09T07:41:20.000Z</time>
      </trkpt>
      <trkpt lat="46.93751" lon="16.04302">
        <ele>255.366627</ele>
        <time>2026-07-09T07:41:22.000Z</time>
      </trkpt>
      <trkpt lat="46.93746" lon="16.043">
        <ele>255.287749</ele>
        <time>2026-07-09T07:41:23.000Z</time>
      </trkpt>
      <trkpt lat="46.93711" lon="16.04289">
        <ele>254.688323</ele>
        <time>2026-07-09T07:41:30.000Z</time>
      </trkpt>
      <trkpt lat="46.93694" lon="16.04281">
        <ele>254.377529</ele>
        <time>2026-07-09T07:41:34.000Z</time>
      </trkpt>
      <trkpt lat="46.93681" lon="16.04278">
        <ele>254.230125</ele>
        <time>2026-07-09T07:41:37.000Z</time>
      </trkpt>
      <trkpt lat="46.93678" lon="16.04276">
        <ele>254.278582</ele>
        <time>2026-07-09T07:41:38.000Z</time>
      </trkpt>
      <trkpt lat="46.93668" lon="16.04271">
        <ele>254.408253</ele>
        <time>2026-07-09T07:41:41.000Z</time>
      </trkpt>
      <trkpt lat="46.93628" lon="16.04253">
        <ele>254.932309</ele>
        <time>2026-07-09T07:41:51.000Z</time>
      </trkpt>
      <trkpt lat="46.93618" lon="16.04247">
        <ele>255.067259</ele>
        <time>2026-07-09T07:41:53.000Z</time>
      </trkpt>
      <trkpt lat="46.93607" lon="16.04242">
        <ele>255.205461</ele>
        <time>2026-07-09T07:41:55.000Z</time>
      </trkpt>
      <trkpt lat="46.93602" lon="16.04239">
        <ele>255.273097</ele>
        <time>2026-07-09T07:41:56.000Z</time>
      </trkpt>
      <trkpt lat="46.93598" lon="16.04238">
        <ele>255.327962</ele>
        <time>2026-07-09T07:41:57.000Z</time>
      </trkpt>
      <trkpt lat="46.93592" lon="16.04241">
        <ele>255.408102</ele>
        <time>2026-07-09T07:41:59.000Z</time>
      </trkpt>
      <trkpt lat="46.9359" lon="16.04245">
        <ele>255.447657</ele>
        <time>2026-07-09T07:42:00.000Z</time>
      </trkpt>
      <trkpt lat="46.93589" lon="16.0426">
        <ele>255.575142</ele>
        <time>2026-07-09T07:42:03.000Z</time>
      </trkpt>
      <trkpt lat="46.93586" lon="16.04293">
        <ele>255.862114</ele>
        <time>2026-07-09T07:42:09.000Z</time>
      </trkpt>
      <trkpt lat="46.93582" lon="16.04335">
        <ele>256.223637</ele>
        <time>2026-07-09T07:42:16.000Z</time>
      </trkpt>
      <trkpt lat="46.93579" lon="16.04377">
        <ele>256.538218</ele>
        <time>2026-07-09T07:42:23.000Z</time>
      </trkpt>
      <trkpt lat="46.93575" lon="16.04419">
        <ele>256.769803</ele>
        <time>2026-07-09T07:42:31.000Z</time>
      </trkpt>
      <trkpt lat="46.93573" lon="16.04466">
        <ele>257.033212</ele>
        <time>2026-07-09T07:42:39.000Z</time>
      </trkpt>
      <trkpt lat="46.93572" lon="16.04479">
        <ele>257.102303</ele>
        <time>2026-07-09T07:42:41.000Z</time>
      </trkpt>
      <trkpt lat="46.93572" lon="16.04483">
        <ele>257.129009</ele>
        <time>2026-07-09T07:42:42.000Z</time>
      </trkpt>
      <trkpt lat="46.9357" lon="16.04508">
        <ele>257.266154</ele>
        <time>2026-07-09T07:42:46.000Z</time>
      </trkpt>
      <trkpt lat="46.93568" lon="16.04557">
        <ele>257.539767</ele>
        <time>2026-07-09T07:42:54.000Z</time>
      </trkpt>
      <trkpt lat="46.93567" lon="16.04564">
        <ele>257.578135</ele>
        <time>2026-07-09T07:42:55.000Z</time>
      </trkpt>
      <trkpt lat="46.93565" lon="16.04605">
        <ele>257.801955</ele>
        <time>2026-07-09T07:43:01.000Z</time>
      </trkpt>
      <trkpt lat="46.93565" lon="16.04648">
        <ele>257.932623</ele>
        <time>2026-07-09T07:43:07.000Z</time>
      </trkpt>
      <trkpt lat="46.93565" lon="16.04661">
        <ele>257.945406</ele>
        <time>2026-07-09T07:43:09.000Z</time>
      </trkpt>
      <trkpt lat="46.93566" lon="16.0473">
        <ele>258.015462</ele>
        <time>2026-07-09T07:43:19.000Z</time>
      </trkpt>
      <trkpt lat="46.93563" lon="16.04746">
        <ele>258.031961</ele>
        <time>2026-07-09T07:43:22.000Z</time>
      </trkpt>
      <trkpt lat="46.93561" lon="16.0475">
        <ele>258.037336</ele>
        <time>2026-07-09T07:43:23.000Z</time>
      </trkpt>
      <trkpt lat="46.93551" lon="16.04751">
        <ele>258.051918</ele>
        <time>2026-07-09T07:43:26.000Z</time>
      </trkpt>
      <trkpt lat="46.93539" lon="16.04748">
        <ele>258.070338</ele>
        <time>2026-07-09T07:43:29.000Z</time>
      </trkpt>
      <trkpt lat="46.93514" lon="16.04745">
        <ele>258.107002</ele>
        <time>2026-07-09T07:43:35.000Z</time>
      </trkpt>
      <trkpt lat="46.93505" lon="16.04743">
        <ele>258.11959</ele>
        <time>2026-07-09T07:43:37.000Z</time>
      </trkpt>
      <trkpt lat="46.93501" lon="16.04743">
        <ele>258.125957</ele>
        <time>2026-07-09T07:43:38.000Z</time>
      </trkpt>
      <trkpt lat="46.93484" lon="16.0474">
        <ele>258.150974</ele>
        <time>2026-07-09T07:43:42.000Z</time>
      </trkpt>
      <trkpt lat="46.93475" lon="16.04739">
        <ele>258.163816</ele>
        <time>2026-07-09T07:43:44.000Z</time>
      </trkpt>
      <trkpt lat="46.93428" lon="16.04736">
        <ele>258.735517</ele>
        <time>2026-07-09T07:43:55.000Z</time>
      </trkpt>
      <trkpt lat="46.9341" lon="16.04735">
        <ele>258.966091</ele>
        <time>2026-07-09T07:43:59.000Z</time>
      </trkpt>
      <trkpt lat="46.93389" lon="16.04733">
        <ele>259.249603</ele>
        <time>2026-07-09T07:44:04.000Z</time>
      </trkpt>
      <trkpt lat="46.93355" lon="16.04728">
        <ele>259.717411</ele>
        <time>2026-07-09T07:44:12.000Z</time>
      </trkpt>
      <trkpt lat="46.93346" lon="16.04726">
        <ele>259.832614</ele>
        <time>2026-07-09T07:44:14.000Z</time>
      </trkpt>
      <trkpt lat="46.93312" lon="16.04725">
        <ele>260.303156</ele>
        <time>2026-07-09T07:44:22.000Z</time>
      </trkpt>
      <trkpt lat="46.93298" lon="16.04729">
        <ele>260.482034</ele>
        <time>2026-07-09T07:44:25.000Z</time>
      </trkpt>
      <trkpt lat="46.93278" lon="16.04741">
        <ele>260.824772</ele>
        <time>2026-07-09T07:44:30.000Z</time>
      </trkpt>
      <trkpt lat="46.9327" lon="16.04748">
        <ele>260.984684</ele>
        <time>2026-07-09T07:44:32.000Z</time>
      </trkpt>
      <trkpt lat="46.93253" lon="16.04772">
        <ele>261.378669</ele>
        <time>2026-07-09T07:44:37.000Z</time>
      </trkpt>
      <trkpt lat="46.93247" lon="16.04782">
        <ele>261.538902</ele>
        <time>2026-07-09T07:44:39.000Z</time>
      </trkpt>
      <trkpt lat="46.93229" lon="16.04819">
        <ele>262.063464</ele>
        <time>2026-07-09T07:44:46.000Z</time>
      </trkpt>
      <trkpt lat="46.93226" lon="16.04824">
        <ele>262.138016</ele>
        <time>2026-07-09T07:44:47.000Z</time>
      </trkpt>
      <trkpt lat="46.9322" lon="16.04834">
        <ele>262.292446</ele>
        <time>2026-07-09T07:44:49.000Z</time>
      </trkpt>
      <trkpt lat="46.93208" lon="16.04861">
        <ele>262.665969</ele>
        <time>2026-07-09T07:44:54.000Z</time>
      </trkpt>
      <trkpt lat="46.93204" lon="16.04872">
        <ele>262.806605</ele>
        <time>2026-07-09T07:44:56.000Z</time>
      </trkpt>
      <trkpt lat="46.93196" lon="16.04902">
        <ele>263.177755</ele>
        <time>2026-07-09T07:45:01.000Z</time>
      </trkpt>
      <trkpt lat="46.93192" lon="16.04956">
        <ele>263.792482</ele>
        <time>2026-07-09T07:45:10.000Z</time>
      </trkpt>
      <trkpt lat="46.93192" lon="16.04962">
        <ele>263.856346</ele>
        <time>2026-07-09T07:45:11.000Z</time>
      </trkpt>
      <trkpt lat="46.9319" lon="16.05003">
        <ele>264.293519</ele>
        <time>2026-07-09T07:45:18.000Z</time>
      </trkpt>
      <trkpt lat="46.9319" lon="16.05085">
        <ele>265.170371</ele>
        <time>2026-07-09T07:45:31.000Z</time>
      </trkpt>
      <trkpt lat="46.93186" lon="16.05143">
        <ele>265.794681</ele>
        <time>2026-07-09T07:45:39.000Z</time>
      </trkpt>
      <trkpt lat="46.93181" lon="16.05171">
        <ele>266.102159</ele>
        <time>2026-07-09T07:45:43.000Z</time>
      </trkpt>
      <trkpt lat="46.93171" lon="16.0521">
        <ele>266.564131</ele>
        <time>2026-07-09T07:45:49.000Z</time>
      </trkpt>
      <trkpt lat="46.93162" lon="16.05236">
        <ele>266.939045</ele>
        <time>2026-07-09T07:45:53.000Z</time>
      </trkpt>
      <trkpt lat="46.93154" lon="16.0526">
        <ele>267.290905</ele>
        <time>2026-07-09T07:45:57.000Z</time>
      </trkpt>
      <trkpt lat="46.93143" lon="16.05301">
        <ele>267.867587</ele>
        <time>2026-07-09T07:46:03.000Z</time>
      </trkpt>
      <trkpt lat="46.93139" lon="16.05321">
        <ele>268.139464</ele>
        <time>2026-07-09T07:46:06.000Z</time>
      </trkpt>
      <trkpt lat="46.93132" lon="16.05382">
        <ele>268.937525</ele>
        <time>2026-07-09T07:46:15.000Z</time>
      </trkpt>
      <trkpt lat="46.93131" lon="16.05438">
        <ele>269.672074</ele>
        <time>2026-07-09T07:46:23.000Z</time>
      </trkpt>
      <trkpt lat="46.93131" lon="16.05445">
        <ele>269.759359</ele>
        <time>2026-07-09T07:46:24.000Z</time>
      </trkpt>
      <trkpt lat="46.93131" lon="16.05492">
        <ele>269.749199</ele>
        <time>2026-07-09T07:46:31.000Z</time>
      </trkpt>
      <trkpt lat="46.93128" lon="16.05547">
        <ele>269.574252</ele>
        <time>2026-07-09T07:46:39.000Z</time>
      </trkpt>
      <trkpt lat="46.93117" lon="16.05583">
        <ele>269.446381</ele>
        <time>2026-07-09T07:46:45.000Z</time>
      </trkpt>
      <trkpt lat="46.93115" lon="16.05588">
        <ele>269.430144</ele>
        <time>2026-07-09T07:46:46.000Z</time>
      </trkpt>
      <trkpt lat="46.93094" lon="16.05619">
        <ele>269.289849</ele>
        <time>2026-07-09T07:46:53.000Z</time>
      </trkpt>
      <trkpt lat="46.93069" lon="16.05647">
        <ele>269.142111</ele>
        <time>2026-07-09T07:47:01.000Z</time>
      </trkpt>
      <trkpt lat="46.93066" lon="16.05651">
        <ele>269.12494</ele>
        <time>2026-07-09T07:47:02.000Z</time>
      </trkpt>
      <trkpt lat="46.93038" lon="16.0568">
        <ele>268.89407</ele>
        <time>2026-07-09T07:47:11.000Z</time>
      </trkpt>
      <trkpt lat="46.93008" lon="16.05701">
        <ele>268.581321</ele>
        <time>2026-07-09T07:47:19.000Z</time>
      </trkpt>
      <trkpt lat="46.93002" lon="16.05702">
        <ele>268.529279</ele>
        <time>2026-07-09T07:47:20.000Z</time>
      </trkpt>
      <trkpt lat="46.92983" lon="16.05705">
        <ele>268.348758</ele>
        <time>2026-07-09T07:47:24.000Z</time>
      </trkpt>
      <trkpt lat="46.92973" lon="16.05705">
        <ele>268.24794</ele>
        <time>2026-07-09T07:47:26.000Z</time>
      </trkpt>
      <trkpt lat="46.92962" lon="16.05703">
        <ele>268.14941</ele>
        <time>2026-07-09T07:47:28.000Z</time>
      </trkpt>
      <trkpt lat="46.92957" lon="16.05703">
        <ele>268.099406</ele>
        <time>2026-07-09T07:47:29.000Z</time>
      </trkpt>
      <trkpt lat="46.92941" lon="16.05701">
        <ele>267.952952</ele>
        <time>2026-07-09T07:47:32.000Z</time>
      </trkpt>
      <trkpt lat="46.9292" lon="16.05695">
        <ele>267.743258</ele>
        <time>2026-07-09T07:47:36.000Z</time>
      </trkpt>
      <trkpt lat="46.92901" lon="16.05683">
        <ele>267.550023</ele>
        <time>2026-07-09T07:47:40.000Z</time>
      </trkpt>
      <trkpt lat="46.92886" lon="16.05671">
        <ele>267.390108</ele>
        <time>2026-07-09T07:47:43.000Z</time>
      </trkpt>
      <trkpt lat="46.92865" lon="16.05649">
        <ele>267.583003</ele>
        <time>2026-07-09T07:47:48.000Z</time>
      </trkpt>
      <trkpt lat="46.92853" lon="16.05636">
        <ele>267.759701</ele>
        <time>2026-07-09T07:47:51.000Z</time>
      </trkpt>
      <trkpt lat="46.92833" lon="16.05614">
        <ele>268.058504</ele>
        <time>2026-07-09T07:47:56.000Z</time>
      </trkpt>
      <trkpt lat="46.92825" lon="16.05607">
        <ele>268.180063</ele>
        <time>2026-07-09T07:47:58.000Z</time>
      </trkpt>
      <trkpt lat="46.9282" lon="16.05604">
        <ele>268.242542</ele>
        <time>2026-07-09T07:47:59.000Z</time>
      </trkpt>
      <trkpt lat="46.928" lon="16.05593">
        <ele>268.492862</ele>
        <time>2026-07-09T07:48:03.000Z</time>
      </trkpt>
      <trkpt lat="46.92786" lon="16.05586">
        <ele>268.671878</ele>
        <time>2026-07-09T07:48:06.000Z</time>
      </trkpt>
      <trkpt lat="46.92764" lon="16.05574">
        <ele>268.960608</ele>
        <time>2026-07-09T07:48:11.000Z</time>
      </trkpt>
      <trkpt lat="46.92755" lon="16.05569">
        <ele>269.075309</ele>
        <time>2026-07-09T07:48:13.000Z</time>
      </trkpt>
      <trkpt lat="46.92747" lon="16.05562">
        <ele>269.189748</ele>
        <time>2026-07-09T07:48:15.000Z</time>
      </trkpt>
      <trkpt lat="46.92725" lon="16.05549">
        <ele>269.466784</ele>
        <time>2026-07-09T07:48:20.000Z</time>
      </trkpt>
      <trkpt lat="46.92716" lon="16.05543">
        <ele>269.63358</ele>
        <time>2026-07-09T07:48:22.000Z</time>
      </trkpt>
      <trkpt lat="46.92703" lon="16.05532">
        <ele>269.918733</ele>
        <time>2026-07-09T07:48:25.000Z</time>
      </trkpt>
      <trkpt lat="46.92699" lon="16.05527">
        <ele>270.018807</ele>
        <time>2026-07-09T07:48:26.000Z</time>
      </trkpt>
      <trkpt lat="46.92683" lon="16.05512">
        <ele>270.371516</ele>
        <time>2026-07-09T07:48:30.000Z</time>
      </trkpt>
      <trkpt lat="46.92675" lon="16.05505">
        <ele>270.545875</ele>
        <time>2026-07-09T07:48:32.000Z</time>
      </trkpt>
      <trkpt lat="46.92667" lon="16.05498">
        <ele>270.720327</ele>
        <time>2026-07-09T07:48:34.000Z</time>
      </trkpt>
      <trkpt lat="46.92659" lon="16.05491">
        <ele>270.897909</ele>
        <time>2026-07-09T07:48:36.000Z</time>
      </trkpt>
      <trkpt lat="46.92654" lon="16.05488">
        <ele>270.987165</ele>
        <time>2026-07-09T07:48:37.000Z</time>
      </trkpt>
      <trkpt lat="46.92647" lon="16.05482">
        <ele>271.148704</ele>
        <time>2026-07-09T07:48:39.000Z</time>
      </trkpt>
      <trkpt lat="46.92631" lon="16.05474">
        <ele>271.457477</ele>
        <time>2026-07-09T07:48:43.000Z</time>
      </trkpt>
      <trkpt lat="46.92606" lon="16.05457">
        <ele>271.988909</ele>
        <time>2026-07-09T07:48:49.000Z</time>
      </trkpt>
      <trkpt lat="46.92597" lon="16.05453">
        <ele>272.163854</ele>
        <time>2026-07-09T07:48:51.000Z</time>
      </trkpt>
      <trkpt lat="46.92547" lon="16.05428">
        <ele>273.050855</ele>
        <time>2026-07-09T07:49:02.000Z</time>
      </trkpt>
      <trkpt lat="46.92531" lon="16.05419">
        <ele>273.267076</ele>
        <time>2026-07-09T07:49:06.000Z</time>
      </trkpt>
      <trkpt lat="46.92523" lon="16.05414">
        <ele>273.373052</ele>
        <time>2026-07-09T07:49:08.000Z</time>
      </trkpt>
      <trkpt lat="46.92515" lon="16.05412">
        <ele>273.485123</ele>
        <time>2026-07-09T07:49:10.000Z</time>
      </trkpt>
      <trkpt lat="46.92511" lon="16.05411">
        <ele>273.535807</ele>
        <time>2026-07-09T07:49:11.000Z</time>
      </trkpt>
      <trkpt lat="46.92501" lon="16.0541">
        <ele>273.656738</ele>
        <time>2026-07-09T07:49:13.000Z</time>
      </trkpt>
      <trkpt lat="46.92491" lon="16.05413">
        <ele>273.785911</ele>
        <time>2026-07-09T07:49:15.000Z</time>
      </trkpt>
      <trkpt lat="46.92476" lon="16.05422">
        <ele>273.987867</ele>
        <time>2026-07-09T07:49:18.000Z</time>
      </trkpt>
      <trkpt lat="46.92471" lon="16.05426">
        <ele>274.055719</ele>
        <time>2026-07-09T07:49:19.000Z</time>
      </trkpt>
      <trkpt lat="46.92462" lon="16.05434">
        <ele>274.192926</ele>
        <time>2026-07-09T07:49:21.000Z</time>
      </trkpt>
      <trkpt lat="46.92455" lon="16.05442">
        <ele>274.30471</ele>
        <time>2026-07-09T07:49:23.000Z</time>
      </trkpt>
      <trkpt lat="46.92442" lon="16.05452">
        <ele>274.485851</ele>
        <time>2026-07-09T07:49:26.000Z</time>
      </trkpt>
      <trkpt lat="46.92438" lon="16.05455">
        <ele>274.547367</ele>
        <time>2026-07-09T07:49:27.000Z</time>
      </trkpt>
      <trkpt lat="46.92421" lon="16.05466">
        <ele>274.781905</ele>
        <time>2026-07-09T07:49:31.000Z</time>
      </trkpt>
      <trkpt lat="46.92404" lon="16.05478">
        <ele>275.015976</ele>
        <time>2026-07-09T07:49:36.000Z</time>
      </trkpt>
      <trkpt lat="46.92383" lon="16.05491">
        <ele>275.748107</ele>
        <time>2026-07-09T07:49:41.000Z</time>
      </trkpt>
      <trkpt lat="46.9236" lon="16.05506">
        <ele>276.862331</ele>
        <time>2026-07-09T07:49:47.000Z</time>
      </trkpt>
      <trkpt lat="46.92328" lon="16.05517">
        <ele>278.304678</ele>
        <time>2026-07-09T07:49:55.000Z</time>
      </trkpt>
      <trkpt lat="46.92304" lon="16.05527">
        <ele>279.439021</ele>
        <time>2026-07-09T07:50:02.000Z</time>
      </trkpt>
      <trkpt lat="46.92285" lon="16.05529">
        <ele>280.295119</ele>
        <time>2026-07-09T07:50:07.000Z</time>
      </trkpt>
      <trkpt lat="46.9228" lon="16.05529">
        <ele>280.477382</ele>
        <time>2026-07-09T07:50:08.000Z</time>
      </trkpt>
      <trkpt lat="46.92249" lon="16.05525">
        <ele>281.886436</ele>
        <time>2026-07-09T07:50:16.000Z</time>
      </trkpt>
      <trkpt lat="46.92225" lon="16.05517">
        <ele>282.958334</ele>
        <time>2026-07-09T07:50:22.000Z</time>
      </trkpt>
      <trkpt lat="46.92206" lon="16.05512">
        <ele>284.295529</ele>
        <time>2026-07-09T07:50:27.000Z</time>
      </trkpt>
      <trkpt lat="46.92179" lon="16.05507">
        <ele>286.258692</ele>
        <time>2026-07-09T07:50:32.000Z</time>
      </trkpt>
      <trkpt lat="46.92157" lon="16.05495">
        <ele>287.921585</ele>
        <time>2026-07-09T07:50:38.000Z</time>
      </trkpt>
      <trkpt lat="46.92149" lon="16.05489">
        <ele>288.60922</ele>
        <time>2026-07-09T07:50:41.000Z</time>
      </trkpt>
      <trkpt lat="46.92141" lon="16.05483">
        <ele>289.253646</ele>
        <time>2026-07-09T07:50:44.000Z</time>
      </trkpt>
      <trkpt lat="46.92131" lon="16.05471">
        <ele>290.232728</ele>
        <time>2026-07-09T07:50:48.000Z</time>
      </trkpt>
      <trkpt lat="46.92125" lon="16.05464">
        <ele>290.777866</ele>
        <time>2026-07-09T07:50:50.000Z</time>
      </trkpt>
      <trkpt lat="46.92107" lon="16.05447">
        <ele>292.312861</ele>
        <time>2026-07-09T07:50:56.000Z</time>
      </trkpt>
      <trkpt lat="46.92102" lon="16.05445">
        <ele>292.674445</ele>
        <time>2026-07-09T07:50:57.000Z</time>
      </trkpt>
      <trkpt lat="46.92079" lon="16.05427">
        <ele>294.598715</ele>
        <time>2026-07-09T07:51:03.000Z</time>
      </trkpt>
      <trkpt lat="46.92061" lon="16.0541">
        <ele>296.137889</ele>
        <time>2026-07-09T07:51:08.000Z</time>
      </trkpt>
      <trkpt lat="46.92033" lon="16.05392">
        <ele>295.562153</ele>
        <time>2026-07-09T07:51:16.000Z</time>
      </trkpt>
      <trkpt lat="46.92019" lon="16.05379">
        <ele>295.237536</ele>
        <time>2026-07-09T07:51:20.000Z</time>
      </trkpt>
      <trkpt lat="46.92013" lon="16.05375">
        <ele>295.090069</ele>
        <time>2026-07-09T07:51:22.000Z</time>
      </trkpt>
      <trkpt lat="46.91997" lon="16.05355">
        <ele>294.666704</ele>
        <time>2026-07-09T07:51:27.000Z</time>
      </trkpt>
      <trkpt lat="46.91982" lon="16.05342">
        <ele>294.311635</ele>
        <time>2026-07-09T07:51:31.000Z</time>
      </trkpt>
      <trkpt lat="46.91976" lon="16.05336">
        <ele>294.150945</ele>
        <time>2026-07-09T07:51:33.000Z</time>
      </trkpt>
      <trkpt lat="46.91961" lon="16.05317">
        <ele>293.747864</ele>
        <time>2026-07-09T07:51:39.000Z</time>
      </trkpt>
      <trkpt lat="46.91948" lon="16.053">
        <ele>293.380512</ele>
        <time>2026-07-09T07:51:44.000Z</time>
      </trkpt>
      <trkpt lat="46.91933" lon="16.05271">
        <ele>292.886479</ele>
        <time>2026-07-09T07:51:51.000Z</time>
      </trkpt>
      <trkpt lat="46.91924" lon="16.05238">
        <ele>292.648905</ele>
        <time>2026-07-09T07:51:58.000Z</time>
      </trkpt>
      <trkpt lat="46.91924" lon="16.05223">
        <ele>292.957905</ele>
        <time>2026-07-09T07:52:01.000Z</time>
      </trkpt>
      <trkpt lat="46.91924" lon="16.05213">
        <ele>293.155177</ele>
        <time>2026-07-09T07:52:03.000Z</time>
      </trkpt>
      <trkpt lat="46.91924" lon="16.05184">
        <ele>293.73596</ele>
        <time>2026-07-09T07:52:09.000Z</time>
      </trkpt>
      <trkpt lat="46.91926" lon="16.05148">
        <ele>294.451101</ele>
        <time>2026-07-09T07:52:17.000Z</time>
      </trkpt>
      <trkpt lat="46.91926" lon="16.05144">
        <ele>294.539386</ele>
        <time>2026-07-09T07:52:18.000Z</time>
      </trkpt>
      <trkpt lat="46.91925" lon="16.05135">
        <ele>294.712589</ele>
        <time>2026-07-09T07:52:20.000Z</time>
      </trkpt>
      <trkpt lat="46.91924" lon="16.05127">
        <ele>294.876888</ele>
        <time>2026-07-09T07:52:22.000Z</time>
      </trkpt>
      <trkpt lat="46.91921" lon="16.05114">
        <ele>295.157306</ele>
        <time>2026-07-09T07:52:25.000Z</time>
      </trkpt>
      <trkpt lat="46.91915" lon="16.05086">
        <ele>295.754229</ele>
        <time>2026-07-09T07:52:32.000Z</time>
      </trkpt>
      <trkpt lat="46.91909" lon="16.05056">
        <ele>296.374175</ele>
        <time>2026-07-09T07:52:39.000Z</time>
      </trkpt>
      <trkpt lat="46.91907" lon="16.05048">
        <ele>296.546613</ele>
        <time>2026-07-09T07:52:41.000Z</time>
      </trkpt>
      <trkpt lat="46.91903" lon="16.05018">
        <ele>297.139767</ele>
        <time>2026-07-09T07:52:49.000Z</time>
      </trkpt>
      <trkpt lat="46.91903" lon="16.0499">
        <ele>297.708627</ele>
        <time>2026-07-09T07:52:57.000Z</time>
      </trkpt>
      <trkpt lat="46.91901" lon="16.04972">
        <ele>299.527559</ele>
        <time>2026-07-09T07:53:03.000Z</time>
      </trkpt>
      <trkpt lat="46.919" lon="16.04962">
        <ele>300.638388</ele>
        <time>2026-07-09T07:53:07.000Z</time>
      </trkpt>
      <trkpt lat="46.919" lon="16.0496">
        <ele>300.90762</ele>
        <time>2026-07-09T07:53:08.000Z</time>
      </trkpt>
      <trkpt lat="46.919" lon="16.04946">
        <ele>302.557336</ele>
        <time>2026-07-09T07:53:13.000Z</time>
      </trkpt>
      <trkpt lat="46.919" lon="16.04944">
        <ele>302.810851</ele>
        <time>2026-07-09T07:53:14.000Z</time>
      </trkpt>
      <trkpt lat="46.91899" lon="16.04942">
        <ele>303.165333</ele>
        <time>2026-07-09T07:53:15.000Z</time>
      </trkpt>
      <trkpt lat="46.91895" lon="16.04935">
        <ele>304.229824</ele>
        <time>2026-07-09T07:53:19.000Z</time>
      </trkpt>
      <trkpt lat="46.9189" lon="16.04919">
        <ele>306.169236</ele>
        <time>2026-07-09T07:53:26.000Z</time>
      </trkpt>
      <trkpt lat="46.91889" lon="16.04916">
        <ele>306.629825</ele>
        <time>2026-07-09T07:53:28.000Z</time>
      </trkpt>
      <trkpt lat="46.91887" lon="16.0491">
        <ele>307.439241</ele>
        <time>2026-07-09T07:53:31.000Z</time>
      </trkpt>
      <trkpt lat="46.91886" lon="16.04908">
        <ele>307.714623</ele>
        <time>2026-07-09T07:53:32.000Z</time>
      </trkpt>
      <trkpt lat="46.91885" lon="16.04905">
        <ele>308.04977</ele>
        <time>2026-07-09T07:53:33.000Z</time>
      </trkpt>
      <trkpt lat="46.91879" lon="16.04889">
        <ele>310.156632</ele>
        <time>2026-07-09T07:53:40.000Z</time>
      </trkpt>
      <trkpt lat="46.91876" lon="16.04883">
        <ele>311.030849</ele>
        <time>2026-07-09T07:53:43.000Z</time>
      </trkpt>
      <trkpt lat="46.91872" lon="16.04878">
        <ele>311.866878</ele>
        <time>2026-07-09T07:53:46.000Z</time>
      </trkpt>
      <trkpt lat="46.91866" lon="16.04864">
        <ele>313.729936</ele>
        <time>2026-07-09T07:53:53.000Z</time>
      </trkpt>
      <trkpt lat="46.91861" lon="16.0485">
        <ele>315.6069</ele>
        <time>2026-07-09T07:54:00.000Z</time>
      </trkpt>
      <trkpt lat="46.91858" lon="16.04848">
        <ele>316.081068</ele>
        <time>2026-07-09T07:54:02.000Z</time>
      </trkpt>
      <trkpt lat="46.91849" lon="16.04831">
        <ele>318.519495</ele>
        <time>2026-07-09T07:54:11.000Z</time>
      </trkpt>
      <trkpt lat="46.91846" lon="16.04825">
        <ele>319.394776</ele>
        <time>2026-07-09T07:54:15.000Z</time>
      </trkpt>
      <trkpt lat="46.91844" lon="16.04819">
        <ele>320.207715</ele>
        <time>2026-07-09T07:54:18.000Z</time>
      </trkpt>
      <trkpt lat="46.91843" lon="16.04813">
        <ele>320.846829</ele>
        <time>2026-07-09T07:54:20.000Z</time>
      </trkpt>
      <trkpt lat="46.91842" lon="16.04809">
        <ele>321.419974</ele>
        <time>2026-07-09T07:54:22.000Z</time>
      </trkpt>
      <trkpt lat="46.91841" lon="16.04807">
        <ele>321.669338</ele>
        <time>2026-07-09T07:54:23.000Z</time>
      </trkpt>
      <trkpt lat="46.91836" lon="16.04799">
        <ele>322.876321</ele>
        <time>2026-07-09T07:54:29.000Z</time>
      </trkpt>
      <trkpt lat="46.91833" lon="16.04787">
        <ele>324.302508</ele>
        <time>2026-07-09T07:54:35.000Z</time>
      </trkpt>
      <trkpt lat="46.91828" lon="16.04775">
        <ele>325.974071</ele>
        <time>2026-07-09T07:54:42.000Z</time>
      </trkpt>
      <trkpt lat="46.91824" lon="16.04765">
        <ele>327.368578</ele>
        <time>2026-07-09T07:54:49.000Z</time>
      </trkpt>
      <trkpt lat="46.91823" lon="16.04763">
        <ele>327.624289</ele>
        <time>2026-07-09T07:54:50.000Z</time>
      </trkpt>
      <trkpt lat="46.91819" lon="16.04756">
        <ele>328.25729</ele>
        <time>2026-07-09T07:54:54.000Z</time>
      </trkpt>
      <trkpt lat="46.91818" lon="16.04754">
        <ele>328.377878</ele>
        <time>2026-07-09T07:54:55.000Z</time>
      </trkpt>
      <trkpt lat="46.91815" lon="16.04743">
        <ele>328.895778</ele>
        <time>2026-07-09T07:55:00.000Z</time>
      </trkpt>
      <trkpt lat="46.91813" lon="16.04729">
        <ele>329.491218</ele>
        <time>2026-07-09T07:55:06.000Z</time>
      </trkpt>
      <trkpt lat="46.91812" lon="16.04727">
        <ele>329.623956</ele>
        <time>2026-07-09T07:55:07.000Z</time>
      </trkpt>
      <trkpt lat="46.9181" lon="16.04723">
        <ele>329.822514</ele>
        <time>2026-07-09T07:55:09.000Z</time>
      </trkpt>
      <trkpt lat="46.91808" lon="16.04714">
        <ele>330.240737</ele>
        <time>2026-07-09T07:55:13.000Z</time>
      </trkpt>
      <trkpt lat="46.91809" lon="16.04711">
        <ele>330.340191</ele>
        <time>2026-07-09T07:55:14.000Z</time>
      </trkpt>
      <trkpt lat="46.91809" lon="16.04709">
        <ele>330.433706</ele>
        <time>2026-07-09T07:55:15.000Z</time>
      </trkpt>
      <trkpt lat="46.91808" lon="16.04707">
        <ele>330.545444</ele>
        <time>2026-07-09T07:55:16.000Z</time>
      </trkpt>
      <trkpt lat="46.91803" lon="16.04698">
        <ele>331.053684</ele>
        <time>2026-07-09T07:55:20.000Z</time>
      </trkpt>
      <trkpt lat="46.91797" lon="16.04685">
        <ele>331.730979</ele>
        <time>2026-07-09T07:55:27.000Z</time>
      </trkpt>
      <trkpt lat="46.91796" lon="16.04683">
        <ele>331.837297</ele>
        <time>2026-07-09T07:55:28.000Z</time>
      </trkpt>
      <trkpt lat="46.91793" lon="16.0468">
        <ele>332.060947</ele>
        <time>2026-07-09T07:55:30.000Z</time>
      </trkpt>
      <trkpt lat="46.91791" lon="16.04676">
        <ele>332.277351</ele>
        <time>2026-07-09T07:55:33.000Z</time>
      </trkpt>
      <trkpt lat="46.91785" lon="16.04664">
        <ele>332.897724</ele>
        <time>2026-07-09T07:55:39.000Z</time>
      </trkpt>
      <trkpt lat="46.91775" lon="16.04649">
        <ele>333.814793</ele>
        <time>2026-07-09T07:55:48.000Z</time>
      </trkpt>
      <trkpt lat="46.91767" lon="16.04634">
        <ele>334.627741</ele>
        <time>2026-07-09T07:55:56.000Z</time>
      </trkpt>
      <trkpt lat="46.91763" lon="16.04622">
        <ele>335.181305</ele>
        <time>2026-07-09T07:56:02.000Z</time>
      </trkpt>
      <trkpt lat="46.91761" lon="16.0462">
        <ele>335.315617</ele>
        <time>2026-07-09T07:56:03.000Z</time>
      </trkpt>
      <trkpt lat="46.91752" lon="16.04606">
        <ele>336.157111</ele>
        <time>2026-07-09T07:56:10.000Z</time>
      </trkpt>
      <trkpt lat="46.91743" lon="16.04584">
        <ele>337.257104</ele>
        <time>2026-07-09T07:56:19.000Z</time>
      </trkpt>
      <trkpt lat="46.91733" lon="16.04573">
        <ele>338.07548</ele>
        <time>2026-07-09T07:56:25.000Z</time>
      </trkpt>
      <trkpt lat="46.91732" lon="16.0457">
        <ele>338.204352</ele>
        <time>2026-07-09T07:56:26.000Z</time>
      </trkpt>
      <trkpt lat="46.91729" lon="16.04558">
        <ele>338.730188</ele>
        <time>2026-07-09T07:56:31.000Z</time>
      </trkpt>
      <trkpt lat="46.91723" lon="16.04555">
        <ele>339.144838</ele>
        <time>2026-07-09T07:56:33.000Z</time>
      </trkpt>
      <trkpt lat="46.9171" lon="16.04543">
        <ele>340.325526</ele>
        <time>2026-07-09T07:56:42.000Z</time>
      </trkpt>
      <trkpt lat="46.917" lon="16.04533">
        <ele>341.386774</ele>
        <time>2026-07-09T07:56:49.000Z</time>
      </trkpt>
      <trkpt lat="46.91697" lon="16.04531">
        <ele>341.66123</ele>
        <time>2026-07-09T07:56:51.000Z</time>
      </trkpt>
      <trkpt lat="46.91687" lon="16.04521">
        <ele>342.681311</ele>
        <time>2026-07-09T07:56:57.000Z</time>
      </trkpt>
      <trkpt lat="46.91683" lon="16.04517">
        <ele>343.04047</ele>
        <time>2026-07-09T07:56:59.000Z</time>
      </trkpt>
      <trkpt lat="46.91677" lon="16.04513">
        <ele>343.604455</ele>
        <time>2026-07-09T07:57:02.000Z</time>
      </trkpt>
      <trkpt lat="46.91672" lon="16.04506">
        <ele>344.202522</ele>
        <time>2026-07-09T07:57:05.000Z</time>
      </trkpt>
      <trkpt lat="46.91657" lon="16.04496">
        <ele>345.540753</ele>
        <time>2026-07-09T07:57:13.000Z</time>
      </trkpt>
      <trkpt lat="46.91651" lon="16.04489">
        <ele>346.194575</ele>
        <time>2026-07-09T07:57:17.000Z</time>
      </trkpt>
      <trkpt lat="46.91647" lon="16.04483">
        <ele>346.685403</ele>
        <time>2026-07-09T07:57:20.000Z</time>
      </trkpt>
      <trkpt lat="46.91635" lon="16.04469">
        <ele>347.961483</ele>
        <time>2026-07-09T07:57:28.000Z</time>
      </trkpt>
      <trkpt lat="46.91634" lon="16.04467">
        <ele>348.104087</ele>
        <time>2026-07-09T07:57:29.000Z</time>
      </trkpt>
      <trkpt lat="46.91628" lon="16.04459">
        <ele>348.80316</ele>
        <time>2026-07-09T07:57:33.000Z</time>
      </trkpt>
      <trkpt lat="46.91626" lon="16.04454">
        <ele>349.130606</ele>
        <time>2026-07-09T07:57:35.000Z</time>
      </trkpt>
      <trkpt lat="46.91616" lon="16.04444">
        <ele>350.126877</ele>
        <time>2026-07-09T07:57:42.000Z</time>
      </trkpt>
      <trkpt lat="46.9161" lon="16.04435">
        <ele>350.825952</ele>
        <time>2026-07-09T07:57:47.000Z</time>
      </trkpt>
      <trkpt lat="46.91608" lon="16.0443">
        <ele>351.181654</ele>
        <time>2026-07-09T07:57:49.000Z</time>
      </trkpt>
      <trkpt lat="46.91602" lon="16.04419">
        <ele>351.956143</ele>
        <time>2026-07-09T07:57:54.000Z</time>
      </trkpt>
      <trkpt lat="46.91602" lon="16.04417">
        <ele>352.116429</ele>
        <time>2026-07-09T07:57:55.000Z</time>
      </trkpt>
      <trkpt lat="46.91597" lon="16.04405">
        <ele>352.917013</ele>
        <time>2026-07-09T07:58:00.000Z</time>
      </trkpt>
      <trkpt lat="46.91593" lon="16.04402">
        <ele>353.245672</ele>
        <time>2026-07-09T07:58:03.000Z</time>
      </trkpt>
      <trkpt lat="46.91581" lon="16.04385">
        <ele>354.532633</ele>
        <time>2026-07-09T07:58:11.000Z</time>
      </trkpt>
      <trkpt lat="46.91574" lon="16.04367">
        <ele>355.190566</ele>
        <time>2026-07-09T07:58:19.000Z</time>
      </trkpt>
      <trkpt lat="46.9156" lon="16.04354">
        <ele>355.922684</ele>
        <time>2026-07-09T07:58:27.000Z</time>
      </trkpt>
      <trkpt lat="46.91545" lon="16.04354">
        <ele>356.602917</ele>
        <time>2026-07-09T07:58:34.000Z</time>
      </trkpt>
      <trkpt lat="46.91531" lon="16.0436">
        <ele>357.253154</ele>
        <time>2026-07-09T07:58:41.000Z</time>
      </trkpt>
      <trkpt lat="46.91513" lon="16.04367">
        <ele>358.099179</ele>
        <time>2026-07-09T07:58:50.000Z</time>
      </trkpt>
      <trkpt lat="46.91501" lon="16.04372">
        <ele>358.650531</ele>
        <time>2026-07-09T07:58:56.000Z</time>
      </trkpt>
      <trkpt lat="46.91499" lon="16.04373">
        <ele>358.752583</ele>
        <time>2026-07-09T07:58:57.000Z</time>
      </trkpt>
      <trkpt lat="46.91491" lon="16.04376">
        <ele>359.116479</ele>
        <time>2026-07-09T07:59:01.000Z</time>
      </trkpt>
      <trkpt lat="46.91479" lon="16.04383">
        <ele>359.715751</ele>
        <time>2026-07-09T07:59:08.000Z</time>
      </trkpt>
      <trkpt lat="46.91473" lon="16.04385">
        <ele>360.000112</ele>
        <time>2026-07-09T07:59:11.000Z</time>
      </trkpt>
      <trkpt lat="46.91453" lon="16.04391">
        <ele>360.888357</ele>
        <time>2026-07-09T07:59:20.000Z</time>
      </trkpt>
      <trkpt lat="46.91432" lon="16.04399">
        <ele>361.888462</ele>
        <time>2026-07-09T07:59:29.000Z</time>
      </trkpt>
      <trkpt lat="46.91415" lon="16.04402">
        <ele>362.589643</ele>
        <time>2026-07-09T07:59:35.000Z</time>
      </trkpt>
      <trkpt lat="46.91403" lon="16.04404">
        <ele>362.806649</ele>
        <time>2026-07-09T07:59:39.000Z</time>
      </trkpt>
      <trkpt lat="46.91378" lon="16.04411">
        <ele>363.271563</ele>
        <time>2026-07-09T07:59:48.000Z</time>
      </trkpt>
      <trkpt lat="46.91353" lon="16.04422">
        <ele>363.733086</ele>
        <time>2026-07-09T07:59:57.000Z</time>
      </trkpt>
      <trkpt lat="46.91338" lon="16.04431">
        <ele>364.023243</ele>
        <time>2026-07-09T08:00:03.000Z</time>
      </trkpt>
      <trkpt lat="46.91332" lon="16.04437">
        <ele>364.154207</ele>
        <time>2026-07-09T08:00:06.000Z</time>
      </trkpt>
      <trkpt lat="46.91316" lon="16.04449">
        <ele>364.481621</ele>
        <time>2026-07-09T08:00:13.000Z</time>
      </trkpt>
      <trkpt lat="46.91304" lon="16.04457">
        <ele>364.728941</ele>
        <time>2026-07-09T08:00:18.000Z</time>
      </trkpt>
      <trkpt lat="46.91298" lon="16.04461">
        <ele>364.837178</ele>
        <time>2026-07-09T08:00:20.000Z</time>
      </trkpt>
      <trkpt lat="46.91281" lon="16.04475">
        <ele>365.191919</ele>
        <time>2026-07-09T08:00:26.000Z</time>
      </trkpt>
      <trkpt lat="46.91278" lon="16.04477">
        <ele>365.254007</ele>
        <time>2026-07-09T08:00:27.000Z</time>
      </trkpt>
      <trkpt lat="46.91247" lon="16.04504">
        <ele>365.851646</ele>
        <time>2026-07-09T08:00:37.000Z</time>
      </trkpt>
      <trkpt lat="46.91219" lon="16.04515">
        <ele>366.135365</ele>
        <time>2026-07-09T08:00:45.000Z</time>
      </trkpt>
      <trkpt lat="46.91187" lon="16.04526">
        <ele>366.452695</ele>
        <time>2026-07-09T08:00:54.000Z</time>
      </trkpt>
      <trkpt lat="46.91159" lon="16.04537">
        <ele>366.733203</ele>
        <time>2026-07-09T08:01:01.000Z</time>
      </trkpt>
      <trkpt lat="46.91137" lon="16.04543">
        <ele>366.94657</ele>
        <time>2026-07-09T08:01:08.000Z</time>
      </trkpt>
      <trkpt lat="46.9113" lon="16.04544">
        <ele>367.01705</ele>
        <time>2026-07-09T08:01:10.000Z</time>
      </trkpt>
      <trkpt lat="46.91107" lon="16.04553">
        <ele>367.240065</ele>
        <time>2026-07-09T08:01:17.000Z</time>
      </trkpt>
      <trkpt lat="46.91085" lon="16.04559">
        <ele>367.466205</ele>
        <time>2026-07-09T08:01:24.000Z</time>
      </trkpt>
      <trkpt lat="46.91061" lon="16.04572">
        <ele>368.111443</ele>
        <time>2026-07-09T08:01:32.000Z</time>
      </trkpt>
      <trkpt lat="46.9104" lon="16.04583">
        <ele>368.804266</ele>
        <time>2026-07-09T08:01:39.000Z</time>
      </trkpt>
      <trkpt lat="46.91016" lon="16.04593">
        <ele>369.589397</ele>
        <time>2026-07-09T08:01:47.000Z</time>
      </trkpt>
      <trkpt lat="46.91013" lon="16.04596">
        <ele>369.713579</ele>
        <time>2026-07-09T08:01:48.000Z</time>
      </trkpt>
      <trkpt lat="46.9099" lon="16.04609">
        <ele>370.474523</ele>
        <time>2026-07-09T08:01:56.000Z</time>
      </trkpt>
      <trkpt lat="46.90965" lon="16.04613">
        <ele>371.254187</ele>
        <time>2026-07-09T08:02:04.000Z</time>
      </trkpt>
      <trkpt lat="46.90939" lon="16.04602">
        <ele>372.112435</ele>
        <time>2026-07-09T08:02:11.000Z</time>
      </trkpt>
      <trkpt lat="46.90934" lon="16.046">
        <ele>372.285641</ele>
        <time>2026-07-09T08:02:15.000Z</time>
      </trkpt>
      <trkpt lat="46.90934" lon="16.04599">
        <ele>372.2928</ele>
        <time>2026-07-09T08:02:16.000Z</time>
      </trkpt>
      <trkpt lat="46.90929" lon="16.04598">
        <ele>372.439119</ele>
        <time>2026-07-09T08:03:29.000Z</time>
      </trkpt>
      <trkpt lat="46.90925" lon="16.04597">
        <ele>372.556531</ele>
        <time>2026-07-09T08:03:31.000Z</time>
      </trkpt>
      <trkpt lat="46.90914" lon="16.04594">
        <ele>372.913965</ele>
        <time>2026-07-09T08:03:36.000Z</time>
      </trkpt>
      <trkpt lat="46.90902" lon="16.04591">
        <ele>373.151687</ele>
        <time>2026-07-09T08:03:40.000Z</time>
      </trkpt>
      <trkpt lat="46.90891" lon="16.04586">
        <ele>373.091642</ele>
        <time>2026-07-09T08:03:43.000Z</time>
      </trkpt>
      <trkpt lat="46.90873" lon="16.04579">
        <ele>372.986064</ele>
        <time>2026-07-09T08:03:48.000Z</time>
      </trkpt>
      <trkpt lat="46.90842" lon="16.04565">
        <ele>372.800212</ele>
        <time>2026-07-09T08:03:57.000Z</time>
      </trkpt>
      <trkpt lat="46.90811" lon="16.04542">
        <ele>372.607479</ele>
        <time>2026-07-09T08:04:05.000Z</time>
      </trkpt>
      <trkpt lat="46.90785" lon="16.04508">
        <ele>372.410406</ele>
        <time>2026-07-09T08:04:14.000Z</time>
      </trkpt>
      <trkpt lat="46.90776" lon="16.04496">
        <ele>372.343364</ele>
        <time>2026-07-09T08:04:17.000Z</time>
      </trkpt>
      <trkpt lat="46.90771" lon="16.04489">
        <ele>372.303289</ele>
        <time>2026-07-09T08:04:19.000Z</time>
      </trkpt>
      <trkpt lat="46.90762" lon="16.04481">
        <ele>372.243571</ele>
        <time>2026-07-09T08:04:22.000Z</time>
      </trkpt>
      <trkpt lat="46.90754" lon="16.04476">
        <ele>372.196347</ele>
        <time>2026-07-09T08:04:24.000Z</time>
      </trkpt>
      <trkpt lat="46.90748" lon="16.0447">
        <ele>372.160248</ele>
        <time>2026-07-09T08:04:26.000Z</time>
      </trkpt>
      <trkpt lat="46.90739" lon="16.04461">
        <ele>372.125291</ele>
        <time>2026-07-09T08:04:29.000Z</time>
      </trkpt>
      <trkpt lat="46.9072" lon="16.04439">
        <ele>372.054521</ele>
        <time>2026-07-09T08:04:35.000Z</time>
      </trkpt>
      <trkpt lat="46.90712" lon="16.04427">
        <ele>372.021073</ele>
        <time>2026-07-09T08:04:38.000Z</time>
      </trkpt>
      <trkpt lat="46.90703" lon="16.0441">
        <ele>371.975844</ele>
        <time>2026-07-09T08:04:42.000Z</time>
      </trkpt>
      <trkpt lat="46.90698" lon="16.04402">
        <ele>371.953999</ele>
        <time>2026-07-09T08:04:44.000Z</time>
      </trkpt>
      <trkpt lat="46.90687" lon="16.04385">
        <ele>371.906507</ele>
        <time>2026-07-09T08:04:49.000Z</time>
      </trkpt>
      <trkpt lat="46.90683" lon="16.04378">
        <ele>371.887855</ele>
        <time>2026-07-09T08:04:51.000Z</time>
      </trkpt>
      <trkpt lat="46.90679" lon="16.04371">
        <ele>371.866666</ele>
        <time>2026-07-09T08:04:53.000Z</time>
      </trkpt>
      <trkpt lat="46.90673" lon="16.04362">
        <ele>371.843459</ele>
        <time>2026-07-09T08:04:55.000Z</time>
      </trkpt>
      <trkpt lat="46.90664" lon="16.04348">
        <ele>371.804192</ele>
        <time>2026-07-09T08:04:58.000Z</time>
      </trkpt>
      <trkpt lat="46.90645" lon="16.04315">
        <ele>371.716066</ele>
        <time>2026-07-09T08:05:04.000Z</time>
      </trkpt>
      <trkpt lat="46.90642" lon="16.0431">
        <ele>371.700337</ele>
        <time>2026-07-09T08:05:05.000Z</time>
      </trkpt>
      <trkpt lat="46.90633" lon="16.04302">
        <ele>371.669717</ele>
        <time>2026-07-09T08:05:07.000Z</time>
      </trkpt>
      <trkpt lat="46.90622" lon="16.04297">
        <ele>371.635309</ele>
        <time>2026-07-09T08:05:09.000Z</time>
      </trkpt>
      <trkpt lat="46.9061" lon="16.04297">
        <ele>371.56574</ele>
        <time>2026-07-09T08:05:11.000Z</time>
      </trkpt>
      <trkpt lat="46.90598" lon="16.04299">
        <ele>371.492821</ele>
        <time>2026-07-09T08:05:13.000Z</time>
      </trkpt>
      <trkpt lat="46.90582" lon="16.04298">
        <ele>371.383041</ele>
        <time>2026-07-09T08:05:16.000Z</time>
      </trkpt>
      <trkpt lat="46.90565" lon="16.04291">
        <ele>371.273344</ele>
        <time>2026-07-09T08:05:19.000Z</time>
      </trkpt>
      <trkpt lat="46.90558" lon="16.04284">
        <ele>371.216486</ele>
        <time>2026-07-09T08:05:21.000Z</time>
      </trkpt>
      <trkpt lat="46.90556" lon="16.04278">
        <ele>371.188279</ele>
        <time>2026-07-09T08:05:22.000Z</time>
      </trkpt>
      <trkpt lat="46.90554" lon="16.04273">
        <ele>371.161094</ele>
        <time>2026-07-09T08:05:23.000Z</time>
      </trkpt>
      <trkpt lat="46.90554" lon="16.04256">
        <ele>371.085653</ele>
        <time>2026-07-09T08:05:26.000Z</time>
      </trkpt>
      <trkpt lat="46.90555" lon="16.04251">
        <ele>371.062141</ele>
        <time>2026-07-09T08:05:27.000Z</time>
      </trkpt>
      <trkpt lat="46.90557" lon="16.04232">
        <ele>370.975615</ele>
        <time>2026-07-09T08:05:31.000Z</time>
      </trkpt>
      <trkpt lat="46.90561" lon="16.04213">
        <ele>370.889491</ele>
        <time>2026-07-09T08:05:35.000Z</time>
      </trkpt>
      <trkpt lat="46.90565" lon="16.04193">
        <ele>370.796671</ele>
        <time>2026-07-09T08:05:39.000Z</time>
      </trkpt>
      <trkpt lat="46.90575" lon="16.04142">
        <ele>370.561647</ele>
        <time>2026-07-09T08:05:48.000Z</time>
      </trkpt>
      <trkpt lat="46.90581" lon="16.04101">
        <ele>370.599432</ele>
        <time>2026-07-09T08:05:55.000Z</time>
      </trkpt>
      <trkpt lat="46.90582" lon="16.04081">
        <ele>370.754563</ele>
        <time>2026-07-09T08:05:58.000Z</time>
      </trkpt>
      <trkpt lat="46.9058" lon="16.04068">
        <ele>370.865329</ele>
        <time>2026-07-09T08:06:00.000Z</time>
      </trkpt>
      <trkpt lat="46.90576" lon="16.04055">
        <ele>370.976032</ele>
        <time>2026-07-09T08:06:02.000Z</time>
      </trkpt>
      <trkpt lat="46.90567" lon="16.04038">
        <ele>371.136715</ele>
        <time>2026-07-09T08:06:05.000Z</time>
      </trkpt>
      <trkpt lat="46.90549" lon="16.04011">
        <ele>371.437165</ele>
        <time>2026-07-09T08:06:11.000Z</time>
      </trkpt>
      <trkpt lat="46.90543" lon="16.04003">
        <ele>371.528017</ele>
        <time>2026-07-09T08:06:13.000Z</time>
      </trkpt>
      <trkpt lat="46.90538" lon="16.03995">
        <ele>371.612756</ele>
        <time>2026-07-09T08:06:15.000Z</time>
      </trkpt>
      <trkpt lat="46.90526" lon="16.03976">
        <ele>371.807143</ele>
        <time>2026-07-09T08:06:20.000Z</time>
      </trkpt>
      <trkpt lat="46.90517" lon="16.03951">
        <ele>372.034437</ele>
        <time>2026-07-09T08:06:27.000Z</time>
      </trkpt>
      <trkpt lat="46.90505" lon="16.03919">
        <ele>372.313745</ele>
        <time>2026-07-09T08:06:36.000Z</time>
      </trkpt>
      <trkpt lat="46.90491" lon="16.03892">
        <ele>372.580086</ele>
        <time>2026-07-09T08:06:43.000Z</time>
      </trkpt>
      <trkpt lat="46.90469" lon="16.0388">
        <ele>372.84501</ele>
        <time>2026-07-09T08:06:47.000Z</time>
      </trkpt>
      <trkpt lat="46.90443" lon="16.03867">
        <ele>373.162337</ele>
        <time>2026-07-09T08:06:51.000Z</time>
      </trkpt>
      <trkpt lat="46.90431" lon="16.03864">
        <ele>373.29881</ele>
        <time>2026-07-09T08:06:53.000Z</time>
      </trkpt>
      <trkpt lat="46.90425" lon="16.03863">
        <ele>373.367688</ele>
        <time>2026-07-09T08:06:54.000Z</time>
      </trkpt>
      <trkpt lat="46.90409" lon="16.03862">
        <ele>373.549177</ele>
        <time>2026-07-09T08:06:57.000Z</time>
      </trkpt>
      <trkpt lat="46.90392" lon="16.03861">
        <ele>373.746653</ele>
        <time>2026-07-09T08:07:00.000Z</time>
      </trkpt>
      <trkpt lat="46.90389" lon="16.0386">
        <ele>373.783634</ele>
        <time>2026-07-09T08:07:01.000Z</time>
      </trkpt>
      <trkpt lat="46.90379" lon="16.03857">
        <ele>373.893205</ele>
        <time>2026-07-09T08:07:03.000Z</time>
      </trkpt>
      <trkpt lat="46.90375" lon="16.03856">
        <ele>373.943446</ele>
        <time>2026-07-09T08:07:04.000Z</time>
      </trkpt>
      <trkpt lat="46.90363" lon="16.03853">
        <ele>374.081889</ele>
        <time>2026-07-09T08:07:07.000Z</time>
      </trkpt>
      <trkpt lat="46.90348" lon="16.03845">
        <ele>374.264016</ele>
        <time>2026-07-09T08:07:12.000Z</time>
      </trkpt>
      <trkpt lat="46.90345" lon="16.03844">
        <ele>374.298025</ele>
        <time>2026-07-09T08:07:13.000Z</time>
      </trkpt>
      <trkpt lat="46.9033" lon="16.03831">
        <ele>374.494731</ele>
        <time>2026-07-09T08:07:19.000Z</time>
      </trkpt>
      <trkpt lat="46.90312" lon="16.03807">
        <ele>374.716453</ele>
        <time>2026-07-09T08:07:26.000Z</time>
      </trkpt>
      <trkpt lat="46.90292" lon="16.0378">
        <ele>374.946948</ele>
        <time>2026-07-09T08:07:31.000Z</time>
      </trkpt>
      <trkpt lat="46.90261" lon="16.0374">
        <ele>375.302664</ele>
        <time>2026-07-09T08:07:39.000Z</time>
      </trkpt>
      <trkpt lat="46.90243" lon="16.03715">
        <ele>375.515402</ele>
        <time>2026-07-09T08:07:45.000Z</time>
      </trkpt>
      <trkpt lat="46.90225" lon="16.03694">
        <ele>375.712049</ele>
        <time>2026-07-09T08:07:50.000Z</time>
      </trkpt>
      <trkpt lat="46.90218" lon="16.03687">
        <ele>375.778674</ele>
        <time>2026-07-09T08:07:52.000Z</time>
      </trkpt>
      <trkpt lat="46.90209" lon="16.03676">
        <ele>375.878574</ele>
        <time>2026-07-09T08:07:56.000Z</time>
      </trkpt>
      <trkpt lat="46.90202" lon="16.03664">
        <ele>375.975158</ele>
        <time>2026-07-09T08:08:01.000Z</time>
      </trkpt>
      <trkpt lat="46.902" lon="16.03661">
        <ele>375.994658</ele>
        <time>2026-07-09T08:08:02.000Z</time>
      </trkpt>
      <trkpt lat="46.90189" lon="16.0365">
        <ele>376.172293</ele>
        <time>2026-07-09T08:08:08.000Z</time>
      </trkpt>
      <trkpt lat="46.90176" lon="16.03635">
        <ele>376.869971</ele>
        <time>2026-07-09T08:08:17.000Z</time>
      </trkpt>
      <trkpt lat="46.90174" lon="16.03634">
        <ele>376.945344</ele>
        <time>2026-07-09T08:08:18.000Z</time>
      </trkpt>
      <trkpt lat="46.90166" lon="16.03635">
        <ele>377.291326</ele>
        <time>2026-07-09T08:08:21.000Z</time>
      </trkpt>
      <trkpt lat="46.90147" lon="16.03639">
        <ele>378.084698</ele>
        <time>2026-07-09T08:08:27.000Z</time>
      </trkpt>
      <trkpt lat="46.9014" lon="16.0364">
        <ele>378.383888</ele>
        <time>2026-07-09T08:08:29.000Z</time>
      </trkpt>
      <trkpt lat="46.90127" lon="16.03644">
        <ele>378.913575</ele>
        <time>2026-07-09T08:08:33.000Z</time>
      </trkpt>
      <trkpt lat="46.90124" lon="16.03645">
        <ele>379.044168</ele>
        <time>2026-07-09T08:08:34.000Z</time>
      </trkpt>
      <trkpt lat="46.90118" lon="16.03646">
        <ele>379.304202</ele>
        <time>2026-07-09T08:08:36.000Z</time>
      </trkpt>
      <trkpt lat="46.90099" lon="16.03653">
        <ele>380.086904</ele>
        <time>2026-07-09T08:08:40.000Z</time>
      </trkpt>
      <trkpt lat="46.90072" lon="16.03662">
        <ele>381.228893</ele>
        <time>2026-07-09T08:08:47.000Z</time>
      </trkpt>
      <trkpt lat="46.90048" lon="16.03667">
        <ele>382.20708</ele>
        <time>2026-07-09T08:08:53.000Z</time>
      </trkpt>
      <trkpt lat="46.90032" lon="16.0367">
        <ele>382.875504</ele>
        <time>2026-07-09T08:08:57.000Z</time>
      </trkpt>
      <trkpt lat="46.90028" lon="16.0367">
        <ele>383.048381</ele>
        <time>2026-07-09T08:08:58.000Z</time>
      </trkpt>
      <trkpt lat="46.9002" lon="16.0367">
        <ele>383.398349</ele>
        <time>2026-07-09T08:09:00.000Z</time>
      </trkpt>
      <trkpt lat="46.89997" lon="16.03664">
        <ele>383.867642</ele>
        <time>2026-07-09T08:09:06.000Z</time>
      </trkpt>
      <trkpt lat="46.89972" lon="16.03656">
        <ele>384.343557</ele>
        <time>2026-07-09T08:09:12.000Z</time>
      </trkpt>
      <trkpt lat="46.89943" lon="16.0366">
        <ele>384.876583</ele>
        <time>2026-07-09T08:09:19.000Z</time>
      </trkpt>
      <trkpt lat="46.89925" lon="16.03668">
        <ele>385.225234</ele>
        <time>2026-07-09T08:09:25.000Z</time>
      </trkpt>
      <trkpt lat="46.89914" lon="16.03674">
        <ele>385.436798</ele>
        <time>2026-07-09T08:09:29.000Z</time>
      </trkpt>
      <trkpt lat="46.89898" lon="16.03678">
        <ele>385.734298</ele>
        <time>2026-07-09T08:09:34.000Z</time>
      </trkpt>
      <trkpt lat="46.89878" lon="16.03671">
        <ele>386.106324</ele>
        <time>2026-07-09T08:09:39.000Z</time>
      </trkpt>
      <trkpt lat="46.89853" lon="16.03656">
        <ele>386.618059</ele>
        <time>2026-07-09T08:09:46.000Z</time>
      </trkpt>
      <trkpt lat="46.89828" lon="16.03636">
        <ele>387.059524</ele>
        <time>2026-07-09T08:09:53.000Z</time>
      </trkpt>
      <trkpt lat="46.89816" lon="16.03626">
        <ele>387.263895</ele>
        <time>2026-07-09T08:09:57.000Z</time>
      </trkpt>
      <trkpt lat="46.89796" lon="16.03616">
        <ele>387.571374</ele>
        <time>2026-07-09T08:10:03.000Z</time>
      </trkpt>
      <trkpt lat="46.89772" lon="16.03613">
        <ele>387.912983</ele>
        <time>2026-07-09T08:10:09.000Z</time>
      </trkpt>
      <trkpt lat="46.89745" lon="16.03605">
        <ele>388.325668</ele>
        <time>2026-07-09T08:10:14.000Z</time>
      </trkpt>
      <trkpt lat="46.89741" lon="16.03608">
        <ele>388.385133</ele>
        <time>2026-07-09T08:10:15.000Z</time>
      </trkpt>
      <trkpt lat="46.89733" lon="16.03615">
        <ele>388.527135</ele>
        <time>2026-07-09T08:10:17.000Z</time>
      </trkpt>
      <trkpt lat="46.89718" lon="16.03621">
        <ele>388.744372</ele>
        <time>2026-07-09T08:10:20.000Z</time>
      </trkpt>
      <trkpt lat="46.89698" lon="16.03624">
        <ele>389.034147</ele>
        <time>2026-07-09T08:10:23.000Z</time>
      </trkpt>
      <trkpt lat="46.89681" lon="16.03624">
        <ele>389.279797</ele>
        <time>2026-07-09T08:10:26.000Z</time>
      </trkpt>
      <trkpt lat="46.89643" lon="16.03624">
        <ele>388.679012</ele>
        <time>2026-07-09T08:10:32.000Z</time>
      </trkpt>
      <trkpt lat="46.89606" lon="16.03622">
        <ele>387.765455</ele>
        <time>2026-07-09T08:10:39.000Z</time>
      </trkpt>
      <trkpt lat="46.89583" lon="16.03619">
        <ele>387.188791</ele>
        <time>2026-07-09T08:10:45.000Z</time>
      </trkpt>
      <trkpt lat="46.89551" lon="16.03617">
        <ele>386.389196</ele>
        <time>2026-07-09T08:10:53.000Z</time>
      </trkpt>
      <trkpt lat="46.89529" lon="16.03619">
        <ele>385.852872</ele>
        <time>2026-07-09T08:10:58.000Z</time>
      </trkpt>
      <trkpt lat="46.89524" lon="16.03621">
        <ele>385.732144</ele>
        <time>2026-07-09T08:10:59.000Z</time>
      </trkpt>
      <trkpt lat="46.8952" lon="16.03622">
        <ele>385.633842</ele>
        <time>2026-07-09T08:11:00.000Z</time>
      </trkpt>
      <trkpt lat="46.89497" lon="16.03625">
        <ele>385.065906</ele>
        <time>2026-07-09T08:11:05.000Z</time>
      </trkpt>
      <trkpt lat="46.89466" lon="16.03628">
        <ele>385.457577</ele>
        <time>2026-07-09T08:11:13.000Z</time>
      </trkpt>
      <trkpt lat="46.89426" lon="16.03619">
        <ele>386.155075</ele>
        <time>2026-07-09T08:11:23.000Z</time>
      </trkpt>
      <trkpt lat="46.89407" lon="16.03612">
        <ele>386.504031</ele>
        <time>2026-07-09T08:11:30.000Z</time>
      </trkpt>
      <trkpt lat="46.89407" lon="16.03612">
        <ele>386.50616</ele>
        <time>2026-07-09T08:11:31.000Z</time>
      </trkpt>
      <trkpt lat="46.89402" lon="16.03609">
        <ele>386.60572</ele>
        <time>2026-07-09T08:11:35.000Z</time>
      </trkpt>
      <trkpt lat="46.89398" lon="16.03608">
        <ele>386.678938</ele>
        <time>2026-07-09T08:11:37.000Z</time>
      </trkpt>
      <trkpt lat="46.89387" lon="16.03604">
        <ele>386.881312</ele>
        <time>2026-07-09T08:11:43.000Z</time>
      </trkpt>
      <trkpt lat="46.89381" lon="16.03602">
        <ele>386.980981</ele>
        <time>2026-07-09T08:11:45.000Z</time>
      </trkpt>
      <trkpt lat="46.89375" lon="16.03601">
        <ele>387.08952</ele>
        <time>2026-07-09T08:11:47.000Z</time>
      </trkpt>
      <trkpt lat="46.89372" lon="16.03601">
        <ele>387.144132</ele>
        <time>2026-07-09T08:11:48.000Z</time>
      </trkpt>
      <trkpt lat="46.89355" lon="16.03598">
        <ele>387.447168</ele>
        <time>2026-07-09T08:11:54.000Z</time>
      </trkpt>
      <trkpt lat="46.89328" lon="16.03592">
        <ele>387.914698</ele>
        <time>2026-07-09T08:12:04.000Z</time>
      </trkpt>
      <trkpt lat="46.89314" lon="16.03586">
        <ele>388.26396</ele>
        <time>2026-07-09T08:12:11.000Z</time>
      </trkpt>
      <trkpt lat="46.89297" lon="16.03577">
        <ele>389.050475</ele>
        <time>2026-07-09T08:12:19.000Z</time>
      </trkpt>
      <trkpt lat="46.89283" lon="16.03567">
        <ele>389.74096</ele>
        <time>2026-07-09T08:12:25.000Z</time>
      </trkpt>
      <trkpt lat="46.8928" lon="16.03562">
        <ele>389.946989</ele>
        <time>2026-07-09T08:12:27.000Z</time>
      </trkpt>
      <trkpt lat="46.89276" lon="16.03553">
        <ele>390.278319</ele>
        <time>2026-07-09T08:12:30.000Z</time>
      </trkpt>
      <trkpt lat="46.89269" lon="16.03534">
        <ele>390.914776</ele>
        <time>2026-07-09T08:12:36.000Z</time>
      </trkpt>
      <trkpt lat="46.89262" lon="16.03508">
        <ele>391.778089</ele>
        <time>2026-07-09T08:12:44.000Z</time>
      </trkpt>
      <trkpt lat="46.89259" lon="16.03498">
        <ele>392.116918</ele>
        <time>2026-07-09T08:12:49.000Z</time>
      </trkpt>
      <trkpt lat="46.89259" lon="16.03496">
        <ele>392.168786</ele>
        <time>2026-07-09T08:12:50.000Z</time>
      </trkpt>
      <trkpt lat="46.89258" lon="16.03492">
        <ele>392.307373</ele>
        <time>2026-07-09T08:12:52.000Z</time>
      </trkpt>
      <trkpt lat="46.89258" lon="16.03486">
        <ele>392.471764</ele>
        <time>2026-07-09T08:12:54.000Z</time>
      </trkpt>
      <trkpt lat="46.89259" lon="16.03478">
        <ele>392.713919</ele>
        <time>2026-07-09T08:12:57.000Z</time>
      </trkpt>
      <trkpt lat="46.89261" lon="16.03471">
        <ele>392.946307</ele>
        <time>2026-07-09T08:13:01.000Z</time>
      </trkpt>
      <trkpt lat="46.89264" lon="16.03455">
        <ele>393.476006</ele>
        <time>2026-07-09T08:13:09.000Z</time>
      </trkpt>
      <trkpt lat="46.89267" lon="16.03442">
        <ele>393.880312</ele>
        <time>2026-07-09T08:13:13.000Z</time>
      </trkpt>
      <trkpt lat="46.8927" lon="16.03434">
        <ele>394.147571</ele>
        <time>2026-07-09T08:13:15.000Z</time>
      </trkpt>
      <trkpt lat="46.89274" lon="16.03419">
        <ele>394.642333</ele>
        <time>2026-07-09T08:13:19.000Z</time>
      </trkpt>
      <trkpt lat="46.89276" lon="16.03407">
        <ele>395.025329</ele>
        <time>2026-07-09T08:13:22.000Z</time>
      </trkpt>
      <trkpt lat="46.8928" lon="16.03385">
        <ele>395.707563</ele>
        <time>2026-07-09T08:13:28.000Z</time>
      </trkpt>
      <trkpt lat="46.89281" lon="16.03381">
        <ele>395.83045</ele>
        <time>2026-07-09T08:13:29.000Z</time>
      </trkpt>
      <trkpt lat="46.89286" lon="16.03351">
        <ele>395.959285</ele>
        <time>2026-07-09T08:13:35.000Z</time>
      </trkpt>
      <trkpt lat="46.89291" lon="16.03327">
        <ele>395.765267</ele>
        <time>2026-07-09T08:13:39.000Z</time>
      </trkpt>
      <trkpt lat="46.89295" lon="16.03304">
        <ele>395.580667</ele>
        <time>2026-07-09T08:13:43.000Z</time>
      </trkpt>
      <trkpt lat="46.89298" lon="16.03281">
        <ele>395.392729</ele>
        <time>2026-07-09T08:13:48.000Z</time>
      </trkpt>
      <trkpt lat="46.893" lon="16.03258">
        <ele>395.20646</ele>
        <time>2026-07-09T08:13:53.000Z</time>
      </trkpt>
      <trkpt lat="46.89301" lon="16.0325">
        <ele>395.140307</ele>
        <time>2026-07-09T08:13:55.000Z</time>
      </trkpt>
      <trkpt lat="46.89303" lon="16.03238">
        <ele>395.047205</ele>
        <time>2026-07-09T08:13:59.000Z</time>
      </trkpt>
      <trkpt lat="46.89303" lon="16.03238">
        <ele>395.047205</ele>
        <time>2026-07-09T08:14:00.000Z</time>
      </trkpt>
      <trkpt lat="46.89303" lon="16.03238">
        <ele>395.047205</ele>
        <time>2026-07-09T08:14:01.000Z</time>
      </trkpt>
      <trkpt lat="46.89298" lon="16.03227">
        <ele>394.943966</ele>
        <time>2026-07-09T08:20:06.000Z</time>
      </trkpt>
      <trkpt lat="46.89298" lon="16.03225">
        <ele>394.923367</ele>
        <time>2026-07-09T08:20:07.000Z</time>
      </trkpt>
      <trkpt lat="46.89297" lon="16.03219">
        <ele>394.87568</ele>
        <time>2026-07-09T08:20:09.000Z</time>
      </trkpt>
      <trkpt lat="46.89296" lon="16.03209">
        <ele>394.795466</ele>
        <time>2026-07-09T08:20:12.000Z</time>
      </trkpt>
      <trkpt lat="46.89293" lon="16.03195">
        <ele>394.686352</ele>
        <time>2026-07-09T08:20:16.000Z</time>
      </trkpt>
      <trkpt lat="46.89292" lon="16.03185">
        <ele>394.603887</ele>
        <time>2026-07-09T08:20:19.000Z</time>
      </trkpt>
      <trkpt lat="46.89291" lon="16.03173">
        <ele>394.507477</ele>
        <time>2026-07-09T08:20:23.000Z</time>
      </trkpt>
      <trkpt lat="46.89284" lon="16.03151">
        <ele>394.313064</ele>
        <time>2026-07-09T08:20:31.000Z</time>
      </trkpt>
      <trkpt lat="46.89283" lon="16.03144">
        <ele>394.256128</ele>
        <time>2026-07-09T08:20:33.000Z</time>
      </trkpt>
      <trkpt lat="46.89274" lon="16.03118">
        <ele>394.04234</ele>
        <time>2026-07-09T08:20:41.000Z</time>
      </trkpt>
      <trkpt lat="46.89271" lon="16.03112">
        <ele>394.021424</ele>
        <time>2026-07-09T08:20:43.000Z</time>
      </trkpt>
      <trkpt lat="46.89253" lon="16.03083">
        <ele>393.908814</ele>
        <time>2026-07-09T08:20:51.000Z</time>
      </trkpt>
      <trkpt lat="46.89244" lon="16.03071">
        <ele>393.855746</ele>
        <time>2026-07-09T08:20:54.000Z</time>
      </trkpt>
      <trkpt lat="46.89227" lon="16.03049">
        <ele>393.762629</ele>
        <time>2026-07-09T08:21:00.000Z</time>
      </trkpt>
      <trkpt lat="46.89214" lon="16.03034">
        <ele>393.692085</ele>
        <time>2026-07-09T08:21:05.000Z</time>
      </trkpt>
      <trkpt lat="46.892" lon="16.03011">
        <ele>393.602853</ele>
        <time>2026-07-09T08:21:11.000Z</time>
      </trkpt>
      <trkpt lat="46.89196" lon="16.03001">
        <ele>393.571633</ele>
        <time>2026-07-09T08:21:13.000Z</time>
      </trkpt>
      <trkpt lat="46.89186" lon="16.0297">
        <ele>393.471725</ele>
        <time>2026-07-09T08:21:19.000Z</time>
      </trkpt>
      <trkpt lat="46.89175" lon="16.02943">
        <ele>393.380857</ele>
        <time>2026-07-09T08:21:25.000Z</time>
      </trkpt>
      <trkpt lat="46.8917" lon="16.02919">
        <ele>393.309639</ele>
        <time>2026-07-09T08:21:30.000Z</time>
      </trkpt>
      <trkpt lat="46.89161" lon="16.0289">
        <ele>392.899827</ele>
        <time>2026-07-09T08:21:36.000Z</time>
      </trkpt>
      <trkpt lat="46.89148" lon="16.02862">
        <ele>392.400319</ele>
        <time>2026-07-09T08:21:41.000Z</time>
      </trkpt>
      <trkpt lat="46.89144" lon="16.02857">
        <ele>392.283132</ele>
        <time>2026-07-09T08:21:42.000Z</time>
      </trkpt>
      <trkpt lat="46.89135" lon="16.02845">
        <ele>392.002842</ele>
        <time>2026-07-09T08:21:44.000Z</time>
      </trkpt>
      <trkpt lat="46.89127" lon="16.02832">
        <ele>391.748508</ele>
        <time>2026-07-09T08:21:46.000Z</time>
      </trkpt>
      <trkpt lat="46.89115" lon="16.02812">
        <ele>391.350632</ele>
        <time>2026-07-09T08:21:49.000Z</time>
      </trkpt>
      <trkpt lat="46.89106" lon="16.028">
        <ele>391.078893</ele>
        <time>2026-07-09T08:21:51.000Z</time>
      </trkpt>
      <trkpt lat="46.89092" lon="16.02782">
        <ele>390.671813</ele>
        <time>2026-07-09T08:21:54.000Z</time>
      </trkpt>
      <trkpt lat="46.89083" lon="16.02768">
        <ele>390.375963</ele>
        <time>2026-07-09T08:21:56.000Z</time>
      </trkpt>
      <trkpt lat="46.89065" lon="16.02735">
        <ele>389.752204</ele>
        <time>2026-07-09T08:22:00.000Z</time>
      </trkpt>
      <trkpt lat="46.89057" lon="16.02713">
        <ele>389.373819</ele>
        <time>2026-07-09T08:22:02.000Z</time>
      </trkpt>
      <trkpt lat="46.89054" lon="16.02703">
        <ele>389.110821</ele>
        <time>2026-07-09T08:22:03.000Z</time>
      </trkpt>
      <trkpt lat="46.89037" lon="16.02667">
        <ele>387.977138</ele>
        <time>2026-07-09T08:22:07.000Z</time>
      </trkpt>
      <trkpt lat="46.89005" lon="16.02617">
        <ele>386.162513</ele>
        <time>2026-07-09T08:22:13.000Z</time>
      </trkpt>
      <trkpt lat="46.88992" lon="16.02593">
        <ele>385.34402</ele>
        <time>2026-07-09T08:22:16.000Z</time>
      </trkpt>
      <trkpt lat="46.88982" lon="16.02578">
        <ele>384.820965</ele>
        <time>2026-07-09T08:22:18.000Z</time>
      </trkpt>
      <trkpt lat="46.88942" lon="16.02516">
        <ele>382.568809</ele>
        <time>2026-07-09T08:22:26.000Z</time>
      </trkpt>
      <trkpt lat="46.88919" lon="16.02485">
        <ele>381.998652</ele>
        <time>2026-07-09T08:22:30.000Z</time>
      </trkpt>
      <trkpt lat="46.88903" lon="16.02459">
        <ele>381.634032</ele>
        <time>2026-07-09T08:22:33.000Z</time>
      </trkpt>
      <trkpt lat="46.88891" lon="16.02435">
        <ele>381.326123</ele>
        <time>2026-07-09T08:22:36.000Z</time>
      </trkpt>
      <trkpt lat="46.88885" lon="16.02421">
        <ele>381.160508</ele>
        <time>2026-07-09T08:22:38.000Z</time>
      </trkpt>
      <trkpt lat="46.88867" lon="16.02386">
        <ele>380.709611</ele>
        <time>2026-07-09T08:22:44.000Z</time>
      </trkpt>
      <trkpt lat="46.88864" lon="16.02381">
        <ele>380.632502</ele>
        <time>2026-07-09T08:22:45.000Z</time>
      </trkpt>
      <trkpt lat="46.88857" lon="16.02374">
        <ele>380.51487</ele>
        <time>2026-07-09T08:22:47.000Z</time>
      </trkpt>
      <trkpt lat="46.8885" lon="16.02368">
        <ele>380.38266</ele>
        <time>2026-07-09T08:22:49.000Z</time>
      </trkpt>
      <trkpt lat="46.8882" lon="16.0235">
        <ele>379.898856</ele>
        <time>2026-07-09T08:22:56.000Z</time>
      </trkpt>
      <trkpt lat="46.88787" lon="16.02336">
        <ele>380.536717</ele>
        <time>2026-07-09T08:23:03.000Z</time>
      </trkpt>
      <trkpt lat="46.88782" lon="16.02332">
        <ele>380.74131</ele>
        <time>2026-07-09T08:23:04.000Z</time>
      </trkpt>
      <trkpt lat="46.88761" lon="16.02308">
        <ele>381.806509</ele>
        <time>2026-07-09T08:23:10.000Z</time>
      </trkpt>
      <trkpt lat="46.88743" lon="16.02289">
        <ele>382.714469</ele>
        <time>2026-07-09T08:23:16.000Z</time>
      </trkpt>
      <trkpt lat="46.88739" lon="16.0228">
        <ele>383.011624</ele>
        <time>2026-07-09T08:23:18.000Z</time>
      </trkpt>
      <trkpt lat="46.88737" lon="16.02277">
        <ele>383.105861</ele>
        <time>2026-07-09T08:23:19.000Z</time>
      </trkpt>
      <trkpt lat="46.88725" lon="16.02263">
        <ele>383.718815</ele>
        <time>2026-07-09T08:23:24.000Z</time>
      </trkpt>
      <trkpt lat="46.88721" lon="16.02257">
        <ele>383.941175</ele>
        <time>2026-07-09T08:23:26.000Z</time>
      </trkpt>
      <trkpt lat="46.88717" lon="16.02247">
        <ele>384.245655</ele>
        <time>2026-07-09T08:23:29.000Z</time>
      </trkpt>
      <trkpt lat="46.88713" lon="16.02237">
        <ele>384.592329</ele>
        <time>2026-07-09T08:23:33.000Z</time>
      </trkpt>
      <trkpt lat="46.88705" lon="16.02217">
        <ele>385.195261</ele>
        <time>2026-07-09T08:23:38.000Z</time>
      </trkpt>
      <trkpt lat="46.88704" lon="16.02214">
        <ele>385.30029</ele>
        <time>2026-07-09T08:23:39.000Z</time>
      </trkpt>
      <trkpt lat="46.88702" lon="16.022">
        <ele>385.68332</ele>
        <time>2026-07-09T08:23:42.000Z</time>
      </trkpt>
      <trkpt lat="46.88694" lon="16.02178">
        <ele>386.386171</ele>
        <time>2026-07-09T08:23:46.000Z</time>
      </trkpt>
      <trkpt lat="46.8869" lon="16.02155">
        <ele>386.64979</ele>
        <time>2026-07-09T08:23:49.000Z</time>
      </trkpt>
      <trkpt lat="46.88692" lon="16.02148">
        <ele>386.361355</ele>
        <time>2026-07-09T08:23:50.000Z</time>
      </trkpt>
      <trkpt lat="46.88693" lon="16.02116">
        <ele>385.133319</ele>
        <time>2026-07-09T08:23:54.000Z</time>
      </trkpt>
      <trkpt lat="46.88692" lon="16.02102">
        <ele>384.612231</ele>
        <time>2026-07-09T08:23:56.000Z</time>
      </trkpt>
      <trkpt lat="46.88691" lon="16.02095">
        <ele>384.348921</ele>
        <time>2026-07-09T08:23:57.000Z</time>
      </trkpt>
      <trkpt lat="46.88686" lon="16.02067">
        <ele>383.239075</ele>
        <time>2026-07-09T08:24:01.000Z</time>
      </trkpt>
      <trkpt lat="46.88685" lon="16.02054">
        <ele>382.742865</ele>
        <time>2026-07-09T08:24:03.000Z</time>
      </trkpt>
      <trkpt lat="46.88685" lon="16.02047">
        <ele>382.480022</ele>
        <time>2026-07-09T08:24:04.000Z</time>
      </trkpt>
      <trkpt lat="46.88684" lon="16.0204">
        <ele>382.22417</ele>
        <time>2026-07-09T08:24:05.000Z</time>
      </trkpt>
      <trkpt lat="46.8868" lon="16.02021">
        <ele>381.469988</ele>
        <time>2026-07-09T08:24:08.000Z</time>
      </trkpt>
      <trkpt lat="46.88679" lon="16.02016">
        <ele>381.252336</ele>
        <time>2026-07-09T08:24:09.000Z</time>
      </trkpt>
      <trkpt lat="46.88677" lon="16.02011">
        <ele>381.039002</ele>
        <time>2026-07-09T08:24:10.000Z</time>
      </trkpt>
      <trkpt lat="46.88671" lon="16.02002">
        <ele>380.538596</ele>
        <time>2026-07-09T08:24:12.000Z</time>
      </trkpt>
      <trkpt lat="46.88666" lon="16.01999">
        <ele>380.238549</ele>
        <time>2026-07-09T08:24:13.000Z</time>
      </trkpt>
      <trkpt lat="46.88648" lon="16.0199">
        <ele>379.212268</ele>
        <time>2026-07-09T08:24:16.000Z</time>
      </trkpt>
      <trkpt lat="46.88637" lon="16.0199">
        <ele>378.560749</ele>
        <time>2026-07-09T08:24:18.000Z</time>
      </trkpt>
      <trkpt lat="46.88621" lon="16.01991">
        <ele>377.713069</ele>
        <time>2026-07-09T08:24:21.000Z</time>
      </trkpt>
      <trkpt lat="46.8861" lon="16.0199">
        <ele>377.081574</ele>
        <time>2026-07-09T08:24:23.000Z</time>
      </trkpt>
      <trkpt lat="46.88594" lon="16.01978">
        <ele>376.453213</ele>
        <time>2026-07-09T08:24:25.000Z</time>
      </trkpt>
      <trkpt lat="46.88584" lon="16.01968">
        <ele>376.081316</ele>
        <time>2026-07-09T08:24:26.000Z</time>
      </trkpt>
      <trkpt lat="46.88574" lon="16.01958">
        <ele>375.72357</ele>
        <time>2026-07-09T08:24:27.000Z</time>
      </trkpt>
      <trkpt lat="46.88561" lon="16.01937">
        <ele>375.125962</ele>
        <time>2026-07-09T08:24:29.000Z</time>
      </trkpt>
      <trkpt lat="46.88556" lon="16.01924">
        <ele>374.82818</ele>
        <time>2026-07-09T08:24:30.000Z</time>
      </trkpt>
      <trkpt lat="46.88541" lon="16.01885">
        <ele>373.914212</ele>
        <time>2026-07-09T08:24:33.000Z</time>
      </trkpt>
      <trkpt lat="46.88535" lon="16.01872">
        <ele>373.604801</ele>
        <time>2026-07-09T08:24:34.000Z</time>
      </trkpt>
      <trkpt lat="46.88515" lon="16.01835">
        <ele>372.625754</ele>
        <time>2026-07-09T08:24:37.000Z</time>
      </trkpt>
      <trkpt lat="46.88496" lon="16.01786">
        <ele>371.456427</ele>
        <time>2026-07-09T08:24:41.000Z</time>
      </trkpt>
      <trkpt lat="46.88472" lon="16.01715">
        <ele>369.836954</ele>
        <time>2026-07-09T08:24:47.000Z</time>
      </trkpt>
      <trkpt lat="46.88465" lon="16.01692">
        <ele>369.329143</ele>
        <time>2026-07-09T08:24:49.000Z</time>
      </trkpt>
      <trkpt lat="46.88456" lon="16.01659">
        <ele>368.590355</ele>
        <time>2026-07-09T08:24:52.000Z</time>
      </trkpt>
      <trkpt lat="46.88445" lon="16.01611">
        <ele>367.539429</ele>
        <time>2026-07-09T08:24:57.000Z</time>
      </trkpt>
      <trkpt lat="46.88442" lon="16.01569">
        <ele>366.677455</ele>
        <time>2026-07-09T08:25:02.000Z</time>
      </trkpt>
      <trkpt lat="46.88444" lon="16.01547">
        <ele>366.229525</ele>
        <time>2026-07-09T08:25:05.000Z</time>
      </trkpt>
      <trkpt lat="46.88444" lon="16.01541">
        <ele>366.093129</ele>
        <time>2026-07-09T08:25:06.000Z</time>
      </trkpt>
      <trkpt lat="46.88445" lon="16.01534">
        <ele>366.156469</ele>
        <time>2026-07-09T08:25:07.000Z</time>
      </trkpt>
      <trkpt lat="46.88448" lon="16.015">
        <ele>366.887623</ele>
        <time>2026-07-09T08:25:12.000Z</time>
      </trkpt>
      <trkpt lat="46.88448" lon="16.01486">
        <ele>367.194567</ele>
        <time>2026-07-09T08:25:14.000Z</time>
      </trkpt>
      <trkpt lat="46.88449" lon="16.01473">
        <ele>367.463179</ele>
        <time>2026-07-09T08:25:16.000Z</time>
      </trkpt>
      <trkpt lat="46.88451" lon="16.01455">
        <ele>367.856568</ele>
        <time>2026-07-09T08:25:19.000Z</time>
      </trkpt>
      <trkpt lat="46.88452" lon="16.01449">
        <ele>367.980086</ele>
        <time>2026-07-09T08:25:20.000Z</time>
      </trkpt>
      <trkpt lat="46.88454" lon="16.01418">
        <ele>368.64444</ele>
        <time>2026-07-09T08:25:26.000Z</time>
      </trkpt>
      <trkpt lat="46.88455" lon="16.0139">
        <ele>369.23246</ele>
        <time>2026-07-09T08:25:32.000Z</time>
      </trkpt>
      <trkpt lat="46.88456" lon="16.0137">
        <ele>369.672211</ele>
        <time>2026-07-09T08:25:37.000Z</time>
      </trkpt>
      <trkpt lat="46.88459" lon="16.01334">
        <ele>370.44454</ele>
        <time>2026-07-09T08:25:44.000Z</time>
      </trkpt>
      <trkpt lat="46.88465" lon="16.01305">
        <ele>371.086424</ele>
        <time>2026-07-09T08:25:49.000Z</time>
      </trkpt>
      <trkpt lat="46.88474" lon="16.01266">
        <ele>371.45041</ele>
        <time>2026-07-09T08:25:56.000Z</time>
      </trkpt>
      <trkpt lat="46.88483" lon="16.01221">
        <ele>370.848157</ele>
        <time>2026-07-09T08:26:04.000Z</time>
      </trkpt>
      <trkpt lat="46.88478" lon="16.01188">
        <ele>370.414926</ele>
        <time>2026-07-09T08:26:09.000Z</time>
      </trkpt>
      <trkpt lat="46.88477" lon="16.01176">
        <ele>370.256688</ele>
        <time>2026-07-09T08:26:11.000Z</time>
      </trkpt>
      <trkpt lat="46.88474" lon="16.01154">
        <ele>369.975174</ele>
        <time>2026-07-09T08:26:14.000Z</time>
      </trkpt>
      <trkpt lat="46.88473" lon="16.01132">
        <ele>369.687597</ele>
        <time>2026-07-09T08:26:17.000Z</time>
      </trkpt>
      <trkpt lat="46.88474" lon="16.01124">
        <ele>369.589842</ele>
        <time>2026-07-09T08:26:18.000Z</time>
      </trkpt>
      <trkpt lat="46.88476" lon="16.01117">
        <ele>369.491111</ele>
        <time>2026-07-09T08:26:19.000Z</time>
      </trkpt>
      <trkpt lat="46.88478" lon="16.01104">
        <ele>369.308196</ele>
        <time>2026-07-09T08:26:21.000Z</time>
      </trkpt>
      <trkpt lat="46.8848" lon="16.01097">
        <ele>369.214441</ele>
        <time>2026-07-09T08:26:22.000Z</time>
      </trkpt>
      <trkpt lat="46.88481" lon="16.01089">
        <ele>369.117559</ele>
        <time>2026-07-09T08:26:23.000Z</time>
      </trkpt>
      <trkpt lat="46.88489" lon="16.01071">
        <ele>368.843573</ele>
        <time>2026-07-09T08:26:26.000Z</time>
      </trkpt>
      <trkpt lat="46.88495" lon="16.01052">
        <ele>368.570906</ele>
        <time>2026-07-09T08:26:29.000Z</time>
      </trkpt>
      <trkpt lat="46.88501" lon="16.01035">
        <ele>368.327509</ele>
        <time>2026-07-09T08:26:32.000Z</time>
      </trkpt>
      <trkpt lat="46.88508" lon="16.01024">
        <ele>368.36507</ele>
        <time>2026-07-09T08:26:34.000Z</time>
      </trkpt>
      <trkpt lat="46.88521" lon="16.01003">
        <ele>368.704192</ele>
        <time>2026-07-09T08:26:38.000Z</time>
      </trkpt>
      <trkpt lat="46.88525" lon="16.00997">
        <ele>368.804011</ele>
        <time>2026-07-09T08:26:39.000Z</time>
      </trkpt>
      <trkpt lat="46.88535" lon="16.0097">
        <ele>369.159299</ele>
        <time>2026-07-09T08:26:43.000Z</time>
      </trkpt>
      <trkpt lat="46.88539" lon="16.00957">
        <ele>369.329126</ele>
        <time>2026-07-09T08:26:45.000Z</time>
      </trkpt>
      <trkpt lat="46.88546" lon="16.00945">
        <ele>369.512459</ele>
        <time>2026-07-09T08:26:47.000Z</time>
      </trkpt>
      <trkpt lat="46.88549" lon="16.00939">
        <ele>369.597776</ele>
        <time>2026-07-09T08:26:48.000Z</time>
      </trkpt>
      <trkpt lat="46.88556" lon="16.00926">
        <ele>369.795034</ele>
        <time>2026-07-09T08:26:50.000Z</time>
      </trkpt>
      <trkpt lat="46.88567" lon="16.00908">
        <ele>370.07605</ele>
        <time>2026-07-09T08:26:53.000Z</time>
      </trkpt>
      <trkpt lat="46.8857" lon="16.00903">
        <ele>370.158481</ele>
        <time>2026-07-09T08:26:54.000Z</time>
      </trkpt>
      <trkpt lat="46.88573" lon="16.00898">
        <ele>370.235184</ele>
        <time>2026-07-09T08:26:55.000Z</time>
      </trkpt>
      <trkpt lat="46.88584" lon="16.00887">
        <ele>370.458771</ele>
        <time>2026-07-09T08:26:58.000Z</time>
      </trkpt>
      <trkpt lat="46.88592" lon="16.00884">
        <ele>370.609164</ele>
        <time>2026-07-09T08:27:00.000Z</time>
      </trkpt>
      <trkpt lat="46.886" lon="16.00882">
        <ele>370.747563</ele>
        <time>2026-07-09T08:27:02.000Z</time>
      </trkpt>
      <trkpt lat="46.88604" lon="16.00881">
        <ele>370.810128</ele>
        <time>2026-07-09T08:27:03.000Z</time>
      </trkpt>
      <trkpt lat="46.88615" lon="16.0088">
        <ele>370.999189</ele>
        <time>2026-07-09T08:27:06.000Z</time>
      </trkpt>
      <trkpt lat="46.88625" lon="16.00881">
        <ele>371.184789</ele>
        <time>2026-07-09T08:27:09.000Z</time>
      </trkpt>
      <trkpt lat="46.88643" lon="16.00882">
        <ele>371.560059</ele>
        <time>2026-07-09T08:27:14.000Z</time>
      </trkpt>
      <trkpt lat="46.88646" lon="16.00883">
        <ele>371.652691</ele>
        <time>2026-07-09T08:27:15.000Z</time>
      </trkpt>
      <trkpt lat="46.88662" lon="16.00879">
        <ele>372.076043</ele>
        <time>2026-07-09T08:27:20.000Z</time>
      </trkpt>
      <trkpt lat="46.88669" lon="16.00874">
        <ele>372.289813</ele>
        <time>2026-07-09T08:27:22.000Z</time>
      </trkpt>
      <trkpt lat="46.88679" lon="16.0086">
        <ele>372.65448</ele>
        <time>2026-07-09T08:27:25.000Z</time>
      </trkpt>
      <trkpt lat="46.88687" lon="16.00845">
        <ele>372.996813</ele>
        <time>2026-07-09T08:27:27.000Z</time>
      </trkpt>
      <trkpt lat="46.88695" lon="16.00825">
        <ele>373.432811</ele>
        <time>2026-07-09T08:27:29.000Z</time>
      </trkpt>
      <trkpt lat="46.88714" lon="16.00788">
        <ele>374.26382</ele>
        <time>2026-07-09T08:27:32.000Z</time>
      </trkpt>
      <trkpt lat="46.88731" lon="16.0075">
        <ele>375.10065</ele>
        <time>2026-07-09T08:27:35.000Z</time>
      </trkpt>
      <trkpt lat="46.88735" lon="16.00737">
        <ele>375.352855</ele>
        <time>2026-07-09T08:27:36.000Z</time>
      </trkpt>
      <trkpt lat="46.88739" lon="16.00708">
        <ele>375.901699</ele>
        <time>2026-07-09T08:27:38.000Z</time>
      </trkpt>
      <trkpt lat="46.88741" lon="16.00692">
        <ele>376.090436</ele>
        <time>2026-07-09T08:27:39.000Z</time>
      </trkpt>
      <trkpt lat="46.88741" lon="16.00678">
        <ele>375.716743</ele>
        <time>2026-07-09T08:27:40.000Z</time>
      </trkpt>
      <trkpt lat="46.88739" lon="16.0064">
        <ele>374.685167</ele>
        <time>2026-07-09T08:27:43.000Z</time>
      </trkpt>
      <trkpt lat="46.88739" lon="16.00617">
        <ele>374.071043</ele>
        <time>2026-07-09T08:27:45.000Z</time>
      </trkpt>
      <trkpt lat="46.88743" lon="16.00597">
        <ele>373.521362</ele>
        <time>2026-07-09T08:27:47.000Z</time>
      </trkpt>
      <trkpt lat="46.88749" lon="16.00575">
        <ele>372.889717</ele>
        <time>2026-07-09T08:27:50.000Z</time>
      </trkpt>
      <trkpt lat="46.88751" lon="16.00569">
        <ele>372.700875</ele>
        <time>2026-07-09T08:27:51.000Z</time>
      </trkpt>
      <trkpt lat="46.88756" lon="16.0055">
        <ele>372.17169</ele>
        <time>2026-07-09T08:27:54.000Z</time>
      </trkpt>
      <trkpt lat="46.88757" lon="16.00537">
        <ele>371.836834</ele>
        <time>2026-07-09T08:27:56.000Z</time>
      </trkpt>
      <trkpt lat="46.88756" lon="16.00515">
        <ele>371.227448</ele>
        <time>2026-07-09T08:28:01.000Z</time>
      </trkpt>
      <trkpt lat="46.88754" lon="16.00494">
        <ele>370.654453</ele>
        <time>2026-07-09T08:28:07.000Z</time>
      </trkpt>
      <trkpt lat="46.88746" lon="16.00474">
        <ele>370.05332</ele>
        <time>2026-07-09T08:28:12.000Z</time>
      </trkpt>
      <trkpt lat="46.88737" lon="16.00451">
        <ele>369.348831</ele>
        <time>2026-07-09T08:28:19.000Z</time>
      </trkpt>
      <trkpt lat="46.88729" lon="16.00428">
        <ele>368.920272</ele>
        <time>2026-07-09T08:28:25.000Z</time>
      </trkpt>
      <trkpt lat="46.88715" lon="16.00404">
        <ele>368.56084</ele>
        <time>2026-07-09T08:28:32.000Z</time>
      </trkpt>
      <trkpt lat="46.88696" lon="16.00376">
        <ele>368.099384</ele>
        <time>2026-07-09T08:28:39.000Z</time>
      </trkpt>
      <trkpt lat="46.88692" lon="16.00371">
        <ele>368.009622</ele>
        <time>2026-07-09T08:28:40.000Z</time>
      </trkpt>
      <trkpt lat="46.88683" lon="16.00359">
        <ele>367.797008</ele>
        <time>2026-07-09T08:28:42.000Z</time>
      </trkpt>
      <trkpt lat="46.8868" lon="16.00351">
        <ele>367.687015</ele>
        <time>2026-07-09T08:28:43.000Z</time>
      </trkpt>
      <trkpt lat="46.88672" lon="16.00336">
        <ele>367.471714</ele>
        <time>2026-07-09T08:28:45.000Z</time>
      </trkpt>
      <trkpt lat="46.88657" lon="16.003">
        <ele>366.973349</ele>
        <time>2026-07-09T08:28:50.000Z</time>
      </trkpt>
      <trkpt lat="46.88653" lon="16.00287">
        <ele>366.804465</ele>
        <time>2026-07-09T08:28:52.000Z</time>
      </trkpt>
      <trkpt lat="46.88643" lon="16.0027">
        <ele>366.551021</ele>
        <time>2026-07-09T08:28:55.000Z</time>
      </trkpt>
      <trkpt lat="46.88633" lon="16.00246">
        <ele>366.216233</ele>
        <time>2026-07-09T08:29:00.000Z</time>
      </trkpt>
      <trkpt lat="46.88625" lon="16.00234">
        <ele>366.126941</ele>
        <time>2026-07-09T08:29:03.000Z</time>
      </trkpt>
      <trkpt lat="46.88618" lon="16.00211">
        <ele>367.067168</ele>
        <time>2026-07-09T08:29:09.000Z</time>
      </trkpt>
      <trkpt lat="46.88612" lon="16.00193">
        <ele>367.793661</ele>
        <time>2026-07-09T08:29:14.000Z</time>
      </trkpt>
      <trkpt lat="46.88611" lon="16.00185">
        <ele>368.070127</ele>
        <time>2026-07-09T08:29:16.000Z</time>
      </trkpt>
      <trkpt lat="46.88606" lon="16.00157">
        <ele>369.122549</ele>
        <time>2026-07-09T08:29:24.000Z</time>
      </trkpt>
      <trkpt lat="46.88606" lon="16.00154">
        <ele>369.232199</ele>
        <time>2026-07-09T08:29:25.000Z</time>
      </trkpt>
      <trkpt lat="46.88604" lon="16.00144">
        <ele>369.617604</ele>
        <time>2026-07-09T08:29:29.000Z</time>
      </trkpt>
      <trkpt lat="46.88603" lon="16.00139">
        <ele>369.816325</ele>
        <time>2026-07-09T08:29:31.000Z</time>
      </trkpt>
      <trkpt lat="46.88601" lon="16.00124">
        <ele>370.382214</ele>
        <time>2026-07-09T08:29:37.000Z</time>
      </trkpt>
      <trkpt lat="46.886" lon="16.00121">
        <ele>370.487849</ele>
        <time>2026-07-09T08:29:38.000Z</time>
      </trkpt>
      <trkpt lat="46.88601" lon="16.00108">
        <ele>370.991899</ele>
        <time>2026-07-09T08:29:43.000Z</time>
      </trkpt>
      <trkpt lat="46.886" lon="16.00099">
        <ele>371.309518</ele>
        <time>2026-07-09T08:29:46.000Z</time>
      </trkpt>
      <trkpt lat="46.88599" lon="16.00094">
        <ele>371.500029</ele>
        <time>2026-07-09T08:29:48.000Z</time>
      </trkpt>
      <trkpt lat="46.88598" lon="16.00079">
        <ele>372.029622</ele>
        <time>2026-07-09T08:29:54.000Z</time>
      </trkpt>
      <trkpt lat="46.88597" lon="16.00076">
        <ele>372.171849</ele>
        <time>2026-07-09T08:29:55.000Z</time>
      </trkpt>
      <trkpt lat="46.88593" lon="16.00056">
        <ele>372.924107</ele>
        <time>2026-07-09T08:30:02.000Z</time>
      </trkpt>
      <trkpt lat="46.8859" lon="16.00039">
        <ele>373.584089</ele>
        <time>2026-07-09T08:30:08.000Z</time>
      </trkpt>
      <trkpt lat="46.88589" lon="16.00036">
        <ele>373.692094</ele>
        <time>2026-07-09T08:30:09.000Z</time>
      </trkpt>
      <trkpt lat="46.88583" lon="16.00005">
        <ele>374.858183</ele>
        <time>2026-07-09T08:30:19.000Z</time>
      </trkpt>
      <trkpt lat="46.88582" lon="16.00003">
        <ele>374.944657</ele>
        <time>2026-07-09T08:30:20.000Z</time>
      </trkpt>
      <trkpt lat="46.88581" lon="16.00001">
        <ele>375.05008</ele>
        <time>2026-07-09T08:30:21.000Z</time>
      </trkpt>
      <trkpt lat="46.88578" lon="15.99981">
        <ele>375.668663</ele>
        <time>2026-07-09T08:30:28.000Z</time>
      </trkpt>
      <trkpt lat="46.88576" lon="15.99977">
        <ele>375.683849</ele>
        <time>2026-07-09T08:30:30.000Z</time>
      </trkpt>
      <trkpt lat="46.88573" lon="15.99962">
        <ele>375.728844</ele>
        <time>2026-07-09T08:30:36.000Z</time>
      </trkpt>
      <trkpt lat="46.8857" lon="15.99953">
        <ele>375.761152</ele>
        <time>2026-07-09T08:30:40.000Z</time>
      </trkpt>
      <trkpt lat="46.88565" lon="15.99932">
        <ele>375.82687</ele>
        <time>2026-07-09T08:30:48.000Z</time>
      </trkpt>
      <trkpt lat="46.88553" lon="15.99916">
        <ele>375.896465</ele>
        <time>2026-07-09T08:30:53.000Z</time>
      </trkpt>
      <trkpt lat="46.88529" lon="15.99901">
        <ele>376.011879</ele>
        <time>2026-07-09T08:30:58.000Z</time>
      </trkpt>
      <trkpt lat="46.88489" lon="15.99877">
        <ele>376.201615</ele>
        <time>2026-07-09T08:31:03.000Z</time>
      </trkpt>
      <trkpt lat="46.88472" lon="15.99867">
        <ele>376.28036</ele>
        <time>2026-07-09T08:31:05.000Z</time>
      </trkpt>
      <trkpt lat="46.88448" lon="15.99852">
        <ele>376.395418</ele>
        <time>2026-07-09T08:31:08.000Z</time>
      </trkpt>
      <trkpt lat="46.88432" lon="15.99844">
        <ele>376.274106</ele>
        <time>2026-07-09T08:31:10.000Z</time>
      </trkpt>
      <trkpt lat="46.8839" lon="15.99826">
        <ele>374.948189</ele>
        <time>2026-07-09T08:31:15.000Z</time>
      </trkpt>
      <trkpt lat="46.88374" lon="15.99823">
        <ele>374.440381</ele>
        <time>2026-07-09T08:31:17.000Z</time>
      </trkpt>
      <trkpt lat="46.88323" lon="15.99813">
        <ele>372.865122</ele>
        <time>2026-07-09T08:31:24.000Z</time>
      </trkpt>
      <trkpt lat="46.88284" lon="15.99795">
        <ele>371.608176</ele>
        <time>2026-07-09T08:31:30.000Z</time>
      </trkpt>
      <trkpt lat="46.88264" lon="15.99782">
        <ele>370.924687</ele>
        <time>2026-07-09T08:31:35.000Z</time>
      </trkpt>
      <trkpt lat="46.88244" lon="15.9977">
        <ele>370.866711</ele>
        <time>2026-07-09T08:31:41.000Z</time>
      </trkpt>
      <trkpt lat="46.88214" lon="15.9975">
        <ele>370.806799</ele>
        <time>2026-07-09T08:31:49.000Z</time>
      </trkpt>
      <trkpt lat="46.8821" lon="15.99747">
        <ele>370.799006</ele>
        <time>2026-07-09T08:31:50.000Z</time>
      </trkpt>
      <trkpt lat="46.88193" lon="15.99735">
        <ele>370.765779</ele>
        <time>2026-07-09T08:31:54.000Z</time>
      </trkpt>
      <trkpt lat="46.88168" lon="15.99716">
        <ele>370.714331</ele>
        <time>2026-07-09T08:32:02.000Z</time>
      </trkpt>
      <trkpt lat="46.88156" lon="15.99706">
        <ele>370.690177</ele>
        <time>2026-07-09T08:32:06.000Z</time>
      </trkpt>
      <trkpt lat="46.88139" lon="15.99694">
        <ele>370.656784</ele>
        <time>2026-07-09T08:32:12.000Z</time>
      </trkpt>
      <trkpt lat="46.88113" lon="15.99675">
        <ele>370.603215</ele>
        <time>2026-07-09T08:32:19.000Z</time>
      </trkpt>
      <trkpt lat="46.88078" lon="15.9965">
        <ele>369.354369</ele>
        <time>2026-07-09T08:32:25.000Z</time>
      </trkpt>
      <trkpt lat="46.88043" lon="15.99622">
        <ele>367.561618</ele>
        <time>2026-07-09T08:32:30.000Z</time>
      </trkpt>
      <trkpt lat="46.88019" lon="15.99584">
        <ele>365.942655</ele>
        <time>2026-07-09T08:32:34.000Z</time>
      </trkpt>
      <trkpt lat="46.8799" lon="15.99524">
        <ele>363.634938</ele>
        <time>2026-07-09T08:32:39.000Z</time>
      </trkpt>
      <trkpt lat="46.87956" lon="15.99475">
        <ele>361.516654</ele>
        <time>2026-07-09T08:32:44.000Z</time>
      </trkpt>
      <trkpt lat="46.87923" lon="15.99439">
        <ele>359.723622</ele>
        <time>2026-07-09T08:32:48.000Z</time>
      </trkpt>
      <trkpt lat="46.87902" lon="15.99409">
        <ele>358.423963</ele>
        <time>2026-07-09T08:32:51.000Z</time>
      </trkpt>
      <trkpt lat="46.87871" lon="15.99346">
        <ele>356.10365</ele>
        <time>2026-07-09T08:32:56.000Z</time>
      </trkpt>
      <trkpt lat="46.8785" lon="15.99273">
        <ele>353.989668</ele>
        <time>2026-07-09T08:33:01.000Z</time>
      </trkpt>
      <trkpt lat="46.87835" lon="15.99207">
        <ele>352.661775</ele>
        <time>2026-07-09T08:33:06.000Z</time>
      </trkpt>
      <trkpt lat="46.87824" lon="15.99155">
        <ele>351.617772</ele>
        <time>2026-07-09T08:33:11.000Z</time>
      </trkpt>
      <trkpt lat="46.87814" lon="15.99107">
        <ele>350.650435</ele>
        <time>2026-07-09T08:33:17.000Z</time>
      </trkpt>
      <trkpt lat="46.87803" lon="15.9907">
        <ele>349.878175</ele>
        <time>2026-07-09T08:33:23.000Z</time>
      </trkpt>
      <trkpt lat="46.87799" lon="15.9906">
        <ele>349.65014</ele>
        <time>2026-07-09T08:33:25.000Z</time>
      </trkpt>
      <trkpt lat="46.87792" lon="15.99049">
        <ele>349.303034</ele>
        <time>2026-07-09T08:33:27.000Z</time>
      </trkpt>
      <trkpt lat="46.87788" lon="15.99044">
        <ele>348.997948</ele>
        <time>2026-07-09T08:33:28.000Z</time>
      </trkpt>
      <trkpt lat="46.87783" lon="15.99039">
        <ele>348.67128</ele>
        <time>2026-07-09T08:33:29.000Z</time>
      </trkpt>
      <trkpt lat="46.87763" lon="15.99027">
        <ele>347.541356</ele>
        <time>2026-07-09T08:33:32.000Z</time>
      </trkpt>
      <trkpt lat="46.87716" lon="15.9901">
        <ele>344.906167</ele>
        <time>2026-07-09T08:33:39.000Z</time>
      </trkpt>
      <trkpt lat="46.87676" lon="15.98994">
        <ele>342.653429</ele>
        <time>2026-07-09T08:33:44.000Z</time>
      </trkpt>
      <trkpt lat="46.8764" lon="15.98975">
        <ele>340.587931</ele>
        <time>2026-07-09T08:33:49.000Z</time>
      </trkpt>
      <trkpt lat="46.8763" lon="15.98977">
        <ele>340.062631</ele>
        <time>2026-07-09T08:33:51.000Z</time>
      </trkpt>
      <trkpt lat="46.87627" lon="15.98983">
        <ele>339.766164</ele>
        <time>2026-07-09T08:33:52.000Z</time>
      </trkpt>
      <trkpt lat="46.87624" lon="15.99001">
        <ele>338.629885</ele>
        <time>2026-07-09T08:33:54.000Z</time>
      </trkpt>
      <trkpt lat="46.87625" lon="15.99012">
        <ele>337.998476</ele>
        <time>2026-07-09T08:33:55.000Z</time>
      </trkpt>
      <trkpt lat="46.87634" lon="15.99073">
        <ele>334.089601</ele>
        <time>2026-07-09T08:34:01.000Z</time>
      </trkpt>
      <trkpt lat="46.87639" lon="15.99096">
        <ele>332.573433</ele>
        <time>2026-07-09T08:34:04.000Z</time>
      </trkpt>
      <trkpt lat="46.87638" lon="15.99104">
        <ele>332.060931</ele>
        <time>2026-07-09T08:34:05.000Z</time>
      </trkpt>
      <trkpt lat="46.87637" lon="15.99117">
        <ele>331.248824</ele>
        <time>2026-07-09T08:34:07.000Z</time>
      </trkpt>
      <trkpt lat="46.8763" lon="15.99142">
        <ele>329.600767</ele>
        <time>2026-07-09T08:34:10.000Z</time>
      </trkpt>
      <trkpt lat="46.87611" lon="15.99189">
        <ele>326.152761</ele>
        <time>2026-07-09T08:34:15.000Z</time>
      </trkpt>
      <trkpt lat="46.87587" lon="15.99245">
        <ele>321.23042</ele>
        <time>2026-07-09T08:34:20.000Z</time>
      </trkpt>
      <trkpt lat="46.87551" lon="15.99334">
        <ele>310.693189</ele>
        <time>2026-07-09T08:34:26.000Z</time>
      </trkpt>
      <trkpt lat="46.87547" lon="15.99344">
        <ele>309.4943</ele>
        <time>2026-07-09T08:34:28.000Z</time>
      </trkpt>
      <trkpt lat="46.87518" lon="15.99416">
        <ele>300.985258</ele>
        <time>2026-07-09T08:34:34.000Z</time>
      </trkpt>
      <trkpt lat="46.87513" lon="15.99426">
        <ele>299.764468</ele>
        <time>2026-07-09T08:34:35.000Z</time>
      </trkpt>
      <trkpt lat="46.87507" lon="15.99434">
        <ele>298.619707</ele>
        <time>2026-07-09T08:34:36.000Z</time>
      </trkpt>
      <trkpt lat="46.87495" lon="15.99447">
        <ele>296.413035</ele>
        <time>2026-07-09T08:34:38.000Z</time>
      </trkpt>
      <trkpt lat="46.8748" lon="15.99457">
        <ele>295.218919</ele>
        <time>2026-07-09T08:34:40.000Z</time>
      </trkpt>
      <trkpt lat="46.87464" lon="15.99464">
        <ele>294.041158</ele>
        <time>2026-07-09T08:34:42.000Z</time>
      </trkpt>
      <trkpt lat="46.87406" lon="15.99489">
        <ele>289.659647</ele>
        <time>2026-07-09T08:34:50.000Z</time>
      </trkpt>
      <trkpt lat="46.874" lon="15.99493">
        <ele>289.131613</ele>
        <time>2026-07-09T08:34:51.000Z</time>
      </trkpt>
      <trkpt lat="46.87361" lon="15.99523">
        <ele>285.947838</ele>
        <time>2026-07-09T08:34:57.000Z</time>
      </trkpt>
      <trkpt lat="46.87309" lon="15.99562">
        <ele>282.843677</ele>
        <time>2026-07-09T08:35:05.000Z</time>
      </trkpt>
      <trkpt lat="46.87275" lon="15.99587">
        <ele>281.848285</ele>
        <time>2026-07-09T08:35:11.000Z</time>
      </trkpt>
      <trkpt lat="46.87236" lon="15.99616">
        <ele>280.706561</ele>
        <time>2026-07-09T08:35:18.000Z</time>
      </trkpt>
      <trkpt lat="46.87205" lon="15.99639">
        <ele>279.801628</ele>
        <time>2026-07-09T08:35:23.000Z</time>
      </trkpt>
      <trkpt lat="46.87189" lon="15.99651">
        <ele>279.328751</ele>
        <time>2026-07-09T08:35:26.000Z</time>
      </trkpt>
      <trkpt lat="46.87183" lon="15.99655">
        <ele>279.155654</ele>
        <time>2026-07-09T08:35:27.000Z</time>
      </trkpt>
      <trkpt lat="46.87166" lon="15.99669">
        <ele>278.678513</ele>
        <time>2026-07-09T08:35:30.000Z</time>
      </trkpt>
      <trkpt lat="46.87131" lon="15.997">
        <ele>278.014987</ele>
        <time>2026-07-09T08:35:36.000Z</time>
      </trkpt>
      <trkpt lat="46.87125" lon="15.99706">
        <ele>277.902782</ele>
        <time>2026-07-09T08:35:37.000Z</time>
      </trkpt>
      <trkpt lat="46.87076" lon="15.9975">
        <ele>276.971408</ele>
        <time>2026-07-09T08:35:45.000Z</time>
      </trkpt>
      <trkpt lat="46.8707" lon="15.99754">
        <ele>276.863396</ele>
        <time>2026-07-09T08:35:46.000Z</time>
      </trkpt>
      <trkpt lat="46.87052" lon="15.99765">
        <ele>276.551555</ele>
        <time>2026-07-09T08:35:49.000Z</time>
      </trkpt>
      <trkpt lat="46.8704" lon="15.99768">
        <ele>276.339342</ele>
        <time>2026-07-09T08:35:51.000Z</time>
      </trkpt>
      <trkpt lat="46.87033" lon="15.99768">
        <ele>276.232152</ele>
        <time>2026-07-09T08:35:52.000Z</time>
      </trkpt>
      <trkpt lat="46.87008" lon="15.99763">
        <ele>275.85014</ele>
        <time>2026-07-09T08:35:56.000Z</time>
      </trkpt>
      <trkpt lat="46.86974" lon="15.99757">
        <ele>276.053326</ele>
        <time>2026-07-09T08:36:02.000Z</time>
      </trkpt>
      <trkpt lat="46.86958" lon="15.99756">
        <ele>276.150806</ele>
        <time>2026-07-09T08:36:05.000Z</time>
      </trkpt>
      <trkpt lat="46.86943" lon="15.99759">
        <ele>276.238958</ele>
        <time>2026-07-09T08:36:08.000Z</time>
      </trkpt>
      <trkpt lat="46.86923" lon="15.99763">
        <ele>276.359709</ele>
        <time>2026-07-09T08:36:13.000Z</time>
      </trkpt>
      <trkpt lat="46.86898" lon="15.99766">
        <ele>276.512668</ele>
        <time>2026-07-09T08:36:18.000Z</time>
      </trkpt>
      <trkpt lat="46.86887" lon="15.99764">
        <ele>276.579165</ele>
        <time>2026-07-09T08:36:20.000Z</time>
      </trkpt>
      <trkpt lat="46.86854" lon="15.9975">
        <ele>276.782895</ele>
        <time>2026-07-09T08:36:26.000Z</time>
      </trkpt>
      <trkpt lat="46.86844" lon="15.99743">
        <ele>276.848104</ele>
        <time>2026-07-09T08:36:28.000Z</time>
      </trkpt>
      <trkpt lat="46.86824" lon="15.99732">
        <ele>277.290108</ele>
        <time>2026-07-09T08:36:32.000Z</time>
      </trkpt>
      <trkpt lat="46.86819" lon="15.9973">
        <ele>277.45465</ele>
        <time>2026-07-09T08:36:33.000Z</time>
      </trkpt>
      <trkpt lat="46.868" lon="15.99721">
        <ele>278.198018</ele>
        <time>2026-07-09T08:36:37.000Z</time>
      </trkpt>
      <trkpt lat="46.86788" lon="15.9971">
        <ele>278.704991</ele>
        <time>2026-07-09T08:36:40.000Z</time>
      </trkpt>
      <trkpt lat="46.86776" lon="15.99695">
        <ele>279.252311</ele>
        <time>2026-07-09T08:36:43.000Z</time>
      </trkpt>
      <trkpt lat="46.8677" lon="15.99683">
        <ele>279.626676</ele>
        <time>2026-07-09T08:36:45.000Z</time>
      </trkpt>
      <trkpt lat="46.86747" lon="15.99649">
        <ele>280.789993</ele>
        <time>2026-07-09T08:36:52.000Z</time>
      </trkpt>
      <trkpt lat="46.86727" lon="15.99622">
        <ele>281.764716</ele>
        <time>2026-07-09T08:36:58.000Z</time>
      </trkpt>
      <trkpt lat="46.86721" lon="15.99615">
        <ele>282.069966</ele>
        <time>2026-07-09T08:37:00.000Z</time>
      </trkpt>
      <trkpt lat="46.8671" lon="15.99601">
        <ele>282.576207</ele>
        <time>2026-07-09T08:37:03.000Z</time>
      </trkpt>
      <trkpt lat="46.86707" lon="15.99598">
        <ele>282.721075</ele>
        <time>2026-07-09T08:37:04.000Z</time>
      </trkpt>
      <trkpt lat="46.8668" lon="15.99572">
        <ele>282.603383</ele>
        <time>2026-07-09T08:37:10.000Z</time>
      </trkpt>
      <trkpt lat="46.86649" lon="15.99538">
        <ele>280.306389</ele>
        <time>2026-07-09T08:37:17.000Z</time>
      </trkpt>
      <trkpt lat="46.86611" lon="15.99517">
        <ele>277.875799</ele>
        <time>2026-07-09T08:37:24.000Z</time>
      </trkpt>
      <trkpt lat="46.86572" lon="15.99503">
        <ele>275.50815</ele>
        <time>2026-07-09T08:37:32.000Z</time>
      </trkpt>
      <trkpt lat="46.86536" lon="15.99496">
        <ele>273.38623</ele>
        <time>2026-07-09T08:37:39.000Z</time>
      </trkpt>
      <trkpt lat="46.86509" lon="15.99491">
        <ele>272.454924</ele>
        <time>2026-07-09T08:37:44.000Z</time>
      </trkpt>
      <trkpt lat="46.86498" lon="15.99489">
        <ele>272.269757</ele>
        <time>2026-07-09T08:37:46.000Z</time>
      </trkpt>
      <trkpt lat="46.86493" lon="15.99487">
        <ele>272.176156</ele>
        <time>2026-07-09T08:37:47.000Z</time>
      </trkpt>
      <trkpt lat="46.86451" lon="15.9947">
        <ele>271.439575</ele>
        <time>2026-07-09T08:37:55.000Z</time>
      </trkpt>
      <trkpt lat="46.86418" lon="15.99451">
        <ele>270.830794</ele>
        <time>2026-07-09T08:38:02.000Z</time>
      </trkpt>
      <trkpt lat="46.86414" lon="15.99449">
        <ele>270.748214</ele>
        <time>2026-07-09T08:38:03.000Z</time>
      </trkpt>
      <trkpt lat="46.86401" lon="15.99444">
        <ele>270.52428</ele>
        <time>2026-07-09T08:38:06.000Z</time>
      </trkpt>
      <trkpt lat="46.86393" lon="15.9944">
        <ele>270.380589</ele>
        <time>2026-07-09T08:38:08.000Z</time>
      </trkpt>
      <trkpt lat="46.86363" lon="15.99429">
        <ele>269.845832</ele>
        <time>2026-07-09T08:38:15.000Z</time>
      </trkpt>
      <trkpt lat="46.86322" lon="15.99428">
        <ele>269.358442</ele>
        <time>2026-07-09T08:38:24.000Z</time>
      </trkpt>
      <trkpt lat="46.86294" lon="15.99434">
        <ele>269.082063</ele>
        <time>2026-07-09T08:38:30.000Z</time>
      </trkpt>
      <trkpt lat="46.86256" lon="15.99436">
        <ele>268.707866</ele>
        <time>2026-07-09T08:38:38.000Z</time>
      </trkpt>
      <trkpt lat="46.86247" lon="15.99432">
        <ele>268.617302</ele>
        <time>2026-07-09T08:38:40.000Z</time>
      </trkpt>
      <trkpt lat="46.86234" lon="15.9942">
        <ele>268.46739</ele>
        <time>2026-07-09T08:38:43.000Z</time>
      </trkpt>
      <trkpt lat="46.86204" lon="15.99381">
        <ele>268.066849</ele>
        <time>2026-07-09T08:38:51.000Z</time>
      </trkpt>
      <trkpt lat="46.86171" lon="15.99336">
        <ele>267.649907</ele>
        <time>2026-07-09T08:39:00.000Z</time>
      </trkpt>
      <trkpt lat="46.86149" lon="15.99305">
        <ele>267.376761</ele>
        <time>2026-07-09T08:39:06.000Z</time>
      </trkpt>
      <trkpt lat="46.86142" lon="15.99295">
        <ele>267.291914</ele>
        <time>2026-07-09T08:39:08.000Z</time>
      </trkpt>
      <trkpt lat="46.86119" lon="15.9926">
        <ele>266.993676</ele>
        <time>2026-07-09T08:39:15.000Z</time>
      </trkpt>
      <trkpt lat="46.86099" lon="15.99227">
        <ele>266.733469</ele>
        <time>2026-07-09T08:39:21.000Z</time>
      </trkpt>
      <trkpt lat="46.86091" lon="15.99212">
        <ele>266.613971</ele>
        <time>2026-07-09T08:39:24.000Z</time>
      </trkpt>
      <trkpt lat="46.86085" lon="15.99199">
        <ele>266.519687</ele>
        <time>2026-07-09T08:39:26.000Z</time>
      </trkpt>
      <trkpt lat="46.86075" lon="15.99183">
        <ele>266.393726</ele>
        <time>2026-07-09T08:39:29.000Z</time>
      </trkpt>
      <trkpt lat="46.86061" lon="15.99153">
        <ele>266.158413</ele>
        <time>2026-07-09T08:39:34.000Z</time>
      </trkpt>
      <trkpt lat="46.86039" lon="15.99099">
        <ele>265.729062</ele>
        <time>2026-07-09T08:39:43.000Z</time>
      </trkpt>
      <trkpt lat="46.86026" lon="15.99046">
        <ele>265.344607</ele>
        <time>2026-07-09T08:39:52.000Z</time>
      </trkpt>
      <trkpt lat="46.86025" lon="15.99041">
        <ele>265.314149</ele>
        <time>2026-07-09T08:39:53.000Z</time>
      </trkpt>
      <trkpt lat="46.8602" lon="15.99032">
        <ele>265.230804</ele>
        <time>2026-07-09T08:39:55.000Z</time>
      </trkpt>
      <trkpt lat="46.86012" lon="15.99031">
        <ele>265.153924</ele>
        <time>2026-07-09T08:39:57.000Z</time>
      </trkpt>
      <trkpt lat="46.86006" lon="15.99032">
        <ele>265.093115</ele>
        <time>2026-07-09T08:39:58.000Z</time>
      </trkpt>
      <trkpt lat="46.85972" lon="15.99045">
        <ele>264.744888</ele>
        <time>2026-07-09T08:40:05.000Z</time>
      </trkpt>
      <trkpt lat="46.85967" lon="15.99048">
        <ele>264.68285</ele>
        <time>2026-07-09T08:40:06.000Z</time>
      </trkpt>
      <trkpt lat="46.85953" lon="15.99055">
        <ele>264.541419</ele>
        <time>2026-07-09T08:40:09.000Z</time>
      </trkpt>
      <trkpt lat="46.85917" lon="15.99066">
        <ele>264.072181</ele>
        <time>2026-07-09T08:40:17.000Z</time>
      </trkpt>
      <trkpt lat="46.85874" lon="15.99079">
        <ele>263.514559</ele>
        <time>2026-07-09T08:40:27.000Z</time>
      </trkpt>
      <trkpt lat="46.85869" lon="15.99081">
        <ele>263.446693</ele>
        <time>2026-07-09T08:40:28.000Z</time>
      </trkpt>
      <trkpt lat="46.85857" lon="15.99088">
        <ele>263.2844</ele>
        <time>2026-07-09T08:40:31.000Z</time>
      </trkpt>
      <trkpt lat="46.85835" lon="15.99107">
        <ele>262.949798</ele>
        <time>2026-07-09T08:40:37.000Z</time>
      </trkpt>
      <trkpt lat="46.85821" lon="15.99123">
        <ele>262.719241</ele>
        <time>2026-07-09T08:40:41.000Z</time>
      </trkpt>
      <trkpt lat="46.85796" lon="15.9915">
        <ele>262.321034</ele>
        <time>2026-07-09T08:40:48.000Z</time>
      </trkpt>
      <trkpt lat="46.85779" lon="15.99159">
        <ele>262.359138</ele>
        <time>2026-07-09T08:40:52.000Z</time>
      </trkpt>
      <trkpt lat="46.8577" lon="15.99162">
        <ele>262.534552</ele>
        <time>2026-07-09T08:40:54.000Z</time>
      </trkpt>
      <trkpt lat="46.85734" lon="15.99169">
        <ele>263.275632</ele>
        <time>2026-07-09T08:41:02.000Z</time>
      </trkpt>
      <trkpt lat="46.85731" lon="15.99169">
        <ele>263.345327</ele>
        <time>2026-07-09T08:41:03.000Z</time>
      </trkpt>
      <trkpt lat="46.85702" lon="15.99174">
        <ele>263.940579</ele>
        <time>2026-07-09T08:41:10.000Z</time>
      </trkpt>
      <trkpt lat="46.85691" lon="15.99176">
        <ele>264.170543</ele>
        <time>2026-07-09T08:41:13.000Z</time>
      </trkpt>
      <trkpt lat="46.85686" lon="15.99178">
        <ele>264.265337</ele>
        <time>2026-07-09T08:41:14.000Z</time>
      </trkpt>
      <trkpt lat="46.85683" lon="15.9918">
        <ele>264.342497</ele>
        <time>2026-07-09T08:41:15.000Z</time>
      </trkpt>
      <trkpt lat="46.85675" lon="15.99186">
        <ele>264.507026</ele>
        <time>2026-07-09T08:41:17.000Z</time>
      </trkpt>
      <trkpt lat="46.85669" lon="15.99191">
        <ele>264.66306</ele>
        <time>2026-07-09T08:41:19.000Z</time>
      </trkpt>
      <trkpt lat="46.85651" lon="15.99216">
        <ele>265.168946</ele>
        <time>2026-07-09T08:41:25.000Z</time>
      </trkpt>
      <trkpt lat="46.85648" lon="15.99221">
        <ele>265.258006</ele>
        <time>2026-07-09T08:41:26.000Z</time>
      </trkpt>
      <trkpt lat="46.85634" lon="15.99245">
        <ele>265.700367</ele>
        <time>2026-07-09T08:41:31.000Z</time>
      </trkpt>
      <trkpt lat="46.85615" lon="15.99268">
        <ele>265.782545</ele>
        <time>2026-07-09T08:41:37.000Z</time>
      </trkpt>
      <trkpt lat="46.85574" lon="15.99306">
        <ele>265.563795</ele>
        <time>2026-07-09T08:41:48.000Z</time>
      </trkpt>
      <trkpt lat="46.85547" lon="15.99333">
        <ele>265.419556</ele>
        <time>2026-07-09T08:41:55.000Z</time>
      </trkpt>
      <trkpt lat="46.85534" lon="15.99344">
        <ele>265.353364</ele>
        <time>2026-07-09T08:41:58.000Z</time>
      </trkpt>
      <trkpt lat="46.85493" lon="15.99381">
        <ele>265.138974</ele>
        <time>2026-07-09T08:42:08.000Z</time>
      </trkpt>
      <trkpt lat="46.85478" lon="15.99396">
        <ele>265.055851</ele>
        <time>2026-07-09T08:42:12.000Z</time>
      </trkpt>
      <trkpt lat="46.85455" lon="15.9942">
        <ele>265.466691</ele>
        <time>2026-07-09T08:42:18.000Z</time>
      </trkpt>
      <trkpt lat="46.85415" lon="15.99462">
        <ele>266.18447</ele>
        <time>2026-07-09T08:42:29.000Z</time>
      </trkpt>
      <trkpt lat="46.85407" lon="15.99467">
        <ele>266.30446</ele>
        <time>2026-07-09T08:42:31.000Z</time>
      </trkpt>
      <trkpt lat="46.854" lon="15.99471">
        <ele>266.424195</ele>
        <time>2026-07-09T08:42:33.000Z</time>
      </trkpt>
      <trkpt lat="46.85392" lon="15.99475">
        <ele>266.547607</ele>
        <time>2026-07-09T08:42:35.000Z</time>
      </trkpt>
      <trkpt lat="46.85384" lon="15.99476">
        <ele>266.654172</ele>
        <time>2026-07-09T08:42:37.000Z</time>
      </trkpt>
      <trkpt lat="46.85377" lon="15.99478">
        <ele>266.769123</ele>
        <time>2026-07-09T08:42:39.000Z</time>
      </trkpt>
      <trkpt lat="46.85348" lon="15.99479">
        <ele>267.193121</ele>
        <time>2026-07-09T08:42:46.000Z</time>
      </trkpt>
      <trkpt lat="46.85314" lon="15.99486">
        <ele>267.682819</ele>
        <time>2026-07-09T08:42:54.000Z</time>
      </trkpt>
      <trkpt lat="46.85269" lon="15.99504">
        <ele>267.035649</ele>
        <time>2026-07-09T08:43:05.000Z</time>
      </trkpt>
      <trkpt lat="46.85226" lon="15.99527">
        <ele>266.409637</ele>
        <time>2026-07-09T08:43:14.000Z</time>
      </trkpt>
      <trkpt lat="46.85187" lon="15.99554">
        <ele>265.81715</ele>
        <time>2026-07-09T08:43:21.000Z</time>
      </trkpt>
      <trkpt lat="46.85148" lon="15.9959">
        <ele>265.188229</ele>
        <time>2026-07-09T08:43:28.000Z</time>
      </trkpt>
      <trkpt lat="46.85142" lon="15.99596">
        <ele>265.083271</ele>
        <time>2026-07-09T08:43:29.000Z</time>
      </trkpt>
      <trkpt lat="46.85103" lon="15.99653">
        <ele>264.24384</ele>
        <time>2026-07-09T08:43:37.000Z</time>
      </trkpt>
      <trkpt lat="46.8508" lon="15.99692">
        <ele>263.725299</ele>
        <time>2026-07-09T08:43:42.000Z</time>
      </trkpt>
      <trkpt lat="46.8506" lon="15.99723">
        <ele>263.286417</ele>
        <time>2026-07-09T08:43:47.000Z</time>
      </trkpt>
      <trkpt lat="46.85039" lon="15.99753">
        <ele>262.845365</ele>
        <time>2026-07-09T08:43:52.000Z</time>
      </trkpt>
      <trkpt lat="46.85027" lon="15.9977">
        <ele>262.592924</ele>
        <time>2026-07-09T08:43:55.000Z</time>
      </trkpt>
      <trkpt lat="46.84992" lon="15.9982">
        <ele>261.861973</ele>
        <time>2026-07-09T08:44:04.000Z</time>
      </trkpt>
      <trkpt lat="46.84989" lon="15.99824">
        <ele>261.798985</ele>
        <time>2026-07-09T08:44:05.000Z</time>
      </trkpt>
      <trkpt lat="46.84984" lon="15.9983">
        <ele>261.708617</ele>
        <time>2026-07-09T08:44:06.000Z</time>
      </trkpt>
      <trkpt lat="46.84969" lon="15.99859">
        <ele>261.334372</ele>
        <time>2026-07-09T08:44:11.000Z</time>
      </trkpt>
      <trkpt lat="46.84953" lon="15.99912">
        <ele>260.747849</ele>
        <time>2026-07-09T08:44:18.000Z</time>
      </trkpt>
      <trkpt lat="46.84948" lon="15.99944">
        <ele>260.408295</ele>
        <time>2026-07-09T08:44:22.000Z</time>
      </trkpt>
      <trkpt lat="46.84945" lon="15.99965">
        <ele>260.191917</ele>
        <time>2026-07-09T08:44:25.000Z</time>
      </trkpt>
      <trkpt lat="46.84935" lon="16.00032">
        <ele>259.421305</ele>
        <time>2026-07-09T08:44:34.000Z</time>
      </trkpt>
      <trkpt lat="46.84931" lon="16.00054">
        <ele>259.150244</ele>
        <time>2026-07-09T08:44:37.000Z</time>
      </trkpt>
      <trkpt lat="46.84923" lon="16.00082">
        <ele>258.79072</ele>
        <time>2026-07-09T08:44:41.000Z</time>
      </trkpt>
      <trkpt lat="46.84909" lon="16.0011">
        <ele>258.36474</ele>
        <time>2026-07-09T08:44:46.000Z</time>
      </trkpt>
      <trkpt lat="46.84905" lon="16.00113">
        <ele>258.280968</ele>
        <time>2026-07-09T08:44:47.000Z</time>
      </trkpt>
      <trkpt lat="46.849" lon="16.00115">
        <ele>258.201246</ele>
        <time>2026-07-09T08:44:48.000Z</time>
      </trkpt>
      <trkpt lat="46.8489" lon="16.00113">
        <ele>258.025358</ele>
        <time>2026-07-09T08:44:50.000Z</time>
      </trkpt>
      <trkpt lat="46.84877" lon="16.0011">
        <ele>257.796804</ele>
        <time>2026-07-09T08:44:53.000Z</time>
      </trkpt>
      <trkpt lat="46.8485" lon="16.00105">
        <ele>257.299885</ele>
        <time>2026-07-09T08:44:59.000Z</time>
      </trkpt>
      <trkpt lat="46.8483" lon="16.00097">
        <ele>256.946239</ele>
        <time>2026-07-09T08:45:04.000Z</time>
      </trkpt>
      <trkpt lat="46.84817" lon="16.0009">
        <ele>256.706747</ele>
        <time>2026-07-09T08:45:07.000Z</time>
      </trkpt>
      <trkpt lat="46.84781" lon="16.00068">
        <ele>256.56946</ele>
        <time>2026-07-09T08:45:16.000Z</time>
      </trkpt>
      <trkpt lat="46.84752" lon="16.00046">
        <ele>256.484779</ele>
        <time>2026-07-09T08:45:23.000Z</time>
      </trkpt>
      <trkpt lat="46.84744" lon="16.00041">
        <ele>256.463927</ele>
        <time>2026-07-09T08:45:25.000Z</time>
      </trkpt>
      <trkpt lat="46.84713" lon="16.00015">
        <ele>256.370866</ele>
        <time>2026-07-09T08:45:33.000Z</time>
      </trkpt>
      <trkpt lat="46.84711" lon="16.00011">
        <ele>256.36186</ele>
        <time>2026-07-09T08:45:34.000Z</time>
      </trkpt>
      <trkpt lat="46.84708" lon="16.00005">
        <ele>256.348382</ele>
        <time>2026-07-09T08:45:35.000Z</time>
      </trkpt>
      <trkpt lat="46.84706" lon="15.99993">
        <ele>256.327746</ele>
        <time>2026-07-09T08:45:37.000Z</time>
      </trkpt>
      <trkpt lat="46.84707" lon="15.99985">
        <ele>256.313329</ele>
        <time>2026-07-09T08:45:38.000Z</time>
      </trkpt>
      <trkpt lat="46.84708" lon="15.99966">
        <ele>256.2804</ele>
        <time>2026-07-09T08:45:41.000Z</time>
      </trkpt>
      <trkpt lat="46.84709" lon="15.9994">
        <ele>256.234418</ele>
        <time>2026-07-09T08:45:45.000Z</time>
      </trkpt>
      <trkpt lat="46.84714" lon="15.99878">
        <ele>257.008255</ele>
        <time>2026-07-09T08:45:55.000Z</time>
      </trkpt>
      <trkpt lat="46.84719" lon="15.99852">
        <ele>257.497289</ele>
        <time>2026-07-09T08:45:59.000Z</time>
      </trkpt>
      <trkpt lat="46.84724" lon="15.99833">
        <ele>257.855835</ele>
        <time>2026-07-09T08:46:02.000Z</time>
      </trkpt>
      <trkpt lat="46.84725" lon="15.99822">
        <ele>258.066471</ele>
        <time>2026-07-09T08:46:04.000Z</time>
      </trkpt>
      <trkpt lat="46.84726" lon="15.99797">
        <ele>258.521013</ele>
        <time>2026-07-09T08:46:08.000Z</time>
      </trkpt>
      <trkpt lat="46.84723" lon="15.99762">
        <ele>259.161016</ele>
        <time>2026-07-09T08:46:14.000Z</time>
      </trkpt>
      <trkpt lat="46.84722" lon="15.99756">
        <ele>259.276427</ele>
        <time>2026-07-09T08:46:15.000Z</time>
      </trkpt>
      <trkpt lat="46.84717" lon="15.99715">
        <ele>260.025613</ele>
        <time>2026-07-09T08:46:22.000Z</time>
      </trkpt>
      <trkpt lat="46.84715" lon="15.99705">
        <ele>260.224139</ele>
        <time>2026-07-09T08:46:24.000Z</time>
      </trkpt>
      <trkpt lat="46.84714" lon="15.9969">
        <ele>260.49095</ele>
        <time>2026-07-09T08:46:27.000Z</time>
      </trkpt>
      <trkpt lat="46.84711" lon="15.99668">
        <ele>260.896067</ele>
        <time>2026-07-09T08:46:32.000Z</time>
      </trkpt>
      <trkpt lat="46.84703" lon="15.99659">
        <ele>261.653138</ele>
        <time>2026-07-09T08:46:36.000Z</time>
      </trkpt>
      <trkpt lat="46.84686" lon="15.99661">
        <ele>263.145494</ele>
        <time>2026-07-09T08:46:41.000Z</time>
      </trkpt>
      <trkpt lat="46.84684" lon="15.99661">
        <ele>263.354156</ele>
        <time>2026-07-09T08:46:42.000Z</time>
      </trkpt>
      <trkpt lat="46.84665" lon="15.99659">
        <ele>265.081147</ele>
        <time>2026-07-09T08:46:49.000Z</time>
      </trkpt>
      <trkpt lat="46.84656" lon="15.99656">
        <ele>265.942188</ele>
        <time>2026-07-09T08:46:53.000Z</time>
      </trkpt>
      <trkpt lat="46.84645" lon="15.99652">
        <ele>266.975987</ele>
        <time>2026-07-09T08:46:58.000Z</time>
      </trkpt>
      <trkpt lat="46.84632" lon="15.99648">
        <ele>268.166967</ele>
        <time>2026-07-09T08:47:05.000Z</time>
      </trkpt>
      <trkpt lat="46.8462" lon="15.99644">
        <ele>269.285901</ele>
        <time>2026-07-09T08:47:12.000Z</time>
      </trkpt>
      <trkpt lat="46.84606" lon="15.9964">
        <ele>270.536246</ele>
        <time>2026-07-09T08:47:20.000Z</time>
      </trkpt>
      <trkpt lat="46.84591" lon="15.99638">
        <ele>271.909142</ele>
        <time>2026-07-09T08:47:29.000Z</time>
      </trkpt>
      <trkpt lat="46.84582" lon="15.99637">
        <ele>272.773322</ele>
        <time>2026-07-09T08:47:35.000Z</time>
      </trkpt>
      <trkpt lat="46.8458" lon="15.99637">
        <ele>272.918943</ele>
        <time>2026-07-09T08:47:36.000Z</time>
      </trkpt>
      <trkpt lat="46.84579" lon="15.99637">
        <ele>273.055108</ele>
        <time>2026-07-09T08:47:37.000Z</time>
      </trkpt>
      <trkpt lat="46.84565" lon="15.99636">
        <ele>274.326176</ele>
        <time>2026-07-09T08:47:45.000Z</time>
      </trkpt>
      <trkpt lat="46.84557" lon="15.99635">
        <ele>274.999544</ele>
        <time>2026-07-09T08:47:50.000Z</time>
      </trkpt>
      <trkpt lat="46.84555" lon="15.99635">
        <ele>275.208942</ele>
        <time>2026-07-09T08:47:51.000Z</time>
      </trkpt>
      <trkpt lat="46.84551" lon="15.99637">
        <ele>275.609431</ele>
        <time>2026-07-09T08:47:54.000Z</time>
      </trkpt>
      <trkpt lat="46.84541" lon="15.99639">
        <ele>276.469126</ele>
        <time>2026-07-09T08:48:01.000Z</time>
      </trkpt>
      <trkpt lat="46.84535" lon="15.99641">
        <ele>277.065319</ele>
        <time>2026-07-09T08:48:07.000Z</time>
      </trkpt>
      <trkpt lat="46.84533" lon="15.99642">
        <ele>277.30713</ele>
        <time>2026-07-09T08:48:09.000Z</time>
      </trkpt>
      <trkpt lat="46.84529" lon="15.99644">
        <ele>277.731897</ele>
        <time>2026-07-09T08:48:11.000Z</time>
      </trkpt>
      <trkpt lat="46.84527" lon="15.99645">
        <ele>277.964499</ele>
        <time>2026-07-09T08:48:12.000Z</time>
      </trkpt>
      <trkpt lat="46.84523" lon="15.99647">
        <ele>278.506068</ele>
        <time>2026-07-09T08:48:15.000Z</time>
      </trkpt>
      <trkpt lat="46.8452" lon="15.99649">
        <ele>278.855042</ele>
        <time>2026-07-09T08:48:17.000Z</time>
      </trkpt>
      <trkpt lat="46.84519" lon="15.9965">
        <ele>279.062295</ele>
        <time>2026-07-09T08:48:18.000Z</time>
      </trkpt>
      <trkpt lat="46.84511" lon="15.99656">
        <ele>280.051655</ele>
        <time>2026-07-09T08:48:24.000Z</time>
      </trkpt>
      <trkpt lat="46.84507" lon="15.99657">
        <ele>280.577908</ele>
        <time>2026-07-09T08:48:27.000Z</time>
      </trkpt>
      <trkpt lat="46.84502" lon="15.9966">
        <ele>281.133645</ele>
        <time>2026-07-09T08:48:30.000Z</time>
      </trkpt>
      <trkpt lat="46.84499" lon="15.99663">
        <ele>281.608782</ele>
        <time>2026-07-09T08:48:33.000Z</time>
      </trkpt>
      <trkpt lat="46.84498" lon="15.99664">
        <ele>281.765851</ele>
        <time>2026-07-09T08:48:34.000Z</time>
      </trkpt>
      <trkpt lat="46.84497" lon="15.99665">
        <ele>281.871058</ele>
        <time>2026-07-09T08:48:35.000Z</time>
      </trkpt>
      <trkpt lat="46.84492" lon="15.99669">
        <ele>282.509721</ele>
        <time>2026-07-09T08:48:39.000Z</time>
      </trkpt>
      <trkpt lat="46.8449" lon="15.9967">
        <ele>282.827251</ele>
        <time>2026-07-09T08:48:41.000Z</time>
      </trkpt>
      <trkpt lat="46.84486" lon="15.99678">
        <ele>283.570342</ele>
        <time>2026-07-09T08:48:45.000Z</time>
      </trkpt>
      <trkpt lat="46.84485" lon="15.9968">
        <ele>283.808015</ele>
        <time>2026-07-09T08:48:46.000Z</time>
      </trkpt>
      <trkpt lat="46.84477" lon="15.99687">
        <ele>284.84752</ele>
        <time>2026-07-09T08:48:51.000Z</time>
      </trkpt>
      <trkpt lat="46.84476" lon="15.99687">
        <ele>284.990603</ele>
        <time>2026-07-09T08:48:52.000Z</time>
      </trkpt>
      <trkpt lat="46.84472" lon="15.99694">
        <ele>285.667465</ele>
        <time>2026-07-09T08:48:56.000Z</time>
      </trkpt>
      <trkpt lat="46.8447" lon="15.99696">
        <ele>285.965702</ele>
        <time>2026-07-09T08:48:58.000Z</time>
      </trkpt>
      <trkpt lat="46.8447" lon="15.99698">
        <ele>286.118085</ele>
        <time>2026-07-09T08:48:59.000Z</time>
      </trkpt>
      <trkpt lat="46.84469" lon="15.99705">
        <ele>286.693507</ele>
        <time>2026-07-09T08:49:02.000Z</time>
      </trkpt>
      <trkpt lat="46.84466" lon="15.9971">
        <ele>287.205599</ele>
        <time>2026-07-09T08:49:04.000Z</time>
      </trkpt>
      <trkpt lat="46.84464" lon="15.99713">
        <ele>287.61464</ele>
        <time>2026-07-09T08:49:06.000Z</time>
      </trkpt>
      <trkpt lat="46.84459" lon="15.99724">
        <ele>288.627601</ele>
        <time>2026-07-09T08:49:10.000Z</time>
      </trkpt>
      <trkpt lat="46.84454" lon="15.99729">
        <ele>289.337844</ele>
        <time>2026-07-09T08:49:14.000Z</time>
      </trkpt>
      <trkpt lat="46.84455" lon="15.9974">
        <ele>290.205993</ele>
        <time>2026-07-09T08:49:17.000Z</time>
      </trkpt>
      <trkpt lat="46.84453" lon="15.99756">
        <ele>291.483886</ele>
        <time>2026-07-09T08:49:22.000Z</time>
      </trkpt>
      <trkpt lat="46.84451" lon="15.9976">
        <ele>291.839106</ele>
        <time>2026-07-09T08:49:24.000Z</time>
      </trkpt>
      <trkpt lat="46.84446" lon="15.9977">
        <ele>292.861273</ele>
        <time>2026-07-09T08:49:29.000Z</time>
      </trkpt>
      <trkpt lat="46.84445" lon="15.99773">
        <ele>293.160879</ele>
        <time>2026-07-09T08:49:30.000Z</time>
      </trkpt>
      <trkpt lat="46.84444" lon="15.99776">
        <ele>293.437079</ele>
        <time>2026-07-09T08:49:31.000Z</time>
      </trkpt>
      <trkpt lat="46.84438" lon="15.99784">
        <ele>294.371464</ele>
        <time>2026-07-09T08:49:35.000Z</time>
      </trkpt>
      <trkpt lat="46.84437" lon="15.99786">
        <ele>294.573606</ele>
        <time>2026-07-09T08:49:36.000Z</time>
      </trkpt>
      <trkpt lat="46.84435" lon="15.99787">
        <ele>294.814899</ele>
        <time>2026-07-09T08:49:37.000Z</time>
      </trkpt>
      <trkpt lat="46.8442" lon="15.99787">
        <ele>296.538552</ele>
        <time>2026-07-09T08:49:45.000Z</time>
      </trkpt>
      <trkpt lat="46.84406" lon="15.99779">
        <ele>298.270082</ele>
        <time>2026-07-09T08:49:53.000Z</time>
      </trkpt>
      <trkpt lat="46.84401" lon="15.99775">
        <ele>298.675023</ele>
        <time>2026-07-09T08:49:56.000Z</time>
      </trkpt>
      <trkpt lat="46.84391" lon="15.99768">
        <ele>299.427899</ele>
        <time>2026-07-09T08:50:02.000Z</time>
      </trkpt>
      <trkpt lat="46.84385" lon="15.99764">
        <ele>299.839192</ele>
        <time>2026-07-09T08:50:05.000Z</time>
      </trkpt>
      <trkpt lat="46.8438" lon="15.9976">
        <ele>300.244133</ele>
        <time>2026-07-09T08:50:08.000Z</time>
      </trkpt>
      <trkpt lat="46.84371" lon="15.99752">
        <ele>300.96715</ele>
        <time>2026-07-09T08:50:14.000Z</time>
      </trkpt>
      <trkpt lat="46.84367" lon="15.99748">
        <ele>301.232048</ele>
        <time>2026-07-09T08:50:16.000Z</time>
      </trkpt>
      <trkpt lat="46.84354" lon="15.99734">
        <ele>302.371508</ele>
        <time>2026-07-09T08:50:26.000Z</time>
      </trkpt>
      <trkpt lat="46.84346" lon="15.99725">
        <ele>303.046007</ele>
        <time>2026-07-09T08:50:32.000Z</time>
      </trkpt>
      <trkpt lat="46.84336" lon="15.99707">
        <ele>304.107487</ele>
        <time>2026-07-09T08:50:42.000Z</time>
      </trkpt>
      <trkpt lat="46.84331" lon="15.99699">
        <ele>304.600346</ele>
        <time>2026-07-09T08:50:47.000Z</time>
      </trkpt>
      <trkpt lat="46.84329" lon="15.99697">
        <ele>304.805573</ele>
        <time>2026-07-09T08:50:49.000Z</time>
      </trkpt>
      <trkpt lat="46.84327" lon="15.99695">
        <ele>304.909253</ele>
        <time>2026-07-09T08:50:50.000Z</time>
      </trkpt>
      <trkpt lat="46.84325" lon="15.99687">
        <ele>305.309173</ele>
        <time>2026-07-09T08:50:54.000Z</time>
      </trkpt>
      <trkpt lat="46.84322" lon="15.99681">
        <ele>305.712055</ele>
        <time>2026-07-09T08:50:58.000Z</time>
      </trkpt>
      <trkpt lat="46.8432" lon="15.99678">
        <ele>305.899061</ele>
        <time>2026-07-09T08:51:00.000Z</time>
      </trkpt>
      <trkpt lat="46.84317" lon="15.99672">
        <ele>306.204322</ele>
        <time>2026-07-09T08:51:03.000Z</time>
      </trkpt>
      <trkpt lat="46.84316" lon="15.9967">
        <ele>306.333391</ele>
        <time>2026-07-09T08:51:04.000Z</time>
      </trkpt>
      <trkpt lat="46.84316" lon="15.99663">
        <ele>306.624835</ele>
        <time>2026-07-09T08:51:07.000Z</time>
      </trkpt>
      <trkpt lat="46.84315" lon="15.99661">
        <ele>306.745152</ele>
        <time>2026-07-09T08:51:08.000Z</time>
      </trkpt>
      <trkpt lat="46.84314" lon="15.99656">
        <ele>306.978989</ele>
        <time>2026-07-09T08:51:10.000Z</time>
      </trkpt>
      <trkpt lat="46.8431" lon="15.99645">
        <ele>307.569856</ele>
        <time>2026-07-09T08:51:16.000Z</time>
      </trkpt>
      <trkpt lat="46.84308" lon="15.99642">
        <ele>307.745261</ele>
        <time>2026-07-09T08:51:18.000Z</time>
      </trkpt>
      <trkpt lat="46.84307" lon="15.99638">
        <ele>307.929233</ele>
        <time>2026-07-09T08:51:20.000Z</time>
      </trkpt>
      <trkpt lat="46.84306" lon="15.99622">
        <ele>308.684621</ele>
        <time>2026-07-09T08:51:27.000Z</time>
      </trkpt>
      <trkpt lat="46.84301" lon="15.99606">
        <ele>309.497183</ele>
        <time>2026-07-09T08:51:34.000Z</time>
      </trkpt>
      <trkpt lat="46.84301" lon="15.99602">
        <ele>309.691192</ele>
        <time>2026-07-09T08:51:36.000Z</time>
      </trkpt>
      <trkpt lat="46.84299" lon="15.99585">
        <ele>310.560586</ele>
        <time>2026-07-09T08:51:44.000Z</time>
      </trkpt>
      <trkpt lat="46.84297" lon="15.99581">
        <ele>310.969698</ele>
        <time>2026-07-09T08:51:46.000Z</time>
      </trkpt>
      <trkpt lat="46.84297" lon="15.99579">
        <ele>311.119685</ele>
        <time>2026-07-09T08:51:47.000Z</time>
      </trkpt>
      <trkpt lat="46.84296" lon="15.9957">
        <ele>311.818429</ele>
        <time>2026-07-09T08:51:51.000Z</time>
      </trkpt>
      <trkpt lat="46.84294" lon="15.99554">
        <ele>313.173441</ele>
        <time>2026-07-09T08:51:58.000Z</time>
      </trkpt>
      <trkpt lat="46.84293" lon="15.99552">
        <ele>313.342862</ele>
        <time>2026-07-09T08:52:00.000Z</time>
      </trkpt>
      <trkpt lat="46.8429" lon="15.99545">
        <ele>313.984757</ele>
        <time>2026-07-09T08:52:54.000Z</time>
      </trkpt>
      <trkpt lat="46.84289" lon="15.99543">
        <ele>314.169003</ele>
        <time>2026-07-09T08:52:55.000Z</time>
      </trkpt>
      <trkpt lat="46.84289" lon="15.99541">
        <ele>314.348676</ele>
        <time>2026-07-09T08:52:56.000Z</time>
      </trkpt>
      <trkpt lat="46.84284" lon="15.99525">
        <ele>315.822207</ele>
        <time>2026-07-09T08:53:04.000Z</time>
      </trkpt>
      <trkpt lat="46.84279" lon="15.99509">
        <ele>317.172659</ele>
        <time>2026-07-09T08:53:11.000Z</time>
      </trkpt>
      <trkpt lat="46.84276" lon="15.99504">
        <ele>317.741016</ele>
        <time>2026-07-09T08:53:14.000Z</time>
      </trkpt>
      <trkpt lat="46.84273" lon="15.995">
        <ele>318.23264</ele>
        <time>2026-07-09T08:53:17.000Z</time>
      </trkpt>
      <trkpt lat="46.84271" lon="15.99496">
        <ele>318.633765</ele>
        <time>2026-07-09T08:53:19.000Z</time>
      </trkpt>
      <trkpt lat="46.84263" lon="15.99487">
        <ele>319.852052</ele>
        <time>2026-07-09T08:53:26.000Z</time>
      </trkpt>
      <trkpt lat="46.84256" lon="15.99482">
        <ele>320.761512</ele>
        <time>2026-07-09T08:53:31.000Z</time>
      </trkpt>
      <trkpt lat="46.84255" lon="15.99481">
        <ele>320.921142</ele>
        <time>2026-07-09T08:53:32.000Z</time>
      </trkpt>
      <trkpt lat="46.8425" lon="15.99479">
        <ele>321.461924</ele>
        <time>2026-07-09T08:53:35.000Z</time>
      </trkpt>
      <trkpt lat="46.84246" lon="15.99479">
        <ele>322.019681</ele>
        <time>2026-07-09T08:53:38.000Z</time>
      </trkpt>
      <trkpt lat="46.84244" lon="15.9948">
        <ele>322.244708</ele>
        <time>2026-07-09T08:53:39.000Z</time>
      </trkpt>
      <trkpt lat="46.84232" lon="15.99482">
        <ele>323.630239</ele>
        <time>2026-07-09T08:53:47.000Z</time>
      </trkpt>
      <trkpt lat="46.84219" lon="15.99485">
        <ele>325.15289</ele>
        <time>2026-07-09T08:53:56.000Z</time>
      </trkpt>
      <trkpt lat="46.84203" lon="15.99491">
        <ele>327.148072</ele>
        <time>2026-07-09T08:54:06.000Z</time>
      </trkpt>
      <trkpt lat="46.84194" lon="15.99493">
        <ele>328.270302</ele>
        <time>2026-07-09T08:54:12.000Z</time>
      </trkpt>
      <trkpt lat="46.8418" lon="15.99498">
        <ele>329.976755</ele>
        <time>2026-07-09T08:54:22.000Z</time>
      </trkpt>
      <trkpt lat="46.84173" lon="15.99503">
        <ele>330.925113</ele>
        <time>2026-07-09T08:54:27.000Z</time>
      </trkpt>
      <trkpt lat="46.84168" lon="15.99505">
        <ele>331.524827</ele>
        <time>2026-07-09T08:54:30.000Z</time>
      </trkpt>
      <trkpt lat="46.84156" lon="15.99508">
        <ele>332.157945</ele>
        <time>2026-07-09T08:54:37.000Z</time>
      </trkpt>
      <trkpt lat="46.84141" lon="15.99512">
        <ele>332.878234</ele>
        <time>2026-07-09T08:54:45.000Z</time>
      </trkpt>
      <trkpt lat="46.8413" lon="15.99506">
        <ele>333.442576</ele>
        <time>2026-07-09T08:54:49.000Z</time>
      </trkpt>
      <trkpt lat="46.84128" lon="15.99501">
        <ele>333.634125</ele>
        <time>2026-07-09T08:54:50.000Z</time>
      </trkpt>
      <trkpt lat="46.84125" lon="15.99489">
        <ele>334.040204</ele>
        <time>2026-07-09T08:54:52.000Z</time>
      </trkpt>
      <trkpt lat="46.84122" lon="15.99465">
        <ele>334.850093</ele>
        <time>2026-07-09T08:54:57.000Z</time>
      </trkpt>
      <trkpt lat="46.84115" lon="15.99437">
        <ele>335.794071</ele>
        <time>2026-07-09T08:55:04.000Z</time>
      </trkpt>
      <trkpt lat="46.84107" lon="15.99411">
        <ele>336.721438</ele>
        <time>2026-07-09T08:55:12.000Z</time>
      </trkpt>
      <trkpt lat="46.84104" lon="15.99384">
        <ele>337.591014</ele>
        <time>2026-07-09T08:55:20.000Z</time>
      </trkpt>
      <trkpt lat="46.84108" lon="15.99365">
        <ele>338.245865</ele>
        <time>2026-07-09T08:55:27.000Z</time>
      </trkpt>
      <trkpt lat="46.84114" lon="15.99349">
        <ele>338.8528</ele>
        <time>2026-07-09T08:55:33.000Z</time>
      </trkpt>
      <trkpt lat="46.84116" lon="15.99344">
        <ele>339.03396</ele>
        <time>2026-07-09T08:55:35.000Z</time>
      </trkpt>
      <trkpt lat="46.84127" lon="15.99327">
        <ele>339.77875</ele>
        <time>2026-07-09T08:55:42.000Z</time>
      </trkpt>
      <trkpt lat="46.84135" lon="15.99305">
        <ele>340.985324</ele>
        <time>2026-07-09T08:55:50.000Z</time>
      </trkpt>
      <trkpt lat="46.84138" lon="15.99285">
        <ele>342.33349</ele>
        <time>2026-07-09T08:55:57.000Z</time>
      </trkpt>
      <trkpt lat="46.84142" lon="15.99264">
        <ele>343.679417</ele>
        <time>2026-07-09T08:56:04.000Z</time>
      </trkpt>
      <trkpt lat="46.84142" lon="15.99261">
        <ele>343.86968</ele>
        <time>2026-07-09T08:56:05.000Z</time>
      </trkpt>
      <trkpt lat="46.84143" lon="15.9924">
        <ele>345.212482</ele>
        <time>2026-07-09T08:56:12.000Z</time>
      </trkpt>
      <trkpt lat="46.84145" lon="15.99214">
        <ele>346.885233</ele>
        <time>2026-07-09T08:56:21.000Z</time>
      </trkpt>
      <trkpt lat="46.84146" lon="15.99211">
        <ele>347.0743</ele>
        <time>2026-07-09T08:56:22.000Z</time>
      </trkpt>
      <trkpt lat="46.84147" lon="15.99205">
        <ele>347.461387</ele>
        <time>2026-07-09T08:56:24.000Z</time>
      </trkpt>
      <trkpt lat="46.84149" lon="15.99191">
        <ele>348.393285</ele>
        <time>2026-07-09T08:56:29.000Z</time>
      </trkpt>
      <trkpt lat="46.84156" lon="15.99166">
        <ele>350.069124</ele>
        <time>2026-07-09T08:56:38.000Z</time>
      </trkpt>
      <trkpt lat="46.8416" lon="15.99143">
        <ele>351.598487</ele>
        <time>2026-07-09T08:56:47.000Z</time>
      </trkpt>
      <trkpt lat="46.84164" lon="15.9912">
        <ele>353.072864</ele>
        <time>2026-07-09T08:56:55.000Z</time>
      </trkpt>
      <trkpt lat="46.84167" lon="15.99104">
        <ele>354.143391</ele>
        <time>2026-07-09T08:57:01.000Z</time>
      </trkpt>
      <trkpt lat="46.84169" lon="15.99094">
        <ele>354.829903</ele>
        <time>2026-07-09T08:57:05.000Z</time>
      </trkpt>
      <trkpt lat="46.84175" lon="15.99085">
        <ele>355.613651</ele>
        <time>2026-07-09T08:57:08.000Z</time>
      </trkpt>
      <trkpt lat="46.84182" lon="15.99064">
        <ele>356.887099</ele>
        <time>2026-07-09T08:57:15.000Z</time>
      </trkpt>
      <trkpt lat="46.84187" lon="15.99046">
        <ele>357.239437</ele>
        <time>2026-07-09T08:57:22.000Z</time>
      </trkpt>
      <trkpt lat="46.84193" lon="15.99025">
        <ele>357.628596</ele>
        <time>2026-07-09T08:57:30.000Z</time>
      </trkpt>
      <trkpt lat="46.84195" lon="15.99012">
        <ele>357.864239</ele>
        <time>2026-07-09T08:57:35.000Z</time>
      </trkpt>
      <trkpt lat="46.84197" lon="15.99005">
        <ele>358.002789</ele>
        <time>2026-07-09T08:57:38.000Z</time>
      </trkpt>
      <trkpt lat="46.84196" lon="15.99001">
        <ele>358.06162</ele>
        <time>2026-07-09T08:57:39.000Z</time>
      </trkpt>
      <trkpt lat="46.84194" lon="15.98996">
        <ele>358.169903</ele>
        <time>2026-07-09T08:57:41.000Z</time>
      </trkpt>
      <trkpt lat="46.84193" lon="15.98987">
        <ele>358.327177</ele>
        <time>2026-07-09T08:57:44.000Z</time>
      </trkpt>
      <trkpt lat="46.84191" lon="15.98982">
        <ele>358.426714</ele>
        <time>2026-07-09T08:57:46.000Z</time>
      </trkpt>
      <trkpt lat="46.84185" lon="15.98969">
        <ele>358.69362</ele>
        <time>2026-07-09T08:57:51.000Z</time>
      </trkpt>
      <trkpt lat="46.84182" lon="15.98961">
        <ele>358.856672</ele>
        <time>2026-07-09T08:57:54.000Z</time>
      </trkpt>
      <trkpt lat="46.84181" lon="15.98959">
        <ele>358.911532</ele>
        <time>2026-07-09T08:57:55.000Z</time>
      </trkpt>
      <trkpt lat="46.84175" lon="15.9895">
        <ele>359.130567</ele>
        <time>2026-07-09T08:57:59.000Z</time>
      </trkpt>
      <trkpt lat="46.84171" lon="15.98942">
        <ele>359.296463</ele>
        <time>2026-07-09T08:58:02.000Z</time>
      </trkpt>
      <trkpt lat="46.84171" lon="15.98938">
        <ele>359.356351</ele>
        <time>2026-07-09T08:58:03.000Z</time>
      </trkpt>
      <trkpt lat="46.84172" lon="15.98931">
        <ele>359.490477</ele>
        <time>2026-07-09T08:58:05.000Z</time>
      </trkpt>
      <trkpt lat="46.84174" lon="15.98928">
        <ele>359.558533</ele>
        <time>2026-07-09T08:58:06.000Z</time>
      </trkpt>
      <trkpt lat="46.84189" lon="15.98903">
        <ele>360.129931</ele>
        <time>2026-07-09T08:58:12.000Z</time>
      </trkpt>
      <trkpt lat="46.84195" lon="15.98894">
        <ele>360.356115</ele>
        <time>2026-07-09T08:58:14.000Z</time>
      </trkpt>
      <trkpt lat="46.84204" lon="15.98886">
        <ele>360.614294</ele>
        <time>2026-07-09T08:58:16.000Z</time>
      </trkpt>
      <trkpt lat="46.84209" lon="15.98882">
        <ele>360.751462</ele>
        <time>2026-07-09T08:58:17.000Z</time>
      </trkpt>
      <trkpt lat="46.84224" lon="15.9887">
        <ele>361.188997</ele>
        <time>2026-07-09T08:58:20.000Z</time>
      </trkpt>
      <trkpt lat="46.84238" lon="15.98855">
        <ele>361.102608</ele>
        <time>2026-07-09T08:58:23.000Z</time>
      </trkpt>
      <trkpt lat="46.84247" lon="15.98844">
        <ele>360.709106</ele>
        <time>2026-07-09T08:58:25.000Z</time>
      </trkpt>
      <trkpt lat="46.84259" lon="15.98827">
        <ele>360.113688</ele>
        <time>2026-07-09T08:58:28.000Z</time>
      </trkpt>
      <trkpt lat="46.84266" lon="15.98813">
        <ele>359.72056</ele>
        <time>2026-07-09T08:58:30.000Z</time>
      </trkpt>
      <trkpt lat="46.84269" lon="15.98796">
        <ele>359.300945</ele>
        <time>2026-07-09T08:58:32.000Z</time>
      </trkpt>
      <trkpt lat="46.84269" lon="15.98777">
        <ele>358.85739</ele>
        <time>2026-07-09T08:58:34.000Z</time>
      </trkpt>
      <trkpt lat="46.84268" lon="15.98767">
        <ele>358.623499</ele>
        <time>2026-07-09T08:58:35.000Z</time>
      </trkpt>
      <trkpt lat="46.84268" lon="15.98757">
        <ele>358.385911</ele>
        <time>2026-07-09T08:58:36.000Z</time>
      </trkpt>
      <trkpt lat="46.84265" lon="15.98726">
        <ele>357.665595</ele>
        <time>2026-07-09T08:58:39.000Z</time>
      </trkpt>
      <trkpt lat="46.84262" lon="15.98677">
        <ele>356.492261</ele>
        <time>2026-07-09T08:58:44.000Z</time>
      </trkpt>
      <trkpt lat="46.8426" lon="15.9866">
        <ele>356.090522</ele>
        <time>2026-07-09T08:58:46.000Z</time>
      </trkpt>
      <trkpt lat="46.84256" lon="15.98612">
        <ele>355.731197</ele>
        <time>2026-07-09T08:58:52.000Z</time>
      </trkpt>
      <trkpt lat="46.8425" lon="15.98585">
        <ele>356.921172</ele>
        <time>2026-07-09T08:58:57.000Z</time>
      </trkpt>
      <trkpt lat="46.84246" lon="15.98572">
        <ele>357.548003</ele>
        <time>2026-07-09T08:59:00.000Z</time>
      </trkpt>
      <trkpt lat="46.84238" lon="15.98556">
        <ele>358.362746</ele>
        <time>2026-07-09T08:59:04.000Z</time>
      </trkpt>
      <trkpt lat="46.84218" lon="15.98524">
        <ele>360.174566</ele>
        <time>2026-07-09T08:59:13.000Z</time>
      </trkpt>
      <trkpt lat="46.84208" lon="15.98501">
        <ele>361.335853</ele>
        <time>2026-07-09T08:59:19.000Z</time>
      </trkpt>
      <trkpt lat="46.84204" lon="15.98478">
        <ele>362.304686</ele>
        <time>2026-07-09T08:59:24.000Z</time>
      </trkpt>
      <trkpt lat="46.84202" lon="15.98467">
        <ele>362.779358</ele>
        <time>2026-07-09T08:59:27.000Z</time>
      </trkpt>
      <trkpt lat="46.84199" lon="15.98447">
        <ele>363.638951</ele>
        <time>2026-07-09T08:59:33.000Z</time>
      </trkpt>
      <trkpt lat="46.84199" lon="15.98445">
        <ele>363.743923</ele>
        <time>2026-07-09T08:59:34.000Z</time>
      </trkpt>
      <trkpt lat="46.84198" lon="15.98432">
        <ele>364.304139</ele>
        <time>2026-07-09T08:59:38.000Z</time>
      </trkpt>
      <trkpt lat="46.84198" lon="15.98429">
        <ele>364.430486</ele>
        <time>2026-07-09T08:59:39.000Z</time>
      </trkpt>
      <trkpt lat="46.84198" lon="15.98421">
        <ele>364.770069</ele>
        <time>2026-07-09T08:59:42.000Z</time>
      </trkpt>
      <trkpt lat="46.84198" lon="15.98397">
        <ele>365.771903</ele>
        <time>2026-07-09T08:59:48.000Z</time>
      </trkpt>
      <trkpt lat="46.84198" lon="15.98392">
        <ele>365.965345</ele>
        <time>2026-07-09T08:59:49.000Z</time>
      </trkpt>
      <trkpt lat="46.84198" lon="15.98374">
        <ele>367.109989</ele>
        <time>2026-07-09T08:59:53.000Z</time>
      </trkpt>
      <trkpt lat="46.84198" lon="15.98366">
        <ele>367.679543</ele>
        <time>2026-07-09T08:59:55.000Z</time>
      </trkpt>
      <trkpt lat="46.84196" lon="15.98359">
        <ele>368.234907</ele>
        <time>2026-07-09T08:59:57.000Z</time>
      </trkpt>
      <trkpt lat="46.84195" lon="15.98347">
        <ele>369.102356</ele>
        <time>2026-07-09T09:00:00.000Z</time>
      </trkpt>
      <trkpt lat="46.84193" lon="15.98325">
        <ele>370.795284</ele>
        <time>2026-07-09T09:00:08.000Z</time>
      </trkpt>
      <trkpt lat="46.84195" lon="15.9832">
        <ele>371.182174</ele>
        <time>2026-07-09T09:00:10.000Z</time>
      </trkpt>
      <trkpt lat="46.84195" lon="15.98314">
        <ele>371.624463</ele>
        <time>2026-07-09T09:00:13.000Z</time>
      </trkpt>
      <trkpt lat="46.84202" lon="15.98293">
        <ele>373.398314</ele>
        <time>2026-07-09T09:00:21.000Z</time>
      </trkpt>
      <trkpt lat="46.84204" lon="15.98282">
        <ele>374.30043</ele>
        <time>2026-07-09T09:00:27.000Z</time>
      </trkpt>
      <trkpt lat="46.84205" lon="15.98279">
        <ele>374.520321</ele>
        <time>2026-07-09T09:00:28.000Z</time>
      </trkpt>
      <trkpt lat="46.84207" lon="15.98264">
        <ele>375.658026</ele>
        <time>2026-07-09T09:00:33.000Z</time>
      </trkpt>
      <trkpt lat="46.84207" lon="15.98261">
        <ele>375.91695</ele>
        <time>2026-07-09T09:00:35.000Z</time>
      </trkpt>
      <trkpt lat="46.84214" lon="15.98241">
        <ele>377.560867</ele>
        <time>2026-07-09T09:00:41.000Z</time>
      </trkpt>
      <trkpt lat="46.84209" lon="15.9822">
        <ele>379.221139</ele>
        <time>2026-07-09T09:00:46.000Z</time>
      </trkpt>
      <trkpt lat="46.84205" lon="15.98212">
        <ele>379.96012</ele>
        <time>2026-07-09T09:00:50.000Z</time>
      </trkpt>
      <trkpt lat="46.84198" lon="15.98208">
        <ele>380.837397</ele>
        <time>2026-07-09T09:00:52.000Z</time>
      </trkpt>
      <trkpt lat="46.84194" lon="15.98192">
        <ele>382.049943</ele>
        <time>2026-07-09T09:00:59.000Z</time>
      </trkpt>
      <trkpt lat="46.8419" lon="15.98183">
        <ele>382.880268</ele>
        <time>2026-07-09T09:01:03.000Z</time>
      </trkpt>
      <trkpt lat="46.84189" lon="15.98175">
        <ele>383.452832</ele>
        <time>2026-07-09T09:01:06.000Z</time>
      </trkpt>
      <trkpt lat="46.84182" lon="15.9816">
        <ele>384.808967</ele>
        <time>2026-07-09T09:01:13.000Z</time>
      </trkpt>
      <trkpt lat="46.84181" lon="15.98156">
        <ele>385.154447</ele>
        <time>2026-07-09T09:01:15.000Z</time>
      </trkpt>
      <trkpt lat="46.84179" lon="15.98145">
        <ele>385.98542</ele>
        <time>2026-07-09T09:01:19.000Z</time>
      </trkpt>
      <trkpt lat="46.84175" lon="15.98133">
        <ele>386.277713</ele>
        <time>2026-07-09T09:01:22.000Z</time>
      </trkpt>
      <trkpt lat="46.84171" lon="15.98126">
        <ele>386.446645</ele>
        <time>2026-07-09T09:01:24.000Z</time>
      </trkpt>
      <trkpt lat="46.84169" lon="15.98119">
        <ele>386.619471</ele>
        <time>2026-07-09T09:01:27.000Z</time>
      </trkpt>
      <trkpt lat="46.84167" lon="15.98105">
        <ele>386.934807</ele>
        <time>2026-07-09T09:01:31.000Z</time>
      </trkpt>
      <trkpt lat="46.8416" lon="15.98078">
        <ele>387.549648</ele>
        <time>2026-07-09T09:01:38.000Z</time>
      </trkpt>
      <trkpt lat="46.84159" lon="15.98063">
        <ele>387.884271</ele>
        <time>2026-07-09T09:01:43.000Z</time>
      </trkpt>
      <trkpt lat="46.84158" lon="15.98054">
        <ele>388.078897</ele>
        <time>2026-07-09T09:01:46.000Z</time>
      </trkpt>
      <trkpt lat="46.84157" lon="15.9803">
        <ele>388.605654</ele>
        <time>2026-07-09T09:01:53.000Z</time>
      </trkpt>
      <trkpt lat="46.8416" lon="15.98007">
        <ele>389.102536</ele>
        <time>2026-07-09T09:02:00.000Z</time>
      </trkpt>
      <trkpt lat="46.84163" lon="15.97987">
        <ele>389.545531</ele>
        <time>2026-07-09T09:02:06.000Z</time>
      </trkpt>
      <trkpt lat="46.84167" lon="15.97961">
        <ele>390.122403</ele>
        <time>2026-07-09T09:02:11.000Z</time>
      </trkpt>
      <trkpt lat="46.84166" lon="15.97934">
        <ele>390.69687</ele>
        <time>2026-07-09T09:02:18.000Z</time>
      </trkpt>
      <trkpt lat="46.84166" lon="15.97934">
        <ele>390.71195</ele>
        <time>2026-07-09T09:02:20.000Z</time>
      </trkpt>
      <trkpt lat="46.84161" lon="15.97909">
        <ele>391.271304</ele>
        <time>2026-07-09T09:04:26.000Z</time>
      </trkpt>
      <trkpt lat="46.84161" lon="15.97906">
        <ele>391.336671</ele>
        <time>2026-07-09T09:04:27.000Z</time>
      </trkpt>
      <trkpt lat="46.84157" lon="15.97896">
        <ele>391.570622</ele>
        <time>2026-07-09T09:04:31.000Z</time>
      </trkpt>
      <trkpt lat="46.84153" lon="15.97878">
        <ele>391.691912</ele>
        <time>2026-07-09T09:04:36.000Z</time>
      </trkpt>
      <trkpt lat="46.84149" lon="15.97858">
        <ele>391.760017</ele>
        <time>2026-07-09T09:04:41.000Z</time>
      </trkpt>
      <trkpt lat="46.84147" lon="15.97845">
        <ele>391.807048</ele>
        <time>2026-07-09T09:04:44.000Z</time>
      </trkpt>
      <trkpt lat="46.84146" lon="15.9784">
        <ele>391.822169</ele>
        <time>2026-07-09T09:04:45.000Z</time>
      </trkpt>
      <trkpt lat="46.84143" lon="15.97833">
        <ele>391.848586</ele>
        <time>2026-07-09T09:04:47.000Z</time>
      </trkpt>
      <trkpt lat="46.84141" lon="15.97823">
        <ele>391.884541</ele>
        <time>2026-07-09T09:04:50.000Z</time>
      </trkpt>
      <trkpt lat="46.84137" lon="15.97809">
        <ele>391.935134</ele>
        <time>2026-07-09T09:04:54.000Z</time>
      </trkpt>
      <trkpt lat="46.84136" lon="15.978">
        <ele>391.96853</ele>
        <time>2026-07-09T09:04:56.000Z</time>
      </trkpt>
      <trkpt lat="46.8413" lon="15.97776">
        <ele>392.052696</ele>
        <time>2026-07-09T09:05:01.000Z</time>
      </trkpt>
      <trkpt lat="46.84128" lon="15.97767">
        <ele>392.086865</ele>
        <time>2026-07-09T09:05:03.000Z</time>
      </trkpt>
      <trkpt lat="46.84126" lon="15.97762">
        <ele>392.104412</ele>
        <time>2026-07-09T09:05:04.000Z</time>
      </trkpt>
      <trkpt lat="46.84124" lon="15.97753">
        <ele>392.137077</ele>
        <time>2026-07-09T09:05:06.000Z</time>
      </trkpt>
      <trkpt lat="46.84117" lon="15.97731">
        <ele>392.217547</ele>
        <time>2026-07-09T09:05:11.000Z</time>
      </trkpt>
      <trkpt lat="46.84116" lon="15.97727">
        <ele>392.233457</ele>
        <time>2026-07-09T09:05:12.000Z</time>
      </trkpt>
      <trkpt lat="46.84112" lon="15.97706">
        <ele>392.304173</ele>
        <time>2026-07-09T09:05:18.000Z</time>
      </trkpt>
      <trkpt lat="46.8411" lon="15.97705">
        <ele>392.31312</ele>
        <time>2026-07-09T09:05:19.000Z</time>
      </trkpt>
      <trkpt lat="46.84107" lon="15.97702">
        <ele>392.331284</ele>
        <time>2026-07-09T09:05:22.000Z</time>
      </trkpt>
      <trkpt lat="46.84107" lon="15.97702">
        <ele>392.331284</ele>
        <time>2026-07-09T09:05:23.000Z</time>
      </trkpt>
      <trkpt lat="46.84112" lon="15.97704">
        <ele>392.355564</ele>
        <time>2026-07-09T09:05:30.000Z</time>
      </trkpt>
      <trkpt lat="46.84114" lon="15.97705">
        <ele>392.365093</ele>
        <time>2026-07-09T09:05:31.000Z</time>
      </trkpt>
      <trkpt lat="46.84124" lon="15.97714">
        <ele>392.421535</ele>
        <time>2026-07-09T09:05:36.000Z</time>
      </trkpt>
      <trkpt lat="46.84125" lon="15.97714">
        <ele>392.430882</ele>
        <time>2026-07-09T09:05:39.000Z</time>
      </trkpt>
      <trkpt lat="46.84121" lon="15.97708">
        <ele>392.460104</ele>
        <time>2026-07-09T09:26:03.000Z</time>
      </trkpt>
      <trkpt lat="46.84117" lon="15.97706">
        <ele>392.482315</ele>
        <time>2026-07-09T09:26:06.000Z</time>
      </trkpt>
      <trkpt lat="46.84114" lon="15.97706">
        <ele>392.497064</ele>
        <time>2026-07-09T09:26:09.000Z</time>
      </trkpt>
      <trkpt lat="46.8411" lon="15.97706">
        <ele>392.513318</ele>
        <time>2026-07-09T09:26:13.000Z</time>
      </trkpt>
      <trkpt lat="46.84104" lon="15.97703">
        <ele>392.934158</ele>
        <time>2026-07-09T09:26:23.000Z</time>
      </trkpt>
      <trkpt lat="46.84088" lon="15.97704">
        <ele>394.215182</ele>
        <time>2026-07-09T09:26:30.000Z</time>
      </trkpt>
      <trkpt lat="46.84069" lon="15.97707">
        <ele>395.782661</ele>
        <time>2026-07-09T09:26:37.000Z</time>
      </trkpt>
      <trkpt lat="46.84058" lon="15.97706">
        <ele>396.684422</ele>
        <time>2026-07-09T09:26:42.000Z</time>
      </trkpt>
      <trkpt lat="46.84056" lon="15.97705">
        <ele>396.862127</ele>
        <time>2026-07-09T09:26:43.000Z</time>
      </trkpt>
      <trkpt lat="46.84038" lon="15.97701">
        <ele>398.264323</ele>
        <time>2026-07-09T09:26:50.000Z</time>
      </trkpt>
      <trkpt lat="46.84023" lon="15.97698">
        <ele>399.503034</ele>
        <time>2026-07-09T09:26:57.000Z</time>
      </trkpt>
      <trkpt lat="46.84007" lon="15.97697">
        <ele>400.785772</ele>
        <time>2026-07-09T09:27:05.000Z</time>
      </trkpt>
      <trkpt lat="46.83992" lon="15.97693">
        <ele>401.98954</ele>
        <time>2026-07-09T09:27:13.000Z</time>
      </trkpt>
      <trkpt lat="46.83991" lon="15.97693">
        <ele>402.134787</ele>
        <time>2026-07-09T09:27:14.000Z</time>
      </trkpt>
      <trkpt lat="46.83985" lon="15.97693">
        <ele>402.577319</ele>
        <time>2026-07-09T09:27:17.000Z</time>
      </trkpt>
      <trkpt lat="46.83981" lon="15.97693">
        <ele>402.908856</ele>
        <time>2026-07-09T09:27:19.000Z</time>
      </trkpt>
      <trkpt lat="46.83968" lon="15.97692">
        <ele>403.931652</ele>
        <time>2026-07-09T09:27:26.000Z</time>
      </trkpt>
      <trkpt lat="46.83961" lon="15.97688">
        <ele>404.566801</ele>
        <time>2026-07-09T09:27:31.000Z</time>
      </trkpt>
      <trkpt lat="46.83957" lon="15.97687">
        <ele>404.86955</ele>
        <time>2026-07-09T09:27:33.000Z</time>
      </trkpt>
      <trkpt lat="46.83951" lon="15.97687">
        <ele>405.328702</ele>
        <time>2026-07-09T09:27:36.000Z</time>
      </trkpt>
      <trkpt lat="46.83942" lon="15.97685">
        <ele>406.083514</ele>
        <time>2026-07-09T09:27:42.000Z</time>
      </trkpt>
      <trkpt lat="46.8394" lon="15.97685">
        <ele>406.261295</ele>
        <time>2026-07-09T09:27:43.000Z</time>
      </trkpt>
      <trkpt lat="46.83932" lon="15.97688">
        <ele>406.917786</ele>
        <time>2026-07-09T09:27:48.000Z</time>
      </trkpt>
      <trkpt lat="46.83926" lon="15.97689">
        <ele>407.158052</ele>
        <time>2026-07-09T09:27:52.000Z</time>
      </trkpt>
      <trkpt lat="46.83924" lon="15.97688">
        <ele>407.228054</ele>
        <time>2026-07-09T09:27:54.000Z</time>
      </trkpt>
      <trkpt lat="46.83913" lon="15.9769">
        <ele>407.566492</ele>
        <time>2026-07-09T09:28:01.000Z</time>
      </trkpt>
      <trkpt lat="46.83906" lon="15.97693">
        <ele>407.807606</ele>
        <time>2026-07-09T09:28:06.000Z</time>
      </trkpt>
      <trkpt lat="46.83903" lon="15.97694">
        <ele>407.922846</ele>
        <time>2026-07-09T09:28:08.000Z</time>
      </trkpt>
      <trkpt lat="46.83898" lon="15.97693">
        <ele>408.061245</ele>
        <time>2026-07-09T09:28:11.000Z</time>
      </trkpt>
      <trkpt lat="46.83895" lon="15.97694">
        <ele>408.161583</ele>
        <time>2026-07-09T09:28:13.000Z</time>
      </trkpt>
      <trkpt lat="46.83892" lon="15.97695">
        <ele>408.265316</ele>
        <time>2026-07-09T09:28:15.000Z</time>
      </trkpt>
      <trkpt lat="46.83881" lon="15.97695">
        <ele>408.642775</ele>
        <time>2026-07-09T09:28:23.000Z</time>
      </trkpt>
      <trkpt lat="46.83863" lon="15.97696">
        <ele>409.209385</ele>
        <time>2026-07-09T09:28:33.000Z</time>
      </trkpt>
      <trkpt lat="46.83862" lon="15.97696">
        <ele>409.254504</ele>
        <time>2026-07-09T09:28:34.000Z</time>
      </trkpt>
      <trkpt lat="46.83855" lon="15.97694">
        <ele>409.458084</ele>
        <time>2026-07-09T09:28:38.000Z</time>
      </trkpt>
      <trkpt lat="46.83847" lon="15.97694">
        <ele>409.736379</ele>
        <time>2026-07-09T09:28:44.000Z</time>
      </trkpt>
      <trkpt lat="46.83833" lon="15.9769">
        <ele>410.181257</ele>
        <time>2026-07-09T09:28:53.000Z</time>
      </trkpt>
      <trkpt lat="46.83827" lon="15.9769">
        <ele>410.357531</ele>
        <time>2026-07-09T09:28:56.000Z</time>
      </trkpt>
      <trkpt lat="46.83822" lon="15.97689">
        <ele>410.527758</ele>
        <time>2026-07-09T09:28:59.000Z</time>
      </trkpt>
      <trkpt lat="46.83819" lon="15.97689">
        <ele>410.633681</ele>
        <time>2026-07-09T09:29:01.000Z</time>
      </trkpt>
      <trkpt lat="46.8381" lon="15.97685">
        <ele>410.940094</ele>
        <time>2026-07-09T09:29:08.000Z</time>
      </trkpt>
      <trkpt lat="46.83806" lon="15.97682">
        <ele>411.070604</ele>
        <time>2026-07-09T09:29:10.000Z</time>
      </trkpt>
      <trkpt lat="46.83793" lon="15.97676">
        <ele>411.517022</ele>
        <time>2026-07-09T09:29:16.000Z</time>
      </trkpt>
      <trkpt lat="46.83786" lon="15.97673">
        <ele>411.735674</ele>
        <time>2026-07-09T09:29:19.000Z</time>
      </trkpt>
      <trkpt lat="46.83778" lon="15.9767">
        <ele>412.006066</ele>
        <time>2026-07-09T09:29:23.000Z</time>
      </trkpt>
      <trkpt lat="46.83776" lon="15.97669">
        <ele>412.082823</ele>
        <time>2026-07-09T09:29:24.000Z</time>
      </trkpt>
      <trkpt lat="46.83764" lon="15.97664">
        <ele>412.490624</ele>
        <time>2026-07-09T09:29:29.000Z</time>
      </trkpt>
      <trkpt lat="46.83758" lon="15.97662">
        <ele>412.688498</ele>
        <time>2026-07-09T09:29:31.000Z</time>
      </trkpt>
      <trkpt lat="46.83737" lon="15.97651">
        <ele>411.90881</ele>
        <time>2026-07-09T09:29:36.000Z</time>
      </trkpt>
      <trkpt lat="46.83728" lon="15.97643">
        <ele>411.455849</ele>
        <time>2026-07-09T09:29:38.000Z</time>
      </trkpt>
      <trkpt lat="46.83723" lon="15.97639">
        <ele>411.229621</ele>
        <time>2026-07-09T09:29:39.000Z</time>
      </trkpt>
      <trkpt lat="46.83708" lon="15.97628">
        <ele>410.524176</ele>
        <time>2026-07-09T09:29:42.000Z</time>
      </trkpt>
      <trkpt lat="46.83672" lon="15.97604">
        <ele>408.890495</ele>
        <time>2026-07-09T09:29:48.000Z</time>
      </trkpt>
      <trkpt lat="46.83628" lon="15.97568">
        <ele>406.799918</ele>
        <time>2026-07-09T09:29:56.000Z</time>
      </trkpt>
      <trkpt lat="46.83598" lon="15.97537">
        <ele>405.304051</ele>
        <time>2026-07-09T09:30:03.000Z</time>
      </trkpt>
      <trkpt lat="46.83576" lon="15.97515">
        <ele>405.835266</ele>
        <time>2026-07-09T09:30:09.000Z</time>
      </trkpt>
      <trkpt lat="46.83563" lon="15.97504">
        <ele>406.136273</ele>
        <time>2026-07-09T09:30:14.000Z</time>
      </trkpt>
      <trkpt lat="46.83545" lon="15.97491">
        <ele>406.540747</ele>
        <time>2026-07-09T09:30:21.000Z</time>
      </trkpt>
      <trkpt lat="46.83526" lon="15.9748">
        <ele>406.951612</ele>
        <time>2026-07-09T09:30:29.000Z</time>
      </trkpt>
      <trkpt lat="46.83506" lon="15.97471">
        <ele>407.375255</ele>
        <time>2026-07-09T09:30:38.000Z</time>
      </trkpt>
      <trkpt lat="46.83495" lon="15.97467">
        <ele>407.617757</ele>
        <time>2026-07-09T09:30:42.000Z</time>
      </trkpt>
      <trkpt lat="46.83482" lon="15.97463">
        <ele>407.881614</ele>
        <time>2026-07-09T09:30:46.000Z</time>
      </trkpt>
      <trkpt lat="46.83459" lon="15.97457">
        <ele>408.348343</ele>
        <time>2026-07-09T09:30:53.000Z</time>
      </trkpt>
      <trkpt lat="46.83456" lon="15.97456">
        <ele>408.423831</ele>
        <time>2026-07-09T09:30:54.000Z</time>
      </trkpt>
      <trkpt lat="46.83432" lon="15.97448">
        <ele>408.917785</ele>
        <time>2026-07-09T09:31:01.000Z</time>
      </trkpt>
      <trkpt lat="46.83425" lon="15.97446">
        <ele>408.957391</ele>
        <time>2026-07-09T09:31:03.000Z</time>
      </trkpt>
      <trkpt lat="46.83397" lon="15.97431">
        <ele>409.070307</ele>
        <time>2026-07-09T09:31:11.000Z</time>
      </trkpt>
      <trkpt lat="46.83375" lon="15.97428">
        <ele>409.150198</ele>
        <time>2026-07-09T09:31:17.000Z</time>
      </trkpt>
      <trkpt lat="46.83355" lon="15.97428">
        <ele>409.226751</ele>
        <time>2026-07-09T09:31:23.000Z</time>
      </trkpt>
      <trkpt lat="46.83333" lon="15.97428">
        <ele>409.307767</ele>
        <time>2026-07-09T09:31:30.000Z</time>
      </trkpt>
      <trkpt lat="46.83319" lon="15.97428">
        <ele>409.358684</ele>
        <time>2026-07-09T09:31:35.000Z</time>
      </trkpt>
      <trkpt lat="46.83301" lon="15.97426">
        <ele>409.427621</ele>
        <time>2026-07-09T09:31:41.000Z</time>
      </trkpt>
      <trkpt lat="46.83297" lon="15.97425">
        <ele>409.440296</ele>
        <time>2026-07-09T09:31:42.000Z</time>
      </trkpt>
      <trkpt lat="46.83273" lon="15.97424">
        <ele>409.532121</ele>
        <time>2026-07-09T09:31:50.000Z</time>
      </trkpt>
      <trkpt lat="46.83253" lon="15.97426">
        <ele>409.610292</ele>
        <time>2026-07-09T09:31:55.000Z</time>
      </trkpt>
      <trkpt lat="46.83246" lon="15.97425">
        <ele>409.930268</ele>
        <time>2026-07-09T09:31:57.000Z</time>
      </trkpt>
      <trkpt lat="46.83238" lon="15.97425">
        <ele>410.269255</ele>
        <time>2026-07-09T09:31:59.000Z</time>
      </trkpt>
      <trkpt lat="46.83232" lon="15.97423">
        <ele>410.552271</ele>
        <time>2026-07-09T09:32:01.000Z</time>
      </trkpt>
      <trkpt lat="46.83222" lon="15.97418">
        <ele>411.017174</ele>
        <time>2026-07-09T09:32:04.000Z</time>
      </trkpt>
      <trkpt lat="46.83209" lon="15.97414">
        <ele>411.589022</ele>
        <time>2026-07-09T09:32:09.000Z</time>
      </trkpt>
      <trkpt lat="46.83206" lon="15.97414">
        <ele>411.735731</ele>
        <time>2026-07-09T09:32:10.000Z</time>
      </trkpt>
      <trkpt lat="46.83192" lon="15.97413">
        <ele>412.3303</ele>
        <time>2026-07-09T09:32:15.000Z</time>
      </trkpt>
      <trkpt lat="46.83171" lon="15.97407">
        <ele>413.29331</ele>
        <time>2026-07-09T09:32:23.000Z</time>
      </trkpt>
      <trkpt lat="46.83155" lon="15.97398">
        <ele>414.028994</ele>
        <time>2026-07-09T09:32:29.000Z</time>
      </trkpt>
      <trkpt lat="46.83149" lon="15.97398">
        <ele>414.310635</ele>
        <time>2026-07-09T09:32:32.000Z</time>
      </trkpt>
      <trkpt lat="46.83147" lon="15.97397">
        <ele>414.409837</ele>
        <time>2026-07-09T09:32:33.000Z</time>
      </trkpt>
      <trkpt lat="46.83138" lon="15.97399">
        <ele>414.813855</ele>
        <time>2026-07-09T09:32:37.000Z</time>
      </trkpt>
      <trkpt lat="46.83133" lon="15.97411">
        <ele>415.243736</ele>
        <time>2026-07-09T09:32:41.000Z</time>
      </trkpt>
      <trkpt lat="46.83133" lon="15.97412">
        <ele>415.272219</ele>
        <time>2026-07-09T09:32:42.000Z</time>
      </trkpt>
      <trkpt lat="46.83133" lon="15.97412">
        <ele>415.281519</ele>
        <time>2026-07-09T09:32:43.000Z</time>
      </trkpt>
      <trkpt lat="46.83133" lon="15.97412">
        <ele>415.294128</ele>
        <time>2026-07-09T09:32:44.000Z</time>
      </trkpt>
      <trkpt lat="46.83139" lon="15.9741">
        <ele>415.535724</ele>
        <time>2026-07-09T09:34:09.000Z</time>
      </trkpt>
      <trkpt lat="46.83138" lon="15.97411">
        <ele>415.58738</ele>
        <time>2026-07-09T09:34:10.000Z</time>
      </trkpt>
      <trkpt lat="46.83136" lon="15.97411">
        <ele>415.641532</ele>
        <time>2026-07-09T09:34:11.000Z</time>
      </trkpt>
      <trkpt lat="46.83136" lon="15.97432">
        <ele>416.285734</ele>
        <time>2026-07-09T09:34:37.000Z</time>
      </trkpt>
      <trkpt lat="46.83136" lon="15.97433">
        <ele>416.320631</ele>
        <time>2026-07-09T09:34:38.000Z</time>
      </trkpt>
      <trkpt lat="46.83135" lon="15.97434">
        <ele>416.355527</ele>
        <time>2026-07-09T09:34:39.000Z</time>
      </trkpt>
      <trkpt lat="46.83139" lon="15.97397">
        <ele>417.505247</ele>
        <time>2026-07-09T09:36:44.000Z</time>
      </trkpt>
      <trkpt lat="46.8314" lon="15.97392">
        <ele>417.326553</ele>
        <time>2026-07-09T09:36:46.000Z</time>
      </trkpt>
      <trkpt lat="46.83139" lon="15.97384">
        <ele>416.954617</ele>
        <time>2026-07-09T09:36:52.000Z</time>
      </trkpt>
      <trkpt lat="46.83141" lon="15.97377">
        <ele>416.617781</ele>
        <time>2026-07-09T09:37:04.000Z</time>
      </trkpt>
      <trkpt lat="46.83142" lon="15.97373">
        <ele>416.429023</ele>
        <time>2026-07-09T09:37:06.000Z</time>
      </trkpt>
      <trkpt lat="46.83142" lon="15.9737">
        <ele>416.27025</ele>
        <time>2026-07-09T09:37:08.000Z</time>
      </trkpt>
      <trkpt lat="46.83141" lon="15.97372">
        <ele>416.141582</ele>
        <time>2026-07-09T09:37:42.000Z</time>
      </trkpt>
      <trkpt lat="46.83141" lon="15.97374">
        <ele>416.064531</ele>
        <time>2026-07-09T09:37:43.000Z</time>
      </trkpt>
      <trkpt lat="46.83142" lon="15.97376">
        <ele>415.955551</ele>
        <time>2026-07-09T09:37:45.000Z</time>
      </trkpt>
      <trkpt lat="46.83137" lon="15.97392">
        <ele>415.197468</ele>
        <time>2026-07-09T09:39:32.000Z</time>
      </trkpt>
      <trkpt lat="46.83135" lon="15.9739">
        <ele>415.020784</ele>
        <time>2026-07-09T09:39:33.000Z</time>
      </trkpt>
      <trkpt lat="46.83118" lon="15.97384">
        <ele>413.848239</ele>
        <time>2026-07-09T09:39:38.000Z</time>
      </trkpt>
      <trkpt lat="46.83096" lon="15.97379">
        <ele>412.414595</ele>
        <time>2026-07-09T09:39:43.000Z</time>
      </trkpt>
      <trkpt lat="46.83075" lon="15.97375">
        <ele>410.997274</ele>
        <time>2026-07-09T09:39:47.000Z</time>
      </trkpt>
      <trkpt lat="46.83066" lon="15.97375">
        <ele>410.394255</ele>
        <time>2026-07-09T09:39:49.000Z</time>
      </trkpt>
      <trkpt lat="46.83055" lon="15.9737">
        <ele>409.666752</ele>
        <time>2026-07-09T09:39:52.000Z</time>
      </trkpt>
      <trkpt lat="46.83053" lon="15.97368">
        <ele>409.484427</ele>
        <time>2026-07-09T09:39:53.000Z</time>
      </trkpt>
      <trkpt lat="46.83051" lon="15.97364">
        <ele>409.269998</ele>
        <time>2026-07-09T09:39:54.000Z</time>
      </trkpt>
      <trkpt lat="46.83047" lon="15.97354">
        <ele>408.708842</ele>
        <time>2026-07-09T09:39:56.000Z</time>
      </trkpt>
      <trkpt lat="46.83042" lon="15.97342">
        <ele>408.078804</ele>
        <time>2026-07-09T09:39:58.000Z</time>
      </trkpt>
      <trkpt lat="46.83034" lon="15.97331">
        <ele>407.369516</ele>
        <time>2026-07-09T09:40:00.000Z</time>
      </trkpt>
      <trkpt lat="46.83029" lon="15.97328">
        <ele>406.996168</ele>
        <time>2026-07-09T09:40:01.000Z</time>
      </trkpt>
      <trkpt lat="46.83018" lon="15.97321">
        <ele>406.229269</ele>
        <time>2026-07-09T09:40:03.000Z</time>
      </trkpt>
      <trkpt lat="46.83008" lon="15.97318">
        <ele>405.536854</ele>
        <time>2026-07-09T09:40:05.000Z</time>
      </trkpt>
      <trkpt lat="46.82999" lon="15.97322">
        <ele>404.242984</ele>
        <time>2026-07-09T09:40:07.000Z</time>
      </trkpt>
      <trkpt lat="46.82996" lon="15.97327">
        <ele>403.567433</ele>
        <time>2026-07-09T09:40:08.000Z</time>
      </trkpt>
      <trkpt lat="46.82994" lon="15.97333">
        <ele>402.932476</ele>
        <time>2026-07-09T09:40:09.000Z</time>
      </trkpt>
      <trkpt lat="46.82988" lon="15.97346">
        <ele>401.503854</ele>
        <time>2026-07-09T09:40:12.000Z</time>
      </trkpt>
      <trkpt lat="46.82984" lon="15.97357">
        <ele>400.209614</ele>
        <time>2026-07-09T09:40:16.000Z</time>
      </trkpt>
      <trkpt lat="46.82983" lon="15.97361">
        <ele>399.890135</ele>
        <time>2026-07-09T09:40:17.000Z</time>
      </trkpt>
      <trkpt lat="46.82981" lon="15.97368">
        <ele>399.158024</ele>
        <time>2026-07-09T09:40:19.000Z</time>
      </trkpt>
      <trkpt lat="46.82979" lon="15.97371">
        <ele>398.773665</ele>
        <time>2026-07-09T09:40:20.000Z</time>
      </trkpt>
      <trkpt lat="46.82978" lon="15.97376">
        <ele>398.302409</ele>
        <time>2026-07-09T09:40:21.000Z</time>
      </trkpt>
      <trkpt lat="46.82973" lon="15.97406">
        <ele>395.317877</ele>
        <time>2026-07-09T09:40:26.000Z</time>
      </trkpt>
      <trkpt lat="46.82957" lon="15.97437">
        <ele>391.626328</ele>
        <time>2026-07-09T09:40:30.000Z</time>
      </trkpt>
      <trkpt lat="46.82953" lon="15.97446">
        <ele>390.560546</ele>
        <time>2026-07-09T09:40:31.000Z</time>
      </trkpt>
      <trkpt lat="46.82926" lon="15.97499">
        <ele>384.409785</ele>
        <time>2026-07-09T09:40:36.000Z</time>
      </trkpt>
      <trkpt lat="46.8292" lon="15.97512">
        <ele>382.882829</ele>
        <time>2026-07-09T09:40:37.000Z</time>
      </trkpt>
      <trkpt lat="46.82909" lon="15.97538">
        <ele>380.309629</ele>
        <time>2026-07-09T09:40:39.000Z</time>
      </trkpt>
      <trkpt lat="46.82903" lon="15.97547">
        <ele>379.707475</ele>
        <time>2026-07-09T09:40:40.000Z</time>
      </trkpt>
      <trkpt lat="46.82894" lon="15.97565">
        <ele>378.640155</ele>
        <time>2026-07-09T09:40:42.000Z</time>
      </trkpt>
      <trkpt lat="46.82889" lon="15.97573">
        <ele>378.131124</ele>
        <time>2026-07-09T09:40:43.000Z</time>
      </trkpt>
      <trkpt lat="46.82878" lon="15.97592">
        <ele>376.945756</ele>
        <time>2026-07-09T09:40:46.000Z</time>
      </trkpt>
      <trkpt lat="46.82873" lon="15.97595">
        <ele>376.609003</ele>
        <time>2026-07-09T09:40:47.000Z</time>
      </trkpt>
      <trkpt lat="46.82869" lon="15.97597">
        <ele>376.266676</ele>
        <time>2026-07-09T09:40:48.000Z</time>
      </trkpt>
      <trkpt lat="46.82854" lon="15.976">
        <ele>375.219678</ele>
        <time>2026-07-09T09:40:51.000Z</time>
      </trkpt>
      <trkpt lat="46.82843" lon="15.97602">
        <ele>374.461406</ele>
        <time>2026-07-09T09:40:53.000Z</time>
      </trkpt>
      <trkpt lat="46.82832" lon="15.97603">
        <ele>373.729656</ele>
        <time>2026-07-09T09:40:55.000Z</time>
      </trkpt>
      <trkpt lat="46.8281" lon="15.97603">
        <ele>372.162444</ele>
        <time>2026-07-09T09:40:59.000Z</time>
      </trkpt>
      <trkpt lat="46.82762" lon="15.97607">
        <ele>368.840313</ele>
        <time>2026-07-09T09:41:07.000Z</time>
      </trkpt>
      <trkpt lat="46.82718" lon="15.97619">
        <ele>367.226825</ele>
        <time>2026-07-09T09:41:14.000Z</time>
      </trkpt>
      <trkpt lat="46.82699" lon="15.97624">
        <ele>366.73256</ele>
        <time>2026-07-09T09:41:17.000Z</time>
      </trkpt>
      <trkpt lat="46.82687" lon="15.97626">
        <ele>366.418926</ele>
        <time>2026-07-09T09:41:19.000Z</time>
      </trkpt>
      <trkpt lat="46.82677" lon="15.97632">
        <ele>366.137713</ele>
        <time>2026-07-09T09:41:21.000Z</time>
      </trkpt>
      <trkpt lat="46.82673" lon="15.97636">
        <ele>366.017387</ele>
        <time>2026-07-09T09:41:22.000Z</time>
      </trkpt>
      <trkpt lat="46.82671" lon="15.97641">
        <ele>365.897393</ele>
        <time>2026-07-09T09:41:23.000Z</time>
      </trkpt>
      <trkpt lat="46.82666" lon="15.97655">
        <ele>365.624226</ele>
        <time>2026-07-09T09:41:25.000Z</time>
      </trkpt>
      <trkpt lat="46.82664" lon="15.97664">
        <ele>365.458553</ele>
        <time>2026-07-09T09:41:26.000Z</time>
      </trkpt>
      <trkpt lat="46.82651" lon="15.97697">
        <ele>364.79816</ele>
        <time>2026-07-09T09:41:29.000Z</time>
      </trkpt>
      <trkpt lat="46.82628" lon="15.97749">
        <ele>363.697381</ele>
        <time>2026-07-09T09:41:33.000Z</time>
      </trkpt>
      <trkpt lat="46.826" lon="15.97819">
        <ele>360.149215</ele>
        <time>2026-07-09T09:41:38.000Z</time>
      </trkpt>
      <trkpt lat="46.82595" lon="15.97833">
        <ele>359.354535</ele>
        <time>2026-07-09T09:41:39.000Z</time>
      </trkpt>
      <trkpt lat="46.82569" lon="15.97904">
        <ele>355.501359</ele>
        <time>2026-07-09T09:41:44.000Z</time>
      </trkpt>
      <trkpt lat="46.82561" lon="15.97932">
        <ele>354.026788</ele>
        <time>2026-07-09T09:41:46.000Z</time>
      </trkpt>
      <trkpt lat="46.82542" lon="15.97985">
        <ele>351.126888</ele>
        <time>2026-07-09T09:41:50.000Z</time>
      </trkpt>
      <trkpt lat="46.82514" lon="15.98018">
        <ele>349.339932</ele>
        <time>2026-07-09T09:41:54.000Z</time>
      </trkpt>
      <trkpt lat="46.82468" lon="15.98052">
        <ele>346.979515</ele>
        <time>2026-07-09T09:42:00.000Z</time>
      </trkpt>
      <trkpt lat="46.82429" lon="15.9807">
        <ele>345.069897</ele>
        <time>2026-07-09T09:42:04.000Z</time>
      </trkpt>
      <trkpt lat="46.8239" lon="15.98075">
        <ele>343.272374</ele>
        <time>2026-07-09T09:42:08.000Z</time>
      </trkpt>
      <trkpt lat="46.82354" lon="15.98095">
        <ele>341.475423</ele>
        <time>2026-07-09T09:42:12.000Z</time>
      </trkpt>
      <trkpt lat="46.82298" lon="15.98129">
        <ele>338.653805</ele>
        <time>2026-07-09T09:42:18.000Z</time>
      </trkpt>
      <trkpt lat="46.82288" lon="15.98135">
        <ele>338.162555</ele>
        <time>2026-07-09T09:42:19.000Z</time>
      </trkpt>
      <trkpt lat="46.82281" lon="15.9814">
        <ele>337.765242</ele>
        <time>2026-07-09T09:42:20.000Z</time>
      </trkpt>
      <trkpt lat="46.82227" lon="15.98173">
        <ele>335.048466</ele>
        <time>2026-07-09T09:42:25.000Z</time>
      </trkpt>
      <trkpt lat="46.82172" lon="15.98199">
        <ele>332.518196</ele>
        <time>2026-07-09T09:42:30.000Z</time>
      </trkpt>
      <trkpt lat="46.82139" lon="15.98218">
        <ele>331.060836</ele>
        <time>2026-07-09T09:42:33.000Z</time>
      </trkpt>
      <trkpt lat="46.821" lon="15.98244">
        <ele>329.248743</ele>
        <time>2026-07-09T09:42:37.000Z</time>
      </trkpt>
      <trkpt lat="46.82042" lon="15.9828">
        <ele>326.601074</ele>
        <time>2026-07-09T09:42:43.000Z</time>
      </trkpt>
      <trkpt lat="46.82006" lon="15.98316">
        <ele>325.558505</ele>
        <time>2026-07-09T09:42:48.000Z</time>
      </trkpt>
      <trkpt lat="46.81973" lon="15.98352">
        <ele>324.608724</ele>
        <time>2026-07-09T09:42:53.000Z</time>
      </trkpt>
      <trkpt lat="46.81938" lon="15.98389">
        <ele>323.616298</ele>
        <time>2026-07-09T09:42:58.000Z</time>
      </trkpt>
      <trkpt lat="46.81902" lon="15.9842">
        <ele>322.651845</ele>
        <time>2026-07-09T09:43:02.000Z</time>
      </trkpt>
      <trkpt lat="46.81869" lon="15.98448">
        <ele>321.538474</ele>
        <time>2026-07-09T09:43:06.000Z</time>
      </trkpt>
      <trkpt lat="46.81824" lon="15.98499">
        <ele>319.708778</ele>
        <time>2026-07-09T09:43:12.000Z</time>
      </trkpt>
      <trkpt lat="46.81817" lon="15.98508">
        <ele>319.418308</ele>
        <time>2026-07-09T09:43:13.000Z</time>
      </trkpt>
      <trkpt lat="46.81792" lon="15.98546">
        <ele>318.282574</ele>
        <time>2026-07-09T09:43:17.000Z</time>
      </trkpt>
      <trkpt lat="46.81769" lon="15.98582">
        <ele>317.193471</ele>
        <time>2026-07-09T09:43:21.000Z</time>
      </trkpt>
      <trkpt lat="46.81755" lon="15.98606">
        <ele>316.520288</ele>
        <time>2026-07-09T09:43:24.000Z</time>
      </trkpt>
      <trkpt lat="46.81731" lon="15.98647">
        <ele>315.481894</ele>
        <time>2026-07-09T09:43:29.000Z</time>
      </trkpt>
      <trkpt lat="46.8172" lon="15.98665">
        <ele>315.029261</ele>
        <time>2026-07-09T09:43:31.000Z</time>
      </trkpt>
      <trkpt lat="46.81682" lon="15.98727">
        <ele>313.441077</ele>
        <time>2026-07-09T09:43:37.000Z</time>
      </trkpt>
      <trkpt lat="46.81651" lon="15.98792">
        <ele>311.914831</ele>
        <time>2026-07-09T09:43:43.000Z</time>
      </trkpt>
      <trkpt lat="46.81622" lon="15.98843">
        <ele>311.306834</ele>
        <time>2026-07-09T09:43:49.000Z</time>
      </trkpt>
      <trkpt lat="46.81594" lon="15.98883">
        <ele>310.968599</ele>
        <time>2026-07-09T09:43:55.000Z</time>
      </trkpt>
      <trkpt lat="46.81561" lon="15.98917">
        <ele>310.61468</ele>
        <time>2026-07-09T09:44:02.000Z</time>
      </trkpt>
      <trkpt lat="46.81547" lon="15.98929">
        <ele>310.471788</ele>
        <time>2026-07-09T09:44:05.000Z</time>
      </trkpt>
      <trkpt lat="46.81539" lon="15.98935">
        <ele>310.390878</ele>
        <time>2026-07-09T09:44:07.000Z</time>
      </trkpt>
      <trkpt lat="46.81524" lon="15.98946">
        <ele>310.244809</ele>
        <time>2026-07-09T09:44:10.000Z</time>
      </trkpt>
      <trkpt lat="46.8151" lon="15.98956">
        <ele>310.107107</ele>
        <time>2026-07-09T09:44:13.000Z</time>
      </trkpt>
      <trkpt lat="46.81481" lon="15.98972">
        <ele>309.784979</ele>
        <time>2026-07-09T09:44:19.000Z</time>
      </trkpt>
      <trkpt lat="46.81446" lon="15.98993">
        <ele>309.377353</ele>
        <time>2026-07-09T09:44:26.000Z</time>
      </trkpt>
      <trkpt lat="46.81406" lon="15.9902">
        <ele>308.89584</ele>
        <time>2026-07-09T09:44:34.000Z</time>
      </trkpt>
      <trkpt lat="46.81369" lon="15.99056">
        <ele>308.409561</ele>
        <time>2026-07-09T09:44:42.000Z</time>
      </trkpt>
      <trkpt lat="46.81357" lon="15.99086">
        <ele>308.160139</ele>
        <time>2026-07-09T09:44:45.000Z</time>
      </trkpt>
      <trkpt lat="46.81348" lon="15.99118">
        <ele>307.617091</ele>
        <time>2026-07-09T09:44:48.000Z</time>
      </trkpt>
      <trkpt lat="46.81343" lon="15.99127">
        <ele>307.390926</ele>
        <time>2026-07-09T09:44:49.000Z</time>
      </trkpt>
      <trkpt lat="46.81338" lon="15.99136">
        <ele>307.161647</ele>
        <time>2026-07-09T09:44:50.000Z</time>
      </trkpt>
      <trkpt lat="46.8132" lon="15.9916">
        <ele>306.466767</ele>
        <time>2026-07-09T09:44:53.000Z</time>
      </trkpt>
      <trkpt lat="46.81281" lon="15.99197">
        <ele>305.158632</ele>
        <time>2026-07-09T09:44:59.000Z</time>
      </trkpt>
      <trkpt lat="46.81236" lon="15.99251">
        <ele>303.514866</ele>
        <time>2026-07-09T09:45:07.000Z</time>
      </trkpt>
      <trkpt lat="46.81216" lon="15.993">
        <ele>302.210575</ele>
        <time>2026-07-09T09:45:13.000Z</time>
      </trkpt>
      <trkpt lat="46.81203" lon="15.99323">
        <ele>301.458783</ele>
        <time>2026-07-09T09:45:16.000Z</time>
      </trkpt>
      <trkpt lat="46.81192" lon="15.99337">
        <ele>300.909026</ele>
        <time>2026-07-09T09:45:18.000Z</time>
      </trkpt>
      <trkpt lat="46.81154" lon="15.99384">
        <ele>299.08668</ele>
        <time>2026-07-09T09:45:24.000Z</time>
      </trkpt>
      <trkpt lat="46.81106" lon="15.99439">
        <ele>296.813592</ele>
        <time>2026-07-09T09:45:31.000Z</time>
      </trkpt>
      <trkpt lat="46.81058" lon="15.99478">
        <ele>295.119967</ele>
        <time>2026-07-09T09:45:37.000Z</time>
      </trkpt>
      <trkpt lat="46.8105" lon="15.99484">
        <ele>294.850747</ele>
        <time>2026-07-09T09:45:38.000Z</time>
      </trkpt>
      <trkpt lat="46.81008" lon="15.99511">
        <ele>293.498316</ele>
        <time>2026-07-09T09:45:43.000Z</time>
      </trkpt>
      <trkpt lat="46.80999" lon="15.99515">
        <ele>293.228074</ele>
        <time>2026-07-09T09:45:44.000Z</time>
      </trkpt>
      <trkpt lat="46.80981" lon="15.99521">
        <ele>292.684613</ele>
        <time>2026-07-09T09:45:46.000Z</time>
      </trkpt>
      <trkpt lat="46.80953" lon="15.99527">
        <ele>291.869621</ele>
        <time>2026-07-09T09:45:49.000Z</time>
      </trkpt>
      <trkpt lat="46.80906" lon="15.99534">
        <ele>290.13053</ele>
        <time>2026-07-09T09:45:54.000Z</time>
      </trkpt>
      <trkpt lat="46.80886" lon="15.99537">
        <ele>289.186119</ele>
        <time>2026-07-09T09:45:56.000Z</time>
      </trkpt>
      <trkpt lat="46.80835" lon="15.99541">
        <ele>286.753477</ele>
        <time>2026-07-09T09:46:01.000Z</time>
      </trkpt>
      <trkpt lat="46.80804" lon="15.99539">
        <ele>285.289876</ele>
        <time>2026-07-09T09:46:04.000Z</time>
      </trkpt>
      <trkpt lat="46.80782" lon="15.99538">
        <ele>284.269698</ele>
        <time>2026-07-09T09:46:06.000Z</time>
      </trkpt>
      <trkpt lat="46.80771" lon="15.99537">
        <ele>283.736095</ele>
        <time>2026-07-09T09:46:07.000Z</time>
      </trkpt>
      <trkpt lat="46.8076" lon="15.99536">
        <ele>283.202051</ele>
        <time>2026-07-09T09:46:08.000Z</time>
      </trkpt>
      <trkpt lat="46.80705" lon="15.99524">
        <ele>280.296013</ele>
        <time>2026-07-09T09:46:13.000Z</time>
      </trkpt>
      <trkpt lat="46.80693" lon="15.99518">
        <ele>279.587118</ele>
        <time>2026-07-09T09:46:14.000Z</time>
      </trkpt>
      <trkpt lat="46.80675" lon="15.99505">
        <ele>278.479189</ele>
        <time>2026-07-09T09:46:16.000Z</time>
      </trkpt>
      <trkpt lat="46.80661" lon="15.99487">
        <ele>277.456344</ele>
        <time>2026-07-09T09:46:18.000Z</time>
      </trkpt>
      <trkpt lat="46.80655" lon="15.99476">
        <ele>276.960789</ele>
        <time>2026-07-09T09:46:19.000Z</time>
      </trkpt>
      <trkpt lat="46.80651" lon="15.99466">
        <ele>276.49038</ele>
        <time>2026-07-09T09:46:20.000Z</time>
      </trkpt>
      <trkpt lat="46.80645" lon="15.99447">
        <ele>275.726228</ele>
        <time>2026-07-09T09:46:22.000Z</time>
      </trkpt>
      <trkpt lat="46.80643" lon="15.99441">
        <ele>275.453707</ele>
        <time>2026-07-09T09:46:23.000Z</time>
      </trkpt>
      <trkpt lat="46.80639" lon="15.99437">
        <ele>275.219322</ele>
        <time>2026-07-09T09:46:24.000Z</time>
      </trkpt>
      <trkpt lat="46.80636" lon="15.99436">
        <ele>275.026755</ele>
        <time>2026-07-09T09:46:25.000Z</time>
      </trkpt>
      <trkpt lat="46.80633" lon="15.99439">
        <ele>274.848993</ele>
        <time>2026-07-09T09:46:26.000Z</time>
      </trkpt>
      <trkpt lat="46.80632" lon="15.99444">
        <ele>274.634447</ele>
        <time>2026-07-09T09:46:27.000Z</time>
      </trkpt>
      <trkpt lat="46.80633" lon="15.99459">
        <ele>274.087659</ele>
        <time>2026-07-09T09:46:29.000Z</time>
      </trkpt>
      <trkpt lat="46.80638" lon="15.99497">
        <ele>272.687126</ele>
        <time>2026-07-09T09:46:35.000Z</time>
      </trkpt>
      <trkpt lat="46.80635" lon="15.99505">
        <ele>272.597937</ele>
        <time>2026-07-09T09:46:37.000Z</time>
      </trkpt>
      <trkpt lat="46.80632" lon="15.99507">
        <ele>272.551719</ele>
        <time>2026-07-09T09:46:38.000Z</time>
      </trkpt>
      <trkpt lat="46.8062" lon="15.99509">
        <ele>272.378782</ele>
        <time>2026-07-09T09:46:41.000Z</time>
      </trkpt>
      <trkpt lat="46.80615" lon="15.99508">
        <ele>272.312227</ele>
        <time>2026-07-09T09:46:42.000Z</time>
      </trkpt>
      <trkpt lat="46.80604" lon="15.99505">
        <ele>272.166438</ele>
        <time>2026-07-09T09:46:44.000Z</time>
      </trkpt>
      <trkpt lat="46.80595" lon="15.99502">
        <ele>272.035656</ele>
        <time>2026-07-09T09:46:46.000Z</time>
      </trkpt>
      <trkpt lat="46.80586" lon="15.99496">
        <ele>271.903767</ele>
        <time>2026-07-09T09:46:48.000Z</time>
      </trkpt>
      <trkpt lat="46.8057" lon="15.99487">
        <ele>271.664733</ele>
        <time>2026-07-09T09:46:52.000Z</time>
      </trkpt>
      <trkpt lat="46.80563" lon="15.99481">
        <ele>271.551658</ele>
        <time>2026-07-09T09:46:54.000Z</time>
      </trkpt>
      <trkpt lat="46.80553" lon="15.99468">
        <ele>271.364466</ele>
        <time>2026-07-09T09:46:57.000Z</time>
      </trkpt>
      <trkpt lat="46.80545" lon="15.99457">
        <ele>271.217586</ele>
        <time>2026-07-09T09:46:59.000Z</time>
      </trkpt>
      <trkpt lat="46.80536" lon="15.99439">
        <ele>271.013287</ele>
        <time>2026-07-09T09:47:02.000Z</time>
      </trkpt>
      <trkpt lat="46.80528" lon="15.99416">
        <ele>270.757819</ele>
        <time>2026-07-09T09:47:06.000Z</time>
      </trkpt>
      <trkpt lat="46.80522" lon="15.99405">
        <ele>270.629441</ele>
        <time>2026-07-09T09:47:08.000Z</time>
      </trkpt>
      <trkpt lat="46.80514" lon="15.99386">
        <ele>270.427229</ele>
        <time>2026-07-09T09:47:11.000Z</time>
      </trkpt>
      <trkpt lat="46.80513" lon="15.99381">
        <ele>270.3687</ele>
        <time>2026-07-09T09:47:12.000Z</time>
      </trkpt>
      <trkpt lat="46.80483" lon="15.99337">
        <ele>269.806846</ele>
        <time>2026-07-09T09:47:20.000Z</time>
      </trkpt>
      <trkpt lat="46.8045" lon="15.99298">
        <ele>269.225504</ele>
        <time>2026-07-09T09:47:28.000Z</time>
      </trkpt>
      <trkpt lat="46.80426" lon="15.99278">
        <ele>268.854848</ele>
        <time>2026-07-09T09:47:33.000Z</time>
      </trkpt>
      <trkpt lat="46.80416" lon="15.9927">
        <ele>268.70332</ele>
        <time>2026-07-09T09:47:35.000Z</time>
      </trkpt>
      <trkpt lat="46.80402" lon="15.99262">
        <ele>268.502266</ele>
        <time>2026-07-09T09:47:38.000Z</time>
      </trkpt>
      <trkpt lat="46.80388" lon="15.99254">
        <ele>268.302855</ele>
        <time>2026-07-09T09:47:41.000Z</time>
      </trkpt>
      <trkpt lat="46.80357" lon="15.9924">
        <ele>267.865643</ele>
        <time>2026-07-09T09:47:47.000Z</time>
      </trkpt>
      <trkpt lat="46.80313" lon="15.99224">
        <ele>267.212161</ele>
        <time>2026-07-09T09:47:55.000Z</time>
      </trkpt>
      <trkpt lat="46.80302" lon="15.99224">
        <ele>267.049072</ele>
        <time>2026-07-09T09:47:57.000Z</time>
      </trkpt>
      <trkpt lat="46.80286" lon="15.99221">
        <ele>266.809507</ele>
        <time>2026-07-09T09:48:00.000Z</time>
      </trkpt>
      <trkpt lat="46.80269" lon="15.9922">
        <ele>266.561884</ele>
        <time>2026-07-09T09:48:03.000Z</time>
      </trkpt>
      <trkpt lat="46.80253" lon="15.9922">
        <ele>266.324682</ele>
        <time>2026-07-09T09:48:06.000Z</time>
      </trkpt>
      <trkpt lat="46.80222" lon="15.99218">
        <ele>265.881765</ele>
        <time>2026-07-09T09:48:12.000Z</time>
      </trkpt>
      <trkpt lat="46.80211" lon="15.99218">
        <ele>265.726058</ele>
        <time>2026-07-09T09:48:14.000Z</time>
      </trkpt>
      <trkpt lat="46.80186" lon="15.99225">
        <ele>265.343645</ele>
        <time>2026-07-09T09:48:19.000Z</time>
      </trkpt>
      <trkpt lat="46.8018" lon="15.99227">
        <ele>265.264891</ele>
        <time>2026-07-09T09:48:20.000Z</time>
      </trkpt>
      <trkpt lat="46.80149" lon="15.9924">
        <ele>264.880364</ele>
        <time>2026-07-09T09:48:26.000Z</time>
      </trkpt>
      <trkpt lat="46.80144" lon="15.99242">
        <ele>264.819852</ele>
        <time>2026-07-09T09:48:27.000Z</time>
      </trkpt>
      <trkpt lat="46.8011" lon="15.99255">
        <ele>264.412798</ele>
        <time>2026-07-09T09:48:34.000Z</time>
      </trkpt>
      <trkpt lat="46.80105" lon="15.99257">
        <ele>264.351783</ele>
        <time>2026-07-09T09:48:35.000Z</time>
      </trkpt>
      <trkpt lat="46.80089" lon="15.99263">
        <ele>264.169876</ele>
        <time>2026-07-09T09:48:38.000Z</time>
      </trkpt>
      <trkpt lat="46.80081" lon="15.99268">
        <ele>264.064179</ele>
        <time>2026-07-09T09:48:40.000Z</time>
      </trkpt>
      <trkpt lat="46.80076" lon="15.9927">
        <ele>264.0104</ele>
        <time>2026-07-09T09:48:41.000Z</time>
      </trkpt>
      <trkpt lat="46.80072" lon="15.99272">
        <ele>263.955141</ele>
        <time>2026-07-09T09:48:42.000Z</time>
      </trkpt>
      <trkpt lat="46.80051" lon="15.99277">
        <ele>263.721677</ele>
        <time>2026-07-09T09:48:46.000Z</time>
      </trkpt>
      <trkpt lat="46.80026" lon="15.99282">
        <ele>263.427887</ele>
        <time>2026-07-09T09:48:51.000Z</time>
      </trkpt>
      <trkpt lat="46.80009" lon="15.9928">
        <ele>263.23506</ele>
        <time>2026-07-09T09:48:54.000Z</time>
      </trkpt>
      <trkpt lat="46.79988" lon="15.99281">
        <ele>263.145266</ele>
        <time>2026-07-09T09:48:58.000Z</time>
      </trkpt>
      <trkpt lat="46.79972" lon="15.99282">
        <ele>263.15532</ele>
        <time>2026-07-09T09:49:01.000Z</time>
      </trkpt>
      <trkpt lat="46.7995" lon="15.99279">
        <ele>263.169015</ele>
        <time>2026-07-09T09:49:05.000Z</time>
      </trkpt>
      <trkpt lat="46.79945" lon="15.99278">
        <ele>263.17233</ele>
        <time>2026-07-09T09:49:06.000Z</time>
      </trkpt>
      <trkpt lat="46.79935" lon="15.99276">
        <ele>263.179001</ele>
        <time>2026-07-09T09:49:08.000Z</time>
      </trkpt>
      <trkpt lat="46.79929" lon="15.99274">
        <ele>263.182441</ele>
        <time>2026-07-09T09:49:09.000Z</time>
      </trkpt>
      <trkpt lat="46.79919" lon="15.99269">
        <ele>263.189022</ele>
        <time>2026-07-09T09:49:11.000Z</time>
      </trkpt>
      <trkpt lat="46.7991" lon="15.99266">
        <ele>263.195328</ele>
        <time>2026-07-09T09:49:13.000Z</time>
      </trkpt>
      <trkpt lat="46.7989" lon="15.99256">
        <ele>263.208365</ele>
        <time>2026-07-09T09:49:17.000Z</time>
      </trkpt>
      <trkpt lat="46.7987" lon="15.99249">
        <ele>263.221798</ele>
        <time>2026-07-09T09:49:21.000Z</time>
      </trkpt>
      <trkpt lat="46.79859" lon="15.99245">
        <ele>263.228381</ele>
        <time>2026-07-09T09:49:23.000Z</time>
      </trkpt>
      <trkpt lat="46.79854" lon="15.99243">
        <ele>263.231769</ele>
        <time>2026-07-09T09:49:24.000Z</time>
      </trkpt>
      <trkpt lat="46.79838" lon="15.9924">
        <ele>263.242025</ele>
        <time>2026-07-09T09:49:27.000Z</time>
      </trkpt>
      <trkpt lat="46.79833" lon="15.9924">
        <ele>263.245452</ele>
        <time>2026-07-09T09:49:28.000Z</time>
      </trkpt>
      <trkpt lat="46.79791" lon="15.99247">
        <ele>263.237361</ele>
        <time>2026-07-09T09:49:36.000Z</time>
      </trkpt>
      <trkpt lat="46.79781" lon="15.99252">
        <ele>263.233171</ele>
        <time>2026-07-09T09:49:38.000Z</time>
      </trkpt>
      <trkpt lat="46.7977" lon="15.99256">
        <ele>263.228668</ele>
        <time>2026-07-09T09:49:40.000Z</time>
      </trkpt>
      <trkpt lat="46.79765" lon="15.99259">
        <ele>263.226432</ele>
        <time>2026-07-09T09:49:41.000Z</time>
      </trkpt>
      <trkpt lat="46.79741" lon="15.99278">
        <ele>263.215468</ele>
        <time>2026-07-09T09:49:46.000Z</time>
      </trkpt>
      <trkpt lat="46.79732" lon="15.99286">
        <ele>263.211079</ele>
        <time>2026-07-09T09:49:48.000Z</time>
      </trkpt>
      <trkpt lat="46.79704" lon="15.99311">
        <ele>263.198165</ele>
        <time>2026-07-09T09:49:54.000Z</time>
      </trkpt>
      <trkpt lat="46.79695" lon="15.99318">
        <ele>263.193897</ele>
        <time>2026-07-09T09:49:56.000Z</time>
      </trkpt>
      <trkpt lat="46.7969" lon="15.99321">
        <ele>263.191786</ele>
        <time>2026-07-09T09:49:57.000Z</time>
      </trkpt>
      <trkpt lat="46.7967" lon="15.99333">
        <ele>263.183161</ele>
        <time>2026-07-09T09:50:01.000Z</time>
      </trkpt>
      <trkpt lat="46.79638" lon="15.99341">
        <ele>263.226986</ele>
        <time>2026-07-09T09:50:07.000Z</time>
      </trkpt>
      <trkpt lat="46.79633" lon="15.99341">
        <ele>263.238559</ele>
        <time>2026-07-09T09:50:08.000Z</time>
      </trkpt>
      <trkpt lat="46.79596" lon="15.99335">
        <ele>263.32342</ele>
        <time>2026-07-09T09:50:15.000Z</time>
      </trkpt>
      <trkpt lat="46.79575" lon="15.99329">
        <ele>263.37234</ele>
        <time>2026-07-09T09:50:19.000Z</time>
      </trkpt>
      <trkpt lat="46.79563" lon="15.99325">
        <ele>263.398371</ele>
        <time>2026-07-09T09:50:21.000Z</time>
      </trkpt>
      <trkpt lat="46.79558" lon="15.99325">
        <ele>263.410613</ele>
        <time>2026-07-09T09:50:22.000Z</time>
      </trkpt>
      <trkpt lat="46.79547" lon="15.99326">
        <ele>263.434909</ele>
        <time>2026-07-09T09:50:24.000Z</time>
      </trkpt>
      <trkpt lat="46.79537" lon="15.99329">
        <ele>263.458941</ele>
        <time>2026-07-09T09:50:26.000Z</time>
      </trkpt>
      <trkpt lat="46.79526" lon="15.99334">
        <ele>263.483498</ele>
        <time>2026-07-09T09:50:28.000Z</time>
      </trkpt>
      <trkpt lat="46.79502" lon="15.99345">
        <ele>263.542146</ele>
        <time>2026-07-09T09:50:33.000Z</time>
      </trkpt>
      <trkpt lat="46.79497" lon="15.99347">
        <ele>263.553843</ele>
        <time>2026-07-09T09:50:34.000Z</time>
      </trkpt>
      <trkpt lat="46.79477" lon="15.99358">
        <ele>263.636136</ele>
        <time>2026-07-09T09:50:38.000Z</time>
      </trkpt>
      <trkpt lat="46.79468" lon="15.99364">
        <ele>263.709167</ele>
        <time>2026-07-09T09:50:40.000Z</time>
      </trkpt>
      <trkpt lat="46.79463" lon="15.99365">
        <ele>263.743688</ele>
        <time>2026-07-09T09:50:41.000Z</time>
      </trkpt>
      <trkpt lat="46.79456" lon="15.99362">
        <ele>263.800531</ele>
        <time>2026-07-09T09:50:43.000Z</time>
      </trkpt>
      <trkpt lat="46.79453" lon="15.99347">
        <ele>263.880379</ele>
        <time>2026-07-09T09:50:46.000Z</time>
      </trkpt>
      <trkpt lat="46.79455" lon="15.99303">
        <ele>264.102723</ele>
        <time>2026-07-09T09:50:53.000Z</time>
      </trkpt>
      <trkpt lat="46.79453" lon="15.99287">
        <ele>264.18255</ele>
        <time>2026-07-09T09:50:56.000Z</time>
      </trkpt>
      <trkpt lat="46.7945" lon="15.99284">
        <ele>264.2093</ele>
        <time>2026-07-09T09:50:57.000Z</time>
      </trkpt>
      <trkpt lat="46.79436" lon="15.99279">
        <ele>264.319747</ele>
        <time>2026-07-09T09:51:01.000Z</time>
      </trkpt>
      <trkpt lat="46.79408" lon="15.99282">
        <ele>264.519305</ele>
        <time>2026-07-09T09:51:07.000Z</time>
      </trkpt>
      <trkpt lat="46.79395" lon="15.99283">
        <ele>264.621781</ele>
        <time>2026-07-09T09:51:10.000Z</time>
      </trkpt>
      <trkpt lat="46.79389" lon="15.99284">
        <ele>264.666044</ele>
        <time>2026-07-09T09:51:11.000Z</time>
      </trkpt>
      <trkpt lat="46.79375" lon="15.99282">
        <ele>264.762711</ele>
        <time>2026-07-09T09:51:14.000Z</time>
      </trkpt>
      <trkpt lat="46.79365" lon="15.9928">
        <ele>264.838535</ele>
        <time>2026-07-09T09:51:16.000Z</time>
      </trkpt>
      <trkpt lat="46.79347" lon="15.99278">
        <ele>264.785479</ele>
        <time>2026-07-09T09:51:19.000Z</time>
      </trkpt>
      <trkpt lat="46.79334" lon="15.99281">
        <ele>264.620585</ele>
        <time>2026-07-09T09:51:21.000Z</time>
      </trkpt>
      <trkpt lat="46.7932" lon="15.99293">
        <ele>264.402598</ele>
        <time>2026-07-09T09:51:24.000Z</time>
      </trkpt>
      <trkpt lat="46.79316" lon="15.99296">
        <ele>264.338296</ele>
        <time>2026-07-09T09:51:25.000Z</time>
      </trkpt>
      <trkpt lat="46.79287" lon="15.99309">
        <ele>263.94447</ele>
        <time>2026-07-09T09:51:31.000Z</time>
      </trkpt>
      <trkpt lat="46.7927" lon="15.99315">
        <ele>263.707857</ele>
        <time>2026-07-09T09:51:35.000Z</time>
      </trkpt>
      <trkpt lat="46.79256" lon="15.9932">
        <ele>263.527306</ele>
        <time>2026-07-09T09:51:38.000Z</time>
      </trkpt>
      <trkpt lat="46.79244" lon="15.99323">
        <ele>263.360845</ele>
        <time>2026-07-09T09:51:40.000Z</time>
      </trkpt>
      <trkpt lat="46.79224" lon="15.99321">
        <ele>263.104784</ele>
        <time>2026-07-09T09:51:43.000Z</time>
      </trkpt>
      <trkpt lat="46.7921" lon="15.99321">
        <ele>262.911255</ele>
        <time>2026-07-09T09:51:45.000Z</time>
      </trkpt>
      <trkpt lat="46.79203" lon="15.99321">
        <ele>262.829401</ele>
        <time>2026-07-09T09:51:46.000Z</time>
      </trkpt>
      <trkpt lat="46.7919" lon="15.99316">
        <ele>262.650346</ele>
        <time>2026-07-09T09:51:48.000Z</time>
      </trkpt>
      <trkpt lat="46.79183" lon="15.99313">
        <ele>262.556319</ele>
        <time>2026-07-09T09:51:49.000Z</time>
      </trkpt>
      <trkpt lat="46.79173" lon="15.99306">
        <ele>262.465963</ele>
        <time>2026-07-09T09:51:51.000Z</time>
      </trkpt>
      <trkpt lat="46.79159" lon="15.993">
        <ele>262.356159</ele>
        <time>2026-07-09T09:51:54.000Z</time>
      </trkpt>
      <trkpt lat="46.79154" lon="15.99299">
        <ele>262.31791</ele>
        <time>2026-07-09T09:51:55.000Z</time>
      </trkpt>
      <trkpt lat="46.79139" lon="15.99291">
        <ele>262.204256</ele>
        <time>2026-07-09T09:51:58.000Z</time>
      </trkpt>
      <trkpt lat="46.79134" lon="15.99288">
        <ele>262.161333</ele>
        <time>2026-07-09T09:51:59.000Z</time>
      </trkpt>
      <trkpt lat="46.79106" lon="15.99274">
        <ele>261.950885</ele>
        <time>2026-07-09T09:52:05.000Z</time>
      </trkpt>
      <trkpt lat="46.79102" lon="15.99272">
        <ele>261.919633</ele>
        <time>2026-07-09T09:52:06.000Z</time>
      </trkpt>
      <trkpt lat="46.79061" lon="15.99251">
        <ele>261.597961</ele>
        <time>2026-07-09T09:52:15.000Z</time>
      </trkpt>
      <trkpt lat="46.79027" lon="15.99235">
        <ele>261.332535</ele>
        <time>2026-07-09T09:52:22.000Z</time>
      </trkpt>
      <trkpt lat="46.79016" lon="15.99233">
        <ele>261.257456</ele>
        <time>2026-07-09T09:52:24.000Z</time>
      </trkpt>
      <trkpt lat="46.78996" lon="15.99231">
        <ele>261.673886</ele>
        <time>2026-07-09T09:52:28.000Z</time>
      </trkpt>
      <trkpt lat="46.78985" lon="15.99229">
        <ele>262.006754</ele>
        <time>2026-07-09T09:52:30.000Z</time>
      </trkpt>
      <trkpt lat="46.78975" lon="15.99228">
        <ele>262.286528</ele>
        <time>2026-07-09T09:52:32.000Z</time>
      </trkpt>
      <trkpt lat="46.7897" lon="15.99228">
        <ele>262.436639</ele>
        <time>2026-07-09T09:52:33.000Z</time>
      </trkpt>
      <trkpt lat="46.78953" lon="15.99226">
        <ele>262.952954</ele>
        <time>2026-07-09T09:52:36.000Z</time>
      </trkpt>
      <trkpt lat="46.78941" lon="15.99228">
        <ele>263.292583</ele>
        <time>2026-07-09T09:52:38.000Z</time>
      </trkpt>
      <trkpt lat="46.78924" lon="15.99229">
        <ele>263.814167</ele>
        <time>2026-07-09T09:52:41.000Z</time>
      </trkpt>
      <trkpt lat="46.78906" lon="15.99231">
        <ele>264.31921</ele>
        <time>2026-07-09T09:52:43.000Z</time>
      </trkpt>
      <trkpt lat="46.78872" lon="15.99239">
        <ele>265.351161</ele>
        <time>2026-07-09T09:52:48.000Z</time>
      </trkpt>
      <trkpt lat="46.78866" lon="15.99241">
        <ele>265.529679</ele>
        <time>2026-07-09T09:52:49.000Z</time>
      </trkpt>
      <trkpt lat="46.78839" lon="15.99241">
        <ele>266.330261</ele>
        <time>2026-07-09T09:52:54.000Z</time>
      </trkpt>
      <trkpt lat="46.78792" lon="15.99239">
        <ele>265.867494</ele>
        <time>2026-07-09T09:53:02.000Z</time>
      </trkpt>
      <trkpt lat="46.78763" lon="15.99232">
        <ele>265.391224</ele>
        <time>2026-07-09T09:53:07.000Z</time>
      </trkpt>
      <trkpt lat="46.78757" lon="15.99231">
        <ele>265.294106</ele>
        <time>2026-07-09T09:53:08.000Z</time>
      </trkpt>
      <trkpt lat="46.78734" lon="15.99221">
        <ele>264.909293</ele>
        <time>2026-07-09T09:53:12.000Z</time>
      </trkpt>
      <trkpt lat="46.78721" lon="15.99209">
        <ele>264.653837</ele>
        <time>2026-07-09T09:53:15.000Z</time>
      </trkpt>
      <trkpt lat="46.78712" lon="15.99199">
        <ele>264.479463</ele>
        <time>2026-07-09T09:53:17.000Z</time>
      </trkpt>
      <trkpt lat="46.7869" lon="15.9918">
        <ele>264.067181</ele>
        <time>2026-07-09T09:53:22.000Z</time>
      </trkpt>
      <trkpt lat="46.78686" lon="15.99175">
        <ele>263.97858</ele>
        <time>2026-07-09T09:53:23.000Z</time>
      </trkpt>
      <trkpt lat="46.78672" lon="15.99161">
        <ele>263.715058</ele>
        <time>2026-07-09T09:53:26.000Z</time>
      </trkpt>
      <trkpt lat="46.78654" lon="15.99146">
        <ele>263.728674</ele>
        <time>2026-07-09T09:53:30.000Z</time>
      </trkpt>
      <trkpt lat="46.78624" lon="15.99116">
        <ele>264.010342</ele>
        <time>2026-07-09T09:53:38.000Z</time>
      </trkpt>
      <trkpt lat="46.78606" lon="15.99091">
        <ele>264.204103</ele>
        <time>2026-07-09T09:53:44.000Z</time>
      </trkpt>
      <trkpt lat="46.78603" lon="15.99086">
        <ele>264.236727</ele>
        <time>2026-07-09T09:53:45.000Z</time>
      </trkpt>
      <trkpt lat="46.78589" lon="15.99057">
        <ele>264.424575</ele>
        <time>2026-07-09T09:53:51.000Z</time>
      </trkpt>
      <trkpt lat="46.78584" lon="15.99043">
        <ele>264.509626</ele>
        <time>2026-07-09T09:53:54.000Z</time>
      </trkpt>
      <trkpt lat="46.78575" lon="15.99023">
        <ele>264.635296</ele>
        <time>2026-07-09T09:53:59.000Z</time>
      </trkpt>
      <trkpt lat="46.78573" lon="15.99019">
        <ele>264.660622</ele>
        <time>2026-07-09T09:54:00.000Z</time>
      </trkpt>
      <trkpt lat="46.7857" lon="15.9901">
        <ele>264.710815</ele>
        <time>2026-07-09T09:54:02.000Z</time>
      </trkpt>
      <trkpt lat="46.7856" lon="15.98971">
        <ele>264.929229</ele>
        <time>2026-07-09T09:54:10.000Z</time>
      </trkpt>
      <trkpt lat="46.78557" lon="15.98938">
        <ele>265.239232</ele>
        <time>2026-07-09T09:54:16.000Z</time>
      </trkpt>
      <trkpt lat="46.78558" lon="15.98927">
        <ele>265.36213</ele>
        <time>2026-07-09T09:54:18.000Z</time>
      </trkpt>
      <trkpt lat="46.78558" lon="15.98888">
        <ele>265.814414</ele>
        <time>2026-07-09T09:54:25.000Z</time>
      </trkpt>
      <trkpt lat="46.78561" lon="15.98846">
        <ele>266.304142</ele>
        <time>2026-07-09T09:54:32.000Z</time>
      </trkpt>
      <trkpt lat="46.78563" lon="15.98827">
        <ele>266.521071</ele>
        <time>2026-07-09T09:54:35.000Z</time>
      </trkpt>
      <trkpt lat="46.78566" lon="15.98795">
        <ele>266.896658</ele>
        <time>2026-07-09T09:54:40.000Z</time>
      </trkpt>
      <trkpt lat="46.78566" lon="15.98789">
        <ele>266.969031</ele>
        <time>2026-07-09T09:54:41.000Z</time>
      </trkpt>
      <trkpt lat="46.7857" lon="15.9874">
        <ele>267.537076</ele>
        <time>2026-07-09T09:54:49.000Z</time>
      </trkpt>
      <trkpt lat="46.78571" lon="15.98734">
        <ele>267.606225</ele>
        <time>2026-07-09T09:54:50.000Z</time>
      </trkpt>
      <trkpt lat="46.78576" lon="15.98669">
        <ele>268.270938</ele>
        <time>2026-07-09T09:55:01.000Z</time>
      </trkpt>
      <trkpt lat="46.78581" lon="15.98621">
        <ele>268.668015</ele>
        <time>2026-07-09T09:55:09.000Z</time>
      </trkpt>
      <trkpt lat="46.78583" lon="15.98572">
        <ele>269.060443</ele>
        <time>2026-07-09T09:55:17.000Z</time>
      </trkpt>
      <trkpt lat="46.78582" lon="15.98526">
        <ele>269.439826</ele>
        <time>2026-07-09T09:55:25.000Z</time>
      </trkpt>
      <trkpt lat="46.78581" lon="15.98478">
        <ele>269.827112</ele>
        <time>2026-07-09T09:55:33.000Z</time>
      </trkpt>
      <trkpt lat="46.78581" lon="15.98443">
        <ele>270.104999</ele>
        <time>2026-07-09T09:55:39.000Z</time>
      </trkpt>
      <trkpt lat="46.78581" lon="15.98432">
        <ele>270.257407</ele>
        <time>2026-07-09T09:55:41.000Z</time>
      </trkpt>
      <trkpt lat="46.7858" lon="15.98427">
        <ele>270.411861</ele>
        <time>2026-07-09T09:55:42.000Z</time>
      </trkpt>
      <trkpt lat="46.78579" lon="15.98382">
        <ele>271.699336</ele>
        <time>2026-07-09T09:55:50.000Z</time>
      </trkpt>
      <trkpt lat="46.78577" lon="15.98359">
        <ele>272.359309</ele>
        <time>2026-07-09T09:55:54.000Z</time>
      </trkpt>
      <trkpt lat="46.78574" lon="15.98327">
        <ele>273.277994</ele>
        <time>2026-07-09T09:56:00.000Z</time>
      </trkpt>
      <trkpt lat="46.7857" lon="15.98279">
        <ele>274.651895</ele>
        <time>2026-07-09T09:56:09.000Z</time>
      </trkpt>
      <trkpt lat="46.78569" lon="15.98242">
        <ele>275.696517</ele>
        <time>2026-07-09T09:56:17.000Z</time>
      </trkpt>
      <trkpt lat="46.7857" lon="15.98208">
        <ele>276.680957</ele>
        <time>2026-07-09T09:56:25.000Z</time>
      </trkpt>
      <trkpt lat="46.78571" lon="15.98178">
        <ele>277.514458</ele>
        <time>2026-07-09T09:56:32.000Z</time>
      </trkpt>
      <trkpt lat="46.78571" lon="15.98174">
        <ele>277.646652</ele>
        <time>2026-07-09T09:56:33.000Z</time>
      </trkpt>
      <trkpt lat="46.78573" lon="15.98157">
        <ele>278.040295</ele>
        <time>2026-07-09T09:56:37.000Z</time>
      </trkpt>
      <trkpt lat="46.78574" lon="15.9815">
        <ele>278.22673</ele>
        <time>2026-07-09T09:56:39.000Z</time>
      </trkpt>
      <trkpt lat="46.78577" lon="15.98126">
        <ele>278.786034</ele>
        <time>2026-07-09T09:56:45.000Z</time>
      </trkpt>
      <trkpt lat="46.78578" lon="15.98096">
        <ele>279.494761</ele>
        <time>2026-07-09T09:56:52.000Z</time>
      </trkpt>
      <trkpt lat="46.78577" lon="15.98088">
        <ele>279.690849</ele>
        <time>2026-07-09T09:56:54.000Z</time>
      </trkpt>
      <trkpt lat="46.78566" lon="15.98065">
        <ele>280.359842</ele>
        <time>2026-07-09T09:57:00.000Z</time>
      </trkpt>
      <trkpt lat="46.7854" lon="15.98044">
        <ele>281.3657</ele>
        <time>2026-07-09T09:57:09.000Z</time>
      </trkpt>
      <trkpt lat="46.78514" lon="15.9802">
        <ele>282.426109</ele>
        <time>2026-07-09T09:57:19.000Z</time>
      </trkpt>
      <trkpt lat="46.78501" lon="15.98008">
        <ele>282.951741</ele>
        <time>2026-07-09T09:57:24.000Z</time>
      </trkpt>
      <trkpt lat="46.78492" lon="15.97999">
        <ele>283.340248</ele>
        <time>2026-07-09T09:57:28.000Z</time>
      </trkpt>
      <trkpt lat="46.78484" lon="15.97992">
        <ele>283.642152</ele>
        <time>2026-07-09T09:57:31.000Z</time>
      </trkpt>
      <trkpt lat="46.78476" lon="15.97985">
        <ele>283.8527</ele>
        <time>2026-07-09T09:57:35.000Z</time>
      </trkpt>
      <trkpt lat="46.78474" lon="15.97985">
        <ele>283.852233</ele>
        <time>2026-07-09T09:57:36.000Z</time>
      </trkpt>
      <trkpt lat="46.78471" lon="15.97987">
        <ele>283.85163</ele>
        <time>2026-07-09T09:57:37.000Z</time>
      </trkpt>
      <trkpt lat="46.78468" lon="15.97996">
        <ele>283.85013</ele>
        <time>2026-07-09T09:57:39.000Z</time>
      </trkpt>
      <trkpt lat="46.78468" lon="15.98003">
        <ele>283.849165</ele>
        <time>2026-07-09T09:57:40.000Z</time>
      </trkpt>
      <trkpt lat="46.78466" lon="15.98028">
        <ele>283.845415</ele>
        <time>2026-07-09T09:57:43.000Z</time>
      </trkpt>
      <trkpt lat="46.78463" lon="15.98049">
        <ele>283.842323</ele>
        <time>2026-07-09T09:57:45.000Z</time>
      </trkpt>
      <trkpt lat="46.78461" lon="15.98085">
        <ele>283.83714</ele>
        <time>2026-07-09T09:57:48.000Z</time>
      </trkpt>
      <trkpt lat="46.78457" lon="15.98121">
        <ele>283.831874</ele>
        <time>2026-07-09T09:57:51.000Z</time>
      </trkpt>
      <trkpt lat="46.78452" lon="15.98171">
        <ele>283.82457</ele>
        <time>2026-07-09T09:57:55.000Z</time>
      </trkpt>
      <trkpt lat="46.7845" lon="15.9819">
        <ele>283.821717</ele>
        <time>2026-07-09T09:57:57.000Z</time>
      </trkpt>
      <trkpt lat="46.78448" lon="15.98202">
        <ele>283.819902</ele>
        <time>2026-07-09T09:57:58.000Z</time>
      </trkpt>
      <trkpt lat="46.78443" lon="15.98218">
        <ele>283.81736</ele>
        <time>2026-07-09T09:58:00.000Z</time>
      </trkpt>
      <trkpt lat="46.78431" lon="15.98243">
        <ele>283.617126</ele>
        <time>2026-07-09T09:58:04.000Z</time>
      </trkpt>
      <trkpt lat="46.78424" lon="15.98258">
        <ele>283.399414</ele>
        <time>2026-07-09T09:58:07.000Z</time>
      </trkpt>
      <trkpt lat="46.7842" lon="15.98268">
        <ele>283.258929</ele>
        <time>2026-07-09T09:58:09.000Z</time>
      </trkpt>
      <trkpt lat="46.78417" lon="15.98275">
        <ele>283.169732</ele>
        <time>2026-07-09T09:58:10.000Z</time>
      </trkpt>
      <trkpt lat="46.78411" lon="15.98302">
        <ele>282.824739</ele>
        <time>2026-07-09T09:58:15.000Z</time>
      </trkpt>
      <trkpt lat="46.7841" lon="15.98309">
        <ele>282.734387</ele>
        <time>2026-07-09T09:58:16.000Z</time>
      </trkpt>
      <trkpt lat="46.78403" lon="15.98342">
        <ele>282.328866</ele>
        <time>2026-07-09T09:58:21.000Z</time>
      </trkpt>
      <trkpt lat="46.78391" lon="15.98404">
        <ele>281.549958</ele>
        <time>2026-07-09T09:58:28.000Z</time>
      </trkpt>
      <trkpt lat="46.78379" lon="15.98474">
        <ele>280.701162</ele>
        <time>2026-07-09T09:58:35.000Z</time>
      </trkpt>
      <trkpt lat="46.78375" lon="15.98494">
        <ele>279.969218</ele>
        <time>2026-07-09T09:58:37.000Z</time>
      </trkpt>
      <trkpt lat="46.78371" lon="15.98536">
        <ele>278.42319</ele>
        <time>2026-07-09T09:58:41.000Z</time>
      </trkpt>
      <trkpt lat="46.78371" lon="15.98545">
        <ele>278.117792</ele>
        <time>2026-07-09T09:58:42.000Z</time>
      </trkpt>
      <trkpt lat="46.7837" lon="15.98575">
        <ele>276.992557</ele>
        <time>2026-07-09T09:58:45.000Z</time>
      </trkpt>
      <trkpt lat="46.78368" lon="15.98585">
        <ele>276.63971</ele>
        <time>2026-07-09T09:58:46.000Z</time>
      </trkpt>
      <trkpt lat="46.78365" lon="15.98594">
        <ele>276.279913</ele>
        <time>2026-07-09T09:58:47.000Z</time>
      </trkpt>
      <trkpt lat="46.78356" lon="15.98609">
        <ele>275.551779</ele>
        <time>2026-07-09T09:58:49.000Z</time>
      </trkpt>
      <trkpt lat="46.7835" lon="15.98618">
        <ele>275.114286</ele>
        <time>2026-07-09T09:58:50.000Z</time>
      </trkpt>
      <trkpt lat="46.78346" lon="15.98622">
        <ele>274.803338</ele>
        <time>2026-07-09T09:58:51.000Z</time>
      </trkpt>
      <trkpt lat="46.78316" lon="15.98645">
        <ele>273.056782</ele>
        <time>2026-07-09T09:58:55.000Z</time>
      </trkpt>
      <trkpt lat="46.783" lon="15.98653">
        <ele>272.162325</ele>
        <time>2026-07-09T09:58:57.000Z</time>
      </trkpt>
      <trkpt lat="46.78289" lon="15.98657">
        <ele>271.518996</ele>
        <time>2026-07-09T09:58:59.000Z</time>
      </trkpt>
      <trkpt lat="46.78285" lon="15.98658">
        <ele>271.322098</ele>
        <time>2026-07-09T09:59:00.000Z</time>
      </trkpt>
      <trkpt lat="46.78279" lon="15.98661">
        <ele>271.046789</ele>
        <time>2026-07-09T09:59:02.000Z</time>
      </trkpt>
      <trkpt lat="46.78277" lon="15.98663">
        <ele>271.008778</ele>
        <time>2026-07-09T09:59:03.000Z</time>
      </trkpt>
      <trkpt lat="46.78277" lon="15.98663">
        <ele>270.986289</ele>
        <time>2026-07-09T09:59:06.000Z</time>
      </trkpt>
      <trkpt lat="46.78272" lon="15.98671">
        <ele>270.808441</ele>
        <time>2026-07-09T09:59:25.000Z</time>
      </trkpt>
      <trkpt lat="46.78266" lon="15.98687">
        <ele>270.497141</ele>
        <time>2026-07-09T09:59:31.000Z</time>
      </trkpt>
      <trkpt lat="46.78268" lon="15.98678">
        <ele>270.338803</ele>
        <time>2026-07-09T10:02:57.000Z</time>
      </trkpt>
      <trkpt lat="46.78269" lon="15.98676">
        <ele>270.297171</ele>
        <time>2026-07-09T10:02:58.000Z</time>
      </trkpt>
      <trkpt lat="46.7827" lon="15.98674">
        <ele>270.255143</ele>
        <time>2026-07-09T10:02:59.000Z</time>
      </trkpt>
      <trkpt lat="46.78273" lon="15.98665">
        <ele>270.08439</ele>
        <time>2026-07-09T10:03:03.000Z</time>
      </trkpt>
      <trkpt lat="46.78272" lon="15.98664">
        <ele>270.050068</ele>
        <time>2026-07-09T10:03:04.000Z</time>
      </trkpt>
      <trkpt lat="46.78272" lon="15.98663">
        <ele>270.033695</ele>
        <time>2026-07-09T10:03:07.000Z</time>
      </trkpt>
      <trkpt lat="46.78267" lon="15.98657">
        <ele>269.886254</ele>
        <time>2026-07-09T10:05:55.000Z</time>
      </trkpt>
      <trkpt lat="46.78266" lon="15.98657">
        <ele>269.845627</ele>
        <time>2026-07-09T10:05:56.000Z</time>
      </trkpt>
      <trkpt lat="46.78256" lon="15.98656">
        <ele>269.605179</ele>
        <time>2026-07-09T10:06:00.000Z</time>
      </trkpt>
      <trkpt lat="46.78231" lon="15.98659">
        <ele>268.966487</ele>
        <time>2026-07-09T10:06:07.000Z</time>
      </trkpt>
      <trkpt lat="46.782" lon="15.98661">
        <ele>268.171242</ele>
        <time>2026-07-09T10:06:14.000Z</time>
      </trkpt>
      <trkpt lat="46.78155" lon="15.98654">
        <ele>267.044468</ele>
        <time>2026-07-09T10:06:23.000Z</time>
      </trkpt>
      <trkpt lat="46.78151" lon="15.98654">
        <ele>266.927768</ele>
        <time>2026-07-09T10:06:24.000Z</time>
      </trkpt>
      <trkpt lat="46.78124" lon="15.98651">
        <ele>266.112074</ele>
        <time>2026-07-09T10:06:29.000Z</time>
      </trkpt>
      <trkpt lat="46.78083" lon="15.98649">
        <ele>264.620147</ele>
        <time>2026-07-09T10:06:36.000Z</time>
      </trkpt>
      <trkpt lat="46.78037" lon="15.9866">
        <ele>262.891775</ele>
        <time>2026-07-09T10:06:44.000Z</time>
      </trkpt>
      <trkpt lat="46.78" lon="15.98681">
        <ele>261.463753</ele>
        <time>2026-07-09T10:06:49.000Z</time>
      </trkpt>
      <trkpt lat="46.77978" lon="15.98695">
        <ele>260.598555</ele>
        <time>2026-07-09T10:06:52.000Z</time>
      </trkpt>
      <trkpt lat="46.77948" lon="15.98714">
        <ele>260.20838</ele>
        <time>2026-07-09T10:06:56.000Z</time>
      </trkpt>
      <trkpt lat="46.77914" lon="15.98731">
        <ele>260.611044</ele>
        <time>2026-07-09T10:07:01.000Z</time>
      </trkpt>
      <trkpt lat="46.7791" lon="15.98732">
        <ele>260.662115</ele>
        <time>2026-07-09T10:07:02.000Z</time>
      </trkpt>
      <trkpt lat="46.77893" lon="15.98734">
        <ele>260.844229</ele>
        <time>2026-07-09T10:07:05.000Z</time>
      </trkpt>
      <trkpt lat="46.77869" lon="15.98732">
        <ele>261.116448</ele>
        <time>2026-07-09T10:07:10.000Z</time>
      </trkpt>
      <trkpt lat="46.77855" lon="15.98729">
        <ele>261.269099</ele>
        <time>2026-07-09T10:07:13.000Z</time>
      </trkpt>
      <trkpt lat="46.77834" lon="15.98726">
        <ele>261.512811</ele>
        <time>2026-07-09T10:07:18.000Z</time>
      </trkpt>
      <trkpt lat="46.77799" lon="15.98719">
        <ele>261.898087</ele>
        <time>2026-07-09T10:07:26.000Z</time>
      </trkpt>
      <trkpt lat="46.77795" lon="15.98718">
        <ele>261.947552</ele>
        <time>2026-07-09T10:07:27.000Z</time>
      </trkpt>
      <trkpt lat="46.77753" lon="15.98705">
        <ele>263.132229</ele>
        <time>2026-07-09T10:07:37.000Z</time>
      </trkpt>
      <trkpt lat="46.77732" lon="15.98689">
        <ele>263.862611</ele>
        <time>2026-07-09T10:07:43.000Z</time>
      </trkpt>
      <trkpt lat="46.77706" lon="15.98665">
        <ele>264.81006</ele>
        <time>2026-07-09T10:07:51.000Z</time>
      </trkpt>
      <trkpt lat="46.77688" lon="15.98646">
        <ele>265.490073</ele>
        <time>2026-07-09T10:07:57.000Z</time>
      </trkpt>
      <trkpt lat="46.77676" lon="15.98635">
        <ele>265.919939</ele>
        <time>2026-07-09T10:08:01.000Z</time>
      </trkpt>
      <trkpt lat="46.77649" lon="15.98606">
        <ele>266.94295</ele>
        <time>2026-07-09T10:08:11.000Z</time>
      </trkpt>
      <trkpt lat="46.77626" lon="15.98571">
        <ele>267.52438</ele>
        <time>2026-07-09T10:08:21.000Z</time>
      </trkpt>
      <trkpt lat="46.7761" lon="15.98539">
        <ele>267.495305</ele>
        <time>2026-07-09T10:08:29.000Z</time>
      </trkpt>
      <trkpt lat="46.77585" lon="15.98503">
        <ele>267.458089</ele>
        <time>2026-07-09T10:08:38.000Z</time>
      </trkpt>
      <trkpt lat="46.77582" lon="15.98499">
        <ele>267.453224</ele>
        <time>2026-07-09T10:08:39.000Z</time>
      </trkpt>
      <trkpt lat="46.77573" lon="15.98491">
        <ele>267.442067</ele>
        <time>2026-07-09T10:08:41.000Z</time>
      </trkpt>
      <trkpt lat="46.77558" lon="15.9848">
        <ele>267.424648</ele>
        <time>2026-07-09T10:08:44.000Z</time>
      </trkpt>
      <trkpt lat="46.77555" lon="15.98477">
        <ele>267.419996</ele>
        <time>2026-07-09T10:08:45.000Z</time>
      </trkpt>
      <trkpt lat="46.77544" lon="15.98457">
        <ele>267.402248</ele>
        <time>2026-07-09T10:08:48.000Z</time>
      </trkpt>
      <trkpt lat="46.77535" lon="15.98452">
        <ele>267.391731</ele>
        <time>2026-07-09T10:08:50.000Z</time>
      </trkpt>
      <trkpt lat="46.77523" lon="15.98456">
        <ele>267.378672</ele>
        <time>2026-07-09T10:08:52.000Z</time>
      </trkpt>
      <trkpt lat="46.7751" lon="15.98457">
        <ele>267.364983</ele>
        <time>2026-07-09T10:08:54.000Z</time>
      </trkpt>
      <trkpt lat="46.77501" lon="15.98459">
        <ele>267.355172</ele>
        <time>2026-07-09T10:08:55.000Z</time>
      </trkpt>
      <trkpt lat="46.77488" lon="15.98468">
        <ele>266.96075</ele>
        <time>2026-07-09T10:08:57.000Z</time>
      </trkpt>
      <trkpt lat="46.77463" lon="15.98497">
        <ele>265.312942</ele>
        <time>2026-07-09T10:09:01.000Z</time>
      </trkpt>
      <trkpt lat="46.77425" lon="15.98549">
        <ele>262.613178</ele>
        <time>2026-07-09T10:09:07.000Z</time>
      </trkpt>
      <trkpt lat="46.77386" lon="15.98612">
        <ele>259.560352</ele>
        <time>2026-07-09T10:09:13.000Z</time>
      </trkpt>
      <trkpt lat="46.77347" lon="15.9868">
        <ele>257.175737</ele>
        <time>2026-07-09T10:09:19.000Z</time>
      </trkpt>
      <trkpt lat="46.77341" lon="15.9869">
        <ele>256.921665</ele>
        <time>2026-07-09T10:09:20.000Z</time>
      </trkpt>
      <trkpt lat="46.77325" lon="15.98707">
        <ele>256.424533</ele>
        <time>2026-07-09T10:09:22.000Z</time>
      </trkpt>
      <trkpt lat="46.77309" lon="15.98719">
        <ele>255.948169</ele>
        <time>2026-07-09T10:09:24.000Z</time>
      </trkpt>
      <trkpt lat="46.77271" lon="15.98737">
        <ele>254.898608</ele>
        <time>2026-07-09T10:09:29.000Z</time>
      </trkpt>
      <trkpt lat="46.77232" lon="15.9875">
        <ele>253.863756</ele>
        <time>2026-07-09T10:09:34.000Z</time>
      </trkpt>
      <trkpt lat="46.77192" lon="15.9876">
        <ele>252.991649</ele>
        <time>2026-07-09T10:09:40.000Z</time>
      </trkpt>
      <trkpt lat="46.77186" lon="15.98761">
        <ele>252.89338</ele>
        <time>2026-07-09T10:09:41.000Z</time>
      </trkpt>
      <trkpt lat="46.77142" lon="15.98776">
        <ele>252.212892</ele>
        <time>2026-07-09T10:09:48.000Z</time>
      </trkpt>
      <trkpt lat="46.77098" lon="15.98795">
        <ele>251.529821</ele>
        <time>2026-07-09T10:09:55.000Z</time>
      </trkpt>
      <trkpt lat="46.77081" lon="15.98804">
        <ele>251.251183</ele>
        <time>2026-07-09T10:09:58.000Z</time>
      </trkpt>
      <trkpt lat="46.77051" lon="15.98813">
        <ele>250.801868</ele>
        <time>2026-07-09T10:10:03.000Z</time>
      </trkpt>
      <trkpt lat="46.77027" lon="15.98812">
        <ele>250.536495</ele>
        <time>2026-07-09T10:10:07.000Z</time>
      </trkpt>
      <trkpt lat="46.77008" lon="15.98809">
        <ele>250.507163</ele>
        <time>2026-07-09T10:10:10.000Z</time>
      </trkpt>
      <trkpt lat="46.76952" lon="15.98803">
        <ele>250.417681</ele>
        <time>2026-07-09T10:10:19.000Z</time>
      </trkpt>
      <trkpt lat="46.76946" lon="15.98803">
        <ele>250.408211</ele>
        <time>2026-07-09T10:10:20.000Z</time>
      </trkpt>
      <trkpt lat="46.76904" lon="15.98807">
        <ele>250.342537</ele>
        <time>2026-07-09T10:10:27.000Z</time>
      </trkpt>
      <trkpt lat="46.76892" lon="15.98805">
        <ele>250.32293</ele>
        <time>2026-07-09T10:10:29.000Z</time>
      </trkpt>
      <trkpt lat="46.7685" lon="15.98792">
        <ele>250.236191</ele>
        <time>2026-07-09T10:10:36.000Z</time>
      </trkpt>
      <trkpt lat="46.76801" lon="15.98782">
        <ele>250.013723</ele>
        <time>2026-07-09T10:10:44.000Z</time>
      </trkpt>
      <trkpt lat="46.76771" lon="15.9878">
        <ele>249.872256</ele>
        <time>2026-07-09T10:10:49.000Z</time>
      </trkpt>
      <trkpt lat="46.76765" lon="15.98778">
        <ele>249.844696</ele>
        <time>2026-07-09T10:10:50.000Z</time>
      </trkpt>
      <trkpt lat="46.76748" lon="15.98769">
        <ele>249.762973</ele>
        <time>2026-07-09T10:10:53.000Z</time>
      </trkpt>
      <trkpt lat="46.76743" lon="15.98764">
        <ele>249.733902</ele>
        <time>2026-07-09T10:10:54.000Z</time>
      </trkpt>
      <trkpt lat="46.76733" lon="15.98754">
        <ele>249.679975</ele>
        <time>2026-07-09T10:10:56.000Z</time>
      </trkpt>
      <trkpt lat="46.76716" lon="15.9874">
        <ele>249.590087</ele>
        <time>2026-07-09T10:10:59.000Z</time>
      </trkpt>
      <trkpt lat="46.76705" lon="15.98733">
        <ele>249.534968</ele>
        <time>2026-07-09T10:11:01.000Z</time>
      </trkpt>
      <trkpt lat="46.76698" lon="15.98729">
        <ele>249.500498</ele>
        <time>2026-07-09T10:11:02.000Z</time>
      </trkpt>
      <trkpt lat="46.76687" lon="15.98721">
        <ele>249.447322</ele>
        <time>2026-07-09T10:11:04.000Z</time>
      </trkpt>
      <trkpt lat="46.76673" lon="15.98706">
        <ele>249.491161</ele>
        <time>2026-07-09T10:11:07.000Z</time>
      </trkpt>
      <trkpt lat="46.76651" lon="15.98685">
        <ele>249.566504</ele>
        <time>2026-07-09T10:11:12.000Z</time>
      </trkpt>
      <trkpt lat="46.76624" lon="15.98659">
        <ele>249.660883</ele>
        <time>2026-07-09T10:11:18.000Z</time>
      </trkpt>
      <trkpt lat="46.76614" lon="15.98652">
        <ele>249.693902</ele>
        <time>2026-07-09T10:11:20.000Z</time>
      </trkpt>
      <trkpt lat="46.76601" lon="15.9865">
        <ele>249.731618</ele>
        <time>2026-07-09T10:11:22.000Z</time>
      </trkpt>
      <trkpt lat="46.76588" lon="15.98651">
        <ele>249.768688</ele>
        <time>2026-07-09T10:11:24.000Z</time>
      </trkpt>
      <trkpt lat="46.76577" lon="15.98656">
        <ele>249.804539</ele>
        <time>2026-07-09T10:11:26.000Z</time>
      </trkpt>
      <trkpt lat="46.76562" lon="15.98668">
        <ele>249.852331</ele>
        <time>2026-07-09T10:11:29.000Z</time>
      </trkpt>
      <trkpt lat="46.76552" lon="15.98676">
        <ele>249.887241</ele>
        <time>2026-07-09T10:11:31.000Z</time>
      </trkpt>
      <trkpt lat="46.76509" lon="15.98699">
        <ele>250.014558</ele>
        <time>2026-07-09T10:11:38.000Z</time>
      </trkpt>
      <trkpt lat="46.76484" lon="15.98717">
        <ele>250.089014</ele>
        <time>2026-07-09T10:11:42.000Z</time>
      </trkpt>
      <trkpt lat="46.76471" lon="15.98726">
        <ele>250.125062</ele>
        <time>2026-07-09T10:11:44.000Z</time>
      </trkpt>
      <trkpt lat="46.76459" lon="15.98729">
        <ele>250.158731</ele>
        <time>2026-07-09T10:11:46.000Z</time>
      </trkpt>
      <trkpt lat="46.76452" lon="15.98729">
        <ele>250.178029</ele>
        <time>2026-07-09T10:11:47.000Z</time>
      </trkpt>
      <trkpt lat="46.76405" lon="15.98722">
        <ele>250.301859</ele>
        <time>2026-07-09T10:11:54.000Z</time>
      </trkpt>
      <trkpt lat="46.76393" lon="15.98718">
        <ele>250.334787</ele>
        <time>2026-07-09T10:11:56.000Z</time>
      </trkpt>
      <trkpt lat="46.76382" lon="15.98714">
        <ele>250.365389</ele>
        <time>2026-07-09T10:11:58.000Z</time>
      </trkpt>
      <trkpt lat="46.76376" lon="15.98713">
        <ele>250.380468</ele>
        <time>2026-07-09T10:11:59.000Z</time>
      </trkpt>
      <trkpt lat="46.76365" lon="15.98711">
        <ele>250.408331</ele>
        <time>2026-07-09T10:12:01.000Z</time>
      </trkpt>
      <trkpt lat="46.76355" lon="15.98711">
        <ele>250.436351</ele>
        <time>2026-07-09T10:12:03.000Z</time>
      </trkpt>
      <trkpt lat="46.76328" lon="15.98697">
        <ele>250.296571</ele>
        <time>2026-07-09T10:12:08.000Z</time>
      </trkpt>
      <trkpt lat="46.76282" lon="15.98675">
        <ele>250.03747</ele>
        <time>2026-07-09T10:12:16.000Z</time>
      </trkpt>
      <trkpt lat="46.76276" lon="15.98673">
        <ele>250.004075</ele>
        <time>2026-07-09T10:12:17.000Z</time>
      </trkpt>
      <trkpt lat="46.76245" lon="15.9866">
        <ele>249.831883</ele>
        <time>2026-07-09T10:12:22.000Z</time>
      </trkpt>
      <trkpt lat="46.76194" lon="15.98645">
        <ele>249.549794</ele>
        <time>2026-07-09T10:12:30.000Z</time>
      </trkpt>
      <trkpt lat="46.76176" lon="15.98642">
        <ele>249.573938</ele>
        <time>2026-07-09T10:12:33.000Z</time>
      </trkpt>
      <trkpt lat="46.76158" lon="15.98644">
        <ele>250.051163</ele>
        <time>2026-07-09T10:12:36.000Z</time>
      </trkpt>
      <trkpt lat="46.76146" lon="15.98647">
        <ele>250.380912</ele>
        <time>2026-07-09T10:12:38.000Z</time>
      </trkpt>
      <trkpt lat="46.76134" lon="15.98652">
        <ele>250.71639</ele>
        <time>2026-07-09T10:12:40.000Z</time>
      </trkpt>
      <trkpt lat="46.76122" lon="15.98657">
        <ele>251.057499</ele>
        <time>2026-07-09T10:12:42.000Z</time>
      </trkpt>
      <trkpt lat="46.76103" lon="15.98666">
        <ele>251.564171</ele>
        <time>2026-07-09T10:12:45.000Z</time>
      </trkpt>
      <trkpt lat="46.76075" lon="15.98688">
        <ele>252.435374</ele>
        <time>2026-07-09T10:12:50.000Z</time>
      </trkpt>
      <trkpt lat="46.76062" lon="15.98697">
        <ele>252.79849</ele>
        <time>2026-07-09T10:12:52.000Z</time>
      </trkpt>
      <trkpt lat="46.76051" lon="15.98704">
        <ele>253.128421</ele>
        <time>2026-07-09T10:12:54.000Z</time>
      </trkpt>
      <trkpt lat="46.76037" lon="15.98709">
        <ele>253.502561</ele>
        <time>2026-07-09T10:12:56.000Z</time>
      </trkpt>
      <trkpt lat="46.7603" lon="15.9871">
        <ele>253.691577</ele>
        <time>2026-07-09T10:12:57.000Z</time>
      </trkpt>
      <trkpt lat="46.75984" lon="15.98712">
        <ele>253.795759</ele>
        <time>2026-07-09T10:13:03.000Z</time>
      </trkpt>
      <trkpt lat="46.75955" lon="15.98707">
        <ele>253.249059</ele>
        <time>2026-07-09T10:13:07.000Z</time>
      </trkpt>
      <trkpt lat="46.75934" lon="15.98704">
        <ele>252.849332</ele>
        <time>2026-07-09T10:13:10.000Z</time>
      </trkpt>
      <trkpt lat="46.75895" lon="15.98702">
        <ele>252.098792</ele>
        <time>2026-07-09T10:13:16.000Z</time>
      </trkpt>
      <trkpt lat="46.75835" lon="15.98698">
        <ele>250.949501</ele>
        <time>2026-07-09T10:13:25.000Z</time>
      </trkpt>
      <trkpt lat="46.75801" lon="15.98693">
        <ele>249.77446</ele>
        <time>2026-07-09T10:13:30.000Z</time>
      </trkpt>
      <trkpt lat="46.7578" lon="15.9869">
        <ele>248.953614</ele>
        <time>2026-07-09T10:13:33.000Z</time>
      </trkpt>
      <trkpt lat="46.75753" lon="15.98685">
        <ele>247.904382</ele>
        <time>2026-07-09T10:13:37.000Z</time>
      </trkpt>
      <trkpt lat="46.75718" lon="15.98676">
        <ele>246.575973</ele>
        <time>2026-07-09T10:13:42.000Z</time>
      </trkpt>
      <trkpt lat="46.75712" lon="15.98672">
        <ele>246.307813</ele>
        <time>2026-07-09T10:13:43.000Z</time>
      </trkpt>
      <trkpt lat="46.75674" lon="15.98645">
        <ele>244.721433</ele>
        <time>2026-07-09T10:13:49.000Z</time>
      </trkpt>
      <trkpt lat="46.75668" lon="15.9864">
        <ele>244.446545</ele>
        <time>2026-07-09T10:13:50.000Z</time>
      </trkpt>
      <trkpt lat="46.75655" lon="15.98628">
        <ele>243.962771</ele>
        <time>2026-07-09T10:13:52.000Z</time>
      </trkpt>
      <trkpt lat="46.75641" lon="15.98607">
        <ele>243.839051</ele>
        <time>2026-07-09T10:13:55.000Z</time>
      </trkpt>
      <trkpt lat="46.75627" lon="15.98586">
        <ele>243.719067</ele>
        <time>2026-07-09T10:13:58.000Z</time>
      </trkpt>
      <trkpt lat="46.75614" lon="15.98569">
        <ele>243.610942</ele>
        <time>2026-07-09T10:14:01.000Z</time>
      </trkpt>
      <trkpt lat="46.75604" lon="15.98556">
        <ele>243.532647</ele>
        <time>2026-07-09T10:14:03.000Z</time>
      </trkpt>
      <trkpt lat="46.75589" lon="15.98536">
        <ele>243.409011</ele>
        <time>2026-07-09T10:14:06.000Z</time>
      </trkpt>
      <trkpt lat="46.75566" lon="15.98506">
        <ele>243.223053</ele>
        <time>2026-07-09T10:14:11.000Z</time>
      </trkpt>
      <trkpt lat="46.75561" lon="15.98501">
        <ele>243.186785</ele>
        <time>2026-07-09T10:14:12.000Z</time>
      </trkpt>
      <trkpt lat="46.75543" lon="15.98474">
        <ele>243.028892</ele>
        <time>2026-07-09T10:14:17.000Z</time>
      </trkpt>
      <trkpt lat="46.75523" lon="15.98458">
        <ele>242.892387</ele>
        <time>2026-07-09T10:14:22.000Z</time>
      </trkpt>
      <trkpt lat="46.75509" lon="15.98451">
        <ele>242.879395</ele>
        <time>2026-07-09T10:14:25.000Z</time>
      </trkpt>
      <trkpt lat="46.75505" lon="15.98448">
        <ele>242.875575</ele>
        <time>2026-07-09T10:14:26.000Z</time>
      </trkpt>
      <trkpt lat="46.75496" lon="15.98445">
        <ele>242.866747</ele>
        <time>2026-07-09T10:14:28.000Z</time>
      </trkpt>
      <trkpt lat="46.75485" lon="15.98444">
        <ele>242.857103</ele>
        <time>2026-07-09T10:14:30.000Z</time>
      </trkpt>
      <trkpt lat="46.75479" lon="15.98445">
        <ele>242.851104</ele>
        <time>2026-07-09T10:14:31.000Z</time>
      </trkpt>
      <trkpt lat="46.75443" lon="15.9845">
        <ele>242.81827</ele>
        <time>2026-07-09T10:14:36.000Z</time>
      </trkpt>
      <trkpt lat="46.75435" lon="15.98449">
        <ele>242.811002</ele>
        <time>2026-07-09T10:14:37.000Z</time>
      </trkpt>
      <trkpt lat="46.7541" lon="15.98449">
        <ele>242.789022</ele>
        <time>2026-07-09T10:14:40.000Z</time>
      </trkpt>
      <trkpt lat="46.75367" lon="15.98442">
        <ele>242.749163</ele>
        <time>2026-07-09T10:14:46.000Z</time>
      </trkpt>
      <trkpt lat="46.75335" lon="15.98432">
        <ele>242.786406</ele>
        <time>2026-07-09T10:14:51.000Z</time>
      </trkpt>
      <trkpt lat="46.75281" lon="15.98418">
        <ele>243.065984</ele>
        <time>2026-07-09T10:15:00.000Z</time>
      </trkpt>
      <trkpt lat="46.75224" lon="15.984">
        <ele>243.360683</ele>
        <time>2026-07-09T10:15:09.000Z</time>
      </trkpt>
      <trkpt lat="46.75216" lon="15.98397">
        <ele>243.399127</ele>
        <time>2026-07-09T10:15:10.000Z</time>
      </trkpt>
      <trkpt lat="46.7519" lon="15.98388">
        <ele>243.536232</ele>
        <time>2026-07-09T10:15:14.000Z</time>
      </trkpt>
      <trkpt lat="46.75178" lon="15.98381">
        <ele>243.604226</ele>
        <time>2026-07-09T10:15:16.000Z</time>
      </trkpt>
      <trkpt lat="46.75172" lon="15.98376">
        <ele>243.637361</ele>
        <time>2026-07-09T10:15:17.000Z</time>
      </trkpt>
      <trkpt lat="46.75162" lon="15.98367">
        <ele>243.554789</ele>
        <time>2026-07-09T10:15:19.000Z</time>
      </trkpt>
      <trkpt lat="46.75149" lon="15.98357">
        <ele>243.443231</ele>
        <time>2026-07-09T10:15:21.000Z</time>
      </trkpt>
      <trkpt lat="46.7514" lon="15.98351">
        <ele>243.372364</ele>
        <time>2026-07-09T10:15:22.000Z</time>
      </trkpt>
      <trkpt lat="46.75128" lon="15.98343">
        <ele>243.263797</ele>
        <time>2026-07-09T10:15:24.000Z</time>
      </trkpt>
      <trkpt lat="46.75094" lon="15.98323">
        <ele>242.985173</ele>
        <time>2026-07-09T10:15:29.000Z</time>
      </trkpt>
      <trkpt lat="46.75076" lon="15.9831">
        <ele>242.828203</ele>
        <time>2026-07-09T10:15:32.000Z</time>
      </trkpt>
      <trkpt lat="46.75063" lon="15.98301">
        <ele>242.716666</ele>
        <time>2026-07-09T10:15:34.000Z</time>
      </trkpt>
      <trkpt lat="46.75057" lon="15.98296">
        <ele>242.665319</ele>
        <time>2026-07-09T10:15:35.000Z</time>
      </trkpt>
      <trkpt lat="46.75046" lon="15.98289">
        <ele>242.571831</ele>
        <time>2026-07-09T10:15:37.000Z</time>
      </trkpt>
      <trkpt lat="46.75038" lon="15.98286">
        <ele>242.508284</ele>
        <time>2026-07-09T10:15:39.000Z</time>
      </trkpt>
      <trkpt lat="46.75031" lon="15.98293">
        <ele>242.449472</ele>
        <time>2026-07-09T10:15:41.000Z</time>
      </trkpt>
      <trkpt lat="46.7503" lon="15.98298">
        <ele>242.418773</ele>
        <time>2026-07-09T10:15:42.000Z</time>
      </trkpt>
      <trkpt lat="46.75029" lon="15.98333">
        <ele>242.189515</ele>
        <time>2026-07-09T10:15:46.000Z</time>
      </trkpt>
      <trkpt lat="46.75027" lon="15.98401">
        <ele>241.043939</ele>
        <time>2026-07-09T10:15:53.000Z</time>
      </trkpt>
      <trkpt lat="46.75026" lon="15.9844">
        <ele>240.380653</ele>
        <time>2026-07-09T10:15:57.000Z</time>
      </trkpt>
      <trkpt lat="46.75023" lon="15.98488">
        <ele>239.580589</ele>
        <time>2026-07-09T10:16:02.000Z</time>
      </trkpt>
      <trkpt lat="46.75017" lon="15.98562">
        <ele>238.322513</ele>
        <time>2026-07-09T10:16:10.000Z</time>
      </trkpt>
      <trkpt lat="46.75015" lon="15.98579">
        <ele>238.036015</ele>
        <time>2026-07-09T10:16:12.000Z</time>
      </trkpt>
      <trkpt lat="46.75014" lon="15.98587">
        <ele>237.892083</ele>
        <time>2026-07-09T10:16:13.000Z</time>
      </trkpt>
      <trkpt lat="46.75017" lon="15.98603">
        <ele>237.949145</ele>
        <time>2026-07-09T10:16:15.000Z</time>
      </trkpt>
      <trkpt lat="46.75024" lon="15.98612">
        <ele>238.065037</ele>
        <time>2026-07-09T10:16:17.000Z</time>
      </trkpt>
      <trkpt lat="46.75028" lon="15.98615">
        <ele>238.121553</ele>
        <time>2026-07-09T10:16:18.000Z</time>
      </trkpt>
      <trkpt lat="46.75036" lon="15.98619">
        <ele>238.225578</ele>
        <time>2026-07-09T10:16:20.000Z</time>
      </trkpt>
      <trkpt lat="46.75043" lon="15.98623">
        <ele>238.317278</ele>
        <time>2026-07-09T10:16:22.000Z</time>
      </trkpt>
      <trkpt lat="46.7505" lon="15.98631">
        <ele>238.423706</ele>
        <time>2026-07-09T10:16:26.000Z</time>
      </trkpt>
      <trkpt lat="46.75051" lon="15.98632">
        <ele>238.429829</ele>
        <time>2026-07-09T10:16:28.000Z</time>
      </trkpt>
      <trkpt lat="46.75054" lon="15.98637">
        <ele>238.491347</ele>
        <time>2026-07-09T10:16:35.000Z</time>
      </trkpt>
      <trkpt lat="46.75055" lon="15.98639">
        <ele>238.50496</ele>
        <time>2026-07-09T10:16:36.000Z</time>
      </trkpt>
      <trkpt lat="46.75055" lon="15.98639">
        <ele>238.510439</ele>
        <time>2026-07-09T10:16:38.000Z</time>
      </trkpt>
      <trkpt lat="46.75058" lon="15.98651">
        <ele>238.615338</ele>
        <time>2026-07-09T10:17:15.000Z</time>
      </trkpt>
      <trkpt lat="46.75059" lon="15.98653">
        <ele>238.633191</ele>
        <time>2026-07-09T10:17:16.000Z</time>
      </trkpt>
      <trkpt lat="46.7506" lon="15.98656">
        <ele>238.66747</ele>
        <time>2026-07-09T10:17:18.000Z</time>
      </trkpt>
      <trkpt lat="46.75062" lon="15.98661">
        <ele>238.712217</ele>
        <time>2026-07-09T10:17:21.000Z</time>
      </trkpt>
      <trkpt lat="46.75064" lon="15.98659">
        <ele>238.743846</ele>
        <time>2026-07-09T10:17:24.000Z</time>
      </trkpt>
      <trkpt lat="46.75064" lon="15.98657">
        <ele>238.764455</ele>
        <time>2026-07-09T10:17:25.000Z</time>
      </trkpt>
      <trkpt lat="46.75059" lon="15.98641">
        <ele>238.906678</ele>
        <time>2026-07-09T10:17:30.000Z</time>
      </trkpt>
      <trkpt lat="46.75047" lon="15.98618">
        <ele>239.143772</ele>
        <time>2026-07-09T10:17:36.000Z</time>
      </trkpt>
      <trkpt lat="46.75036" lon="15.98626">
        <ele>239.285604</ele>
        <time>2026-07-09T10:17:39.000Z</time>
      </trkpt>
      <trkpt lat="46.7503" lon="15.98637">
        <ele>239.40209</ele>
        <time>2026-07-09T10:17:41.000Z</time>
      </trkpt>
      <trkpt lat="46.75021" lon="15.98643">
        <ele>239.522545</ele>
        <time>2026-07-09T10:17:43.000Z</time>
      </trkpt>
      <trkpt lat="46.75016" lon="15.98645">
        <ele>239.579638</ele>
        <time>2026-07-09T10:17:44.000Z</time>
      </trkpt>
      <trkpt lat="46.75007" lon="15.98647">
        <ele>239.689171</ele>
        <time>2026-07-09T10:17:46.000Z</time>
      </trkpt>
      <trkpt lat="46.74998" lon="15.98648">
        <ele>239.800551</ele>
        <time>2026-07-09T10:17:48.000Z</time>
      </trkpt>
      <trkpt lat="46.74954" lon="15.98664">
        <ele>239.549771</ele>
        <time>2026-07-09T10:17:57.000Z</time>
      </trkpt>
      <trkpt lat="46.74918" lon="15.98681">
        <ele>238.91617</ele>
        <time>2026-07-09T10:18:04.000Z</time>
      </trkpt>
      <trkpt lat="46.74908" lon="15.98686">
        <ele>238.740703</ele>
        <time>2026-07-09T10:18:06.000Z</time>
      </trkpt>
      <trkpt lat="46.74881" lon="15.98691">
        <ele>238.291109</ele>
        <time>2026-07-09T10:18:11.000Z</time>
      </trkpt>
      <trkpt lat="46.74853" lon="15.98694">
        <ele>237.832653</ele>
        <time>2026-07-09T10:18:16.000Z</time>
      </trkpt>
      <trkpt lat="46.74837" lon="15.98694">
        <ele>237.563331</ele>
        <time>2026-07-09T10:18:19.000Z</time>
      </trkpt>
      <trkpt lat="46.74815" lon="15.98693">
        <ele>237.209732</ele>
        <time>2026-07-09T10:18:23.000Z</time>
      </trkpt>
      <trkpt lat="46.74799" lon="15.9869">
        <ele>236.914488</ele>
        <time>2026-07-09T10:18:26.000Z</time>
      </trkpt>
      <trkpt lat="46.74766" lon="15.98684">
        <ele>236.312866</ele>
        <time>2026-07-09T10:18:32.000Z</time>
      </trkpt>
      <trkpt lat="46.74756" lon="15.98684">
        <ele>236.118009</ele>
        <time>2026-07-09T10:18:34.000Z</time>
      </trkpt>
      <trkpt lat="46.74714" lon="15.98685">
        <ele>235.344432</ele>
        <time>2026-07-09T10:18:42.000Z</time>
      </trkpt>
      <trkpt lat="46.74676" lon="15.98692">
        <ele>234.634175</ele>
        <time>2026-07-09T10:18:49.000Z</time>
      </trkpt>
      <trkpt lat="46.74671" lon="15.98694">
        <ele>234.531436</ele>
        <time>2026-07-09T10:18:50.000Z</time>
      </trkpt>
      <trkpt lat="46.74634" lon="15.98707">
        <ele>233.826145</ele>
        <time>2026-07-09T10:18:57.000Z</time>
      </trkpt>
      <trkpt lat="46.74609" lon="15.9872">
        <ele>233.528382</ele>
        <time>2026-07-09T10:19:02.000Z</time>
      </trkpt>
      <trkpt lat="46.74598" lon="15.98727">
        <ele>233.431602</ele>
        <time>2026-07-09T10:19:04.000Z</time>
      </trkpt>
      <trkpt lat="46.74594" lon="15.98731">
        <ele>233.385113</ele>
        <time>2026-07-09T10:19:05.000Z</time>
      </trkpt>
      <trkpt lat="46.74569" lon="15.98748">
        <ele>233.154837</ele>
        <time>2026-07-09T10:19:10.000Z</time>
      </trkpt>
      <trkpt lat="46.74526" lon="15.98785">
        <ele>232.722162</ele>
        <time>2026-07-09T10:19:19.000Z</time>
      </trkpt>
      <trkpt lat="46.74499" lon="15.98811">
        <ele>232.447656</ele>
        <time>2026-07-09T10:19:25.000Z</time>
      </trkpt>
      <trkpt lat="46.74489" lon="15.98819">
        <ele>232.351776</ele>
        <time>2026-07-09T10:19:27.000Z</time>
      </trkpt>
      <trkpt lat="46.74474" lon="15.98833">
        <ele>232.198655</ele>
        <time>2026-07-09T10:19:30.000Z</time>
      </trkpt>
      <trkpt lat="46.74465" lon="15.98839">
        <ele>232.138275</ele>
        <time>2026-07-09T10:19:32.000Z</time>
      </trkpt>
      <trkpt lat="46.74423" lon="15.9886">
        <ele>231.971309</ele>
        <time>2026-07-09T10:19:40.000Z</time>
      </trkpt>
      <trkpt lat="46.74386" lon="15.98865">
        <ele>231.832287</ele>
        <time>2026-07-09T10:19:47.000Z</time>
      </trkpt>
      <trkpt lat="46.7438" lon="15.98864">
        <ele>231.810778</ele>
        <time>2026-07-09T10:19:48.000Z</time>
      </trkpt>
      <trkpt lat="46.74364" lon="15.98861">
        <ele>231.750121</ele>
        <time>2026-07-09T10:19:51.000Z</time>
      </trkpt>
      <trkpt lat="46.74347" lon="15.98857">
        <ele>231.682029</ele>
        <time>2026-07-09T10:19:54.000Z</time>
      </trkpt>
      <trkpt lat="46.74341" lon="15.98855">
        <ele>231.658927</ele>
        <time>2026-07-09T10:19:55.000Z</time>
      </trkpt>
      <trkpt lat="46.74306" lon="15.9884">
        <ele>231.522411</ele>
        <time>2026-07-09T10:20:02.000Z</time>
      </trkpt>
      <trkpt lat="46.74294" lon="15.98835">
        <ele>231.459278</ele>
        <time>2026-07-09T10:20:04.000Z</time>
      </trkpt>
      <trkpt lat="46.74268" lon="15.98825">
        <ele>231.149555</ele>
        <time>2026-07-09T10:20:09.000Z</time>
      </trkpt>
      <trkpt lat="46.74257" lon="15.98821">
        <ele>231.017279</ele>
        <time>2026-07-09T10:20:11.000Z</time>
      </trkpt>
      <trkpt lat="46.74209" lon="15.98806">
        <ele>230.440756</ele>
        <time>2026-07-09T10:20:20.000Z</time>
      </trkpt>
      <trkpt lat="46.74193" lon="15.98803">
        <ele>230.253728</ele>
        <time>2026-07-09T10:20:23.000Z</time>
      </trkpt>
      <trkpt lat="46.74177" lon="15.988">
        <ele>230.064993</ele>
        <time>2026-07-09T10:20:26.000Z</time>
      </trkpt>
      <trkpt lat="46.74125" lon="15.98794">
        <ele>229.447986</ele>
        <time>2026-07-09T10:20:36.000Z</time>
      </trkpt>
      <trkpt lat="46.74094" lon="15.98795">
        <ele>229.391953</ele>
        <time>2026-07-09T10:20:42.000Z</time>
      </trkpt>
      <trkpt lat="46.74063" lon="15.98808">
        <ele>229.412914</ele>
        <time>2026-07-09T10:20:48.000Z</time>
      </trkpt>
      <trkpt lat="46.74053" lon="15.98815">
        <ele>229.420068</ele>
        <time>2026-07-09T10:20:50.000Z</time>
      </trkpt>
      <trkpt lat="46.74043" lon="15.98821">
        <ele>229.427175</ele>
        <time>2026-07-09T10:20:52.000Z</time>
      </trkpt>
      <trkpt lat="46.74034" lon="15.9883">
        <ele>229.434253</ele>
        <time>2026-07-09T10:20:54.000Z</time>
      </trkpt>
      <trkpt lat="46.74018" lon="15.98853">
        <ele>229.448932</ele>
        <time>2026-07-09T10:20:58.000Z</time>
      </trkpt>
      <trkpt lat="46.74008" lon="15.98871">
        <ele>229.459652</ele>
        <time>2026-07-09T10:21:01.000Z</time>
      </trkpt>
      <trkpt lat="46.73983" lon="15.98912">
        <ele>229.484292</ele>
        <time>2026-07-09T10:21:08.000Z</time>
      </trkpt>
      <trkpt lat="46.73971" lon="15.98928">
        <ele>229.511652</ele>
        <time>2026-07-09T10:21:11.000Z</time>
      </trkpt>
      <trkpt lat="46.7396" lon="15.98936">
        <ele>229.606881</ele>
        <time>2026-07-09T10:21:13.000Z</time>
      </trkpt>
      <trkpt lat="46.7395" lon="15.98939">
        <ele>229.686993</ele>
        <time>2026-07-09T10:21:15.000Z</time>
      </trkpt>
      <trkpt lat="46.73939" lon="15.98942">
        <ele>229.780809</ele>
        <time>2026-07-09T10:21:17.000Z</time>
      </trkpt>
      <trkpt lat="46.73932" lon="15.98943">
        <ele>229.836239</ele>
        <time>2026-07-09T10:21:18.000Z</time>
      </trkpt>
      <trkpt lat="46.73899" lon="15.98948">
        <ele>230.106175</ele>
        <time>2026-07-09T10:21:24.000Z</time>
      </trkpt>
      <trkpt lat="46.73889" lon="15.98951">
        <ele>230.185764</ele>
        <time>2026-07-09T10:21:26.000Z</time>
      </trkpt>
      <trkpt lat="46.73869" lon="15.98964">
        <ele>230.367158</ele>
        <time>2026-07-09T10:21:30.000Z</time>
      </trkpt>
      <trkpt lat="46.73846" lon="15.98983">
        <ele>230.575897</ele>
        <time>2026-07-09T10:21:35.000Z</time>
      </trkpt>
      <trkpt lat="46.73837" lon="15.98995">
        <ele>230.675935</ele>
        <time>2026-07-09T10:21:37.000Z</time>
      </trkpt>
      <trkpt lat="46.73814" lon="15.99039">
        <ele>230.915589</ele>
        <time>2026-07-09T10:21:44.000Z</time>
      </trkpt>
      <trkpt lat="46.73795" lon="15.9909">
        <ele>230.647383</ele>
        <time>2026-07-09T10:21:51.000Z</time>
      </trkpt>
      <trkpt lat="46.73791" lon="15.99097">
        <ele>230.603452</ele>
        <time>2026-07-09T10:21:52.000Z</time>
      </trkpt>
      <trkpt lat="46.73767" lon="15.9913">
        <ele>230.381428</ele>
        <time>2026-07-09T10:21:58.000Z</time>
      </trkpt>
      <trkpt lat="46.73738" lon="15.99154">
        <ele>230.154535</ele>
        <time>2026-07-09T10:22:04.000Z</time>
      </trkpt>
      <trkpt lat="46.73705" lon="15.99165">
        <ele>229.923114</ele>
        <time>2026-07-09T10:22:10.000Z</time>
      </trkpt>
      <trkpt lat="46.73666" lon="15.99165">
        <ele>229.646554</ele>
        <time>2026-07-09T10:22:17.000Z</time>
      </trkpt>
      <trkpt lat="46.73649" lon="15.99164">
        <ele>229.51545</ele>
        <time>2026-07-09T10:22:20.000Z</time>
      </trkpt>
      <trkpt lat="46.7362" lon="15.9916">
        <ele>229.285821</ele>
        <time>2026-07-09T10:22:25.000Z</time>
      </trkpt>
      <trkpt lat="46.73608" lon="15.99159">
        <ele>229.198333</ele>
        <time>2026-07-09T10:22:27.000Z</time>
      </trkpt>
      <trkpt lat="46.73591" lon="15.99159">
        <ele>229.064942</ele>
        <time>2026-07-09T10:22:30.000Z</time>
      </trkpt>
      <trkpt lat="46.73574" lon="15.99158">
        <ele>228.933118</ele>
        <time>2026-07-09T10:22:33.000Z</time>
      </trkpt>
      <trkpt lat="46.73552" lon="15.99161">
        <ele>228.754612</ele>
        <time>2026-07-09T10:22:37.000Z</time>
      </trkpt>
      <trkpt lat="46.73518" lon="15.99167">
        <ele>228.489229</ele>
        <time>2026-07-09T10:22:43.000Z</time>
      </trkpt>
      <trkpt lat="46.73512" lon="15.99168">
        <ele>228.446451</ele>
        <time>2026-07-09T10:22:44.000Z</time>
      </trkpt>
      <trkpt lat="46.73501" lon="15.99171">
        <ele>228.357141</ele>
        <time>2026-07-09T10:22:46.000Z</time>
      </trkpt>
      <trkpt lat="46.73463" lon="15.99184">
        <ele>227.98674</ele>
        <time>2026-07-09T10:22:53.000Z</time>
      </trkpt>
      <trkpt lat="46.73458" lon="15.99188">
        <ele>227.931702</ele>
        <time>2026-07-09T10:22:54.000Z</time>
      </trkpt>
      <trkpt lat="46.73442" lon="15.99197">
        <ele>227.765301</ele>
        <time>2026-07-09T10:22:57.000Z</time>
      </trkpt>
      <trkpt lat="46.73432" lon="15.99203">
        <ele>227.653426</ele>
        <time>2026-07-09T10:22:59.000Z</time>
      </trkpt>
      <trkpt lat="46.73421" lon="15.99209">
        <ele>227.544362</ele>
        <time>2026-07-09T10:23:01.000Z</time>
      </trkpt>
      <trkpt lat="46.734" lon="15.99222">
        <ele>227.323827</ele>
        <time>2026-07-09T10:23:05.000Z</time>
      </trkpt>
      <trkpt lat="46.73384" lon="15.99232">
        <ele>227.152653</ele>
        <time>2026-07-09T10:23:08.000Z</time>
      </trkpt>
      <trkpt lat="46.73362" lon="15.99243">
        <ele>226.920852</ele>
        <time>2026-07-09T10:23:12.000Z</time>
      </trkpt>
      <trkpt lat="46.73351" lon="15.99248">
        <ele>226.808493</ele>
        <time>2026-07-09T10:23:14.000Z</time>
      </trkpt>
      <trkpt lat="46.73345" lon="15.9925">
        <ele>226.751473</ele>
        <time>2026-07-09T10:23:15.000Z</time>
      </trkpt>
      <trkpt lat="46.73334" lon="15.99253">
        <ele>226.639342</ele>
        <time>2026-07-09T10:23:17.000Z</time>
      </trkpt>
      <trkpt lat="46.73322" lon="15.99256">
        <ele>226.547244</ele>
        <time>2026-07-09T10:23:19.000Z</time>
      </trkpt>
      <trkpt lat="46.73276" lon="15.9926">
        <ele>226.315927</ele>
        <time>2026-07-09T10:23:27.000Z</time>
      </trkpt>
      <trkpt lat="46.73219" lon="15.99272">
        <ele>226.027657</ele>
        <time>2026-07-09T10:23:37.000Z</time>
      </trkpt>
      <trkpt lat="46.73179" lon="15.99285">
        <ele>225.827149</ele>
        <time>2026-07-09T10:23:44.000Z</time>
      </trkpt>
      <trkpt lat="46.73141" lon="15.993">
        <ele>225.651402</ele>
        <time>2026-07-09T10:23:51.000Z</time>
      </trkpt>
      <trkpt lat="46.73094" lon="15.9933">
        <ele>225.529123</ele>
        <time>2026-07-09T10:24:00.000Z</time>
      </trkpt>
      <trkpt lat="46.73079" lon="15.99344">
        <ele>225.486315</ele>
        <time>2026-07-09T10:24:03.000Z</time>
      </trkpt>
      <trkpt lat="46.73064" lon="15.99359">
        <ele>225.443753</ele>
        <time>2026-07-09T10:24:06.000Z</time>
      </trkpt>
      <trkpt lat="46.73046" lon="15.99381">
        <ele>225.386939</ele>
        <time>2026-07-09T10:24:10.000Z</time>
      </trkpt>
      <trkpt lat="46.73029" lon="15.99406">
        <ele>225.329989</ele>
        <time>2026-07-09T10:24:14.000Z</time>
      </trkpt>
      <trkpt lat="46.73023" lon="15.99421">
        <ele>225.30148</ele>
        <time>2026-07-09T10:24:16.000Z</time>
      </trkpt>
      <trkpt lat="46.7302" lon="15.99428">
        <ele>225.287118</ele>
        <time>2026-07-09T10:24:17.000Z</time>
      </trkpt>
      <trkpt lat="46.73011" lon="15.99462">
        <ele>225.166075</ele>
        <time>2026-07-09T10:24:21.000Z</time>
      </trkpt>
      <trkpt lat="46.7301" lon="15.9947">
        <ele>225.082419</ele>
        <time>2026-07-09T10:24:22.000Z</time>
      </trkpt>
      <trkpt lat="46.7301" lon="15.99506">
        <ele>224.750351</ele>
        <time>2026-07-09T10:24:26.000Z</time>
      </trkpt>
      <trkpt lat="46.7301" lon="15.99524">
        <ele>224.586179</ele>
        <time>2026-07-09T10:24:28.000Z</time>
      </trkpt>
      <trkpt lat="46.73007" lon="15.99551">
        <ele>224.340911</ele>
        <time>2026-07-09T10:24:31.000Z</time>
      </trkpt>
      <trkpt lat="46.73005" lon="15.99559">
        <ele>224.257576</ele>
        <time>2026-07-09T10:24:32.000Z</time>
      </trkpt>
      <trkpt lat="46.72996" lon="15.99582">
        <ele>224.017051</ele>
        <time>2026-07-09T10:24:35.000Z</time>
      </trkpt>
      <trkpt lat="46.72974" lon="15.99613">
        <ele>223.601967</ele>
        <time>2026-07-09T10:24:40.000Z</time>
      </trkpt>
      <trkpt lat="46.7293" lon="15.99661">
        <ele>222.862203</ele>
        <time>2026-07-09T10:24:49.000Z</time>
      </trkpt>
      <trkpt lat="46.72906" lon="15.99687">
        <ele>222.808356</ele>
        <time>2026-07-09T10:24:54.000Z</time>
      </trkpt>
      <trkpt lat="46.72892" lon="15.99703">
        <ele>222.798538</ele>
        <time>2026-07-09T10:24:57.000Z</time>
      </trkpt>
      <trkpt lat="46.72883" lon="15.99714">
        <ele>222.791979</ele>
        <time>2026-07-09T10:24:59.000Z</time>
      </trkpt>
      <trkpt lat="46.72878" lon="15.99719">
        <ele>222.788766</ele>
        <time>2026-07-09T10:25:00.000Z</time>
      </trkpt>
      <trkpt lat="46.7284" lon="15.99766">
        <ele>222.762053</ele>
        <time>2026-07-09T10:25:08.000Z</time>
      </trkpt>
      <trkpt lat="46.72808" lon="15.99805">
        <ele>222.739383</ele>
        <time>2026-07-09T10:25:15.000Z</time>
      </trkpt>
      <trkpt lat="46.72789" lon="15.99826">
        <ele>222.726618</ele>
        <time>2026-07-09T10:25:19.000Z</time>
      </trkpt>
      <trkpt lat="46.7277" lon="15.99847">
        <ele>222.682265</ele>
        <time>2026-07-09T10:25:23.000Z</time>
      </trkpt>
      <trkpt lat="46.72759" lon="15.99856">
        <ele>222.657828</ele>
        <time>2026-07-09T10:25:25.000Z</time>
      </trkpt>
      <trkpt lat="46.72733" lon="15.99875">
        <ele>222.598934</ele>
        <time>2026-07-09T10:25:30.000Z</time>
      </trkpt>
      <trkpt lat="46.72687" lon="15.99895">
        <ele>222.503816</ele>
        <time>2026-07-09T10:25:38.000Z</time>
      </trkpt>
      <trkpt lat="46.72633" lon="15.99913">
        <ele>222.395827</ele>
        <time>2026-07-09T10:25:47.000Z</time>
      </trkpt>
      <trkpt lat="46.72607" lon="15.99926">
        <ele>222.316533</ele>
        <time>2026-07-09T10:25:52.000Z</time>
      </trkpt>
      <trkpt lat="46.72596" lon="15.99933">
        <ele>222.276384</ele>
        <time>2026-07-09T10:25:54.000Z</time>
      </trkpt>
      <trkpt lat="46.7257" lon="15.99952">
        <ele>222.173754</ele>
        <time>2026-07-09T10:25:59.000Z</time>
      </trkpt>
      <trkpt lat="46.7255" lon="15.9997">
        <ele>222.090257</ele>
        <time>2026-07-09T10:26:03.000Z</time>
      </trkpt>
      <trkpt lat="46.72531" lon="15.9999">
        <ele>222.006445</ele>
        <time>2026-07-09T10:26:07.000Z</time>
      </trkpt>
      <trkpt lat="46.72526" lon="15.99996">
        <ele>221.985613</ele>
        <time>2026-07-09T10:26:08.000Z</time>
      </trkpt>
      <trkpt lat="46.72522" lon="16.00002">
        <ele>221.964104</ele>
        <time>2026-07-09T10:26:09.000Z</time>
      </trkpt>
      <trkpt lat="46.72494" lon="16.00042">
        <ele>221.826997</ele>
        <time>2026-07-09T10:26:16.000Z</time>
      </trkpt>
      <trkpt lat="46.72491" lon="16.00046">
        <ele>221.810155</ele>
        <time>2026-07-09T10:26:17.000Z</time>
      </trkpt>
      <trkpt lat="46.72483" lon="16.00054">
        <ele>221.776689</ele>
        <time>2026-07-09T10:26:19.000Z</time>
      </trkpt>
      <trkpt lat="46.72478" lon="16.00055">
        <ele>221.760455</ele>
        <time>2026-07-09T10:26:20.000Z</time>
      </trkpt>
      <trkpt lat="46.72474" lon="16.00055">
        <ele>221.744914</ele>
        <time>2026-07-09T10:26:21.000Z</time>
      </trkpt>
      <trkpt lat="46.72465" lon="16.00051">
        <ele>221.697546</ele>
        <time>2026-07-09T10:26:23.000Z</time>
      </trkpt>
      <trkpt lat="46.7246" lon="16.00047">
        <ele>221.668586</ele>
        <time>2026-07-09T10:26:24.000Z</time>
      </trkpt>
      <trkpt lat="46.72433" lon="16.00034">
        <ele>221.514978</ele>
        <time>2026-07-09T10:26:29.000Z</time>
      </trkpt>
      <trkpt lat="46.72422" lon="16.0003">
        <ele>221.452571</ele>
        <time>2026-07-09T10:26:31.000Z</time>
      </trkpt>
      <trkpt lat="46.72405" lon="16.00025">
        <ele>221.358735</ele>
        <time>2026-07-09T10:26:34.000Z</time>
      </trkpt>
      <trkpt lat="46.72383" lon="16.00021">
        <ele>221.237243</ele>
        <time>2026-07-09T10:26:38.000Z</time>
      </trkpt>
      <trkpt lat="46.72326" lon="16.00022">
        <ele>220.932208</ele>
        <time>2026-07-09T10:26:48.000Z</time>
      </trkpt>
      <trkpt lat="46.72321" lon="16.00023">
        <ele>220.900133</ele>
        <time>2026-07-09T10:26:49.000Z</time>
      </trkpt>
      <trkpt lat="46.72303" lon="16.00024">
        <ele>220.802373</ele>
        <time>2026-07-09T10:26:52.000Z</time>
      </trkpt>
      <trkpt lat="46.7229" lon="16.00024">
        <ele>220.728318</ele>
        <time>2026-07-09T10:26:54.000Z</time>
      </trkpt>
      <trkpt lat="46.72285" lon="16.00023">
        <ele>220.684914</ele>
        <time>2026-07-09T10:26:55.000Z</time>
      </trkpt>
      <trkpt lat="46.72273" lon="16.00022">
        <ele>220.596415</ele>
        <time>2026-07-09T10:26:57.000Z</time>
      </trkpt>
      <trkpt lat="46.72267" lon="16.00021">
        <ele>220.553695</ele>
        <time>2026-07-09T10:26:58.000Z</time>
      </trkpt>
      <trkpt lat="46.72256" lon="16.0002">
        <ele>220.46734</ele>
        <time>2026-07-09T10:27:00.000Z</time>
      </trkpt>
      <trkpt lat="46.72222" lon="16.00009">
        <ele>220.20776</ele>
        <time>2026-07-09T10:27:06.000Z</time>
      </trkpt>
      <trkpt lat="46.72212" lon="16">
        <ele>220.118831</ele>
        <time>2026-07-09T10:27:08.000Z</time>
      </trkpt>
      <trkpt lat="46.72208" lon="15.99993">
        <ele>220.075536</ele>
        <time>2026-07-09T10:27:09.000Z</time>
      </trkpt>
      <trkpt lat="46.72206" lon="15.99986">
        <ele>220.03219</ele>
        <time>2026-07-09T10:27:10.000Z</time>
      </trkpt>
      <trkpt lat="46.72203" lon="15.99969">
        <ele>219.942661</ele>
        <time>2026-07-09T10:27:12.000Z</time>
      </trkpt>
      <trkpt lat="46.72201" lon="15.99909">
        <ele>219.63662</ele>
        <time>2026-07-09T10:27:19.000Z</time>
      </trkpt>
      <trkpt lat="46.72199" lon="15.99901">
        <ele>219.593128</ele>
        <time>2026-07-09T10:27:20.000Z</time>
      </trkpt>
      <trkpt lat="46.72195" lon="15.99885">
        <ele>219.504867</ele>
        <time>2026-07-09T10:27:22.000Z</time>
      </trkpt>
      <trkpt lat="46.72187" lon="15.99871">
        <ele>219.414679</ele>
        <time>2026-07-09T10:27:24.000Z</time>
      </trkpt>
      <trkpt lat="46.72183" lon="15.99864">
        <ele>219.564518</ele>
        <time>2026-07-09T10:27:25.000Z</time>
      </trkpt>
      <trkpt lat="46.72176" lon="15.99853">
        <ele>219.837301</ele>
        <time>2026-07-09T10:27:27.000Z</time>
      </trkpt>
      <trkpt lat="46.72166" lon="15.99846">
        <ele>220.114044</ele>
        <time>2026-07-09T10:27:29.000Z</time>
      </trkpt>
      <trkpt lat="46.72154" lon="15.99843">
        <ele>220.42449</ele>
        <time>2026-07-09T10:27:31.000Z</time>
      </trkpt>
      <trkpt lat="46.72141" lon="15.99841">
        <ele>220.742614</ele>
        <time>2026-07-09T10:27:33.000Z</time>
      </trkpt>
      <trkpt lat="46.72135" lon="15.9984">
        <ele>220.885878</ele>
        <time>2026-07-09T10:27:34.000Z</time>
      </trkpt>
      <trkpt lat="46.72129" lon="15.99839">
        <ele>221.042451</ele>
        <time>2026-07-09T10:27:35.000Z</time>
      </trkpt>
      <trkpt lat="46.72105" lon="15.99836">
        <ele>221.638671</ele>
        <time>2026-07-09T10:27:39.000Z</time>
      </trkpt>
      <trkpt lat="46.721" lon="15.99835">
        <ele>221.777617</ele>
        <time>2026-07-09T10:27:40.000Z</time>
      </trkpt>
      <trkpt lat="46.72077" lon="15.99826">
        <ele>222.379876</ele>
        <time>2026-07-09T10:27:44.000Z</time>
      </trkpt>
      <trkpt lat="46.7206" lon="15.99812">
        <ele>222.859713</ele>
        <time>2026-07-09T10:27:47.000Z</time>
      </trkpt>
      <trkpt lat="46.72052" lon="15.99805">
        <ele>223.093912</ele>
        <time>2026-07-09T10:27:49.000Z</time>
      </trkpt>
      <trkpt lat="46.7202" lon="15.99772">
        <ele>223.96355</ele>
        <time>2026-07-09T10:27:57.000Z</time>
      </trkpt>
      <trkpt lat="46.71989" lon="15.9974">
        <ele>224.218202</ele>
        <time>2026-07-09T10:28:05.000Z</time>
      </trkpt>
      <trkpt lat="46.71965" lon="15.99714">
        <ele>224.420806</ele>
        <time>2026-07-09T10:28:11.000Z</time>
      </trkpt>
      <trkpt lat="46.71943" lon="15.99693">
        <ele>224.592229</ele>
        <time>2026-07-09T10:28:16.000Z</time>
      </trkpt>
      <trkpt lat="46.71902" lon="15.99651">
        <ele>224.925863</ele>
        <time>2026-07-09T10:28:25.000Z</time>
      </trkpt>
      <trkpt lat="46.71878" lon="15.99626">
        <ele>225.122872</ele>
        <time>2026-07-09T10:28:30.000Z</time>
      </trkpt>
      <trkpt lat="46.71849" lon="15.99597">
        <ele>224.959986</ele>
        <time>2026-07-09T10:28:36.000Z</time>
      </trkpt>
      <trkpt lat="46.71809" lon="15.99556">
        <ele>224.735247</ele>
        <time>2026-07-09T10:28:45.000Z</time>
      </trkpt>
      <trkpt lat="46.71804" lon="15.99552">
        <ele>224.707859</ele>
        <time>2026-07-09T10:28:46.000Z</time>
      </trkpt>
      <trkpt lat="46.7177" lon="15.99516">
        <ele>224.514961</ele>
        <time>2026-07-09T10:28:53.000Z</time>
      </trkpt>
      <trkpt lat="46.71721" lon="15.99467">
        <ele>224.196773</ele>
        <time>2026-07-09T10:29:03.000Z</time>
      </trkpt>
      <trkpt lat="46.71696" lon="15.9944">
        <ele>223.915547</ele>
        <time>2026-07-09T10:29:09.000Z</time>
      </trkpt>
      <trkpt lat="46.71679" lon="15.99426">
        <ele>223.751495</ele>
        <time>2026-07-09T10:29:13.000Z</time>
      </trkpt>
      <trkpt lat="46.71671" lon="15.99424">
        <ele>223.673654</ele>
        <time>2026-07-09T10:29:15.000Z</time>
      </trkpt>
      <trkpt lat="46.71661" lon="15.99423">
        <ele>223.582503</ele>
        <time>2026-07-09T10:29:17.000Z</time>
      </trkpt>
      <trkpt lat="46.71633" lon="15.99425">
        <ele>223.341783</ele>
        <time>2026-07-09T10:29:22.000Z</time>
      </trkpt>
      <trkpt lat="46.71585" lon="15.99416">
        <ele>222.912122</ele>
        <time>2026-07-09T10:29:31.000Z</time>
      </trkpt>
      <trkpt lat="46.71547" lon="15.99392">
        <ele>222.101832</ele>
        <time>2026-07-09T10:29:38.000Z</time>
      </trkpt>
      <trkpt lat="46.71505" lon="15.99364">
        <ele>220.54321</ele>
        <time>2026-07-09T10:29:45.000Z</time>
      </trkpt>
      <trkpt lat="46.71486" lon="15.99352">
        <ele>219.852131</ele>
        <time>2026-07-09T10:29:48.000Z</time>
      </trkpt>
      <trkpt lat="46.71437" lon="15.99321">
        <ele>218.031623</ele>
        <time>2026-07-09T10:29:56.000Z</time>
      </trkpt>
      <trkpt lat="46.71419" lon="15.9931">
        <ele>217.383905</ele>
        <time>2026-07-09T10:29:59.000Z</time>
      </trkpt>
      <trkpt lat="46.71394" lon="15.99296">
        <ele>216.624246</ele>
        <time>2026-07-09T10:30:03.000Z</time>
      </trkpt>
      <trkpt lat="46.71357" lon="15.99278">
        <ele>216.434881</ele>
        <time>2026-07-09T10:30:09.000Z</time>
      </trkpt>
      <trkpt lat="46.71313" lon="15.99266">
        <ele>216.220151</ele>
        <time>2026-07-09T10:30:16.000Z</time>
      </trkpt>
      <trkpt lat="46.71289" lon="15.99263">
        <ele>216.104892</ele>
        <time>2026-07-09T10:30:20.000Z</time>
      </trkpt>
      <trkpt lat="46.71271" lon="15.9926">
        <ele>216.019515</ele>
        <time>2026-07-09T10:30:23.000Z</time>
      </trkpt>
      <trkpt lat="46.71259" lon="15.99259">
        <ele>215.962816</ele>
        <time>2026-07-09T10:30:25.000Z</time>
      </trkpt>
      <trkpt lat="46.71242" lon="15.99259">
        <ele>215.877836</ele>
        <time>2026-07-09T10:30:28.000Z</time>
      </trkpt>
      <trkpt lat="46.71224" lon="15.9926">
        <ele>215.792336</ele>
        <time>2026-07-09T10:30:31.000Z</time>
      </trkpt>
      <trkpt lat="46.71172" lon="15.99269">
        <ele>215.79521</ele>
        <time>2026-07-09T10:30:40.000Z</time>
      </trkpt>
      <trkpt lat="46.71166" lon="15.9927">
        <ele>215.79658</ele>
        <time>2026-07-09T10:30:41.000Z</time>
      </trkpt>
      <trkpt lat="46.71116" lon="15.99288">
        <ele>215.809199</ele>
        <time>2026-07-09T10:30:50.000Z</time>
      </trkpt>
      <trkpt lat="46.7106" lon="15.99319">
        <ele>215.823598</ele>
        <time>2026-07-09T10:31:00.000Z</time>
      </trkpt>
      <trkpt lat="46.71055" lon="15.99322">
        <ele>215.82505</ele>
        <time>2026-07-09T10:31:01.000Z</time>
      </trkpt>
      <trkpt lat="46.71002" lon="15.99363">
        <ele>215.885157</ele>
        <time>2026-07-09T10:31:11.000Z</time>
      </trkpt>
      <trkpt lat="46.70997" lon="15.99367">
        <ele>215.891439</ele>
        <time>2026-07-09T10:31:12.000Z</time>
      </trkpt>
      <trkpt lat="46.7095" lon="15.994">
        <ele>215.949081</ele>
        <time>2026-07-09T10:31:21.000Z</time>
      </trkpt>
      <trkpt lat="46.709" lon="15.99425">
        <ele>216.006281</ele>
        <time>2026-07-09T10:31:30.000Z</time>
      </trkpt>
      <trkpt lat="46.70843" lon="15.99438">
        <ele>215.905286</ele>
        <time>2026-07-09T10:31:40.000Z</time>
      </trkpt>
      <trkpt lat="46.7079" lon="15.9944">
        <ele>215.755937</ele>
        <time>2026-07-09T10:31:49.000Z</time>
      </trkpt>
      <trkpt lat="46.70732" lon="15.99429">
        <ele>215.588952</ele>
        <time>2026-07-09T10:31:59.000Z</time>
      </trkpt>
      <trkpt lat="46.70676" lon="15.99408">
        <ele>215.439142</ele>
        <time>2026-07-09T10:32:09.000Z</time>
      </trkpt>
      <trkpt lat="46.70671" lon="15.99406">
        <ele>215.425523</ele>
        <time>2026-07-09T10:32:10.000Z</time>
      </trkpt>
      <trkpt lat="46.70615" lon="15.99384">
        <ele>215.28703</ele>
        <time>2026-07-09T10:32:20.000Z</time>
      </trkpt>
      <trkpt lat="46.70603" lon="15.99379">
        <ele>215.258598</ele>
        <time>2026-07-09T10:32:22.000Z</time>
      </trkpt>
      <trkpt lat="46.70546" lon="15.99361">
        <ele>215.119727</ele>
        <time>2026-07-09T10:32:32.000Z</time>
      </trkpt>
      <trkpt lat="46.70501" lon="15.99348">
        <ele>215.130769</ele>
        <time>2026-07-09T10:32:40.000Z</time>
      </trkpt>
      <trkpt lat="46.70445" lon="15.99331">
        <ele>215.214769</ele>
        <time>2026-07-09T10:32:50.000Z</time>
      </trkpt>
      <trkpt lat="46.70393" lon="15.99315">
        <ele>215.29155</ele>
        <time>2026-07-09T10:32:59.000Z</time>
      </trkpt>
      <trkpt lat="46.70337" lon="15.99292">
        <ele>215.23575</ele>
        <time>2026-07-09T10:33:09.000Z</time>
      </trkpt>
      <trkpt lat="46.7028" lon="15.99265">
        <ele>214.900334</ele>
        <time>2026-07-09T10:33:19.000Z</time>
      </trkpt>
      <trkpt lat="46.70275" lon="15.99262">
        <ele>214.867409</ele>
        <time>2026-07-09T10:33:20.000Z</time>
      </trkpt>
      <trkpt lat="46.70222" lon="15.99231">
        <ele>214.548373</ele>
        <time>2026-07-09T10:33:30.000Z</time>
      </trkpt>
      <trkpt lat="46.70171" lon="15.99196">
        <ele>214.33082</ele>
        <time>2026-07-09T10:33:40.000Z</time>
      </trkpt>
      <trkpt lat="46.70127" lon="15.99164">
        <ele>214.31656</ele>
        <time>2026-07-09T10:33:49.000Z</time>
      </trkpt>
      <trkpt lat="46.70087" lon="15.99134">
        <ele>214.303692</ele>
        <time>2026-07-09T10:33:57.000Z</time>
      </trkpt>
      <trkpt lat="46.70077" lon="15.99127">
        <ele>214.300417</ele>
        <time>2026-07-09T10:33:59.000Z</time>
      </trkpt>
      <trkpt lat="46.70027" lon="15.99089">
        <ele>214.280139</ele>
        <time>2026-07-09T10:34:09.000Z</time>
      </trkpt>
      <trkpt lat="46.70022" lon="15.99086">
        <ele>214.256431</ele>
        <time>2026-07-09T10:34:10.000Z</time>
      </trkpt>
      <trkpt lat="46.70002" lon="15.99073">
        <ele>214.154443</ele>
        <time>2026-07-09T10:34:14.000Z</time>
      </trkpt>
      <trkpt lat="46.69979" lon="15.99057">
        <ele>214.035198</ele>
        <time>2026-07-09T10:34:18.000Z</time>
      </trkpt>
      <trkpt lat="46.69935" lon="15.99027">
        <ele>213.809947</ele>
        <time>2026-07-09T10:34:26.000Z</time>
      </trkpt>
      <trkpt lat="46.69929" lon="15.99024">
        <ele>213.781478</ele>
        <time>2026-07-09T10:34:27.000Z</time>
      </trkpt>
      <trkpt lat="46.69918" lon="15.99018">
        <ele>213.726504</ele>
        <time>2026-07-09T10:34:29.000Z</time>
      </trkpt>
      <trkpt lat="46.69907" lon="15.99015">
        <ele>213.673609</ele>
        <time>2026-07-09T10:34:31.000Z</time>
      </trkpt>
      <trkpt lat="46.69878" lon="15.99011">
        <ele>213.53672</ele>
        <time>2026-07-09T10:34:36.000Z</time>
      </trkpt>
      <trkpt lat="46.69871" lon="15.99011">
        <ele>213.506922</ele>
        <time>2026-07-09T10:34:37.000Z</time>
      </trkpt>
      <trkpt lat="46.69858" lon="15.99012">
        <ele>213.445148</ele>
        <time>2026-07-09T10:34:39.000Z</time>
      </trkpt>
      <trkpt lat="46.69842" lon="15.99019">
        <ele>213.328527</ele>
        <time>2026-07-09T10:34:42.000Z</time>
      </trkpt>
      <trkpt lat="46.69807" lon="15.99045">
        <ele>213.063613</ele>
        <time>2026-07-09T10:34:49.000Z</time>
      </trkpt>
      <trkpt lat="46.69793" lon="15.99059">
        <ele>212.948152</ele>
        <time>2026-07-09T10:34:52.000Z</time>
      </trkpt>
      <trkpt lat="46.69769" lon="15.99088">
        <ele>212.741137</ele>
        <time>2026-07-09T10:34:57.000Z</time>
      </trkpt>
      <trkpt lat="46.69764" lon="15.99093">
        <ele>212.699607</ele>
        <time>2026-07-09T10:34:58.000Z</time>
      </trkpt>
      <trkpt lat="46.6973" lon="15.99131">
        <ele>212.410262</ele>
        <time>2026-07-09T10:35:05.000Z</time>
      </trkpt>
      <trkpt lat="46.69725" lon="15.99136">
        <ele>212.369864</ele>
        <time>2026-07-09T10:35:06.000Z</time>
      </trkpt>
      <trkpt lat="46.69702" lon="15.99163">
        <ele>212.346455</ele>
        <time>2026-07-09T10:35:11.000Z</time>
      </trkpt>
      <trkpt lat="46.69697" lon="15.99168">
        <ele>212.414398</ele>
        <time>2026-07-09T10:35:12.000Z</time>
      </trkpt>
      <trkpt lat="46.69691" lon="15.99173">
        <ele>212.486642</ele>
        <time>2026-07-09T10:35:13.000Z</time>
      </trkpt>
      <trkpt lat="46.69669" lon="15.99189">
        <ele>212.770778</ele>
        <time>2026-07-09T10:35:17.000Z</time>
      </trkpt>
      <trkpt lat="46.69658" lon="15.99194">
        <ele>212.9104</ele>
        <time>2026-07-09T10:35:19.000Z</time>
      </trkpt>
      <trkpt lat="46.69633" lon="15.99204">
        <ele>213.199842</ele>
        <time>2026-07-09T10:35:23.000Z</time>
      </trkpt>
      <trkpt lat="46.69614" lon="15.99205">
        <ele>213.421059</ele>
        <time>2026-07-09T10:35:26.000Z</time>
      </trkpt>
      <trkpt lat="46.69567" lon="15.99195">
        <ele>213.970311</ele>
        <time>2026-07-09T10:35:34.000Z</time>
      </trkpt>
      <trkpt lat="46.69522" lon="15.99173">
        <ele>214.418147</ele>
        <time>2026-07-09T10:35:42.000Z</time>
      </trkpt>
      <trkpt lat="46.69484" lon="15.99152">
        <ele>214.67004</ele>
        <time>2026-07-09T10:35:49.000Z</time>
      </trkpt>
      <trkpt lat="46.69441" lon="15.9913">
        <ele>214.946697</ele>
        <time>2026-07-09T10:35:57.000Z</time>
      </trkpt>
      <trkpt lat="46.69393" lon="15.99107">
        <ele>215.257334</ele>
        <time>2026-07-09T10:36:07.000Z</time>
      </trkpt>
      <trkpt lat="46.69365" lon="15.99091">
        <ele>215.443287</ele>
        <time>2026-07-09T10:36:13.000Z</time>
      </trkpt>
      <trkpt lat="46.6936" lon="15.99087">
        <ele>215.478358</ele>
        <time>2026-07-09T10:36:14.000Z</time>
      </trkpt>
      <trkpt lat="46.6934" lon="15.99066">
        <ele>215.636401</ele>
        <time>2026-07-09T10:36:19.000Z</time>
      </trkpt>
      <trkpt lat="46.69311" lon="15.99028">
        <ele>215.881208</ele>
        <time>2026-07-09T10:36:28.000Z</time>
      </trkpt>
      <trkpt lat="46.69297" lon="15.99017">
        <ele>215.982948</ele>
        <time>2026-07-09T10:36:34.000Z</time>
      </trkpt>
      <trkpt lat="46.69289" lon="15.99019">
        <ele>216.033236</ele>
        <time>2026-07-09T10:36:38.000Z</time>
      </trkpt>
      <trkpt lat="46.69285" lon="15.99012">
        <ele>216.070253</ele>
        <time>2026-07-09T10:36:41.000Z</time>
      </trkpt>
      <trkpt lat="46.69282" lon="15.99005">
        <ele>216.104076</ele>
        <time>2026-07-09T10:36:43.000Z</time>
      </trkpt>
      <trkpt lat="46.69282" lon="15.98997">
        <ele>216.139184</ele>
        <time>2026-07-09T10:36:45.000Z</time>
      </trkpt>
      <trkpt lat="46.69282" lon="15.98993">
        <ele>216.157992</ele>
        <time>2026-07-09T10:36:46.000Z</time>
      </trkpt>
      <trkpt lat="46.6928" lon="15.98989">
        <ele>216.178061</ele>
        <time>2026-07-09T10:36:47.000Z</time>
      </trkpt>
      <trkpt lat="46.69264" lon="15.98967">
        <ele>216.319529</ele>
        <time>2026-07-09T10:36:53.000Z</time>
      </trkpt>
      <trkpt lat="46.6924" lon="15.98937">
        <ele>216.518173</ele>
        <time>2026-07-09T10:37:00.000Z</time>
      </trkpt>
      <trkpt lat="46.69198" lon="15.98887">
        <ele>217.111247</ele>
        <time>2026-07-09T10:37:11.000Z</time>
      </trkpt>
      <trkpt lat="46.69164" lon="15.98852">
        <ele>217.58329</ele>
        <time>2026-07-09T10:37:19.000Z</time>
      </trkpt>
      <trkpt lat="46.69148" lon="15.98836">
        <ele>217.79989</ele>
        <time>2026-07-09T10:37:23.000Z</time>
      </trkpt>
      <trkpt lat="46.69138" lon="15.98826">
        <ele>217.945352</ele>
        <time>2026-07-09T10:37:26.000Z</time>
      </trkpt>
      <trkpt lat="46.69125" lon="15.98816">
        <ele>218.107746</ele>
        <time>2026-07-09T10:37:30.000Z</time>
      </trkpt>
      <trkpt lat="46.69122" lon="15.98817">
        <ele>218.144792</ele>
        <time>2026-07-09T10:37:31.000Z</time>
      </trkpt>
      <trkpt lat="46.69114" lon="15.98821">
        <ele>218.240629</ele>
        <time>2026-07-09T10:37:34.000Z</time>
      </trkpt>
      <trkpt lat="46.69111" lon="15.9882">
        <ele>218.278401</ele>
        <time>2026-07-09T10:37:36.000Z</time>
      </trkpt>
      <trkpt lat="46.69106" lon="15.98812">
        <ele>218.35614</ele>
        <time>2026-07-09T10:37:40.000Z</time>
      </trkpt>
      <trkpt lat="46.69106" lon="15.98809">
        <ele>218.380237</ele>
        <time>2026-07-09T10:37:41.000Z</time>
      </trkpt>
      <trkpt lat="46.69102" lon="15.98791">
        <ele>218.530453</ele>
        <time>2026-07-09T10:37:46.000Z</time>
      </trkpt>
      <trkpt lat="46.69101" lon="15.98786">
        <ele>218.568768</ele>
        <time>2026-07-09T10:37:48.000Z</time>
      </trkpt>
      <trkpt lat="46.69102" lon="15.98783">
        <ele>218.576411</ele>
        <time>2026-07-09T10:37:50.000Z</time>
      </trkpt>
      <trkpt lat="46.69101" lon="15.98771">
        <ele>218.559598</ele>
        <time>2026-07-09T10:37:53.000Z</time>
      </trkpt>
      <trkpt lat="46.69099" lon="15.98768">
        <ele>218.55317</ele>
        <time>2026-07-09T10:37:54.000Z</time>
      </trkpt>
      <trkpt lat="46.69081" lon="15.98751">
        <ele>218.505857</ele>
        <time>2026-07-09T10:38:00.000Z</time>
      </trkpt>
      <trkpt lat="46.69055" lon="15.98734">
        <ele>218.444828</ele>
        <time>2026-07-09T10:38:07.000Z</time>
      </trkpt>
      <trkpt lat="46.69015" lon="15.98718">
        <ele>218.354246</ele>
        <time>2026-07-09T10:38:16.000Z</time>
      </trkpt>
      <trkpt lat="46.68969" lon="15.98702">
        <ele>218.252681</ele>
        <time>2026-07-09T10:38:25.000Z</time>
      </trkpt>
      <trkpt lat="46.68948" lon="15.98691">
        <ele>218.203899</ele>
        <time>2026-07-09T10:38:30.000Z</time>
      </trkpt>
      <trkpt lat="46.68938" lon="15.98686">
        <ele>218.205784</ele>
        <time>2026-07-09T10:38:35.000Z</time>
      </trkpt>
      <trkpt lat="46.68937" lon="15.98687">
        <ele>218.206897</ele>
        <time>2026-07-09T10:38:37.000Z</time>
      </trkpt>
      <trkpt lat="46.68931" lon="15.98686">
        <ele>218.229098</ele>
        <time>2026-07-09T10:38:45.000Z</time>
      </trkpt>
      <trkpt lat="46.68929" lon="15.98685">
        <ele>218.238661</ele>
        <time>2026-07-09T10:38:46.000Z</time>
      </trkpt>
      <trkpt lat="46.68916" lon="15.98678">
        <ele>218.287272</ele>
        <time>2026-07-09T10:38:50.000Z</time>
      </trkpt>
      <trkpt lat="46.68908" lon="15.98674">
        <ele>218.318889</ele>
        <time>2026-07-09T10:38:52.000Z</time>
      </trkpt>
      <trkpt lat="46.68886" lon="15.98662">
        <ele>218.404267</ele>
        <time>2026-07-09T10:38:58.000Z</time>
      </trkpt>
      <trkpt lat="46.68883" lon="15.9866">
        <ele>218.416413</ele>
        <time>2026-07-09T10:38:59.000Z</time>
      </trkpt>
      <trkpt lat="46.6887" lon="15.98654">
        <ele>218.465235</ele>
        <time>2026-07-09T10:39:02.000Z</time>
      </trkpt>
      <trkpt lat="46.68854" lon="15.98646">
        <ele>218.525307</ele>
        <time>2026-07-09T10:39:06.000Z</time>
      </trkpt>
      <trkpt lat="46.68832" lon="15.98637">
        <ele>218.608085</ele>
        <time>2026-07-09T10:39:12.000Z</time>
      </trkpt>
      <trkpt lat="46.68815" lon="15.9863">
        <ele>218.670704</ele>
        <time>2026-07-09T10:39:19.000Z</time>
      </trkpt>
      <trkpt lat="46.68786" lon="15.98622">
        <ele>218.778243</ele>
        <time>2026-07-09T10:39:28.000Z</time>
      </trkpt>
      <trkpt lat="46.68766" lon="15.9862">
        <ele>218.913243</ele>
        <time>2026-07-09T10:39:35.000Z</time>
      </trkpt>
      <trkpt lat="46.68754" lon="15.98626">
        <ele>219.240776</ele>
        <time>2026-07-09T10:39:40.000Z</time>
      </trkpt>
      <trkpt lat="46.68751" lon="15.98634">
        <ele>219.394449</ele>
        <time>2026-07-09T10:39:43.000Z</time>
      </trkpt>
      <trkpt lat="46.68751" lon="15.98657">
        <ele>219.804764</ele>
        <time>2026-07-09T10:39:48.000Z</time>
      </trkpt>
      <trkpt lat="46.68752" lon="15.9869">
        <ele>220.375591</ele>
        <time>2026-07-09T10:39:54.000Z</time>
      </trkpt>
      <trkpt lat="46.68749" lon="15.98713">
        <ele>220.775529</ele>
        <time>2026-07-09T10:40:00.000Z</time>
      </trkpt>
      <trkpt lat="46.68751" lon="15.98719">
        <ele>220.881665</ele>
        <time>2026-07-09T10:40:02.000Z</time>
      </trkpt>
      <trkpt lat="46.68752" lon="15.9872">
        <ele>220.920386</ele>
        <time>2026-07-09T10:40:03.000Z</time>
      </trkpt>
      <trkpt lat="46.68753" lon="15.9872">
        <ele>220.935668</ele>
        <time>2026-07-09T10:40:06.000Z</time>
      </trkpt>
      <trkpt lat="46.68758" lon="15.98723">
        <ele>221.084276</ele>
        <time>2026-07-09T12:10:39.000Z</time>
      </trkpt>
      <trkpt lat="46.68757" lon="15.98723">
        <ele>221.113434</ele>
        <time>2026-07-09T12:10:40.000Z</time>
      </trkpt>
      <trkpt lat="46.68755" lon="15.98725">
        <ele>221.176913</ele>
        <time>2026-07-09T12:10:42.000Z</time>
      </trkpt>
      <trkpt lat="46.68751" lon="15.98717">
        <ele>221.354563</ele>
        <time>2026-07-09T12:10:53.000Z</time>
      </trkpt>
      <trkpt lat="46.68751" lon="15.98712">
        <ele>221.437127</ele>
        <time>2026-07-09T12:10:54.000Z</time>
      </trkpt>
      <trkpt lat="46.6875" lon="15.98686">
        <ele>221.890285</ele>
        <time>2026-07-09T12:11:00.000Z</time>
      </trkpt>
      <trkpt lat="46.68747" lon="15.9866">
        <ele>222.357113</ele>
        <time>2026-07-09T12:11:06.000Z</time>
      </trkpt>
      <trkpt lat="46.68748" lon="15.98655">
        <ele>222.438397</ele>
        <time>2026-07-09T12:11:07.000Z</time>
      </trkpt>
      <trkpt lat="46.68746" lon="15.98635">
        <ele>222.788719</ele>
        <time>2026-07-09T12:11:13.000Z</time>
      </trkpt>
      <trkpt lat="46.68743" lon="15.98621">
        <ele>223.04482</ele>
        <time>2026-07-09T12:11:18.000Z</time>
      </trkpt>
      <trkpt lat="46.68742" lon="15.98618">
        <ele>223.10973</ele>
        <time>2026-07-09T12:11:19.000Z</time>
      </trkpt>
      <trkpt lat="46.6873" lon="15.98612">
        <ele>223.405451</ele>
        <time>2026-07-09T12:11:23.000Z</time>
      </trkpt>
      <trkpt lat="46.6872" lon="15.9861">
        <ele>223.520949</ele>
        <time>2026-07-09T12:11:26.000Z</time>
      </trkpt>
      <trkpt lat="46.68709" lon="15.98605">
        <ele>223.641934</ele>
        <time>2026-07-09T12:11:29.000Z</time>
      </trkpt>
      <trkpt lat="46.68696" lon="15.98601">
        <ele>223.786018</ele>
        <time>2026-07-09T12:11:33.000Z</time>
      </trkpt>
      <trkpt lat="46.6869" lon="15.98601">
        <ele>223.845514</ele>
        <time>2026-07-09T12:11:34.000Z</time>
      </trkpt>
      <trkpt lat="46.68685" lon="15.98602">
        <ele>223.907361</ele>
        <time>2026-07-09T12:11:35.000Z</time>
      </trkpt>
      <trkpt lat="46.68668" lon="15.986">
        <ele>224.090392</ele>
        <time>2026-07-09T12:11:39.000Z</time>
      </trkpt>
      <trkpt lat="46.68664" lon="15.98598">
        <ele>224.129412</ele>
        <time>2026-07-09T12:11:40.000Z</time>
      </trkpt>
      <trkpt lat="46.68653" lon="15.98595">
        <ele>224.252822</ele>
        <time>2026-07-09T12:11:43.000Z</time>
      </trkpt>
      <trkpt lat="46.68638" lon="15.98593">
        <ele>224.412386</ele>
        <time>2026-07-09T12:11:47.000Z</time>
      </trkpt>
      <trkpt lat="46.68629" lon="15.98594">
        <ele>224.514393</ele>
        <time>2026-07-09T12:11:49.000Z</time>
      </trkpt>
      <trkpt lat="46.68615" lon="15.98582">
        <ele>224.691651</ele>
        <time>2026-07-09T12:11:54.000Z</time>
      </trkpt>
      <trkpt lat="46.68591" lon="15.98569">
        <ele>224.96167</ele>
        <time>2026-07-09T12:12:01.000Z</time>
      </trkpt>
      <trkpt lat="46.68585" lon="15.98565">
        <ele>225.038982</ele>
        <time>2026-07-09T12:12:03.000Z</time>
      </trkpt>
      <trkpt lat="46.68562" lon="15.98552">
        <ele>225.304895</ele>
        <time>2026-07-09T12:12:09.000Z</time>
      </trkpt>
      <trkpt lat="46.68544" lon="15.98545">
        <ele>224.468917</ele>
        <time>2026-07-09T12:12:14.000Z</time>
      </trkpt>
      <trkpt lat="46.68533" lon="15.9855">
        <ele>223.792572</ele>
        <time>2026-07-09T12:12:18.000Z</time>
      </trkpt>
      <trkpt lat="46.6853" lon="15.98553">
        <ele>223.6123</ele>
        <time>2026-07-09T12:12:19.000Z</time>
      </trkpt>
      <trkpt lat="46.68526" lon="15.98559">
        <ele>223.280411</ele>
        <time>2026-07-09T12:12:21.000Z</time>
      </trkpt>
      <trkpt lat="46.68518" lon="15.98574">
        <ele>222.518648</ele>
        <time>2026-07-09T12:12:26.000Z</time>
      </trkpt>
      <trkpt lat="46.68511" lon="15.98585">
        <ele>221.947797</ele>
        <time>2026-07-09T12:12:29.000Z</time>
      </trkpt>
      <trkpt lat="46.68505" lon="15.98587">
        <ele>221.609572</ele>
        <time>2026-07-09T12:12:31.000Z</time>
      </trkpt>
      <trkpt lat="46.68503" lon="15.98585">
        <ele>221.460836</ele>
        <time>2026-07-09T12:12:32.000Z</time>
      </trkpt>
      <trkpt lat="46.68501" lon="15.98577">
        <ele>221.120417</ele>
        <time>2026-07-09T12:12:34.000Z</time>
      </trkpt>
      <trkpt lat="46.68495" lon="15.98535">
        <ele>219.465528</ele>
        <time>2026-07-09T12:12:42.000Z</time>
      </trkpt>
      <trkpt lat="46.68499" lon="15.98506">
        <ele>218.328879</ele>
        <time>2026-07-09T12:12:47.000Z</time>
      </trkpt>
      <trkpt lat="46.68504" lon="15.98492">
        <ele>217.698877</ele>
        <time>2026-07-09T12:12:50.000Z</time>
      </trkpt>
      <trkpt lat="46.68511" lon="15.98479">
        <ele>217.066818</ele>
        <time>2026-07-09T12:12:53.000Z</time>
      </trkpt>
      <trkpt lat="46.68526" lon="15.98469">
        <ele>216.110971</ele>
        <time>2026-07-09T12:12:58.000Z</time>
      </trkpt>
      <trkpt lat="46.68546" lon="15.98461">
        <ele>215.14792</ele>
        <time>2026-07-09T12:13:04.000Z</time>
      </trkpt>
      <trkpt lat="46.68561" lon="15.98447">
        <ele>214.926437</ele>
        <time>2026-07-09T12:13:09.000Z</time>
      </trkpt>
      <trkpt lat="46.68569" lon="15.98439">
        <ele>214.803714</ele>
        <time>2026-07-09T12:13:12.000Z</time>
      </trkpt>
      <trkpt lat="46.68584" lon="15.98417">
        <ele>214.542902</ele>
        <time>2026-07-09T12:13:19.000Z</time>
      </trkpt>
      <trkpt lat="46.68597" lon="15.98397">
        <ele>214.314262</ele>
        <time>2026-07-09T12:13:26.000Z</time>
      </trkpt>
      <trkpt lat="46.6861" lon="15.98404">
        <ele>214.15078</ele>
        <time>2026-07-09T12:13:30.000Z</time>
      </trkpt>
      <trkpt lat="46.6863" lon="15.98421">
        <ele>213.860844</ele>
        <time>2026-07-09T12:13:36.000Z</time>
      </trkpt>
      <trkpt lat="46.6864" lon="15.98423">
        <ele>213.741246</ele>
        <time>2026-07-09T12:13:39.000Z</time>
      </trkpt>
      <trkpt lat="46.68642" lon="15.9842">
        <ele>213.707428</ele>
        <time>2026-07-09T12:13:40.000Z</time>
      </trkpt>
      <trkpt lat="46.68644" lon="15.98415">
        <ele>213.659061</ele>
        <time>2026-07-09T12:13:41.000Z</time>
      </trkpt>
      <trkpt lat="46.68642" lon="15.98406">
        <ele>213.581621</ele>
        <time>2026-07-09T12:13:43.000Z</time>
      </trkpt>
      <trkpt lat="46.68625" lon="15.9839">
        <ele>213.338147</ele>
        <time>2026-07-09T12:13:48.000Z</time>
      </trkpt>
      <trkpt lat="46.68616" lon="15.98387">
        <ele>213.213667</ele>
        <time>2026-07-09T12:13:51.000Z</time>
      </trkpt>
      <trkpt lat="46.68612" lon="15.98389">
        <ele>213.162801</ele>
        <time>2026-07-09T12:13:52.000Z</time>
      </trkpt>
      <trkpt lat="46.68603" lon="15.98393">
        <ele>213.050441</ele>
        <time>2026-07-09T12:13:55.000Z</time>
      </trkpt>
      <trkpt lat="46.68601" lon="15.9839">
        <ele>213.018081</ele>
        <time>2026-07-09T12:13:56.000Z</time>
      </trkpt>
      <trkpt lat="46.686" lon="15.98386">
        <ele>212.991582</ele>
        <time>2026-07-09T12:13:57.000Z</time>
      </trkpt>
      <trkpt lat="46.68603" lon="15.98376">
        <ele>213.118924</ele>
        <time>2026-07-09T12:13:59.000Z</time>
      </trkpt>
      <trkpt lat="46.68611" lon="15.98357">
        <ele>213.391218</ele>
        <time>2026-07-09T12:14:03.000Z</time>
      </trkpt>
      <trkpt lat="46.68615" lon="15.98346">
        <ele>213.54537</ele>
        <time>2026-07-09T12:14:05.000Z</time>
      </trkpt>
      <trkpt lat="46.68628" lon="15.98307">
        <ele>214.075738</ele>
        <time>2026-07-09T12:14:13.000Z</time>
      </trkpt>
      <trkpt lat="46.68635" lon="15.98288">
        <ele>214.333009</ele>
        <time>2026-07-09T12:14:17.000Z</time>
      </trkpt>
      <trkpt lat="46.68642" lon="15.98265">
        <ele>214.641083</ele>
        <time>2026-07-09T12:14:21.000Z</time>
      </trkpt>
      <trkpt lat="46.68649" lon="15.98239">
        <ele>214.990743</ele>
        <time>2026-07-09T12:14:26.000Z</time>
      </trkpt>
      <trkpt lat="46.68652" lon="15.98234">
        <ele>215.062503</ele>
        <time>2026-07-09T12:14:28.000Z</time>
      </trkpt>
      <trkpt lat="46.68651" lon="15.98231">
        <ele>215.099209</ele>
        <time>2026-07-09T12:14:29.000Z</time>
      </trkpt>
      <trkpt lat="46.68646" lon="15.98238">
        <ele>215.221584</ele>
        <time>2026-07-09T12:14:32.000Z</time>
      </trkpt>
      <trkpt lat="46.68644" lon="15.98246">
        <ele>215.322304</ele>
        <time>2026-07-09T12:14:34.000Z</time>
      </trkpt>
      <trkpt lat="46.68641" lon="15.98249">
        <ele>215.3785</ele>
        <time>2026-07-09T12:14:35.000Z</time>
      </trkpt>
      <trkpt lat="46.6864" lon="15.98249">
        <ele>215.410608</ele>
        <time>2026-07-09T12:14:36.000Z</time>
      </trkpt>
      <trkpt lat="46.68634" lon="15.98244">
        <ele>215.527337</ele>
        <time>2026-07-09T12:14:38.000Z</time>
      </trkpt>
      <trkpt lat="46.68617" lon="15.98228">
        <ele>215.89058</ele>
        <time>2026-07-09T12:14:44.000Z</time>
      </trkpt>
      <trkpt lat="46.68606" lon="15.98211">
        <ele>216.174359</ele>
        <time>2026-07-09T12:14:50.000Z</time>
      </trkpt>
      <trkpt lat="46.68605" lon="15.98207">
        <ele>216.208162</ele>
        <time>2026-07-09T12:14:52.000Z</time>
      </trkpt>
      <trkpt lat="46.68606" lon="15.98204">
        <ele>216.222323</ele>
        <time>2026-07-09T12:14:53.000Z</time>
      </trkpt>
      <trkpt lat="46.68606" lon="15.98203">
        <ele>216.22876</ele>
        <time>2026-07-09T12:14:55.000Z</time>
      </trkpt>
      <trkpt lat="46.68603" lon="15.98215">
        <ele>216.296412</ele>
        <time>2026-07-09T12:16:32.000Z</time>
      </trkpt>
      <trkpt lat="46.68605" lon="15.98221">
        <ele>216.330746</ele>
        <time>2026-07-09T12:16:34.000Z</time>
      </trkpt>
      <trkpt lat="46.68618" lon="15.98234">
        <ele>216.457593</ele>
        <time>2026-07-09T12:16:39.000Z</time>
      </trkpt>
      <trkpt lat="46.68635" lon="15.98253">
        <ele>216.625769</ele>
        <time>2026-07-09T12:16:45.000Z</time>
      </trkpt>
      <trkpt lat="46.68638" lon="15.98255">
        <ele>216.65046</ele>
        <time>2026-07-09T12:16:46.000Z</time>
      </trkpt>
      <trkpt lat="46.6864" lon="15.98256">
        <ele>216.669977</ele>
        <time>2026-07-09T12:16:47.000Z</time>
      </trkpt>
      <trkpt lat="46.68645" lon="15.9825">
        <ele>216.71688</ele>
        <time>2026-07-09T12:16:49.000Z</time>
      </trkpt>
      <trkpt lat="46.6865" lon="15.98229">
        <ele>216.841119</ele>
        <time>2026-07-09T12:16:53.000Z</time>
      </trkpt>
      <trkpt lat="46.68651" lon="15.98222">
        <ele>216.880247</ele>
        <time>2026-07-09T12:16:54.000Z</time>
      </trkpt>
      <trkpt lat="46.68655" lon="15.98191">
        <ele>217.053625</ele>
        <time>2026-07-09T12:16:59.000Z</time>
      </trkpt>
      <trkpt lat="46.68657" lon="15.98179">
        <ele>217.119073</ele>
        <time>2026-07-09T12:17:01.000Z</time>
      </trkpt>
      <trkpt lat="46.68663" lon="15.98143">
        <ele>217.321428</ele>
        <time>2026-07-09T12:17:07.000Z</time>
      </trkpt>
      <trkpt lat="46.68671" lon="15.98089">
        <ele>217.612628</ele>
        <time>2026-07-09T12:17:16.000Z</time>
      </trkpt>
      <trkpt lat="46.68674" lon="15.98063">
        <ele>217.514347</ele>
        <time>2026-07-09T12:17:22.000Z</time>
      </trkpt>
      <trkpt lat="46.68675" lon="15.98041">
        <ele>217.433167</ele>
        <time>2026-07-09T12:17:27.000Z</time>
      </trkpt>
      <trkpt lat="46.68678" lon="15.98014">
        <ele>217.330951</ele>
        <time>2026-07-09T12:17:32.000Z</time>
      </trkpt>
      <trkpt lat="46.68683" lon="15.97983">
        <ele>217.215085</ele>
        <time>2026-07-09T12:17:37.000Z</time>
      </trkpt>
      <trkpt lat="46.68686" lon="15.97951">
        <ele>217.093667</ele>
        <time>2026-07-09T12:17:43.000Z</time>
      </trkpt>
      <trkpt lat="46.68693" lon="15.97919">
        <ele>216.969471</ele>
        <time>2026-07-09T12:17:49.000Z</time>
      </trkpt>
      <trkpt lat="46.68705" lon="15.97903">
        <ele>216.882246</ele>
        <time>2026-07-09T12:17:53.000Z</time>
      </trkpt>
      <trkpt lat="46.68726" lon="15.97904">
        <ele>216.764597</ele>
        <time>2026-07-09T12:17:58.000Z</time>
      </trkpt>
      <trkpt lat="46.68735" lon="15.97905">
        <ele>216.71843</ele>
        <time>2026-07-09T12:18:00.000Z</time>
      </trkpt>
      <trkpt lat="46.68752" lon="15.97909">
        <ele>216.641</ele>
        <time>2026-07-09T12:18:04.000Z</time>
      </trkpt>
      <trkpt lat="46.68756" lon="15.9791">
        <ele>216.639112</ele>
        <time>2026-07-09T12:18:05.000Z</time>
      </trkpt>
      <trkpt lat="46.68772" lon="15.97913">
        <ele>216.631554</ele>
        <time>2026-07-09T12:18:09.000Z</time>
      </trkpt>
      <trkpt lat="46.68775" lon="15.97914">
        <ele>216.629847</ele>
        <time>2026-07-09T12:18:10.000Z</time>
      </trkpt>
      <trkpt lat="46.68784" lon="15.97919">
        <ele>216.625444</ele>
        <time>2026-07-09T12:18:12.000Z</time>
      </trkpt>
      <trkpt lat="46.68791" lon="15.97924">
        <ele>216.62147</ele>
        <time>2026-07-09T12:18:14.000Z</time>
      </trkpt>
      <trkpt lat="46.688" lon="15.97924">
        <ele>216.617512</ele>
        <time>2026-07-09T12:18:16.000Z</time>
      </trkpt>
      <trkpt lat="46.68807" lon="15.97915">
        <ele>216.613105</ele>
        <time>2026-07-09T12:18:18.000Z</time>
      </trkpt>
      <trkpt lat="46.68809" lon="15.97908">
        <ele>216.610643</ele>
        <time>2026-07-09T12:18:19.000Z</time>
      </trkpt>
      <trkpt lat="46.68807" lon="15.97894">
        <ele>216.605718</ele>
        <time>2026-07-09T12:18:21.000Z</time>
      </trkpt>
      <trkpt lat="46.68806" lon="15.97887">
        <ele>216.603443</ele>
        <time>2026-07-09T12:18:22.000Z</time>
      </trkpt>
      <trkpt lat="46.68807" lon="15.97873">
        <ele>216.598956</ele>
        <time>2026-07-09T12:18:24.000Z</time>
      </trkpt>
      <trkpt lat="46.68807" lon="15.97866">
        <ele>216.596675</ele>
        <time>2026-07-09T12:18:25.000Z</time>
      </trkpt>
      <trkpt lat="46.68813" lon="15.9781">
        <ele>216.578018</ele>
        <time>2026-07-09T12:18:33.000Z</time>
      </trkpt>
      <trkpt lat="46.68817" lon="15.97765">
        <ele>216.563292</ele>
        <time>2026-07-09T12:18:40.000Z</time>
      </trkpt>
      <trkpt lat="46.68823" lon="15.97715">
        <ele>216.672551</ele>
        <time>2026-07-09T12:18:48.000Z</time>
      </trkpt>
      <trkpt lat="46.68824" lon="15.97703">
        <ele>216.719081</ele>
        <time>2026-07-09T12:18:50.000Z</time>
      </trkpt>
      <trkpt lat="46.68828" lon="15.97695">
        <ele>216.75557</ele>
        <time>2026-07-09T12:18:52.000Z</time>
      </trkpt>
      <trkpt lat="46.68837" lon="15.97692">
        <ele>216.805445</ele>
        <time>2026-07-09T12:18:54.000Z</time>
      </trkpt>
      <trkpt lat="46.68846" lon="15.97693">
        <ele>216.85455</ele>
        <time>2026-07-09T12:18:56.000Z</time>
      </trkpt>
      <trkpt lat="46.68883" lon="15.97704">
        <ele>217.060902</ele>
        <time>2026-07-09T12:19:04.000Z</time>
      </trkpt>
      <trkpt lat="46.68892" lon="15.97706">
        <ele>217.111307</ele>
        <time>2026-07-09T12:19:06.000Z</time>
      </trkpt>
      <trkpt lat="46.68904" lon="15.9771">
        <ele>217.17626</ele>
        <time>2026-07-09T12:19:09.000Z</time>
      </trkpt>
      <trkpt lat="46.68909" lon="15.97711">
        <ele>217.202743</ele>
        <time>2026-07-09T12:19:10.000Z</time>
      </trkpt>
      <trkpt lat="46.68934" lon="15.9772">
        <ele>217.345485</ele>
        <time>2026-07-09T12:19:16.000Z</time>
      </trkpt>
      <trkpt lat="46.68939" lon="15.97721">
        <ele>217.372507</ele>
        <time>2026-07-09T12:19:17.000Z</time>
      </trkpt>
      <trkpt lat="46.68954" lon="15.97725">
        <ele>217.456381</ele>
        <time>2026-07-09T12:19:20.000Z</time>
      </trkpt>
      <trkpt lat="46.68959" lon="15.97725">
        <ele>217.484301</ele>
        <time>2026-07-09T12:19:21.000Z</time>
      </trkpt>
      <trkpt lat="46.68973" lon="15.97727">
        <ele>217.516612</ele>
        <time>2026-07-09T12:19:24.000Z</time>
      </trkpt>
      <trkpt lat="46.69014" lon="15.9774">
        <ele>217.304807</ele>
        <time>2026-07-09T12:19:33.000Z</time>
      </trkpt>
      <trkpt lat="46.6904" lon="15.97747">
        <ele>217.165891</ele>
        <time>2026-07-09T12:19:39.000Z</time>
      </trkpt>
      <trkpt lat="46.69051" lon="15.97749">
        <ele>217.110448</ele>
        <time>2026-07-09T12:19:41.000Z</time>
      </trkpt>
      <trkpt lat="46.69082" lon="15.97757">
        <ele>216.951053</ele>
        <time>2026-07-09T12:19:48.000Z</time>
      </trkpt>
      <trkpt lat="46.69113" lon="15.97764">
        <ele>216.789603</ele>
        <time>2026-07-09T12:19:55.000Z</time>
      </trkpt>
      <trkpt lat="46.6913" lon="15.97766">
        <ele>216.702534</ele>
        <time>2026-07-09T12:19:59.000Z</time>
      </trkpt>
      <trkpt lat="46.69138" lon="15.9777">
        <ele>216.658663</ele>
        <time>2026-07-09T12:20:01.000Z</time>
      </trkpt>
      <trkpt lat="46.69142" lon="15.97773">
        <ele>216.635522</ele>
        <time>2026-07-09T12:20:02.000Z</time>
      </trkpt>
      <trkpt lat="46.69151" lon="15.97777">
        <ele>216.594032</ele>
        <time>2026-07-09T12:20:04.000Z</time>
      </trkpt>
      <trkpt lat="46.69162" lon="15.97775">
        <ele>216.545876</ele>
        <time>2026-07-09T12:20:06.000Z</time>
      </trkpt>
      <trkpt lat="46.69169" lon="15.97766">
        <ele>216.503054</ele>
        <time>2026-07-09T12:20:08.000Z</time>
      </trkpt>
      <trkpt lat="46.69171" lon="15.9776">
        <ele>216.481514</ele>
        <time>2026-07-09T12:20:09.000Z</time>
      </trkpt>
      <trkpt lat="46.69171" lon="15.97753">
        <ele>216.462197</ele>
        <time>2026-07-09T12:20:10.000Z</time>
      </trkpt>
      <trkpt lat="46.69166" lon="15.97744">
        <ele>216.427105</ele>
        <time>2026-07-09T12:20:12.000Z</time>
      </trkpt>
      <trkpt lat="46.69157" lon="15.97739">
        <ele>216.384844</ele>
        <time>2026-07-09T12:20:14.000Z</time>
      </trkpt>
      <trkpt lat="46.69154" lon="15.97738">
        <ele>216.369705</ele>
        <time>2026-07-09T12:20:15.000Z</time>
      </trkpt>
      <trkpt lat="46.69148" lon="15.97736">
        <ele>216.345138</ele>
        <time>2026-07-09T12:20:16.000Z</time>
      </trkpt>
      <trkpt lat="46.69139" lon="15.97729">
        <ele>216.301498</ele>
        <time>2026-07-09T12:20:18.000Z</time>
      </trkpt>
      <trkpt lat="46.69136" lon="15.97724">
        <ele>216.279433</ele>
        <time>2026-07-09T12:20:19.000Z</time>
      </trkpt>
      <trkpt lat="46.69114" lon="15.97679">
        <ele>216.112088</ele>
        <time>2026-07-09T12:20:27.000Z</time>
      </trkpt>
      <trkpt lat="46.69104" lon="15.97631">
        <ele>215.961039</ele>
        <time>2026-07-09T12:20:34.000Z</time>
      </trkpt>
      <trkpt lat="46.69102" lon="15.9761">
        <ele>215.899177</ele>
        <time>2026-07-09T12:20:37.000Z</time>
      </trkpt>
      <trkpt lat="46.69103" lon="15.97586">
        <ele>215.826795</ele>
        <time>2026-07-09T12:20:40.000Z</time>
      </trkpt>
      <trkpt lat="46.6911" lon="15.97519">
        <ele>215.650278</ele>
        <time>2026-07-09T12:20:49.000Z</time>
      </trkpt>
      <trkpt lat="46.6911" lon="15.97495">
        <ele>215.589522</ele>
        <time>2026-07-09T12:20:52.000Z</time>
      </trkpt>
      <trkpt lat="46.69108" lon="15.97472">
        <ele>215.528574</ele>
        <time>2026-07-09T12:20:55.000Z</time>
      </trkpt>
      <trkpt lat="46.69106" lon="15.97409">
        <ele>215.36647</ele>
        <time>2026-07-09T12:21:03.000Z</time>
      </trkpt>
      <trkpt lat="46.69104" lon="15.9737">
        <ele>215.265469</ele>
        <time>2026-07-09T12:21:08.000Z</time>
      </trkpt>
      <trkpt lat="46.69103" lon="15.97355">
        <ele>215.226214</ele>
        <time>2026-07-09T12:21:10.000Z</time>
      </trkpt>
      <trkpt lat="46.69099" lon="15.9731">
        <ele>215.089018</ele>
        <time>2026-07-09T12:21:16.000Z</time>
      </trkpt>
      <trkpt lat="46.69098" lon="15.97303">
        <ele>215.062222</ele>
        <time>2026-07-09T12:21:17.000Z</time>
      </trkpt>
      <trkpt lat="46.69096" lon="15.97297">
        <ele>215.035646</ele>
        <time>2026-07-09T12:21:18.000Z</time>
      </trkpt>
      <trkpt lat="46.69087" lon="15.97265">
        <ele>214.900176</ele>
        <time>2026-07-09T12:21:23.000Z</time>
      </trkpt>
      <trkpt lat="46.6908" lon="15.97249">
        <ele>214.830339</ele>
        <time>2026-07-09T12:21:26.000Z</time>
      </trkpt>
      <trkpt lat="46.69073" lon="15.97243">
        <ele>214.784185</ele>
        <time>2026-07-09T12:21:28.000Z</time>
      </trkpt>
      <trkpt lat="46.69066" lon="15.9724">
        <ele>214.744541</ele>
        <time>2026-07-09T12:21:30.000Z</time>
      </trkpt>
      <trkpt lat="46.6906" lon="15.97234">
        <ele>214.70441</ele>
        <time>2026-07-09T12:21:32.000Z</time>
      </trkpt>
      <trkpt lat="46.6906" lon="15.97226">
        <ele>214.673233</ele>
        <time>2026-07-09T12:21:34.000Z</time>
      </trkpt>
      <trkpt lat="46.69062" lon="15.97221">
        <ele>214.652853</ele>
        <time>2026-07-09T12:21:35.000Z</time>
      </trkpt>
      <trkpt lat="46.69065" lon="15.97216">
        <ele>214.62806</ele>
        <time>2026-07-09T12:21:36.000Z</time>
      </trkpt>
      <trkpt lat="46.69076" lon="15.97199">
        <ele>214.536126</ele>
        <time>2026-07-09T12:21:40.000Z</time>
      </trkpt>
      <trkpt lat="46.69081" lon="15.97188">
        <ele>214.486175</ele>
        <time>2026-07-09T12:21:43.000Z</time>
      </trkpt>
      <trkpt lat="46.69084" lon="15.97183">
        <ele>214.463357</ele>
        <time>2026-07-09T12:21:45.000Z</time>
      </trkpt>
      <trkpt lat="46.69085" lon="15.9718">
        <ele>214.448084</ele>
        <time>2026-07-09T12:21:48.000Z</time>
      </trkpt>
      <trkpt lat="46.69091" lon="15.97182">
        <ele>214.416372</ele>
        <time>2026-07-09T12:23:48.000Z</time>
      </trkpt>
      <trkpt lat="46.69103" lon="15.97166">
        <ele>214.324639</ele>
        <time>2026-07-09T12:23:54.000Z</time>
      </trkpt>
      <trkpt lat="46.6912" lon="15.97142">
        <ele>214.189022</ele>
        <time>2026-07-09T12:24:01.000Z</time>
      </trkpt>
      <trkpt lat="46.69122" lon="15.97138">
        <ele>214.171313</ele>
        <time>2026-07-09T12:24:02.000Z</time>
      </trkpt>
      <trkpt lat="46.69145" lon="15.97107">
        <ele>214.018035</ele>
        <time>2026-07-09T12:24:09.000Z</time>
      </trkpt>
      <trkpt lat="46.69172" lon="15.9707">
        <ele>213.841434</ele>
        <time>2026-07-09T12:24:17.000Z</time>
      </trkpt>
      <trkpt lat="46.69177" lon="15.97064">
        <ele>213.81366</ele>
        <time>2026-07-09T12:24:18.000Z</time>
      </trkpt>
      <trkpt lat="46.69213" lon="15.97016">
        <ele>213.579733</ele>
        <time>2026-07-09T12:24:28.000Z</time>
      </trkpt>
      <trkpt lat="46.69239" lon="15.9698">
        <ele>213.412446</ele>
        <time>2026-07-09T12:24:35.000Z</time>
      </trkpt>
      <trkpt lat="46.69246" lon="15.9697">
        <ele>213.365617</ele>
        <time>2026-07-09T12:24:37.000Z</time>
      </trkpt>
      <trkpt lat="46.69286" lon="15.96917">
        <ele>212.674608</ele>
        <time>2026-07-09T12:24:48.000Z</time>
      </trkpt>
      <trkpt lat="46.69303" lon="15.96893">
        <ele>212.278075</ele>
        <time>2026-07-09T12:24:53.000Z</time>
      </trkpt>
      <trkpt lat="46.69312" lon="15.96882">
        <ele>212.098989</ele>
        <time>2026-07-09T12:24:55.000Z</time>
      </trkpt>
      <trkpt lat="46.69318" lon="15.96873">
        <ele>211.952074</ele>
        <time>2026-07-09T12:24:57.000Z</time>
      </trkpt>
      <trkpt lat="46.69326" lon="15.96863">
        <ele>211.787191</ele>
        <time>2026-07-09T12:24:59.000Z</time>
      </trkpt>
      <trkpt lat="46.69337" lon="15.96848">
        <ele>211.535945</ele>
        <time>2026-07-09T12:25:02.000Z</time>
      </trkpt>
      <trkpt lat="46.69348" lon="15.96834">
        <ele>211.2945</ele>
        <time>2026-07-09T12:25:05.000Z</time>
      </trkpt>
      <trkpt lat="46.69365" lon="15.96808">
        <ele>210.891763</ele>
        <time>2026-07-09T12:25:10.000Z</time>
      </trkpt>
      <trkpt lat="46.69382" lon="15.96789">
        <ele>210.542933</ele>
        <time>2026-07-09T12:25:15.000Z</time>
      </trkpt>
      <trkpt lat="46.69384" lon="15.96787">
        <ele>210.506215</ele>
        <time>2026-07-09T12:25:16.000Z</time>
      </trkpt>
      <trkpt lat="46.69386" lon="15.96782">
        <ele>210.44112</ele>
        <time>2026-07-09T12:25:18.000Z</time>
      </trkpt>
      <trkpt lat="46.69385" lon="15.96775">
        <ele>210.361578</ele>
        <time>2026-07-09T12:25:20.000Z</time>
      </trkpt>
      <trkpt lat="46.69381" lon="15.96767">
        <ele>210.566921</ele>
        <time>2026-07-09T12:25:22.000Z</time>
      </trkpt>
      <trkpt lat="46.69374" lon="15.96756">
        <ele>210.861312</ele>
        <time>2026-07-09T12:25:24.000Z</time>
      </trkpt>
      <trkpt lat="46.6935" lon="15.96708">
        <ele>212.162578</ele>
        <time>2026-07-09T12:25:32.000Z</time>
      </trkpt>
      <trkpt lat="46.69331" lon="15.96673">
        <ele>213.118644</ele>
        <time>2026-07-09T12:25:38.000Z</time>
      </trkpt>
      <trkpt lat="46.69326" lon="15.96661">
        <ele>213.426936</ele>
        <time>2026-07-09T12:25:40.000Z</time>
      </trkpt>
      <trkpt lat="46.69321" lon="15.96647">
        <ele>213.785833</ele>
        <time>2026-07-09T12:25:42.000Z</time>
      </trkpt>
      <trkpt lat="46.69318" lon="15.96626">
        <ele>214.246021</ele>
        <time>2026-07-09T12:25:45.000Z</time>
      </trkpt>
      <trkpt lat="46.69318" lon="15.96618">
        <ele>214.411364</ele>
        <time>2026-07-09T12:25:46.000Z</time>
      </trkpt>
      <trkpt lat="46.69319" lon="15.96587">
        <ele>215.087112</ele>
        <time>2026-07-09T12:25:50.000Z</time>
      </trkpt>
      <trkpt lat="46.6932" lon="15.96549">
        <ele>215.915503</ele>
        <time>2026-07-09T12:25:55.000Z</time>
      </trkpt>
      <trkpt lat="46.6932" lon="15.96518">
        <ele>216.07808</ele>
        <time>2026-07-09T12:25:59.000Z</time>
      </trkpt>
      <trkpt lat="46.69321" lon="15.96478">
        <ele>216.132302</ele>
        <time>2026-07-09T12:26:04.000Z</time>
      </trkpt>
      <trkpt lat="46.69321" lon="15.96454">
        <ele>216.165005</ele>
        <time>2026-07-09T12:26:07.000Z</time>
      </trkpt>
      <trkpt lat="46.69321" lon="15.96437">
        <ele>216.187894</ele>
        <time>2026-07-09T12:26:09.000Z</time>
      </trkpt>
      <trkpt lat="46.69322" lon="15.96421">
        <ele>216.209966</ele>
        <time>2026-07-09T12:26:11.000Z</time>
      </trkpt>
      <trkpt lat="46.69322" lon="15.9639">
        <ele>216.252878</ele>
        <time>2026-07-09T12:26:15.000Z</time>
      </trkpt>
      <trkpt lat="46.69322" lon="15.96374">
        <ele>216.274552</ele>
        <time>2026-07-09T12:26:17.000Z</time>
      </trkpt>
      <trkpt lat="46.69322" lon="15.9635">
        <ele>216.306433</ele>
        <time>2026-07-09T12:26:20.000Z</time>
      </trkpt>
      <trkpt lat="46.69318" lon="15.96303">
        <ele>216.371295</ele>
        <time>2026-07-09T12:26:26.000Z</time>
      </trkpt>
      <trkpt lat="46.69306" lon="15.96225">
        <ele>216.802177</ele>
        <time>2026-07-09T12:26:36.000Z</time>
      </trkpt>
      <trkpt lat="46.69303" lon="15.96209">
        <ele>216.911432</ele>
        <time>2026-07-09T12:26:38.000Z</time>
      </trkpt>
      <trkpt lat="46.69296" lon="15.96147">
        <ele>217.344358</ele>
        <time>2026-07-09T12:26:46.000Z</time>
      </trkpt>
      <trkpt lat="46.69291" lon="15.96084">
        <ele>217.776905</ele>
        <time>2026-07-09T12:26:54.000Z</time>
      </trkpt>
      <trkpt lat="46.6928" lon="15.96008">
        <ele>218.222325</ele>
        <time>2026-07-09T12:27:04.000Z</time>
      </trkpt>
      <trkpt lat="46.69267" lon="15.95931">
        <ele>218.330907</ele>
        <time>2026-07-09T12:27:14.000Z</time>
      </trkpt>
      <trkpt lat="46.69266" lon="15.95923">
        <ele>218.341926</ele>
        <time>2026-07-09T12:27:15.000Z</time>
      </trkpt>
      <trkpt lat="46.69257" lon="15.95853">
        <ele>218.441297</ele>
        <time>2026-07-09T12:27:24.000Z</time>
      </trkpt>
      <trkpt lat="46.69251" lon="15.95774">
        <ele>218.549973</ele>
        <time>2026-07-09T12:27:34.000Z</time>
      </trkpt>
      <trkpt lat="46.6925" lon="15.95767">
        <ele>218.560572</ele>
        <time>2026-07-09T12:27:35.000Z</time>
      </trkpt>
      <trkpt lat="46.69247" lon="15.95703">
        <ele>218.399418</ele>
        <time>2026-07-09T12:27:43.000Z</time>
      </trkpt>
      <trkpt lat="46.69243" lon="15.95627">
        <ele>218.206055</ele>
        <time>2026-07-09T12:27:53.000Z</time>
      </trkpt>
      <trkpt lat="46.69248" lon="15.95564">
        <ele>218.045</ele>
        <time>2026-07-09T12:28:01.000Z</time>
      </trkpt>
      <trkpt lat="46.6925" lon="15.95557">
        <ele>218.026383</ele>
        <time>2026-07-09T12:28:02.000Z</time>
      </trkpt>
      <trkpt lat="46.6926" lon="15.95538">
        <ele>217.96738</ele>
        <time>2026-07-09T12:28:05.000Z</time>
      </trkpt>
      <trkpt lat="46.69285" lon="15.95498">
        <ele>217.783623</ele>
        <time>2026-07-09T12:28:12.000Z</time>
      </trkpt>
      <trkpt lat="46.69289" lon="15.95492">
        <ele>217.749775</ele>
        <time>2026-07-09T12:28:13.000Z</time>
      </trkpt>
      <trkpt lat="46.69329" lon="15.95437">
        <ele>217.413074</ele>
        <time>2026-07-09T12:28:23.000Z</time>
      </trkpt>
      <trkpt lat="46.69337" lon="15.95426">
        <ele>217.344756</ele>
        <time>2026-07-09T12:28:25.000Z</time>
      </trkpt>
      <trkpt lat="46.69364" lon="15.95368">
        <ele>217.049749</ele>
        <time>2026-07-09T12:28:34.000Z</time>
      </trkpt>
      <trkpt lat="46.6939" lon="15.95296">
        <ele>216.8106</ele>
        <time>2026-07-09T12:28:44.000Z</time>
      </trkpt>
      <trkpt lat="46.694" lon="15.95258">
        <ele>216.850605</ele>
        <time>2026-07-09T12:28:49.000Z</time>
      </trkpt>
      <trkpt lat="46.69406" lon="15.95236">
        <ele>216.874134</ele>
        <time>2026-07-09T12:28:52.000Z</time>
      </trkpt>
      <trkpt lat="46.69419" lon="15.95184">
        <ele>216.92893</ele>
        <time>2026-07-09T12:28:59.000Z</time>
      </trkpt>
      <trkpt lat="46.69433" lon="15.95128">
        <ele>216.987806</ele>
        <time>2026-07-09T12:29:06.000Z</time>
      </trkpt>
      <trkpt lat="46.69443" lon="15.95064">
        <ele>217.073015</ele>
        <time>2026-07-09T12:29:14.000Z</time>
      </trkpt>
      <trkpt lat="46.69445" lon="15.95014">
        <ele>217.455363</ele>
        <time>2026-07-09T12:29:20.000Z</time>
      </trkpt>
      <trkpt lat="46.69436" lon="15.94966">
        <ele>217.827263</ele>
        <time>2026-07-09T12:29:26.000Z</time>
      </trkpt>
      <trkpt lat="46.69434" lon="15.94952">
        <ele>217.941768</ele>
        <time>2026-07-09T12:29:28.000Z</time>
      </trkpt>
      <trkpt lat="46.69435" lon="15.94937">
        <ele>218.055585</ele>
        <time>2026-07-09T12:29:30.000Z</time>
      </trkpt>
      <trkpt lat="46.69437" lon="15.9493">
        <ele>218.114868</ele>
        <time>2026-07-09T12:29:31.000Z</time>
      </trkpt>
      <trkpt lat="46.69459" lon="15.94884">
        <ele>218.545428</ele>
        <time>2026-07-09T12:29:38.000Z</time>
      </trkpt>
      <trkpt lat="46.69473" lon="15.9486">
        <ele>218.781728</ele>
        <time>2026-07-09T12:29:42.000Z</time>
      </trkpt>
      <trkpt lat="46.69487" lon="15.94837">
        <ele>219.016702</ele>
        <time>2026-07-09T12:29:46.000Z</time>
      </trkpt>
      <trkpt lat="46.6952" lon="15.94779">
        <ele>218.833634</ele>
        <time>2026-07-09T12:29:56.000Z</time>
      </trkpt>
      <trkpt lat="46.69522" lon="15.94772">
        <ele>218.809752</ele>
        <time>2026-07-09T12:29:57.000Z</time>
      </trkpt>
      <trkpt lat="46.69532" lon="15.9473">
        <ele>218.676281</ele>
        <time>2026-07-09T12:30:02.000Z</time>
      </trkpt>
      <trkpt lat="46.69546" lon="15.94678">
        <ele>218.510836</ele>
        <time>2026-07-09T12:30:08.000Z</time>
      </trkpt>
      <trkpt lat="46.6955" lon="15.94627">
        <ele>218.358765</ele>
        <time>2026-07-09T12:30:14.000Z</time>
      </trkpt>
      <trkpt lat="46.69557" lon="15.94568">
        <ele>218.056838</ele>
        <time>2026-07-09T12:30:21.000Z</time>
      </trkpt>
      <trkpt lat="46.69565" lon="15.94544">
        <ele>217.858439</ele>
        <time>2026-07-09T12:30:24.000Z</time>
      </trkpt>
      <trkpt lat="46.69571" lon="15.94529">
        <ele>217.727198</ele>
        <time>2026-07-09T12:30:26.000Z</time>
      </trkpt>
      <trkpt lat="46.69574" lon="15.94525">
        <ele>217.680184</ele>
        <time>2026-07-09T12:30:27.000Z</time>
      </trkpt>
      <trkpt lat="46.69607" lon="15.9447">
        <ele>217.142662</ele>
        <time>2026-07-09T12:30:36.000Z</time>
      </trkpt>
      <trkpt lat="46.69629" lon="15.94434">
        <ele>216.78289</ele>
        <time>2026-07-09T12:30:42.000Z</time>
      </trkpt>
      <trkpt lat="46.69634" lon="15.94429">
        <ele>216.720243</ele>
        <time>2026-07-09T12:30:43.000Z</time>
      </trkpt>
      <trkpt lat="46.69639" lon="15.94424">
        <ele>216.647933</ele>
        <time>2026-07-09T12:30:44.000Z</time>
      </trkpt>
      <trkpt lat="46.69648" lon="15.9442">
        <ele>216.548423</ele>
        <time>2026-07-09T12:30:46.000Z</time>
      </trkpt>
      <trkpt lat="46.69654" lon="15.94419">
        <ele>216.489492</ele>
        <time>2026-07-09T12:30:47.000Z</time>
      </trkpt>
      <trkpt lat="46.69659" lon="15.94419">
        <ele>216.428775</ele>
        <time>2026-07-09T12:30:48.000Z</time>
      </trkpt>
      <trkpt lat="46.6967" lon="15.94422">
        <ele>216.31852</ele>
        <time>2026-07-09T12:30:50.000Z</time>
      </trkpt>
      <trkpt lat="46.69677" lon="15.94426">
        <ele>216.341126</ele>
        <time>2026-07-09T12:30:51.000Z</time>
      </trkpt>
      <trkpt lat="46.69705" lon="15.94452">
        <ele>216.449658</ele>
        <time>2026-07-09T12:30:57.000Z</time>
      </trkpt>
      <trkpt lat="46.69737" lon="15.94487">
        <ele>216.578187</ele>
        <time>2026-07-09T12:31:04.000Z</time>
      </trkpt>
      <trkpt lat="46.69742" lon="15.9449">
        <ele>216.597069</ele>
        <time>2026-07-09T12:31:05.000Z</time>
      </trkpt>
      <trkpt lat="46.69758" lon="15.94501">
        <ele>216.653809</ele>
        <time>2026-07-09T12:31:08.000Z</time>
      </trkpt>
      <trkpt lat="46.69769" lon="15.94508">
        <ele>216.691074</ele>
        <time>2026-07-09T12:31:10.000Z</time>
      </trkpt>
      <trkpt lat="46.6981" lon="15.94525">
        <ele>216.829905</ele>
        <time>2026-07-09T12:31:17.000Z</time>
      </trkpt>
      <trkpt lat="46.69833" lon="15.94548">
        <ele>216.863112</ele>
        <time>2026-07-09T12:31:22.000Z</time>
      </trkpt>
      <trkpt lat="46.69837" lon="15.94553">
        <ele>216.835639</ele>
        <time>2026-07-09T12:31:23.000Z</time>
      </trkpt>
      <trkpt lat="46.69856" lon="15.94584">
        <ele>216.692516</ele>
        <time>2026-07-09T12:31:28.000Z</time>
      </trkpt>
      <trkpt lat="46.69868" lon="15.94602">
        <ele>216.604226</ele>
        <time>2026-07-09T12:31:31.000Z</time>
      </trkpt>
      <trkpt lat="46.69884" lon="15.94627">
        <ele>216.486226</ele>
        <time>2026-07-09T12:31:35.000Z</time>
      </trkpt>
      <trkpt lat="46.699" lon="15.9465">
        <ele>216.371904</ele>
        <time>2026-07-09T12:31:39.000Z</time>
      </trkpt>
      <trkpt lat="46.69945" lon="15.94699">
        <ele>216.087132</ele>
        <time>2026-07-09T12:31:49.000Z</time>
      </trkpt>
      <trkpt lat="46.69985" lon="15.94742">
        <ele>215.736017</ele>
        <time>2026-07-09T12:31:58.000Z</time>
      </trkpt>
      <trkpt lat="46.70027" lon="15.94787">
        <ele>215.292084</ele>
        <time>2026-07-09T12:32:07.000Z</time>
      </trkpt>
      <trkpt lat="46.70065" lon="15.94828">
        <ele>214.893547</ele>
        <time>2026-07-09T12:32:15.000Z</time>
      </trkpt>
      <trkpt lat="46.70068" lon="15.94835">
        <ele>214.845533</ele>
        <time>2026-07-09T12:32:16.000Z</time>
      </trkpt>
      <trkpt lat="46.70073" lon="15.9485">
        <ele>214.748782</ele>
        <time>2026-07-09T12:32:18.000Z</time>
      </trkpt>
      <trkpt lat="46.70075" lon="15.94858">
        <ele>214.698455</ele>
        <time>2026-07-09T12:32:19.000Z</time>
      </trkpt>
      <trkpt lat="46.70088" lon="15.94908">
        <ele>214.587805</ele>
        <time>2026-07-09T12:32:25.000Z</time>
      </trkpt>
      <trkpt lat="46.70095" lon="15.94923">
        <ele>214.764235</ele>
        <time>2026-07-09T12:32:27.000Z</time>
      </trkpt>
      <trkpt lat="46.70103" lon="15.94934">
        <ele>214.936427</ele>
        <time>2026-07-09T12:32:29.000Z</time>
      </trkpt>
      <trkpt lat="46.70115" lon="15.9494">
        <ele>215.119981</ele>
        <time>2026-07-09T12:32:31.000Z</time>
      </trkpt>
      <trkpt lat="46.70122" lon="15.9494">
        <ele>215.215299</ele>
        <time>2026-07-09T12:32:32.000Z</time>
      </trkpt>
      <trkpt lat="46.70146" lon="15.94934">
        <ele>215.568219</ele>
        <time>2026-07-09T12:32:36.000Z</time>
      </trkpt>
      <trkpt lat="46.70152" lon="15.94931">
        <ele>215.653699</ele>
        <time>2026-07-09T12:32:37.000Z</time>
      </trkpt>
      <trkpt lat="46.70174" lon="15.94919">
        <ele>215.993461</ele>
        <time>2026-07-09T12:32:41.000Z</time>
      </trkpt>
      <trkpt lat="46.70185" lon="15.94917">
        <ele>216.16388</ele>
        <time>2026-07-09T12:32:43.000Z</time>
      </trkpt>
      <trkpt lat="46.70221" lon="15.94923">
        <ele>216.676889</ele>
        <time>2026-07-09T12:32:49.000Z</time>
      </trkpt>
      <trkpt lat="46.70244" lon="15.94926">
        <ele>217.020852</ele>
        <time>2026-07-09T12:32:53.000Z</time>
      </trkpt>
      <trkpt lat="46.70268" lon="15.9493">
        <ele>217.220817</ele>
        <time>2026-07-09T12:32:57.000Z</time>
      </trkpt>
      <trkpt lat="46.70274" lon="15.94928">
        <ele>217.265917</ele>
        <time>2026-07-09T12:32:58.000Z</time>
      </trkpt>
      <trkpt lat="46.7028" lon="15.94925">
        <ele>217.31134</ele>
        <time>2026-07-09T12:32:59.000Z</time>
      </trkpt>
      <trkpt lat="46.70289" lon="15.94912">
        <ele>217.404941</ele>
        <time>2026-07-09T12:33:01.000Z</time>
      </trkpt>
      <trkpt lat="46.70302" lon="15.94881">
        <ele>217.593747</ele>
        <time>2026-07-09T12:33:05.000Z</time>
      </trkpt>
      <trkpt lat="46.70311" lon="15.94872">
        <ele>217.678994</ele>
        <time>2026-07-09T12:33:07.000Z</time>
      </trkpt>
      <trkpt lat="46.70317" lon="15.9487">
        <ele>217.725038</ele>
        <time>2026-07-09T12:33:08.000Z</time>
      </trkpt>
      <trkpt lat="46.7033" lon="15.94867">
        <ele>217.818474</ele>
        <time>2026-07-09T12:33:10.000Z</time>
      </trkpt>
      <trkpt lat="46.70348" lon="15.9486">
        <ele>217.961025</ele>
        <time>2026-07-09T12:33:13.000Z</time>
      </trkpt>
      <trkpt lat="46.70392" lon="15.94848">
        <ele>218.296244</ele>
        <time>2026-07-09T12:33:20.000Z</time>
      </trkpt>
      <trkpt lat="46.70448" lon="15.94834">
        <ele>218.369095</ele>
        <time>2026-07-09T12:33:29.000Z</time>
      </trkpt>
      <trkpt lat="46.70454" lon="15.94834">
        <ele>218.363277</ele>
        <time>2026-07-09T12:33:30.000Z</time>
      </trkpt>
      <trkpt lat="46.70467" lon="15.94837">
        <ele>218.351385</ele>
        <time>2026-07-09T12:33:32.000Z</time>
      </trkpt>
      <trkpt lat="46.70484" lon="15.94847">
        <ele>218.333779</ele>
        <time>2026-07-09T12:33:35.000Z</time>
      </trkpt>
      <trkpt lat="46.7053" lon="15.94887">
        <ele>218.282082</ele>
        <time>2026-07-09T12:33:44.000Z</time>
      </trkpt>
      <trkpt lat="46.70573" lon="15.94921">
        <ele>218.245985</ele>
        <time>2026-07-09T12:33:52.000Z</time>
      </trkpt>
      <trkpt lat="46.70621" lon="15.94957">
        <ele>218.478952</ele>
        <time>2026-07-09T12:34:01.000Z</time>
      </trkpt>
      <trkpt lat="46.7067" lon="15.94995">
        <ele>218.718383</ele>
        <time>2026-07-09T12:34:11.000Z</time>
      </trkpt>
      <trkpt lat="46.7069" lon="15.9501">
        <ele>218.814834</ele>
        <time>2026-07-09T12:34:16.000Z</time>
      </trkpt>
      <trkpt lat="46.70694" lon="15.95011">
        <ele>218.832763</ele>
        <time>2026-07-09T12:34:17.000Z</time>
      </trkpt>
      <trkpt lat="46.70705" lon="15.95008">
        <ele>218.882948</ele>
        <time>2026-07-09T12:34:20.000Z</time>
      </trkpt>
      <trkpt lat="46.70708" lon="15.95004">
        <ele>218.901688</ele>
        <time>2026-07-09T12:34:21.000Z</time>
      </trkpt>
      <trkpt lat="46.70711" lon="15.94999">
        <ele>218.92145</ele>
        <time>2026-07-09T12:34:22.000Z</time>
      </trkpt>
      <trkpt lat="46.70723" lon="15.94974">
        <ele>219.010207</ele>
        <time>2026-07-09T12:34:26.000Z</time>
      </trkpt>
      <trkpt lat="46.70728" lon="15.94961">
        <ele>219.059062</ele>
        <time>2026-07-09T12:34:28.000Z</time>
      </trkpt>
      <trkpt lat="46.70742" lon="15.94934">
        <ele>219.165027</ele>
        <time>2026-07-09T12:34:32.000Z</time>
      </trkpt>
      <trkpt lat="46.70757" lon="15.94906">
        <ele>219.280472</ele>
        <time>2026-07-09T12:34:36.000Z</time>
      </trkpt>
      <trkpt lat="46.70761" lon="15.94901">
        <ele>219.306553</ele>
        <time>2026-07-09T12:34:37.000Z</time>
      </trkpt>
      <trkpt lat="46.70766" lon="15.94897">
        <ele>219.331794</ele>
        <time>2026-07-09T12:34:38.000Z</time>
      </trkpt>
      <trkpt lat="46.70777" lon="15.94893">
        <ele>219.386543</ele>
        <time>2026-07-09T12:34:40.000Z</time>
      </trkpt>
      <trkpt lat="46.70789" lon="15.94893">
        <ele>219.443215</ele>
        <time>2026-07-09T12:34:42.000Z</time>
      </trkpt>
      <trkpt lat="46.70808" lon="15.94899">
        <ele>219.53017</ele>
        <time>2026-07-09T12:34:45.000Z</time>
      </trkpt>
      <trkpt lat="46.70862" lon="15.94917">
        <ele>219.790473</ele>
        <time>2026-07-09T12:34:54.000Z</time>
      </trkpt>
      <trkpt lat="46.70916" lon="15.94934">
        <ele>219.849626</ele>
        <time>2026-07-09T12:35:03.000Z</time>
      </trkpt>
      <trkpt lat="46.70941" lon="15.94943">
        <ele>219.844956</ele>
        <time>2026-07-09T12:35:07.000Z</time>
      </trkpt>
      <trkpt lat="46.70953" lon="15.94945">
        <ele>219.842706</ele>
        <time>2026-07-09T12:35:09.000Z</time>
      </trkpt>
      <trkpt lat="46.70959" lon="15.94944">
        <ele>219.841602</ele>
        <time>2026-07-09T12:35:10.000Z</time>
      </trkpt>
      <trkpt lat="46.71006" lon="15.94928">
        <ele>219.832759</ele>
        <time>2026-07-09T12:35:18.000Z</time>
      </trkpt>
      <trkpt lat="46.71051" lon="15.94915">
        <ele>219.824419</ele>
        <time>2026-07-09T12:35:26.000Z</time>
      </trkpt>
      <trkpt lat="46.71105" lon="15.94901">
        <ele>219.48467</ele>
        <time>2026-07-09T12:35:35.000Z</time>
      </trkpt>
      <trkpt lat="46.7116" lon="15.9488">
        <ele>219.13043</ele>
        <time>2026-07-09T12:35:44.000Z</time>
      </trkpt>
      <trkpt lat="46.71216" lon="15.94871">
        <ele>218.782339</ele>
        <time>2026-07-09T12:35:53.000Z</time>
      </trkpt>
      <trkpt lat="46.71222" lon="15.94869">
        <ele>218.74355</ele>
        <time>2026-07-09T12:35:54.000Z</time>
      </trkpt>
      <trkpt lat="46.71228" lon="15.94866">
        <ele>218.705167</ele>
        <time>2026-07-09T12:35:55.000Z</time>
      </trkpt>
      <trkpt lat="46.71237" lon="15.94855">
        <ele>218.707576</ele>
        <time>2026-07-09T12:35:57.000Z</time>
      </trkpt>
      <trkpt lat="46.71249" lon="15.94822">
        <ele>218.716661</ele>
        <time>2026-07-09T12:36:01.000Z</time>
      </trkpt>
      <trkpt lat="46.71253" lon="15.94804">
        <ele>218.721138</ele>
        <time>2026-07-09T12:36:03.000Z</time>
      </trkpt>
      <trkpt lat="46.71254" lon="15.94785">
        <ele>218.725836</ele>
        <time>2026-07-09T12:36:05.000Z</time>
      </trkpt>
      <trkpt lat="46.71252" lon="15.94766">
        <ele>218.730763</ele>
        <time>2026-07-09T12:36:07.000Z</time>
      </trkpt>
      <trkpt lat="46.71247" lon="15.94747">
        <ele>218.735689</ele>
        <time>2026-07-09T12:36:09.000Z</time>
      </trkpt>
      <trkpt lat="46.71238" lon="15.94699">
        <ele>218.7479</ele>
        <time>2026-07-09T12:36:13.000Z</time>
      </trkpt>
      <trkpt lat="46.71238" lon="15.9469">
        <ele>218.750209</ele>
        <time>2026-07-09T12:36:15.000Z</time>
      </trkpt>
      <trkpt lat="46.7124" lon="15.94655">
        <ele>218.758653</ele>
        <time>2026-07-09T12:36:19.000Z</time>
      </trkpt>
      <trkpt lat="46.71246" lon="15.9462">
        <ele>218.767448</ele>
        <time>2026-07-09T12:36:24.000Z</time>
      </trkpt>
      <trkpt lat="46.71242" lon="15.94608">
        <ele>218.773678</ele>
        <time>2026-07-09T12:36:26.000Z</time>
      </trkpt>
      <trkpt lat="46.71239" lon="15.94603">
        <ele>218.777178</ele>
        <time>2026-07-09T12:36:27.000Z</time>
      </trkpt>
      <trkpt lat="46.71235" lon="15.94598">
        <ele>218.78084</ele>
        <time>2026-07-09T12:36:28.000Z</time>
      </trkpt>
      <trkpt lat="46.71217" lon="15.9459">
        <ele>218.793473</ele>
        <time>2026-07-09T12:36:31.000Z</time>
      </trkpt>
      <trkpt lat="46.71181" lon="15.9457">
        <ele>218.8204</ele>
        <time>2026-07-09T12:36:37.000Z</time>
      </trkpt>
      <trkpt lat="46.71156" lon="15.94541">
        <ele>218.842823</ele>
        <time>2026-07-09T12:36:42.000Z</time>
      </trkpt>
      <trkpt lat="46.71152" lon="15.94533">
        <ele>218.847334</ele>
        <time>2026-07-09T12:36:43.000Z</time>
      </trkpt>
      <trkpt lat="46.71115" lon="15.94464">
        <ele>218.889241</ele>
        <time>2026-07-09T12:36:52.000Z</time>
      </trkpt>
      <trkpt lat="46.71103" lon="15.94429">
        <ele>218.989805</ele>
        <time>2026-07-09T12:36:56.000Z</time>
      </trkpt>
      <trkpt lat="46.71101" lon="15.9442">
        <ele>219.020278</ele>
        <time>2026-07-09T12:36:57.000Z</time>
      </trkpt>
      <trkpt lat="46.71081" lon="15.94348">
        <ele>219.265924</ele>
        <time>2026-07-09T12:37:05.000Z</time>
      </trkpt>
      <trkpt lat="46.71075" lon="15.94331">
        <ele>219.324128</ele>
        <time>2026-07-09T12:37:07.000Z</time>
      </trkpt>
      <trkpt lat="46.71057" lon="15.94258">
        <ele>219.56569</ele>
        <time>2026-07-09T12:37:15.000Z</time>
      </trkpt>
      <trkpt lat="46.71048" lon="15.94203">
        <ele>219.763649</ele>
        <time>2026-07-09T12:37:21.000Z</time>
      </trkpt>
      <trkpt lat="46.71041" lon="15.94136">
        <ele>220.106256</ele>
        <time>2026-07-09T12:37:28.000Z</time>
      </trkpt>
      <trkpt lat="46.71041" lon="15.94128">
        <ele>220.14412</ele>
        <time>2026-07-09T12:37:29.000Z</time>
      </trkpt>
      <trkpt lat="46.71043" lon="15.94119">
        <ele>220.193308</ele>
        <time>2026-07-09T12:37:30.000Z</time>
      </trkpt>
      <trkpt lat="46.71052" lon="15.94095">
        <ele>220.33361</ele>
        <time>2026-07-09T12:37:33.000Z</time>
      </trkpt>
      <trkpt lat="46.71065" lon="15.94061">
        <ele>220.52836</ele>
        <time>2026-07-09T12:37:38.000Z</time>
      </trkpt>
      <trkpt lat="46.71073" lon="15.94036">
        <ele>220.66774</ele>
        <time>2026-07-09T12:37:41.000Z</time>
      </trkpt>
      <trkpt lat="46.71074" lon="15.94026">
        <ele>220.719166</ele>
        <time>2026-07-09T12:37:42.000Z</time>
      </trkpt>
      <trkpt lat="46.71075" lon="15.94016">
        <ele>220.770621</ele>
        <time>2026-07-09T12:37:43.000Z</time>
      </trkpt>
      <trkpt lat="46.71073" lon="15.93985">
        <ele>220.929772</ele>
        <time>2026-07-09T12:37:46.000Z</time>
      </trkpt>
      <trkpt lat="46.71058" lon="15.93925">
        <ele>221.029723</ele>
        <time>2026-07-09T12:37:52.000Z</time>
      </trkpt>
      <trkpt lat="46.71037" lon="15.93849">
        <ele>221.003437</ele>
        <time>2026-07-09T12:38:00.000Z</time>
      </trkpt>
      <trkpt lat="46.71035" lon="15.9384">
        <ele>221.000392</ele>
        <time>2026-07-09T12:38:01.000Z</time>
      </trkpt>
      <trkpt lat="46.71026" lon="15.93795">
        <ele>220.985457</ele>
        <time>2026-07-09T12:38:06.000Z</time>
      </trkpt>
      <trkpt lat="46.71023" lon="15.93774">
        <ele>220.978806</ele>
        <time>2026-07-09T12:38:08.000Z</time>
      </trkpt>
      <trkpt lat="46.71016" lon="15.93702">
        <ele>221.020661</ele>
        <time>2026-07-09T12:38:16.000Z</time>
      </trkpt>
      <trkpt lat="46.71019" lon="15.93628">
        <ele>221.423652</ele>
        <time>2026-07-09T12:38:24.000Z</time>
      </trkpt>
      <trkpt lat="46.71031" lon="15.93581">
        <ele>221.69314</ele>
        <time>2026-07-09T12:38:29.000Z</time>
      </trkpt>
      <trkpt lat="46.71049" lon="15.93522">
        <ele>222.04456</ele>
        <time>2026-07-09T12:38:36.000Z</time>
      </trkpt>
      <trkpt lat="46.71062" lon="15.93443">
        <ele>222.391946</ele>
        <time>2026-07-09T12:38:44.000Z</time>
      </trkpt>
      <trkpt lat="46.71076" lon="15.93358">
        <ele>222.442523</ele>
        <time>2026-07-09T12:38:53.000Z</time>
      </trkpt>
      <trkpt lat="46.71081" lon="15.9333">
        <ele>222.459241</ele>
        <time>2026-07-09T12:38:56.000Z</time>
      </trkpt>
      <trkpt lat="46.71101" lon="15.9328">
        <ele>222.492864</ele>
        <time>2026-07-09T12:39:02.000Z</time>
      </trkpt>
      <trkpt lat="46.71129" lon="15.93239">
        <ele>222.526056</ele>
        <time>2026-07-09T12:39:08.000Z</time>
      </trkpt>
      <trkpt lat="46.71163" lon="15.93174">
        <ele>222.61118</ele>
        <time>2026-07-09T12:39:17.000Z</time>
      </trkpt>
      <trkpt lat="46.71175" lon="15.93124">
        <ele>222.67024</ele>
        <time>2026-07-09T12:39:23.000Z</time>
      </trkpt>
      <trkpt lat="46.71191" lon="15.93045">
        <ele>222.762212</ele>
        <time>2026-07-09T12:39:32.000Z</time>
      </trkpt>
      <trkpt lat="46.712" lon="15.93021">
        <ele>222.792865</ele>
        <time>2026-07-09T12:39:35.000Z</time>
      </trkpt>
      <trkpt lat="46.71209" lon="15.93006">
        <ele>222.814388</ele>
        <time>2026-07-09T12:39:37.000Z</time>
      </trkpt>
      <trkpt lat="46.71239" lon="15.9297">
        <ele>222.643303</ele>
        <time>2026-07-09T12:39:43.000Z</time>
      </trkpt>
      <trkpt lat="46.71287" lon="15.92924">
        <ele>222.320205</ele>
        <time>2026-07-09T12:39:52.000Z</time>
      </trkpt>
      <trkpt lat="46.71321" lon="15.92887">
        <ele>222.080682</ele>
        <time>2026-07-09T12:39:59.000Z</time>
      </trkpt>
      <trkpt lat="46.71357" lon="15.92834">
        <ele>221.834535</ele>
        <time>2026-07-09T12:40:07.000Z</time>
      </trkpt>
      <trkpt lat="46.71393" lon="15.92775">
        <ele>222.135334</ele>
        <time>2026-07-09T12:40:16.000Z</time>
      </trkpt>
      <trkpt lat="46.71397" lon="15.92767">
        <ele>222.168197</ele>
        <time>2026-07-09T12:40:17.000Z</time>
      </trkpt>
      <trkpt lat="46.71409" lon="15.9273">
        <ele>222.325249</ele>
        <time>2026-07-09T12:40:22.000Z</time>
      </trkpt>
      <trkpt lat="46.71425" lon="15.92668">
        <ele>222.575671</ele>
        <time>2026-07-09T12:40:30.000Z</time>
      </trkpt>
      <trkpt lat="46.71444" lon="15.92633">
        <ele>222.741006</ele>
        <time>2026-07-09T12:40:35.000Z</time>
      </trkpt>
      <trkpt lat="46.71478" lon="15.92598">
        <ele>222.822594</ele>
        <time>2026-07-09T12:40:42.000Z</time>
      </trkpt>
      <trkpt lat="46.71516" lon="15.92555">
        <ele>222.856641</ele>
        <time>2026-07-09T12:40:50.000Z</time>
      </trkpt>
      <trkpt lat="46.71531" lon="15.92519">
        <ele>222.876872</ele>
        <time>2026-07-09T12:40:55.000Z</time>
      </trkpt>
      <trkpt lat="46.71534" lon="15.92502">
        <ele>222.885626</ele>
        <time>2026-07-09T12:40:57.000Z</time>
      </trkpt>
      <trkpt lat="46.71534" lon="15.92486">
        <ele>222.8933</ele>
        <time>2026-07-09T12:40:59.000Z</time>
      </trkpt>
      <trkpt lat="46.7153" lon="15.92425">
        <ele>222.922965</ele>
        <time>2026-07-09T12:41:06.000Z</time>
      </trkpt>
      <trkpt lat="46.7152" lon="15.92346">
        <ele>223.06915</ele>
        <time>2026-07-09T12:41:15.000Z</time>
      </trkpt>
      <trkpt lat="46.71519" lon="15.92339">
        <ele>223.08413</ele>
        <time>2026-07-09T12:41:16.000Z</time>
      </trkpt>
      <trkpt lat="46.71518" lon="15.92271">
        <ele>223.221556</ele>
        <time>2026-07-09T12:41:23.000Z</time>
      </trkpt>
      <trkpt lat="46.71525" lon="15.92237">
        <ele>223.292785</ele>
        <time>2026-07-09T12:41:27.000Z</time>
      </trkpt>
      <trkpt lat="46.71528" lon="15.92229">
        <ele>223.312215</ele>
        <time>2026-07-09T12:41:28.000Z</time>
      </trkpt>
      <trkpt lat="46.71556" lon="15.92164">
        <ele>223.48661</ele>
        <time>2026-07-09T12:41:36.000Z</time>
      </trkpt>
      <trkpt lat="46.71577" lon="15.92101">
        <ele>223.985023</ele>
        <time>2026-07-09T12:41:44.000Z</time>
      </trkpt>
      <trkpt lat="46.71589" lon="15.92029">
        <ele>224.516697</ele>
        <time>2026-07-09T12:41:52.000Z</time>
      </trkpt>
      <trkpt lat="46.716" lon="15.91958">
        <ele>225.034666</ele>
        <time>2026-07-09T12:42:00.000Z</time>
      </trkpt>
      <trkpt lat="46.71611" lon="15.91875">
        <ele>225.222509</ele>
        <time>2026-07-09T12:42:09.000Z</time>
      </trkpt>
      <trkpt lat="46.71618" lon="15.91813">
        <ele>225.070112</ele>
        <time>2026-07-09T12:42:16.000Z</time>
      </trkpt>
      <trkpt lat="46.71621" lon="15.91749">
        <ele>224.910772</ele>
        <time>2026-07-09T12:42:23.000Z</time>
      </trkpt>
      <trkpt lat="46.71616" lon="15.91675">
        <ele>224.727955</ele>
        <time>2026-07-09T12:42:31.000Z</time>
      </trkpt>
      <trkpt lat="46.7161" lon="15.91616">
        <ele>224.5321</ele>
        <time>2026-07-09T12:42:37.000Z</time>
      </trkpt>
      <trkpt lat="46.71611" lon="15.91606">
        <ele>224.495437</ele>
        <time>2026-07-09T12:42:38.000Z</time>
      </trkpt>
      <trkpt lat="46.71613" lon="15.91596">
        <ele>224.459645</ele>
        <time>2026-07-09T12:42:39.000Z</time>
      </trkpt>
      <trkpt lat="46.71621" lon="15.91569">
        <ele>224.352723</ele>
        <time>2026-07-09T12:42:42.000Z</time>
      </trkpt>
      <trkpt lat="46.71649" lon="15.91503">
        <ele>224.070083</ele>
        <time>2026-07-09T12:42:50.000Z</time>
      </trkpt>
      <trkpt lat="46.71679" lon="15.91449">
        <ele>223.816966</ele>
        <time>2026-07-09T12:42:57.000Z</time>
      </trkpt>
      <trkpt lat="46.7172" lon="15.91401">
        <ele>223.552118</ele>
        <time>2026-07-09T12:43:05.000Z</time>
      </trkpt>
      <trkpt lat="46.71759" lon="15.91356">
        <ele>223.305006</ele>
        <time>2026-07-09T12:43:13.000Z</time>
      </trkpt>
      <trkpt lat="46.71795" lon="15.91312">
        <ele>223.070282</ele>
        <time>2026-07-09T12:43:21.000Z</time>
      </trkpt>
      <trkpt lat="46.71838" lon="15.91261">
        <ele>222.922811</ele>
        <time>2026-07-09T12:43:30.000Z</time>
      </trkpt>
      <trkpt lat="46.71852" lon="15.91241">
        <ele>223.1255</ele>
        <time>2026-07-09T12:43:33.000Z</time>
      </trkpt>
      <trkpt lat="46.71865" lon="15.91218">
        <ele>223.332182</ele>
        <time>2026-07-09T12:43:36.000Z</time>
      </trkpt>
      <trkpt lat="46.71875" lon="15.91193">
        <ele>223.534624</ele>
        <time>2026-07-09T12:43:39.000Z</time>
      </trkpt>
      <trkpt lat="46.71892" lon="15.91149">
        <ele>223.892077</ele>
        <time>2026-07-09T12:43:45.000Z</time>
      </trkpt>
      <trkpt lat="46.71911" lon="15.91089">
        <ele>224.355167</ele>
        <time>2026-07-09T12:43:52.000Z</time>
      </trkpt>
      <trkpt lat="46.71929" lon="15.91025">
        <ele>224.773559</ele>
        <time>2026-07-09T12:43:59.000Z</time>
      </trkpt>
      <trkpt lat="46.71941" lon="15.90973">
        <ele>225.010127</ele>
        <time>2026-07-09T12:44:05.000Z</time>
      </trkpt>
      <trkpt lat="46.71953" lon="15.90923">
        <ele>225.240367</ele>
        <time>2026-07-09T12:44:11.000Z</time>
      </trkpt>
      <trkpt lat="46.71971" lon="15.90853">
        <ele>225.563276</ele>
        <time>2026-07-09T12:44:19.000Z</time>
      </trkpt>
      <trkpt lat="46.71985" lon="15.90807">
        <ele>225.782351</ele>
        <time>2026-07-09T12:44:25.000Z</time>
      </trkpt>
      <trkpt lat="46.71987" lon="15.90799">
        <ele>225.825062</ele>
        <time>2026-07-09T12:44:26.000Z</time>
      </trkpt>
      <trkpt lat="46.71992" lon="15.90776">
        <ele>225.991152</ele>
        <time>2026-07-09T12:44:29.000Z</time>
      </trkpt>
      <trkpt lat="46.7201" lon="15.90725">
        <ele>226.387581</ele>
        <time>2026-07-09T12:44:35.000Z</time>
      </trkpt>
      <trkpt lat="46.7202" lon="15.90702">
        <ele>226.572703</ele>
        <time>2026-07-09T12:44:38.000Z</time>
      </trkpt>
      <trkpt lat="46.7203" lon="15.90683">
        <ele>226.740573</ele>
        <time>2026-07-09T12:44:41.000Z</time>
      </trkpt>
      <trkpt lat="46.72034" lon="15.90676">
        <ele>226.804909</ele>
        <time>2026-07-09T12:44:42.000Z</time>
      </trkpt>
      <trkpt lat="46.72038" lon="15.90669">
        <ele>226.86958</ele>
        <time>2026-07-09T12:44:43.000Z</time>
      </trkpt>
      <trkpt lat="46.72043" lon="15.90663">
        <ele>226.929705</ele>
        <time>2026-07-09T12:44:44.000Z</time>
      </trkpt>
      <trkpt lat="46.72059" lon="15.9065">
        <ele>227.113739</ele>
        <time>2026-07-09T12:44:47.000Z</time>
      </trkpt>
      <trkpt lat="46.72086" lon="15.90638">
        <ele>227.403718</ele>
        <time>2026-07-09T12:44:52.000Z</time>
      </trkpt>
      <trkpt lat="46.72138" lon="15.90634">
        <ele>226.968049</ele>
        <time>2026-07-09T12:45:00.000Z</time>
      </trkpt>
      <trkpt lat="46.72175" lon="15.9063">
        <ele>226.14967</ele>
        <time>2026-07-09T12:45:06.000Z</time>
      </trkpt>
      <trkpt lat="46.7218" lon="15.90628">
        <ele>226.041749</ele>
        <time>2026-07-09T12:45:07.000Z</time>
      </trkpt>
      <trkpt lat="46.72197" lon="15.90618">
        <ele>225.637736</ele>
        <time>2026-07-09T12:45:10.000Z</time>
      </trkpt>
      <trkpt lat="46.72203" lon="15.90613">
        <ele>225.503148</ele>
        <time>2026-07-09T12:45:11.000Z</time>
      </trkpt>
      <trkpt lat="46.72212" lon="15.90602">
        <ele>225.233006</ele>
        <time>2026-07-09T12:45:13.000Z</time>
      </trkpt>
      <trkpt lat="46.72225" lon="15.90581">
        <ele>224.81978</ele>
        <time>2026-07-09T12:45:16.000Z</time>
      </trkpt>
      <trkpt lat="46.7225" lon="15.90527">
        <ele>223.84435</ele>
        <time>2026-07-09T12:45:23.000Z</time>
      </trkpt>
      <trkpt lat="46.72271" lon="15.90481">
        <ele>223.521144</ele>
        <time>2026-07-09T12:45:29.000Z</time>
      </trkpt>
      <trkpt lat="46.72274" lon="15.90473">
        <ele>223.479956</ele>
        <time>2026-07-09T12:45:30.000Z</time>
      </trkpt>
      <trkpt lat="46.72283" lon="15.90451">
        <ele>223.368439</ele>
        <time>2026-07-09T12:45:33.000Z</time>
      </trkpt>
      <trkpt lat="46.72291" lon="15.90415">
        <ele>223.207372</ele>
        <time>2026-07-09T12:45:37.000Z</time>
      </trkpt>
      <trkpt lat="46.72305" lon="15.90333">
        <ele>222.843089</ele>
        <time>2026-07-09T12:45:46.000Z</time>
      </trkpt>
      <trkpt lat="46.7232" lon="15.90264">
        <ele>222.682895</ele>
        <time>2026-07-09T12:45:54.000Z</time>
      </trkpt>
      <trkpt lat="46.72344" lon="15.90187">
        <ele>223.261778</ele>
        <time>2026-07-09T12:46:03.000Z</time>
      </trkpt>
      <trkpt lat="46.72351" lon="15.9017">
        <ele>223.393091</ele>
        <time>2026-07-09T12:46:04.000Z</time>
      </trkpt>
      <trkpt lat="46.72377" lon="15.90093">
        <ele>223.983775</ele>
        <time>2026-07-09T12:46:14.000Z</time>
      </trkpt>
      <trkpt lat="46.72395" lon="15.90041">
        <ele>224.384524</ele>
        <time>2026-07-09T12:46:20.000Z</time>
      </trkpt>
      <trkpt lat="46.72411" lon="15.89987">
        <ele>224.716043</ele>
        <time>2026-07-09T12:46:26.000Z</time>
      </trkpt>
      <trkpt lat="46.72413" lon="15.89977">
        <ele>224.773351</ele>
        <time>2026-07-09T12:46:27.000Z</time>
      </trkpt>
      <trkpt lat="46.72415" lon="15.89957">
        <ele>224.885808</ele>
        <time>2026-07-09T12:46:29.000Z</time>
      </trkpt>
      <trkpt lat="46.72416" lon="15.89917">
        <ele>225.112518</ele>
        <time>2026-07-09T12:46:33.000Z</time>
      </trkpt>
      <trkpt lat="46.72418" lon="15.89838">
        <ele>225.556266</ele>
        <time>2026-07-09T12:46:41.000Z</time>
      </trkpt>
      <trkpt lat="46.72419" lon="15.89819">
        <ele>225.666652</ele>
        <time>2026-07-09T12:46:43.000Z</time>
      </trkpt>
      <trkpt lat="46.72421" lon="15.89764">
        <ele>226.062213</ele>
        <time>2026-07-09T12:46:49.000Z</time>
      </trkpt>
      <trkpt lat="46.72422" lon="15.89755">
        <ele>226.154548</ele>
        <time>2026-07-09T12:46:50.000Z</time>
      </trkpt>
      <trkpt lat="46.72425" lon="15.89736">
        <ele>226.353797</ele>
        <time>2026-07-09T12:46:52.000Z</time>
      </trkpt>
      <trkpt lat="46.72424" lon="15.89716">
        <ele>226.549878</ele>
        <time>2026-07-09T12:46:54.000Z</time>
      </trkpt>
      <trkpt lat="46.72414" lon="15.89671">
        <ele>227.035809</ele>
        <time>2026-07-09T12:46:59.000Z</time>
      </trkpt>
      <trkpt lat="46.7239" lon="15.89594">
        <ele>227.885888</ele>
        <time>2026-07-09T12:47:08.000Z</time>
      </trkpt>
      <trkpt lat="46.72385" lon="15.89577">
        <ele>228.073313</ele>
        <time>2026-07-09T12:47:10.000Z</time>
      </trkpt>
      <trkpt lat="46.72365" lon="15.89496">
        <ele>228.534086</ele>
        <time>2026-07-09T12:47:19.000Z</time>
      </trkpt>
      <trkpt lat="46.72352" lon="15.89422">
        <ele>228.572026</ele>
        <time>2026-07-09T12:47:27.000Z</time>
      </trkpt>
      <trkpt lat="46.72349" lon="15.89356">
        <ele>228.605383</ele>
        <time>2026-07-09T12:47:34.000Z</time>
      </trkpt>
      <trkpt lat="46.72345" lon="15.89278">
        <ele>228.642073</ele>
        <time>2026-07-09T12:47:42.000Z</time>
      </trkpt>
      <trkpt lat="46.72338" lon="15.89198">
        <ele>228.54217</ele>
        <time>2026-07-09T12:47:50.000Z</time>
      </trkpt>
      <trkpt lat="46.72334" lon="15.89147">
        <ele>228.479667</ele>
        <time>2026-07-09T12:47:55.000Z</time>
      </trkpt>
      <trkpt lat="46.72335" lon="15.8913">
        <ele>228.458049</ele>
        <time>2026-07-09T12:47:57.000Z</time>
      </trkpt>
      <trkpt lat="46.72349" lon="15.89065">
        <ele>228.373792</ele>
        <time>2026-07-09T12:48:04.000Z</time>
      </trkpt>
      <trkpt lat="46.72368" lon="15.88981">
        <ele>228.428602</ele>
        <time>2026-07-09T12:48:13.000Z</time>
      </trkpt>
      <trkpt lat="46.72371" lon="15.88965">
        <ele>228.470017</ele>
        <time>2026-07-09T12:48:15.000Z</time>
      </trkpt>
      <trkpt lat="46.72388" lon="15.88881">
        <ele>228.68485</ele>
        <time>2026-07-09T12:48:24.000Z</time>
      </trkpt>
      <trkpt lat="46.72389" lon="15.88871">
        <ele>228.708305</ele>
        <time>2026-07-09T12:48:25.000Z</time>
      </trkpt>
      <trkpt lat="46.72391" lon="15.88803">
        <ele>228.875356</ele>
        <time>2026-07-09T12:48:32.000Z</time>
      </trkpt>
      <trkpt lat="46.72395" lon="15.88735">
        <ele>228.88698</ele>
        <time>2026-07-09T12:48:39.000Z</time>
      </trkpt>
      <trkpt lat="46.72406" lon="15.88686">
        <ele>228.769813</ele>
        <time>2026-07-09T12:48:44.000Z</time>
      </trkpt>
      <trkpt lat="46.72409" lon="15.88677">
        <ele>228.745982</ele>
        <time>2026-07-09T12:48:45.000Z</time>
      </trkpt>
      <trkpt lat="46.72414" lon="15.88669">
        <ele>228.721759</ele>
        <time>2026-07-09T12:48:46.000Z</time>
      </trkpt>
      <trkpt lat="46.72432" lon="15.88638">
        <ele>228.628064</ele>
        <time>2026-07-09T12:48:50.000Z</time>
      </trkpt>
      <trkpt lat="46.72453" lon="15.88611">
        <ele>228.533946</ele>
        <time>2026-07-09T12:48:54.000Z</time>
      </trkpt>
      <trkpt lat="46.72459" lon="15.88605">
        <ele>228.510381</ele>
        <time>2026-07-09T12:48:55.000Z</time>
      </trkpt>
      <trkpt lat="46.72501" lon="15.88573">
        <ele>228.333952</ele>
        <time>2026-07-09T12:49:02.000Z</time>
      </trkpt>
      <trkpt lat="46.72554" lon="15.88535">
        <ele>227.754046</ele>
        <time>2026-07-09T12:49:11.000Z</time>
      </trkpt>
      <trkpt lat="46.72561" lon="15.8853">
        <ele>227.686113</ele>
        <time>2026-07-09T12:49:12.000Z</time>
      </trkpt>
      <trkpt lat="46.72572" lon="15.88522">
        <ele>227.559194</ele>
        <time>2026-07-09T12:49:14.000Z</time>
      </trkpt>
      <trkpt lat="46.7259" lon="15.88509">
        <ele>227.368788</ele>
        <time>2026-07-09T12:49:17.000Z</time>
      </trkpt>
      <trkpt lat="46.72637" lon="15.88472">
        <ele>226.843878</ele>
        <time>2026-07-09T12:49:25.000Z</time>
      </trkpt>
      <trkpt lat="46.72677" lon="15.88441">
        <ele>226.507576</ele>
        <time>2026-07-09T12:49:32.000Z</time>
      </trkpt>
      <trkpt lat="46.7271" lon="15.88407">
        <ele>226.325157</ele>
        <time>2026-07-09T12:49:38.000Z</time>
      </trkpt>
      <trkpt lat="46.72749" lon="15.88357">
        <ele>226.081037</ele>
        <time>2026-07-09T12:49:46.000Z</time>
      </trkpt>
      <trkpt lat="46.72783" lon="15.88328">
        <ele>225.89853</ele>
        <time>2026-07-09T12:49:52.000Z</time>
      </trkpt>
      <trkpt lat="46.72829" lon="15.88302">
        <ele>225.919098</ele>
        <time>2026-07-09T12:50:00.000Z</time>
      </trkpt>
      <trkpt lat="46.7284" lon="15.88294">
        <ele>225.999688</ele>
        <time>2026-07-09T12:50:02.000Z</time>
      </trkpt>
      <trkpt lat="46.72849" lon="15.88282">
        <ele>226.083723</ele>
        <time>2026-07-09T12:50:04.000Z</time>
      </trkpt>
      <trkpt lat="46.72853" lon="15.88274">
        <ele>226.127582</ele>
        <time>2026-07-09T12:50:05.000Z</time>
      </trkpt>
      <trkpt lat="46.72855" lon="15.88266">
        <ele>226.16872</ele>
        <time>2026-07-09T12:50:06.000Z</time>
      </trkpt>
      <trkpt lat="46.7286" lon="15.88239">
        <ele>226.295362</ele>
        <time>2026-07-09T12:50:09.000Z</time>
      </trkpt>
      <trkpt lat="46.72871" lon="15.88162">
        <ele>226.659459</ele>
        <time>2026-07-09T12:50:18.000Z</time>
      </trkpt>
      <trkpt lat="46.72872" lon="15.88154">
        <ele>226.696861</ele>
        <time>2026-07-09T12:50:19.000Z</time>
      </trkpt>
      <trkpt lat="46.72875" lon="15.88139">
        <ele>226.764678</ele>
        <time>2026-07-09T12:50:21.000Z</time>
      </trkpt>
      <trkpt lat="46.72877" lon="15.88127">
        <ele>226.823093</ele>
        <time>2026-07-09T12:50:23.000Z</time>
      </trkpt>
      <trkpt lat="46.72872" lon="15.88117">
        <ele>226.878337</ele>
        <time>2026-07-09T12:50:25.000Z</time>
      </trkpt>
      <trkpt lat="46.72868" lon="15.88115">
        <ele>226.907396</ele>
        <time>2026-07-09T12:50:26.000Z</time>
      </trkpt>
      <trkpt lat="46.72863" lon="15.88115">
        <ele>226.940833</ele>
        <time>2026-07-09T12:50:27.000Z</time>
      </trkpt>
      <trkpt lat="46.72853" lon="15.88116">
        <ele>226.93759</ele>
        <time>2026-07-09T12:50:29.000Z</time>
      </trkpt>
      <trkpt lat="46.72848" lon="15.88115">
        <ele>226.904207</ele>
        <time>2026-07-09T12:50:30.000Z</time>
      </trkpt>
      <trkpt lat="46.72843" lon="15.88112">
        <ele>226.870445</ele>
        <time>2026-07-09T12:50:31.000Z</time>
      </trkpt>
      <trkpt lat="46.72835" lon="15.881">
        <ele>226.789043</ele>
        <time>2026-07-09T12:50:33.000Z</time>
      </trkpt>
      <trkpt lat="46.72828" lon="15.88085">
        <ele>226.702705</ele>
        <time>2026-07-09T12:50:35.000Z</time>
      </trkpt>
      <trkpt lat="46.72823" lon="15.88068">
        <ele>226.615088</ele>
        <time>2026-07-09T12:50:37.000Z</time>
      </trkpt>
      <trkpt lat="46.72802" lon="15.88">
        <ele>226.264415</ele>
        <time>2026-07-09T12:50:45.000Z</time>
      </trkpt>
      <trkpt lat="46.72799" lon="15.87976">
        <ele>226.144953</ele>
        <time>2026-07-09T12:50:48.000Z</time>
      </trkpt>
      <trkpt lat="46.72798" lon="15.87957">
        <ele>226.057196</ele>
        <time>2026-07-09T12:50:50.000Z</time>
      </trkpt>
      <trkpt lat="46.7279" lon="15.87913">
        <ele>225.842155</ele>
        <time>2026-07-09T12:50:55.000Z</time>
      </trkpt>
      <trkpt lat="46.72773" lon="15.87854">
        <ele>226.369095</ele>
        <time>2026-07-09T12:51:02.000Z</time>
      </trkpt>
      <trkpt lat="46.72764" lon="15.87829">
        <ele>226.806087</ele>
        <time>2026-07-09T12:51:05.000Z</time>
      </trkpt>
      <trkpt lat="46.72755" lon="15.87814">
        <ele>227.11517</ele>
        <time>2026-07-09T12:51:07.000Z</time>
      </trkpt>
      <trkpt lat="46.72736" lon="15.8778">
        <ele>227.795435</ele>
        <time>2026-07-09T12:51:12.000Z</time>
      </trkpt>
      <trkpt lat="46.72733" lon="15.87773">
        <ele>227.929205</ele>
        <time>2026-07-09T12:51:13.000Z</time>
      </trkpt>
      <trkpt lat="46.72731" lon="15.87765">
        <ele>228.063114</ele>
        <time>2026-07-09T12:51:14.000Z</time>
      </trkpt>
      <trkpt lat="46.72726" lon="15.87741">
        <ele>228.449617</ele>
        <time>2026-07-09T12:51:17.000Z</time>
      </trkpt>
      <trkpt lat="46.72723" lon="15.87735">
        <ele>228.560842</ele>
        <time>2026-07-09T12:51:18.000Z</time>
      </trkpt>
      <trkpt lat="46.72721" lon="15.87729">
        <ele>228.663363</ele>
        <time>2026-07-09T12:51:19.000Z</time>
      </trkpt>
      <trkpt lat="46.72715" lon="15.87715">
        <ele>228.919762</ele>
        <time>2026-07-09T12:51:22.000Z</time>
      </trkpt>
      <trkpt lat="46.72715" lon="15.87704">
        <ele>229.100096</ele>
        <time>2026-07-09T12:51:25.000Z</time>
      </trkpt>
      <trkpt lat="46.7272" lon="15.87697">
        <ele>229.262486</ele>
        <time>2026-07-09T12:51:26.000Z</time>
      </trkpt>
      <trkpt lat="46.72736" lon="15.87679">
        <ele>229.719696</ele>
        <time>2026-07-09T12:51:31.000Z</time>
      </trkpt>
      <trkpt lat="46.72742" lon="15.87664">
        <ele>229.764606</ele>
        <time>2026-07-09T12:51:33.000Z</time>
      </trkpt>
      <trkpt lat="46.72745" lon="15.87647">
        <ele>229.696846</ele>
        <time>2026-07-09T12:51:35.000Z</time>
      </trkpt>
      <trkpt lat="46.72742" lon="15.8759">
        <ele>229.477231</ele>
        <time>2026-07-09T12:51:41.000Z</time>
      </trkpt>
      <trkpt lat="46.72738" lon="15.87534">
        <ele>229.263234</ele>
        <time>2026-07-09T12:51:47.000Z</time>
      </trkpt>
      <trkpt lat="46.72728" lon="15.87472">
        <ele>229.020143</ele>
        <time>2026-07-09T12:51:54.000Z</time>
      </trkpt>
      <trkpt lat="46.72724" lon="15.87456">
        <ele>228.952822</ele>
        <time>2026-07-09T12:51:56.000Z</time>
      </trkpt>
      <trkpt lat="46.72719" lon="15.8744">
        <ele>228.885866</ele>
        <time>2026-07-09T12:51:58.000Z</time>
      </trkpt>
      <trkpt lat="46.72698" lon="15.87394">
        <ele>228.853508</ele>
        <time>2026-07-09T12:52:04.000Z</time>
      </trkpt>
      <trkpt lat="46.7269" lon="15.87373">
        <ele>228.889914</ele>
        <time>2026-07-09T12:52:07.000Z</time>
      </trkpt>
      <trkpt lat="46.72686" lon="15.87356">
        <ele>228.916533</ele>
        <time>2026-07-09T12:52:09.000Z</time>
      </trkpt>
      <trkpt lat="46.72676" lon="15.87304">
        <ele>228.995313</ele>
        <time>2026-07-09T12:52:15.000Z</time>
      </trkpt>
      <trkpt lat="46.72674" lon="15.87295">
        <ele>229.008284</ele>
        <time>2026-07-09T12:52:16.000Z</time>
      </trkpt>
      <trkpt lat="46.72674" lon="15.87287">
        <ele>229.020726</ele>
        <time>2026-07-09T12:52:17.000Z</time>
      </trkpt>
      <trkpt lat="46.72678" lon="15.8727">
        <ele>229.045734</ele>
        <time>2026-07-09T12:52:19.000Z</time>
      </trkpt>
      <trkpt lat="46.72684" lon="15.87256">
        <ele>229.071057</ele>
        <time>2026-07-09T12:52:21.000Z</time>
      </trkpt>
      <trkpt lat="46.72692" lon="15.87243">
        <ele>229.096643</ele>
        <time>2026-07-09T12:52:23.000Z</time>
      </trkpt>
      <trkpt lat="46.72695" lon="15.87235">
        <ele>229.109844</ele>
        <time>2026-07-09T12:52:24.000Z</time>
      </trkpt>
      <trkpt lat="46.72699" lon="15.87218">
        <ele>229.13553</ele>
        <time>2026-07-09T12:52:26.000Z</time>
      </trkpt>
      <trkpt lat="46.72698" lon="15.87209">
        <ele>229.148834</ele>
        <time>2026-07-09T12:52:27.000Z</time>
      </trkpt>
      <trkpt lat="46.72698" lon="15.872">
        <ele>229.162562</ele>
        <time>2026-07-09T12:52:28.000Z</time>
      </trkpt>
      <trkpt lat="46.72692" lon="15.87173">
        <ele>229.23154</ele>
        <time>2026-07-09T12:52:31.000Z</time>
      </trkpt>
      <trkpt lat="46.72682" lon="15.87121">
        <ele>229.462097</ele>
        <time>2026-07-09T12:52:37.000Z</time>
      </trkpt>
      <trkpt lat="46.72681" lon="15.87112">
        <ele>229.500027</ele>
        <time>2026-07-09T12:52:38.000Z</time>
      </trkpt>
      <trkpt lat="46.72682" lon="15.87058">
        <ele>229.728207</ele>
        <time>2026-07-09T12:52:44.000Z</time>
      </trkpt>
      <trkpt lat="46.72675" lon="15.87005">
        <ele>229.95859</ele>
        <time>2026-07-09T12:52:50.000Z</time>
      </trkpt>
      <trkpt lat="46.72663" lon="15.86954">
        <ele>230.184256</ele>
        <time>2026-07-09T12:52:56.000Z</time>
      </trkpt>
      <trkpt lat="46.7266" lon="15.86929">
        <ele>230.29497</ele>
        <time>2026-07-09T12:52:59.000Z</time>
      </trkpt>
      <trkpt lat="46.7266" lon="15.86911">
        <ele>230.381799</ele>
        <time>2026-07-09T12:53:01.000Z</time>
      </trkpt>
      <trkpt lat="46.7266" lon="15.86903">
        <ele>230.425855</ele>
        <time>2026-07-09T12:53:02.000Z</time>
      </trkpt>
      <trkpt lat="46.72657" lon="15.86846">
        <ele>230.713981</ele>
        <time>2026-07-09T12:53:09.000Z</time>
      </trkpt>
      <trkpt lat="46.72652" lon="15.86791">
        <ele>230.9944</ele>
        <time>2026-07-09T12:53:16.000Z</time>
      </trkpt>
      <trkpt lat="46.72652" lon="15.86782">
        <ele>231.038869</ele>
        <time>2026-07-09T12:53:17.000Z</time>
      </trkpt>
      <trkpt lat="46.7265" lon="15.86722">
        <ele>231.343892</ele>
        <time>2026-07-09T12:53:24.000Z</time>
      </trkpt>
      <trkpt lat="46.72648" lon="15.86667">
        <ele>231.620879</ele>
        <time>2026-07-09T12:53:31.000Z</time>
      </trkpt>
      <trkpt lat="46.72646" lon="15.86641">
        <ele>231.761605</ele>
        <time>2026-07-09T12:53:35.000Z</time>
      </trkpt>
      <trkpt lat="46.72647" lon="15.86628">
        <ele>231.834355</ele>
        <time>2026-07-09T12:53:37.000Z</time>
      </trkpt>
      <trkpt lat="46.72651" lon="15.86574">
        <ele>232.135814</ele>
        <time>2026-07-09T12:53:45.000Z</time>
      </trkpt>
      <trkpt lat="46.72649" lon="15.8656">
        <ele>232.214351</ele>
        <time>2026-07-09T12:53:47.000Z</time>
      </trkpt>
      <trkpt lat="46.72644" lon="15.86548">
        <ele>232.288364</ele>
        <time>2026-07-09T12:53:49.000Z</time>
      </trkpt>
      <trkpt lat="46.72636" lon="15.86532">
        <ele>232.396395</ele>
        <time>2026-07-09T12:53:52.000Z</time>
      </trkpt>
      <trkpt lat="46.72626" lon="15.86517">
        <ele>232.510537</ele>
        <time>2026-07-09T12:53:55.000Z</time>
      </trkpt>
      <trkpt lat="46.72622" lon="15.86504">
        <ele>232.590826</ele>
        <time>2026-07-09T12:53:57.000Z</time>
      </trkpt>
      <trkpt lat="46.72618" lon="15.86484">
        <ele>232.703553</ele>
        <time>2026-07-09T12:54:00.000Z</time>
      </trkpt>
      <trkpt lat="46.72614" lon="15.86461">
        <ele>232.833937</ele>
        <time>2026-07-09T12:54:03.000Z</time>
      </trkpt>
      <trkpt lat="46.72611" lon="15.86455">
        <ele>232.878438</ele>
        <time>2026-07-09T12:54:04.000Z</time>
      </trkpt>
      <trkpt lat="46.72601" lon="15.86436">
        <ele>233.009948</ele>
        <time>2026-07-09T12:54:07.000Z</time>
      </trkpt>
      <trkpt lat="46.72596" lon="15.8642">
        <ele>233.022684</ele>
        <time>2026-07-09T12:54:09.000Z</time>
      </trkpt>
      <trkpt lat="46.72589" lon="15.86387">
        <ele>232.710567</ele>
        <time>2026-07-09T12:54:13.000Z</time>
      </trkpt>
      <trkpt lat="46.72582" lon="15.86371">
        <ele>232.541073</ele>
        <time>2026-07-09T12:54:15.000Z</time>
      </trkpt>
      <trkpt lat="46.72569" lon="15.8634">
        <ele>232.223141</ele>
        <time>2026-07-09T12:54:19.000Z</time>
      </trkpt>
      <trkpt lat="46.72563" lon="15.86325">
        <ele>232.071445</ele>
        <time>2026-07-09T12:54:21.000Z</time>
      </trkpt>
      <trkpt lat="46.72557" lon="15.86301">
        <ele>231.843531</ele>
        <time>2026-07-09T12:54:24.000Z</time>
      </trkpt>
      <trkpt lat="46.72556" lon="15.86283">
        <ele>231.682621</ele>
        <time>2026-07-09T12:54:26.000Z</time>
      </trkpt>
      <trkpt lat="46.72554" lon="15.86234">
        <ele>231.245487</ele>
        <time>2026-07-09T12:54:32.000Z</time>
      </trkpt>
      <trkpt lat="46.72554" lon="15.86226">
        <ele>231.16952</ele>
        <time>2026-07-09T12:54:33.000Z</time>
      </trkpt>
      <trkpt lat="46.72552" lon="15.86162">
        <ele>230.683634</ele>
        <time>2026-07-09T12:54:40.000Z</time>
      </trkpt>
      <trkpt lat="46.72551" lon="15.86154">
        <ele>230.651193</ele>
        <time>2026-07-09T12:54:41.000Z</time>
      </trkpt>
      <trkpt lat="46.72548" lon="15.86119">
        <ele>230.517898</ele>
        <time>2026-07-09T12:54:45.000Z</time>
      </trkpt>
      <trkpt lat="46.72546" lon="15.86082">
        <ele>230.380163</ele>
        <time>2026-07-09T12:54:49.000Z</time>
      </trkpt>
      <trkpt lat="46.72547" lon="15.86055">
        <ele>230.278577</ele>
        <time>2026-07-09T12:54:52.000Z</time>
      </trkpt>
      <trkpt lat="46.72553" lon="15.85993">
        <ele>230.041481</ele>
        <time>2026-07-09T12:54:59.000Z</time>
      </trkpt>
      <trkpt lat="46.72554" lon="15.85984">
        <ele>230.006623</ele>
        <time>2026-07-09T12:55:00.000Z</time>
      </trkpt>
      <trkpt lat="46.72557" lon="15.85958">
        <ele>229.909538</ele>
        <time>2026-07-09T12:55:03.000Z</time>
      </trkpt>
      <trkpt lat="46.72562" lon="15.85934">
        <ele>229.814259</ele>
        <time>2026-07-09T12:55:06.000Z</time>
      </trkpt>
      <trkpt lat="46.72564" lon="15.85926">
        <ele>229.781836</ele>
        <time>2026-07-09T12:55:07.000Z</time>
      </trkpt>
      <trkpt lat="46.72582" lon="15.8586">
        <ele>229.868588</ele>
        <time>2026-07-09T12:55:14.000Z</time>
      </trkpt>
      <trkpt lat="46.72598" lon="15.85808">
        <ele>229.972341</ele>
        <time>2026-07-09T12:55:20.000Z</time>
      </trkpt>
      <trkpt lat="46.72614" lon="15.85751">
        <ele>230.085072</ele>
        <time>2026-07-09T12:55:27.000Z</time>
      </trkpt>
      <trkpt lat="46.72617" lon="15.85743">
        <ele>230.100376</ele>
        <time>2026-07-09T12:55:28.000Z</time>
      </trkpt>
      <trkpt lat="46.72624" lon="15.85729">
        <ele>230.132517</ele>
        <time>2026-07-09T12:55:30.000Z</time>
      </trkpt>
      <trkpt lat="46.72626" lon="15.85721">
        <ele>230.148995</ele>
        <time>2026-07-09T12:55:31.000Z</time>
      </trkpt>
      <trkpt lat="46.72644" lon="15.85674">
        <ele>230.318098</ele>
        <time>2026-07-09T12:55:37.000Z</time>
      </trkpt>
      <trkpt lat="46.72656" lon="15.85647">
        <ele>230.657019</ele>
        <time>2026-07-09T12:55:41.000Z</time>
      </trkpt>
      <trkpt lat="46.72659" lon="15.85641">
        <ele>230.739923</ele>
        <time>2026-07-09T12:55:42.000Z</time>
      </trkpt>
      <trkpt lat="46.72663" lon="15.85635">
        <ele>230.827366</ele>
        <time>2026-07-09T12:55:43.000Z</time>
      </trkpt>
      <trkpt lat="46.72675" lon="15.85615">
        <ele>231.111157</ele>
        <time>2026-07-09T12:55:46.000Z</time>
      </trkpt>
      <trkpt lat="46.72692" lon="15.85588">
        <ele>231.505514</ele>
        <time>2026-07-09T12:55:50.000Z</time>
      </trkpt>
      <trkpt lat="46.72704" lon="15.85566">
        <ele>231.797415</ele>
        <time>2026-07-09T12:55:53.000Z</time>
      </trkpt>
      <trkpt lat="46.72712" lon="15.85554">
        <ele>231.983758</ele>
        <time>2026-07-09T12:55:55.000Z</time>
      </trkpt>
      <trkpt lat="46.72728" lon="15.85531">
        <ele>232.329641</ele>
        <time>2026-07-09T12:55:59.000Z</time>
      </trkpt>
      <trkpt lat="46.72738" lon="15.85519">
        <ele>232.534116</ele>
        <time>2026-07-09T12:56:01.000Z</time>
      </trkpt>
      <trkpt lat="46.72747" lon="15.85506">
        <ele>232.730642</ele>
        <time>2026-07-09T12:56:03.000Z</time>
      </trkpt>
      <trkpt lat="46.72764" lon="15.85478">
        <ele>233.105571</ele>
        <time>2026-07-09T12:56:07.000Z</time>
      </trkpt>
      <trkpt lat="46.72795" lon="15.85422">
        <ele>233.689613</ele>
        <time>2026-07-09T12:56:15.000Z</time>
      </trkpt>
      <trkpt lat="46.72816" lon="15.85369">
        <ele>234.178865</ele>
        <time>2026-07-09T12:56:22.000Z</time>
      </trkpt>
      <trkpt lat="46.72823" lon="15.85355">
        <ele>234.319109</ele>
        <time>2026-07-09T12:56:24.000Z</time>
      </trkpt>
      <trkpt lat="46.72831" lon="15.85336">
        <ele>234.505409</ele>
        <time>2026-07-09T12:56:27.000Z</time>
      </trkpt>
      <trkpt lat="46.72845" lon="15.85315">
        <ele>234.738593</ele>
        <time>2026-07-09T12:56:31.000Z</time>
      </trkpt>
      <trkpt lat="46.72846" lon="15.85308">
        <ele>234.795138</ele>
        <time>2026-07-09T12:56:32.000Z</time>
      </trkpt>
      <trkpt lat="46.72844" lon="15.85302">
        <ele>234.850687</ele>
        <time>2026-07-09T12:56:33.000Z</time>
      </trkpt>
      <trkpt lat="46.7284" lon="15.85296">
        <ele>234.91422</ele>
        <time>2026-07-09T12:56:34.000Z</time>
      </trkpt>
      <trkpt lat="46.72836" lon="15.85291">
        <ele>234.982504</ele>
        <time>2026-07-09T12:56:35.000Z</time>
      </trkpt>
      <trkpt lat="46.72822" lon="15.85277">
        <ele>235.088125</ele>
        <time>2026-07-09T12:56:38.000Z</time>
      </trkpt>
      <trkpt lat="46.72783" lon="15.85242">
        <ele>233.896837</ele>
        <time>2026-07-09T12:56:45.000Z</time>
      </trkpt>
      <trkpt lat="46.72779" lon="15.85236">
        <ele>233.752489</ele>
        <time>2026-07-09T12:56:47.000Z</time>
      </trkpt>
      <trkpt lat="46.72776" lon="15.85223">
        <ele>233.490499</ele>
        <time>2026-07-09T12:56:49.000Z</time>
      </trkpt>
      <trkpt lat="46.72775" lon="15.85215">
        <ele>233.357559</ele>
        <time>2026-07-09T12:56:50.000Z</time>
      </trkpt>
      <trkpt lat="46.72775" lon="15.85192">
        <ele>232.948907</ele>
        <time>2026-07-09T12:56:53.000Z</time>
      </trkpt>
      <trkpt lat="46.72776" lon="15.85176">
        <ele>232.65555</ele>
        <time>2026-07-09T12:56:55.000Z</time>
      </trkpt>
      <trkpt lat="46.72778" lon="15.85168">
        <ele>232.509622</ele>
        <time>2026-07-09T12:56:56.000Z</time>
      </trkpt>
      <trkpt lat="46.7278" lon="15.85161">
        <ele>232.36451</ele>
        <time>2026-07-09T12:56:57.000Z</time>
      </trkpt>
      <trkpt lat="46.7279" lon="15.85139">
        <ele>231.888387</ele>
        <time>2026-07-09T12:57:00.000Z</time>
      </trkpt>
      <trkpt lat="46.72796" lon="15.85125">
        <ele>231.605566</ele>
        <time>2026-07-09T12:57:02.000Z</time>
      </trkpt>
      <trkpt lat="46.72801" lon="15.8511">
        <ele>231.301787</ele>
        <time>2026-07-09T12:57:04.000Z</time>
      </trkpt>
      <trkpt lat="46.72818" lon="15.85064">
        <ele>230.47389</ele>
        <time>2026-07-09T12:57:10.000Z</time>
      </trkpt>
      <trkpt lat="46.7282" lon="15.85029">
        <ele>230.632603</ele>
        <time>2026-07-09T12:57:14.000Z</time>
      </trkpt>
      <trkpt lat="46.72812" lon="15.84995">
        <ele>230.790424</ele>
        <time>2026-07-09T12:57:18.000Z</time>
      </trkpt>
      <trkpt lat="46.72808" lon="15.84988">
        <ele>230.832861</ele>
        <time>2026-07-09T12:57:19.000Z</time>
      </trkpt>
      <trkpt lat="46.72803" lon="15.84981">
        <ele>230.877995</ele>
        <time>2026-07-09T12:57:20.000Z</time>
      </trkpt>
      <trkpt lat="46.72792" lon="15.84972">
        <ele>230.962495</ele>
        <time>2026-07-09T12:57:22.000Z</time>
      </trkpt>
      <trkpt lat="46.72786" lon="15.84969">
        <ele>231.002944</ele>
        <time>2026-07-09T12:57:23.000Z</time>
      </trkpt>
      <trkpt lat="46.72763" lon="15.84958">
        <ele>231.158748</ele>
        <time>2026-07-09T12:57:27.000Z</time>
      </trkpt>
      <trkpt lat="46.72755" lon="15.84949">
        <ele>231.22914</ele>
        <time>2026-07-09T12:57:29.000Z</time>
      </trkpt>
      <trkpt lat="46.72743" lon="15.84929">
        <ele>231.346541</ele>
        <time>2026-07-09T12:57:32.000Z</time>
      </trkpt>
      <trkpt lat="46.72736" lon="15.84914">
        <ele>231.429104</ele>
        <time>2026-07-09T12:57:34.000Z</time>
      </trkpt>
      <trkpt lat="46.72714" lon="15.8487">
        <ele>231.790933</ele>
        <time>2026-07-09T12:57:40.000Z</time>
      </trkpt>
      <trkpt lat="46.7271" lon="15.84865">
        <ele>231.943071</ele>
        <time>2026-07-09T12:57:41.000Z</time>
      </trkpt>
      <trkpt lat="46.72699" lon="15.84856">
        <ele>232.240452</ele>
        <time>2026-07-09T12:57:43.000Z</time>
      </trkpt>
      <trkpt lat="46.72689" lon="15.84855">
        <ele>232.507641</ele>
        <time>2026-07-09T12:57:45.000Z</time>
      </trkpt>
      <trkpt lat="46.72651" lon="15.84868">
        <ele>233.494861</ele>
        <time>2026-07-09T12:57:52.000Z</time>
      </trkpt>
      <trkpt lat="46.72615" lon="15.8488">
        <ele>234.426235</ele>
        <time>2026-07-09T12:57:59.000Z</time>
      </trkpt>
      <trkpt lat="46.72576" lon="15.84883">
        <ele>235.400715</ele>
        <time>2026-07-09T12:58:06.000Z</time>
      </trkpt>
      <trkpt lat="46.72571" lon="15.84881">
        <ele>235.53786</ele>
        <time>2026-07-09T12:58:07.000Z</time>
      </trkpt>
      <trkpt lat="46.72566" lon="15.84879">
        <ele>235.680318</ele>
        <time>2026-07-09T12:58:08.000Z</time>
      </trkpt>
      <trkpt lat="46.72553" lon="15.84865">
        <ele>236.081549</ele>
        <time>2026-07-09T12:58:11.000Z</time>
      </trkpt>
      <trkpt lat="46.72523" lon="15.84838">
        <ele>236.527405</ele>
        <time>2026-07-09T12:58:17.000Z</time>
      </trkpt>
      <trkpt lat="46.72507" lon="15.84826">
        <ele>236.732695</ele>
        <time>2026-07-09T12:58:20.000Z</time>
      </trkpt>
      <trkpt lat="46.72495" lon="15.8482">
        <ele>236.870965</ele>
        <time>2026-07-09T12:58:22.000Z</time>
      </trkpt>
      <trkpt lat="46.72472" lon="15.84812">
        <ele>237.147812</ele>
        <time>2026-07-09T12:58:26.000Z</time>
      </trkpt>
      <trkpt lat="46.72461" lon="15.84806">
        <ele>237.271979</ele>
        <time>2026-07-09T12:58:28.000Z</time>
      </trkpt>
      <trkpt lat="46.72454" lon="15.84795">
        <ele>237.387035</ele>
        <time>2026-07-09T12:58:30.000Z</time>
      </trkpt>
      <trkpt lat="46.72447" lon="15.84781">
        <ele>237.523263</ele>
        <time>2026-07-09T12:58:32.000Z</time>
      </trkpt>
      <trkpt lat="46.72431" lon="15.84747">
        <ele>237.842872</ele>
        <time>2026-07-09T12:58:37.000Z</time>
      </trkpt>
      <trkpt lat="46.72428" lon="15.8474">
        <ele>237.90854</ele>
        <time>2026-07-09T12:58:38.000Z</time>
      </trkpt>
      <trkpt lat="46.72425" lon="15.84732">
        <ele>237.975661</ele>
        <time>2026-07-09T12:58:39.000Z</time>
      </trkpt>
      <trkpt lat="46.7242" lon="15.84717">
        <ele>238.10868</ele>
        <time>2026-07-09T12:58:41.000Z</time>
      </trkpt>
      <trkpt lat="46.72418" lon="15.84708">
        <ele>238.175029</ele>
        <time>2026-07-09T12:58:42.000Z</time>
      </trkpt>
      <trkpt lat="46.72416" lon="15.84692">
        <ele>237.967226</ele>
        <time>2026-07-09T12:58:44.000Z</time>
      </trkpt>
      <trkpt lat="46.72416" lon="15.84676">
        <ele>237.671272</ele>
        <time>2026-07-09T12:58:46.000Z</time>
      </trkpt>
      <trkpt lat="46.72417" lon="15.84658">
        <ele>237.349868</ele>
        <time>2026-07-09T12:58:48.000Z</time>
      </trkpt>
      <trkpt lat="46.72429" lon="15.84597">
        <ele>236.187685</ele>
        <time>2026-07-09T12:58:55.000Z</time>
      </trkpt>
      <trkpt lat="46.72435" lon="15.84546">
        <ele>235.249054</ele>
        <time>2026-07-09T12:59:01.000Z</time>
      </trkpt>
      <trkpt lat="46.72435" lon="15.84538">
        <ele>235.095244</ele>
        <time>2026-07-09T12:59:02.000Z</time>
      </trkpt>
      <trkpt lat="46.72432" lon="15.8453">
        <ele>234.936992</ele>
        <time>2026-07-09T12:59:03.000Z</time>
      </trkpt>
      <trkpt lat="46.72426" lon="15.84516">
        <ele>234.63438</ele>
        <time>2026-07-09T12:59:05.000Z</time>
      </trkpt>
      <trkpt lat="46.7242" lon="15.84502">
        <ele>234.332846</ele>
        <time>2026-07-09T12:59:07.000Z</time>
      </trkpt>
      <trkpt lat="46.72417" lon="15.84487">
        <ele>234.048795</ele>
        <time>2026-07-09T12:59:09.000Z</time>
      </trkpt>
      <trkpt lat="46.72418" lon="15.84448">
        <ele>233.385698</ele>
        <time>2026-07-09T12:59:14.000Z</time>
      </trkpt>
      <trkpt lat="46.72421" lon="15.84423">
        <ele>233.212873</ele>
        <time>2026-07-09T12:59:17.000Z</time>
      </trkpt>
      <trkpt lat="46.72422" lon="15.84399">
        <ele>233.04423</ele>
        <time>2026-07-09T12:59:20.000Z</time>
      </trkpt>
      <trkpt lat="46.72419" lon="15.84384">
        <ele>232.931406</ele>
        <time>2026-07-09T12:59:22.000Z</time>
      </trkpt>
      <trkpt lat="46.72416" lon="15.84368">
        <ele>232.813835</ele>
        <time>2026-07-09T12:59:24.000Z</time>
      </trkpt>
      <trkpt lat="46.72415" lon="15.8436">
        <ele>232.761203</ele>
        <time>2026-07-09T12:59:25.000Z</time>
      </trkpt>
      <trkpt lat="46.72412" lon="15.84337">
        <ele>232.594794</ele>
        <time>2026-07-09T12:59:28.000Z</time>
      </trkpt>
      <trkpt lat="46.72413" lon="15.84328">
        <ele>232.532768</ele>
        <time>2026-07-09T12:59:29.000Z</time>
      </trkpt>
      <trkpt lat="46.72414" lon="15.8432">
        <ele>232.472318</ele>
        <time>2026-07-09T12:59:30.000Z</time>
      </trkpt>
      <trkpt lat="46.7242" lon="15.84305">
        <ele>232.349327</ele>
        <time>2026-07-09T12:59:32.000Z</time>
      </trkpt>
      <trkpt lat="46.72425" lon="15.84298">
        <ele>232.280629</ele>
        <time>2026-07-09T12:59:33.000Z</time>
      </trkpt>
      <trkpt lat="46.72428" lon="15.84293">
        <ele>232.234719</ele>
        <time>2026-07-09T12:59:34.000Z</time>
      </trkpt>
      <trkpt lat="46.72444" lon="15.84282">
        <ele>232.057776</ele>
        <time>2026-07-09T12:59:37.000Z</time>
      </trkpt>
      <trkpt lat="46.72459" lon="15.84272">
        <ele>231.880777</ele>
        <time>2026-07-09T12:59:40.000Z</time>
      </trkpt>
      <trkpt lat="46.72471" lon="15.84261">
        <ele>231.741272</ele>
        <time>2026-07-09T12:59:42.000Z</time>
      </trkpt>
      <trkpt lat="46.72475" lon="15.84244">
        <ele>231.616573</ele>
        <time>2026-07-09T12:59:44.000Z</time>
      </trkpt>
      <trkpt lat="46.72475" lon="15.84235">
        <ele>231.620474</ele>
        <time>2026-07-09T12:59:45.000Z</time>
      </trkpt>
      <trkpt lat="46.72475" lon="15.84227">
        <ele>231.735269</ele>
        <time>2026-07-09T12:59:46.000Z</time>
      </trkpt>
      <trkpt lat="46.72471" lon="15.84202">
        <ele>232.068971</ele>
        <time>2026-07-09T12:59:49.000Z</time>
      </trkpt>
      <trkpt lat="46.7247" lon="15.84186">
        <ele>232.288582</ele>
        <time>2026-07-09T12:59:51.000Z</time>
      </trkpt>
      <trkpt lat="46.72474" lon="15.84174">
        <ele>232.469886</ele>
        <time>2026-07-09T12:59:53.000Z</time>
      </trkpt>
      <trkpt lat="46.72488" lon="15.84165">
        <ele>232.758517</ele>
        <time>2026-07-09T12:59:56.000Z</time>
      </trkpt>
      <trkpt lat="46.72492" lon="15.84162">
        <ele>232.8602</ele>
        <time>2026-07-09T12:59:57.000Z</time>
      </trkpt>
      <trkpt lat="46.72513" lon="15.8415">
        <ele>233.290024</ele>
        <time>2026-07-09T13:00:01.000Z</time>
      </trkpt>
      <trkpt lat="46.72524" lon="15.84145">
        <ele>233.516234</ele>
        <time>2026-07-09T13:00:03.000Z</time>
      </trkpt>
      <trkpt lat="46.72535" lon="15.84136">
        <ele>233.770214</ele>
        <time>2026-07-09T13:00:05.000Z</time>
      </trkpt>
      <trkpt lat="46.72544" lon="15.84124">
        <ele>233.992175</ele>
        <time>2026-07-09T13:00:07.000Z</time>
      </trkpt>
      <trkpt lat="46.72546" lon="15.84117">
        <ele>234.098717</ele>
        <time>2026-07-09T13:00:08.000Z</time>
      </trkpt>
      <trkpt lat="46.72548" lon="15.841">
        <ele>234.334376</ele>
        <time>2026-07-09T13:00:10.000Z</time>
      </trkpt>
      <trkpt lat="46.72547" lon="15.84091">
        <ele>234.453139</ele>
        <time>2026-07-09T13:00:11.000Z</time>
      </trkpt>
      <trkpt lat="46.72542" lon="15.8407">
        <ele>234.748245</ele>
        <time>2026-07-09T13:00:13.000Z</time>
      </trkpt>
      <trkpt lat="46.72536" lon="15.84054">
        <ele>234.99171</ele>
        <time>2026-07-09T13:00:15.000Z</time>
      </trkpt>
      <trkpt lat="46.72531" lon="15.84046">
        <ele>235.066712</ele>
        <time>2026-07-09T13:00:16.000Z</time>
      </trkpt>
      <trkpt lat="46.7253" lon="15.84021">
        <ele>234.996514</ele>
        <time>2026-07-09T13:00:19.000Z</time>
      </trkpt>
      <trkpt lat="46.72535" lon="15.84009">
        <ele>234.955293</ele>
        <time>2026-07-09T13:00:21.000Z</time>
      </trkpt>
      <trkpt lat="46.72539" lon="15.84004">
        <ele>234.935623</ele>
        <time>2026-07-09T13:00:22.000Z</time>
      </trkpt>
      <trkpt lat="46.72555" lon="15.83995">
        <ele>234.864083</ele>
        <time>2026-07-09T13:00:25.000Z</time>
      </trkpt>
      <trkpt lat="46.72573" lon="15.83985">
        <ele>234.786242</ele>
        <time>2026-07-09T13:00:28.000Z</time>
      </trkpt>
      <trkpt lat="46.72598" lon="15.83975">
        <ele>234.679518</ele>
        <time>2026-07-09T13:00:32.000Z</time>
      </trkpt>
      <trkpt lat="46.72609" lon="15.83972">
        <ele>234.636059</ele>
        <time>2026-07-09T13:00:34.000Z</time>
      </trkpt>
      <trkpt lat="46.72632" lon="15.83964">
        <ele>234.541373</ele>
        <time>2026-07-09T13:00:38.000Z</time>
      </trkpt>
      <trkpt lat="46.72639" lon="15.83956">
        <ele>234.503749</ele>
        <time>2026-07-09T13:00:40.000Z</time>
      </trkpt>
      <trkpt lat="46.72641" lon="15.83942">
        <ele>234.464383</ele>
        <time>2026-07-09T13:00:42.000Z</time>
      </trkpt>
      <trkpt lat="46.7264" lon="15.83934">
        <ele>234.442889</ele>
        <time>2026-07-09T13:00:43.000Z</time>
      </trkpt>
      <trkpt lat="46.72639" lon="15.83889">
        <ele>234.291899</ele>
        <time>2026-07-09T13:00:49.000Z</time>
      </trkpt>
      <trkpt lat="46.72638" lon="15.83882">
        <ele>234.259109</ele>
        <time>2026-07-09T13:00:50.000Z</time>
      </trkpt>
      <trkpt lat="46.72636" lon="15.83876">
        <ele>234.22686</ele>
        <time>2026-07-09T13:00:51.000Z</time>
      </trkpt>
      <trkpt lat="46.7263" lon="15.83867">
        <ele>234.16096</ele>
        <time>2026-07-09T13:00:53.000Z</time>
      </trkpt>
      <trkpt lat="46.7262" lon="15.83863">
        <ele>234.093031</ele>
        <time>2026-07-09T13:00:55.000Z</time>
      </trkpt>
      <trkpt lat="46.72615" lon="15.83863">
        <ele>234.050876</ele>
        <time>2026-07-09T13:00:56.000Z</time>
      </trkpt>
      <trkpt lat="46.72609" lon="15.83863">
        <ele>234.013672</ele>
        <time>2026-07-09T13:00:57.000Z</time>
      </trkpt>
      <trkpt lat="46.72592" lon="15.83868">
        <ele>233.884519</ele>
        <time>2026-07-09T13:01:00.000Z</time>
      </trkpt>
      <trkpt lat="46.72562" lon="15.83878">
        <ele>233.666268</ele>
        <time>2026-07-09T13:01:05.000Z</time>
      </trkpt>
      <trkpt lat="46.72551" lon="15.83881">
        <ele>233.588398</ele>
        <time>2026-07-09T13:01:07.000Z</time>
      </trkpt>
      <trkpt lat="46.72541" lon="15.83883">
        <ele>233.513021</ele>
        <time>2026-07-09T13:01:09.000Z</time>
      </trkpt>
      <trkpt lat="46.72532" lon="15.83883">
        <ele>233.450149</ele>
        <time>2026-07-09T13:01:11.000Z</time>
      </trkpt>
      <trkpt lat="46.72527" lon="15.83868">
        <ele>233.368774</ele>
        <time>2026-07-09T13:01:14.000Z</time>
      </trkpt>
      <trkpt lat="46.72524" lon="15.83839">
        <ele>233.226962</ele>
        <time>2026-07-09T13:01:18.000Z</time>
      </trkpt>
      <trkpt lat="46.72522" lon="15.83832">
        <ele>233.188189</ele>
        <time>2026-07-09T13:01:19.000Z</time>
      </trkpt>
      <trkpt lat="46.72509" lon="15.83814">
        <ele>233.062792</ele>
        <time>2026-07-09T13:01:22.000Z</time>
      </trkpt>
      <trkpt lat="46.72501" lon="15.83805">
        <ele>233.114846</ele>
        <time>2026-07-09T13:01:24.000Z</time>
      </trkpt>
      <trkpt lat="46.72491" lon="15.83794">
        <ele>233.181497</ele>
        <time>2026-07-09T13:01:26.000Z</time>
      </trkpt>
      <trkpt lat="46.72487" lon="15.83792">
        <ele>233.203182</ele>
        <time>2026-07-09T13:01:27.000Z</time>
      </trkpt>
      <trkpt lat="46.72481" lon="15.83789">
        <ele>233.238842</ele>
        <time>2026-07-09T13:01:28.000Z</time>
      </trkpt>
      <trkpt lat="46.72471" lon="15.83787">
        <ele>233.288577</ele>
        <time>2026-07-09T13:01:30.000Z</time>
      </trkpt>
      <trkpt lat="46.72458" lon="15.8378">
        <ele>233.364591</ele>
        <time>2026-07-09T13:01:32.000Z</time>
      </trkpt>
      <trkpt lat="46.72445" lon="15.83771">
        <ele>233.439516</ele>
        <time>2026-07-09T13:01:35.000Z</time>
      </trkpt>
      <trkpt lat="46.72438" lon="15.83764">
        <ele>233.485761</ele>
        <time>2026-07-09T13:01:37.000Z</time>
      </trkpt>
      <trkpt lat="46.72434" lon="15.83759">
        <ele>233.513654</ele>
        <time>2026-07-09T13:01:38.000Z</time>
      </trkpt>
      <trkpt lat="46.72422" lon="15.8374">
        <ele>233.607095</ele>
        <time>2026-07-09T13:01:41.000Z</time>
      </trkpt>
      <trkpt lat="46.72401" lon="15.83703">
        <ele>233.781671</ele>
        <time>2026-07-09T13:01:47.000Z</time>
      </trkpt>
      <trkpt lat="46.72392" lon="15.8369">
        <ele>233.843821</ele>
        <time>2026-07-09T13:01:49.000Z</time>
      </trkpt>
      <trkpt lat="46.72386" lon="15.83676">
        <ele>233.904984</ele>
        <time>2026-07-09T13:01:51.000Z</time>
      </trkpt>
      <trkpt lat="46.72385" lon="15.83667">
        <ele>233.937305</ele>
        <time>2026-07-09T13:01:52.000Z</time>
      </trkpt>
      <trkpt lat="46.72385" lon="15.83651">
        <ele>233.997305</ele>
        <time>2026-07-09T13:01:54.000Z</time>
      </trkpt>
      <trkpt lat="46.7239" lon="15.83626">
        <ele>233.97758</ele>
        <time>2026-07-09T13:01:57.000Z</time>
      </trkpt>
      <trkpt lat="46.7239" lon="15.83609">
        <ele>233.952906</ele>
        <time>2026-07-09T13:01:59.000Z</time>
      </trkpt>
      <trkpt lat="46.72392" lon="15.83586">
        <ele>233.919552</ele>
        <time>2026-07-09T13:02:02.000Z</time>
      </trkpt>
      <trkpt lat="46.72393" lon="15.83552">
        <ele>233.870903</ele>
        <time>2026-07-09T13:02:06.000Z</time>
      </trkpt>
      <trkpt lat="46.72391" lon="15.83536">
        <ele>233.847183</ele>
        <time>2026-07-09T13:02:08.000Z</time>
      </trkpt>
      <trkpt lat="46.72385" lon="15.83513">
        <ele>233.812881</ele>
        <time>2026-07-09T13:02:11.000Z</time>
      </trkpt>
      <trkpt lat="46.72382" lon="15.83488">
        <ele>233.77583</ele>
        <time>2026-07-09T13:02:14.000Z</time>
      </trkpt>
      <trkpt lat="46.7238" lon="15.8347">
        <ele>233.749845</ele>
        <time>2026-07-09T13:02:16.000Z</time>
      </trkpt>
      <trkpt lat="46.72382" lon="15.83452">
        <ele>233.723644</ele>
        <time>2026-07-09T13:02:18.000Z</time>
      </trkpt>
      <trkpt lat="46.72384" lon="15.83443">
        <ele>233.709849</ele>
        <time>2026-07-09T13:02:19.000Z</time>
      </trkpt>
      <trkpt lat="46.72384" lon="15.83425">
        <ele>233.684055</ele>
        <time>2026-07-09T13:02:21.000Z</time>
      </trkpt>
      <trkpt lat="46.72385" lon="15.83398">
        <ele>233.645729</ele>
        <time>2026-07-09T13:02:24.000Z</time>
      </trkpt>
      <trkpt lat="46.72386" lon="15.83389">
        <ele>233.632787</ele>
        <time>2026-07-09T13:02:25.000Z</time>
      </trkpt>
      <trkpt lat="46.72391" lon="15.83351">
        <ele>233.604776</ele>
        <time>2026-07-09T13:02:29.000Z</time>
      </trkpt>
      <trkpt lat="46.72397" lon="15.83304">
        <ele>233.570049</ele>
        <time>2026-07-09T13:02:34.000Z</time>
      </trkpt>
      <trkpt lat="46.72396" lon="15.83285">
        <ele>233.556948</ele>
        <time>2026-07-09T13:02:36.000Z</time>
      </trkpt>
      <trkpt lat="46.72391" lon="15.83258">
        <ele>233.53635</ele>
        <time>2026-07-09T13:02:39.000Z</time>
      </trkpt>
      <trkpt lat="46.72385" lon="15.83242">
        <ele>233.523571</ele>
        <time>2026-07-09T13:02:41.000Z</time>
      </trkpt>
      <trkpt lat="46.72378" lon="15.83228">
        <ele>233.511247</ele>
        <time>2026-07-09T13:02:43.000Z</time>
      </trkpt>
      <trkpt lat="46.7237" lon="15.83215">
        <ele>233.49848</ele>
        <time>2026-07-09T13:02:45.000Z</time>
      </trkpt>
      <trkpt lat="46.72355" lon="15.83196">
        <ele>233.478299</ele>
        <time>2026-07-09T13:02:48.000Z</time>
      </trkpt>
      <trkpt lat="46.7235" lon="15.83191">
        <ele>233.4717</ele>
        <time>2026-07-09T13:02:49.000Z</time>
      </trkpt>
      <trkpt lat="46.72334" lon="15.83176">
        <ele>233.450991</ele>
        <time>2026-07-09T13:02:52.000Z</time>
      </trkpt>
      <trkpt lat="46.72329" lon="15.83169">
        <ele>233.444633</ele>
        <time>2026-07-09T13:02:53.000Z</time>
      </trkpt>
      <trkpt lat="46.72325" lon="15.83162">
        <ele>233.444021</ele>
        <time>2026-07-09T13:02:54.000Z</time>
      </trkpt>
      <trkpt lat="46.72311" lon="15.83133">
        <ele>233.444193</ele>
        <time>2026-07-09T13:02:58.000Z</time>
      </trkpt>
      <trkpt lat="46.72308" lon="15.83125">
        <ele>233.444237</ele>
        <time>2026-07-09T13:02:59.000Z</time>
      </trkpt>
      <trkpt lat="46.72303" lon="15.83111">
        <ele>233.444314</ele>
        <time>2026-07-09T13:03:01.000Z</time>
      </trkpt>
      <trkpt lat="46.72292" lon="15.83087">
        <ele>233.444453</ele>
        <time>2026-07-09T13:03:04.000Z</time>
      </trkpt>
      <trkpt lat="46.7228" lon="15.83055">
        <ele>233.444624</ele>
        <time>2026-07-09T13:03:08.000Z</time>
      </trkpt>
      <trkpt lat="46.72276" lon="15.83039">
        <ele>233.444706</ele>
        <time>2026-07-09T13:03:10.000Z</time>
      </trkpt>
      <trkpt lat="46.7227" lon="15.83029">
        <ele>233.444771</ele>
        <time>2026-07-09T13:03:11.000Z</time>
      </trkpt>
      <trkpt lat="46.72257" lon="15.82998">
        <ele>233.444941</ele>
        <time>2026-07-09T13:03:15.000Z</time>
      </trkpt>
      <trkpt lat="46.72257" lon="15.8299">
        <ele>233.444981</ele>
        <time>2026-07-09T13:03:16.000Z</time>
      </trkpt>
      <trkpt lat="46.72259" lon="15.82981">
        <ele>233.445024</ele>
        <time>2026-07-09T13:03:17.000Z</time>
      </trkpt>
      <trkpt lat="46.72262" lon="15.82938">
        <ele>233.445229</ele>
        <time>2026-07-09T13:03:22.000Z</time>
      </trkpt>
      <trkpt lat="46.72264" lon="15.82923">
        <ele>233.423292</ele>
        <time>2026-07-09T13:03:24.000Z</time>
      </trkpt>
      <trkpt lat="46.72271" lon="15.82908">
        <ele>233.396814</ele>
        <time>2026-07-09T13:03:26.000Z</time>
      </trkpt>
      <trkpt lat="46.72273" lon="15.829">
        <ele>233.384269</ele>
        <time>2026-07-09T13:03:27.000Z</time>
      </trkpt>
      <trkpt lat="46.7228" lon="15.82868">
        <ele>233.332467</ele>
        <time>2026-07-09T13:03:31.000Z</time>
      </trkpt>
      <trkpt lat="46.72282" lon="15.82859">
        <ele>233.319142</ele>
        <time>2026-07-09T13:03:32.000Z</time>
      </trkpt>
      <trkpt lat="46.72292" lon="15.82809">
        <ele>233.240061</ele>
        <time>2026-07-09T13:03:38.000Z</time>
      </trkpt>
      <trkpt lat="46.723" lon="15.82785">
        <ele>233.199724</ele>
        <time>2026-07-09T13:03:41.000Z</time>
      </trkpt>
      <trkpt lat="46.72305" lon="15.82769">
        <ele>233.173098</ele>
        <time>2026-07-09T13:03:43.000Z</time>
      </trkpt>
      <trkpt lat="46.72316" lon="15.82737">
        <ele>233.120212</ele>
        <time>2026-07-09T13:03:47.000Z</time>
      </trkpt>
      <trkpt lat="46.72322" lon="15.82721">
        <ele>233.092578</ele>
        <time>2026-07-09T13:03:49.000Z</time>
      </trkpt>
      <trkpt lat="46.72332" lon="15.82691">
        <ele>233.12109</ele>
        <time>2026-07-09T13:03:53.000Z</time>
      </trkpt>
      <trkpt lat="46.72336" lon="15.82677">
        <ele>233.332639</ele>
        <time>2026-07-09T13:03:55.000Z</time>
      </trkpt>
      <trkpt lat="46.72344" lon="15.8265">
        <ele>233.719443</ele>
        <time>2026-07-09T13:03:59.000Z</time>
      </trkpt>
      <trkpt lat="46.72346" lon="15.82639">
        <ele>233.876771</ele>
        <time>2026-07-09T13:04:01.000Z</time>
      </trkpt>
      <trkpt lat="46.72348" lon="15.82634">
        <ele>233.953562</ele>
        <time>2026-07-09T13:04:02.000Z</time>
      </trkpt>
      <trkpt lat="46.72353" lon="15.82624">
        <ele>234.119273</ele>
        <time>2026-07-09T13:04:04.000Z</time>
      </trkpt>
      <trkpt lat="46.72356" lon="15.82617">
        <ele>234.223697</ele>
        <time>2026-07-09T13:04:05.000Z</time>
      </trkpt>
      <trkpt lat="46.72362" lon="15.82607">
        <ele>234.407378</ele>
        <time>2026-07-09T13:04:07.000Z</time>
      </trkpt>
      <trkpt lat="46.72365" lon="15.82593">
        <ele>234.601641</ele>
        <time>2026-07-09T13:04:09.000Z</time>
      </trkpt>
      <trkpt lat="46.72366" lon="15.82577">
        <ele>234.815128</ele>
        <time>2026-07-09T13:04:11.000Z</time>
      </trkpt>
      <trkpt lat="46.72363" lon="15.82561">
        <ele>235.035375</ele>
        <time>2026-07-09T13:04:13.000Z</time>
      </trkpt>
      <trkpt lat="46.72361" lon="15.82554">
        <ele>235.146011</ele>
        <time>2026-07-09T13:04:14.000Z</time>
      </trkpt>
      <trkpt lat="46.72356" lon="15.8254">
        <ele>235.356662</ele>
        <time>2026-07-09T13:04:16.000Z</time>
      </trkpt>
      <trkpt lat="46.72354" lon="15.82533">
        <ele>235.460333</ele>
        <time>2026-07-09T13:04:17.000Z</time>
      </trkpt>
      <trkpt lat="46.7235" lon="15.82527">
        <ele>235.567</ele>
        <time>2026-07-09T13:04:18.000Z</time>
      </trkpt>
      <trkpt lat="46.72345" lon="15.82513">
        <ele>235.782136</ele>
        <time>2026-07-09T13:04:20.000Z</time>
      </trkpt>
      <trkpt lat="46.72342" lon="15.82506">
        <ele>235.894443</ele>
        <time>2026-07-09T13:04:21.000Z</time>
      </trkpt>
      <trkpt lat="46.72335" lon="15.82491">
        <ele>236.135453</ele>
        <time>2026-07-09T13:04:23.000Z</time>
      </trkpt>
      <trkpt lat="46.72329" lon="15.82463">
        <ele>236.524057</ele>
        <time>2026-07-09T13:04:26.000Z</time>
      </trkpt>
      <trkpt lat="46.72322" lon="15.8244">
        <ele>236.740832</ele>
        <time>2026-07-09T13:04:29.000Z</time>
      </trkpt>
      <trkpt lat="46.72317" lon="15.82417">
        <ele>236.922573</ele>
        <time>2026-07-09T13:04:32.000Z</time>
      </trkpt>
      <trkpt lat="46.72314" lon="15.8241">
        <ele>236.983681</ele>
        <time>2026-07-09T13:04:33.000Z</time>
      </trkpt>
      <trkpt lat="46.72303" lon="15.82388">
        <ele>237.182419</ele>
        <time>2026-07-09T13:04:36.000Z</time>
      </trkpt>
      <trkpt lat="46.72297" lon="15.82369">
        <ele>237.344854</ele>
        <time>2026-07-09T13:04:39.000Z</time>
      </trkpt>
      <trkpt lat="46.72292" lon="15.82354">
        <ele>237.467155</ele>
        <time>2026-07-09T13:04:41.000Z</time>
      </trkpt>
      <trkpt lat="46.72285" lon="15.8234">
        <ele>237.602422</ele>
        <time>2026-07-09T13:04:43.000Z</time>
      </trkpt>
      <trkpt lat="46.72276" lon="15.82329">
        <ele>237.725839</ele>
        <time>2026-07-09T13:04:45.000Z</time>
      </trkpt>
      <trkpt lat="46.72273" lon="15.82322">
        <ele>237.792654</ele>
        <time>2026-07-09T13:04:46.000Z</time>
      </trkpt>
      <trkpt lat="46.72261" lon="15.82301">
        <ele>237.990178</ele>
        <time>2026-07-09T13:04:49.000Z</time>
      </trkpt>
      <trkpt lat="46.72257" lon="15.82296">
        <ele>238.046715</ele>
        <time>2026-07-09T13:04:50.000Z</time>
      </trkpt>
      <trkpt lat="46.72253" lon="15.82292">
        <ele>238.100269</ele>
        <time>2026-07-09T13:04:51.000Z</time>
      </trkpt>
      <trkpt lat="46.72247" lon="15.82284">
        <ele>238.192518</ele>
        <time>2026-07-09T13:04:53.000Z</time>
      </trkpt>
      <trkpt lat="46.72245" lon="15.8228">
        <ele>238.229893</ele>
        <time>2026-07-09T13:04:54.000Z</time>
      </trkpt>
      <trkpt lat="46.72244" lon="15.82277">
        <ele>238.257578</ele>
        <time>2026-07-09T13:04:55.000Z</time>
      </trkpt>
      <trkpt lat="46.72247" lon="15.82269">
        <ele>238.327443</ele>
        <time>2026-07-09T13:04:57.000Z</time>
      </trkpt>
      <trkpt lat="46.72257" lon="15.82263">
        <ele>238.449221</ele>
        <time>2026-07-09T13:04:59.000Z</time>
      </trkpt>
      <trkpt lat="46.72263" lon="15.82263">
        <ele>238.511601</ele>
        <time>2026-07-09T13:05:00.000Z</time>
      </trkpt>
      <trkpt lat="46.72273" lon="15.82262">
        <ele>238.500259</ele>
        <time>2026-07-09T13:05:02.000Z</time>
      </trkpt>
      <trkpt lat="46.72284" lon="15.82258">
        <ele>238.424524</ele>
        <time>2026-07-09T13:05:04.000Z</time>
      </trkpt>
      <trkpt lat="46.72296" lon="15.8225">
        <ele>238.339584</ele>
        <time>2026-07-09T13:05:06.000Z</time>
      </trkpt>
      <trkpt lat="46.72302" lon="15.82238">
        <ele>238.270975</ele>
        <time>2026-07-09T13:05:08.000Z</time>
      </trkpt>
      <trkpt lat="46.7231" lon="15.82229">
        <ele>238.205233</ele>
        <time>2026-07-09T13:05:10.000Z</time>
      </trkpt>
      <trkpt lat="46.72319" lon="15.82224">
        <ele>238.144345</ele>
        <time>2026-07-09T13:05:12.000Z</time>
      </trkpt>
      <trkpt lat="46.72337" lon="15.82216">
        <ele>238.022444</ele>
        <time>2026-07-09T13:05:15.000Z</time>
      </trkpt>
      <trkpt lat="46.72342" lon="15.82205">
        <ele>237.962342</ele>
        <time>2026-07-09T13:05:17.000Z</time>
      </trkpt>
      <trkpt lat="46.72347" lon="15.82189">
        <ele>237.88123</ele>
        <time>2026-07-09T13:05:19.000Z</time>
      </trkpt>
      <trkpt lat="46.72352" lon="15.82167">
        <ele>237.77657</ele>
        <time>2026-07-09T13:05:22.000Z</time>
      </trkpt>
      <trkpt lat="46.72354" lon="15.8216">
        <ele>237.741641</ele>
        <time>2026-07-09T13:05:23.000Z</time>
      </trkpt>
      <trkpt lat="46.72361" lon="15.8214">
        <ele>237.641663</ele>
        <time>2026-07-09T13:05:26.000Z</time>
      </trkpt>
      <trkpt lat="46.72364" lon="15.82133">
        <ele>237.60757</ele>
        <time>2026-07-09T13:05:27.000Z</time>
      </trkpt>
      <trkpt lat="46.7237" lon="15.82117">
        <ele>237.522505</ele>
        <time>2026-07-09T13:05:29.000Z</time>
      </trkpt>
      <trkpt lat="46.72372" lon="15.82092">
        <ele>237.408832</ele>
        <time>2026-07-09T13:05:32.000Z</time>
      </trkpt>
      <trkpt lat="46.72369" lon="15.82075">
        <ele>237.301831</ele>
        <time>2026-07-09T13:05:34.000Z</time>
      </trkpt>
      <trkpt lat="46.72366" lon="15.82059">
        <ele>237.161805</ele>
        <time>2026-07-09T13:05:36.000Z</time>
      </trkpt>
      <trkpt lat="46.72346" lon="15.82008">
        <ele>236.677195</ele>
        <time>2026-07-09T13:05:42.000Z</time>
      </trkpt>
      <trkpt lat="46.72325" lon="15.81954">
        <ele>236.16294</ele>
        <time>2026-07-09T13:05:49.000Z</time>
      </trkpt>
      <trkpt lat="46.72322" lon="15.81946">
        <ele>236.090657</ele>
        <time>2026-07-09T13:05:50.000Z</time>
      </trkpt>
      <trkpt lat="46.72319" lon="15.81939">
        <ele>236.019661</ele>
        <time>2026-07-09T13:05:51.000Z</time>
      </trkpt>
      <trkpt lat="46.72308" lon="15.81908">
        <ele>235.731771</ele>
        <time>2026-07-09T13:05:55.000Z</time>
      </trkpt>
      <trkpt lat="46.72295" lon="15.81873">
        <ele>235.402621</ele>
        <time>2026-07-09T13:06:00.000Z</time>
      </trkpt>
      <trkpt lat="46.72288" lon="15.81854">
        <ele>235.223353</ele>
        <time>2026-07-09T13:06:03.000Z</time>
      </trkpt>
      <trkpt lat="46.72282" lon="15.81841">
        <ele>235.192618</ele>
        <time>2026-07-09T13:06:05.000Z</time>
      </trkpt>
      <trkpt lat="46.72272" lon="15.81821">
        <ele>235.182834</ele>
        <time>2026-07-09T13:06:08.000Z</time>
      </trkpt>
      <trkpt lat="46.72264" lon="15.81808">
        <ele>235.176502</ele>
        <time>2026-07-09T13:06:10.000Z</time>
      </trkpt>
      <trkpt lat="46.72263" lon="15.818">
        <ele>235.173359</ele>
        <time>2026-07-09T13:06:11.000Z</time>
      </trkpt>
      <trkpt lat="46.7226" lon="15.81784">
        <ele>235.166989</ele>
        <time>2026-07-09T13:06:13.000Z</time>
      </trkpt>
      <trkpt lat="46.72258" lon="15.81758">
        <ele>235.156953</ele>
        <time>2026-07-09T13:06:16.000Z</time>
      </trkpt>
      <trkpt lat="46.72261" lon="15.81711">
        <ele>235.138711</ele>
        <time>2026-07-09T13:06:22.000Z</time>
      </trkpt>
      <trkpt lat="46.72262" lon="15.81673">
        <ele>235.123829</ele>
        <time>2026-07-09T13:06:27.000Z</time>
      </trkpt>
      <trkpt lat="46.72263" lon="15.81666">
        <ele>235.121096</ele>
        <time>2026-07-09T13:06:28.000Z</time>
      </trkpt>
      <trkpt lat="46.72265" lon="15.81659">
        <ele>235.118089</ele>
        <time>2026-07-09T13:06:29.000Z</time>
      </trkpt>
      <trkpt lat="46.72272" lon="15.81646">
        <ele>235.111896</ele>
        <time>2026-07-09T13:06:31.000Z</time>
      </trkpt>
      <trkpt lat="46.72275" lon="15.8164">
        <ele>235.109093</ele>
        <time>2026-07-09T13:06:32.000Z</time>
      </trkpt>
      <trkpt lat="46.72275" lon="15.81633">
        <ele>235.10633</ele>
        <time>2026-07-09T13:06:33.000Z</time>
      </trkpt>
      <trkpt lat="46.72277" lon="15.8161">
        <ele>235.097519</ele>
        <time>2026-07-09T13:06:36.000Z</time>
      </trkpt>
      <trkpt lat="46.72281" lon="15.81593">
        <ele>235.111744</ele>
        <time>2026-07-09T13:06:38.000Z</time>
      </trkpt>
      <trkpt lat="46.72285" lon="15.81578">
        <ele>235.129154</ele>
        <time>2026-07-09T13:06:40.000Z</time>
      </trkpt>
      <trkpt lat="46.72289" lon="15.81561">
        <ele>235.147094</ele>
        <time>2026-07-09T13:06:42.000Z</time>
      </trkpt>
      <trkpt lat="46.72294" lon="15.81535">
        <ele>235.175921</ele>
        <time>2026-07-09T13:06:45.000Z</time>
      </trkpt>
      <trkpt lat="46.72299" lon="15.81513">
        <ele>235.200135</ele>
        <time>2026-07-09T13:06:48.000Z</time>
      </trkpt>
      <trkpt lat="46.72297" lon="15.81498">
        <ele>235.216133</ele>
        <time>2026-07-09T13:06:50.000Z</time>
      </trkpt>
      <trkpt lat="46.72289" lon="15.81478">
        <ele>235.239893</ele>
        <time>2026-07-09T13:06:53.000Z</time>
      </trkpt>
      <trkpt lat="46.72288" lon="15.81472">
        <ele>235.246559</ele>
        <time>2026-07-09T13:06:54.000Z</time>
      </trkpt>
      <trkpt lat="46.72287" lon="15.81466">
        <ele>235.253502</ele>
        <time>2026-07-09T13:06:55.000Z</time>
      </trkpt>
      <trkpt lat="46.7228" lon="15.81444">
        <ele>235.278263</ele>
        <time>2026-07-09T13:06:59.000Z</time>
      </trkpt>
      <trkpt lat="46.72275" lon="15.81422">
        <ele>235.302246</ele>
        <time>2026-07-09T13:07:03.000Z</time>
      </trkpt>
      <trkpt lat="46.72273" lon="15.81415">
        <ele>235.310318</ele>
        <time>2026-07-09T13:07:04.000Z</time>
      </trkpt>
      <trkpt lat="46.72265" lon="15.81387">
        <ele>235.342319</ele>
        <time>2026-07-09T13:07:08.000Z</time>
      </trkpt>
      <trkpt lat="46.72264" lon="15.81381">
        <ele>235.348758</ele>
        <time>2026-07-09T13:07:09.000Z</time>
      </trkpt>
      <trkpt lat="46.72264" lon="15.81366">
        <ele>235.365098</ele>
        <time>2026-07-09T13:07:12.000Z</time>
      </trkpt>
      <trkpt lat="46.72273" lon="15.81342">
        <ele>235.309597</ele>
        <time>2026-07-09T13:07:17.000Z</time>
      </trkpt>
      <trkpt lat="46.72281" lon="15.81318">
        <ele>235.232512</ele>
        <time>2026-07-09T13:07:21.000Z</time>
      </trkpt>
      <trkpt lat="46.72282" lon="15.81311">
        <ele>235.213546</ele>
        <time>2026-07-09T13:07:22.000Z</time>
      </trkpt>
      <trkpt lat="46.72283" lon="15.81298">
        <ele>235.174149</ele>
        <time>2026-07-09T13:07:24.000Z</time>
      </trkpt>
      <trkpt lat="46.72284" lon="15.81282">
        <ele>235.130668</ele>
        <time>2026-07-09T13:07:26.000Z</time>
      </trkpt>
      <trkpt lat="46.72283" lon="15.81274">
        <ele>235.107367</ele>
        <time>2026-07-09T13:07:27.000Z</time>
      </trkpt>
      <trkpt lat="46.72281" lon="15.81266">
        <ele>235.082983</ele>
        <time>2026-07-09T13:07:28.000Z</time>
      </trkpt>
      <trkpt lat="46.72275" lon="15.81245">
        <ele>235.018113</ele>
        <time>2026-07-09T13:07:31.000Z</time>
      </trkpt>
      <trkpt lat="46.72273" lon="15.81229">
        <ele>234.971736</ele>
        <time>2026-07-09T13:07:33.000Z</time>
      </trkpt>
      <trkpt lat="46.72272" lon="15.81214">
        <ele>234.928499</ele>
        <time>2026-07-09T13:07:35.000Z</time>
      </trkpt>
      <trkpt lat="46.72273" lon="15.81207">
        <ele>234.908202</ele>
        <time>2026-07-09T13:07:36.000Z</time>
      </trkpt>
      <trkpt lat="46.72273" lon="15.81192">
        <ele>234.862982</ele>
        <time>2026-07-09T13:07:38.000Z</time>
      </trkpt>
      <trkpt lat="46.72274" lon="15.81183">
        <ele>234.838925</ele>
        <time>2026-07-09T13:07:39.000Z</time>
      </trkpt>
      <trkpt lat="46.72276" lon="15.8115">
        <ele>234.744706</ele>
        <time>2026-07-09T13:07:43.000Z</time>
      </trkpt>
      <trkpt lat="46.72273" lon="15.81106">
        <ele>234.636001</ele>
        <time>2026-07-09T13:07:48.000Z</time>
      </trkpt>
      <trkpt lat="46.72272" lon="15.81098">
        <ele>234.721111</ele>
        <time>2026-07-09T13:07:49.000Z</time>
      </trkpt>
      <trkpt lat="46.72267" lon="15.81084">
        <ele>234.885194</ele>
        <time>2026-07-09T13:07:51.000Z</time>
      </trkpt>
      <trkpt lat="46.72265" lon="15.81069">
        <ele>235.045493</ele>
        <time>2026-07-09T13:07:53.000Z</time>
      </trkpt>
      <trkpt lat="46.72263" lon="15.81058">
        <ele>235.170531</ele>
        <time>2026-07-09T13:07:55.000Z</time>
      </trkpt>
      <trkpt lat="46.72262" lon="15.81053">
        <ele>235.217572</ele>
        <time>2026-07-09T13:07:56.000Z</time>
      </trkpt>
      <trkpt lat="46.72251" lon="15.81029">
        <ele>235.525991</ele>
        <time>2026-07-09T13:08:01.000Z</time>
      </trkpt>
      <trkpt lat="46.72246" lon="15.81003">
        <ele>235.812182</ele>
        <time>2026-07-09T13:08:05.000Z</time>
      </trkpt>
      <trkpt lat="46.72246" lon="15.80981">
        <ele>236.040254</ele>
        <time>2026-07-09T13:08:08.000Z</time>
      </trkpt>
      <trkpt lat="46.72242" lon="15.8096">
        <ele>236.277505</ele>
        <time>2026-07-09T13:08:11.000Z</time>
      </trkpt>
      <trkpt lat="46.72233" lon="15.80939">
        <ele>236.530069</ele>
        <time>2026-07-09T13:08:14.000Z</time>
      </trkpt>
      <trkpt lat="46.72226" lon="15.80925">
        <ele>236.71944</ele>
        <time>2026-07-09T13:08:16.000Z</time>
      </trkpt>
      <trkpt lat="46.72223" lon="15.80916">
        <ele>236.817711</ele>
        <time>2026-07-09T13:08:17.000Z</time>
      </trkpt>
      <trkpt lat="46.7222" lon="15.80908">
        <ele>236.916326</ele>
        <time>2026-07-09T13:08:18.000Z</time>
      </trkpt>
      <trkpt lat="46.72212" lon="15.80884">
        <ele>237.19966</ele>
        <time>2026-07-09T13:08:21.000Z</time>
      </trkpt>
      <trkpt lat="46.72199" lon="15.80855">
        <ele>237.546986</ele>
        <time>2026-07-09T13:08:25.000Z</time>
      </trkpt>
      <trkpt lat="46.7219" lon="15.80843">
        <ele>237.710702</ele>
        <time>2026-07-09T13:08:27.000Z</time>
      </trkpt>
      <trkpt lat="46.72187" lon="15.80838">
        <ele>237.775563</ele>
        <time>2026-07-09T13:08:28.000Z</time>
      </trkpt>
      <trkpt lat="46.72173" lon="15.80814">
        <ele>238.067745</ele>
        <time>2026-07-09T13:08:31.000Z</time>
      </trkpt>
      <trkpt lat="46.72169" lon="15.80808">
        <ele>238.147071</ele>
        <time>2026-07-09T13:08:32.000Z</time>
      </trkpt>
      <trkpt lat="46.72166" lon="15.80805">
        <ele>238.193444</ele>
        <time>2026-07-09T13:08:33.000Z</time>
      </trkpt>
      <trkpt lat="46.72155" lon="15.80791">
        <ele>238.394702</ele>
        <time>2026-07-09T13:08:36.000Z</time>
      </trkpt>
      <trkpt lat="46.72148" lon="15.80783">
        <ele>238.521917</ele>
        <time>2026-07-09T13:08:38.000Z</time>
      </trkpt>
      <trkpt lat="46.72139" lon="15.80774">
        <ele>238.668485</ele>
        <time>2026-07-09T13:08:40.000Z</time>
      </trkpt>
      <trkpt lat="46.72119" lon="15.80751">
        <ele>239.010223</ele>
        <time>2026-07-09T13:08:45.000Z</time>
      </trkpt>
      <trkpt lat="46.72114" lon="15.80738">
        <ele>239.149682</ele>
        <time>2026-07-09T13:08:47.000Z</time>
      </trkpt>
      <trkpt lat="46.72108" lon="15.80706">
        <ele>239.464222</ele>
        <time>2026-07-09T13:08:51.000Z</time>
      </trkpt>
      <trkpt lat="46.72107" lon="15.80699">
        <ele>239.529202</ele>
        <time>2026-07-09T13:08:52.000Z</time>
      </trkpt>
      <trkpt lat="46.72104" lon="15.8068">
        <ele>239.70975</ele>
        <time>2026-07-09T13:08:55.000Z</time>
      </trkpt>
      <trkpt lat="46.72101" lon="15.80663">
        <ele>239.811975</ele>
        <time>2026-07-09T13:08:58.000Z</time>
      </trkpt>
      <trkpt lat="46.721" lon="15.8065">
        <ele>239.686208</ele>
        <time>2026-07-09T13:09:01.000Z</time>
      </trkpt>
      <trkpt lat="46.72101" lon="15.80645">
        <ele>239.641276</ele>
        <time>2026-07-09T13:09:02.000Z</time>
      </trkpt>
      <trkpt lat="46.72113" lon="15.80637">
        <ele>239.468946</ele>
        <time>2026-07-09T13:09:06.000Z</time>
      </trkpt>
      <trkpt lat="46.7212" lon="15.80634">
        <ele>239.366374</ele>
        <time>2026-07-09T13:09:08.000Z</time>
      </trkpt>
      <trkpt lat="46.72133" lon="15.80625">
        <ele>239.171854</ele>
        <time>2026-07-09T13:09:11.000Z</time>
      </trkpt>
      <trkpt lat="46.72166" lon="15.80607">
        <ele>238.709488</ele>
        <time>2026-07-09T13:09:17.000Z</time>
      </trkpt>
      <trkpt lat="46.72175" lon="15.806">
        <ele>238.564794</ele>
        <time>2026-07-09T13:09:19.000Z</time>
      </trkpt>
      <trkpt lat="46.72184" lon="15.80592">
        <ele>238.427338</ele>
        <time>2026-07-09T13:09:21.000Z</time>
      </trkpt>
      <trkpt lat="46.72186" lon="15.80586">
        <ele>238.36371</ele>
        <time>2026-07-09T13:09:22.000Z</time>
      </trkpt>
      <trkpt lat="46.72188" lon="15.80579">
        <ele>238.299225</ele>
        <time>2026-07-09T13:09:23.000Z</time>
      </trkpt>
      <trkpt lat="46.72187" lon="15.80566">
        <ele>238.178317</ele>
        <time>2026-07-09T13:09:25.000Z</time>
      </trkpt>
      <trkpt lat="46.72174" lon="15.80526">
        <ele>237.773932</ele>
        <time>2026-07-09T13:09:31.000Z</time>
      </trkpt>
      <trkpt lat="46.72152" lon="15.80472">
        <ele>237.588815</ele>
        <time>2026-07-09T13:09:39.000Z</time>
      </trkpt>
      <trkpt lat="46.72123" lon="15.80403">
        <ele>238.07089</ele>
        <time>2026-07-09T13:09:49.000Z</time>
      </trkpt>
      <trkpt lat="46.7212" lon="15.80397">
        <ele>238.117804</ele>
        <time>2026-07-09T13:09:50.000Z</time>
      </trkpt>
      <trkpt lat="46.72103" lon="15.80366">
        <ele>238.355186</ele>
        <time>2026-07-09T13:09:55.000Z</time>
      </trkpt>
      <trkpt lat="46.72095" lon="15.80354">
        <ele>238.449463</ele>
        <time>2026-07-09T13:09:57.000Z</time>
      </trkpt>
      <trkpt lat="46.72076" lon="15.80328">
        <ele>238.683449</ele>
        <time>2026-07-09T13:10:02.000Z</time>
      </trkpt>
      <trkpt lat="46.72071" lon="15.80325">
        <ele>238.728986</ele>
        <time>2026-07-09T13:10:03.000Z</time>
      </trkpt>
      <trkpt lat="46.72066" lon="15.80324">
        <ele>238.772118</ele>
        <time>2026-07-09T13:10:04.000Z</time>
      </trkpt>
      <trkpt lat="46.72056" lon="15.80328">
        <ele>238.86774</ele>
        <time>2026-07-09T13:10:06.000Z</time>
      </trkpt>
      <trkpt lat="46.72049" lon="15.80332">
        <ele>238.926832</ele>
        <time>2026-07-09T13:10:07.000Z</time>
      </trkpt>
      <trkpt lat="46.72016" lon="15.80353">
        <ele>239.032016</ele>
        <time>2026-07-09T13:10:13.000Z</time>
      </trkpt>
      <trkpt lat="46.72011" lon="15.80356">
        <ele>239.037537</ele>
        <time>2026-07-09T13:10:14.000Z</time>
      </trkpt>
      <trkpt lat="46.72001" lon="15.8036">
        <ele>239.04773</ele>
        <time>2026-07-09T13:10:16.000Z</time>
      </trkpt>
      <trkpt lat="46.71991" lon="15.80362">
        <ele>239.057795</ele>
        <time>2026-07-09T13:10:18.000Z</time>
      </trkpt>
      <trkpt lat="46.71986" lon="15.80361">
        <ele>239.062933</ele>
        <time>2026-07-09T13:10:19.000Z</time>
      </trkpt>
      <trkpt lat="46.71982" lon="15.80358">
        <ele>239.068237</ele>
        <time>2026-07-09T13:10:20.000Z</time>
      </trkpt>
      <trkpt lat="46.71973" lon="15.80348">
        <ele>239.080018</ele>
        <time>2026-07-09T13:10:22.000Z</time>
      </trkpt>
      <trkpt lat="46.71968" lon="15.80341">
        <ele>239.086379</ele>
        <time>2026-07-09T13:10:23.000Z</time>
      </trkpt>
      <trkpt lat="46.71957" lon="15.8032">
        <ele>239.104703</ele>
        <time>2026-07-09T13:10:26.000Z</time>
      </trkpt>
      <trkpt lat="46.71949" lon="15.80296">
        <ele>239.123312</ele>
        <time>2026-07-09T13:10:29.000Z</time>
      </trkpt>
      <trkpt lat="46.71936" lon="15.80266">
        <ele>239.148606</ele>
        <time>2026-07-09T13:10:33.000Z</time>
      </trkpt>
      <trkpt lat="46.71931" lon="15.8025">
        <ele>239.160898</ele>
        <time>2026-07-09T13:10:35.000Z</time>
      </trkpt>
      <trkpt lat="46.7191" lon="15.80196">
        <ele>239.202164</ele>
        <time>2026-07-09T13:10:42.000Z</time>
      </trkpt>
      <trkpt lat="46.71891" lon="15.80143">
        <ele>239.240368</ele>
        <time>2026-07-09T13:10:49.000Z</time>
      </trkpt>
      <trkpt lat="46.71885" lon="15.80127">
        <ele>239.251574</ele>
        <time>2026-07-09T13:10:51.000Z</time>
      </trkpt>
      <trkpt lat="46.71875" lon="15.80095">
        <ele>239.273905</ele>
        <time>2026-07-09T13:10:55.000Z</time>
      </trkpt>
      <trkpt lat="46.71867" lon="15.80072">
        <ele>239.290647</ele>
        <time>2026-07-09T13:10:58.000Z</time>
      </trkpt>
      <trkpt lat="46.71843" lon="15.80021">
        <ele>239.329334</ele>
        <time>2026-07-09T13:11:05.000Z</time>
      </trkpt>
      <trkpt lat="46.71814" lon="15.79965">
        <ele>239.380947</ele>
        <time>2026-07-09T13:11:13.000Z</time>
      </trkpt>
      <trkpt lat="46.71784" lon="15.79908">
        <ele>239.442197</ele>
        <time>2026-07-09T13:11:21.000Z</time>
      </trkpt>
      <trkpt lat="46.71758" lon="15.79857">
        <ele>239.495725</ele>
        <time>2026-07-09T13:11:28.000Z</time>
      </trkpt>
      <trkpt lat="46.71737" lon="15.79809">
        <ele>239.544153</ele>
        <time>2026-07-09T13:11:34.000Z</time>
      </trkpt>
      <trkpt lat="46.71706" lon="15.79744">
        <ele>239.695255</ele>
        <time>2026-07-09T13:11:42.000Z</time>
      </trkpt>
      <trkpt lat="46.71684" lon="15.79691">
        <ele>239.874641</ele>
        <time>2026-07-09T13:11:49.000Z</time>
      </trkpt>
      <trkpt lat="46.71655" lon="15.79632">
        <ele>240.081619</ele>
        <time>2026-07-09T13:11:57.000Z</time>
      </trkpt>
      <trkpt lat="46.71641" lon="15.79604">
        <ele>240.183018</ele>
        <time>2026-07-09T13:12:01.000Z</time>
      </trkpt>
      <trkpt lat="46.71634" lon="15.79591">
        <ele>240.230049</ele>
        <time>2026-07-09T13:12:03.000Z</time>
      </trkpt>
      <trkpt lat="46.71623" lon="15.79587">
        <ele>240.27587</ele>
        <time>2026-07-09T13:12:05.000Z</time>
      </trkpt>
      <trkpt lat="46.71618" lon="15.79585">
        <ele>240.29923</ele>
        <time>2026-07-09T13:12:06.000Z</time>
      </trkpt>
      <trkpt lat="46.71573" lon="15.79581">
        <ele>239.880976</ele>
        <time>2026-07-09T13:12:13.000Z</time>
      </trkpt>
      <trkpt lat="46.71526" lon="15.79581">
        <ele>239.340468</ele>
        <time>2026-07-09T13:12:20.000Z</time>
      </trkpt>
      <trkpt lat="46.71514" lon="15.79584">
        <ele>239.191079</ele>
        <time>2026-07-09T13:12:22.000Z</time>
      </trkpt>
      <trkpt lat="46.71495" lon="15.79592">
        <ele>238.963715</ele>
        <time>2026-07-09T13:12:25.000Z</time>
      </trkpt>
      <trkpt lat="46.7145" lon="15.79613">
        <ele>238.404169</ele>
        <time>2026-07-09T13:12:33.000Z</time>
      </trkpt>
      <trkpt lat="46.71444" lon="15.79614">
        <ele>238.337295</ele>
        <time>2026-07-09T13:12:34.000Z</time>
      </trkpt>
      <trkpt lat="46.71439" lon="15.79612">
        <ele>238.278422</ele>
        <time>2026-07-09T13:12:35.000Z</time>
      </trkpt>
      <trkpt lat="46.71431" lon="15.79602">
        <ele>238.224004</ele>
        <time>2026-07-09T13:12:37.000Z</time>
      </trkpt>
      <trkpt lat="46.71424" lon="15.79586">
        <ele>238.231059</ele>
        <time>2026-07-09T13:12:39.000Z</time>
      </trkpt>
      <trkpt lat="46.7141" lon="15.79555">
        <ele>238.245531</ele>
        <time>2026-07-09T13:12:43.000Z</time>
      </trkpt>
      <trkpt lat="46.7138" lon="15.79498">
        <ele>238.273627</ele>
        <time>2026-07-09T13:12:51.000Z</time>
      </trkpt>
      <trkpt lat="46.71344" lon="15.79448">
        <ele>238.30182</ele>
        <time>2026-07-09T13:12:59.000Z</time>
      </trkpt>
      <trkpt lat="46.71311" lon="15.79407">
        <ele>238.354492</ele>
        <time>2026-07-09T13:13:06.000Z</time>
      </trkpt>
      <trkpt lat="46.71276" lon="15.79359">
        <ele>238.582397</ele>
        <time>2026-07-09T13:13:14.000Z</time>
      </trkpt>
      <trkpt lat="46.71238" lon="15.79314">
        <ele>238.811085</ele>
        <time>2026-07-09T13:13:22.000Z</time>
      </trkpt>
      <trkpt lat="46.71215" lon="15.79281">
        <ele>238.964396</ele>
        <time>2026-07-09T13:13:28.000Z</time>
      </trkpt>
      <trkpt lat="46.71212" lon="15.79274">
        <ele>238.989791</ele>
        <time>2026-07-09T13:13:29.000Z</time>
      </trkpt>
      <trkpt lat="46.71209" lon="15.7926">
        <ele>239.03943</ele>
        <time>2026-07-09T13:13:31.000Z</time>
      </trkpt>
      <trkpt lat="46.71213" lon="15.79244">
        <ele>239.094545</ele>
        <time>2026-07-09T13:13:33.000Z</time>
      </trkpt>
      <trkpt lat="46.7122" lon="15.79229">
        <ele>239.152505</ele>
        <time>2026-07-09T13:13:35.000Z</time>
      </trkpt>
      <trkpt lat="46.71226" lon="15.79223">
        <ele>239.137379</ele>
        <time>2026-07-09T13:13:36.000Z</time>
      </trkpt>
      <trkpt lat="46.71269" lon="15.79177">
        <ele>238.485247</ele>
        <time>2026-07-09T13:13:44.000Z</time>
      </trkpt>
      <trkpt lat="46.71294" lon="15.79136">
        <ele>238.028</ele>
        <time>2026-07-09T13:13:50.000Z</time>
      </trkpt>
      <trkpt lat="46.71303" lon="15.79114">
        <ele>237.813635</ele>
        <time>2026-07-09T13:13:53.000Z</time>
      </trkpt>
      <trkpt lat="46.71303" lon="15.791">
        <ele>237.700545</ele>
        <time>2026-07-09T13:13:55.000Z</time>
      </trkpt>
      <trkpt lat="46.71296" lon="15.79094">
        <ele>237.593443</ele>
        <time>2026-07-09T13:13:57.000Z</time>
      </trkpt>
      <trkpt lat="46.71291" lon="15.79091">
        <ele>237.531628</ele>
        <time>2026-07-09T13:13:58.000Z</time>
      </trkpt>
      <trkpt lat="46.71261" lon="15.79069">
        <ele>237.121518</ele>
        <time>2026-07-09T13:14:04.000Z</time>
      </trkpt>
      <trkpt lat="46.7122" lon="15.79033">
        <ele>236.936842</ele>
        <time>2026-07-09T13:14:12.000Z</time>
      </trkpt>
      <trkpt lat="46.71182" lon="15.79005">
        <ele>236.873974</ele>
        <time>2026-07-09T13:14:19.000Z</time>
      </trkpt>
      <trkpt lat="46.7117" lon="15.78998">
        <ele>236.855482</ele>
        <time>2026-07-09T13:14:21.000Z</time>
      </trkpt>
      <trkpt lat="46.71155" lon="15.78984">
        <ele>236.829489</ele>
        <time>2026-07-09T13:14:24.000Z</time>
      </trkpt>
      <trkpt lat="46.71122" lon="15.78945">
        <ele>236.767131</ele>
        <time>2026-07-09T13:14:31.000Z</time>
      </trkpt>
      <trkpt lat="46.7109" lon="15.78905">
        <ele>236.824929</ele>
        <time>2026-07-09T13:14:38.000Z</time>
      </trkpt>
      <trkpt lat="46.71085" lon="15.789">
        <ele>236.865468</ele>
        <time>2026-07-09T13:14:39.000Z</time>
      </trkpt>
      <trkpt lat="46.71074" lon="15.78891">
        <ele>236.950127</ele>
        <time>2026-07-09T13:14:41.000Z</time>
      </trkpt>
      <trkpt lat="46.71063" lon="15.78883">
        <ele>237.032713</ele>
        <time>2026-07-09T13:14:43.000Z</time>
      </trkpt>
      <trkpt lat="46.71034" lon="15.78859">
        <ele>237.251724</ele>
        <time>2026-07-09T13:14:49.000Z</time>
      </trkpt>
      <trkpt lat="46.71024" lon="15.78849">
        <ele>237.328901</ele>
        <time>2026-07-09T13:14:51.000Z</time>
      </trkpt>
      <trkpt lat="46.71011" lon="15.78832">
        <ele>237.441353</ele>
        <time>2026-07-09T13:14:54.000Z</time>
      </trkpt>
      <trkpt lat="46.71003" lon="15.78821">
        <ele>237.517845</ele>
        <time>2026-07-09T13:14:56.000Z</time>
      </trkpt>
      <trkpt lat="46.70993" lon="15.78811">
        <ele>237.592389</ele>
        <time>2026-07-09T13:14:58.000Z</time>
      </trkpt>
      <trkpt lat="46.70988" lon="15.78808">
        <ele>237.629582</ele>
        <time>2026-07-09T13:14:59.000Z</time>
      </trkpt>
      <trkpt lat="46.70972" lon="15.78801">
        <ele>237.742441</ele>
        <time>2026-07-09T13:15:02.000Z</time>
      </trkpt>
      <trkpt lat="46.7096" lon="15.78799">
        <ele>237.822307</ele>
        <time>2026-07-09T13:15:04.000Z</time>
      </trkpt>
      <trkpt lat="46.70954" lon="15.78799">
        <ele>237.861681</ele>
        <time>2026-07-09T13:15:05.000Z</time>
      </trkpt>
      <trkpt lat="46.70931" lon="15.78799">
        <ele>238.206003</ele>
        <time>2026-07-09T13:15:10.000Z</time>
      </trkpt>
      <trkpt lat="46.7092" lon="15.78798">
        <ele>238.435647</ele>
        <time>2026-07-09T13:15:14.000Z</time>
      </trkpt>
      <trkpt lat="46.70907" lon="15.78795">
        <ele>238.685647</ele>
        <time>2026-07-09T13:15:18.000Z</time>
      </trkpt>
      <trkpt lat="46.70901" lon="15.78792">
        <ele>238.807593</ele>
        <time>2026-07-09T13:15:20.000Z</time>
      </trkpt>
      <trkpt lat="46.70887" lon="15.78784">
        <ele>239.111083</ele>
        <time>2026-07-09T13:15:25.000Z</time>
      </trkpt>
      <trkpt lat="46.70877" lon="15.78779">
        <ele>239.316878</ele>
        <time>2026-07-09T13:15:29.000Z</time>
      </trkpt>
      <trkpt lat="46.70874" lon="15.78778">
        <ele>239.375963</ele>
        <time>2026-07-09T13:15:30.000Z</time>
      </trkpt>
      <trkpt lat="46.70873" lon="15.78776">
        <ele>239.40923</ele>
        <time>2026-07-09T13:15:34.000Z</time>
      </trkpt>
      <trkpt lat="46.70872" lon="15.78771">
        <ele>239.474087</ele>
        <time>2026-07-09T13:18:11.000Z</time>
      </trkpt>
      <trkpt lat="46.70873" lon="15.78768">
        <ele>239.520573</ele>
        <time>2026-07-09T13:18:12.000Z</time>
      </trkpt>
      <trkpt lat="46.70878" lon="15.78756">
        <ele>239.704973</ele>
        <time>2026-07-09T13:18:16.000Z</time>
      </trkpt>
      <trkpt lat="46.70896" lon="15.7875">
        <ele>240.064375</ele>
        <time>2026-07-09T13:18:22.000Z</time>
      </trkpt>
      <trkpt lat="46.70904" lon="15.78742">
        <ele>240.254501</ele>
        <time>2026-07-09T13:18:24.000Z</time>
      </trkpt>
      <trkpt lat="46.7091" lon="15.78732">
        <ele>240.43371</ele>
        <time>2026-07-09T13:18:26.000Z</time>
      </trkpt>
      <trkpt lat="46.70922" lon="15.7871">
        <ele>240.820628</ele>
        <time>2026-07-09T13:18:31.000Z</time>
      </trkpt>
      <trkpt lat="46.70923" lon="15.78703">
        <ele>240.908339</ele>
        <time>2026-07-09T13:18:32.000Z</time>
      </trkpt>
      <trkpt lat="46.70921" lon="15.78699">
        <ele>240.97377</ele>
        <time>2026-07-09T13:18:33.000Z</time>
      </trkpt>
      <trkpt lat="46.70906" lon="15.78682">
        <ele>241.345901</ele>
        <time>2026-07-09T13:18:37.000Z</time>
      </trkpt>
      <trkpt lat="46.70871" lon="15.78648">
        <ele>240.98141</ele>
        <time>2026-07-09T13:18:46.000Z</time>
      </trkpt>
      <trkpt lat="46.70851" lon="15.78629">
        <ele>240.701053</ele>
        <time>2026-07-09T13:18:51.000Z</time>
      </trkpt>
      <trkpt lat="46.70838" lon="15.78617">
        <ele>240.52138</ele>
        <time>2026-07-09T13:18:54.000Z</time>
      </trkpt>
      <trkpt lat="46.70826" lon="15.78604">
        <ele>240.340914</ele>
        <time>2026-07-09T13:18:57.000Z</time>
      </trkpt>
      <trkpt lat="46.708" lon="15.78572">
        <ele>239.94366</ele>
        <time>2026-07-09T13:19:04.000Z</time>
      </trkpt>
      <trkpt lat="46.70787" lon="15.78552">
        <ele>239.713372</ele>
        <time>2026-07-09T13:19:08.000Z</time>
      </trkpt>
      <trkpt lat="46.70782" lon="15.7854">
        <ele>239.596189</ele>
        <time>2026-07-09T13:19:10.000Z</time>
      </trkpt>
      <trkpt lat="46.70778" lon="15.78527">
        <ele>239.480776</ele>
        <time>2026-07-09T13:19:12.000Z</time>
      </trkpt>
      <trkpt lat="46.70775" lon="15.78507">
        <ele>239.31213</ele>
        <time>2026-07-09T13:19:15.000Z</time>
      </trkpt>
      <trkpt lat="46.70773" lon="15.78493">
        <ele>239.205435</ele>
        <time>2026-07-09T13:19:17.000Z</time>
      </trkpt>
      <trkpt lat="46.70772" lon="15.78477">
        <ele>239.077043</ele>
        <time>2026-07-09T13:19:20.000Z</time>
      </trkpt>
      <trkpt lat="46.70769" lon="15.78458">
        <ele>238.922916</ele>
        <time>2026-07-09T13:19:23.000Z</time>
      </trkpt>
      <trkpt lat="46.70765" lon="15.78441">
        <ele>238.783497</ele>
        <time>2026-07-09T13:19:26.000Z</time>
      </trkpt>
      <trkpt lat="46.70763" lon="15.7842">
        <ele>238.615587</ele>
        <time>2026-07-09T13:19:29.000Z</time>
      </trkpt>
      <trkpt lat="46.70762" lon="15.78395">
        <ele>238.423044</ele>
        <time>2026-07-09T13:19:32.000Z</time>
      </trkpt>
      <trkpt lat="46.70762" lon="15.78389">
        <ele>238.373448</ele>
        <time>2026-07-09T13:19:33.000Z</time>
      </trkpt>
      <trkpt lat="46.70761" lon="15.78349">
        <ele>238.060466</ele>
        <time>2026-07-09T13:19:38.000Z</time>
      </trkpt>
      <trkpt lat="46.70765" lon="15.78296">
        <ele>237.637818</ele>
        <time>2026-07-09T13:19:45.000Z</time>
      </trkpt>
      <trkpt lat="46.7077" lon="15.78268">
        <ele>237.416714</ele>
        <time>2026-07-09T13:19:49.000Z</time>
      </trkpt>
      <trkpt lat="46.70775" lon="15.78242">
        <ele>237.258733</ele>
        <time>2026-07-09T13:19:53.000Z</time>
      </trkpt>
      <trkpt lat="46.7078" lon="15.78231">
        <ele>237.310372</ele>
        <time>2026-07-09T13:19:55.000Z</time>
      </trkpt>
      <trkpt lat="46.70785" lon="15.78223">
        <ele>237.354908</ele>
        <time>2026-07-09T13:19:57.000Z</time>
      </trkpt>
      <trkpt lat="46.70785" lon="15.78219">
        <ele>237.371721</ele>
        <time>2026-07-09T13:19:58.000Z</time>
      </trkpt>
      <trkpt lat="46.70782" lon="15.78212">
        <ele>237.404467</ele>
        <time>2026-07-09T13:20:00.000Z</time>
      </trkpt>
      <trkpt lat="46.70775" lon="15.78196">
        <ele>237.477927</ele>
        <time>2026-07-09T13:20:04.000Z</time>
      </trkpt>
      <trkpt lat="46.70776" lon="15.78192">
        <ele>237.497494</ele>
        <time>2026-07-09T13:20:05.000Z</time>
      </trkpt>
      <trkpt lat="46.70778" lon="15.78171">
        <ele>237.582524</ele>
        <time>2026-07-09T13:20:09.000Z</time>
      </trkpt>
      <trkpt lat="46.7078" lon="15.7815">
        <ele>237.667078</ele>
        <time>2026-07-09T13:20:13.000Z</time>
      </trkpt>
      <trkpt lat="46.70785" lon="15.78106">
        <ele>237.845157</ele>
        <time>2026-07-09T13:20:20.000Z</time>
      </trkpt>
      <trkpt lat="46.70786" lon="15.78054">
        <ele>238.054243</ele>
        <time>2026-07-09T13:20:28.000Z</time>
      </trkpt>
      <trkpt lat="46.70782" lon="15.77997">
        <ele>238.282724</ele>
        <time>2026-07-09T13:20:36.000Z</time>
      </trkpt>
      <trkpt lat="46.70775" lon="15.77938">
        <ele>239.052661</ele>
        <time>2026-07-09T13:20:45.000Z</time>
      </trkpt>
      <trkpt lat="46.70768" lon="15.77895">
        <ele>239.6492</ele>
        <time>2026-07-09T13:20:52.000Z</time>
      </trkpt>
      <trkpt lat="46.70768" lon="15.77876">
        <ele>239.899377</ele>
        <time>2026-07-09T13:20:55.000Z</time>
      </trkpt>
      <trkpt lat="46.70769" lon="15.77861">
        <ele>240.103874</ele>
        <time>2026-07-09T13:20:58.000Z</time>
      </trkpt>
      <trkpt lat="46.70771" lon="15.77853">
        <ele>240.217123</ele>
        <time>2026-07-09T13:21:02.000Z</time>
      </trkpt>
      <trkpt lat="46.70771" lon="15.77853">
        <ele>240.217123</ele>
        <time>2026-07-09T13:21:03.000Z</time>
      </trkpt>
      <trkpt lat="46.70771" lon="15.77861">
        <ele>240.330262</ele>
        <time>2026-07-09T13:21:12.000Z</time>
      </trkpt>
      <trkpt lat="46.7077" lon="15.77864">
        <ele>240.366158</ele>
        <time>2026-07-09T13:21:13.000Z</time>
      </trkpt>
      <trkpt lat="46.7077" lon="15.77866">
        <ele>240.395796</ele>
        <time>2026-07-09T13:21:14.000Z</time>
      </trkpt>
      <trkpt lat="46.70767" lon="15.77867">
        <ele>240.448721</ele>
        <time>2026-07-09T13:21:16.000Z</time>
      </trkpt>
      <trkpt lat="46.70767" lon="15.77864">
        <ele>240.497547</ele>
        <time>2026-07-09T13:21:18.000Z</time>
      </trkpt>
      <trkpt lat="46.70769" lon="15.77849">
        <ele>240.692476</ele>
        <time>2026-07-09T13:21:22.000Z</time>
      </trkpt>
      <trkpt lat="46.7077" lon="15.77824">
        <ele>241.037013</ele>
        <time>2026-07-09T13:21:27.000Z</time>
      </trkpt>
      <trkpt lat="46.70774" lon="15.77804">
        <ele>241.313164</ele>
        <time>2026-07-09T13:21:32.000Z</time>
      </trkpt>
      <trkpt lat="46.70774" lon="15.77801">
        <ele>241.347121</ele>
        <time>2026-07-09T13:21:33.000Z</time>
      </trkpt>
      <trkpt lat="46.70777" lon="15.77777">
        <ele>241.668448</ele>
        <time>2026-07-09T13:21:39.000Z</time>
      </trkpt>
      <trkpt lat="46.70783" lon="15.7775">
        <ele>242.408405</ele>
        <time>2026-07-09T13:21:44.000Z</time>
      </trkpt>
      <trkpt lat="46.70793" lon="15.77731">
        <ele>243.172682</ele>
        <time>2026-07-09T13:21:48.000Z</time>
      </trkpt>
      <trkpt lat="46.70794" lon="15.77726">
        <ele>243.330023</ele>
        <time>2026-07-09T13:21:49.000Z</time>
      </trkpt>
      <trkpt lat="46.70802" lon="15.77703">
        <ele>244.121786</ele>
        <time>2026-07-09T13:21:53.000Z</time>
      </trkpt>
      <trkpt lat="46.70803" lon="15.77697">
        <ele>244.325968</ele>
        <time>2026-07-09T13:21:54.000Z</time>
      </trkpt>
      <trkpt lat="46.70811" lon="15.77672">
        <ele>245.179979</ele>
        <time>2026-07-09T13:21:58.000Z</time>
      </trkpt>
      <trkpt lat="46.7082" lon="15.77646">
        <ele>246.090789</ele>
        <time>2026-07-09T13:22:02.000Z</time>
      </trkpt>
      <trkpt lat="46.70821" lon="15.77641">
        <ele>246.260918</ele>
        <time>2026-07-09T13:22:03.000Z</time>
      </trkpt>
      <trkpt lat="46.70823" lon="15.77626">
        <ele>246.717187</ele>
        <time>2026-07-09T13:22:05.000Z</time>
      </trkpt>
      <trkpt lat="46.70821" lon="15.77602">
        <ele>247.496848</ele>
        <time>2026-07-09T13:22:09.000Z</time>
      </trkpt>
      <trkpt lat="46.7082" lon="15.77598">
        <ele>247.627112</ele>
        <time>2026-07-09T13:22:10.000Z</time>
      </trkpt>
      <trkpt lat="46.70813" lon="15.77577">
        <ele>248.365974</ele>
        <time>2026-07-09T13:22:15.000Z</time>
      </trkpt>
      <trkpt lat="46.70811" lon="15.7757">
        <ele>248.575433</ele>
        <time>2026-07-09T13:22:20.000Z</time>
      </trkpt>
      <trkpt lat="46.70806" lon="15.7757">
        <ele>248.799621</ele>
        <time>2026-07-09T13:23:30.000Z</time>
      </trkpt>
      <trkpt lat="46.70805" lon="15.77571">
        <ele>248.851296</ele>
        <time>2026-07-09T13:23:32.000Z</time>
      </trkpt>
      <trkpt lat="46.70809" lon="15.77566">
        <ele>249.071442</ele>
        <time>2026-07-09T13:43:03.000Z</time>
      </trkpt>
      <trkpt lat="46.70809" lon="15.77565">
        <ele>249.110051</ele>
        <time>2026-07-09T13:43:04.000Z</time>
      </trkpt>
      <trkpt lat="46.70809" lon="15.77564">
        <ele>249.128809</ele>
        <time>2026-07-09T13:43:05.000Z</time>
      </trkpt>
      <trkpt lat="46.70798" lon="15.77564">
        <ele>249.635501</ele>
        <time>2026-07-09T13:44:55.000Z</time>
      </trkpt>
      <trkpt lat="46.70795" lon="15.77554">
        <ele>249.947525</ele>
        <time>2026-07-09T13:44:58.000Z</time>
      </trkpt>
      <trkpt lat="46.70789" lon="15.77536">
        <ele>249.846868</ele>
        <time>2026-07-09T13:45:04.000Z</time>
      </trkpt>
      <trkpt lat="46.70786" lon="15.77517">
        <ele>249.710266</ele>
        <time>2026-07-09T13:45:08.000Z</time>
      </trkpt>
      <trkpt lat="46.7078" lon="15.77481">
        <ele>249.455677</ele>
        <time>2026-07-09T13:45:15.000Z</time>
      </trkpt>
      <trkpt lat="46.70776" lon="15.77445">
        <ele>249.204118</ele>
        <time>2026-07-09T13:45:22.000Z</time>
      </trkpt>
      <trkpt lat="46.70764" lon="15.77393">
        <ele>248.825403</ele>
        <time>2026-07-09T13:45:31.000Z</time>
      </trkpt>
      <trkpt lat="46.70758" lon="15.77352">
        <ele>248.532092</ele>
        <time>2026-07-09T13:45:37.000Z</time>
      </trkpt>
      <trkpt lat="46.70757" lon="15.77345">
        <ele>248.485148</ele>
        <time>2026-07-09T13:45:38.000Z</time>
      </trkpt>
      <trkpt lat="46.70757" lon="15.77338">
        <ele>248.43735</ele>
        <time>2026-07-09T13:45:39.000Z</time>
      </trkpt>
      <trkpt lat="46.70753" lon="15.77304">
        <ele>248.198699</ele>
        <time>2026-07-09T13:45:44.000Z</time>
      </trkpt>
      <trkpt lat="46.7075" lon="15.77274">
        <ele>247.49907</ele>
        <time>2026-07-09T13:45:48.000Z</time>
      </trkpt>
      <trkpt lat="46.70745" lon="15.77213">
        <ele>245.866235</ele>
        <time>2026-07-09T13:45:56.000Z</time>
      </trkpt>
      <trkpt lat="46.70739" lon="15.77166">
        <ele>244.613196</ele>
        <time>2026-07-09T13:46:03.000Z</time>
      </trkpt>
      <trkpt lat="46.70737" lon="15.7716">
        <ele>244.456461</ele>
        <time>2026-07-09T13:46:04.000Z</time>
      </trkpt>
      <trkpt lat="46.70734" lon="15.77149">
        <ele>244.133581</ele>
        <time>2026-07-09T13:46:06.000Z</time>
      </trkpt>
      <trkpt lat="46.70728" lon="15.77138">
        <ele>243.767078</ele>
        <time>2026-07-09T13:46:08.000Z</time>
      </trkpt>
      <trkpt lat="46.70726" lon="15.77131">
        <ele>243.573995</ele>
        <time>2026-07-09T13:46:09.000Z</time>
      </trkpt>
      <trkpt lat="46.70723" lon="15.77109">
        <ele>242.985194</ele>
        <time>2026-07-09T13:46:12.000Z</time>
      </trkpt>
      <trkpt lat="46.70718" lon="15.77095">
        <ele>242.57344</ele>
        <time>2026-07-09T13:46:14.000Z</time>
      </trkpt>
      <trkpt lat="46.70714" lon="15.77082">
        <ele>242.172459</ele>
        <time>2026-07-09T13:46:16.000Z</time>
      </trkpt>
      <trkpt lat="46.70712" lon="15.77067">
        <ele>241.782388</ele>
        <time>2026-07-09T13:46:18.000Z</time>
      </trkpt>
      <trkpt lat="46.70706" lon="15.77014">
        <ele>241.081841</ele>
        <time>2026-07-09T13:46:26.000Z</time>
      </trkpt>
      <trkpt lat="46.70705" lon="15.77008">
        <ele>241.047534</ele>
        <time>2026-07-09T13:46:27.000Z</time>
      </trkpt>
      <trkpt lat="46.70702" lon="15.76982">
        <ele>240.904725</ele>
        <time>2026-07-09T13:46:31.000Z</time>
      </trkpt>
      <trkpt lat="46.70701" lon="15.76969">
        <ele>240.828115</ele>
        <time>2026-07-09T13:46:33.000Z</time>
      </trkpt>
      <trkpt lat="46.70696" lon="15.76949">
        <ele>240.710095</ele>
        <time>2026-07-09T13:46:36.000Z</time>
      </trkpt>
      <trkpt lat="46.70693" lon="15.76942">
        <ele>240.667753</ele>
        <time>2026-07-09T13:46:37.000Z</time>
      </trkpt>
      <trkpt lat="46.70689" lon="15.76936">
        <ele>240.626577</ele>
        <time>2026-07-09T13:46:38.000Z</time>
      </trkpt>
      <trkpt lat="46.70672" lon="15.76918">
        <ele>240.451935</ele>
        <time>2026-07-09T13:46:42.000Z</time>
      </trkpt>
      <trkpt lat="46.70662" lon="15.76908">
        <ele>240.359525</ele>
        <time>2026-07-09T13:46:44.000Z</time>
      </trkpt>
      <trkpt lat="46.70648" lon="15.76885">
        <ele>240.188824</ele>
        <time>2026-07-09T13:46:48.000Z</time>
      </trkpt>
      <trkpt lat="46.7063" lon="15.76839">
        <ele>239.89596</ele>
        <time>2026-07-09T13:46:55.000Z</time>
      </trkpt>
      <trkpt lat="46.70606" lon="15.76788">
        <ele>239.588465</ele>
        <time>2026-07-09T13:47:03.000Z</time>
      </trkpt>
      <trkpt lat="46.70589" lon="15.7674">
        <ele>239.320607</ele>
        <time>2026-07-09T13:47:10.000Z</time>
      </trkpt>
      <trkpt lat="46.70577" lon="15.76704">
        <ele>239.125601</ele>
        <time>2026-07-09T13:47:15.000Z</time>
      </trkpt>
      <trkpt lat="46.7057" lon="15.76681">
        <ele>239.00791</ele>
        <time>2026-07-09T13:47:18.000Z</time>
      </trkpt>
      <trkpt lat="46.7055" lon="15.76615">
        <ele>238.653869</ele>
        <time>2026-07-09T13:47:27.000Z</time>
      </trkpt>
      <trkpt lat="46.70543" lon="15.76594">
        <ele>238.534897</ele>
        <time>2026-07-09T13:47:30.000Z</time>
      </trkpt>
      <trkpt lat="46.70533" lon="15.76575">
        <ele>238.344716</ele>
        <time>2026-07-09T13:47:33.000Z</time>
      </trkpt>
      <trkpt lat="46.70516" lon="15.76553">
        <ele>238.083577</ele>
        <time>2026-07-09T13:47:37.000Z</time>
      </trkpt>
      <trkpt lat="46.70503" lon="15.7654">
        <ele>237.894438</ele>
        <time>2026-07-09T13:47:40.000Z</time>
      </trkpt>
      <trkpt lat="46.70475" lon="15.76517">
        <ele>237.525492</ele>
        <time>2026-07-09T13:47:46.000Z</time>
      </trkpt>
      <trkpt lat="46.70471" lon="15.76513">
        <ele>237.468118</ele>
        <time>2026-07-09T13:47:47.000Z</time>
      </trkpt>
      <trkpt lat="46.70439" lon="15.76488">
        <ele>237.038397</ele>
        <time>2026-07-09T13:47:54.000Z</time>
      </trkpt>
      <trkpt lat="46.7041" lon="15.76454">
        <ele>236.608584</ele>
        <time>2026-07-09T13:48:01.000Z</time>
      </trkpt>
      <trkpt lat="46.70406" lon="15.76448">
        <ele>236.545486</ele>
        <time>2026-07-09T13:48:02.000Z</time>
      </trkpt>
      <trkpt lat="46.70389" lon="15.76417">
        <ele>236.501267</ele>
        <time>2026-07-09T13:48:07.000Z</time>
      </trkpt>
      <trkpt lat="46.70366" lon="15.76364">
        <ele>236.609129</ele>
        <time>2026-07-09T13:48:15.000Z</time>
      </trkpt>
      <trkpt lat="46.70354" lon="15.76339">
        <ele>236.661332</ele>
        <time>2026-07-09T13:48:19.000Z</time>
      </trkpt>
      <trkpt lat="46.70343" lon="15.76312">
        <ele>236.71707</ele>
        <time>2026-07-09T13:48:23.000Z</time>
      </trkpt>
      <trkpt lat="46.70332" lon="15.76286">
        <ele>236.769656</ele>
        <time>2026-07-09T13:48:27.000Z</time>
      </trkpt>
      <trkpt lat="46.7032" lon="15.76251">
        <ele>236.836863</ele>
        <time>2026-07-09T13:48:32.000Z</time>
      </trkpt>
      <trkpt lat="46.70311" lon="15.76215">
        <ele>236.903141</ele>
        <time>2026-07-09T13:48:37.000Z</time>
      </trkpt>
      <trkpt lat="46.70305" lon="15.76184">
        <ele>236.975692</ele>
        <time>2026-07-09T13:48:41.000Z</time>
      </trkpt>
      <trkpt lat="46.70288" lon="15.76119">
        <ele>237.136682</ele>
        <time>2026-07-09T13:48:50.000Z</time>
      </trkpt>
      <trkpt lat="46.70263" lon="15.76052">
        <ele>237.314003</ele>
        <time>2026-07-09T13:49:00.000Z</time>
      </trkpt>
      <trkpt lat="46.70242" lon="15.76002">
        <ele>237.449068</ele>
        <time>2026-07-09T13:49:08.000Z</time>
      </trkpt>
      <trkpt lat="46.70224" lon="15.75953">
        <ele>237.63044</ele>
        <time>2026-07-09T13:49:15.000Z</time>
      </trkpt>
      <trkpt lat="46.70208" lon="15.75885">
        <ele>237.934623</ele>
        <time>2026-07-09T13:49:24.000Z</time>
      </trkpt>
      <trkpt lat="46.70207" lon="15.75878">
        <ele>237.966993</ele>
        <time>2026-07-09T13:49:25.000Z</time>
      </trkpt>
      <trkpt lat="46.70205" lon="15.75842">
        <ele>238.118748</ele>
        <time>2026-07-09T13:49:30.000Z</time>
      </trkpt>
      <trkpt lat="46.70206" lon="15.75789">
        <ele>238.345057</ele>
        <time>2026-07-09T13:49:38.000Z</time>
      </trkpt>
      <trkpt lat="46.70205" lon="15.75719">
        <ele>238.585813</ele>
        <time>2026-07-09T13:49:48.000Z</time>
      </trkpt>
      <trkpt lat="46.70203" lon="15.75662">
        <ele>238.103032</ele>
        <time>2026-07-09T13:49:56.000Z</time>
      </trkpt>
      <trkpt lat="46.70201" lon="15.75596">
        <ele>237.54473</ele>
        <time>2026-07-09T13:50:05.000Z</time>
      </trkpt>
      <trkpt lat="46.70201" lon="15.75529">
        <ele>236.977442</ele>
        <time>2026-07-09T13:50:14.000Z</time>
      </trkpt>
      <trkpt lat="46.70201" lon="15.75521">
        <ele>236.909729</ele>
        <time>2026-07-09T13:50:15.000Z</time>
      </trkpt>
      <trkpt lat="46.70199" lon="15.75481">
        <ele>236.577605</ele>
        <time>2026-07-09T13:50:20.000Z</time>
      </trkpt>
      <trkpt lat="46.70192" lon="15.75398">
        <ele>236.322808</ele>
        <time>2026-07-09T13:50:30.000Z</time>
      </trkpt>
      <trkpt lat="46.70187" lon="15.75353">
        <ele>236.260827</ele>
        <time>2026-07-09T13:50:36.000Z</time>
      </trkpt>
      <trkpt lat="46.70176" lon="15.75291">
        <ele>236.174682</ele>
        <time>2026-07-09T13:50:44.000Z</time>
      </trkpt>
      <trkpt lat="46.70165" lon="15.75217">
        <ele>236.072656</ele>
        <time>2026-07-09T13:50:53.000Z</time>
      </trkpt>
      <trkpt lat="46.70161" lon="15.75161">
        <ele>236.061142</ele>
        <time>2026-07-09T13:51:00.000Z</time>
      </trkpt>
      <trkpt lat="46.70161" lon="15.75153">
        <ele>236.062165</ele>
        <time>2026-07-09T13:51:01.000Z</time>
      </trkpt>
      <trkpt lat="46.70168" lon="15.75089">
        <ele>236.070777</ele>
        <time>2026-07-09T13:51:09.000Z</time>
      </trkpt>
      <trkpt lat="46.70169" lon="15.75081">
        <ele>236.071898</ele>
        <time>2026-07-09T13:51:10.000Z</time>
      </trkpt>
      <trkpt lat="46.7017" lon="15.75041">
        <ele>236.077206</ele>
        <time>2026-07-09T13:51:15.000Z</time>
      </trkpt>
      <trkpt lat="46.70171" lon="15.75012">
        <ele>236.081076</ele>
        <time>2026-07-09T13:51:19.000Z</time>
      </trkpt>
      <trkpt lat="46.70174" lon="15.74935">
        <ele>236.053111</ele>
        <time>2026-07-09T13:51:29.000Z</time>
      </trkpt>
      <trkpt lat="46.70178" lon="15.74896">
        <ele>235.864725</ele>
        <time>2026-07-09T13:51:34.000Z</time>
      </trkpt>
      <trkpt lat="46.7018" lon="15.74888">
        <ele>235.824595</ele>
        <time>2026-07-09T13:51:35.000Z</time>
      </trkpt>
      <trkpt lat="46.70198" lon="15.74844">
        <ele>235.583538</ele>
        <time>2026-07-09T13:51:41.000Z</time>
      </trkpt>
      <trkpt lat="46.70221" lon="15.74788">
        <ele>235.276088</ele>
        <time>2026-07-09T13:51:49.000Z</time>
      </trkpt>
      <trkpt lat="46.70228" lon="15.74766">
        <ele>235.161788</ele>
        <time>2026-07-09T13:51:52.000Z</time>
      </trkpt>
      <trkpt lat="46.70229" lon="15.74759">
        <ele>235.126971</ele>
        <time>2026-07-09T13:51:53.000Z</time>
      </trkpt>
      <trkpt lat="46.70231" lon="15.74751">
        <ele>235.089954</ele>
        <time>2026-07-09T13:51:54.000Z</time>
      </trkpt>
      <trkpt lat="46.70244" lon="15.74698">
        <ele>234.869834</ele>
        <time>2026-07-09T13:52:01.000Z</time>
      </trkpt>
      <trkpt lat="46.70258" lon="15.74624">
        <ele>235.054822</ele>
        <time>2026-07-09T13:52:10.000Z</time>
      </trkpt>
      <trkpt lat="46.70264" lon="15.74581">
        <ele>235.161055</ele>
        <time>2026-07-09T13:52:15.000Z</time>
      </trkpt>
      <trkpt lat="46.70265" lon="15.74514">
        <ele>235.320807</ele>
        <time>2026-07-09T13:52:23.000Z</time>
      </trkpt>
      <trkpt lat="46.70262" lon="15.74446">
        <ele>235.486448</ele>
        <time>2026-07-09T13:52:32.000Z</time>
      </trkpt>
      <trkpt lat="46.70259" lon="15.74364">
        <ele>235.81031</ele>
        <time>2026-07-09T13:52:42.000Z</time>
      </trkpt>
      <trkpt lat="46.7026" lon="15.74308">
        <ele>236.031914</ele>
        <time>2026-07-09T13:52:49.000Z</time>
      </trkpt>
      <trkpt lat="46.70259" lon="15.74251">
        <ele>236.259055</ele>
        <time>2026-07-09T13:52:56.000Z</time>
      </trkpt>
      <trkpt lat="46.70253" lon="15.74185">
        <ele>236.52039</ele>
        <time>2026-07-09T13:53:04.000Z</time>
      </trkpt>
      <trkpt lat="46.70251" lon="15.74155">
        <ele>236.334605</ele>
        <time>2026-07-09T13:53:08.000Z</time>
      </trkpt>
      <trkpt lat="46.70246" lon="15.74134">
        <ele>236.19112</ele>
        <time>2026-07-09T13:53:11.000Z</time>
      </trkpt>
      <trkpt lat="46.70234" lon="15.7408">
        <ele>235.826225</ele>
        <time>2026-07-09T13:53:18.000Z</time>
      </trkpt>
      <trkpt lat="46.7022" lon="15.74025">
        <ele>235.448474</ele>
        <time>2026-07-09T13:53:25.000Z</time>
      </trkpt>
      <trkpt lat="46.70216" lon="15.7401">
        <ele>235.34551</ele>
        <time>2026-07-09T13:53:27.000Z</time>
      </trkpt>
      <trkpt lat="46.70208" lon="15.73982">
        <ele>235.151287</ele>
        <time>2026-07-09T13:53:31.000Z</time>
      </trkpt>
      <trkpt lat="46.70205" lon="15.73967">
        <ele>235.054958</ele>
        <time>2026-07-09T13:53:33.000Z</time>
      </trkpt>
      <trkpt lat="46.70196" lon="15.73902">
        <ele>235.008369</ele>
        <time>2026-07-09T13:53:41.000Z</time>
      </trkpt>
      <trkpt lat="46.70191" lon="15.73841">
        <ele>235.320547</ele>
        <time>2026-07-09T13:53:48.000Z</time>
      </trkpt>
      <trkpt lat="46.70187" lon="15.73764">
        <ele>235.715216</ele>
        <time>2026-07-09T13:53:57.000Z</time>
      </trkpt>
      <trkpt lat="46.70176" lon="15.73704">
        <ele>236.031971</ele>
        <time>2026-07-09T13:54:04.000Z</time>
      </trkpt>
      <trkpt lat="46.70157" lon="15.7365">
        <ele>236.301627</ele>
        <time>2026-07-09T13:54:11.000Z</time>
      </trkpt>
      <trkpt lat="46.70141" lon="15.73597">
        <ele>236.522954</ele>
        <time>2026-07-09T13:54:18.000Z</time>
      </trkpt>
      <trkpt lat="46.70139" lon="15.73589">
        <ele>236.55666</ele>
        <time>2026-07-09T13:54:19.000Z</time>
      </trkpt>
      <trkpt lat="46.70133" lon="15.73537">
        <ele>236.756486</ele>
        <time>2026-07-09T13:54:25.000Z</time>
      </trkpt>
      <trkpt lat="46.70134" lon="15.73495">
        <ele>236.921238</ele>
        <time>2026-07-09T13:54:30.000Z</time>
      </trkpt>
      <trkpt lat="46.70136" lon="15.73479">
        <ele>236.983257</ele>
        <time>2026-07-09T13:54:32.000Z</time>
      </trkpt>
      <trkpt lat="46.70137" lon="15.73442">
        <ele>237.125811</ele>
        <time>2026-07-09T13:54:37.000Z</time>
      </trkpt>
      <trkpt lat="46.70137" lon="15.7341">
        <ele>237.290496</ele>
        <time>2026-07-09T13:54:41.000Z</time>
      </trkpt>
      <trkpt lat="46.70136" lon="15.73394">
        <ele>237.399587</ele>
        <time>2026-07-09T13:54:43.000Z</time>
      </trkpt>
      <trkpt lat="46.70135" lon="15.73385">
        <ele>237.455443</ele>
        <time>2026-07-09T13:54:44.000Z</time>
      </trkpt>
      <trkpt lat="46.7013" lon="15.73353">
        <ele>237.673808</ele>
        <time>2026-07-09T13:54:48.000Z</time>
      </trkpt>
      <trkpt lat="46.70119" lon="15.73282">
        <ele>238.153857</ele>
        <time>2026-07-09T13:54:57.000Z</time>
      </trkpt>
      <trkpt lat="46.70106" lon="15.73208">
        <ele>238.659313</ele>
        <time>2026-07-09T13:55:06.000Z</time>
      </trkpt>
      <trkpt lat="46.70097" lon="15.73169">
        <ele>238.955061</ele>
        <time>2026-07-09T13:55:11.000Z</time>
      </trkpt>
      <trkpt lat="46.70092" lon="15.73155">
        <ele>239.190988</ele>
        <time>2026-07-09T13:55:13.000Z</time>
      </trkpt>
      <trkpt lat="46.70084" lon="15.73122">
        <ele>239.734924</ele>
        <time>2026-07-09T13:55:18.000Z</time>
      </trkpt>
      <trkpt lat="46.70082" lon="15.73111">
        <ele>239.911079</ele>
        <time>2026-07-09T13:55:20.000Z</time>
      </trkpt>
      <trkpt lat="46.70068" lon="15.73105">
        <ele>240.219189</ele>
        <time>2026-07-09T13:55:23.000Z</time>
      </trkpt>
      <trkpt lat="46.7006" lon="15.7311">
        <ele>240.433207</ele>
        <time>2026-07-09T13:55:25.000Z</time>
      </trkpt>
      <trkpt lat="46.7005" lon="15.73117">
        <ele>240.66206</ele>
        <time>2026-07-09T13:55:27.000Z</time>
      </trkpt>
      <trkpt lat="46.70046" lon="15.73121">
        <ele>240.78115</ele>
        <time>2026-07-09T13:55:28.000Z</time>
      </trkpt>
      <trkpt lat="46.70037" lon="15.73129">
        <ele>241.025733</ele>
        <time>2026-07-09T13:55:31.000Z</time>
      </trkpt>
      <trkpt lat="46.70026" lon="15.73136">
        <ele>241.275126</ele>
        <time>2026-07-09T13:55:34.000Z</time>
      </trkpt>
      <trkpt lat="46.70017" lon="15.73142">
        <ele>241.501989</ele>
        <time>2026-07-09T13:55:36.000Z</time>
      </trkpt>
      <trkpt lat="46.69992" lon="15.7316">
        <ele>242.127337</ele>
        <time>2026-07-09T13:55:42.000Z</time>
      </trkpt>
      <trkpt lat="46.69985" lon="15.73166">
        <ele>242.315884</ele>
        <time>2026-07-09T13:55:44.000Z</time>
      </trkpt>
      <trkpt lat="46.69959" lon="15.73183">
        <ele>242.937964</ele>
        <time>2026-07-09T13:55:51.000Z</time>
      </trkpt>
      <trkpt lat="46.69946" lon="15.732">
        <ele>243.048334</ele>
        <time>2026-07-09T13:55:56.000Z</time>
      </trkpt>
      <trkpt lat="46.69942" lon="15.73202">
        <ele>243.07082</ele>
        <time>2026-07-09T13:55:57.000Z</time>
      </trkpt>
      <trkpt lat="46.69925" lon="15.73196">
        <ele>243.176914</ele>
        <time>2026-07-09T13:56:01.000Z</time>
      </trkpt>
      <trkpt lat="46.69913" lon="15.73186">
        <ele>243.261242</ele>
        <time>2026-07-09T13:56:04.000Z</time>
      </trkpt>
      <trkpt lat="46.69903" lon="15.73171">
        <ele>243.344884</ele>
        <time>2026-07-09T13:56:07.000Z</time>
      </trkpt>
      <trkpt lat="46.69892" lon="15.73157">
        <ele>243.431674</ele>
        <time>2026-07-09T13:56:10.000Z</time>
      </trkpt>
      <trkpt lat="46.69884" lon="15.73138">
        <ele>243.522041</ele>
        <time>2026-07-09T13:56:13.000Z</time>
      </trkpt>
      <trkpt lat="46.69866" lon="15.73075">
        <ele>243.804834</ele>
        <time>2026-07-09T13:56:23.000Z</time>
      </trkpt>
      <trkpt lat="46.69858" lon="15.73041">
        <ele>243.952495</ele>
        <time>2026-07-09T13:56:28.000Z</time>
      </trkpt>
      <trkpt lat="46.69854" lon="15.73026">
        <ele>244.016314</ele>
        <time>2026-07-09T13:56:30.000Z</time>
      </trkpt>
      <trkpt lat="46.69843" lon="15.72988">
        <ele>244.004992</ele>
        <time>2026-07-09T13:56:35.000Z</time>
      </trkpt>
      <trkpt lat="46.69837" lon="15.72966">
        <ele>243.997459</ele>
        <time>2026-07-09T13:56:38.000Z</time>
      </trkpt>
      <trkpt lat="46.69826" lon="15.72927">
        <ele>243.984044</ele>
        <time>2026-07-09T13:56:44.000Z</time>
      </trkpt>
      <trkpt lat="46.69814" lon="15.72892">
        <ele>243.971433</ele>
        <time>2026-07-09T13:56:51.000Z</time>
      </trkpt>
      <trkpt lat="46.6981" lon="15.72882">
        <ele>243.967505</ele>
        <time>2026-07-09T13:56:53.000Z</time>
      </trkpt>
      <trkpt lat="46.69801" lon="15.72852">
        <ele>243.957221</ele>
        <time>2026-07-09T13:56:58.000Z</time>
      </trkpt>
      <trkpt lat="46.69787" lon="15.72808">
        <ele>243.941793</ele>
        <time>2026-07-09T13:57:05.000Z</time>
      </trkpt>
      <trkpt lat="46.6978" lon="15.72788">
        <ele>243.934562</ele>
        <time>2026-07-09T13:57:08.000Z</time>
      </trkpt>
      <trkpt lat="46.69773" lon="15.72774">
        <ele>243.726743</ele>
        <time>2026-07-09T13:57:10.000Z</time>
      </trkpt>
      <trkpt lat="46.6977" lon="15.72767">
        <ele>243.615976</ele>
        <time>2026-07-09T13:57:11.000Z</time>
      </trkpt>
      <trkpt lat="46.69745" lon="15.72692">
        <ele>242.516816</ele>
        <time>2026-07-09T13:57:21.000Z</time>
      </trkpt>
      <trkpt lat="46.69734" lon="15.72632">
        <ele>241.699294</ele>
        <time>2026-07-09T13:57:28.000Z</time>
      </trkpt>
      <trkpt lat="46.69727" lon="15.72567">
        <ele>240.842703</ele>
        <time>2026-07-09T13:57:36.000Z</time>
      </trkpt>
      <trkpt lat="46.69722" lon="15.72514">
        <ele>240.536733</ele>
        <time>2026-07-09T13:57:43.000Z</time>
      </trkpt>
      <trkpt lat="46.69721" lon="15.72498">
        <ele>240.560442</ele>
        <time>2026-07-09T13:57:45.000Z</time>
      </trkpt>
      <trkpt lat="46.6972" lon="15.72468">
        <ele>240.604975</ele>
        <time>2026-07-09T13:57:49.000Z</time>
      </trkpt>
      <trkpt lat="46.69717" lon="15.72427">
        <ele>240.66436</ele>
        <time>2026-07-09T13:57:54.000Z</time>
      </trkpt>
      <trkpt lat="46.69717" lon="15.72419">
        <ele>240.676068</ele>
        <time>2026-07-09T13:57:55.000Z</time>
      </trkpt>
      <trkpt lat="46.69714" lon="15.72364">
        <ele>240.757213</ele>
        <time>2026-07-09T13:58:02.000Z</time>
      </trkpt>
      <trkpt lat="46.69714" lon="15.72356">
        <ele>240.76867</ele>
        <time>2026-07-09T13:58:03.000Z</time>
      </trkpt>
      <trkpt lat="46.6971" lon="15.72291">
        <ele>240.863677</ele>
        <time>2026-07-09T13:58:11.000Z</time>
      </trkpt>
      <trkpt lat="46.69705" lon="15.72235">
        <ele>241.045594</ele>
        <time>2026-07-09T13:58:18.000Z</time>
      </trkpt>
      <trkpt lat="46.69697" lon="15.72177">
        <ele>241.259208</ele>
        <time>2026-07-09T13:58:25.000Z</time>
      </trkpt>
      <trkpt lat="46.69687" lon="15.72128">
        <ele>241.442562</ele>
        <time>2026-07-09T13:58:31.000Z</time>
      </trkpt>
      <trkpt lat="46.69677" lon="15.72072">
        <ele>241.653619</ele>
        <time>2026-07-09T13:58:38.000Z</time>
      </trkpt>
      <trkpt lat="46.69675" lon="15.72014">
        <ele>241.728618</ele>
        <time>2026-07-09T13:58:45.000Z</time>
      </trkpt>
      <trkpt lat="46.69681" lon="15.71938">
        <ele>240.882234</ele>
        <time>2026-07-09T13:58:54.000Z</time>
      </trkpt>
      <trkpt lat="46.69685" lon="15.71874">
        <ele>240.175257</ele>
        <time>2026-07-09T13:59:02.000Z</time>
      </trkpt>
      <trkpt lat="46.69686" lon="15.71866">
        <ele>240.090755</ele>
        <time>2026-07-09T13:59:03.000Z</time>
      </trkpt>
      <trkpt lat="46.69691" lon="15.71852">
        <ele>239.919362</ele>
        <time>2026-07-09T13:59:05.000Z</time>
      </trkpt>
      <trkpt lat="46.69693" lon="15.71845">
        <ele>239.834356</ele>
        <time>2026-07-09T13:59:06.000Z</time>
      </trkpt>
      <trkpt lat="46.69696" lon="15.71839">
        <ele>239.747996</ele>
        <time>2026-07-09T13:59:07.000Z</time>
      </trkpt>
      <trkpt lat="46.69703" lon="15.71827">
        <ele>239.574806</ele>
        <time>2026-07-09T13:59:09.000Z</time>
      </trkpt>
      <trkpt lat="46.69712" lon="15.71816">
        <ele>239.392674</ele>
        <time>2026-07-09T13:59:11.000Z</time>
      </trkpt>
      <trkpt lat="46.69745" lon="15.71784">
        <ele>239.091973</ele>
        <time>2026-07-09T13:59:18.000Z</time>
      </trkpt>
      <trkpt lat="46.69787" lon="15.71743">
        <ele>239.791694</ele>
        <time>2026-07-09T13:59:27.000Z</time>
      </trkpt>
      <trkpt lat="46.69828" lon="15.71685">
        <ele>240.581487</ele>
        <time>2026-07-09T13:59:37.000Z</time>
      </trkpt>
      <trkpt lat="46.69871" lon="15.71627">
        <ele>241.384337</ele>
        <time>2026-07-09T13:59:47.000Z</time>
      </trkpt>
      <trkpt lat="46.69895" lon="15.71581">
        <ele>241.221533</ele>
        <time>2026-07-09T13:59:54.000Z</time>
      </trkpt>
      <trkpt lat="46.69912" lon="15.71529">
        <ele>241.02148</ele>
        <time>2026-07-09T14:00:01.000Z</time>
      </trkpt>
      <trkpt lat="46.69915" lon="15.71504">
        <ele>240.935059</ele>
        <time>2026-07-09T14:00:04.000Z</time>
      </trkpt>
      <trkpt lat="46.69913" lon="15.71487">
        <ele>240.874476</ele>
        <time>2026-07-09T14:00:06.000Z</time>
      </trkpt>
      <trkpt lat="46.69902" lon="15.71446">
        <ele>240.723792</ele>
        <time>2026-07-09T14:00:11.000Z</time>
      </trkpt>
      <trkpt lat="46.69901" lon="15.71438">
        <ele>240.694315</ele>
        <time>2026-07-09T14:00:12.000Z</time>
      </trkpt>
      <trkpt lat="46.69899" lon="15.71388">
        <ele>240.519206</ele>
        <time>2026-07-09T14:00:18.000Z</time>
      </trkpt>
      <trkpt lat="46.69908" lon="15.71322">
        <ele>240.706661</ele>
        <time>2026-07-09T14:00:26.000Z</time>
      </trkpt>
      <trkpt lat="46.6992" lon="15.71292">
        <ele>240.818898</ele>
        <time>2026-07-09T14:00:29.000Z</time>
      </trkpt>
      <trkpt lat="46.69924" lon="15.71286">
        <ele>240.846349</ele>
        <time>2026-07-09T14:00:31.000Z</time>
      </trkpt>
      <trkpt lat="46.69933" lon="15.71276">
        <ele>240.900576</ele>
        <time>2026-07-09T14:00:33.000Z</time>
      </trkpt>
      <trkpt lat="46.69944" lon="15.7127">
        <ele>240.95519</ele>
        <time>2026-07-09T14:00:35.000Z</time>
      </trkpt>
      <trkpt lat="46.69981" lon="15.71269">
        <ele>241.130116</ele>
        <time>2026-07-09T14:00:41.000Z</time>
      </trkpt>
      <trkpt lat="46.70016" lon="15.71271">
        <ele>241.294724</ele>
        <time>2026-07-09T14:00:47.000Z</time>
      </trkpt>
      <trkpt lat="46.70021" lon="15.71272">
        <ele>241.321004</ele>
        <time>2026-07-09T14:00:48.000Z</time>
      </trkpt>
      <trkpt lat="46.70075" lon="15.71277">
        <ele>242.030959</ele>
        <time>2026-07-09T14:00:57.000Z</time>
      </trkpt>
      <trkpt lat="46.70134" lon="15.71276">
        <ele>242.8885</ele>
        <time>2026-07-09T14:01:07.000Z</time>
      </trkpt>
      <trkpt lat="46.7014" lon="15.71275">
        <ele>242.972366</ele>
        <time>2026-07-09T14:01:08.000Z</time>
      </trkpt>
      <trkpt lat="46.7018" lon="15.71272">
        <ele>243.547846</ele>
        <time>2026-07-09T14:01:15.000Z</time>
      </trkpt>
      <trkpt lat="46.70191" lon="15.71271">
        <ele>243.708585</ele>
        <time>2026-07-09T14:01:17.000Z</time>
      </trkpt>
      <trkpt lat="46.70201" lon="15.7127">
        <ele>243.857291</ele>
        <time>2026-07-09T14:01:19.000Z</time>
      </trkpt>
      <trkpt lat="46.70218" lon="15.71266">
        <ele>244.289171</ele>
        <time>2026-07-09T14:01:22.000Z</time>
      </trkpt>
      <trkpt lat="46.70234" lon="15.71263">
        <ele>244.817336</ele>
        <time>2026-07-09T14:01:25.000Z</time>
      </trkpt>
      <trkpt lat="46.70245" lon="15.71259">
        <ele>245.161896</ele>
        <time>2026-07-09T14:01:27.000Z</time>
      </trkpt>
      <trkpt lat="46.70262" lon="15.71253">
        <ele>245.730575</ele>
        <time>2026-07-09T14:01:30.000Z</time>
      </trkpt>
      <trkpt lat="46.70272" lon="15.71249">
        <ele>246.070345</ele>
        <time>2026-07-09T14:01:32.000Z</time>
      </trkpt>
      <trkpt lat="46.70294" lon="15.71241">
        <ele>246.82318</ele>
        <time>2026-07-09T14:01:36.000Z</time>
      </trkpt>
      <trkpt lat="46.70305" lon="15.71237">
        <ele>247.178151</ele>
        <time>2026-07-09T14:01:38.000Z</time>
      </trkpt>
      <trkpt lat="46.7032" lon="15.7123">
        <ele>247.700927</ele>
        <time>2026-07-09T14:01:41.000Z</time>
      </trkpt>
      <trkpt lat="46.70339" lon="15.71226">
        <ele>248.311885</ele>
        <time>2026-07-09T14:01:44.000Z</time>
      </trkpt>
      <trkpt lat="46.70351" lon="15.71222">
        <ele>248.704306</ele>
        <time>2026-07-09T14:01:46.000Z</time>
      </trkpt>
      <trkpt lat="46.70393" lon="15.71221">
        <ele>249.859823</ele>
        <time>2026-07-09T14:01:53.000Z</time>
      </trkpt>
      <trkpt lat="46.70429" lon="15.71226">
        <ele>250.222343</ele>
        <time>2026-07-09T14:02:00.000Z</time>
      </trkpt>
      <trkpt lat="46.7045" lon="15.71229">
        <ele>250.438897</ele>
        <time>2026-07-09T14:02:05.000Z</time>
      </trkpt>
      <trkpt lat="46.70457" lon="15.7122">
        <ele>250.528567</ele>
        <time>2026-07-09T14:02:07.000Z</time>
      </trkpt>
      <trkpt lat="46.70458" lon="15.71213">
        <ele>250.579516</ele>
        <time>2026-07-09T14:02:08.000Z</time>
      </trkpt>
      <trkpt lat="46.70459" lon="15.71206">
        <ele>250.633367</ele>
        <time>2026-07-09T14:02:09.000Z</time>
      </trkpt>
      <trkpt lat="46.70459" lon="15.7119">
        <ele>250.743644</ele>
        <time>2026-07-09T14:02:11.000Z</time>
      </trkpt>
      <trkpt lat="46.70458" lon="15.71173">
        <ele>250.863409</ele>
        <time>2026-07-09T14:02:13.000Z</time>
      </trkpt>
      <trkpt lat="46.70459" lon="15.71147">
        <ele>251.037533</ele>
        <time>2026-07-09T14:02:16.000Z</time>
      </trkpt>
      <trkpt lat="46.70461" lon="15.71131">
        <ele>251.157398</ele>
        <time>2026-07-09T14:02:18.000Z</time>
      </trkpt>
      <trkpt lat="46.70463" lon="15.71123">
        <ele>251.216094</ele>
        <time>2026-07-09T14:02:19.000Z</time>
      </trkpt>
      <trkpt lat="46.70465" lon="15.71115">
        <ele>251.27479</ele>
        <time>2026-07-09T14:02:20.000Z</time>
      </trkpt>
      <trkpt lat="46.70473" lon="15.71094">
        <ele>251.435138</ele>
        <time>2026-07-09T14:02:23.000Z</time>
      </trkpt>
      <trkpt lat="46.70476" lon="15.71088">
        <ele>251.490051</ele>
        <time>2026-07-09T14:02:24.000Z</time>
      </trkpt>
      <trkpt lat="46.70483" lon="15.71076">
        <ele>251.558994</ele>
        <time>2026-07-09T14:02:26.000Z</time>
      </trkpt>
      <trkpt lat="46.70493" lon="15.71067">
        <ele>251.385553</ele>
        <time>2026-07-09T14:02:28.000Z</time>
      </trkpt>
      <trkpt lat="46.70498" lon="15.71062">
        <ele>251.296067</ele>
        <time>2026-07-09T14:02:29.000Z</time>
      </trkpt>
      <trkpt lat="46.70507" lon="15.71049">
        <ele>251.109666</ele>
        <time>2026-07-09T14:02:31.000Z</time>
      </trkpt>
      <trkpt lat="46.70511" lon="15.71041">
        <ele>251.019018</ele>
        <time>2026-07-09T14:02:32.000Z</time>
      </trkpt>
      <trkpt lat="46.70514" lon="15.71033">
        <ele>250.924382</ele>
        <time>2026-07-09T14:02:33.000Z</time>
      </trkpt>
      <trkpt lat="46.70518" lon="15.71015">
        <ele>250.741009</ele>
        <time>2026-07-09T14:02:35.000Z</time>
      </trkpt>
      <trkpt lat="46.70519" lon="15.71007">
        <ele>250.654835</ele>
        <time>2026-07-09T14:02:36.000Z</time>
      </trkpt>
      <trkpt lat="46.70522" lon="15.70976">
        <ele>250.343199</ele>
        <time>2026-07-09T14:02:40.000Z</time>
      </trkpt>
      <trkpt lat="46.70528" lon="15.70963">
        <ele>250.18332</ele>
        <time>2026-07-09T14:02:42.000Z</time>
      </trkpt>
      <trkpt lat="46.70545" lon="15.7091">
        <ele>249.598989</ele>
        <time>2026-07-09T14:02:49.000Z</time>
      </trkpt>
      <trkpt lat="46.70542" lon="15.7089">
        <ele>249.399614</ele>
        <time>2026-07-09T14:02:51.000Z</time>
      </trkpt>
      <trkpt lat="46.70539" lon="15.70873">
        <ele>249.229694</ele>
        <time>2026-07-09T14:02:53.000Z</time>
      </trkpt>
      <trkpt lat="46.70538" lon="15.70855">
        <ele>249.049505</ele>
        <time>2026-07-09T14:02:55.000Z</time>
      </trkpt>
      <trkpt lat="46.70532" lon="15.70825">
        <ele>249.159187</ele>
        <time>2026-07-09T14:02:59.000Z</time>
      </trkpt>
      <trkpt lat="46.70521" lon="15.70784">
        <ele>249.536306</ele>
        <time>2026-07-09T14:03:04.000Z</time>
      </trkpt>
      <trkpt lat="46.70507" lon="15.7074">
        <ele>249.951728</ele>
        <time>2026-07-09T14:03:10.000Z</time>
      </trkpt>
      <trkpt lat="46.7049" lon="15.70697">
        <ele>250.386882</ele>
        <time>2026-07-09T14:03:16.000Z</time>
      </trkpt>
      <trkpt lat="46.70469" lon="15.70656">
        <ele>250.826847</ele>
        <time>2026-07-09T14:03:22.000Z</time>
      </trkpt>
      <trkpt lat="46.70466" lon="15.70645">
        <ele>250.926338</ele>
        <time>2026-07-09T14:03:24.000Z</time>
      </trkpt>
      <trkpt lat="46.70466" lon="15.70641">
        <ele>250.966009</ele>
        <time>2026-07-09T14:03:25.000Z</time>
      </trkpt>
      <trkpt lat="46.70467" lon="15.70637">
        <ele>251.004355</ele>
        <time>2026-07-09T14:03:26.000Z</time>
      </trkpt>
      <trkpt lat="46.70474" lon="15.70632">
        <ele>251.09429</ele>
        <time>2026-07-09T14:03:28.000Z</time>
      </trkpt>
      <trkpt lat="46.70493" lon="15.70617">
        <ele>251.694468</ele>
        <time>2026-07-09T14:03:33.000Z</time>
      </trkpt>
      <trkpt lat="46.70509" lon="15.70602">
        <ele>252.457176</ele>
        <time>2026-07-09T14:03:37.000Z</time>
      </trkpt>
      <trkpt lat="46.70532" lon="15.70592">
        <ele>253.433807</ele>
        <time>2026-07-09T14:03:42.000Z</time>
      </trkpt>
      <trkpt lat="46.70537" lon="15.7059">
        <ele>253.656994</ele>
        <time>2026-07-09T14:03:43.000Z</time>
      </trkpt>
      <trkpt lat="46.70543" lon="15.70588">
        <ele>253.914358</ele>
        <time>2026-07-09T14:03:44.000Z</time>
      </trkpt>
      <trkpt lat="46.70563" lon="15.7058">
        <ele>254.752907</ele>
        <time>2026-07-09T14:03:47.000Z</time>
      </trkpt>
      <trkpt lat="46.70578" lon="15.70577">
        <ele>255.334619</ele>
        <time>2026-07-09T14:03:49.000Z</time>
      </trkpt>
      <trkpt lat="46.70589" lon="15.70577">
        <ele>255.799683</ele>
        <time>2026-07-09T14:03:51.000Z</time>
      </trkpt>
      <trkpt lat="46.70594" lon="15.70576">
        <ele>256.003745</ele>
        <time>2026-07-09T14:03:52.000Z</time>
      </trkpt>
      <trkpt lat="46.70599" lon="15.70573">
        <ele>256.21278</ele>
        <time>2026-07-09T14:03:53.000Z</time>
      </trkpt>
      <trkpt lat="46.70605" lon="15.70557">
        <ele>256.711135</ele>
        <time>2026-07-09T14:03:55.000Z</time>
      </trkpt>
      <trkpt lat="46.70605" lon="15.70525">
        <ele>257.61227</ele>
        <time>2026-07-09T14:03:59.000Z</time>
      </trkpt>
      <trkpt lat="46.70606" lon="15.70494">
        <ele>258.479209</ele>
        <time>2026-07-09T14:04:03.000Z</time>
      </trkpt>
      <trkpt lat="46.70604" lon="15.70485">
        <ele>258.15743</ele>
        <time>2026-07-09T14:04:04.000Z</time>
      </trkpt>
      <trkpt lat="46.70603" lon="15.70448">
        <ele>256.709622</ele>
        <time>2026-07-09T14:04:08.000Z</time>
      </trkpt>
      <trkpt lat="46.70607" lon="15.70434">
        <ele>256.085725</ele>
        <time>2026-07-09T14:04:10.000Z</time>
      </trkpt>
      <trkpt lat="46.70611" lon="15.70416">
        <ele>255.369825</ele>
        <time>2026-07-09T14:04:12.000Z</time>
      </trkpt>
      <trkpt lat="46.70619" lon="15.70386">
        <ele>254.099786</ele>
        <time>2026-07-09T14:04:16.000Z</time>
      </trkpt>
      <trkpt lat="46.70631" lon="15.70326">
        <ele>251.67617</ele>
        <time>2026-07-09T14:04:24.000Z</time>
      </trkpt>
      <trkpt lat="46.7064" lon="15.70255">
        <ele>248.853653</ele>
        <time>2026-07-09T14:04:33.000Z</time>
      </trkpt>
      <trkpt lat="46.70642" lon="15.70172">
        <ele>247.435611</ele>
        <time>2026-07-09T14:04:43.000Z</time>
      </trkpt>
      <trkpt lat="46.70642" lon="15.70163">
        <ele>247.336293</ele>
        <time>2026-07-09T14:04:44.000Z</time>
      </trkpt>
      <trkpt lat="46.70645" lon="15.70131">
        <ele>246.951355</ele>
        <time>2026-07-09T14:04:48.000Z</time>
      </trkpt>
      <trkpt lat="46.70649" lon="15.70116">
        <ele>246.759533</ele>
        <time>2026-07-09T14:04:50.000Z</time>
      </trkpt>
      <trkpt lat="46.70651" lon="15.70109">
        <ele>246.667414</ele>
        <time>2026-07-09T14:04:51.000Z</time>
      </trkpt>
      <trkpt lat="46.70657" lon="15.7009">
        <ele>246.418477</ele>
        <time>2026-07-09T14:04:54.000Z</time>
      </trkpt>
      <trkpt lat="46.70658" lon="15.70083">
        <ele>246.337754</ele>
        <time>2026-07-09T14:04:55.000Z</time>
      </trkpt>
      <trkpt lat="46.70658" lon="15.70076">
        <ele>246.253648</ele>
        <time>2026-07-09T14:04:56.000Z</time>
      </trkpt>
      <trkpt lat="46.70653" lon="15.70054">
        <ele>245.976172</ele>
        <time>2026-07-09T14:04:59.000Z</time>
      </trkpt>
      <trkpt lat="46.70648" lon="15.70007">
        <ele>245.419392</ele>
        <time>2026-07-09T14:05:05.000Z</time>
      </trkpt>
      <trkpt lat="46.70643" lon="15.69976">
        <ele>245.087931</ele>
        <time>2026-07-09T14:05:09.000Z</time>
      </trkpt>
      <trkpt lat="46.70636" lon="15.69946">
        <ele>244.87933</ele>
        <time>2026-07-09T14:05:13.000Z</time>
      </trkpt>
      <trkpt lat="46.70623" lon="15.69898">
        <ele>244.544377</ele>
        <time>2026-07-09T14:05:19.000Z</time>
      </trkpt>
      <trkpt lat="46.70602" lon="15.69823">
        <ele>244.0136</ele>
        <time>2026-07-09T14:05:28.000Z</time>
      </trkpt>
      <trkpt lat="46.70588" lon="15.69767">
        <ele>243.626658</ele>
        <time>2026-07-09T14:05:35.000Z</time>
      </trkpt>
      <trkpt lat="46.70586" lon="15.6976">
        <ele>243.574161</ele>
        <time>2026-07-09T14:05:36.000Z</time>
      </trkpt>
      <trkpt lat="46.7057" lon="15.69704">
        <ele>243.786119</ele>
        <time>2026-07-09T14:05:44.000Z</time>
      </trkpt>
      <trkpt lat="46.70568" lon="15.69697">
        <ele>243.853302</ele>
        <time>2026-07-09T14:05:45.000Z</time>
      </trkpt>
      <trkpt lat="46.70562" lon="15.69672">
        <ele>244.099983</ele>
        <time>2026-07-09T14:05:49.000Z</time>
      </trkpt>
      <trkpt lat="46.70558" lon="15.69657">
        <ele>244.253801</ele>
        <time>2026-07-09T14:05:52.000Z</time>
      </trkpt>
      <trkpt lat="46.70559" lon="15.69652">
        <ele>244.297119</ele>
        <time>2026-07-09T14:05:53.000Z</time>
      </trkpt>
      <trkpt lat="46.70562" lon="15.69649">
        <ele>244.349245</ele>
        <time>2026-07-09T14:05:54.000Z</time>
      </trkpt>
      <trkpt lat="46.7057" lon="15.69644">
        <ele>244.465357</ele>
        <time>2026-07-09T14:05:56.000Z</time>
      </trkpt>
      <trkpt lat="46.70588" lon="15.69639">
        <ele>244.721108</ele>
        <time>2026-07-09T14:06:00.000Z</time>
      </trkpt>
      <trkpt lat="46.70593" lon="15.69639">
        <ele>244.78791</ele>
        <time>2026-07-09T14:06:01.000Z</time>
      </trkpt>
      <trkpt lat="46.7062" lon="15.69637">
        <ele>245.145269</ele>
        <time>2026-07-09T14:06:06.000Z</time>
      </trkpt>
      <trkpt lat="46.70628" lon="15.69631">
        <ele>245.270694</ele>
        <time>2026-07-09T14:06:08.000Z</time>
      </trkpt>
      <trkpt lat="46.7063" lon="15.69618">
        <ele>245.396112</ele>
        <time>2026-07-09T14:06:10.000Z</time>
      </trkpt>
      <trkpt lat="46.70628" lon="15.69536">
        <ele>245.736003</ele>
        <time>2026-07-09T14:06:20.000Z</time>
      </trkpt>
      <trkpt lat="46.70628" lon="15.6947">
        <ele>245.420175</ele>
        <time>2026-07-09T14:06:28.000Z</time>
      </trkpt>
      <trkpt lat="46.70628" lon="15.69387">
        <ele>245.02713</ele>
        <time>2026-07-09T14:06:38.000Z</time>
      </trkpt>
      <trkpt lat="46.70626" lon="15.69307">
        <ele>244.649169</ele>
        <time>2026-07-09T14:06:48.000Z</time>
      </trkpt>
      <trkpt lat="46.70626" lon="15.6929">
        <ele>244.659478</ele>
        <time>2026-07-09T14:06:50.000Z</time>
      </trkpt>
      <trkpt lat="46.70626" lon="15.69232">
        <ele>244.75155</ele>
        <time>2026-07-09T14:06:57.000Z</time>
      </trkpt>
      <trkpt lat="46.70625" lon="15.69167">
        <ele>244.855909</ele>
        <time>2026-07-09T14:07:05.000Z</time>
      </trkpt>
      <trkpt lat="46.70625" lon="15.6912">
        <ele>244.930166</ele>
        <time>2026-07-09T14:07:11.000Z</time>
      </trkpt>
      <trkpt lat="46.7063" lon="15.69108">
        <ele>244.952211</ele>
        <time>2026-07-09T14:07:13.000Z</time>
      </trkpt>
      <trkpt lat="46.70655" lon="15.69091">
        <ele>245.017627</ele>
        <time>2026-07-09T14:07:18.000Z</time>
      </trkpt>
      <trkpt lat="46.70692" lon="15.69061">
        <ele>244.9593</ele>
        <time>2026-07-09T14:07:25.000Z</time>
      </trkpt>
      <trkpt lat="46.70738" lon="15.69012">
        <ele>244.749871</ele>
        <time>2026-07-09T14:07:35.000Z</time>
      </trkpt>
      <trkpt lat="46.70764" lon="15.68969">
        <ele>244.608642</ele>
        <time>2026-07-09T14:07:42.000Z</time>
      </trkpt>
      <trkpt lat="46.70794" lon="15.68902">
        <ele>244.410153</ele>
        <time>2026-07-09T14:07:52.000Z</time>
      </trkpt>
      <trkpt lat="46.70823" lon="15.68831">
        <ele>243.822796</ele>
        <time>2026-07-09T14:08:02.000Z</time>
      </trkpt>
      <trkpt lat="46.70826" lon="15.68824">
        <ele>243.761003</ele>
        <time>2026-07-09T14:08:03.000Z</time>
      </trkpt>
      <trkpt lat="46.70845" lon="15.68762">
        <ele>243.26427</ele>
        <time>2026-07-09T14:08:11.000Z</time>
      </trkpt>
      <trkpt lat="46.70851" lon="15.68748">
        <ele>243.141861</ele>
        <time>2026-07-09T14:08:13.000Z</time>
      </trkpt>
      <trkpt lat="46.70865" lon="15.6873">
        <ele>242.949179</ele>
        <time>2026-07-09T14:08:16.000Z</time>
      </trkpt>
      <trkpt lat="46.7087" lon="15.68725">
        <ele>242.884122</ele>
        <time>2026-07-09T14:08:17.000Z</time>
      </trkpt>
      <trkpt lat="46.70886" lon="15.68714">
        <ele>242.689107</ele>
        <time>2026-07-09T14:08:20.000Z</time>
      </trkpt>
      <trkpt lat="46.70892" lon="15.68712">
        <ele>242.62952</ele>
        <time>2026-07-09T14:08:21.000Z</time>
      </trkpt>
      <trkpt lat="46.70903" lon="15.68713">
        <ele>242.505623</ele>
        <time>2026-07-09T14:08:23.000Z</time>
      </trkpt>
      <trkpt lat="46.70914" lon="15.68719">
        <ele>242.641181</ele>
        <time>2026-07-09T14:08:25.000Z</time>
      </trkpt>
      <trkpt lat="46.70923" lon="15.68729">
        <ele>242.843138</ele>
        <time>2026-07-09T14:08:27.000Z</time>
      </trkpt>
      <trkpt lat="46.70933" lon="15.68732">
        <ele>243.018818</ele>
        <time>2026-07-09T14:08:29.000Z</time>
      </trkpt>
      <trkpt lat="46.70937" lon="15.68728">
        <ele>243.101</ele>
        <time>2026-07-09T14:08:30.000Z</time>
      </trkpt>
      <trkpt lat="46.70941" lon="15.68723">
        <ele>243.187687</ele>
        <time>2026-07-09T14:08:31.000Z</time>
      </trkpt>
      <trkpt lat="46.70955" lon="15.68696">
        <ele>243.587459</ele>
        <time>2026-07-09T14:08:35.000Z</time>
      </trkpt>
      <trkpt lat="46.70991" lon="15.68629">
        <ele>244.608007</ele>
        <time>2026-07-09T14:08:45.000Z</time>
      </trkpt>
      <trkpt lat="46.70997" lon="15.68615">
        <ele>244.808167</ele>
        <time>2026-07-09T14:08:47.000Z</time>
      </trkpt>
      <trkpt lat="46.70998" lon="15.68598">
        <ele>245.01234</ele>
        <time>2026-07-09T14:08:49.000Z</time>
      </trkpt>
      <trkpt lat="46.70989" lon="15.68577">
        <ele>245.311749</ele>
        <time>2026-07-09T14:08:52.000Z</time>
      </trkpt>
      <trkpt lat="46.70978" lon="15.68559">
        <ele>245.608866</ele>
        <time>2026-07-09T14:08:55.000Z</time>
      </trkpt>
      <trkpt lat="46.70966" lon="15.6854">
        <ele>246.218184</ele>
        <time>2026-07-09T14:08:58.000Z</time>
      </trkpt>
      <trkpt lat="46.70938" lon="15.68488">
        <ele>247.865802</ele>
        <time>2026-07-09T14:09:06.000Z</time>
      </trkpt>
      <trkpt lat="46.70938" lon="15.68477">
        <ele>248.137245</ele>
        <time>2026-07-09T14:09:08.000Z</time>
      </trkpt>
      <trkpt lat="46.70944" lon="15.68473">
        <ele>248.371304</ele>
        <time>2026-07-09T14:09:10.000Z</time>
      </trkpt>
      <trkpt lat="46.70948" lon="15.68473">
        <ele>248.515203</ele>
        <time>2026-07-09T14:09:11.000Z</time>
      </trkpt>
      <trkpt lat="46.70952" lon="15.68475">
        <ele>248.689407</ele>
        <time>2026-07-09T14:09:12.000Z</time>
      </trkpt>
      <trkpt lat="46.70968" lon="15.6848">
        <ele>249.272079</ele>
        <time>2026-07-09T14:09:15.000Z</time>
      </trkpt>
      <trkpt lat="46.70974" lon="15.6848">
        <ele>249.478083</ele>
        <time>2026-07-09T14:09:16.000Z</time>
      </trkpt>
      <trkpt lat="46.71004" lon="15.68482">
        <ele>250.550613</ele>
        <time>2026-07-09T14:09:21.000Z</time>
      </trkpt>
      <trkpt lat="46.7101" lon="15.68482">
        <ele>250.759267</ele>
        <time>2026-07-09T14:09:22.000Z</time>
      </trkpt>
      <trkpt lat="46.71015" lon="15.6848">
        <ele>250.968568</ele>
        <time>2026-07-09T14:09:23.000Z</time>
      </trkpt>
      <trkpt lat="46.71027" lon="15.68477">
        <ele>251.39593</ele>
        <time>2026-07-09T14:09:25.000Z</time>
      </trkpt>
      <trkpt lat="46.71039" lon="15.68473">
        <ele>251.844553</ele>
        <time>2026-07-09T14:09:27.000Z</time>
      </trkpt>
      <trkpt lat="46.71087" lon="15.68464">
        <ele>251.806682</ele>
        <time>2026-07-09T14:09:35.000Z</time>
      </trkpt>
      <trkpt lat="46.71118" lon="15.6846">
        <ele>251.61585</ele>
        <time>2026-07-09T14:09:40.000Z</time>
      </trkpt>
      <trkpt lat="46.71129" lon="15.68458">
        <ele>251.544143</ele>
        <time>2026-07-09T14:09:42.000Z</time>
      </trkpt>
      <trkpt lat="46.71175" lon="15.68445">
        <ele>251.247363</ele>
        <time>2026-07-09T14:09:50.000Z</time>
      </trkpt>
      <trkpt lat="46.71197" lon="15.68435">
        <ele>251.102913</ele>
        <time>2026-07-09T14:09:54.000Z</time>
      </trkpt>
      <trkpt lat="46.71209" lon="15.68428">
        <ele>251.026093</ele>
        <time>2026-07-09T14:09:56.000Z</time>
      </trkpt>
      <trkpt lat="46.71214" lon="15.68423">
        <ele>250.98842</ele>
        <time>2026-07-09T14:09:57.000Z</time>
      </trkpt>
      <trkpt lat="46.71238" lon="15.684">
        <ele>250.686466</ele>
        <time>2026-07-09T14:10:02.000Z</time>
      </trkpt>
      <trkpt lat="46.71271" lon="15.68365">
        <ele>250.210464</ele>
        <time>2026-07-09T14:10:09.000Z</time>
      </trkpt>
      <trkpt lat="46.71297" lon="15.6833">
        <ele>249.796045</ele>
        <time>2026-07-09T14:10:15.000Z</time>
      </trkpt>
      <trkpt lat="46.71327" lon="15.68267">
        <ele>249.188356</ele>
        <time>2026-07-09T14:10:24.000Z</time>
      </trkpt>
      <trkpt lat="46.71343" lon="15.6822">
        <ele>248.772177</ele>
        <time>2026-07-09T14:10:30.000Z</time>
      </trkpt>
      <trkpt lat="46.71345" lon="15.68213">
        <ele>248.707207</ele>
        <time>2026-07-09T14:10:31.000Z</time>
      </trkpt>
      <trkpt lat="46.71355" lon="15.68181">
        <ele>248.432172</ele>
        <time>2026-07-09T14:10:35.000Z</time>
      </trkpt>
      <trkpt lat="46.71358" lon="15.68164">
        <ele>248.293138</ele>
        <time>2026-07-09T14:10:37.000Z</time>
      </trkpt>
      <trkpt lat="46.7136" lon="15.68104">
        <ele>247.815206</ele>
        <time>2026-07-09T14:10:44.000Z</time>
      </trkpt>
      <trkpt lat="46.71362" lon="15.68053">
        <ele>247.409782</ele>
        <time>2026-07-09T14:10:50.000Z</time>
      </trkpt>
      <trkpt lat="46.71364" lon="15.67978">
        <ele>246.815911</ele>
        <time>2026-07-09T14:10:59.000Z</time>
      </trkpt>
      <trkpt lat="46.71366" lon="15.67919">
        <ele>246.720341</ele>
        <time>2026-07-09T14:11:06.000Z</time>
      </trkpt>
      <trkpt lat="46.71371" lon="15.67847">
        <ele>246.656031</ele>
        <time>2026-07-09T14:11:15.000Z</time>
      </trkpt>
      <trkpt lat="46.71372" lon="15.67774">
        <ele>246.592329</ele>
        <time>2026-07-09T14:11:24.000Z</time>
      </trkpt>
      <trkpt lat="46.71371" lon="15.677">
        <ele>246.60615</ele>
        <time>2026-07-09T14:11:33.000Z</time>
      </trkpt>
      <trkpt lat="46.7137" lon="15.67634">
        <ele>247.075689</ele>
        <time>2026-07-09T14:11:41.000Z</time>
      </trkpt>
      <trkpt lat="46.71368" lon="15.67591">
        <ele>247.37974</ele>
        <time>2026-07-09T14:11:46.000Z</time>
      </trkpt>
      <trkpt lat="46.71367" lon="15.67575">
        <ele>247.495294</ele>
        <time>2026-07-09T14:11:48.000Z</time>
      </trkpt>
      <trkpt lat="46.71367" lon="15.67566">
        <ele>247.558235</ele>
        <time>2026-07-09T14:11:49.000Z</time>
      </trkpt>
      <trkpt lat="46.7137" lon="15.67549">
        <ele>247.676813</ele>
        <time>2026-07-09T14:11:51.000Z</time>
      </trkpt>
      <trkpt lat="46.71373" lon="15.67542">
        <ele>247.738081</ele>
        <time>2026-07-09T14:11:52.000Z</time>
      </trkpt>
      <trkpt lat="46.71377" lon="15.67536">
        <ele>247.797256</ele>
        <time>2026-07-09T14:11:53.000Z</time>
      </trkpt>
      <trkpt lat="46.71386" lon="15.6753">
        <ele>247.901142</ele>
        <time>2026-07-09T14:11:55.000Z</time>
      </trkpt>
      <trkpt lat="46.71395" lon="15.67526">
        <ele>247.997022</ele>
        <time>2026-07-09T14:11:57.000Z</time>
      </trkpt>
      <trkpt lat="46.71405" lon="15.67521">
        <ele>248.100211</ele>
        <time>2026-07-09T14:11:59.000Z</time>
      </trkpt>
      <trkpt lat="46.71407" lon="15.67516">
        <ele>248.144023</ele>
        <time>2026-07-09T14:12:00.000Z</time>
      </trkpt>
      <trkpt lat="46.71407" lon="15.67503">
        <ele>248.236677</ele>
        <time>2026-07-09T14:12:02.000Z</time>
      </trkpt>
      <trkpt lat="46.71406" lon="15.67497">
        <ele>248.284286</ele>
        <time>2026-07-09T14:12:03.000Z</time>
      </trkpt>
      <trkpt lat="46.71385" lon="15.67452">
        <ele>248.374609</ele>
        <time>2026-07-09T14:12:10.000Z</time>
      </trkpt>
      <trkpt lat="46.71364" lon="15.67396">
        <ele>248.348697</ele>
        <time>2026-07-09T14:12:18.000Z</time>
      </trkpt>
      <trkpt lat="46.71362" lon="15.6739">
        <ele>248.345552</ele>
        <time>2026-07-09T14:12:19.000Z</time>
      </trkpt>
      <trkpt lat="46.71357" lon="15.67375">
        <ele>248.338921</ele>
        <time>2026-07-09T14:12:21.000Z</time>
      </trkpt>
      <trkpt lat="46.71352" lon="15.6736">
        <ele>248.33222</ele>
        <time>2026-07-09T14:12:23.000Z</time>
      </trkpt>
      <trkpt lat="46.71349" lon="15.67353">
        <ele>248.328759</ele>
        <time>2026-07-09T14:12:24.000Z</time>
      </trkpt>
      <trkpt lat="46.71343" lon="15.67338">
        <ele>248.321866</ele>
        <time>2026-07-09T14:12:26.000Z</time>
      </trkpt>
      <trkpt lat="46.71336" lon="15.67323">
        <ele>248.314553</ele>
        <time>2026-07-09T14:12:28.000Z</time>
      </trkpt>
      <trkpt lat="46.71303" lon="15.67274">
        <ele>248.286259</ele>
        <time>2026-07-09T14:12:36.000Z</time>
      </trkpt>
      <trkpt lat="46.71278" lon="15.67239">
        <ele>248.387068</ele>
        <time>2026-07-09T14:12:42.000Z</time>
      </trkpt>
      <trkpt lat="46.71269" lon="15.67227">
        <ele>248.426781</ele>
        <time>2026-07-09T14:12:44.000Z</time>
      </trkpt>
      <trkpt lat="46.71246" lon="15.6719">
        <ele>248.544167</ele>
        <time>2026-07-09T14:12:50.000Z</time>
      </trkpt>
      <trkpt lat="46.71244" lon="15.67183">
        <ele>248.563484</ele>
        <time>2026-07-09T14:12:51.000Z</time>
      </trkpt>
      <trkpt lat="46.71238" lon="15.67168">
        <ele>248.604315</ele>
        <time>2026-07-09T14:12:53.000Z</time>
      </trkpt>
      <trkpt lat="46.71234" lon="15.6715">
        <ele>248.647429</ele>
        <time>2026-07-09T14:12:55.000Z</time>
      </trkpt>
      <trkpt lat="46.71232" lon="15.67141">
        <ele>248.669689</ele>
        <time>2026-07-09T14:12:56.000Z</time>
      </trkpt>
      <trkpt lat="46.71229" lon="15.67086">
        <ele>248.800823</ele>
        <time>2026-07-09T14:13:02.000Z</time>
      </trkpt>
      <trkpt lat="46.71224" lon="15.67017">
        <ele>249.196349</ele>
        <time>2026-07-09T14:13:10.000Z</time>
      </trkpt>
      <trkpt lat="46.71221" lon="15.66986">
        <ele>249.539426</ele>
        <time>2026-07-09T14:13:14.000Z</time>
      </trkpt>
      <trkpt lat="46.71217" lon="15.6697">
        <ele>249.722963</ele>
        <time>2026-07-09T14:13:16.000Z</time>
      </trkpt>
      <trkpt lat="46.71211" lon="15.66946">
        <ele>250.007188</ele>
        <time>2026-07-09T14:13:19.000Z</time>
      </trkpt>
      <trkpt lat="46.71207" lon="15.66921">
        <ele>250.284938</ele>
        <time>2026-07-09T14:13:22.000Z</time>
      </trkpt>
      <trkpt lat="46.71207" lon="15.66913">
        <ele>250.375718</ele>
        <time>2026-07-09T14:13:23.000Z</time>
      </trkpt>
      <trkpt lat="46.71207" lon="15.66897">
        <ele>250.547127</ele>
        <time>2026-07-09T14:13:25.000Z</time>
      </trkpt>
      <trkpt lat="46.71206" lon="15.6688">
        <ele>250.736253</ele>
        <time>2026-07-09T14:13:27.000Z</time>
      </trkpt>
      <trkpt lat="46.71206" lon="15.66856">
        <ele>250.996859</ele>
        <time>2026-07-09T14:13:30.000Z</time>
      </trkpt>
      <trkpt lat="46.71204" lon="15.6684">
        <ele>251.17805</ele>
        <time>2026-07-09T14:13:32.000Z</time>
      </trkpt>
      <trkpt lat="46.71202" lon="15.66824">
        <ele>251.360128</ele>
        <time>2026-07-09T14:13:34.000Z</time>
      </trkpt>
      <trkpt lat="46.71196" lon="15.668">
        <ele>251.639189</ele>
        <time>2026-07-09T14:13:37.000Z</time>
      </trkpt>
      <trkpt lat="46.71194" lon="15.66793">
        <ele>251.723943</ele>
        <time>2026-07-09T14:13:38.000Z</time>
      </trkpt>
      <trkpt lat="46.71186" lon="15.66771">
        <ele>251.758177</ele>
        <time>2026-07-09T14:13:41.000Z</time>
      </trkpt>
      <trkpt lat="46.71178" lon="15.66741">
        <ele>251.71788</ele>
        <time>2026-07-09T14:13:45.000Z</time>
      </trkpt>
      <trkpt lat="46.71172" lon="15.66718">
        <ele>251.685383</ele>
        <time>2026-07-09T14:13:48.000Z</time>
      </trkpt>
      <trkpt lat="46.71171" lon="15.66709">
        <ele>251.674271</ele>
        <time>2026-07-09T14:13:49.000Z</time>
      </trkpt>
      <trkpt lat="46.71167" lon="15.66683">
        <ele>251.640429</ele>
        <time>2026-07-09T14:13:52.000Z</time>
      </trkpt>
      <trkpt lat="46.71166" lon="15.66669">
        <ele>251.622839</ele>
        <time>2026-07-09T14:13:54.000Z</time>
      </trkpt>
      <trkpt lat="46.71165" lon="15.66661">
        <ele>251.612071</ele>
        <time>2026-07-09T14:13:55.000Z</time>
      </trkpt>
      <trkpt lat="46.71164" lon="15.66645">
        <ele>251.591268</ele>
        <time>2026-07-09T14:13:57.000Z</time>
      </trkpt>
      <trkpt lat="46.71163" lon="15.66629">
        <ele>251.571049</ele>
        <time>2026-07-09T14:13:59.000Z</time>
      </trkpt>
      <trkpt lat="46.71161" lon="15.66604">
        <ele>251.53901</ele>
        <time>2026-07-09T14:14:02.000Z</time>
      </trkpt>
      <trkpt lat="46.71156" lon="15.66551">
        <ele>251.471431</ele>
        <time>2026-07-09T14:14:08.000Z</time>
      </trkpt>
      <trkpt lat="46.71141" lon="15.66486">
        <ele>250.927388</ele>
        <time>2026-07-09T14:14:16.000Z</time>
      </trkpt>
      <trkpt lat="46.71143" lon="15.66438">
        <ele>250.434311</ele>
        <time>2026-07-09T14:14:22.000Z</time>
      </trkpt>
      <trkpt lat="46.71154" lon="15.66384">
        <ele>249.866683</ele>
        <time>2026-07-09T14:14:29.000Z</time>
      </trkpt>
      <trkpt lat="46.71177" lon="15.66314">
        <ele>249.076699</ele>
        <time>2026-07-09T14:14:38.000Z</time>
      </trkpt>
      <trkpt lat="46.71192" lon="15.66268">
        <ele>248.775117</ele>
        <time>2026-07-09T14:14:44.000Z</time>
      </trkpt>
      <trkpt lat="46.71195" lon="15.66252">
        <ele>248.7707</ele>
        <time>2026-07-09T14:14:46.000Z</time>
      </trkpt>
      <trkpt lat="46.71201" lon="15.66185">
        <ele>248.753299</ele>
        <time>2026-07-09T14:14:54.000Z</time>
      </trkpt>
      <trkpt lat="46.71198" lon="15.66111">
        <ele>248.733879</ele>
        <time>2026-07-09T14:15:03.000Z</time>
      </trkpt>
      <trkpt lat="46.71192" lon="15.66051">
        <ele>248.718217</ele>
        <time>2026-07-09T14:15:10.000Z</time>
      </trkpt>
      <trkpt lat="46.71188" lon="15.65984">
        <ele>248.910892</ele>
        <time>2026-07-09T14:15:18.000Z</time>
      </trkpt>
      <trkpt lat="46.71183" lon="15.65919">
        <ele>249.196427</ele>
        <time>2026-07-09T14:15:26.000Z</time>
      </trkpt>
      <trkpt lat="46.71184" lon="15.65911">
        <ele>249.231174</ele>
        <time>2026-07-09T14:15:27.000Z</time>
      </trkpt>
      <trkpt lat="46.71187" lon="15.65882">
        <ele>249.360937</ele>
        <time>2026-07-09T14:15:31.000Z</time>
      </trkpt>
      <trkpt lat="46.71188" lon="15.65858">
        <ele>249.463574</ele>
        <time>2026-07-09T14:15:34.000Z</time>
      </trkpt>
      <trkpt lat="46.71189" lon="15.65845">
        <ele>249.521883</ele>
        <time>2026-07-09T14:15:36.000Z</time>
      </trkpt>
      <trkpt lat="46.71189" lon="15.65821">
        <ele>249.624619</ele>
        <time>2026-07-09T14:15:39.000Z</time>
      </trkpt>
      <trkpt lat="46.71197" lon="15.65772">
        <ele>249.843919</ele>
        <time>2026-07-09T14:15:45.000Z</time>
      </trkpt>
      <trkpt lat="46.712" lon="15.65746">
        <ele>250.051148</ele>
        <time>2026-07-09T14:15:48.000Z</time>
      </trkpt>
      <trkpt lat="46.71202" lon="15.6573">
        <ele>250.185442</ele>
        <time>2026-07-09T14:15:50.000Z</time>
      </trkpt>
      <trkpt lat="46.71203" lon="15.65723">
        <ele>250.251745</ele>
        <time>2026-07-09T14:15:51.000Z</time>
      </trkpt>
      <trkpt lat="46.71205" lon="15.65678">
        <ele>250.623041</ele>
        <time>2026-07-09T14:15:57.000Z</time>
      </trkpt>
      <trkpt lat="46.71205" lon="15.6567">
        <ele>250.690114</ele>
        <time>2026-07-09T14:15:58.000Z</time>
      </trkpt>
      <trkpt lat="46.71206" lon="15.6565">
        <ele>250.856056</ele>
        <time>2026-07-09T14:16:01.000Z</time>
      </trkpt>
      <trkpt lat="46.71202" lon="15.65643">
        <ele>250.926452</ele>
        <time>2026-07-09T14:16:03.000Z</time>
      </trkpt>
      <trkpt lat="46.71194" lon="15.65646">
        <ele>251.028949</ele>
        <time>2026-07-09T14:16:05.000Z</time>
      </trkpt>
      <trkpt lat="46.71189" lon="15.6565">
        <ele>251.094831</ele>
        <time>2026-07-09T14:16:06.000Z</time>
      </trkpt>
      <trkpt lat="46.71184" lon="15.65654">
        <ele>251.171625</ele>
        <time>2026-07-09T14:16:07.000Z</time>
      </trkpt>
      <trkpt lat="46.71162" lon="15.65664">
        <ele>251.438513</ele>
        <time>2026-07-09T14:16:11.000Z</time>
      </trkpt>
      <trkpt lat="46.71156" lon="15.65667">
        <ele>251.51641</ele>
        <time>2026-07-09T14:16:12.000Z</time>
      </trkpt>
      <trkpt lat="46.71138" lon="15.65674">
        <ele>251.744552</ele>
        <time>2026-07-09T14:16:15.000Z</time>
      </trkpt>
      <trkpt lat="46.71132" lon="15.65676">
        <ele>251.816868</ele>
        <time>2026-07-09T14:16:16.000Z</time>
      </trkpt>
      <trkpt lat="46.71109" lon="15.65682">
        <ele>252.026964</ele>
        <time>2026-07-09T14:16:20.000Z</time>
      </trkpt>
      <trkpt lat="46.71091" lon="15.65687">
        <ele>252.030481</ele>
        <time>2026-07-09T14:16:23.000Z</time>
      </trkpt>
      <trkpt lat="46.71068" lon="15.65695">
        <ele>252.035123</ele>
        <time>2026-07-09T14:16:27.000Z</time>
      </trkpt>
      <trkpt lat="46.71061" lon="15.65696">
        <ele>252.036565</ele>
        <time>2026-07-09T14:16:28.000Z</time>
      </trkpt>
      <trkpt lat="46.71049" lon="15.65695">
        <ele>252.038966</ele>
        <time>2026-07-09T14:16:30.000Z</time>
      </trkpt>
      <trkpt lat="46.71045" lon="15.65693">
        <ele>252.039817</ele>
        <time>2026-07-09T14:16:31.000Z</time>
      </trkpt>
      <trkpt lat="46.7104" lon="15.6569">
        <ele>252.040909</ele>
        <time>2026-07-09T14:16:32.000Z</time>
      </trkpt>
      <trkpt lat="46.71019" lon="15.65675">
        <ele>252.045438</ele>
        <time>2026-07-09T14:16:36.000Z</time>
      </trkpt>
      <trkpt lat="46.70986" lon="15.65644">
        <ele>252.053085</ele>
        <time>2026-07-09T14:16:43.000Z</time>
      </trkpt>
      <trkpt lat="46.70972" lon="15.65629">
        <ele>252.056589</ele>
        <time>2026-07-09T14:16:46.000Z</time>
      </trkpt>
      <trkpt lat="46.70957" lon="15.65613">
        <ele>252.060155</ele>
        <time>2026-07-09T14:16:49.000Z</time>
      </trkpt>
      <trkpt lat="46.70934" lon="15.65587">
        <ele>251.918608</ele>
        <time>2026-07-09T14:16:54.000Z</time>
      </trkpt>
      <trkpt lat="46.70924" lon="15.65581">
        <ele>251.855856</ele>
        <time>2026-07-09T14:16:56.000Z</time>
      </trkpt>
      <trkpt lat="46.7092" lon="15.65578">
        <ele>251.82845</ele>
        <time>2026-07-09T14:16:57.000Z</time>
      </trkpt>
      <trkpt lat="46.70916" lon="15.65568">
        <ele>251.786059</ele>
        <time>2026-07-09T14:16:59.000Z</time>
      </trkpt>
      <trkpt lat="46.70921" lon="15.65549">
        <ele>251.705684</ele>
        <time>2026-07-09T14:17:02.000Z</time>
      </trkpt>
      <trkpt lat="46.70936" lon="15.65499">
        <ele>251.49147</ele>
        <time>2026-07-09T14:17:09.000Z</time>
      </trkpt>
      <trkpt lat="46.7095" lon="15.65455">
        <ele>251.299033</ele>
        <time>2026-07-09T14:17:16.000Z</time>
      </trkpt>
      <trkpt lat="46.70951" lon="15.65449">
        <ele>251.274927</ele>
        <time>2026-07-09T14:17:17.000Z</time>
      </trkpt>
      <trkpt lat="46.70949" lon="15.65439">
        <ele>251.232343</ele>
        <time>2026-07-09T14:17:19.000Z</time>
      </trkpt>
      <trkpt lat="46.70937" lon="15.65426">
        <ele>251.148685</ele>
        <time>2026-07-09T14:17:22.000Z</time>
      </trkpt>
      <trkpt lat="46.70933" lon="15.65423">
        <ele>251.119244</ele>
        <time>2026-07-09T14:17:23.000Z</time>
      </trkpt>
      <trkpt lat="46.70927" lon="15.65422">
        <ele>251.086434</ele>
        <time>2026-07-09T14:17:24.000Z</time>
      </trkpt>
      <trkpt lat="46.70915" lon="15.65422">
        <ele>251.033388</ele>
        <time>2026-07-09T14:17:26.000Z</time>
      </trkpt>
      <trkpt lat="46.70908" lon="15.65423">
        <ele>251.059152</ele>
        <time>2026-07-09T14:17:27.000Z</time>
      </trkpt>
      <trkpt lat="46.70876" lon="15.6543">
        <ele>251.181392</ele>
        <time>2026-07-09T14:17:33.000Z</time>
      </trkpt>
      <trkpt lat="46.70824" lon="15.65431">
        <ele>251.372988</ele>
        <time>2026-07-09T14:17:42.000Z</time>
      </trkpt>
      <trkpt lat="46.70783" lon="15.65434">
        <ele>251.527421</ele>
        <time>2026-07-09T14:17:50.000Z</time>
      </trkpt>
      <trkpt lat="46.70768" lon="15.65437">
        <ele>251.585314</ele>
        <time>2026-07-09T14:17:53.000Z</time>
      </trkpt>
      <trkpt lat="46.7076" lon="15.65444">
        <ele>251.617072</ele>
        <time>2026-07-09T14:17:55.000Z</time>
      </trkpt>
      <trkpt lat="46.7075" lon="15.65458">
        <ele>251.670712</ele>
        <time>2026-07-09T14:17:58.000Z</time>
      </trkpt>
      <trkpt lat="46.7074" lon="15.65469">
        <ele>251.712536</ele>
        <time>2026-07-09T14:18:01.000Z</time>
      </trkpt>
      <trkpt lat="46.70735" lon="15.65474">
        <ele>251.725886</ele>
        <time>2026-07-09T14:18:02.000Z</time>
      </trkpt>
      <trkpt lat="46.70728" lon="15.65479">
        <ele>251.745005</ele>
        <time>2026-07-09T14:18:04.000Z</time>
      </trkpt>
      <trkpt lat="46.70718" lon="15.6548">
        <ele>251.770632</ele>
        <time>2026-07-09T14:18:06.000Z</time>
      </trkpt>
      <trkpt lat="46.70712" lon="15.65473">
        <ele>251.789533</ele>
        <time>2026-07-09T14:18:08.000Z</time>
      </trkpt>
      <trkpt lat="46.70709" lon="15.65465">
        <ele>251.803741</ele>
        <time>2026-07-09T14:18:09.000Z</time>
      </trkpt>
      <trkpt lat="46.70707" lon="15.65459">
        <ele>251.815979</ele>
        <time>2026-07-09T14:18:10.000Z</time>
      </trkpt>
      <trkpt lat="46.70701" lon="15.65445">
        <ele>251.843191</ele>
        <time>2026-07-09T14:18:12.000Z</time>
      </trkpt>
      <trkpt lat="46.70699" lon="15.65438">
        <ele>251.857482</ele>
        <time>2026-07-09T14:18:13.000Z</time>
      </trkpt>
      <trkpt lat="46.70691" lon="15.65407">
        <ele>251.91303</ele>
        <time>2026-07-09T14:18:17.000Z</time>
      </trkpt>
      <trkpt lat="46.7069" lon="15.654">
        <ele>251.926365</ele>
        <time>2026-07-09T14:18:18.000Z</time>
      </trkpt>
      <trkpt lat="46.7068" lon="15.65353">
        <ele>252.009345</ele>
        <time>2026-07-09T14:18:25.000Z</time>
      </trkpt>
      <trkpt lat="46.70677" lon="15.65324">
        <ele>252.059533</ele>
        <time>2026-07-09T14:18:31.000Z</time>
      </trkpt>
      <trkpt lat="46.70677" lon="15.65323">
        <ele>252.061575</ele>
        <time>2026-07-09T14:18:34.000Z</time>
      </trkpt>
      <trkpt lat="46.7068" lon="15.65302">
        <ele>252.097692</ele>
        <time>2026-07-09T14:25:24.000Z</time>
      </trkpt>
      <trkpt lat="46.70679" lon="15.65294">
        <ele>252.110684</ele>
        <time>2026-07-09T14:25:26.000Z</time>
      </trkpt>
      <trkpt lat="46.70677" lon="15.65278">
        <ele>252.138451</ele>
        <time>2026-07-09T14:25:31.000Z</time>
      </trkpt>
      <trkpt lat="46.70673" lon="15.65269">
        <ele>252.044037</ele>
        <time>2026-07-09T14:25:35.000Z</time>
      </trkpt>
      <trkpt lat="46.70672" lon="15.65265">
        <ele>251.982561</ele>
        <time>2026-07-09T14:25:36.000Z</time>
      </trkpt>
      <trkpt lat="46.70667" lon="15.65246">
        <ele>251.698912</ele>
        <time>2026-07-09T14:25:41.000Z</time>
      </trkpt>
      <trkpt lat="46.70666" lon="15.65241">
        <ele>251.621541</ele>
        <time>2026-07-09T14:25:42.000Z</time>
      </trkpt>
      <trkpt lat="46.70662" lon="15.65209">
        <ele>251.163826</ele>
        <time>2026-07-09T14:25:50.000Z</time>
      </trkpt>
      <trkpt lat="46.7066" lon="15.65205">
        <ele>251.093673</ele>
        <time>2026-07-09T14:25:52.000Z</time>
      </trkpt>
      <trkpt lat="46.70658" lon="15.65205">
        <ele>251.060322</ele>
        <time>2026-07-09T14:25:54.000Z</time>
      </trkpt>
      <trkpt lat="46.70657" lon="15.65208">
        <ele>251.007874</ele>
        <time>2026-07-09T14:26:10.000Z</time>
      </trkpt>
      <trkpt lat="46.70659" lon="15.65202">
        <ele>250.913729</ele>
        <time>2026-07-09T14:26:12.000Z</time>
      </trkpt>
      <trkpt lat="46.70657" lon="15.65174">
        <ele>250.50758</ele>
        <time>2026-07-09T14:26:18.000Z</time>
      </trkpt>
      <trkpt lat="46.70651" lon="15.65133">
        <ele>249.917832</ele>
        <time>2026-07-09T14:26:25.000Z</time>
      </trkpt>
      <trkpt lat="46.7065" lon="15.65125">
        <ele>249.799408</ele>
        <time>2026-07-09T14:26:26.000Z</time>
      </trkpt>
      <trkpt lat="46.70644" lon="15.65107">
        <ele>249.515959</ele>
        <time>2026-07-09T14:26:29.000Z</time>
      </trkpt>
      <trkpt lat="46.70643" lon="15.65095">
        <ele>249.346881</ele>
        <time>2026-07-09T14:26:31.000Z</time>
      </trkpt>
      <trkpt lat="46.70633" lon="15.65029">
        <ele>248.410967</ele>
        <time>2026-07-09T14:26:41.000Z</time>
      </trkpt>
      <trkpt lat="46.70631" lon="15.65013">
        <ele>248.29842</ele>
        <time>2026-07-09T14:26:44.000Z</time>
      </trkpt>
      <trkpt lat="46.70629" lon="15.64997">
        <ele>248.191747</ele>
        <time>2026-07-09T14:26:47.000Z</time>
      </trkpt>
      <trkpt lat="46.70625" lon="15.64958">
        <ele>247.92392</ele>
        <time>2026-07-09T14:26:54.000Z</time>
      </trkpt>
      <trkpt lat="46.70623" lon="15.64933">
        <ele>247.752342</ele>
        <time>2026-07-09T14:26:57.000Z</time>
      </trkpt>
      <trkpt lat="46.70623" lon="15.64927">
        <ele>247.708904</ele>
        <time>2026-07-09T14:26:59.000Z</time>
      </trkpt>
      <trkpt lat="46.70623" lon="15.64909">
        <ele>247.583858</ele>
        <time>2026-07-09T14:27:02.000Z</time>
      </trkpt>
      <trkpt lat="46.70624" lon="15.64901">
        <ele>247.534078</ele>
        <time>2026-07-09T14:27:03.000Z</time>
      </trkpt>
      <trkpt lat="46.70629" lon="15.64872">
        <ele>247.329615</ele>
        <time>2026-07-09T14:27:08.000Z</time>
      </trkpt>
      <trkpt lat="46.70635" lon="15.64853">
        <ele>247.18763</ele>
        <time>2026-07-09T14:27:11.000Z</time>
      </trkpt>
      <trkpt lat="46.70642" lon="15.64834">
        <ele>247.041363</ele>
        <time>2026-07-09T14:27:14.000Z</time>
      </trkpt>
      <trkpt lat="46.70662" lon="15.64778">
        <ele>246.640363</ele>
        <time>2026-07-09T14:27:23.000Z</time>
      </trkpt>
      <trkpt lat="46.70684" lon="15.64726">
        <ele>246.556296</ele>
        <time>2026-07-09T14:27:32.000Z</time>
      </trkpt>
      <trkpt lat="46.70703" lon="15.64677">
        <ele>246.478719</ele>
        <time>2026-07-09T14:27:40.000Z</time>
      </trkpt>
      <trkpt lat="46.70727" lon="15.64619">
        <ele>246.385401</ele>
        <time>2026-07-09T14:27:50.000Z</time>
      </trkpt>
      <trkpt lat="46.70752" lon="15.64557">
        <ele>246.287373</ele>
        <time>2026-07-09T14:28:00.000Z</time>
      </trkpt>
      <trkpt lat="46.70778" lon="15.64494">
        <ele>246.676099</ele>
        <time>2026-07-09T14:28:10.000Z</time>
      </trkpt>
      <trkpt lat="46.70799" lon="15.64443">
        <ele>246.995648</ele>
        <time>2026-07-09T14:28:18.000Z</time>
      </trkpt>
      <trkpt lat="46.70801" lon="15.64406">
        <ele>247.195307</ele>
        <time>2026-07-09T14:28:23.000Z</time>
      </trkpt>
      <trkpt lat="46.70796" lon="15.64355">
        <ele>247.466676</ele>
        <time>2026-07-09T14:28:30.000Z</time>
      </trkpt>
      <trkpt lat="46.70793" lon="15.64335">
        <ele>247.577424</ele>
        <time>2026-07-09T14:28:33.000Z</time>
      </trkpt>
      <trkpt lat="46.70792" lon="15.64311">
        <ele>247.729957</ele>
        <time>2026-07-09T14:28:36.000Z</time>
      </trkpt>
      <trkpt lat="46.70799" lon="15.64249">
        <ele>248.408969</ele>
        <time>2026-07-09T14:28:44.000Z</time>
      </trkpt>
      <trkpt lat="46.70801" lon="15.64197">
        <ele>248.976552</ele>
        <time>2026-07-09T14:28:51.000Z</time>
      </trkpt>
      <trkpt lat="46.708" lon="15.6419">
        <ele>249.05137</ele>
        <time>2026-07-09T14:28:52.000Z</time>
      </trkpt>
      <trkpt lat="46.70799" lon="15.64178">
        <ele>249.180305</ele>
        <time>2026-07-09T14:28:54.000Z</time>
      </trkpt>
      <trkpt lat="46.70799" lon="15.64169">
        <ele>249.283337</ele>
        <time>2026-07-09T14:28:56.000Z</time>
      </trkpt>
      <trkpt lat="46.70799" lon="15.64169">
        <ele>249.283337</ele>
        <time>2026-07-09T14:29:00.000Z</time>
      </trkpt>
      <trkpt lat="46.70824" lon="15.64104">
        <ele>250.090238</ele>
        <time>2026-07-09T14:29:07.000Z</time>
      </trkpt>
      <trkpt lat="46.70822" lon="15.64101">
        <ele>250.133108</ele>
        <time>2026-07-09T14:29:08.000Z</time>
      </trkpt>
      <trkpt lat="46.70834" lon="15.64076">
        <ele>250.471176</ele>
        <time>2026-07-09T14:29:12.000Z</time>
      </trkpt>
      <trkpt lat="46.70852" lon="15.64028">
        <ele>250.604088</ele>
        <time>2026-07-09T14:29:19.000Z</time>
      </trkpt>
      <trkpt lat="46.70855" lon="15.64019">
        <ele>250.618053</ele>
        <time>2026-07-09T14:29:20.000Z</time>
      </trkpt>
      <trkpt lat="46.70875" lon="15.63956">
        <ele>250.721993</ele>
        <time>2026-07-09T14:29:29.000Z</time>
      </trkpt>
      <trkpt lat="46.7089" lon="15.63913">
        <ele>250.794236</ele>
        <time>2026-07-09T14:29:35.000Z</time>
      </trkpt>
      <trkpt lat="46.70908" lon="15.63857">
        <ele>250.885387</ele>
        <time>2026-07-09T14:29:43.000Z</time>
      </trkpt>
      <trkpt lat="46.70922" lon="15.63807">
        <ele>250.886482</ele>
        <time>2026-07-09T14:29:50.000Z</time>
      </trkpt>
      <trkpt lat="46.70925" lon="15.63794">
        <ele>250.870449</ele>
        <time>2026-07-09T14:29:52.000Z</time>
      </trkpt>
      <trkpt lat="46.70927" lon="15.63786">
        <ele>250.860529</ele>
        <time>2026-07-09T14:29:53.000Z</time>
      </trkpt>
      <trkpt lat="46.70928" lon="15.6377">
        <ele>250.840795</ele>
        <time>2026-07-09T14:29:56.000Z</time>
      </trkpt>
      <trkpt lat="46.70929" lon="15.63766">
        <ele>250.83597</ele>
        <time>2026-07-09T14:29:57.000Z</time>
      </trkpt>
      <trkpt lat="46.70941" lon="15.63725">
        <ele>250.784163</ele>
        <time>2026-07-09T14:30:04.000Z</time>
      </trkpt>
      <trkpt lat="46.70943" lon="15.63719">
        <ele>250.776544</ele>
        <time>2026-07-09T14:30:05.000Z</time>
      </trkpt>
      <trkpt lat="46.70955" lon="15.63683">
        <ele>250.729936</ele>
        <time>2026-07-09T14:30:11.000Z</time>
      </trkpt>
      <trkpt lat="46.7097" lon="15.63641">
        <ele>250.67502</ele>
        <time>2026-07-09T14:30:18.000Z</time>
      </trkpt>
      <trkpt lat="46.70988" lon="15.63586">
        <ele>250.686662</ele>
        <time>2026-07-09T14:30:26.000Z</time>
      </trkpt>
      <trkpt lat="46.71003" lon="15.63532">
        <ele>251.121671</ele>
        <time>2026-07-09T14:30:33.000Z</time>
      </trkpt>
      <trkpt lat="46.71017" lon="15.63481">
        <ele>251.533663</ele>
        <time>2026-07-09T14:30:40.000Z</time>
      </trkpt>
      <trkpt lat="46.71034" lon="15.6344">
        <ele>251.890929</ele>
        <time>2026-07-09T14:30:47.000Z</time>
      </trkpt>
      <trkpt lat="46.71046" lon="15.63421">
        <ele>252.085986</ele>
        <time>2026-07-09T14:30:53.000Z</time>
      </trkpt>
      <trkpt lat="46.71046" lon="15.63419">
        <ele>252.102672</ele>
        <time>2026-07-09T14:30:54.000Z</time>
      </trkpt>
      <trkpt lat="46.71047" lon="15.63418">
        <ele>252.107296</ele>
        <time>2026-07-09T14:30:56.000Z</time>
      </trkpt>
      <trkpt lat="46.71045" lon="15.63411">
        <ele>252.165514</ele>
        <time>2026-07-09T14:31:49.000Z</time>
      </trkpt>
      <trkpt lat="46.71043" lon="15.63408">
        <ele>252.194287</ele>
        <time>2026-07-09T14:31:50.000Z</time>
      </trkpt>
      <trkpt lat="46.71041" lon="15.63407">
        <ele>252.225112</ele>
        <time>2026-07-09T14:31:51.000Z</time>
      </trkpt>
      <trkpt lat="46.7102" lon="15.634">
        <ele>252.45747</ele>
        <time>2026-07-09T14:31:56.000Z</time>
      </trkpt>
      <trkpt lat="46.70993" lon="15.63396">
        <ele>252.836765</ele>
        <time>2026-07-09T14:32:02.000Z</time>
      </trkpt>
      <trkpt lat="46.70988" lon="15.63396">
        <ele>252.914525</ele>
        <time>2026-07-09T14:32:03.000Z</time>
      </trkpt>
      <trkpt lat="46.70979" lon="15.63394">
        <ele>253.067066</ele>
        <time>2026-07-09T14:32:05.000Z</time>
      </trkpt>
      <trkpt lat="46.70945" lon="15.63389">
        <ele>253.628861</ele>
        <time>2026-07-09T14:32:12.000Z</time>
      </trkpt>
      <trkpt lat="46.70917" lon="15.63382">
        <ele>254.094098</ele>
        <time>2026-07-09T14:32:18.000Z</time>
      </trkpt>
      <trkpt lat="46.70909" lon="15.63376">
        <ele>254.243714</ele>
        <time>2026-07-09T14:32:20.000Z</time>
      </trkpt>
      <trkpt lat="46.70905" lon="15.63365">
        <ele>254.387852</ele>
        <time>2026-07-09T14:32:22.000Z</time>
      </trkpt>
      <trkpt lat="46.70904" lon="15.63358">
        <ele>254.471155</ele>
        <time>2026-07-09T14:32:23.000Z</time>
      </trkpt>
      <trkpt lat="46.70904" lon="15.63351">
        <ele>254.551228</ele>
        <time>2026-07-09T14:32:24.000Z</time>
      </trkpt>
      <trkpt lat="46.70908" lon="15.63319">
        <ele>254.918293</ele>
        <time>2026-07-09T14:32:28.000Z</time>
      </trkpt>
      <trkpt lat="46.70909" lon="15.63293">
        <ele>255.201814</ele>
        <time>2026-07-09T14:32:31.000Z</time>
      </trkpt>
      <trkpt lat="46.70907" lon="15.63276">
        <ele>255.399508</ele>
        <time>2026-07-09T14:32:33.000Z</time>
      </trkpt>
      <trkpt lat="46.70901" lon="15.63263">
        <ele>255.541518</ele>
        <time>2026-07-09T14:32:35.000Z</time>
      </trkpt>
      <trkpt lat="46.70897" lon="15.63258">
        <ele>255.552544</ele>
        <time>2026-07-09T14:32:36.000Z</time>
      </trkpt>
      <trkpt lat="46.70886" lon="15.63245">
        <ele>255.587135</ele>
        <time>2026-07-09T14:32:39.000Z</time>
      </trkpt>
      <trkpt lat="46.70873" lon="15.63235">
        <ele>255.62202</ele>
        <time>2026-07-09T14:32:42.000Z</time>
      </trkpt>
      <trkpt lat="46.70869" lon="15.63231">
        <ele>255.633545</ele>
        <time>2026-07-09T14:32:43.000Z</time>
      </trkpt>
      <trkpt lat="46.70859" lon="15.63217">
        <ele>255.667241</ele>
        <time>2026-07-09T14:32:46.000Z</time>
      </trkpt>
      <trkpt lat="46.70855" lon="15.63213">
        <ele>255.678577</ele>
        <time>2026-07-09T14:32:47.000Z</time>
      </trkpt>
      <trkpt lat="46.70851" lon="15.6321">
        <ele>255.689706</ele>
        <time>2026-07-09T14:32:48.000Z</time>
      </trkpt>
      <trkpt lat="46.70836" lon="15.63206">
        <ele>255.725287</ele>
        <time>2026-07-09T14:32:51.000Z</time>
      </trkpt>
      <trkpt lat="46.70818" lon="15.63207">
        <ele>255.768336</ele>
        <time>2026-07-09T14:32:55.000Z</time>
      </trkpt>
      <trkpt lat="46.70814" lon="15.63209">
        <ele>255.778839</ele>
        <time>2026-07-09T14:32:56.000Z</time>
      </trkpt>
      <trkpt lat="46.70809" lon="15.63211">
        <ele>255.789951</ele>
        <time>2026-07-09T14:32:57.000Z</time>
      </trkpt>
      <trkpt lat="46.70801" lon="15.63216">
        <ele>255.811841</ele>
        <time>2026-07-09T14:32:59.000Z</time>
      </trkpt>
      <trkpt lat="46.70793" lon="15.63224">
        <ele>255.834917</ele>
        <time>2026-07-09T14:33:01.000Z</time>
      </trkpt>
      <trkpt lat="46.70768" lon="15.63255">
        <ele>255.913217</ele>
        <time>2026-07-09T14:33:08.000Z</time>
      </trkpt>
      <trkpt lat="46.70764" lon="15.63259">
        <ele>255.923689</ele>
        <time>2026-07-09T14:33:09.000Z</time>
      </trkpt>
      <trkpt lat="46.70743" lon="15.63284">
        <ele>256.086354</ele>
        <time>2026-07-09T14:33:15.000Z</time>
      </trkpt>
      <trkpt lat="46.7074" lon="15.63288">
        <ele>256.137895</ele>
        <time>2026-07-09T14:33:16.000Z</time>
      </trkpt>
      <trkpt lat="46.70737" lon="15.63292">
        <ele>256.187475</ele>
        <time>2026-07-09T14:33:17.000Z</time>
      </trkpt>
      <trkpt lat="46.70711" lon="15.63323">
        <ele>256.588589</ele>
        <time>2026-07-09T14:33:26.000Z</time>
      </trkpt>
      <trkpt lat="46.70694" lon="15.63342">
        <ele>256.838031</ele>
        <time>2026-07-09T14:33:32.000Z</time>
      </trkpt>
      <trkpt lat="46.70689" lon="15.63348">
        <ele>256.921275</ele>
        <time>2026-07-09T14:33:35.000Z</time>
      </trkpt>
      <trkpt lat="46.70683" lon="15.63355">
        <ele>257.007171</ele>
        <time>2026-07-09T14:33:37.000Z</time>
      </trkpt>
      <trkpt lat="46.70666" lon="15.63376">
        <ele>257.275574</ele>
        <time>2026-07-09T14:33:42.000Z</time>
      </trkpt>
      <trkpt lat="46.70655" lon="15.63389">
        <ele>257.440762</ele>
        <time>2026-07-09T14:33:45.000Z</time>
      </trkpt>
      <trkpt lat="46.70636" lon="15.63411">
        <ele>257.730905</ele>
        <time>2026-07-09T14:33:50.000Z</time>
      </trkpt>
      <trkpt lat="46.70603" lon="15.63437">
        <ele>258.247772</ele>
        <time>2026-07-09T14:33:58.000Z</time>
      </trkpt>
      <trkpt lat="46.70575" lon="15.63455">
        <ele>258.914517</ele>
        <time>2026-07-09T14:34:05.000Z</time>
      </trkpt>
      <trkpt lat="46.70566" lon="15.63468">
        <ele>259.191692</ele>
        <time>2026-07-09T14:34:09.000Z</time>
      </trkpt>
      <trkpt lat="46.70542" lon="15.63487">
        <ele>259.810078</ele>
        <time>2026-07-09T14:34:16.000Z</time>
      </trkpt>
      <trkpt lat="46.70514" lon="15.63502">
        <ele>260.457494</ele>
        <time>2026-07-09T14:34:23.000Z</time>
      </trkpt>
      <trkpt lat="46.70495" lon="15.63514">
        <ele>260.917554</ele>
        <time>2026-07-09T14:34:28.000Z</time>
      </trkpt>
      <trkpt lat="46.70484" lon="15.63522">
        <ele>261.203243</ele>
        <time>2026-07-09T14:34:31.000Z</time>
      </trkpt>
      <trkpt lat="46.70451" lon="15.63539">
        <ele>261.983556</ele>
        <time>2026-07-09T14:34:39.000Z</time>
      </trkpt>
      <trkpt lat="46.70434" lon="15.63548">
        <ele>262.193526</ele>
        <time>2026-07-09T14:34:43.000Z</time>
      </trkpt>
      <trkpt lat="46.70418" lon="15.63556">
        <ele>262.331471</ele>
        <time>2026-07-09T14:34:47.000Z</time>
      </trkpt>
      <trkpt lat="46.70401" lon="15.63562">
        <ele>262.472215</ele>
        <time>2026-07-09T14:34:51.000Z</time>
      </trkpt>
      <trkpt lat="46.70388" lon="15.63566">
        <ele>262.574934</ele>
        <time>2026-07-09T14:34:54.000Z</time>
      </trkpt>
      <trkpt lat="46.70375" lon="15.6357">
        <ele>262.682434</ele>
        <time>2026-07-09T14:34:57.000Z</time>
      </trkpt>
      <trkpt lat="46.70358" lon="15.63576">
        <ele>262.82774</ele>
        <time>2026-07-09T14:35:01.000Z</time>
      </trkpt>
      <trkpt lat="46.70318" lon="15.63585">
        <ele>263.149015</ele>
        <time>2026-07-09T14:35:10.000Z</time>
      </trkpt>
      <trkpt lat="46.70278" lon="15.63594">
        <ele>263.476383</ele>
        <time>2026-07-09T14:35:19.000Z</time>
      </trkpt>
      <trkpt lat="46.7025" lon="15.636">
        <ele>264.026069</ele>
        <time>2026-07-09T14:35:25.000Z</time>
      </trkpt>
      <trkpt lat="46.70246" lon="15.636">
        <ele>264.131789</ele>
        <time>2026-07-09T14:35:26.000Z</time>
      </trkpt>
      <trkpt lat="46.70224" lon="15.63603">
        <ele>264.662073</ele>
        <time>2026-07-09T14:35:31.000Z</time>
      </trkpt>
      <trkpt lat="46.70207" lon="15.63605">
        <ele>265.053534</ele>
        <time>2026-07-09T14:35:35.000Z</time>
      </trkpt>
      <trkpt lat="46.70199" lon="15.63607">
        <ele>265.26138</ele>
        <time>2026-07-09T14:35:37.000Z</time>
      </trkpt>
      <trkpt lat="46.70161" lon="15.63612">
        <ele>266.159998</ele>
        <time>2026-07-09T14:35:45.000Z</time>
      </trkpt>
      <trkpt lat="46.70144" lon="15.63615">
        <ele>266.584101</ele>
        <time>2026-07-09T14:35:49.000Z</time>
      </trkpt>
      <trkpt lat="46.70135" lon="15.63616">
        <ele>266.780605</ele>
        <time>2026-07-09T14:35:51.000Z</time>
      </trkpt>
      <trkpt lat="46.70131" lon="15.63616">
        <ele>266.879031</ele>
        <time>2026-07-09T14:35:52.000Z</time>
      </trkpt>
      <trkpt lat="46.70103" lon="15.63619">
        <ele>267.552615</ele>
        <time>2026-07-09T14:35:58.000Z</time>
      </trkpt>
      <trkpt lat="46.70095" lon="15.63621">
        <ele>267.759431</ele>
        <time>2026-07-09T14:36:00.000Z</time>
      </trkpt>
      <trkpt lat="46.70073" lon="15.63625">
        <ele>268.159216</ele>
        <time>2026-07-09T14:36:05.000Z</time>
      </trkpt>
      <trkpt lat="46.70064" lon="15.63627">
        <ele>268.317911</ele>
        <time>2026-07-09T14:36:07.000Z</time>
      </trkpt>
      <trkpt lat="46.70031" lon="15.63633">
        <ele>268.879949</ele>
        <time>2026-07-09T14:36:15.000Z</time>
      </trkpt>
      <trkpt lat="46.70015" lon="15.63635">
        <ele>269.160362</ele>
        <time>2026-07-09T14:36:19.000Z</time>
      </trkpt>
      <trkpt lat="46.70008" lon="15.63635">
        <ele>269.285525</ele>
        <time>2026-07-09T14:36:21.000Z</time>
      </trkpt>
      <trkpt lat="46.69996" lon="15.63636">
        <ele>269.481643</ele>
        <time>2026-07-09T14:36:25.000Z</time>
      </trkpt>
      <trkpt lat="46.69978" lon="15.63638">
        <ele>269.787164</ele>
        <time>2026-07-09T14:36:31.000Z</time>
      </trkpt>
      <trkpt lat="46.69961" lon="15.63642">
        <ele>270.095906</ele>
        <time>2026-07-09T14:36:36.000Z</time>
      </trkpt>
      <trkpt lat="46.69948" lon="15.63642">
        <ele>270.318912</ele>
        <time>2026-07-09T14:36:40.000Z</time>
      </trkpt>
      <trkpt lat="46.69946" lon="15.6364">
        <ele>270.364072</ele>
        <time>2026-07-09T14:36:41.000Z</time>
      </trkpt>
      <trkpt lat="46.69943" lon="15.63626">
        <ele>270.530642</ele>
        <time>2026-07-09T14:36:46.000Z</time>
      </trkpt>
      <trkpt lat="46.69942" lon="15.63625">
        <ele>270.5629</ele>
        <time>2026-07-09T14:36:49.000Z</time>
      </trkpt>
      <trkpt lat="46.69932" lon="15.63646">
        <ele>270.855762</ele>
        <time>2026-07-09T14:39:57.000Z</time>
      </trkpt>
      <trkpt lat="46.69927" lon="15.63648">
        <ele>270.945966</ele>
        <time>2026-07-09T14:39:59.000Z</time>
      </trkpt>
      <trkpt lat="46.69913" lon="15.63652">
        <ele>271.162988</ele>
        <time>2026-07-09T14:40:03.000Z</time>
      </trkpt>
      <trkpt lat="46.699" lon="15.63654">
        <ele>271.363182</ele>
        <time>2026-07-09T14:40:06.000Z</time>
      </trkpt>
      <trkpt lat="46.69888" lon="15.63657">
        <ele>271.566432</ele>
        <time>2026-07-09T14:40:09.000Z</time>
      </trkpt>
      <trkpt lat="46.69857" lon="15.63664">
        <ele>272.051512</ele>
        <time>2026-07-09T14:40:16.000Z</time>
      </trkpt>
      <trkpt lat="46.6982" lon="15.63672">
        <ele>272.629911</ele>
        <time>2026-07-09T14:40:25.000Z</time>
      </trkpt>
      <trkpt lat="46.69812" lon="15.63675">
        <ele>272.762734</ele>
        <time>2026-07-09T14:40:27.000Z</time>
      </trkpt>
      <trkpt lat="46.69791" lon="15.63681">
        <ele>273.08079</ele>
        <time>2026-07-09T14:40:32.000Z</time>
      </trkpt>
      <trkpt lat="46.69757" lon="15.63692">
        <ele>273.62804</ele>
        <time>2026-07-09T14:40:40.000Z</time>
      </trkpt>
      <trkpt lat="46.69733" lon="15.63702">
        <ele>273.575986</ele>
        <time>2026-07-09T14:40:46.000Z</time>
      </trkpt>
      <trkpt lat="46.69712" lon="15.6371">
        <ele>273.410808</ele>
        <time>2026-07-09T14:40:51.000Z</time>
      </trkpt>
      <trkpt lat="46.69695" lon="15.63717">
        <ele>273.278757</ele>
        <time>2026-07-09T14:40:55.000Z</time>
      </trkpt>
      <trkpt lat="46.69684" lon="15.63724">
        <ele>273.187499</ele>
        <time>2026-07-09T14:40:58.000Z</time>
      </trkpt>
      <trkpt lat="46.69644" lon="15.63744">
        <ele>272.873282</ele>
        <time>2026-07-09T14:41:08.000Z</time>
      </trkpt>
      <trkpt lat="46.69606" lon="15.63766">
        <ele>272.567049</ele>
        <time>2026-07-09T14:41:18.000Z</time>
      </trkpt>
      <trkpt lat="46.69558" lon="15.63801">
        <ele>272.446841</ele>
        <time>2026-07-09T14:41:30.000Z</time>
      </trkpt>
      <trkpt lat="46.69523" lon="15.63825">
        <ele>272.550723</ele>
        <time>2026-07-09T14:41:38.000Z</time>
      </trkpt>
      <trkpt lat="46.69481" lon="15.63861">
        <ele>272.679876</ele>
        <time>2026-07-09T14:41:48.000Z</time>
      </trkpt>
      <trkpt lat="46.69437" lon="15.63903">
        <ele>272.821175</ele>
        <time>2026-07-09T14:41:59.000Z</time>
      </trkpt>
      <trkpt lat="46.69411" lon="15.63924">
        <ele>273.052347</ele>
        <time>2026-07-09T14:42:05.000Z</time>
      </trkpt>
      <trkpt lat="46.69402" lon="15.63927">
        <ele>273.161062</ele>
        <time>2026-07-09T14:42:07.000Z</time>
      </trkpt>
      <trkpt lat="46.69366" lon="15.6394">
        <ele>273.59225</ele>
        <time>2026-07-09T14:42:15.000Z</time>
      </trkpt>
      <trkpt lat="46.69328" lon="15.63972">
        <ele>274.098046</ele>
        <time>2026-07-09T14:42:24.000Z</time>
      </trkpt>
      <trkpt lat="46.69287" lon="15.64014">
        <ele>274.690524</ele>
        <time>2026-07-09T14:42:35.000Z</time>
      </trkpt>
      <trkpt lat="46.69255" lon="15.6405">
        <ele>275.037761</ele>
        <time>2026-07-09T14:42:44.000Z</time>
      </trkpt>
      <trkpt lat="46.69223" lon="15.64091">
        <ele>275.252468</ele>
        <time>2026-07-09T14:42:54.000Z</time>
      </trkpt>
      <trkpt lat="46.692" lon="15.6411">
        <ele>275.383402</ele>
        <time>2026-07-09T14:43:00.000Z</time>
      </trkpt>
      <trkpt lat="46.69196" lon="15.64113">
        <ele>275.404914</ele>
        <time>2026-07-09T14:43:01.000Z</time>
      </trkpt>
      <trkpt lat="46.69167" lon="15.64135">
        <ele>275.574601</ele>
        <time>2026-07-09T14:43:09.000Z</time>
      </trkpt>
      <trkpt lat="46.69142" lon="15.64157">
        <ele>275.71906</ele>
        <time>2026-07-09T14:43:17.000Z</time>
      </trkpt>
      <trkpt lat="46.69129" lon="15.64168">
        <ele>275.796861</ele>
        <time>2026-07-09T14:43:23.000Z</time>
      </trkpt>
      <trkpt lat="46.6912" lon="15.64175">
        <ele>275.848399</ele>
        <time>2026-07-09T14:43:28.000Z</time>
      </trkpt>
      <trkpt lat="46.69118" lon="15.64175">
        <ele>275.876452</ele>
        <time>2026-07-09T14:43:29.000Z</time>
      </trkpt>
      <trkpt lat="46.69116" lon="15.64176">
        <ele>275.9815</ele>
        <time>2026-07-09T14:43:32.000Z</time>
      </trkpt>
      <trkpt lat="46.69124" lon="15.64168">
        <ele>276.34538</ele>
        <time>2026-07-09T14:44:39.000Z</time>
      </trkpt>
      <trkpt lat="46.69124" lon="15.64168">
        <ele>276.358719</ele>
        <time>2026-07-09T14:44:41.000Z</time>
      </trkpt>
      <trkpt lat="46.69127" lon="15.64167">
        <ele>276.497296</ele>
        <time>2026-07-09T14:44:49.000Z</time>
      </trkpt>
      <trkpt lat="46.69128" lon="15.64165">
        <ele>276.531093</ele>
        <time>2026-07-09T14:44:52.000Z</time>
      </trkpt>
      <trkpt lat="46.69125" lon="15.64161">
        <ele>276.685539</ele>
        <time>2026-07-09T14:45:11.000Z</time>
      </trkpt>
      <trkpt lat="46.69125" lon="15.64161">
        <ele>276.71541</ele>
        <time>2026-07-09T14:45:13.000Z</time>
      </trkpt>
      <trkpt lat="46.69126" lon="15.64159">
        <ele>276.779547</ele>
        <time>2026-07-09T14:45:15.000Z</time>
      </trkpt>
      <trkpt lat="46.69129" lon="15.64155">
        <ele>276.934989</ele>
        <time>2026-07-09T14:45:17.000Z</time>
      </trkpt>
      <trkpt lat="46.69129" lon="15.64154">
        <ele>276.956419</ele>
        <time>2026-07-09T14:45:20.000Z</time>
      </trkpt>
      <trkpt lat="46.69121" lon="15.64163">
        <ele>277.346044</ele>
        <time>2026-07-09T14:45:37.000Z</time>
      </trkpt>
      <trkpt lat="46.6912" lon="15.64164">
        <ele>277.386388</ele>
        <time>2026-07-09T14:45:38.000Z</time>
      </trkpt>
      <trkpt lat="46.6912" lon="15.64164">
        <ele>277.39759</ele>
        <time>2026-07-09T14:45:40.000Z</time>
      </trkpt>
      <trkpt lat="46.6912" lon="15.64164">
        <ele>277.409081</ele>
        <time>2026-07-09T14:45:41.000Z</time>
      </trkpt>
      <trkpt lat="46.6912" lon="15.64164">
        <ele>277.427192</ele>
        <time>2026-07-09T14:45:42.000Z</time>
      </trkpt>
      <trkpt lat="46.6912" lon="15.64165">
        <ele>277.439869</ele>
        <time>2026-07-09T14:45:43.000Z</time>
      </trkpt>
      <trkpt lat="46.69119" lon="15.64168">
        <ele>277.536975</ele>
        <time>2026-07-09T14:45:46.000Z</time>
      </trkpt>
      <trkpt lat="46.69119" lon="15.6417">
        <ele>277.5774</ele>
        <time>2026-07-09T14:45:47.000Z</time>
      </trkpt>
      <trkpt lat="46.69119" lon="15.64169">
        <ele>277.585295</ele>
        <time>2026-07-09T14:45:48.000Z</time>
      </trkpt>
      <trkpt lat="46.69121" lon="15.64164">
        <ele>277.743764</ele>
        <time>2026-07-09T14:45:57.000Z</time>
      </trkpt>
      <trkpt lat="46.69125" lon="15.64159">
        <ele>277.938362</ele>
        <time>2026-07-09T14:46:00.000Z</time>
      </trkpt>
      <trkpt lat="46.69126" lon="15.64156">
        <ele>278.025104</ele>
        <time>2026-07-09T14:46:04.000Z</time>
      </trkpt>
      <trkpt lat="46.69109" lon="15.64183">
        <ele>278.968762</ele>
        <time>2026-07-09T14:51:59.000Z</time>
      </trkpt>
      <trkpt lat="46.69108" lon="15.64185">
        <ele>279.0279</ele>
        <time>2026-07-09T14:52:00.000Z</time>
      </trkpt>
      <trkpt lat="46.69106" lon="15.64186">
        <ele>279.091289</ele>
        <time>2026-07-09T14:52:01.000Z</time>
      </trkpt>
      <trkpt lat="46.69102" lon="15.64191">
        <ele>279.281517</ele>
        <time>2026-07-09T14:52:04.000Z</time>
      </trkpt>
      <trkpt lat="46.69096" lon="15.64197">
        <ele>279.578912</ele>
        <time>2026-07-09T14:52:07.000Z</time>
      </trkpt>
      <trkpt lat="46.69076" lon="15.64214">
        <ele>280.448544</ele>
        <time>2026-07-09T14:52:15.000Z</time>
      </trkpt>
      <trkpt lat="46.69066" lon="15.64224">
        <ele>280.883444</ele>
        <time>2026-07-09T14:52:19.000Z</time>
      </trkpt>
      <trkpt lat="46.69051" lon="15.64239">
        <ele>281.570056</ele>
        <time>2026-07-09T14:52:26.000Z</time>
      </trkpt>
      <trkpt lat="46.69035" lon="15.64256">
        <ele>282.288187</ele>
        <time>2026-07-09T14:52:33.000Z</time>
      </trkpt>
      <trkpt lat="46.6903" lon="15.64262">
        <ele>282.548449</ele>
        <time>2026-07-09T14:52:36.000Z</time>
      </trkpt>
      <trkpt lat="46.69014" lon="15.64283">
        <ele>282.51167</ele>
        <time>2026-07-09T14:52:43.000Z</time>
      </trkpt>
      <trkpt lat="46.68997" lon="15.643">
        <ele>282.457541</ele>
        <time>2026-07-09T14:52:50.000Z</time>
      </trkpt>
      <trkpt lat="46.68987" lon="15.64308">
        <ele>282.427265</ele>
        <time>2026-07-09T14:52:55.000Z</time>
      </trkpt>
      <trkpt lat="46.68974" lon="15.64324">
        <ele>282.381946</ele>
        <time>2026-07-09T14:53:04.000Z</time>
      </trkpt>
      <trkpt lat="46.68962" lon="15.64337">
        <ele>282.339635</ele>
        <time>2026-07-09T14:53:11.000Z</time>
      </trkpt>
      <trkpt lat="46.68945" lon="15.64355">
        <ele>282.284738</ele>
        <time>2026-07-09T14:53:18.000Z</time>
      </trkpt>
      <trkpt lat="46.68943" lon="15.64357">
        <ele>282.277028</ele>
        <time>2026-07-09T14:53:19.000Z</time>
      </trkpt>
      <trkpt lat="46.6894" lon="15.64359">
        <ele>282.269188</ele>
        <time>2026-07-09T14:53:20.000Z</time>
      </trkpt>
      <trkpt lat="46.68922" lon="15.64377">
        <ele>282.211084</ele>
        <time>2026-07-09T14:53:27.000Z</time>
      </trkpt>
      <trkpt lat="46.6892" lon="15.64379">
        <ele>282.202689</ele>
        <time>2026-07-09T14:53:28.000Z</time>
      </trkpt>
      <trkpt lat="46.68891" lon="15.64408">
        <ele>282.108406</ele>
        <time>2026-07-09T14:53:38.000Z</time>
      </trkpt>
      <trkpt lat="46.68878" lon="15.64421">
        <ele>282.137633</ele>
        <time>2026-07-09T14:53:42.000Z</time>
      </trkpt>
      <trkpt lat="46.68852" lon="15.64446">
        <ele>282.379989</ele>
        <time>2026-07-09T14:53:50.000Z</time>
      </trkpt>
      <trkpt lat="46.68848" lon="15.64449">
        <ele>282.410476</ele>
        <time>2026-07-09T14:53:51.000Z</time>
      </trkpt>
      <trkpt lat="46.6882" lon="15.64478">
        <ele>282.674278</ele>
        <time>2026-07-09T14:53:59.000Z</time>
      </trkpt>
      <trkpt lat="46.68783" lon="15.64515">
        <ele>283.021933</ele>
        <time>2026-07-09T14:54:09.000Z</time>
      </trkpt>
      <trkpt lat="46.68771" lon="15.64526">
        <ele>283.131165</ele>
        <time>2026-07-09T14:54:12.000Z</time>
      </trkpt>
      <trkpt lat="46.6874" lon="15.64556">
        <ele>283.416081</ele>
        <time>2026-07-09T14:54:20.000Z</time>
      </trkpt>
      <trkpt lat="46.68712" lon="15.64581">
        <ele>283.920308</ele>
        <time>2026-07-09T14:54:27.000Z</time>
      </trkpt>
      <trkpt lat="46.68707" lon="15.64587">
        <ele>284.046625</ele>
        <time>2026-07-09T14:54:29.000Z</time>
      </trkpt>
      <trkpt lat="46.68675" lon="15.64619">
        <ele>284.723822</ele>
        <time>2026-07-09T14:54:39.000Z</time>
      </trkpt>
      <trkpt lat="46.68652" lon="15.64642">
        <ele>285.208737</ele>
        <time>2026-07-09T14:54:47.000Z</time>
      </trkpt>
      <trkpt lat="46.68635" lon="15.64656">
        <ele>285.553939</ele>
        <time>2026-07-09T14:54:53.000Z</time>
      </trkpt>
      <trkpt lat="46.68625" lon="15.64666">
        <ele>285.771863</ele>
        <time>2026-07-09T14:54:56.000Z</time>
      </trkpt>
      <trkpt lat="46.68608" lon="15.64682">
        <ele>286.11565</ele>
        <time>2026-07-09T14:55:01.000Z</time>
      </trkpt>
      <trkpt lat="46.68605" lon="15.64685">
        <ele>286.180342</ele>
        <time>2026-07-09T14:55:02.000Z</time>
      </trkpt>
      <trkpt lat="46.6858" lon="15.64711">
        <ele>286.793794</ele>
        <time>2026-07-09T14:55:10.000Z</time>
      </trkpt>
      <trkpt lat="46.68556" lon="15.64733">
        <ele>287.566723</ele>
        <time>2026-07-09T14:55:17.000Z</time>
      </trkpt>
      <trkpt lat="46.68524" lon="15.64763">
        <ele>288.611751</ele>
        <time>2026-07-09T14:55:27.000Z</time>
      </trkpt>
      <trkpt lat="46.68496" lon="15.6479">
        <ele>289.53895</ele>
        <time>2026-07-09T14:55:36.000Z</time>
      </trkpt>
      <trkpt lat="46.68475" lon="15.6481">
        <ele>290.245211</ele>
        <time>2026-07-09T14:55:44.000Z</time>
      </trkpt>
      <trkpt lat="46.68453" lon="15.6483">
        <ele>290.971122</ele>
        <time>2026-07-09T14:55:52.000Z</time>
      </trkpt>
      <trkpt lat="46.68445" lon="15.6484">
        <ele>291.249447</ele>
        <time>2026-07-09T14:55:55.000Z</time>
      </trkpt>
      <trkpt lat="46.68443" lon="15.64842">
        <ele>291.33946</ele>
        <time>2026-07-09T14:55:56.000Z</time>
      </trkpt>
      <trkpt lat="46.68429" lon="15.64856">
        <ele>292.01168</ele>
        <time>2026-07-09T14:56:01.000Z</time>
      </trkpt>
      <trkpt lat="46.68405" lon="15.64879">
        <ele>293.738025</ele>
        <time>2026-07-09T14:56:10.000Z</time>
      </trkpt>
      <trkpt lat="46.68385" lon="15.64899">
        <ele>295.161312</ele>
        <time>2026-07-09T14:56:17.000Z</time>
      </trkpt>
      <trkpt lat="46.68369" lon="15.64917">
        <ele>296.328546</ele>
        <time>2026-07-09T14:56:23.000Z</time>
      </trkpt>
      <trkpt lat="46.68364" lon="15.64923">
        <ele>296.715604</ele>
        <time>2026-07-09T14:56:25.000Z</time>
      </trkpt>
      <trkpt lat="46.68348" lon="15.6494">
        <ele>297.901844</ele>
        <time>2026-07-09T14:56:31.000Z</time>
      </trkpt>
      <trkpt lat="46.68339" lon="15.64949">
        <ele>298.520864</ele>
        <time>2026-07-09T14:56:34.000Z</time>
      </trkpt>
      <trkpt lat="46.68315" lon="15.64976">
        <ele>300.302317</ele>
        <time>2026-07-09T14:56:43.000Z</time>
      </trkpt>
      <trkpt lat="46.68289" lon="15.65001">
        <ele>302.167375</ele>
        <time>2026-07-09T14:56:52.000Z</time>
      </trkpt>
      <trkpt lat="46.68261" lon="15.65024">
        <ele>303.136362</ele>
        <time>2026-07-09T14:57:01.000Z</time>
      </trkpt>
      <trkpt lat="46.68224" lon="15.65045">
        <ele>304.323117</ele>
        <time>2026-07-09T14:57:12.000Z</time>
      </trkpt>
      <trkpt lat="46.68204" lon="15.65054">
        <ele>304.950016</ele>
        <time>2026-07-09T14:57:19.000Z</time>
      </trkpt>
      <trkpt lat="46.68192" lon="15.65058">
        <ele>305.313036</ele>
        <time>2026-07-09T14:57:23.000Z</time>
      </trkpt>
      <trkpt lat="46.68172" lon="15.65067">
        <ele>305.955364</ele>
        <time>2026-07-09T14:57:30.000Z</time>
      </trkpt>
      <trkpt lat="46.68153" lon="15.65074">
        <ele>306.532366</ele>
        <time>2026-07-09T14:57:39.000Z</time>
      </trkpt>
      <trkpt lat="46.68143" lon="15.65068">
        <ele>306.851201</ele>
        <time>2026-07-09T14:57:45.000Z</time>
      </trkpt>
      <trkpt lat="46.68143" lon="15.65067">
        <ele>306.875372</ele>
        <time>2026-07-09T14:57:48.000Z</time>
      </trkpt>
      <trkpt lat="46.68128" lon="15.65067">
        <ele>307.306948</ele>
        <time>2026-07-09T14:59:08.000Z</time>
      </trkpt>
      <trkpt lat="46.68127" lon="15.65066">
        <ele>307.354284</ele>
        <time>2026-07-09T14:59:09.000Z</time>
      </trkpt>
      <trkpt lat="46.6812" lon="15.65061">
        <ele>307.582722</ele>
        <time>2026-07-09T14:59:13.000Z</time>
      </trkpt>
      <trkpt lat="46.68119" lon="15.65061">
        <ele>307.606277</ele>
        <time>2026-07-09T14:59:14.000Z</time>
      </trkpt>
      <trkpt lat="46.68113" lon="15.6506">
        <ele>307.722252</ele>
        <time>2026-07-09T14:59:20.000Z</time>
      </trkpt>
      <trkpt lat="46.6811" lon="15.65065">
        <ele>307.824342</ele>
        <time>2026-07-09T14:59:33.000Z</time>
      </trkpt>
      <trkpt lat="46.68108" lon="15.65071">
        <ele>307.913212</ele>
        <time>2026-07-09T14:59:35.000Z</time>
      </trkpt>
      <trkpt lat="46.68103" lon="15.65092">
        <ele>308.230681</ele>
        <time>2026-07-09T14:59:42.000Z</time>
      </trkpt>
      <trkpt lat="46.68095" lon="15.65091">
        <ele>308.409022</ele>
        <time>2026-07-09T14:59:45.000Z</time>
      </trkpt>
      <trkpt lat="46.68089" lon="15.65091">
        <ele>308.517035</ele>
        <time>2026-07-09T14:59:48.000Z</time>
      </trkpt>
      <trkpt lat="46.68081" lon="15.65088">
        <ele>308.698303</ele>
        <time>2026-07-09T14:59:51.000Z</time>
      </trkpt>
      <trkpt lat="46.68076" lon="15.65094">
        <ele>308.839075</ele>
        <time>2026-07-09T14:59:54.000Z</time>
      </trkpt>
      <trkpt lat="46.68072" lon="15.65098">
        <ele>308.937067</ele>
        <time>2026-07-09T14:59:57.000Z</time>
      </trkpt>
      <trkpt lat="46.68062" lon="15.65109">
        <ele>309.200097</ele>
        <time>2026-07-09T15:00:02.000Z</time>
      </trkpt>
      <trkpt lat="46.68048" lon="15.65117">
        <ele>309.503017</ele>
        <time>2026-07-09T15:00:05.000Z</time>
      </trkpt>
      <trkpt lat="46.68044" lon="15.65121">
        <ele>309.61203</ele>
        <time>2026-07-09T15:00:06.000Z</time>
      </trkpt>
      <trkpt lat="46.6802" lon="15.65127">
        <ele>310.115804</ele>
        <time>2026-07-09T15:00:14.000Z</time>
      </trkpt>
      <trkpt lat="46.68003" lon="15.65124">
        <ele>310.462502</ele>
        <time>2026-07-09T15:00:20.000Z</time>
      </trkpt>
      <trkpt lat="46.68001" lon="15.65122">
        <ele>310.511706</ele>
        <time>2026-07-09T15:00:21.000Z</time>
      </trkpt>
      <trkpt lat="46.67999" lon="15.6512">
        <ele>310.563817</ele>
        <time>2026-07-09T15:00:22.000Z</time>
      </trkpt>
      <trkpt lat="46.67997" lon="15.65118">
        <ele>310.611575</ele>
        <time>2026-07-09T15:00:24.000Z</time>
      </trkpt>
      <trkpt lat="46.67997" lon="15.65118">
        <ele>310.619986</ele>
        <time>2026-07-09T15:00:25.000Z</time>
      </trkpt>
      <trkpt lat="46.6799" lon="15.65121">
        <ele>310.759691</ele>
        <time>2026-07-09T15:01:07.000Z</time>
      </trkpt>
      <trkpt lat="46.67987" lon="15.65125">
        <ele>310.859863</ele>
        <time>2026-07-09T15:01:09.000Z</time>
      </trkpt>
      <trkpt lat="46.67979" lon="15.65133">
        <ele>311.041648</ele>
        <time>2026-07-09T15:01:12.000Z</time>
      </trkpt>
      <trkpt lat="46.67973" lon="15.65137">
        <ele>311.177123</ele>
        <time>2026-07-09T15:01:15.000Z</time>
      </trkpt>
      <trkpt lat="46.67956" lon="15.6515">
        <ele>310.978696</ele>
        <time>2026-07-09T15:01:21.000Z</time>
      </trkpt>
      <trkpt lat="46.67951" lon="15.65157">
        <ele>310.796846</ele>
        <time>2026-07-09T15:01:23.000Z</time>
      </trkpt>
      <trkpt lat="46.67944" lon="15.65164">
        <ele>310.587932</ele>
        <time>2026-07-09T15:01:25.000Z</time>
      </trkpt>
      <trkpt lat="46.6794" lon="15.65168">
        <ele>310.454951</ele>
        <time>2026-07-09T15:01:26.000Z</time>
      </trkpt>
      <trkpt lat="46.67925" lon="15.65181">
        <ele>309.999081</ele>
        <time>2026-07-09T15:01:30.000Z</time>
      </trkpt>
      <trkpt lat="46.67907" lon="15.65196">
        <ele>309.469971</ele>
        <time>2026-07-09T15:01:34.000Z</time>
      </trkpt>
      <trkpt lat="46.67893" lon="15.65208">
        <ele>309.061148</ele>
        <time>2026-07-09T15:01:37.000Z</time>
      </trkpt>
      <trkpt lat="46.67866" lon="15.65231">
        <ele>308.244372</ele>
        <time>2026-07-09T15:01:43.000Z</time>
      </trkpt>
      <trkpt lat="46.67831" lon="15.65259">
        <ele>307.220055</ele>
        <time>2026-07-09T15:01:51.000Z</time>
      </trkpt>
      <trkpt lat="46.67818" lon="15.65263">
        <ele>306.877246</ele>
        <time>2026-07-09T15:01:54.000Z</time>
      </trkpt>
      <trkpt lat="46.67814" lon="15.65265">
        <ele>306.775237</ele>
        <time>2026-07-09T15:01:55.000Z</time>
      </trkpt>
      <trkpt lat="46.67811" lon="15.65268">
        <ele>306.682072</ele>
        <time>2026-07-09T15:01:56.000Z</time>
      </trkpt>
      <trkpt lat="46.67806" lon="15.65276">
        <ele>306.573998</ele>
        <time>2026-07-09T15:01:58.000Z</time>
      </trkpt>
      <trkpt lat="46.67788" lon="15.65292">
        <ele>306.277162</ele>
        <time>2026-07-09T15:02:03.000Z</time>
      </trkpt>
      <trkpt lat="46.67777" lon="15.65301">
        <ele>306.096097</ele>
        <time>2026-07-09T15:02:06.000Z</time>
      </trkpt>
      <trkpt lat="46.67754" lon="15.65326">
        <ele>305.683417</ele>
        <time>2026-07-09T15:02:13.000Z</time>
      </trkpt>
      <trkpt lat="46.67748" lon="15.65334">
        <ele>305.563306</ele>
        <time>2026-07-09T15:02:15.000Z</time>
      </trkpt>
      <trkpt lat="46.67744" lon="15.65337">
        <ele>305.49919</ele>
        <time>2026-07-09T15:02:16.000Z</time>
      </trkpt>
      <trkpt lat="46.67733" lon="15.65349">
        <ele>305.298094</ele>
        <time>2026-07-09T15:02:19.000Z</time>
      </trkpt>
      <trkpt lat="46.67729" lon="15.65354">
        <ele>305.228701</ele>
        <time>2026-07-09T15:02:20.000Z</time>
      </trkpt>
      <trkpt lat="46.67705" lon="15.65382">
        <ele>304.778795</ele>
        <time>2026-07-09T15:02:26.000Z</time>
      </trkpt>
      <trkpt lat="46.67697" lon="15.65393">
        <ele>304.623907</ele>
        <time>2026-07-09T15:02:28.000Z</time>
      </trkpt>
      <trkpt lat="46.67659" lon="15.6545">
        <ele>303.627251</ele>
        <time>2026-07-09T15:02:37.000Z</time>
      </trkpt>
      <trkpt lat="46.67641" lon="15.65479">
        <ele>302.907322</ele>
        <time>2026-07-09T15:02:41.000Z</time>
      </trkpt>
      <trkpt lat="46.67632" lon="15.65494">
        <ele>302.541379</ele>
        <time>2026-07-09T15:02:43.000Z</time>
      </trkpt>
      <trkpt lat="46.67623" lon="15.65509">
        <ele>302.173521</ele>
        <time>2026-07-09T15:02:45.000Z</time>
      </trkpt>
      <trkpt lat="46.67588" lon="15.65555">
        <ele>300.920278</ele>
        <time>2026-07-09T15:02:52.000Z</time>
      </trkpt>
      <trkpt lat="46.67583" lon="15.65561">
        <ele>300.749622</ele>
        <time>2026-07-09T15:02:53.000Z</time>
      </trkpt>
      <trkpt lat="46.67545" lon="15.65604">
        <ele>299.466192</ele>
        <time>2026-07-09T15:03:01.000Z</time>
      </trkpt>
      <trkpt lat="46.67516" lon="15.65637">
        <ele>299.065912</ele>
        <time>2026-07-09T15:03:08.000Z</time>
      </trkpt>
      <trkpt lat="46.67503" lon="15.65653">
        <ele>298.925628</ele>
        <time>2026-07-09T15:03:12.000Z</time>
      </trkpt>
      <trkpt lat="46.67496" lon="15.65659">
        <ele>298.860116</ele>
        <time>2026-07-09T15:03:14.000Z</time>
      </trkpt>
      <trkpt lat="46.67486" lon="15.6567">
        <ele>298.762703</ele>
        <time>2026-07-09T15:03:18.000Z</time>
      </trkpt>
      <trkpt lat="46.67484" lon="15.65671">
        <ele>298.745077</ele>
        <time>2026-07-09T15:03:19.000Z</time>
      </trkpt>
      <trkpt lat="46.6747" lon="15.65683">
        <ele>298.611409</ele>
        <time>2026-07-09T15:03:25.000Z</time>
      </trkpt>
      <trkpt lat="46.67461" lon="15.65698">
        <ele>298.501278</ele>
        <time>2026-07-09T15:03:29.000Z</time>
      </trkpt>
      <trkpt lat="46.67439" lon="15.65716">
        <ele>298.299049</ele>
        <time>2026-07-09T15:03:35.000Z</time>
      </trkpt>
      <trkpt lat="46.67435" lon="15.6572">
        <ele>298.264294</ele>
        <time>2026-07-09T15:03:36.000Z</time>
      </trkpt>
      <trkpt lat="46.67417" lon="15.65749">
        <ele>298.048228</ele>
        <time>2026-07-09T15:03:42.000Z</time>
      </trkpt>
      <trkpt lat="46.67387" lon="15.6578">
        <ele>297.650666</ele>
        <time>2026-07-09T15:03:50.000Z</time>
      </trkpt>
      <trkpt lat="46.67379" lon="15.65787">
        <ele>297.515241</ele>
        <time>2026-07-09T15:03:52.000Z</time>
      </trkpt>
      <trkpt lat="46.67354" lon="15.65809">
        <ele>297.085388</ele>
        <time>2026-07-09T15:03:58.000Z</time>
      </trkpt>
      <trkpt lat="46.67328" lon="15.65831">
        <ele>296.642735</ele>
        <time>2026-07-09T15:04:04.000Z</time>
      </trkpt>
      <trkpt lat="46.67312" lon="15.65847">
        <ele>296.345825</ele>
        <time>2026-07-09T15:04:08.000Z</time>
      </trkpt>
      <trkpt lat="46.67289" lon="15.65867">
        <ele>295.954504</ele>
        <time>2026-07-09T15:04:13.000Z</time>
      </trkpt>
      <trkpt lat="46.67272" lon="15.65885">
        <ele>295.643226</ele>
        <time>2026-07-09T15:04:17.000Z</time>
      </trkpt>
      <trkpt lat="46.67251" lon="15.65909">
        <ele>295.242548</ele>
        <time>2026-07-09T15:04:22.000Z</time>
      </trkpt>
      <trkpt lat="46.67242" lon="15.65919">
        <ele>295.229889</ele>
        <time>2026-07-09T15:04:24.000Z</time>
      </trkpt>
      <trkpt lat="46.67222" lon="15.65947">
        <ele>295.34261</ele>
        <time>2026-07-09T15:04:29.000Z</time>
      </trkpt>
      <trkpt lat="46.6721" lon="15.65965">
        <ele>295.413367</ele>
        <time>2026-07-09T15:04:32.000Z</time>
      </trkpt>
      <trkpt lat="46.67173" lon="15.66027">
        <ele>295.643758</ele>
        <time>2026-07-09T15:04:42.000Z</time>
      </trkpt>
      <trkpt lat="46.67139" lon="15.66089">
        <ele>295.866689</ele>
        <time>2026-07-09T15:04:51.000Z</time>
      </trkpt>
      <trkpt lat="46.67128" lon="15.66108">
        <ele>295.943116</ele>
        <time>2026-07-09T15:04:54.000Z</time>
      </trkpt>
      <trkpt lat="46.67118" lon="15.66128">
        <ele>296.092927</ele>
        <time>2026-07-09T15:04:57.000Z</time>
      </trkpt>
      <trkpt lat="46.67096" lon="15.66165">
        <ele>296.389996</ele>
        <time>2026-07-09T15:05:03.000Z</time>
      </trkpt>
      <trkpt lat="46.6709" lon="15.66177">
        <ele>296.477603</ele>
        <time>2026-07-09T15:05:05.000Z</time>
      </trkpt>
      <trkpt lat="46.67079" lon="15.66195">
        <ele>296.626659</ele>
        <time>2026-07-09T15:05:08.000Z</time>
      </trkpt>
      <trkpt lat="46.6705" lon="15.66231">
        <ele>296.962545</ele>
        <time>2026-07-09T15:05:15.000Z</time>
      </trkpt>
      <trkpt lat="46.67023" lon="15.66252">
        <ele>297.231768</ele>
        <time>2026-07-09T15:05:20.000Z</time>
      </trkpt>
      <trkpt lat="46.67013" lon="15.66259">
        <ele>297.330657</ele>
        <time>2026-07-09T15:05:22.000Z</time>
      </trkpt>
      <trkpt lat="46.66968" lon="15.66277">
        <ele>296.940319</ele>
        <time>2026-07-09T15:05:30.000Z</time>
      </trkpt>
      <trkpt lat="46.66962" lon="15.66279">
        <ele>296.792391</ele>
        <time>2026-07-09T15:05:31.000Z</time>
      </trkpt>
      <trkpt lat="46.66939" lon="15.66285">
        <ele>296.246645</ele>
        <time>2026-07-09T15:05:35.000Z</time>
      </trkpt>
      <trkpt lat="46.66881" lon="15.66295">
        <ele>294.907222</ele>
        <time>2026-07-09T15:05:45.000Z</time>
      </trkpt>
      <trkpt lat="46.66833" lon="15.66296">
        <ele>293.775355</ele>
        <time>2026-07-09T15:05:53.000Z</time>
      </trkpt>
      <trkpt lat="46.66792" lon="15.66287">
        <ele>292.862743</ele>
        <time>2026-07-09T15:05:59.000Z</time>
      </trkpt>
      <trkpt lat="46.66752" lon="15.66271">
        <ele>291.988637</ele>
        <time>2026-07-09T15:06:05.000Z</time>
      </trkpt>
      <trkpt lat="46.66714" lon="15.66241">
        <ele>291.076839</ele>
        <time>2026-07-09T15:06:11.000Z</time>
      </trkpt>
      <trkpt lat="46.66668" lon="15.66193">
        <ele>289.897574</ele>
        <time>2026-07-09T15:06:19.000Z</time>
      </trkpt>
      <trkpt lat="46.66646" lon="15.6617">
        <ele>289.497605</ele>
        <time>2026-07-09T15:06:23.000Z</time>
      </trkpt>
      <trkpt lat="46.66599" lon="15.66117">
        <ele>289.185921</ele>
        <time>2026-07-09T15:06:32.000Z</time>
      </trkpt>
      <trkpt lat="46.66594" lon="15.66111">
        <ele>289.151832</ele>
        <time>2026-07-09T15:06:33.000Z</time>
      </trkpt>
      <trkpt lat="46.66547" lon="15.66059">
        <ele>288.848275</ele>
        <time>2026-07-09T15:06:42.000Z</time>
      </trkpt>
      <trkpt lat="46.66511" lon="15.66011">
        <ele>288.473921</ele>
        <time>2026-07-09T15:06:49.000Z</time>
      </trkpt>
      <trkpt lat="46.66468" lon="15.65964">
        <ele>286.889622</ele>
        <time>2026-07-09T15:06:57.000Z</time>
      </trkpt>
      <trkpt lat="46.66449" lon="15.65952">
        <ele>286.296984</ele>
        <time>2026-07-09T15:07:00.000Z</time>
      </trkpt>
      <trkpt lat="46.66437" lon="15.65947">
        <ele>285.920335</ele>
        <time>2026-07-09T15:07:01.000Z</time>
      </trkpt>
      <trkpt lat="46.6643" lon="15.65945">
        <ele>285.721245</ele>
        <time>2026-07-09T15:07:03.000Z</time>
      </trkpt>
      <trkpt lat="46.66404" lon="15.65943">
        <ele>284.967818</ele>
        <time>2026-07-09T15:07:07.000Z</time>
      </trkpt>
      <trkpt lat="46.664" lon="15.65942">
        <ele>284.827771</ele>
        <time>2026-07-09T15:07:08.000Z</time>
      </trkpt>
      <trkpt lat="46.66396" lon="15.65939">
        <ele>284.701814</ele>
        <time>2026-07-09T15:07:09.000Z</time>
      </trkpt>
      <trkpt lat="46.66393" lon="15.65927">
        <ele>284.464169</ele>
        <time>2026-07-09T15:07:11.000Z</time>
      </trkpt>
      <trkpt lat="46.66398" lon="15.65891">
        <ele>283.718074</ele>
        <time>2026-07-09T15:07:17.000Z</time>
      </trkpt>
      <trkpt lat="46.66406" lon="15.65848">
        <ele>283.419239</ele>
        <time>2026-07-09T15:07:23.000Z</time>
      </trkpt>
      <trkpt lat="46.66415" lon="15.65785">
        <ele>283.582795</ele>
        <time>2026-07-09T15:07:33.000Z</time>
      </trkpt>
      <trkpt lat="46.66424" lon="15.6575">
        <ele>283.676551</ele>
        <time>2026-07-09T15:07:39.000Z</time>
      </trkpt>
      <trkpt lat="46.66428" lon="15.65738">
        <ele>283.709588</ele>
        <time>2026-07-09T15:07:41.000Z</time>
      </trkpt>
      <trkpt lat="46.66442" lon="15.65707">
        <ele>283.803067</ele>
        <time>2026-07-09T15:07:47.000Z</time>
      </trkpt>
      <trkpt lat="46.66447" lon="15.65698">
        <ele>283.83318</ele>
        <time>2026-07-09T15:07:49.000Z</time>
      </trkpt>
      <trkpt lat="46.66456" lon="15.65685">
        <ele>283.880133</ele>
        <time>2026-07-09T15:07:52.000Z</time>
      </trkpt>
      <trkpt lat="46.66471" lon="15.65665">
        <ele>283.953812</ele>
        <time>2026-07-09T15:07:57.000Z</time>
      </trkpt>
      <trkpt lat="46.66499" lon="15.6564">
        <ele>283.979189</ele>
        <time>2026-07-09T15:08:05.000Z</time>
      </trkpt>
      <trkpt lat="46.66524" lon="15.65611">
        <ele>283.908307</ele>
        <time>2026-07-09T15:08:13.000Z</time>
      </trkpt>
      <trkpt lat="46.6653" lon="15.65603">
        <ele>283.889726</ele>
        <time>2026-07-09T15:08:15.000Z</time>
      </trkpt>
      <trkpt lat="46.66537" lon="15.65594">
        <ele>283.869176</ele>
        <time>2026-07-09T15:08:17.000Z</time>
      </trkpt>
      <trkpt lat="46.66541" lon="15.65588">
        <ele>283.857088</ele>
        <time>2026-07-09T15:08:18.000Z</time>
      </trkpt>
      <trkpt lat="46.66557" lon="15.65556">
        <ele>283.795717</ele>
        <time>2026-07-09T15:08:24.000Z</time>
      </trkpt>
      <trkpt lat="46.66574" lon="15.65508">
        <ele>283.713225</ele>
        <time>2026-07-09T15:08:32.000Z</time>
      </trkpt>
      <trkpt lat="46.6658" lon="15.65491">
        <ele>283.685378</ele>
        <time>2026-07-09T15:08:35.000Z</time>
      </trkpt>
      <trkpt lat="46.66582" lon="15.65485">
        <ele>283.675436</ele>
        <time>2026-07-09T15:08:36.000Z</time>
      </trkpt>
      <trkpt lat="46.66587" lon="15.65473">
        <ele>283.652465</ele>
        <time>2026-07-09T15:08:38.000Z</time>
      </trkpt>
      <trkpt lat="46.66589" lon="15.65468">
        <ele>283.644015</ele>
        <time>2026-07-09T15:08:39.000Z</time>
      </trkpt>
      <trkpt lat="46.66592" lon="15.6546">
        <ele>283.631512</ele>
        <time>2026-07-09T15:08:40.000Z</time>
      </trkpt>
      <trkpt lat="46.66606" lon="15.65419">
        <ele>284.301026</ele>
        <time>2026-07-09T15:08:47.000Z</time>
      </trkpt>
      <trkpt lat="46.6661" lon="15.65408">
        <ele>284.531329</ele>
        <time>2026-07-09T15:08:49.000Z</time>
      </trkpt>
      <trkpt lat="46.66615" lon="15.65396">
        <ele>284.81157</ele>
        <time>2026-07-09T15:08:51.000Z</time>
      </trkpt>
      <trkpt lat="46.66617" lon="15.6539">
        <ele>284.933358</ele>
        <time>2026-07-09T15:08:52.000Z</time>
      </trkpt>
      <trkpt lat="46.66619" lon="15.65384">
        <ele>285.045509</ele>
        <time>2026-07-09T15:08:53.000Z</time>
      </trkpt>
      <trkpt lat="46.66622" lon="15.65375">
        <ele>285.255807</ele>
        <time>2026-07-09T15:08:55.000Z</time>
      </trkpt>
      <trkpt lat="46.66632" lon="15.65348">
        <ele>285.824891</ele>
        <time>2026-07-09T15:09:00.000Z</time>
      </trkpt>
      <trkpt lat="46.66635" lon="15.65338">
        <ele>286.029376</ele>
        <time>2026-07-09T15:09:02.000Z</time>
      </trkpt>
      <trkpt lat="46.66639" lon="15.65326">
        <ele>286.284412</ele>
        <time>2026-07-09T15:09:04.000Z</time>
      </trkpt>
      <trkpt lat="46.66641" lon="15.65309">
        <ele>286.618157</ele>
        <time>2026-07-09T15:09:07.000Z</time>
      </trkpt>
      <trkpt lat="46.66641" lon="15.65297">
        <ele>286.832446</ele>
        <time>2026-07-09T15:09:09.000Z</time>
      </trkpt>
      <trkpt lat="46.66639" lon="15.65276">
        <ele>287.238675</ele>
        <time>2026-07-09T15:09:13.000Z</time>
      </trkpt>
      <trkpt lat="46.66635" lon="15.65258">
        <ele>287.599764</ele>
        <time>2026-07-09T15:09:18.000Z</time>
      </trkpt>
      <trkpt lat="46.66629" lon="15.6524">
        <ele>287.983152</ele>
        <time>2026-07-09T15:09:24.000Z</time>
      </trkpt>
      <trkpt lat="46.66626" lon="15.65232">
        <ele>288.154599</ele>
        <time>2026-07-09T15:09:27.000Z</time>
      </trkpt>
      <trkpt lat="46.66622" lon="15.65222">
        <ele>288.369882</ele>
        <time>2026-07-09T15:09:31.000Z</time>
      </trkpt>
      <trkpt lat="46.66615" lon="15.65209">
        <ele>289.09825</ele>
        <time>2026-07-09T15:09:37.000Z</time>
      </trkpt>
      <trkpt lat="46.66614" lon="15.65204">
        <ele>289.60648</ele>
        <time>2026-07-09T15:09:39.000Z</time>
      </trkpt>
      <trkpt lat="46.66603" lon="15.65182">
        <ele>292.19208</ele>
        <time>2026-07-09T15:09:49.000Z</time>
      </trkpt>
      <trkpt lat="46.66602" lon="15.6518">
        <ele>292.428767</ele>
        <time>2026-07-09T15:09:50.000Z</time>
      </trkpt>
      <trkpt lat="46.666" lon="15.65168">
        <ele>293.653509</ele>
        <time>2026-07-09T15:09:55.000Z</time>
      </trkpt>
      <trkpt lat="46.66599" lon="15.65165">
        <ele>293.903993</ele>
        <time>2026-07-09T15:09:56.000Z</time>
      </trkpt>
      <trkpt lat="46.66599" lon="15.65163">
        <ele>294.090784</ele>
        <time>2026-07-09T15:09:57.000Z</time>
      </trkpt>
      <trkpt lat="46.66598" lon="15.65158">
        <ele>294.58165</ele>
        <time>2026-07-09T15:09:59.000Z</time>
      </trkpt>
      <trkpt lat="46.66595" lon="15.65143">
        <ele>296.124364</ele>
        <time>2026-07-09T15:10:06.000Z</time>
      </trkpt>
      <trkpt lat="46.66595" lon="15.65141">
        <ele>296.288165</ele>
        <time>2026-07-09T15:10:07.000Z</time>
      </trkpt>
      <trkpt lat="46.66591" lon="15.65133">
        <ele>297.235955</ele>
        <time>2026-07-09T15:10:11.000Z</time>
      </trkpt>
      <trkpt lat="46.6659" lon="15.65113">
        <ele>299.14586</ele>
        <time>2026-07-09T15:10:19.000Z</time>
      </trkpt>
      <trkpt lat="46.66585" lon="15.65094">
        <ele>301.093003</ele>
        <time>2026-07-09T15:10:27.000Z</time>
      </trkpt>
      <trkpt lat="46.66581" lon="15.65079">
        <ele>302.64438</ele>
        <time>2026-07-09T15:10:34.000Z</time>
      </trkpt>
      <trkpt lat="46.66579" lon="15.65064">
        <ele>304.119859</ele>
        <time>2026-07-09T15:10:41.000Z</time>
      </trkpt>
      <trkpt lat="46.66577" lon="15.65056">
        <ele>304.904443</ele>
        <time>2026-07-09T15:10:45.000Z</time>
      </trkpt>
      <trkpt lat="46.66575" lon="15.65053">
        <ele>305.316911</ele>
        <time>2026-07-09T15:10:47.000Z</time>
      </trkpt>
      <trkpt lat="46.66572" lon="15.65045">
        <ele>306.199333</ele>
        <time>2026-07-09T15:10:51.000Z</time>
      </trkpt>
      <trkpt lat="46.66571" lon="15.65041">
        <ele>306.631763</ele>
        <time>2026-07-09T15:10:53.000Z</time>
      </trkpt>
      <trkpt lat="46.6657" lon="15.65034">
        <ele>307.277622</ele>
        <time>2026-07-09T15:10:56.000Z</time>
      </trkpt>
      <trkpt lat="46.6657" lon="15.65028">
        <ele>307.872542</ele>
        <time>2026-07-09T15:10:59.000Z</time>
      </trkpt>
      <trkpt lat="46.66567" lon="15.6502">
        <ele>308.685395</ele>
        <time>2026-07-09T15:11:03.000Z</time>
      </trkpt>
      <trkpt lat="46.66567" lon="15.65013">
        <ele>309.397356</ele>
        <time>2026-07-09T15:11:07.000Z</time>
      </trkpt>
      <trkpt lat="46.66566" lon="15.65009">
        <ele>309.803767</ele>
        <time>2026-07-09T15:11:09.000Z</time>
      </trkpt>
      <trkpt lat="46.66566" lon="15.65005">
        <ele>310.232777</ele>
        <time>2026-07-09T15:11:11.000Z</time>
      </trkpt>
      <trkpt lat="46.66563" lon="15.64996">
        <ele>311.15549</ele>
        <time>2026-07-09T15:11:15.000Z</time>
      </trkpt>
      <trkpt lat="46.66559" lon="15.64982">
        <ele>312.638755</ele>
        <time>2026-07-09T15:11:22.000Z</time>
      </trkpt>
      <trkpt lat="46.66556" lon="15.64967">
        <ele>314.130625</ele>
        <time>2026-07-09T15:11:29.000Z</time>
      </trkpt>
      <trkpt lat="46.66551" lon="15.64949">
        <ele>315.946311</ele>
        <time>2026-07-09T15:11:38.000Z</time>
      </trkpt>
      <trkpt lat="46.66551" lon="15.64944">
        <ele>316.363375</ele>
        <time>2026-07-09T15:11:42.000Z</time>
      </trkpt>
      <trkpt lat="46.66547" lon="15.64941">
        <ele>316.968636</ele>
        <time>2026-07-09T15:12:24.000Z</time>
      </trkpt>
      <trkpt lat="46.66546" lon="15.6494">
        <ele>317.144134</ele>
        <time>2026-07-09T15:12:25.000Z</time>
      </trkpt>
      <trkpt lat="46.66546" lon="15.64935">
        <ele>317.600491</ele>
        <time>2026-07-09T15:12:28.000Z</time>
      </trkpt>
      <trkpt lat="46.66545" lon="15.64921">
        <ele>318.94909</ele>
        <time>2026-07-09T15:12:35.000Z</time>
      </trkpt>
      <trkpt lat="46.66542" lon="15.64911">
        <ele>319.921327</ele>
        <time>2026-07-09T15:12:40.000Z</time>
      </trkpt>
      <trkpt lat="46.66541" lon="15.64908">
        <ele>320.267708</ele>
        <time>2026-07-09T15:12:42.000Z</time>
      </trkpt>
      <trkpt lat="46.66533" lon="15.64893">
        <ele>321.977253</ele>
        <time>2026-07-09T15:12:51.000Z</time>
      </trkpt>
      <trkpt lat="46.66525" lon="15.64879">
        <ele>323.751992</ele>
        <time>2026-07-09T15:13:00.000Z</time>
      </trkpt>
      <trkpt lat="46.66517" lon="15.64874">
        <ele>324.84902</ele>
        <time>2026-07-09T15:13:05.000Z</time>
      </trkpt>
      <trkpt lat="46.66517" lon="15.64872">
        <ele>324.970638</ele>
        <time>2026-07-09T15:13:06.000Z</time>
      </trkpt>
      <trkpt lat="46.66518" lon="15.64869">
        <ele>325.31702</ele>
        <time>2026-07-09T15:13:08.000Z</time>
      </trkpt>
      <trkpt lat="46.66515" lon="15.64862">
        <ele>326.060784</ele>
        <time>2026-07-09T15:13:12.000Z</time>
      </trkpt>
      <trkpt lat="46.66511" lon="15.64859">
        <ele>326.589865</ele>
        <time>2026-07-09T15:13:15.000Z</time>
      </trkpt>
      <trkpt lat="46.66507" lon="15.64857">
        <ele>327.137216</ele>
        <time>2026-07-09T15:13:18.000Z</time>
      </trkpt>
      <trkpt lat="46.66506" lon="15.64854">
        <ele>327.512864</ele>
        <time>2026-07-09T15:13:20.000Z</time>
      </trkpt>
      <trkpt lat="46.66505" lon="15.64848">
        <ele>328.023783</ele>
        <time>2026-07-09T15:13:23.000Z</time>
      </trkpt>
      <trkpt lat="46.66501" lon="15.64843">
        <ele>328.79147</ele>
        <time>2026-07-09T15:13:27.000Z</time>
      </trkpt>
      <trkpt lat="46.66498" lon="15.64841">
        <ele>329.234619</ele>
        <time>2026-07-09T15:13:29.000Z</time>
      </trkpt>
      <trkpt lat="46.66497" lon="15.6484">
        <ele>329.39385</ele>
        <time>2026-07-09T15:13:30.000Z</time>
      </trkpt>
      <trkpt lat="46.66493" lon="15.64837">
        <ele>330.047959</ele>
        <time>2026-07-09T15:13:34.000Z</time>
      </trkpt>
      <trkpt lat="46.66492" lon="15.64833">
        <ele>330.416818</ele>
        <time>2026-07-09T15:13:36.000Z</time>
      </trkpt>
      <trkpt lat="46.66488" lon="15.64823">
        <ele>331.522723</ele>
        <time>2026-07-09T15:13:42.000Z</time>
      </trkpt>
      <trkpt lat="46.66487" lon="15.64822">
        <ele>331.739117</ele>
        <time>2026-07-09T15:13:43.000Z</time>
      </trkpt>
      <trkpt lat="46.66482" lon="15.64821">
        <ele>332.318941</ele>
        <time>2026-07-09T15:13:47.000Z</time>
      </trkpt>
      <trkpt lat="46.66482" lon="15.64817">
        <ele>332.644325</ele>
        <time>2026-07-09T15:13:49.000Z</time>
      </trkpt>
      <trkpt lat="46.66482" lon="15.64814">
        <ele>332.980115</ele>
        <time>2026-07-09T15:13:51.000Z</time>
      </trkpt>
      <trkpt lat="46.66481" lon="15.64808">
        <ele>333.548371</ele>
        <time>2026-07-09T15:13:54.000Z</time>
      </trkpt>
      <trkpt lat="46.66478" lon="15.64801">
        <ele>334.299941</ele>
        <time>2026-07-09T15:13:58.000Z</time>
      </trkpt>
      <trkpt lat="46.66477" lon="15.64797">
        <ele>334.642913</ele>
        <time>2026-07-09T15:14:00.000Z</time>
      </trkpt>
      <trkpt lat="46.66476" lon="15.64796">
        <ele>334.796539</ele>
        <time>2026-07-09T15:14:01.000Z</time>
      </trkpt>
      <trkpt lat="46.66476" lon="15.64796">
        <ele>334.857485</ele>
        <time>2026-07-09T15:14:03.000Z</time>
      </trkpt>
      <trkpt lat="46.66474" lon="15.64789">
        <ele>335.531296</ele>
        <time>2026-07-09T15:14:22.000Z</time>
      </trkpt>
      <trkpt lat="46.66473" lon="15.64787">
        <ele>335.762403</ele>
        <time>2026-07-09T15:14:23.000Z</time>
      </trkpt>
      <trkpt lat="46.66471" lon="15.64781">
        <ele>336.416204</ele>
        <time>2026-07-09T15:14:26.000Z</time>
      </trkpt>
      <trkpt lat="46.66472" lon="15.64775">
        <ele>336.992312</ele>
        <time>2026-07-09T15:14:28.000Z</time>
      </trkpt>
      <trkpt lat="46.66476" lon="15.64754">
        <ele>338.544995</ele>
        <time>2026-07-09T15:14:35.000Z</time>
      </trkpt>
      <trkpt lat="46.66479" lon="15.6474">
        <ele>339.163279</ele>
        <time>2026-07-09T15:14:40.000Z</time>
      </trkpt>
      <trkpt lat="46.66483" lon="15.64727">
        <ele>339.731309</ele>
        <time>2026-07-09T15:14:46.000Z</time>
      </trkpt>
      <trkpt lat="46.66491" lon="15.64712">
        <ele>340.538104</ele>
        <time>2026-07-09T15:14:54.000Z</time>
      </trkpt>
      <trkpt lat="46.66495" lon="15.64707">
        <ele>340.859566</ele>
        <time>2026-07-09T15:14:57.000Z</time>
      </trkpt>
      <trkpt lat="46.66502" lon="15.64701">
        <ele>341.335658</ele>
        <time>2026-07-09T15:15:01.000Z</time>
      </trkpt>
      <trkpt lat="46.66514" lon="15.64692">
        <ele>342.14631</ele>
        <time>2026-07-09T15:15:09.000Z</time>
      </trkpt>
      <trkpt lat="46.66524" lon="15.64679">
        <ele>342.939625</ele>
        <time>2026-07-09T15:15:16.000Z</time>
      </trkpt>
      <trkpt lat="46.66533" lon="15.64665">
        <ele>343.752503</ele>
        <time>2026-07-09T15:15:23.000Z</time>
      </trkpt>
      <trkpt lat="46.6654" lon="15.64649">
        <ele>344.512609</ele>
        <time>2026-07-09T15:15:29.000Z</time>
      </trkpt>
      <trkpt lat="46.66541" lon="15.64641">
        <ele>344.878241</ele>
        <time>2026-07-09T15:15:32.000Z</time>
      </trkpt>
      <trkpt lat="46.6654" lon="15.64616">
        <ele>345.899372</ele>
        <time>2026-07-09T15:15:38.000Z</time>
      </trkpt>
      <trkpt lat="46.66529" lon="15.64583">
        <ele>347.391665</ele>
        <time>2026-07-09T15:15:43.000Z</time>
      </trkpt>
      <trkpt lat="46.6652" lon="15.64572">
        <ele>348.135003</ele>
        <time>2026-07-09T15:15:45.000Z</time>
      </trkpt>
      <trkpt lat="46.66513" lon="15.64567">
        <ele>348.55436</ele>
        <time>2026-07-09T15:15:46.000Z</time>
      </trkpt>
      <trkpt lat="46.66506" lon="15.64564">
        <ele>348.999142</ele>
        <time>2026-07-09T15:15:47.000Z</time>
      </trkpt>
      <trkpt lat="46.66482" lon="15.64559">
        <ele>346.970849</ele>
        <time>2026-07-09T15:15:50.000Z</time>
      </trkpt>
      <trkpt lat="46.66447" lon="15.64559">
        <ele>344.002005</ele>
        <time>2026-07-09T15:15:54.000Z</time>
      </trkpt>
      <trkpt lat="46.66429" lon="15.64562">
        <ele>342.514271</ele>
        <time>2026-07-09T15:15:56.000Z</time>
      </trkpt>
      <trkpt lat="46.66369" lon="15.64578">
        <ele>337.348293</ele>
        <time>2026-07-09T15:16:03.000Z</time>
      </trkpt>
      <trkpt lat="46.6636" lon="15.64581">
        <ele>336.575525</ele>
        <time>2026-07-09T15:16:04.000Z</time>
      </trkpt>
      <trkpt lat="46.66324" lon="15.64591">
        <ele>333.366064</ele>
        <time>2026-07-09T15:16:08.000Z</time>
      </trkpt>
      <trkpt lat="46.66306" lon="15.64594">
        <ele>331.252483</ele>
        <time>2026-07-09T15:16:10.000Z</time>
      </trkpt>
      <trkpt lat="46.66298" lon="15.64594">
        <ele>330.22209</ele>
        <time>2026-07-09T15:16:11.000Z</time>
      </trkpt>
      <trkpt lat="46.66289" lon="15.64593">
        <ele>329.204811</ele>
        <time>2026-07-09T15:16:12.000Z</time>
      </trkpt>
      <trkpt lat="46.66274" lon="15.64585">
        <ele>327.295851</ele>
        <time>2026-07-09T15:16:14.000Z</time>
      </trkpt>
      <trkpt lat="46.66274" lon="15.64585">
        <ele>327.295851</ele>
        <time>2026-07-09T15:16:19.000Z</time>
      </trkpt>
      <trkpt lat="46.66244" lon="15.64541">
        <ele>322.426007</ele>
        <time>2026-07-09T15:16:20.000Z</time>
      </trkpt>
      <trkpt lat="46.66241" lon="15.64515">
        <ele>320.231604</ele>
        <time>2026-07-09T15:16:22.000Z</time>
      </trkpt>
      <trkpt lat="46.6624" lon="15.64504">
        <ele>319.405227</ele>
        <time>2026-07-09T15:16:23.000Z</time>
      </trkpt>
      <trkpt lat="46.66238" lon="15.64495">
        <ele>318.661002</ele>
        <time>2026-07-09T15:16:24.000Z</time>
      </trkpt>
      <trkpt lat="46.66232" lon="15.64484">
        <ele>317.458737</ele>
        <time>2026-07-09T15:16:26.000Z</time>
      </trkpt>
      <trkpt lat="46.66222" lon="15.64484">
        <ele>316.228908</ele>
        <time>2026-07-09T15:16:28.000Z</time>
      </trkpt>
      <trkpt lat="46.66203" lon="15.64503">
        <ele>313.612113</ele>
        <time>2026-07-09T15:16:32.000Z</time>
      </trkpt>
      <trkpt lat="46.66179" lon="15.64526">
        <ele>312.277075</ele>
        <time>2026-07-09T15:16:36.000Z</time>
      </trkpt>
      <trkpt lat="46.66153" lon="15.64552">
        <ele>311.494491</ele>
        <time>2026-07-09T15:16:41.000Z</time>
      </trkpt>
      <trkpt lat="46.66136" lon="15.64565">
        <ele>311.012225</ele>
        <time>2026-07-09T15:16:45.000Z</time>
      </trkpt>
      <trkpt lat="46.66132" lon="15.64569">
        <ele>310.901354</ele>
        <time>2026-07-09T15:16:46.000Z</time>
      </trkpt>
      <trkpt lat="46.66113" lon="15.64582">
        <ele>310.391261</ele>
        <time>2026-07-09T15:16:51.000Z</time>
      </trkpt>
      <trkpt lat="46.66107" lon="15.64584">
        <ele>310.244735</ele>
        <time>2026-07-09T15:16:55.000Z</time>
      </trkpt>
      <trkpt lat="46.66107" lon="15.64584">
        <ele>310.234612</ele>
        <time>2026-07-09T15:16:56.000Z</time>
      </trkpt>
      <trkpt lat="46.66106" lon="15.64575">
        <ele>310.076609</ele>
        <time>2026-07-09T15:21:16.000Z</time>
      </trkpt>
      <trkpt lat="46.66106" lon="15.64575">
        <ele>310.067821</ele>
        <time>2026-07-09T15:21:17.000Z</time>
      </trkpt>
      <trkpt lat="46.66096" lon="15.64578">
        <ele>309.807424</ele>
        <time>2026-07-09T15:23:32.000Z</time>
      </trkpt>
      <trkpt lat="46.66091" lon="15.64577">
        <ele>309.691093</ele>
        <time>2026-07-09T15:23:34.000Z</time>
      </trkpt>
      <trkpt lat="46.66074" lon="15.64577">
        <ele>309.273081</ele>
        <time>2026-07-09T15:23:39.000Z</time>
      </trkpt>
      <trkpt lat="46.66054" lon="15.64582">
        <ele>308.765072</ele>
        <time>2026-07-09T15:23:44.000Z</time>
      </trkpt>
      <trkpt lat="46.66037" lon="15.64587">
        <ele>308.350604</ele>
        <time>2026-07-09T15:23:48.000Z</time>
      </trkpt>
      <trkpt lat="46.6603" lon="15.64592">
        <ele>308.173995</ele>
        <time>2026-07-09T15:23:50.000Z</time>
      </trkpt>
      <trkpt lat="46.66026" lon="15.64594">
        <ele>308.094824</ele>
        <time>2026-07-09T15:23:51.000Z</time>
      </trkpt>
      <trkpt lat="46.66006" lon="15.64601">
        <ele>307.63394</ele>
        <time>2026-07-09T15:23:55.000Z</time>
      </trkpt>
      <trkpt lat="46.65996" lon="15.64604">
        <ele>307.401335</ele>
        <time>2026-07-09T15:23:57.000Z</time>
      </trkpt>
      <trkpt lat="46.6598" lon="15.64608">
        <ele>307.042352</ele>
        <time>2026-07-09T15:24:00.000Z</time>
      </trkpt>
      <trkpt lat="46.65957" lon="15.64612">
        <ele>306.536188</ele>
        <time>2026-07-09T15:24:04.000Z</time>
      </trkpt>
      <trkpt lat="46.65946" lon="15.64615">
        <ele>306.294844</ele>
        <time>2026-07-09T15:24:06.000Z</time>
      </trkpt>
      <trkpt lat="46.65912" lon="15.64623">
        <ele>305.539416</ele>
        <time>2026-07-09T15:24:12.000Z</time>
      </trkpt>
      <trkpt lat="46.6589" lon="15.64627">
        <ele>305.060041</ele>
        <time>2026-07-09T15:24:16.000Z</time>
      </trkpt>
      <trkpt lat="46.65875" lon="15.64629">
        <ele>304.709663</ele>
        <time>2026-07-09T15:24:19.000Z</time>
      </trkpt>
      <trkpt lat="46.65859" lon="15.64628">
        <ele>304.316343</ele>
        <time>2026-07-09T15:24:22.000Z</time>
      </trkpt>
      <trkpt lat="46.65853" lon="15.64626">
        <ele>304.120413</ele>
        <time>2026-07-09T15:24:23.000Z</time>
      </trkpt>
      <trkpt lat="46.65847" lon="15.64626">
        <ele>303.939405</ele>
        <time>2026-07-09T15:24:24.000Z</time>
      </trkpt>
      <trkpt lat="46.65842" lon="15.64625">
        <ele>303.76097</ele>
        <time>2026-07-09T15:24:25.000Z</time>
      </trkpt>
      <trkpt lat="46.65837" lon="15.64623">
        <ele>303.581888</ele>
        <time>2026-07-09T15:24:26.000Z</time>
      </trkpt>
      <trkpt lat="46.65821" lon="15.6462">
        <ele>303.030738</ele>
        <time>2026-07-09T15:24:29.000Z</time>
      </trkpt>
      <trkpt lat="46.65808" lon="15.64614">
        <ele>302.601824</ele>
        <time>2026-07-09T15:24:31.000Z</time>
      </trkpt>
      <trkpt lat="46.65803" lon="15.64613">
        <ele>302.434649</ele>
        <time>2026-07-09T15:24:32.000Z</time>
      </trkpt>
      <trkpt lat="46.65777" lon="15.64605">
        <ele>301.552531</ele>
        <time>2026-07-09T15:24:36.000Z</time>
      </trkpt>
      <trkpt lat="46.65747" lon="15.64593">
        <ele>300.51198</ele>
        <time>2026-07-09T15:24:41.000Z</time>
      </trkpt>
      <trkpt lat="46.65742" lon="15.64591">
        <ele>300.329745</ele>
        <time>2026-07-09T15:24:42.000Z</time>
      </trkpt>
      <trkpt lat="46.65732" lon="15.64588">
        <ele>299.981379</ele>
        <time>2026-07-09T15:24:44.000Z</time>
      </trkpt>
      <trkpt lat="46.65711" lon="15.6458">
        <ele>299.26704</ele>
        <time>2026-07-09T15:24:48.000Z</time>
      </trkpt>
      <trkpt lat="46.657" lon="15.64577">
        <ele>298.879841</ele>
        <time>2026-07-09T15:24:50.000Z</time>
      </trkpt>
      <trkpt lat="46.65695" lon="15.64576">
        <ele>298.724877</ele>
        <time>2026-07-09T15:24:51.000Z</time>
      </trkpt>
      <trkpt lat="46.65675" lon="15.64576">
        <ele>298.443749</ele>
        <time>2026-07-09T15:24:54.000Z</time>
      </trkpt>
      <trkpt lat="46.65661" lon="15.64581">
        <ele>298.463925</ele>
        <time>2026-07-09T15:24:57.000Z</time>
      </trkpt>
      <trkpt lat="46.65652" lon="15.64586">
        <ele>298.477464</ele>
        <time>2026-07-09T15:24:59.000Z</time>
      </trkpt>
      <trkpt lat="46.65647" lon="15.6459">
        <ele>298.484706</ele>
        <time>2026-07-09T15:25:00.000Z</time>
      </trkpt>
      <trkpt lat="46.65623" lon="15.64608">
        <ele>298.522256</ele>
        <time>2026-07-09T15:25:06.000Z</time>
      </trkpt>
      <trkpt lat="46.65619" lon="15.64612">
        <ele>298.528443</ele>
        <time>2026-07-09T15:25:07.000Z</time>
      </trkpt>
      <trkpt lat="46.65594" lon="15.6463">
        <ele>298.566095</ele>
        <time>2026-07-09T15:25:13.000Z</time>
      </trkpt>
      <trkpt lat="46.6559" lon="15.64633">
        <ele>298.572519</ele>
        <time>2026-07-09T15:25:14.000Z</time>
      </trkpt>
      <trkpt lat="46.65582" lon="15.64639">
        <ele>298.585312</ele>
        <time>2026-07-09T15:25:16.000Z</time>
      </trkpt>
      <trkpt lat="46.65564" lon="15.64645">
        <ele>298.6104</ele>
        <time>2026-07-09T15:25:20.000Z</time>
      </trkpt>
      <trkpt lat="46.65559" lon="15.64646">
        <ele>298.617188</ele>
        <time>2026-07-09T15:25:21.000Z</time>
      </trkpt>
      <trkpt lat="46.65539" lon="15.6465">
        <ele>298.644341</ele>
        <time>2026-07-09T15:25:25.000Z</time>
      </trkpt>
      <trkpt lat="46.6552" lon="15.64652">
        <ele>298.670908</ele>
        <time>2026-07-09T15:25:29.000Z</time>
      </trkpt>
      <trkpt lat="46.65497" lon="15.64655">
        <ele>298.748459</ele>
        <time>2026-07-09T15:25:34.000Z</time>
      </trkpt>
      <trkpt lat="46.65484" lon="15.64657">
        <ele>298.798491</ele>
        <time>2026-07-09T15:25:37.000Z</time>
      </trkpt>
      <trkpt lat="46.65446" lon="15.64665">
        <ele>298.943877</ele>
        <time>2026-07-09T15:25:45.000Z</time>
      </trkpt>
      <trkpt lat="46.654" lon="15.64683">
        <ele>299.120884</ele>
        <time>2026-07-09T15:25:54.000Z</time>
      </trkpt>
      <trkpt lat="46.65395" lon="15.64685">
        <ele>299.141273</ele>
        <time>2026-07-09T15:25:55.000Z</time>
      </trkpt>
      <trkpt lat="46.65357" lon="15.647">
        <ele>299.287536</ele>
        <time>2026-07-09T15:26:03.000Z</time>
      </trkpt>
      <trkpt lat="46.6532" lon="15.64714">
        <ele>298.845814</ele>
        <time>2026-07-09T15:26:11.000Z</time>
      </trkpt>
      <trkpt lat="46.65282" lon="15.64723">
        <ele>297.960758</ele>
        <time>2026-07-09T15:26:17.000Z</time>
      </trkpt>
      <trkpt lat="46.65241" lon="15.64724">
        <ele>297.029118</ele>
        <time>2026-07-09T15:26:22.000Z</time>
      </trkpt>
      <trkpt lat="46.65206" lon="15.64728">
        <ele>296.230132</ele>
        <time>2026-07-09T15:26:26.000Z</time>
      </trkpt>
      <trkpt lat="46.65198" lon="15.64732">
        <ele>296.038607</ele>
        <time>2026-07-09T15:26:27.000Z</time>
      </trkpt>
      <trkpt lat="46.65191" lon="15.64738">
        <ele>295.846944</ele>
        <time>2026-07-09T15:26:28.000Z</time>
      </trkpt>
      <trkpt lat="46.65178" lon="15.64755">
        <ele>295.452115</ele>
        <time>2026-07-09T15:26:30.000Z</time>
      </trkpt>
      <trkpt lat="46.65163" lon="15.64781">
        <ele>295.149885</ele>
        <time>2026-07-09T15:26:33.000Z</time>
      </trkpt>
      <trkpt lat="46.65157" lon="15.64787">
        <ele>295.102517</ele>
        <time>2026-07-09T15:26:34.000Z</time>
      </trkpt>
      <trkpt lat="46.65151" lon="15.64791">
        <ele>295.055736</ele>
        <time>2026-07-09T15:26:35.000Z</time>
      </trkpt>
      <trkpt lat="46.65127" lon="15.64805">
        <ele>294.876589</ele>
        <time>2026-07-09T15:26:39.000Z</time>
      </trkpt>
      <trkpt lat="46.6509" lon="15.64826">
        <ele>294.599623</ele>
        <time>2026-07-09T15:26:46.000Z</time>
      </trkpt>
      <trkpt lat="46.65068" lon="15.64838">
        <ele>294.435274</ele>
        <time>2026-07-09T15:26:51.000Z</time>
      </trkpt>
      <trkpt lat="46.65047" lon="15.64843">
        <ele>294.288571</ele>
        <time>2026-07-09T15:26:57.000Z</time>
      </trkpt>
      <trkpt lat="46.65013" lon="15.64843">
        <ele>294.056289</ele>
        <time>2026-07-09T15:27:06.000Z</time>
      </trkpt>
      <trkpt lat="46.6501" lon="15.64842">
        <ele>294.032595</ele>
        <time>2026-07-09T15:27:07.000Z</time>
      </trkpt>
      <trkpt lat="46.64985" lon="15.64839">
        <ele>293.829036</ele>
        <time>2026-07-09T15:27:14.000Z</time>
      </trkpt>
      <trkpt lat="46.64979" lon="15.64838">
        <ele>293.770236</ele>
        <time>2026-07-09T15:27:16.000Z</time>
      </trkpt>
      <trkpt lat="46.64975" lon="15.64837">
        <ele>293.742428</ele>
        <time>2026-07-09T15:27:17.000Z</time>
      </trkpt>
      <trkpt lat="46.64956" lon="15.64837">
        <ele>293.571763</ele>
        <time>2026-07-09T15:27:23.000Z</time>
      </trkpt>
      <trkpt lat="46.64934" lon="15.64838">
        <ele>293.382962</ele>
        <time>2026-07-09T15:27:29.000Z</time>
      </trkpt>
      <trkpt lat="46.64926" lon="15.64839">
        <ele>293.31328</ele>
        <time>2026-07-09T15:27:31.000Z</time>
      </trkpt>
      <trkpt lat="46.64913" lon="15.64843">
        <ele>293.198038</ele>
        <time>2026-07-09T15:27:34.000Z</time>
      </trkpt>
      <trkpt lat="46.64898" lon="15.64849">
        <ele>293.063443</ele>
        <time>2026-07-09T15:27:37.000Z</time>
      </trkpt>
      <trkpt lat="46.64865" lon="15.64862">
        <ele>292.773152</ele>
        <time>2026-07-09T15:27:42.000Z</time>
      </trkpt>
      <trkpt lat="46.64825" lon="15.64876">
        <ele>292.302713</ele>
        <time>2026-07-09T15:27:47.000Z</time>
      </trkpt>
      <trkpt lat="46.64777" lon="15.64884">
        <ele>290.668018</ele>
        <time>2026-07-09T15:27:52.000Z</time>
      </trkpt>
      <trkpt lat="46.64731" lon="15.64895">
        <ele>289.086225</ele>
        <time>2026-07-09T15:27:57.000Z</time>
      </trkpt>
      <trkpt lat="46.64715" lon="15.64899">
        <ele>288.518822</ele>
        <time>2026-07-09T15:27:59.000Z</time>
      </trkpt>
      <trkpt lat="46.6468" lon="15.64907">
        <ele>287.32206</ele>
        <time>2026-07-09T15:28:04.000Z</time>
      </trkpt>
      <trkpt lat="46.64637" lon="15.64912">
        <ele>286.248498</ele>
        <time>2026-07-09T15:28:10.000Z</time>
      </trkpt>
      <trkpt lat="46.64593" lon="15.64927">
        <ele>286.009639</ele>
        <time>2026-07-09T15:28:15.000Z</time>
      </trkpt>
      <trkpt lat="46.64539" lon="15.64949">
        <ele>285.708451</ele>
        <time>2026-07-09T15:28:22.000Z</time>
      </trkpt>
      <trkpt lat="46.645" lon="15.64964">
        <ele>285.489628</ele>
        <time>2026-07-09T15:28:28.000Z</time>
      </trkpt>
      <trkpt lat="46.64452" lon="15.64984">
        <ele>285.520766</ele>
        <time>2026-07-09T15:28:36.000Z</time>
      </trkpt>
      <trkpt lat="46.64415" lon="15.64992">
        <ele>285.75322</ele>
        <time>2026-07-09T15:28:43.000Z</time>
      </trkpt>
      <trkpt lat="46.6439" lon="15.64994">
        <ele>285.911646</ele>
        <time>2026-07-09T15:28:49.000Z</time>
      </trkpt>
      <trkpt lat="46.64367" lon="15.64992">
        <ele>286.054684</ele>
        <time>2026-07-09T15:28:55.000Z</time>
      </trkpt>
      <trkpt lat="46.64347" lon="15.64993">
        <ele>286.176271</ele>
        <time>2026-07-09T15:29:01.000Z</time>
      </trkpt>
      <trkpt lat="46.64327" lon="15.64997">
        <ele>286.301146</ele>
        <time>2026-07-09T15:29:07.000Z</time>
      </trkpt>
      <trkpt lat="46.64324" lon="15.64998">
        <ele>286.320423</ele>
        <time>2026-07-09T15:29:08.000Z</time>
      </trkpt>
      <trkpt lat="46.64306" lon="15.65009">
        <ele>286.44167</ele>
        <time>2026-07-09T15:29:14.000Z</time>
      </trkpt>
      <trkpt lat="46.64286" lon="15.65027">
        <ele>286.055649</ele>
        <time>2026-07-09T15:29:19.000Z</time>
      </trkpt>
      <trkpt lat="46.64257" lon="15.65062">
        <ele>285.100886</ele>
        <time>2026-07-09T15:29:25.000Z</time>
      </trkpt>
      <trkpt lat="46.64223" lon="15.65095">
        <ele>284.087738</ele>
        <time>2026-07-09T15:29:30.000Z</time>
      </trkpt>
      <trkpt lat="46.642" lon="15.65111">
        <ele>283.443062</ele>
        <time>2026-07-09T15:29:33.000Z</time>
      </trkpt>
      <trkpt lat="46.6417" lon="15.65131">
        <ele>282.626687</ele>
        <time>2026-07-09T15:29:37.000Z</time>
      </trkpt>
      <trkpt lat="46.64128" lon="15.6516">
        <ele>281.509804</ele>
        <time>2026-07-09T15:29:43.000Z</time>
      </trkpt>
      <trkpt lat="46.64077" lon="15.65197">
        <ele>280.196794</ele>
        <time>2026-07-09T15:29:51.000Z</time>
      </trkpt>
      <trkpt lat="46.64065" lon="15.65206">
        <ele>279.886649</ele>
        <time>2026-07-09T15:29:53.000Z</time>
      </trkpt>
      <trkpt lat="46.64042" lon="15.65225">
        <ele>279.270028</ele>
        <time>2026-07-09T15:29:57.000Z</time>
      </trkpt>
      <trkpt lat="46.6403" lon="15.65235">
        <ele>278.942535</ele>
        <time>2026-07-09T15:29:59.000Z</time>
      </trkpt>
      <trkpt lat="46.64017" lon="15.65245">
        <ele>278.613315</ele>
        <time>2026-07-09T15:30:01.000Z</time>
      </trkpt>
      <trkpt lat="46.63974" lon="15.65277">
        <ele>278.327296</ele>
        <time>2026-07-09T15:30:08.000Z</time>
      </trkpt>
      <trkpt lat="46.63935" lon="15.65303">
        <ele>279.755812</ele>
        <time>2026-07-09T15:30:15.000Z</time>
      </trkpt>
      <trkpt lat="46.63911" lon="15.6532">
        <ele>280.626243</ele>
        <time>2026-07-09T15:30:20.000Z</time>
      </trkpt>
      <trkpt lat="46.63894" lon="15.65334">
        <ele>281.287485</ele>
        <time>2026-07-09T15:30:24.000Z</time>
      </trkpt>
      <trkpt lat="46.63877" lon="15.65346">
        <ele>281.926791</ele>
        <time>2026-07-09T15:30:28.000Z</time>
      </trkpt>
      <trkpt lat="46.63854" lon="15.65362">
        <ele>282.762271</ele>
        <time>2026-07-09T15:30:34.000Z</time>
      </trkpt>
      <trkpt lat="46.63821" lon="15.65386">
        <ele>283.771635</ele>
        <time>2026-07-09T15:30:43.000Z</time>
      </trkpt>
      <trkpt lat="46.63799" lon="15.65402">
        <ele>283.605636</ele>
        <time>2026-07-09T15:30:49.000Z</time>
      </trkpt>
      <trkpt lat="46.63785" lon="15.6541">
        <ele>283.503681</ele>
        <time>2026-07-09T15:30:53.000Z</time>
      </trkpt>
      <trkpt lat="46.63764" lon="15.65419">
        <ele>283.359369</ele>
        <time>2026-07-09T15:31:00.000Z</time>
      </trkpt>
      <trkpt lat="46.63747" lon="15.65426">
        <ele>283.239599</ele>
        <time>2026-07-09T15:31:06.000Z</time>
      </trkpt>
      <trkpt lat="46.63722" lon="15.65437">
        <ele>283.063585</ele>
        <time>2026-07-09T15:31:16.000Z</time>
      </trkpt>
      <trkpt lat="46.63704" lon="15.65453">
        <ele>282.925327</ele>
        <time>2026-07-09T15:31:22.000Z</time>
      </trkpt>
      <trkpt lat="46.63701" lon="15.65457">
        <ele>282.89385</ele>
        <time>2026-07-09T15:31:23.000Z</time>
      </trkpt>
      <trkpt lat="46.63687" lon="15.65476">
        <ele>282.76786</ele>
        <time>2026-07-09T15:31:26.000Z</time>
      </trkpt>
      <trkpt lat="46.63661" lon="15.65503">
        <ele>282.469003</ele>
        <time>2026-07-09T15:31:30.000Z</time>
      </trkpt>
      <trkpt lat="46.63639" lon="15.6552">
        <ele>282.017688</ele>
        <time>2026-07-09T15:31:33.000Z</time>
      </trkpt>
      <trkpt lat="46.63632" lon="15.65523">
        <ele>281.882433</ele>
        <time>2026-07-09T15:31:34.000Z</time>
      </trkpt>
      <trkpt lat="46.63625" lon="15.65524">
        <ele>281.750149</ele>
        <time>2026-07-09T15:31:35.000Z</time>
      </trkpt>
      <trkpt lat="46.63606" lon="15.65526">
        <ele>281.406356</ele>
        <time>2026-07-09T15:31:38.000Z</time>
      </trkpt>
      <trkpt lat="46.63586" lon="15.65532">
        <ele>281.033455</ele>
        <time>2026-07-09T15:31:42.000Z</time>
      </trkpt>
      <trkpt lat="46.63582" lon="15.65534">
        <ele>280.949932</ele>
        <time>2026-07-09T15:31:43.000Z</time>
      </trkpt>
      <trkpt lat="46.63558" lon="15.65549">
        <ele>280.47341</ele>
        <time>2026-07-09T15:31:49.000Z</time>
      </trkpt>
      <trkpt lat="46.6352" lon="15.65569">
        <ele>279.748254</ele>
        <time>2026-07-09T15:31:58.000Z</time>
      </trkpt>
      <trkpt lat="46.63505" lon="15.65576">
        <ele>279.458551</ele>
        <time>2026-07-09T15:32:02.000Z</time>
      </trkpt>
      <trkpt lat="46.63493" lon="15.65585">
        <ele>279.307026</ele>
        <time>2026-07-09T15:32:06.000Z</time>
      </trkpt>
      <trkpt lat="46.63468" lon="15.65596">
        <ele>279.25161</ele>
        <time>2026-07-09T15:32:13.000Z</time>
      </trkpt>
      <trkpt lat="46.63447" lon="15.65596">
        <ele>279.205976</ele>
        <time>2026-07-09T15:32:18.000Z</time>
      </trkpt>
      <trkpt lat="46.63434" lon="15.65596">
        <ele>279.176287</ele>
        <time>2026-07-09T15:32:21.000Z</time>
      </trkpt>
      <trkpt lat="46.6341" lon="15.65595">
        <ele>279.124528</ele>
        <time>2026-07-09T15:32:26.000Z</time>
      </trkpt>
      <trkpt lat="46.6339" lon="15.65593">
        <ele>279.08072</ele>
        <time>2026-07-09T15:32:30.000Z</time>
      </trkpt>
      <trkpt lat="46.63364" lon="15.65588">
        <ele>279.024157</ele>
        <time>2026-07-09T15:32:35.000Z</time>
      </trkpt>
      <trkpt lat="46.63333" lon="15.65583">
        <ele>278.954117</ele>
        <time>2026-07-09T15:32:41.000Z</time>
      </trkpt>
      <trkpt lat="46.63323" lon="15.65585">
        <ele>278.93324</ele>
        <time>2026-07-09T15:32:43.000Z</time>
      </trkpt>
      <trkpt lat="46.63294" lon="15.65595">
        <ele>279.643264</ele>
        <time>2026-07-09T15:32:49.000Z</time>
      </trkpt>
      <trkpt lat="46.63278" lon="15.65602">
        <ele>280.057517</ele>
        <time>2026-07-09T15:32:52.000Z</time>
      </trkpt>
      <trkpt lat="46.63263" lon="15.65611">
        <ele>280.466516</ele>
        <time>2026-07-09T15:32:55.000Z</time>
      </trkpt>
      <trkpt lat="46.63254" lon="15.65616">
        <ele>280.716363</ele>
        <time>2026-07-09T15:32:57.000Z</time>
      </trkpt>
      <trkpt lat="46.63241" lon="15.65624">
        <ele>281.08854</ele>
        <time>2026-07-09T15:33:00.000Z</time>
      </trkpt>
      <trkpt lat="46.63212" lon="15.6565">
        <ele>281.94909</ele>
        <time>2026-07-09T15:33:07.000Z</time>
      </trkpt>
      <trkpt lat="46.63204" lon="15.65659">
        <ele>282.212588</ele>
        <time>2026-07-09T15:33:09.000Z</time>
      </trkpt>
      <trkpt lat="46.63174" lon="15.65687">
        <ele>283.117395</ele>
        <time>2026-07-09T15:33:16.000Z</time>
      </trkpt>
      <trkpt lat="46.63166" lon="15.65693">
        <ele>283.349627</ele>
        <time>2026-07-09T15:33:18.000Z</time>
      </trkpt>
      <trkpt lat="46.63158" lon="15.65698">
        <ele>283.472343</ele>
        <time>2026-07-09T15:33:20.000Z</time>
      </trkpt>
      <trkpt lat="46.6315" lon="15.65701">
        <ele>283.234854</ele>
        <time>2026-07-09T15:33:22.000Z</time>
      </trkpt>
      <trkpt lat="46.63123" lon="15.65704">
        <ele>282.404563</ele>
        <time>2026-07-09T15:33:29.000Z</time>
      </trkpt>
      <trkpt lat="46.63094" lon="15.65705">
        <ele>281.53776</ele>
        <time>2026-07-09T15:33:36.000Z</time>
      </trkpt>
      <trkpt lat="46.63065" lon="15.65705">
        <ele>280.656102</ele>
        <time>2026-07-09T15:33:42.000Z</time>
      </trkpt>
      <trkpt lat="46.63022" lon="15.65699">
        <ele>279.375399</ele>
        <time>2026-07-09T15:33:50.000Z</time>
      </trkpt>
      <trkpt lat="46.63003" lon="15.65699">
        <ele>278.79753</ele>
        <time>2026-07-09T15:33:54.000Z</time>
      </trkpt>
      <trkpt lat="46.6299" lon="15.657">
        <ele>278.396986</ele>
        <time>2026-07-09T15:33:57.000Z</time>
      </trkpt>
      <trkpt lat="46.62981" lon="15.65701">
        <ele>278.135835</ele>
        <time>2026-07-09T15:33:59.000Z</time>
      </trkpt>
      <trkpt lat="46.62974" lon="15.65703">
        <ele>278.034927</ele>
        <time>2026-07-09T15:34:01.000Z</time>
      </trkpt>
      <trkpt lat="46.62962" lon="15.65706">
        <ele>277.908009</ele>
        <time>2026-07-09T15:34:04.000Z</time>
      </trkpt>
      <trkpt lat="46.62933" lon="15.65709">
        <ele>277.59278</ele>
        <time>2026-07-09T15:34:11.000Z</time>
      </trkpt>
      <trkpt lat="46.62924" lon="15.65709">
        <ele>277.496964</ele>
        <time>2026-07-09T15:34:13.000Z</time>
      </trkpt>
      <trkpt lat="46.62906" lon="15.65709">
        <ele>277.302112</ele>
        <time>2026-07-09T15:34:17.000Z</time>
      </trkpt>
      <trkpt lat="46.62889" lon="15.65709">
        <ele>277.111598</ele>
        <time>2026-07-09T15:34:21.000Z</time>
      </trkpt>
      <trkpt lat="46.62875" lon="15.65708">
        <ele>276.958941</ele>
        <time>2026-07-09T15:34:24.000Z</time>
      </trkpt>
      <trkpt lat="46.6283" lon="15.65704">
        <ele>276.464979</ele>
        <time>2026-07-09T15:34:33.000Z</time>
      </trkpt>
      <trkpt lat="46.62803" lon="15.65699">
        <ele>276.175284</ele>
        <time>2026-07-09T15:34:38.000Z</time>
      </trkpt>
      <trkpt lat="46.62793" lon="15.65696">
        <ele>276.226287</ele>
        <time>2026-07-09T15:34:40.000Z</time>
      </trkpt>
      <trkpt lat="46.62789" lon="15.65694">
        <ele>276.259049</ele>
        <time>2026-07-09T15:34:41.000Z</time>
      </trkpt>
      <trkpt lat="46.62776" lon="15.65686">
        <ele>276.371854</ele>
        <time>2026-07-09T15:34:44.000Z</time>
      </trkpt>
      <trkpt lat="46.62767" lon="15.65679">
        <ele>276.45646</ele>
        <time>2026-07-09T15:34:46.000Z</time>
      </trkpt>
      <trkpt lat="46.62739" lon="15.65659">
        <ele>276.705918</ele>
        <time>2026-07-09T15:34:53.000Z</time>
      </trkpt>
      <trkpt lat="46.62724" lon="15.65649">
        <ele>276.835482</ele>
        <time>2026-07-09T15:34:57.000Z</time>
      </trkpt>
      <trkpt lat="46.62716" lon="15.65648">
        <ele>276.900255</ele>
        <time>2026-07-09T15:34:59.000Z</time>
      </trkpt>
      <trkpt lat="46.62712" lon="15.65648">
        <ele>276.936533</ele>
        <time>2026-07-09T15:35:00.000Z</time>
      </trkpt>
      <trkpt lat="46.62697" lon="15.65653">
        <ele>277.057182</ele>
        <time>2026-07-09T15:35:04.000Z</time>
      </trkpt>
      <trkpt lat="46.62669" lon="15.6567">
        <ele>277.302159</ele>
        <time>2026-07-09T15:35:12.000Z</time>
      </trkpt>
      <trkpt lat="46.62654" lon="15.6568">
        <ele>277.438736</ele>
        <time>2026-07-09T15:35:17.000Z</time>
      </trkpt>
      <trkpt lat="46.6263" lon="15.65698">
        <ele>277.57714</ele>
        <time>2026-07-09T15:35:24.000Z</time>
      </trkpt>
      <trkpt lat="46.62617" lon="15.65707">
        <ele>277.516554</ele>
        <time>2026-07-09T15:35:27.000Z</time>
      </trkpt>
      <trkpt lat="46.62607" lon="15.65713">
        <ele>277.472067</ele>
        <time>2026-07-09T15:35:29.000Z</time>
      </trkpt>
      <trkpt lat="46.62604" lon="15.65715">
        <ele>277.459561</ele>
        <time>2026-07-09T15:35:30.000Z</time>
      </trkpt>
      <trkpt lat="46.62587" lon="15.65726">
        <ele>277.379547</ele>
        <time>2026-07-09T15:35:34.000Z</time>
      </trkpt>
      <trkpt lat="46.62579" lon="15.6573">
        <ele>277.343574</ele>
        <time>2026-07-09T15:35:36.000Z</time>
      </trkpt>
      <trkpt lat="46.6257" lon="15.65733">
        <ele>277.302351</ele>
        <time>2026-07-09T15:35:38.000Z</time>
      </trkpt>
      <trkpt lat="46.62566" lon="15.65732">
        <ele>277.286764</ele>
        <time>2026-07-09T15:35:39.000Z</time>
      </trkpt>
      <trkpt lat="46.62543" lon="15.65732">
        <ele>277.189794</ele>
        <time>2026-07-09T15:35:44.000Z</time>
      </trkpt>
      <trkpt lat="46.62533" lon="15.65734">
        <ele>277.146585</ele>
        <time>2026-07-09T15:35:46.000Z</time>
      </trkpt>
      <trkpt lat="46.62502" lon="15.65738">
        <ele>277.01327</ele>
        <time>2026-07-09T15:35:53.000Z</time>
      </trkpt>
      <trkpt lat="46.62496" lon="15.6574">
        <ele>276.987632</ele>
        <time>2026-07-09T15:35:54.000Z</time>
      </trkpt>
      <trkpt lat="46.62488" lon="15.6574">
        <ele>276.951046</ele>
        <time>2026-07-09T15:35:56.000Z</time>
      </trkpt>
      <trkpt lat="46.62482" lon="15.65739">
        <ele>276.927507</ele>
        <time>2026-07-09T15:35:57.000Z</time>
      </trkpt>
      <trkpt lat="46.62443" lon="15.65738">
        <ele>276.33618</ele>
        <time>2026-07-09T15:36:05.000Z</time>
      </trkpt>
      <trkpt lat="46.62423" lon="15.65737">
        <ele>275.775831</ele>
        <time>2026-07-09T15:36:09.000Z</time>
      </trkpt>
      <trkpt lat="46.62402" lon="15.65738">
        <ele>275.209572</ele>
        <time>2026-07-09T15:36:13.000Z</time>
      </trkpt>
      <trkpt lat="46.62397" lon="15.65739">
        <ele>275.066717</ele>
        <time>2026-07-09T15:36:14.000Z</time>
      </trkpt>
      <trkpt lat="46.62366" lon="15.65747">
        <ele>274.189272</ele>
        <time>2026-07-09T15:36:21.000Z</time>
      </trkpt>
      <trkpt lat="46.62332" lon="15.65763">
        <ele>273.216411</ele>
        <time>2026-07-09T15:36:29.000Z</time>
      </trkpt>
      <trkpt lat="46.62314" lon="15.65765">
        <ele>272.732244</ele>
        <time>2026-07-09T15:36:33.000Z</time>
      </trkpt>
      <trkpt lat="46.62275" lon="15.6577">
        <ele>272.120832</ele>
        <time>2026-07-09T15:36:40.000Z</time>
      </trkpt>
      <trkpt lat="46.62238" lon="15.65776">
        <ele>272.986277</ele>
        <time>2026-07-09T15:36:47.000Z</time>
      </trkpt>
      <trkpt lat="46.6222" lon="15.65777">
        <ele>273.409629</ele>
        <time>2026-07-09T15:36:51.000Z</time>
      </trkpt>
      <trkpt lat="46.62212" lon="15.65776">
        <ele>273.609718</ele>
        <time>2026-07-09T15:36:53.000Z</time>
      </trkpt>
      <trkpt lat="46.62185" lon="15.65772">
        <ele>274.238376</ele>
        <time>2026-07-09T15:37:00.000Z</time>
      </trkpt>
      <trkpt lat="46.62158" lon="15.65762">
        <ele>274.900381</ele>
        <time>2026-07-09T15:37:08.000Z</time>
      </trkpt>
      <trkpt lat="46.62142" lon="15.65759">
        <ele>275.27446</ele>
        <time>2026-07-09T15:37:14.000Z</time>
      </trkpt>
      <trkpt lat="46.62133" lon="15.65757">
        <ele>275.485868</ele>
        <time>2026-07-09T15:37:18.000Z</time>
      </trkpt>
      <trkpt lat="46.62131" lon="15.65772">
        <ele>275.735023</ele>
        <time>2026-07-09T15:37:22.000Z</time>
      </trkpt>
      <trkpt lat="46.62134" lon="15.65798">
        <ele>276.120252</ele>
        <time>2026-07-09T15:37:27.000Z</time>
      </trkpt>
      <trkpt lat="46.62141" lon="15.65851">
        <ele>275.862808</ele>
        <time>2026-07-09T15:37:36.000Z</time>
      </trkpt>
      <trkpt lat="46.62148" lon="15.65907">
        <ele>275.589447</ele>
        <time>2026-07-09T15:37:45.000Z</time>
      </trkpt>
      <trkpt lat="46.62142" lon="15.65917">
        <ele>275.526058</ele>
        <time>2026-07-09T15:37:47.000Z</time>
      </trkpt>
      <trkpt lat="46.62137" lon="15.65919">
        <ele>275.493467</ele>
        <time>2026-07-09T15:37:48.000Z</time>
      </trkpt>
      <trkpt lat="46.62108" lon="15.65923">
        <ele>275.288103</ele>
        <time>2026-07-09T15:37:54.000Z</time>
      </trkpt>
      <trkpt lat="46.62091" lon="15.65927">
        <ele>275.174795</ele>
        <time>2026-07-09T15:37:57.000Z</time>
      </trkpt>
      <trkpt lat="46.62079" lon="15.65927">
        <ele>275.088146</ele>
        <time>2026-07-09T15:37:59.000Z</time>
      </trkpt>
      <trkpt lat="46.62059" lon="15.65925">
        <ele>274.952667</ele>
        <time>2026-07-09T15:38:02.000Z</time>
      </trkpt>
      <trkpt lat="46.62037" lon="15.65924">
        <ele>274.668078</ele>
        <time>2026-07-09T15:38:05.000Z</time>
      </trkpt>
      <trkpt lat="46.6202" lon="15.65928">
        <ele>274.360359</ele>
        <time>2026-07-09T15:38:07.000Z</time>
      </trkpt>
      <trkpt lat="46.62011" lon="15.6593">
        <ele>274.203956</ele>
        <time>2026-07-09T15:38:08.000Z</time>
      </trkpt>
      <trkpt lat="46.61985" lon="15.65941">
        <ele>273.727344</ele>
        <time>2026-07-09T15:38:11.000Z</time>
      </trkpt>
      <trkpt lat="46.61942" lon="15.65957">
        <ele>272.935031</ele>
        <time>2026-07-09T15:38:16.000Z</time>
      </trkpt>
      <trkpt lat="46.61888" lon="15.65985">
        <ele>271.918984</ele>
        <time>2026-07-09T15:38:23.000Z</time>
      </trkpt>
      <trkpt lat="46.61875" lon="15.65998">
        <ele>271.657484</ele>
        <time>2026-07-09T15:38:25.000Z</time>
      </trkpt>
      <trkpt lat="46.61865" lon="15.66015">
        <ele>271.46671</ele>
        <time>2026-07-09T15:38:27.000Z</time>
      </trkpt>
      <trkpt lat="46.6186" lon="15.66032">
        <ele>271.295764</ele>
        <time>2026-07-09T15:38:29.000Z</time>
      </trkpt>
      <trkpt lat="46.61855" lon="15.6605">
        <ele>271.12238</ele>
        <time>2026-07-09T15:38:31.000Z</time>
      </trkpt>
      <trkpt lat="46.61846" lon="15.66106">
        <ele>270.600676</ele>
        <time>2026-07-09T15:38:38.000Z</time>
      </trkpt>
      <trkpt lat="46.61835" lon="15.66159">
        <ele>270.112388</ele>
        <time>2026-07-09T15:38:46.000Z</time>
      </trkpt>
      <trkpt lat="46.61819" lon="15.662">
        <ele>269.685508</ele>
        <time>2026-07-09T15:38:53.000Z</time>
      </trkpt>
      <trkpt lat="46.61796" lon="15.66232">
        <ele>269.290623</ele>
        <time>2026-07-09T15:38:59.000Z</time>
      </trkpt>
      <trkpt lat="46.61761" lon="15.66258">
        <ele>268.889606</ele>
        <time>2026-07-09T15:39:06.000Z</time>
      </trkpt>
      <trkpt lat="46.61746" lon="15.66265">
        <ele>268.724527</ele>
        <time>2026-07-09T15:39:09.000Z</time>
      </trkpt>
      <trkpt lat="46.61741" lon="15.66266">
        <ele>268.668985</ele>
        <time>2026-07-09T15:39:10.000Z</time>
      </trkpt>
      <trkpt lat="46.61735" lon="15.66268">
        <ele>268.613183</ele>
        <time>2026-07-09T15:39:11.000Z</time>
      </trkpt>
      <trkpt lat="46.61724" lon="15.66269">
        <ele>268.503452</ele>
        <time>2026-07-09T15:39:13.000Z</time>
      </trkpt>
      <trkpt lat="46.61687" lon="15.66264">
        <ele>268.118536</ele>
        <time>2026-07-09T15:39:20.000Z</time>
      </trkpt>
      <trkpt lat="46.61659" lon="15.66258">
        <ele>267.833045</ele>
        <time>2026-07-09T15:39:25.000Z</time>
      </trkpt>
      <trkpt lat="46.61633" lon="15.66254">
        <ele>267.56016</ele>
        <time>2026-07-09T15:39:30.000Z</time>
      </trkpt>
      <trkpt lat="46.61607" lon="15.66252">
        <ele>267.18473</ele>
        <time>2026-07-09T15:39:35.000Z</time>
      </trkpt>
      <trkpt lat="46.61597" lon="15.66253">
        <ele>267.025376</ele>
        <time>2026-07-09T15:39:37.000Z</time>
      </trkpt>
      <trkpt lat="46.61591" lon="15.66254">
        <ele>266.940384</ele>
        <time>2026-07-09T15:39:38.000Z</time>
      </trkpt>
      <trkpt lat="46.61585" lon="15.66256">
        <ele>266.848626</ele>
        <time>2026-07-09T15:39:39.000Z</time>
      </trkpt>
      <trkpt lat="46.61574" lon="15.66262">
        <ele>266.664835</ele>
        <time>2026-07-09T15:39:41.000Z</time>
      </trkpt>
      <trkpt lat="46.61569" lon="15.66267">
        <ele>266.5693</ele>
        <time>2026-07-09T15:39:42.000Z</time>
      </trkpt>
      <trkpt lat="46.61559" lon="15.66278">
        <ele>266.381777</ele>
        <time>2026-07-09T15:39:44.000Z</time>
      </trkpt>
      <trkpt lat="46.61547" lon="15.66297">
        <ele>266.10187</ele>
        <time>2026-07-09T15:39:47.000Z</time>
      </trkpt>
      <trkpt lat="46.61523" lon="15.66347">
        <ele>265.465592</ele>
        <time>2026-07-09T15:39:54.000Z</time>
      </trkpt>
      <trkpt lat="46.6152" lon="15.66353">
        <ele>265.386274</ele>
        <time>2026-07-09T15:39:55.000Z</time>
      </trkpt>
      <trkpt lat="46.61503" lon="15.66392">
        <ele>264.894466</ele>
        <time>2026-07-09T15:40:02.000Z</time>
      </trkpt>
      <trkpt lat="46.61478" lon="15.66442">
        <ele>264.648184</ele>
        <time>2026-07-09T15:40:10.000Z</time>
      </trkpt>
      <trkpt lat="46.61453" lon="15.66474">
        <ele>264.550182</ele>
        <time>2026-07-09T15:40:15.000Z</time>
      </trkpt>
      <trkpt lat="46.61447" lon="15.66479">
        <ele>264.529567</ele>
        <time>2026-07-09T15:40:16.000Z</time>
      </trkpt>
      <trkpt lat="46.61428" lon="15.66491">
        <ele>264.470687</ele>
        <time>2026-07-09T15:40:19.000Z</time>
      </trkpt>
      <trkpt lat="46.61422" lon="15.66494">
        <ele>264.451757</ele>
        <time>2026-07-09T15:40:20.000Z</time>
      </trkpt>
      <trkpt lat="46.61393" lon="15.665">
        <ele>264.367201</ele>
        <time>2026-07-09T15:40:25.000Z</time>
      </trkpt>
      <trkpt lat="46.61362" lon="15.66494">
        <ele>264.275631</ele>
        <time>2026-07-09T15:40:31.000Z</time>
      </trkpt>
      <trkpt lat="46.61333" lon="15.66485">
        <ele>264.205125</ele>
        <time>2026-07-09T15:40:37.000Z</time>
      </trkpt>
      <trkpt lat="46.61328" lon="15.66484">
        <ele>264.198355</ele>
        <time>2026-07-09T15:40:38.000Z</time>
      </trkpt>
      <trkpt lat="46.61291" lon="15.66486">
        <ele>264.149935</ele>
        <time>2026-07-09T15:40:45.000Z</time>
      </trkpt>
      <trkpt lat="46.61274" lon="15.66482">
        <ele>264.126997</ele>
        <time>2026-07-09T15:40:48.000Z</time>
      </trkpt>
      <trkpt lat="46.61251" lon="15.66473">
        <ele>264.095155</ele>
        <time>2026-07-09T15:40:52.000Z</time>
      </trkpt>
      <trkpt lat="46.61239" lon="15.66469">
        <ele>264.078236</ele>
        <time>2026-07-09T15:40:54.000Z</time>
      </trkpt>
      <trkpt lat="46.61219" lon="15.6646">
        <ele>264.050896</ele>
        <time>2026-07-09T15:40:57.000Z</time>
      </trkpt>
      <trkpt lat="46.61213" lon="15.66458">
        <ele>264.042392</ele>
        <time>2026-07-09T15:40:58.000Z</time>
      </trkpt>
      <trkpt lat="46.61194" lon="15.66451">
        <ele>264.017249</ele>
        <time>2026-07-09T15:41:01.000Z</time>
      </trkpt>
      <trkpt lat="46.61177" lon="15.66447">
        <ele>263.993545</ele>
        <time>2026-07-09T15:41:04.000Z</time>
      </trkpt>
      <trkpt lat="46.61148" lon="15.66445">
        <ele>263.925004</ele>
        <time>2026-07-09T15:41:09.000Z</time>
      </trkpt>
      <trkpt lat="46.61115" lon="15.66452">
        <ele>263.82601</ele>
        <time>2026-07-09T15:41:15.000Z</time>
      </trkpt>
      <trkpt lat="46.61076" lon="15.66468">
        <ele>263.704614</ele>
        <time>2026-07-09T15:41:22.000Z</time>
      </trkpt>
      <trkpt lat="46.61036" lon="15.66481">
        <ele>263.58278</ele>
        <time>2026-07-09T15:41:29.000Z</time>
      </trkpt>
      <trkpt lat="46.61026" lon="15.66481">
        <ele>263.551103</ele>
        <time>2026-07-09T15:41:31.000Z</time>
      </trkpt>
      <trkpt lat="46.61005" lon="15.66479">
        <ele>263.48787</ele>
        <time>2026-07-09T15:41:35.000Z</time>
      </trkpt>
      <trkpt lat="46.60974" lon="15.66465">
        <ele>263.568401</ele>
        <time>2026-07-09T15:41:41.000Z</time>
      </trkpt>
      <trkpt lat="46.60935" lon="15.6643">
        <ele>263.906995</ele>
        <time>2026-07-09T15:41:49.000Z</time>
      </trkpt>
      <trkpt lat="46.60901" lon="15.66407">
        <ele>264.178441</ele>
        <time>2026-07-09T15:41:55.000Z</time>
      </trkpt>
      <trkpt lat="46.60895" lon="15.66405">
        <ele>264.223043</ele>
        <time>2026-07-09T15:41:56.000Z</time>
      </trkpt>
      <trkpt lat="46.60883" lon="15.66402">
        <ele>264.315374</ele>
        <time>2026-07-09T15:41:58.000Z</time>
      </trkpt>
      <trkpt lat="46.60871" lon="15.66402">
        <ele>264.398859</ele>
        <time>2026-07-09T15:42:00.000Z</time>
      </trkpt>
      <trkpt lat="46.60845" lon="15.66406">
        <ele>264.591997</ele>
        <time>2026-07-09T15:42:04.000Z</time>
      </trkpt>
      <trkpt lat="46.60833" lon="15.66409">
        <ele>264.682366</ele>
        <time>2026-07-09T15:42:06.000Z</time>
      </trkpt>
      <trkpt lat="46.60827" lon="15.6641">
        <ele>264.728895</ele>
        <time>2026-07-09T15:42:07.000Z</time>
      </trkpt>
      <trkpt lat="46.60784" lon="15.66416">
        <ele>264.12094</ele>
        <time>2026-07-09T15:42:14.000Z</time>
      </trkpt>
      <trkpt lat="46.60749" lon="15.66421">
        <ele>263.530589</ele>
        <time>2026-07-09T15:42:20.000Z</time>
      </trkpt>
      <trkpt lat="46.60725" lon="15.66424">
        <ele>263.132401</ele>
        <time>2026-07-09T15:42:24.000Z</time>
      </trkpt>
      <trkpt lat="46.60695" lon="15.66427">
        <ele>262.632759</ele>
        <time>2026-07-09T15:42:29.000Z</time>
      </trkpt>
      <trkpt lat="46.6067" lon="15.6643">
        <ele>262.218995</ele>
        <time>2026-07-09T15:42:33.000Z</time>
      </trkpt>
      <trkpt lat="46.60658" lon="15.66434">
        <ele>262.009872</ele>
        <time>2026-07-09T15:42:35.000Z</time>
      </trkpt>
      <trkpt lat="46.60624" lon="15.66455">
        <ele>261.740366</ele>
        <time>2026-07-09T15:42:41.000Z</time>
      </trkpt>
      <trkpt lat="46.60583" lon="15.6649">
        <ele>261.692483</ele>
        <time>2026-07-09T15:42:49.000Z</time>
      </trkpt>
      <trkpt lat="46.60565" lon="15.66512">
        <ele>261.669042</ele>
        <time>2026-07-09T15:42:53.000Z</time>
      </trkpt>
      <trkpt lat="46.60557" lon="15.66525">
        <ele>261.657096</ele>
        <time>2026-07-09T15:42:55.000Z</time>
      </trkpt>
      <trkpt lat="46.60542" lon="15.66553">
        <ele>261.632677</ele>
        <time>2026-07-09T15:42:59.000Z</time>
      </trkpt>
      <trkpt lat="46.60528" lon="15.66582">
        <ele>261.607983</ele>
        <time>2026-07-09T15:43:03.000Z</time>
      </trkpt>
      <trkpt lat="46.60497" lon="15.66634">
        <ele>261.348771</ele>
        <time>2026-07-09T15:43:11.000Z</time>
      </trkpt>
      <trkpt lat="46.60492" lon="15.66639">
        <ele>261.28798</ele>
        <time>2026-07-09T15:43:12.000Z</time>
      </trkpt>
      <trkpt lat="46.60448" lon="15.66694">
        <ele>260.657657</ele>
        <time>2026-07-09T15:43:22.000Z</time>
      </trkpt>
      <trkpt lat="46.60425" lon="15.66723">
        <ele>260.328471</ele>
        <time>2026-07-09T15:43:27.000Z</time>
      </trkpt>
      <trkpt lat="46.60401" lon="15.66752">
        <ele>259.998381</ele>
        <time>2026-07-09T15:43:32.000Z</time>
      </trkpt>
      <trkpt lat="46.60365" lon="15.66813">
        <ele>259.461319</ele>
        <time>2026-07-09T15:43:41.000Z</time>
      </trkpt>
      <trkpt lat="46.60332" lon="15.66875">
        <ele>259.038154</ele>
        <time>2026-07-09T15:43:50.000Z</time>
      </trkpt>
      <trkpt lat="46.603" lon="15.66936">
        <ele>258.622914</ele>
        <time>2026-07-09T15:43:59.000Z</time>
      </trkpt>
      <trkpt lat="46.60292" lon="15.66948">
        <ele>258.531307</ele>
        <time>2026-07-09T15:44:01.000Z</time>
      </trkpt>
      <trkpt lat="46.60282" lon="15.66958">
        <ele>258.435015</ele>
        <time>2026-07-09T15:44:03.000Z</time>
      </trkpt>
      <trkpt lat="46.60277" lon="15.66961">
        <ele>258.387742</ele>
        <time>2026-07-09T15:44:04.000Z</time>
      </trkpt>
      <trkpt lat="46.60271" lon="15.66963">
        <ele>258.341854</ele>
        <time>2026-07-09T15:44:05.000Z</time>
      </trkpt>
      <trkpt lat="46.60259" lon="15.66964">
        <ele>258.247585</ele>
        <time>2026-07-09T15:44:07.000Z</time>
      </trkpt>
      <trkpt lat="46.60253" lon="15.66963">
        <ele>258.21094</ele>
        <time>2026-07-09T15:44:08.000Z</time>
      </trkpt>
      <trkpt lat="46.60248" lon="15.6696">
        <ele>258.192007</ele>
        <time>2026-07-09T15:44:09.000Z</time>
      </trkpt>
      <trkpt lat="46.60238" lon="15.66951">
        <ele>258.154267</ele>
        <time>2026-07-09T15:44:11.000Z</time>
      </trkpt>
      <trkpt lat="46.60234" lon="15.66947">
        <ele>258.136689</ele>
        <time>2026-07-09T15:44:12.000Z</time>
      </trkpt>
      <trkpt lat="46.60224" lon="15.66948">
        <ele>258.105046</ele>
        <time>2026-07-09T15:44:14.000Z</time>
      </trkpt>
      <trkpt lat="46.60217" lon="15.66956">
        <ele>258.074035</ele>
        <time>2026-07-09T15:44:16.000Z</time>
      </trkpt>
      <trkpt lat="46.60214" lon="15.66962">
        <ele>258.056862</ele>
        <time>2026-07-09T15:44:17.000Z</time>
      </trkpt>
      <trkpt lat="46.60207" lon="15.66975">
        <ele>258.020253</ele>
        <time>2026-07-09T15:44:19.000Z</time>
      </trkpt>
      <trkpt lat="46.60196" lon="15.67005">
        <ele>257.943154</ele>
        <time>2026-07-09T15:44:23.000Z</time>
      </trkpt>
      <trkpt lat="46.60173" lon="15.6707">
        <ele>257.77422</ele>
        <time>2026-07-09T15:44:32.000Z</time>
      </trkpt>
      <trkpt lat="46.60149" lon="15.67148">
        <ele>257.699138</ele>
        <time>2026-07-09T15:44:42.000Z</time>
      </trkpt>
      <trkpt lat="46.60147" lon="15.67157">
        <ele>257.737057</ele>
        <time>2026-07-09T15:44:43.000Z</time>
      </trkpt>
      <trkpt lat="46.6013" lon="15.67229">
        <ele>258.066352</ele>
        <time>2026-07-09T15:44:52.000Z</time>
      </trkpt>
      <trkpt lat="46.6012" lon="15.67286">
        <ele>258.32242</ele>
        <time>2026-07-09T15:44:59.000Z</time>
      </trkpt>
      <trkpt lat="46.60121" lon="15.67332">
        <ele>258.520037</ele>
        <time>2026-07-09T15:45:05.000Z</time>
      </trkpt>
      <trkpt lat="46.60125" lon="15.67379">
        <ele>258.727295</ele>
        <time>2026-07-09T15:45:12.000Z</time>
      </trkpt>
      <trkpt lat="46.6013" lon="15.67415">
        <ele>259.488234</ele>
        <time>2026-07-09T15:45:18.000Z</time>
      </trkpt>
      <trkpt lat="46.60133" lon="15.67435">
        <ele>259.98104</ele>
        <time>2026-07-09T15:45:21.000Z</time>
      </trkpt>
      <trkpt lat="46.60135" lon="15.67447">
        <ele>260.273749</ele>
        <time>2026-07-09T15:45:23.000Z</time>
      </trkpt>
      <trkpt lat="46.60135" lon="15.67453">
        <ele>260.422948</ele>
        <time>2026-07-09T15:45:24.000Z</time>
      </trkpt>
      <trkpt lat="46.60134" lon="15.67465">
        <ele>260.7074</ele>
        <time>2026-07-09T15:45:26.000Z</time>
      </trkpt>
      <trkpt lat="46.60132" lon="15.67475">
        <ele>260.95463</ele>
        <time>2026-07-09T15:45:28.000Z</time>
      </trkpt>
      <trkpt lat="46.60127" lon="15.67487">
        <ele>261.283146</ele>
        <time>2026-07-09T15:45:31.000Z</time>
      </trkpt>
      <trkpt lat="46.60125" lon="15.67489">
        <ele>261.388918</ele>
        <time>2026-07-09T15:45:32.000Z</time>
      </trkpt>
      <trkpt lat="46.60119" lon="15.67491">
        <ele>261.581577</ele>
        <time>2026-07-09T15:45:34.000Z</time>
      </trkpt>
      <trkpt lat="46.60114" lon="15.6749">
        <ele>261.785863</ele>
        <time>2026-07-09T15:45:36.000Z</time>
      </trkpt>
      <trkpt lat="46.60112" lon="15.67488">
        <ele>261.865984</ele>
        <time>2026-07-09T15:45:40.000Z</time>
      </trkpt>
      <trkpt lat="46.60107" lon="15.67489">
        <ele>262.034863</ele>
        <time>2026-07-09T15:45:53.000Z</time>
      </trkpt>
      <trkpt lat="46.60105" lon="15.67493">
        <ele>262.157623</ele>
        <time>2026-07-09T15:45:55.000Z</time>
      </trkpt>
      <trkpt lat="46.60104" lon="15.67496">
        <ele>262.227896</ele>
        <time>2026-07-09T15:45:56.000Z</time>
      </trkpt>
      <trkpt lat="46.60102" lon="15.67499">
        <ele>262.339791</ele>
        <time>2026-07-09T15:45:58.000Z</time>
      </trkpt>
      <trkpt lat="46.60101" lon="15.67499">
        <ele>262.390059</ele>
        <time>2026-07-09T15:45:59.000Z</time>
      </trkpt>
      <trkpt lat="46.60092" lon="15.67486">
        <ele>262.817003</ele>
        <time>2026-07-09T15:46:04.000Z</time>
      </trkpt>
      <trkpt lat="46.60073" lon="15.67461">
        <ele>263.708567</ele>
        <time>2026-07-09T15:46:12.000Z</time>
      </trkpt>
      <trkpt lat="46.60059" lon="15.67454">
        <ele>264.215528</ele>
        <time>2026-07-09T15:46:16.000Z</time>
      </trkpt>
      <trkpt lat="46.60055" lon="15.67453">
        <ele>264.368674</ele>
        <time>2026-07-09T15:46:17.000Z</time>
      </trkpt>
      <trkpt lat="46.60051" lon="15.67451">
        <ele>264.538283</ele>
        <time>2026-07-09T15:46:18.000Z</time>
      </trkpt>
      <trkpt lat="46.60042" lon="15.67441">
        <ele>264.910978</ele>
        <time>2026-07-09T15:46:20.000Z</time>
      </trkpt>
      <trkpt lat="46.60018" lon="15.67409">
        <ele>263.931376</ele>
        <time>2026-07-09T15:46:25.000Z</time>
      </trkpt>
      <trkpt lat="46.59978" lon="15.67354">
        <ele>261.874686</ele>
        <time>2026-07-09T15:46:33.000Z</time>
      </trkpt>
      <trkpt lat="46.59973" lon="15.67347">
        <ele>261.620936</ele>
        <time>2026-07-09T15:46:34.000Z</time>
      </trkpt>
      <trkpt lat="46.59959" lon="15.67327">
        <ele>260.8821</ele>
        <time>2026-07-09T15:46:37.000Z</time>
      </trkpt>
      <trkpt lat="46.59944" lon="15.6731">
        <ele>260.187067</ele>
        <time>2026-07-09T15:46:40.000Z</time>
      </trkpt>
      <trkpt lat="46.59913" lon="15.67276">
        <ele>258.719497</ele>
        <time>2026-07-09T15:46:47.000Z</time>
      </trkpt>
      <trkpt lat="46.59892" lon="15.67257">
        <ele>258.127633</ele>
        <time>2026-07-09T15:46:52.000Z</time>
      </trkpt>
      <trkpt lat="46.59885" lon="15.67252">
        <ele>258.019331</ele>
        <time>2026-07-09T15:46:54.000Z</time>
      </trkpt>
      <trkpt lat="46.59875" lon="15.67244">
        <ele>257.858639</ele>
        <time>2026-07-09T15:46:57.000Z</time>
      </trkpt>
      <trkpt lat="46.59864" lon="15.67235">
        <ele>257.694996</ele>
        <time>2026-07-09T15:47:00.000Z</time>
      </trkpt>
      <trkpt lat="46.5986" lon="15.67233">
        <ele>257.640073</ele>
        <time>2026-07-09T15:47:01.000Z</time>
      </trkpt>
      <trkpt lat="46.59829" lon="15.67214">
        <ele>257.178609</ele>
        <time>2026-07-09T15:47:09.000Z</time>
      </trkpt>
      <trkpt lat="46.59798" lon="15.67197">
        <ele>256.726769</ele>
        <time>2026-07-09T15:47:17.000Z</time>
      </trkpt>
      <trkpt lat="46.59779" lon="15.67187">
        <ele>256.454381</ele>
        <time>2026-07-09T15:47:22.000Z</time>
      </trkpt>
      <trkpt lat="46.5977" lon="15.67183">
        <ele>256.330153</ele>
        <time>2026-07-09T15:47:24.000Z</time>
      </trkpt>
      <trkpt lat="46.5974" lon="15.67165">
        <ele>255.890338</ele>
        <time>2026-07-09T15:47:31.000Z</time>
      </trkpt>
      <trkpt lat="46.59731" lon="15.67162">
        <ele>255.905852</ele>
        <time>2026-07-09T15:47:33.000Z</time>
      </trkpt>
      <trkpt lat="46.59718" lon="15.67159">
        <ele>255.970697</ele>
        <time>2026-07-09T15:47:36.000Z</time>
      </trkpt>
      <trkpt lat="46.59709" lon="15.67164">
        <ele>256.01512</ele>
        <time>2026-07-09T15:47:38.000Z</time>
      </trkpt>
      <trkpt lat="46.59696" lon="15.67179">
        <ele>256.089452</ele>
        <time>2026-07-09T15:47:42.000Z</time>
      </trkpt>
      <trkpt lat="46.59693" lon="15.6718">
        <ele>256.105303</ele>
        <time>2026-07-09T15:47:43.000Z</time>
      </trkpt>
      <trkpt lat="46.59686" lon="15.67179">
        <ele>256.136779</ele>
        <time>2026-07-09T15:47:45.000Z</time>
      </trkpt>
      <trkpt lat="46.59681" lon="15.6717">
        <ele>256.17128</ele>
        <time>2026-07-09T15:47:47.000Z</time>
      </trkpt>
      <trkpt lat="46.59668" lon="15.67146">
        <ele>256.269644</ele>
        <time>2026-07-09T15:47:52.000Z</time>
      </trkpt>
      <trkpt lat="46.59663" lon="15.67136">
        <ele>256.3092</ele>
        <time>2026-07-09T15:47:54.000Z</time>
      </trkpt>
      <trkpt lat="46.59651" lon="15.67112">
        <ele>256.403741</ele>
        <time>2026-07-09T15:47:59.000Z</time>
      </trkpt>
      <trkpt lat="46.59629" lon="15.67076">
        <ele>256.557176</ele>
        <time>2026-07-09T15:48:07.000Z</time>
      </trkpt>
      <trkpt lat="46.59606" lon="15.67046">
        <ele>256.699256</ele>
        <time>2026-07-09T15:48:15.000Z</time>
      </trkpt>
      <trkpt lat="46.5959" lon="15.67024">
        <ele>258.026206</ele>
        <time>2026-07-09T15:48:22.000Z</time>
      </trkpt>
      <trkpt lat="46.5959" lon="15.67024">
        <ele>258.026206</ele>
        <time>2026-07-09T15:48:25.000Z</time>
      </trkpt>
      <trkpt lat="46.59571" lon="15.67003">
        <ele>259.44208</ele>
        <time>2026-07-09T15:48:31.000Z</time>
      </trkpt>
      <trkpt lat="46.59572" lon="15.67">
        <ele>259.571642</ele>
        <time>2026-07-09T15:48:32.000Z</time>
      </trkpt>
      <trkpt lat="46.59552" lon="15.66978">
        <ele>261.117176</ele>
        <time>2026-07-09T15:48:43.000Z</time>
      </trkpt>
      <trkpt lat="46.59541" lon="15.66963">
        <ele>262.036065</ele>
        <time>2026-07-09T15:48:50.000Z</time>
      </trkpt>
      <trkpt lat="46.5954" lon="15.6696">
        <ele>262.148403</ele>
        <time>2026-07-09T15:48:51.000Z</time>
      </trkpt>
      <trkpt lat="46.59543" lon="15.66955">
        <ele>262.390534</ele>
        <time>2026-07-09T15:48:53.000Z</time>
      </trkpt>
      <trkpt lat="46.59545" lon="15.66953">
        <ele>262.522685</ele>
        <time>2026-07-09T15:48:54.000Z</time>
      </trkpt>
      <trkpt lat="46.59554" lon="15.66946">
        <ele>263.155501</ele>
        <time>2026-07-09T15:48:59.000Z</time>
      </trkpt>
      <trkpt lat="46.5956" lon="15.66938">
        <ele>263.682522</ele>
        <time>2026-07-09T15:49:03.000Z</time>
      </trkpt>
      <trkpt lat="46.59567" lon="15.66918">
        <ele>264.582619</ele>
        <time>2026-07-09T15:49:10.000Z</time>
      </trkpt>
      <trkpt lat="46.59562" lon="15.66901">
        <ele>265.356676</ele>
        <time>2026-07-09T15:49:17.000Z</time>
      </trkpt>
      <trkpt lat="46.59553" lon="15.66892">
        <ele>265.965291</ele>
        <time>2026-07-09T15:49:22.000Z</time>
      </trkpt>
      <trkpt lat="46.59552" lon="15.66892">
        <ele>266.083281</ele>
        <time>2026-07-09T15:49:23.000Z</time>
      </trkpt>
      <trkpt lat="46.59537" lon="15.66881">
        <ele>267.058958</ele>
        <time>2026-07-09T15:49:31.000Z</time>
      </trkpt>
      <trkpt lat="46.59525" lon="15.6687">
        <ele>267.746677</ele>
        <time>2026-07-09T15:49:38.000Z</time>
      </trkpt>
      <trkpt lat="46.59504" lon="15.66849">
        <ele>268.664274</ele>
        <time>2026-07-09T15:49:49.000Z</time>
      </trkpt>
      <trkpt lat="46.59489" lon="15.66833">
        <ele>269.342176</ele>
        <time>2026-07-09T15:49:56.000Z</time>
      </trkpt>
      <trkpt lat="46.59473" lon="15.66818">
        <ele>270.012281</ele>
        <time>2026-07-09T15:50:02.000Z</time>
      </trkpt>
      <trkpt lat="46.5945" lon="15.66794">
        <ele>271.028469</ele>
        <time>2026-07-09T15:50:11.000Z</time>
      </trkpt>
      <trkpt lat="46.59443" lon="15.66775">
        <ele>271.544751</ele>
        <time>2026-07-09T15:50:16.000Z</time>
      </trkpt>
      <trkpt lat="46.59441" lon="15.66758">
        <ele>271.966663</ele>
        <time>2026-07-09T15:50:20.000Z</time>
      </trkpt>
      <trkpt lat="46.59442" lon="15.66749">
        <ele>272.194175</ele>
        <time>2026-07-09T15:50:22.000Z</time>
      </trkpt>
      <trkpt lat="46.59443" lon="15.66734">
        <ele>272.560378</ele>
        <time>2026-07-09T15:50:26.000Z</time>
      </trkpt>
      <trkpt lat="46.59446" lon="15.66726">
        <ele>272.815923</ele>
        <time>2026-07-09T15:50:28.000Z</time>
      </trkpt>
      <trkpt lat="46.59456" lon="15.66709">
        <ele>273.354228</ele>
        <time>2026-07-09T15:50:33.000Z</time>
      </trkpt>
      <trkpt lat="46.59469" lon="15.66688">
        <ele>274.001889</ele>
        <time>2026-07-09T15:50:40.000Z</time>
      </trkpt>
      <trkpt lat="46.5949" lon="15.66668">
        <ele>274.440174</ele>
        <time>2026-07-09T15:50:49.000Z</time>
      </trkpt>
      <trkpt lat="46.59509" lon="15.66648">
        <ele>274.843988</ele>
        <time>2026-07-09T15:50:58.000Z</time>
      </trkpt>
      <trkpt lat="46.59513" lon="15.66637">
        <ele>274.996571</ele>
        <time>2026-07-09T15:51:02.000Z</time>
      </trkpt>
      <trkpt lat="46.59506" lon="15.66621">
        <ele>275.218804</ele>
        <time>2026-07-09T15:51:06.000Z</time>
      </trkpt>
      <trkpt lat="46.59503" lon="15.66615">
        <ele>275.312225</ele>
        <time>2026-07-09T15:51:08.000Z</time>
      </trkpt>
      <trkpt lat="46.595" lon="15.66614">
        <ele>275.359843</ele>
        <time>2026-07-09T15:51:09.000Z</time>
      </trkpt>
      <trkpt lat="46.59482" lon="15.66615">
        <ele>275.684708</ele>
        <time>2026-07-09T15:51:15.000Z</time>
      </trkpt>
      <trkpt lat="46.59461" lon="15.6662">
        <ele>276.046755</ele>
        <time>2026-07-09T15:51:22.000Z</time>
      </trkpt>
      <trkpt lat="46.59446" lon="15.66619">
        <ele>276.311127</ele>
        <time>2026-07-09T15:51:27.000Z</time>
      </trkpt>
      <trkpt lat="46.59437" lon="15.66614">
        <ele>276.4671</ele>
        <time>2026-07-09T15:51:30.000Z</time>
      </trkpt>
      <trkpt lat="46.59418" lon="15.66596">
        <ele>276.868091</ele>
        <time>2026-07-09T15:51:38.000Z</time>
      </trkpt>
      <trkpt lat="46.5941" lon="15.66591">
        <ele>277.021192</ele>
        <time>2026-07-09T15:51:41.000Z</time>
      </trkpt>
      <trkpt lat="46.59396" lon="15.66584">
        <ele>276.951641</ele>
        <time>2026-07-09T15:51:45.000Z</time>
      </trkpt>
      <trkpt lat="46.59374" lon="15.6658">
        <ele>276.67193</ele>
        <time>2026-07-09T15:51:49.000Z</time>
      </trkpt>
      <trkpt lat="46.59368" lon="15.6658">
        <ele>276.602073</ele>
        <time>2026-07-09T15:51:50.000Z</time>
      </trkpt>
      <trkpt lat="46.59352" lon="15.66583">
        <ele>276.408343</ele>
        <time>2026-07-09T15:51:52.000Z</time>
      </trkpt>
      <trkpt lat="46.59343" lon="15.66587">
        <ele>276.28559</ele>
        <time>2026-07-09T15:51:53.000Z</time>
      </trkpt>
      <trkpt lat="46.59328" lon="15.66596">
        <ele>276.084544</ele>
        <time>2026-07-09T15:51:55.000Z</time>
      </trkpt>
      <trkpt lat="46.59315" lon="15.66607">
        <ele>275.902573</ele>
        <time>2026-07-09T15:51:57.000Z</time>
      </trkpt>
      <trkpt lat="46.593" lon="15.66619">
        <ele>275.696394</ele>
        <time>2026-07-09T15:51:59.000Z</time>
      </trkpt>
      <trkpt lat="46.59286" lon="15.66625">
        <ele>275.521735</ele>
        <time>2026-07-09T15:52:01.000Z</time>
      </trkpt>
      <trkpt lat="46.59267" lon="15.66629">
        <ele>275.277628</ele>
        <time>2026-07-09T15:52:05.000Z</time>
      </trkpt>
      <trkpt lat="46.59247" lon="15.66632">
        <ele>275.035699</ele>
        <time>2026-07-09T15:52:10.000Z</time>
      </trkpt>
      <trkpt lat="46.59243" lon="15.66632">
        <ele>274.99143</ele>
        <time>2026-07-09T15:52:11.000Z</time>
      </trkpt>
      <trkpt lat="46.59229" lon="15.66629">
        <ele>275.219275</ele>
        <time>2026-07-09T15:52:16.000Z</time>
      </trkpt>
      <trkpt lat="46.59217" lon="15.66628">
        <ele>275.900207</ele>
        <time>2026-07-09T15:52:20.000Z</time>
      </trkpt>
      <trkpt lat="46.59211" lon="15.66628">
        <ele>276.253318</ele>
        <time>2026-07-09T15:52:22.000Z</time>
      </trkpt>
      <trkpt lat="46.59192" lon="15.66622">
        <ele>277.415771</ele>
        <time>2026-07-09T15:52:29.000Z</time>
      </trkpt>
      <trkpt lat="46.59177" lon="15.66612">
        <ele>278.434811</ele>
        <time>2026-07-09T15:52:35.000Z</time>
      </trkpt>
      <trkpt lat="46.59174" lon="15.66609">
        <ele>278.632757</ele>
        <time>2026-07-09T15:52:36.000Z</time>
      </trkpt>
      <trkpt lat="46.59164" lon="15.66598">
        <ele>279.35722</ele>
        <time>2026-07-09T15:52:40.000Z</time>
      </trkpt>
      <trkpt lat="46.59159" lon="15.66588">
        <ele>279.909936</ele>
        <time>2026-07-09T15:52:43.000Z</time>
      </trkpt>
      <trkpt lat="46.59152" lon="15.66569">
        <ele>280.765646</ele>
        <time>2026-07-09T15:52:49.000Z</time>
      </trkpt>
      <trkpt lat="46.59143" lon="15.66542">
        <ele>282.010528</ele>
        <time>2026-07-09T15:52:56.000Z</time>
      </trkpt>
      <trkpt lat="46.59136" lon="15.66523">
        <ele>282.868681</ele>
        <time>2026-07-09T15:53:01.000Z</time>
      </trkpt>
      <trkpt lat="46.5913" lon="15.6651">
        <ele>283.544957</ele>
        <time>2026-07-09T15:53:05.000Z</time>
      </trkpt>
      <trkpt lat="46.59121" lon="15.66487">
        <ele>284.615189</ele>
        <time>2026-07-09T15:53:12.000Z</time>
      </trkpt>
      <trkpt lat="46.59106" lon="15.66447">
        <ele>286.409255</ele>
        <time>2026-07-09T15:53:24.000Z</time>
      </trkpt>
      <trkpt lat="46.59093" lon="15.66426">
        <ele>287.469237</ele>
        <time>2026-07-09T15:53:31.000Z</time>
      </trkpt>
      <trkpt lat="46.59075" lon="15.66404">
        <ele>288.767848</ele>
        <time>2026-07-09T15:53:40.000Z</time>
      </trkpt>
      <trkpt lat="46.59051" lon="15.66389">
        <ele>290.155713</ele>
        <time>2026-07-09T15:53:49.000Z</time>
      </trkpt>
      <trkpt lat="46.59024" lon="15.6638">
        <ele>291.673539</ele>
        <time>2026-07-09T15:53:59.000Z</time>
      </trkpt>
      <trkpt lat="46.59001" lon="15.66373">
        <ele>292.975606</ele>
        <time>2026-07-09T15:54:08.000Z</time>
      </trkpt>
      <trkpt lat="46.58981" lon="15.66366">
        <ele>294.080241</ele>
        <time>2026-07-09T15:54:16.000Z</time>
      </trkpt>
      <trkpt lat="46.58966" lon="15.66353">
        <ele>295.010666</ele>
        <time>2026-07-09T15:54:23.000Z</time>
      </trkpt>
      <trkpt lat="46.58952" lon="15.66335">
        <ele>295.845475</ele>
        <time>2026-07-09T15:54:31.000Z</time>
      </trkpt>
      <trkpt lat="46.58938" lon="15.66316">
        <ele>296.501674</ele>
        <time>2026-07-09T15:54:39.000Z</time>
      </trkpt>
      <trkpt lat="46.58923" lon="15.66295">
        <ele>297.264544</ele>
        <time>2026-07-09T15:54:48.000Z</time>
      </trkpt>
      <trkpt lat="46.58909" lon="15.66279">
        <ele>297.905662</ele>
        <time>2026-07-09T15:54:55.000Z</time>
      </trkpt>
      <trkpt lat="46.58884" lon="15.66257">
        <ele>298.928201</ele>
        <time>2026-07-09T15:55:05.000Z</time>
      </trkpt>
      <trkpt lat="46.58867" lon="15.66247">
        <ele>299.601096</ele>
        <time>2026-07-09T15:55:11.000Z</time>
      </trkpt>
      <trkpt lat="46.58855" lon="15.66244">
        <ele>300.026258</ele>
        <time>2026-07-09T15:55:15.000Z</time>
      </trkpt>
      <trkpt lat="46.58829" lon="15.66238">
        <ele>300.975643</ele>
        <time>2026-07-09T15:55:24.000Z</time>
      </trkpt>
      <trkpt lat="46.58807" lon="15.66237">
        <ele>301.751885</ele>
        <time>2026-07-09T15:55:31.000Z</time>
      </trkpt>
      <trkpt lat="46.58789" lon="15.66239">
        <ele>302.935863</ele>
        <time>2026-07-09T15:55:37.000Z</time>
      </trkpt>
      <trkpt lat="46.58765" lon="15.66247">
        <ele>304.671271</ele>
        <time>2026-07-09T15:55:45.000Z</time>
      </trkpt>
      <trkpt lat="46.5874" lon="15.66263">
        <ele>306.643286</ele>
        <time>2026-07-09T15:55:54.000Z</time>
      </trkpt>
      <trkpt lat="46.58725" lon="15.66281">
        <ele>308.001837</ele>
        <time>2026-07-09T15:56:00.000Z</time>
      </trkpt>
      <trkpt lat="46.58711" lon="15.66311">
        <ele>309.761927</ele>
        <time>2026-07-09T15:56:07.000Z</time>
      </trkpt>
      <trkpt lat="46.58701" lon="15.66341">
        <ele>311.387866</ele>
        <time>2026-07-09T15:56:13.000Z</time>
      </trkpt>
      <trkpt lat="46.58691" lon="15.66362">
        <ele>312.606747</ele>
        <time>2026-07-09T15:56:17.000Z</time>
      </trkpt>
      <trkpt lat="46.58678" lon="15.66384">
        <ele>314.048606</ele>
        <time>2026-07-09T15:56:22.000Z</time>
      </trkpt>
      <trkpt lat="46.58662" lon="15.66415">
        <ele>314.631979</ele>
        <time>2026-07-09T15:56:29.000Z</time>
      </trkpt>
      <trkpt lat="46.58642" lon="15.66452">
        <ele>314.725053</ele>
        <time>2026-07-09T15:56:37.000Z</time>
      </trkpt>
      <trkpt lat="46.58627" lon="15.66479">
        <ele>314.794009</ele>
        <time>2026-07-09T15:56:43.000Z</time>
      </trkpt>
      <trkpt lat="46.58611" lon="15.66509">
        <ele>314.868572</ele>
        <time>2026-07-09T15:56:49.000Z</time>
      </trkpt>
      <trkpt lat="46.58586" lon="15.66541">
        <ele>314.96514</ele>
        <time>2026-07-09T15:56:56.000Z</time>
      </trkpt>
      <trkpt lat="46.58561" lon="15.6656">
        <ele>315.045537</ele>
        <time>2026-07-09T15:57:01.000Z</time>
      </trkpt>
      <trkpt lat="46.58555" lon="15.66563">
        <ele>315.062927</ele>
        <time>2026-07-09T15:57:02.000Z</time>
      </trkpt>
      <trkpt lat="46.58522" lon="15.6657">
        <ele>314.166107</ele>
        <time>2026-07-09T15:57:07.000Z</time>
      </trkpt>
      <trkpt lat="46.58516" lon="15.66571">
        <ele>313.886337</ele>
        <time>2026-07-09T15:57:08.000Z</time>
      </trkpt>
      <trkpt lat="46.58481" lon="15.66572">
        <ele>312.416858</ele>
        <time>2026-07-09T15:57:13.000Z</time>
      </trkpt>
      <trkpt lat="46.58466" lon="15.66571">
        <ele>311.80733</ele>
        <time>2026-07-09T15:57:15.000Z</time>
      </trkpt>
      <trkpt lat="46.58427" lon="15.66572">
        <ele>310.187774</ele>
        <time>2026-07-09T15:57:20.000Z</time>
      </trkpt>
      <trkpt lat="46.58411" lon="15.66572">
        <ele>309.494917</ele>
        <time>2026-07-09T15:57:22.000Z</time>
      </trkpt>
      <trkpt lat="46.58384" lon="15.66572">
        <ele>308.405583</ele>
        <time>2026-07-09T15:57:25.000Z</time>
      </trkpt>
      <trkpt lat="46.58367" lon="15.66572">
        <ele>307.666789</ele>
        <time>2026-07-09T15:57:27.000Z</time>
      </trkpt>
      <trkpt lat="46.5832" lon="15.66573">
        <ele>305.77478</ele>
        <time>2026-07-09T15:57:32.000Z</time>
      </trkpt>
      <trkpt lat="46.58281" lon="15.66574">
        <ele>304.186421</ele>
        <time>2026-07-09T15:57:36.000Z</time>
      </trkpt>
      <trkpt lat="46.58245" lon="15.66571">
        <ele>302.714044</ele>
        <time>2026-07-09T15:57:40.000Z</time>
      </trkpt>
      <trkpt lat="46.58237" lon="15.66568">
        <ele>302.364369</ele>
        <time>2026-07-09T15:57:41.000Z</time>
      </trkpt>
      <trkpt lat="46.5822" lon="15.66558">
        <ele>301.636456</ele>
        <time>2026-07-09T15:57:43.000Z</time>
      </trkpt>
      <trkpt lat="46.58204" lon="15.66544">
        <ele>300.869123</ele>
        <time>2026-07-09T15:57:45.000Z</time>
      </trkpt>
      <trkpt lat="46.58191" lon="15.66526">
        <ele>300.187966</ele>
        <time>2026-07-09T15:57:47.000Z</time>
      </trkpt>
      <trkpt lat="46.5818" lon="15.66503">
        <ele>299.758574</ele>
        <time>2026-07-09T15:57:49.000Z</time>
      </trkpt>
      <trkpt lat="46.58152" lon="15.66433">
        <ele>298.479046</ele>
        <time>2026-07-09T15:57:55.000Z</time>
      </trkpt>
      <trkpt lat="46.58129" lon="15.66362">
        <ele>297.241294</ele>
        <time>2026-07-09T15:58:01.000Z</time>
      </trkpt>
      <trkpt lat="46.5812" lon="15.66327">
        <ele>296.654463</ele>
        <time>2026-07-09T15:58:04.000Z</time>
      </trkpt>
      <trkpt lat="46.581" lon="15.66253">
        <ele>295.699205</ele>
        <time>2026-07-09T15:58:11.000Z</time>
      </trkpt>
      <trkpt lat="46.5808" lon="15.66192">
        <ele>295.057912</ele>
        <time>2026-07-09T15:58:18.000Z</time>
      </trkpt>
      <trkpt lat="46.5805" lon="15.66124">
        <ele>294.289918</ele>
        <time>2026-07-09T15:58:26.000Z</time>
      </trkpt>
      <trkpt lat="46.5804" lon="15.66104">
        <ele>294.056149</ele>
        <time>2026-07-09T15:58:28.000Z</time>
      </trkpt>
      <trkpt lat="46.58013" lon="15.66056">
        <ele>293.618962</ele>
        <time>2026-07-09T15:58:34.000Z</time>
      </trkpt>
      <trkpt lat="46.5801" lon="15.6605">
        <ele>293.597409</ele>
        <time>2026-07-09T15:58:35.000Z</time>
      </trkpt>
      <trkpt lat="46.57979" lon="15.65999">
        <ele>293.424816</ele>
        <time>2026-07-09T15:58:42.000Z</time>
      </trkpt>
      <trkpt lat="46.5796" lon="15.65965">
        <ele>293.312662</ele>
        <time>2026-07-09T15:58:47.000Z</time>
      </trkpt>
      <trkpt lat="46.5793" lon="15.65928">
        <ele>293.165335</ele>
        <time>2026-07-09T15:58:53.000Z</time>
      </trkpt>
      <trkpt lat="46.57893" lon="15.659">
        <ele>293.009947</ele>
        <time>2026-07-09T15:58:59.000Z</time>
      </trkpt>
      <trkpt lat="46.57842" lon="15.65864">
        <ele>292.124651</ele>
        <time>2026-07-09T15:59:07.000Z</time>
      </trkpt>
      <trkpt lat="46.578" lon="15.65827">
        <ele>291.327419</ele>
        <time>2026-07-09T15:59:14.000Z</time>
      </trkpt>
      <trkpt lat="46.57763" lon="15.65794">
        <ele>290.631299</ele>
        <time>2026-07-09T15:59:20.000Z</time>
      </trkpt>
      <trkpt lat="46.57721" lon="15.65767">
        <ele>289.901667</ele>
        <time>2026-07-09T15:59:26.000Z</time>
      </trkpt>
      <trkpt lat="46.57683" lon="15.65756">
        <ele>289.300544</ele>
        <time>2026-07-09T15:59:31.000Z</time>
      </trkpt>
      <trkpt lat="46.57631" lon="15.65756">
        <ele>288.486071</ele>
        <time>2026-07-09T15:59:38.000Z</time>
      </trkpt>
      <trkpt lat="46.57571" lon="15.65763">
        <ele>287.568175</ele>
        <time>2026-07-09T15:59:46.000Z</time>
      </trkpt>
      <trkpt lat="46.57513" lon="15.6577">
        <ele>287.054489</ele>
        <time>2026-07-09T15:59:54.000Z</time>
      </trkpt>
      <trkpt lat="46.57506" lon="15.65771">
        <ele>287.011227</ele>
        <time>2026-07-09T15:59:55.000Z</time>
      </trkpt>
      <trkpt lat="46.57455" lon="15.65775">
        <ele>286.694474</ele>
        <time>2026-07-09T16:00:02.000Z</time>
      </trkpt>
      <trkpt lat="46.57399" lon="15.6578">
        <ele>286.349777</ele>
        <time>2026-07-09T16:00:10.000Z</time>
      </trkpt>
      <trkpt lat="46.57392" lon="15.65781">
        <ele>286.306449</ele>
        <time>2026-07-09T16:00:11.000Z</time>
      </trkpt>
      <trkpt lat="46.57335" lon="15.65785">
        <ele>286.350749</ele>
        <time>2026-07-09T16:00:19.000Z</time>
      </trkpt>
      <trkpt lat="46.57313" lon="15.65787">
        <ele>286.428877</ele>
        <time>2026-07-09T16:00:22.000Z</time>
      </trkpt>
      <trkpt lat="46.57256" lon="15.65792">
        <ele>286.636737</ele>
        <time>2026-07-09T16:00:30.000Z</time>
      </trkpt>
      <trkpt lat="46.57248" lon="15.65793">
        <ele>286.663419</ele>
        <time>2026-07-09T16:00:31.000Z</time>
      </trkpt>
      <trkpt lat="46.57189" lon="15.65799">
        <ele>286.86692</ele>
        <time>2026-07-09T16:00:39.000Z</time>
      </trkpt>
      <trkpt lat="46.57133" lon="15.65805">
        <ele>286.986391</ele>
        <time>2026-07-09T16:00:47.000Z</time>
      </trkpt>
      <trkpt lat="46.57127" lon="15.65805">
        <ele>287.000324</ele>
        <time>2026-07-09T16:00:48.000Z</time>
      </trkpt>
      <trkpt lat="46.57079" lon="15.65807">
        <ele>287.102972</ele>
        <time>2026-07-09T16:00:55.000Z</time>
      </trkpt>
      <trkpt lat="46.5705" lon="15.65809">
        <ele>287.165594</ele>
        <time>2026-07-09T16:00:59.000Z</time>
      </trkpt>
      <trkpt lat="46.57014" lon="15.65813">
        <ele>287.229267</ele>
        <time>2026-07-09T16:01:04.000Z</time>
      </trkpt>
      <trkpt lat="46.5696" lon="15.65819">
        <ele>287.031814</ele>
        <time>2026-07-09T16:01:12.000Z</time>
      </trkpt>
      <trkpt lat="46.56946" lon="15.6582">
        <ele>286.982103</ele>
        <time>2026-07-09T16:01:14.000Z</time>
      </trkpt>
      <trkpt lat="46.56889" lon="15.65825">
        <ele>286.775757</ele>
        <time>2026-07-09T16:01:22.000Z</time>
      </trkpt>
      <trkpt lat="46.56882" lon="15.65826">
        <ele>286.748953</ele>
        <time>2026-07-09T16:01:23.000Z</time>
      </trkpt>
      <trkpt lat="46.56832" lon="15.65838">
        <ele>286.518503</ele>
        <time>2026-07-09T16:01:30.000Z</time>
      </trkpt>
      <trkpt lat="46.56778" lon="15.65859">
        <ele>285.878762</ele>
        <time>2026-07-09T16:01:38.000Z</time>
      </trkpt>
      <trkpt lat="46.56772" lon="15.65862">
        <ele>285.800087</ele>
        <time>2026-07-09T16:01:39.000Z</time>
      </trkpt>
      <trkpt lat="46.56746" lon="15.65877">
        <ele>285.475116</ele>
        <time>2026-07-09T16:01:43.000Z</time>
      </trkpt>
      <trkpt lat="46.56734" lon="15.65887">
        <ele>285.312955</ele>
        <time>2026-07-09T16:01:45.000Z</time>
      </trkpt>
      <trkpt lat="46.56698" lon="15.65919">
        <ele>284.827867</ele>
        <time>2026-07-09T16:01:51.000Z</time>
      </trkpt>
      <trkpt lat="46.56692" lon="15.65924">
        <ele>284.746392</ele>
        <time>2026-07-09T16:01:52.000Z</time>
      </trkpt>
      <trkpt lat="46.56645" lon="15.65949">
        <ele>283.747454</ele>
        <time>2026-07-09T16:01:59.000Z</time>
      </trkpt>
      <trkpt lat="46.5663" lon="15.65952">
        <ele>283.357343</ele>
        <time>2026-07-09T16:02:01.000Z</time>
      </trkpt>
      <trkpt lat="46.56615" lon="15.6595">
        <ele>282.949219</ele>
        <time>2026-07-09T16:02:03.000Z</time>
      </trkpt>
      <trkpt lat="46.56584" lon="15.65937">
        <ele>282.104046</ele>
        <time>2026-07-09T16:02:07.000Z</time>
      </trkpt>
      <trkpt lat="46.56554" lon="15.65918">
        <ele>281.247748</ele>
        <time>2026-07-09T16:02:11.000Z</time>
      </trkpt>
      <trkpt lat="46.56542" lon="15.6591">
        <ele>280.905412</ele>
        <time>2026-07-09T16:02:13.000Z</time>
      </trkpt>
      <trkpt lat="46.5653" lon="15.659">
        <ele>280.543915</ele>
        <time>2026-07-09T16:02:15.000Z</time>
      </trkpt>
      <trkpt lat="46.56518" lon="15.65891">
        <ele>280.19277</ele>
        <time>2026-07-09T16:02:17.000Z</time>
      </trkpt>
      <trkpt lat="46.56506" lon="15.65883">
        <ele>279.838436</ele>
        <time>2026-07-09T16:02:19.000Z</time>
      </trkpt>
      <trkpt lat="46.56493" lon="15.65876">
        <ele>279.795392</ele>
        <time>2026-07-09T16:02:21.000Z</time>
      </trkpt>
      <trkpt lat="46.56488" lon="15.65871">
        <ele>279.800688</ele>
        <time>2026-07-09T16:02:22.000Z</time>
      </trkpt>
      <trkpt lat="46.56459" lon="15.65855">
        <ele>279.826283</ele>
        <time>2026-07-09T16:02:26.000Z</time>
      </trkpt>
      <trkpt lat="46.56432" lon="15.65841">
        <ele>279.850017</ele>
        <time>2026-07-09T16:02:30.000Z</time>
      </trkpt>
      <trkpt lat="46.56419" lon="15.65833">
        <ele>279.862483</ele>
        <time>2026-07-09T16:02:32.000Z</time>
      </trkpt>
      <trkpt lat="46.56398" lon="15.65821">
        <ele>279.880864</ele>
        <time>2026-07-09T16:02:35.000Z</time>
      </trkpt>
      <trkpt lat="46.56385" lon="15.65815">
        <ele>279.892235</ele>
        <time>2026-07-09T16:02:37.000Z</time>
      </trkpt>
      <trkpt lat="46.56359" lon="15.65797">
        <ele>279.91682</ele>
        <time>2026-07-09T16:02:41.000Z</time>
      </trkpt>
      <trkpt lat="46.56353" lon="15.65793">
        <ele>279.92214</ele>
        <time>2026-07-09T16:02:42.000Z</time>
      </trkpt>
      <trkpt lat="46.56349" lon="15.65791">
        <ele>279.925428</ele>
        <time>2026-07-09T16:02:43.000Z</time>
      </trkpt>
      <trkpt lat="46.56341" lon="15.65786">
        <ele>279.933173</ele>
        <time>2026-07-09T16:02:45.000Z</time>
      </trkpt>
      <trkpt lat="46.56327" lon="15.65781">
        <ele>280.377288</ele>
        <time>2026-07-09T16:02:49.000Z</time>
      </trkpt>
      <trkpt lat="46.5632" lon="15.65772">
        <ele>280.767313</ele>
        <time>2026-07-09T16:02:54.000Z</time>
      </trkpt>
      <trkpt lat="46.5632" lon="15.65768">
        <ele>280.87739</ele>
        <time>2026-07-09T16:02:58.000Z</time>
      </trkpt>
      <trkpt lat="46.56315" lon="15.65765">
        <ele>281.115757</ele>
        <time>2026-07-09T16:03:41.000Z</time>
      </trkpt>
      <trkpt lat="46.56313" lon="15.65762">
        <ele>281.244166</ele>
        <time>2026-07-09T16:03:43.000Z</time>
      </trkpt>
      <trkpt lat="46.56312" lon="15.65759">
        <ele>281.336974</ele>
        <time>2026-07-09T16:03:45.000Z</time>
      </trkpt>
      <trkpt lat="46.56312" lon="15.65759">
        <ele>281.345113</ele>
        <time>2026-07-09T16:03:47.000Z</time>
      </trkpt>
      <trkpt lat="46.56311" lon="15.65761">
        <ele>281.444848</ele>
        <time>2026-07-09T16:03:49.000Z</time>
      </trkpt>
      <trkpt lat="46.56308" lon="15.65761">
        <ele>281.534554</ele>
        <time>2026-07-09T16:03:50.000Z</time>
      </trkpt>
      <trkpt lat="46.56301" lon="15.65755">
        <ele>281.882897</ele>
        <time>2026-07-09T16:03:53.000Z</time>
      </trkpt>
      <trkpt lat="46.56286" lon="15.65745">
        <ele>282.549393</ele>
        <time>2026-07-09T16:03:57.000Z</time>
      </trkpt>
      <trkpt lat="46.56283" lon="15.65742">
        <ele>282.698562</ele>
        <time>2026-07-09T16:03:58.000Z</time>
      </trkpt>
      <trkpt lat="46.56274" lon="15.65739">
        <ele>283.058471</ele>
        <time>2026-07-09T16:04:00.000Z</time>
      </trkpt>
      <trkpt lat="46.56249" lon="15.6573">
        <ele>284.123043</ele>
        <time>2026-07-09T16:04:06.000Z</time>
      </trkpt>
      <trkpt lat="46.56215" lon="15.65728">
        <ele>285.483938</ele>
        <time>2026-07-09T16:04:12.000Z</time>
      </trkpt>
      <trkpt lat="46.5621" lon="15.65709">
        <ele>286.059795</ele>
        <time>2026-07-09T16:04:16.000Z</time>
      </trkpt>
      <trkpt lat="46.56203" lon="15.65695">
        <ele>286.53786</ele>
        <time>2026-07-09T16:04:20.000Z</time>
      </trkpt>
      <trkpt lat="46.56181" lon="15.65664">
        <ele>286.902975</ele>
        <time>2026-07-09T16:04:28.000Z</time>
      </trkpt>
      <trkpt lat="46.56166" lon="15.65656">
        <ele>286.464742</ele>
        <time>2026-07-09T16:04:34.000Z</time>
      </trkpt>
      <trkpt lat="46.5615" lon="15.65649">
        <ele>286.006977</ele>
        <time>2026-07-09T16:04:38.000Z</time>
      </trkpt>
      <trkpt lat="46.56141" lon="15.65638">
        <ele>285.699242</ele>
        <time>2026-07-09T16:04:42.000Z</time>
      </trkpt>
      <trkpt lat="46.5613" lon="15.65627">
        <ele>285.326717</ele>
        <time>2026-07-09T16:04:46.000Z</time>
      </trkpt>
      <trkpt lat="46.56126" lon="15.65625">
        <ele>285.207566</ele>
        <time>2026-07-09T16:04:47.000Z</time>
      </trkpt>
      <trkpt lat="46.56108" lon="15.65609">
        <ele>284.640344</ele>
        <time>2026-07-09T16:04:53.000Z</time>
      </trkpt>
      <trkpt lat="46.56097" lon="15.65582">
        <ele>284.037682</ele>
        <time>2026-07-09T16:04:59.000Z</time>
      </trkpt>
      <trkpt lat="46.56085" lon="15.65559">
        <ele>283.501204</ele>
        <time>2026-07-09T16:05:04.000Z</time>
      </trkpt>
      <trkpt lat="46.56077" lon="15.65528">
        <ele>282.892733</ele>
        <time>2026-07-09T16:05:10.000Z</time>
      </trkpt>
      <trkpt lat="46.56069" lon="15.65502">
        <ele>282.351264</ele>
        <time>2026-07-09T16:05:16.000Z</time>
      </trkpt>
      <trkpt lat="46.56067" lon="15.65494">
        <ele>282.302208</ele>
        <time>2026-07-09T16:05:18.000Z</time>
      </trkpt>
      <trkpt lat="46.56065" lon="15.65487">
        <ele>282.255466</ele>
        <time>2026-07-09T16:05:20.000Z</time>
      </trkpt>
      <trkpt lat="46.56062" lon="15.65471">
        <ele>282.161532</ele>
        <time>2026-07-09T16:05:24.000Z</time>
      </trkpt>
      <trkpt lat="46.56059" lon="15.6545">
        <ele>282.036056</ele>
        <time>2026-07-09T16:05:29.000Z</time>
      </trkpt>
      <trkpt lat="46.56056" lon="15.65423">
        <ele>281.872071</ele>
        <time>2026-07-09T16:05:35.000Z</time>
      </trkpt>
      <trkpt lat="46.56054" lon="15.65381">
        <ele>281.628385</ele>
        <time>2026-07-09T16:05:44.000Z</time>
      </trkpt>
      <trkpt lat="46.56052" lon="15.6536">
        <ele>281.503266</ele>
        <time>2026-07-09T16:05:49.000Z</time>
      </trkpt>
      <trkpt lat="46.56052" lon="15.65334">
        <ele>281.345977</ele>
        <time>2026-07-09T16:05:55.000Z</time>
      </trkpt>
      <trkpt lat="46.56054" lon="15.65321">
        <ele>281.272303</ele>
        <time>2026-07-09T16:05:57.000Z</time>
      </trkpt>
      <trkpt lat="46.56056" lon="15.65311">
        <ele>281.20738</ele>
        <time>2026-07-09T16:05:59.000Z</time>
      </trkpt>
      <trkpt lat="46.56056" lon="15.65304">
        <ele>281.170766</ele>
        <time>2026-07-09T16:06:00.000Z</time>
      </trkpt>
      <trkpt lat="46.56056" lon="15.65277">
        <ele>281.010516</ele>
        <time>2026-07-09T16:06:05.000Z</time>
      </trkpt>
      <trkpt lat="46.56052" lon="15.65263">
        <ele>280.919491</ele>
        <time>2026-07-09T16:06:09.000Z</time>
      </trkpt>
      <trkpt lat="46.56047" lon="15.65245">
        <ele>280.8164</ele>
        <time>2026-07-09T16:06:14.000Z</time>
      </trkpt>
      <trkpt lat="46.56044" lon="15.65223">
        <ele>280.8164</ele>
        <time>2026-07-09T16:06:19.000Z</time>
      </trkpt>
      <trkpt lat="46.5605" lon="15.65199">
        <ele>280.8164</ele>
        <time>2026-07-09T16:06:23.000Z</time>
      </trkpt>
      <trkpt lat="46.56055" lon="15.65174">
        <ele>280.8164</ele>
        <time>2026-07-09T16:06:28.000Z</time>
      </trkpt>
      <trkpt lat="46.56047" lon="15.6516">
        <ele>280.8164</ele>
        <time>2026-07-09T16:06:32.000Z</time>
      </trkpt>
      <trkpt lat="46.56046" lon="15.65157">
        <ele>280.8164</ele>
        <time>2026-07-09T16:06:33.000Z</time>
      </trkpt>
      <trkpt lat="46.5604" lon="15.65137">
        <ele>280.8164</ele>
        <time>2026-07-09T16:06:39.000Z</time>
      </trkpt>
      <trkpt lat="46.56039" lon="15.65126">
        <ele>280.8164</ele>
        <time>2026-07-09T16:06:42.000Z</time>
      </trkpt>
      <trkpt lat="46.56035" lon="15.65123">
        <ele>280.8164</ele>
        <time>2026-07-09T16:06:44.000Z</time>
      </trkpt>
      <trkpt lat="46.56024" lon="15.65121">
        <ele>280.8164</ele>
        <time>2026-07-09T16:06:49.000Z</time>
      </trkpt>
      <trkpt lat="46.56023" lon="15.65117">
        <ele>280.8164</ele>
        <time>2026-07-09T16:06:50.000Z</time>
      </trkpt>
      <trkpt lat="46.56019" lon="15.65109">
        <ele>280.8164</ele>
        <time>2026-07-09T16:06:53.000Z</time>
      </trkpt>
      <trkpt lat="46.56017" lon="15.65109">
        <ele>280.8164</ele>
        <time>2026-07-09T16:06:55.000Z</time>
      </trkpt>
      <trkpt lat="46.56017" lon="15.6511">
        <ele>280.8164</ele>
        <time>2026-07-09T16:06:56.000Z</time>
      </trkpt>
      <trkpt lat="46.56018" lon="15.65111">
        <ele>280.8164</ele>
        <time>2026-07-09T16:06:57.000Z</time>
      </trkpt>
      <trkpt lat="46.5601" lon="15.65111">
        <ele>280.8164</ele>
        <time>2026-07-09T16:07:01.000Z</time>
      </trkpt>
      <trkpt lat="46.56" lon="15.65114">
        <ele>280.8164</ele>
        <time>2026-07-09T16:07:03.000Z</time>
      </trkpt>
      <trkpt lat="46.55991" lon="15.65123">
        <ele>280.8164</ele>
        <time>2026-07-09T16:07:05.000Z</time>
      </trkpt>
      <trkpt lat="46.55982" lon="15.65125">
        <ele>280.8164</ele>
        <time>2026-07-09T16:07:08.000Z</time>
      </trkpt>
      <trkpt lat="46.55976" lon="15.65121">
        <ele>280.8164</ele>
        <time>2026-07-09T16:07:10.000Z</time>
      </trkpt>
      <trkpt lat="46.55971" lon="15.65118">
        <ele>280.8164</ele>
        <time>2026-07-09T16:07:14.000Z</time>
      </trkpt>
      <trkpt lat="46.55962" lon="15.65112">
        <ele>280.8164</ele>
        <time>2026-07-09T16:07:23.000Z</time>
      </trkpt>
      <trkpt lat="46.55959" lon="15.65114">
        <ele>280.8164</ele>
        <time>2026-07-09T16:07:25.000Z</time>
      </trkpt>
      <trkpt lat="46.55952" lon="15.6512">
        <ele>280.8164</ele>
        <time>2026-07-09T16:07:27.000Z</time>
      </trkpt>
      <trkpt lat="46.55948" lon="15.65122">
        <ele>280.8164</ele>
        <time>2026-07-09T16:07:28.000Z</time>
      </trkpt>
      <trkpt lat="46.55935" lon="15.65121">
        <ele>280.8164</ele>
        <time>2026-07-09T16:07:31.000Z</time>
      </trkpt>
      <trkpt lat="46.55932" lon="15.6512">
        <ele>280.8164</ele>
        <time>2026-07-09T16:07:33.000Z</time>
      </trkpt>
      <trkpt lat="46.55932" lon="15.65119">
        <ele>280.8164</ele>
        <time>2026-07-09T16:07:34.000Z</time>
      </trkpt>
      <trkpt lat="46.5593" lon="15.65119">
        <ele>280.8164</ele>
        <time>2026-07-09T16:07:36.000Z</time>
      </trkpt>
      <trkpt lat="46.55921" lon="15.65115">
        <ele>280.8164</ele>
        <time>2026-07-09T16:07:43.000Z</time>
      </trkpt>
      <trkpt lat="46.55918" lon="15.65103">
        <ele>280.8164</ele>
        <time>2026-07-09T16:07:46.000Z</time>
      </trkpt>
      <trkpt lat="46.55919" lon="15.65095">
        <ele>280.8164</ele>
        <time>2026-07-09T16:07:48.000Z</time>
      </trkpt>
      <trkpt lat="46.5592" lon="15.65091">
        <ele>280.8164</ele>
        <time>2026-07-09T16:07:51.000Z</time>
      </trkpt>
    </trkseg>
  </trk>
</gpx>